<?xml version="1.0" encoding="UTF-8" standalone="no" ?>
<gpx xmlns="http://www.topografix.com/GPX/1/1" xmlns:xsi="http://www.w3.org/2001/XMLSchema-instance" xsi:schemaLocation="http://www.topografix.com/GPX/1/1 http://www.topografix.com/GPX/1/1/gpx.xsd" version="1.1" creator="VisuGPX - https://www.visugpx.com">
  <metadata>
    <name>Col de Faye col des Verniers col d'Espréaux</name>
    <desc><![CDATA[Boucle de 80 km avec un dénivelé de 1191 m au départ de Laragne. Liste des villages traversés et des cols passés : Lazer, Faye, col de Faye (934 m), Savournon, Le Sarret, col Chaumiane (827 m), Chabestan, Le Saix, Les Eyssagnières, St Auban d'Oze, col des Verniers (1042 m),Châteauneuf d'Oze, Le Moulin du Pied de Poua, Col d'Espréaux (1160 m), Esparon, Barcilonnette, route du canal, Rourebeau, Upaix, Lazer et Laragne.]]></desc>
  </metadata>
  <trk>
    <name><![CDATA[Col de Faye col des Verniers col d'Espréaux]]></name>
    <trkseg>
      <trkpt lat="44.31594" lon="5.82968">
        <ele>583</ele>
        <time>2019-06-15T06:53:41Z</time>
      </trkpt>
      <trkpt lat="44.31586" lon="5.82932">
        <ele>574</ele>
        <time>2019-06-15T06:54:06Z</time>
      </trkpt>
      <trkpt lat="44.31583" lon="5.82929">
        <ele>573</ele>
        <time>2019-06-15T06:54:07Z</time>
      </trkpt>
      <trkpt lat="44.31579" lon="5.82927">
        <ele>573</ele>
        <time>2019-06-15T06:54:08Z</time>
      </trkpt>
      <trkpt lat="44.31575" lon="5.82924">
        <ele>573</ele>
        <time>2019-06-15T06:54:09Z</time>
      </trkpt>
      <trkpt lat="44.3157" lon="5.82921">
        <ele>573</ele>
        <time>2019-06-15T06:54:10Z</time>
      </trkpt>
      <trkpt lat="44.31566" lon="5.82919">
        <ele>573</ele>
        <time>2019-06-15T06:54:11Z</time>
      </trkpt>
      <trkpt lat="44.31562" lon="5.82916">
        <ele>573</ele>
        <time>2019-06-15T06:54:12Z</time>
      </trkpt>
      <trkpt lat="44.31558" lon="5.82914">
        <ele>573</ele>
        <time>2019-06-15T06:54:13Z</time>
      </trkpt>
      <trkpt lat="44.31554" lon="5.82913">
        <ele>573</ele>
        <time>2019-06-15T06:54:14Z</time>
      </trkpt>
      <trkpt lat="44.31551" lon="5.82911">
        <ele>573</ele>
        <time>2019-06-15T06:54:15Z</time>
      </trkpt>
      <trkpt lat="44.31548" lon="5.82908">
        <ele>573</ele>
        <time>2019-06-15T06:54:16Z</time>
      </trkpt>
      <trkpt lat="44.31544" lon="5.82905">
        <ele>573</ele>
        <time>2019-06-15T06:54:17Z</time>
      </trkpt>
      <trkpt lat="44.31541" lon="5.82901">
        <ele>573</ele>
        <time>2019-06-15T06:54:18Z</time>
      </trkpt>
      <trkpt lat="44.31537" lon="5.82897">
        <ele>573</ele>
        <time>2019-06-15T06:54:19Z</time>
      </trkpt>
      <trkpt lat="44.31533" lon="5.82893">
        <ele>572</ele>
        <time>2019-06-15T06:54:20Z</time>
      </trkpt>
      <trkpt lat="44.3153" lon="5.82889">
        <ele>572</ele>
        <time>2019-06-15T06:54:21Z</time>
      </trkpt>
      <trkpt lat="44.31526" lon="5.82886">
        <ele>572</ele>
        <time>2019-06-15T06:54:22Z</time>
      </trkpt>
      <trkpt lat="44.31523" lon="5.82883">
        <ele>572</ele>
        <time>2019-06-15T06:54:23Z</time>
      </trkpt>
      <trkpt lat="44.31519" lon="5.8288">
        <ele>572</ele>
        <time>2019-06-15T06:54:24Z</time>
      </trkpt>
      <trkpt lat="44.31516" lon="5.82877">
        <ele>572</ele>
        <time>2019-06-15T06:54:25Z</time>
      </trkpt>
      <trkpt lat="44.31512" lon="5.82874">
        <ele>572</ele>
        <time>2019-06-15T06:54:26Z</time>
      </trkpt>
      <trkpt lat="44.31507" lon="5.82872">
        <ele>572</ele>
        <time>2019-06-15T06:54:27Z</time>
      </trkpt>
      <trkpt lat="44.31503" lon="5.82872">
        <ele>572</ele>
        <time>2019-06-15T06:54:28Z</time>
      </trkpt>
      <trkpt lat="44.31498" lon="5.82874">
        <ele>572</ele>
        <time>2019-06-15T06:54:29Z</time>
      </trkpt>
      <trkpt lat="44.31494" lon="5.82877">
        <ele>572</ele>
        <time>2019-06-15T06:54:30Z</time>
      </trkpt>
      <trkpt lat="44.3149" lon="5.82882">
        <ele>572</ele>
        <time>2019-06-15T06:54:31Z</time>
      </trkpt>
      <trkpt lat="44.31488" lon="5.82886">
        <ele>572</ele>
        <time>2019-06-15T06:54:32Z</time>
      </trkpt>
      <trkpt lat="44.31485" lon="5.82891">
        <ele>572</ele>
        <time>2019-06-15T06:54:33Z</time>
      </trkpt>
      <trkpt lat="44.31482" lon="5.82894">
        <ele>572</ele>
        <time>2019-06-15T06:54:34Z</time>
      </trkpt>
      <trkpt lat="44.3148" lon="5.82899">
        <ele>572</ele>
        <time>2019-06-15T06:54:35Z</time>
      </trkpt>
      <trkpt lat="44.31477" lon="5.82904">
        <ele>572</ele>
        <time>2019-06-15T06:54:36Z</time>
      </trkpt>
      <trkpt lat="44.31475" lon="5.82908">
        <ele>572</ele>
        <time>2019-06-15T06:54:37Z</time>
      </trkpt>
      <trkpt lat="44.31473" lon="5.82912">
        <ele>572</ele>
        <time>2019-06-15T06:54:38Z</time>
      </trkpt>
      <trkpt lat="44.3147" lon="5.82916">
        <ele>572</ele>
        <time>2019-06-15T06:54:39Z</time>
      </trkpt>
      <trkpt lat="44.31467" lon="5.8292">
        <ele>572</ele>
        <time>2019-06-15T06:54:40Z</time>
      </trkpt>
      <trkpt lat="44.31463" lon="5.82925">
        <ele>572</ele>
        <time>2019-06-15T06:54:41Z</time>
      </trkpt>
      <trkpt lat="44.3146" lon="5.82929">
        <ele>572</ele>
        <time>2019-06-15T06:54:42Z</time>
      </trkpt>
      <trkpt lat="44.31457" lon="5.82934">
        <ele>572</ele>
        <time>2019-06-15T06:54:43Z</time>
      </trkpt>
      <trkpt lat="44.31454" lon="5.8294">
        <ele>572</ele>
        <time>2019-06-15T06:54:44Z</time>
      </trkpt>
      <trkpt lat="44.3145" lon="5.82944">
        <ele>572</ele>
        <time>2019-06-15T06:54:45Z</time>
      </trkpt>
      <trkpt lat="44.31447" lon="5.82949">
        <ele>572</ele>
        <time>2019-06-15T06:54:46Z</time>
      </trkpt>
      <trkpt lat="44.31444" lon="5.82954">
        <ele>572</ele>
        <time>2019-06-15T06:54:47Z</time>
      </trkpt>
      <trkpt lat="44.3144" lon="5.82959">
        <ele>572</ele>
        <time>2019-06-15T06:54:48Z</time>
      </trkpt>
      <trkpt lat="44.31436" lon="5.82964">
        <ele>572</ele>
        <time>2019-06-15T06:54:49Z</time>
      </trkpt>
      <trkpt lat="44.31432" lon="5.82969">
        <ele>572</ele>
        <time>2019-06-15T06:54:50Z</time>
      </trkpt>
      <trkpt lat="44.31429" lon="5.82974">
        <ele>572</ele>
        <time>2019-06-15T06:54:51Z</time>
      </trkpt>
      <trkpt lat="44.31426" lon="5.82978">
        <ele>572</ele>
        <time>2019-06-15T06:54:52Z</time>
      </trkpt>
      <trkpt lat="44.31423" lon="5.82983">
        <ele>572</ele>
        <time>2019-06-15T06:54:53Z</time>
      </trkpt>
      <trkpt lat="44.31419" lon="5.82988">
        <ele>572</ele>
        <time>2019-06-15T06:54:54Z</time>
      </trkpt>
      <trkpt lat="44.31416" lon="5.82993">
        <ele>572</ele>
        <time>2019-06-15T06:54:55Z</time>
      </trkpt>
      <trkpt lat="44.31413" lon="5.82998">
        <ele>572</ele>
        <time>2019-06-15T06:54:56Z</time>
      </trkpt>
      <trkpt lat="44.3141" lon="5.83003">
        <ele>572</ele>
        <time>2019-06-15T06:54:57Z</time>
      </trkpt>
      <trkpt lat="44.31406" lon="5.83008">
        <ele>572</ele>
        <time>2019-06-15T06:54:58Z</time>
      </trkpt>
      <trkpt lat="44.31402" lon="5.83012">
        <ele>572</ele>
        <time>2019-06-15T06:54:59Z</time>
      </trkpt>
      <trkpt lat="44.31399" lon="5.83017">
        <ele>572</ele>
        <time>2019-06-15T06:55:00Z</time>
      </trkpt>
      <trkpt lat="44.31395" lon="5.83022">
        <ele>572</ele>
        <time>2019-06-15T06:55:01Z</time>
      </trkpt>
      <trkpt lat="44.31392" lon="5.83026">
        <ele>572</ele>
        <time>2019-06-15T06:55:02Z</time>
      </trkpt>
      <trkpt lat="44.31388" lon="5.83031">
        <ele>572</ele>
        <time>2019-06-15T06:55:03Z</time>
      </trkpt>
      <trkpt lat="44.31385" lon="5.83036">
        <ele>572</ele>
        <time>2019-06-15T06:55:04Z</time>
      </trkpt>
      <trkpt lat="44.31382" lon="5.8304">
        <ele>572</ele>
        <time>2019-06-15T06:55:05Z</time>
      </trkpt>
      <trkpt lat="44.31378" lon="5.83045">
        <ele>572</ele>
        <time>2019-06-15T06:55:06Z</time>
      </trkpt>
      <trkpt lat="44.31375" lon="5.83049">
        <ele>572</ele>
        <time>2019-06-15T06:55:07Z</time>
      </trkpt>
      <trkpt lat="44.31373" lon="5.83053">
        <ele>572</ele>
        <time>2019-06-15T06:55:08Z</time>
      </trkpt>
      <trkpt lat="44.31372" lon="5.83058">
        <ele>572</ele>
        <time>2019-06-15T06:55:09Z</time>
      </trkpt>
      <trkpt lat="44.3137" lon="5.83063">
        <ele>572</ele>
        <time>2019-06-15T06:55:10Z</time>
      </trkpt>
      <trkpt lat="44.31369" lon="5.83068">
        <ele>572</ele>
        <time>2019-06-15T06:55:11Z</time>
      </trkpt>
      <trkpt lat="44.31367" lon="5.83073">
        <ele>572</ele>
        <time>2019-06-15T06:55:12Z</time>
      </trkpt>
      <trkpt lat="44.31366" lon="5.83077">
        <ele>572</ele>
        <time>2019-06-15T06:55:13Z</time>
      </trkpt>
      <trkpt lat="44.31364" lon="5.83082">
        <ele>572</ele>
        <time>2019-06-15T06:55:14Z</time>
      </trkpt>
      <trkpt lat="44.31362" lon="5.83087">
        <ele>572</ele>
        <time>2019-06-15T06:55:15Z</time>
      </trkpt>
      <trkpt lat="44.31359" lon="5.83091">
        <ele>572</ele>
        <time>2019-06-15T06:55:16Z</time>
      </trkpt>
      <trkpt lat="44.31356" lon="5.83096">
        <ele>572</ele>
        <time>2019-06-15T06:55:17Z</time>
      </trkpt>
      <trkpt lat="44.31352" lon="5.83098">
        <ele>572</ele>
        <time>2019-06-15T06:55:18Z</time>
      </trkpt>
      <trkpt lat="44.31349" lon="5.83099">
        <ele>572</ele>
        <time>2019-06-15T06:55:19Z</time>
      </trkpt>
      <trkpt lat="44.31347" lon="5.83097">
        <ele>572</ele>
        <time>2019-06-15T06:55:20Z</time>
      </trkpt>
      <trkpt lat="44.31345" lon="5.83094">
        <ele>572</ele>
        <time>2019-06-15T06:55:21Z</time>
      </trkpt>
      <trkpt lat="44.31344" lon="5.83089">
        <ele>572</ele>
        <time>2019-06-15T06:55:22Z</time>
      </trkpt>
      <trkpt lat="44.31345" lon="5.83083">
        <ele>572</ele>
        <time>2019-06-15T06:55:23Z</time>
      </trkpt>
      <trkpt lat="44.31345" lon="5.83078">
        <ele>572</ele>
        <time>2019-06-15T06:55:24Z</time>
      </trkpt>
      <trkpt lat="44.31345" lon="5.83072">
        <ele>572</ele>
        <time>2019-06-15T06:55:25Z</time>
      </trkpt>
      <trkpt lat="44.31346" lon="5.83067">
        <ele>572</ele>
        <time>2019-06-15T06:55:26Z</time>
      </trkpt>
      <trkpt lat="44.31348" lon="5.83062">
        <ele>572</ele>
        <time>2019-06-15T06:55:27Z</time>
      </trkpt>
      <trkpt lat="44.31349" lon="5.83056">
        <ele>572</ele>
        <time>2019-06-15T06:55:28Z</time>
      </trkpt>
      <trkpt lat="44.31351" lon="5.8305">
        <ele>572</ele>
        <time>2019-06-15T06:55:29Z</time>
      </trkpt>
      <trkpt lat="44.31352" lon="5.83044">
        <ele>572</ele>
        <time>2019-06-15T06:55:30Z</time>
      </trkpt>
      <trkpt lat="44.31353" lon="5.83037">
        <ele>572</ele>
        <time>2019-06-15T06:55:31Z</time>
      </trkpt>
      <trkpt lat="44.31353" lon="5.83031">
        <ele>572</ele>
        <time>2019-06-15T06:55:32Z</time>
      </trkpt>
      <trkpt lat="44.31355" lon="5.83024">
        <ele>572</ele>
        <time>2019-06-15T06:55:33Z</time>
      </trkpt>
      <trkpt lat="44.31356" lon="5.83017">
        <ele>572</ele>
        <time>2019-06-15T06:55:34Z</time>
      </trkpt>
      <trkpt lat="44.31356" lon="5.8301">
        <ele>572</ele>
        <time>2019-06-15T06:55:35Z</time>
      </trkpt>
      <trkpt lat="44.31358" lon="5.83004">
        <ele>572</ele>
        <time>2019-06-15T06:55:36Z</time>
      </trkpt>
      <trkpt lat="44.31359" lon="5.82996">
        <ele>572</ele>
        <time>2019-06-15T06:55:37Z</time>
      </trkpt>
      <trkpt lat="44.31361" lon="5.82989">
        <ele>572</ele>
        <time>2019-06-15T06:55:38Z</time>
      </trkpt>
      <trkpt lat="44.31361" lon="5.82981">
        <ele>572</ele>
        <time>2019-06-15T06:55:39Z</time>
      </trkpt>
      <trkpt lat="44.31362" lon="5.82973">
        <ele>572</ele>
        <time>2019-06-15T06:55:40Z</time>
      </trkpt>
      <trkpt lat="44.31364" lon="5.82965">
        <ele>572</ele>
        <time>2019-06-15T06:55:41Z</time>
      </trkpt>
      <trkpt lat="44.31365" lon="5.82957">
        <ele>572</ele>
        <time>2019-06-15T06:55:42Z</time>
      </trkpt>
      <trkpt lat="44.31366" lon="5.82948">
        <ele>572</ele>
        <time>2019-06-15T06:55:43Z</time>
      </trkpt>
      <trkpt lat="44.31367" lon="5.82939">
        <ele>572</ele>
        <time>2019-06-15T06:55:44Z</time>
      </trkpt>
      <trkpt lat="44.31367" lon="5.8293">
        <ele>572</ele>
        <time>2019-06-15T06:55:45Z</time>
      </trkpt>
      <trkpt lat="44.31368" lon="5.82921">
        <ele>572</ele>
        <time>2019-06-15T06:55:46Z</time>
      </trkpt>
      <trkpt lat="44.31369" lon="5.82912">
        <ele>572</ele>
        <time>2019-06-15T06:55:47Z</time>
      </trkpt>
      <trkpt lat="44.31371" lon="5.82904">
        <ele>572</ele>
        <time>2019-06-15T06:55:48Z</time>
      </trkpt>
      <trkpt lat="44.31371" lon="5.82896">
        <ele>572</ele>
        <time>2019-06-15T06:55:49Z</time>
      </trkpt>
      <trkpt lat="44.31372" lon="5.82887">
        <ele>572</ele>
        <time>2019-06-15T06:55:50Z</time>
      </trkpt>
      <trkpt lat="44.31372" lon="5.82879">
        <ele>572</ele>
        <time>2019-06-15T06:55:51Z</time>
      </trkpt>
      <trkpt lat="44.31373" lon="5.82871">
        <ele>572</ele>
        <time>2019-06-15T06:55:52Z</time>
      </trkpt>
      <trkpt lat="44.31374" lon="5.82862">
        <ele>572</ele>
        <time>2019-06-15T06:55:53Z</time>
      </trkpt>
      <trkpt lat="44.31374" lon="5.82854">
        <ele>572</ele>
        <time>2019-06-15T06:55:54Z</time>
      </trkpt>
      <trkpt lat="44.31375" lon="5.82846">
        <ele>572</ele>
        <time>2019-06-15T06:55:55Z</time>
      </trkpt>
      <trkpt lat="44.31376" lon="5.82837">
        <ele>572</ele>
        <time>2019-06-15T06:55:56Z</time>
      </trkpt>
      <trkpt lat="44.31377" lon="5.82829">
        <ele>572</ele>
        <time>2019-06-15T06:55:57Z</time>
      </trkpt>
      <trkpt lat="44.31377" lon="5.82821">
        <ele>572</ele>
        <time>2019-06-15T06:55:58Z</time>
      </trkpt>
      <trkpt lat="44.31378" lon="5.82813">
        <ele>572</ele>
        <time>2019-06-15T06:55:59Z</time>
      </trkpt>
      <trkpt lat="44.31379" lon="5.82805">
        <ele>572</ele>
        <time>2019-06-15T06:56:00Z</time>
      </trkpt>
      <trkpt lat="44.3138" lon="5.82797">
        <ele>572</ele>
        <time>2019-06-15T06:56:01Z</time>
      </trkpt>
      <trkpt lat="44.3138" lon="5.82789">
        <ele>572</ele>
        <time>2019-06-15T06:56:02Z</time>
      </trkpt>
      <trkpt lat="44.3138" lon="5.82781">
        <ele>572</ele>
        <time>2019-06-15T06:56:03Z</time>
      </trkpt>
      <trkpt lat="44.3138" lon="5.82773">
        <ele>572</ele>
        <time>2019-06-15T06:56:04Z</time>
      </trkpt>
      <trkpt lat="44.31381" lon="5.82765">
        <ele>572</ele>
        <time>2019-06-15T06:56:05Z</time>
      </trkpt>
      <trkpt lat="44.31381" lon="5.82758">
        <ele>572</ele>
        <time>2019-06-15T06:56:06Z</time>
      </trkpt>
      <trkpt lat="44.31381" lon="5.82749">
        <ele>572</ele>
        <time>2019-06-15T06:56:07Z</time>
      </trkpt>
      <trkpt lat="44.31381" lon="5.82741">
        <ele>572</ele>
        <time>2019-06-15T06:56:08Z</time>
      </trkpt>
      <trkpt lat="44.31381" lon="5.82733">
        <ele>572</ele>
        <time>2019-06-15T06:56:09Z</time>
      </trkpt>
      <trkpt lat="44.31382" lon="5.82726">
        <ele>572</ele>
        <time>2019-06-15T06:56:10Z</time>
      </trkpt>
      <trkpt lat="44.31381" lon="5.82718">
        <ele>572</ele>
        <time>2019-06-15T06:56:11Z</time>
      </trkpt>
      <trkpt lat="44.3138" lon="5.8271">
        <ele>572</ele>
        <time>2019-06-15T06:56:12Z</time>
      </trkpt>
      <trkpt lat="44.3138" lon="5.82702">
        <ele>572</ele>
        <time>2019-06-15T06:56:13Z</time>
      </trkpt>
      <trkpt lat="44.3138" lon="5.82694">
        <ele>571</ele>
        <time>2019-06-15T06:56:14Z</time>
      </trkpt>
      <trkpt lat="44.3138" lon="5.82686">
        <ele>571</ele>
        <time>2019-06-15T06:56:15Z</time>
      </trkpt>
      <trkpt lat="44.31382" lon="5.82678">
        <ele>571</ele>
        <time>2019-06-15T06:56:16Z</time>
      </trkpt>
      <trkpt lat="44.31385" lon="5.82671">
        <ele>570</ele>
        <time>2019-06-15T06:56:17Z</time>
      </trkpt>
      <trkpt lat="44.31389" lon="5.82664">
        <ele>570</ele>
        <time>2019-06-15T06:56:18Z</time>
      </trkpt>
      <trkpt lat="44.31392" lon="5.82657">
        <ele>570</ele>
        <time>2019-06-15T06:56:19Z</time>
      </trkpt>
      <trkpt lat="44.31396" lon="5.8265">
        <ele>570</ele>
        <time>2019-06-15T06:56:20Z</time>
      </trkpt>
      <trkpt lat="44.31399" lon="5.82643">
        <ele>569</ele>
        <time>2019-06-15T06:56:21Z</time>
      </trkpt>
      <trkpt lat="44.31402" lon="5.82636">
        <ele>569</ele>
        <time>2019-06-15T06:56:22Z</time>
      </trkpt>
      <trkpt lat="44.31404" lon="5.82628">
        <ele>569</ele>
        <time>2019-06-15T06:56:23Z</time>
      </trkpt>
      <trkpt lat="44.31406" lon="5.8262">
        <ele>569</ele>
        <time>2019-06-15T06:56:24Z</time>
      </trkpt>
      <trkpt lat="44.31408" lon="5.82612">
        <ele>569</ele>
        <time>2019-06-15T06:56:25Z</time>
      </trkpt>
      <trkpt lat="44.31409" lon="5.82604">
        <ele>569</ele>
        <time>2019-06-15T06:56:26Z</time>
      </trkpt>
      <trkpt lat="44.31411" lon="5.82596">
        <ele>569</ele>
        <time>2019-06-15T06:56:27Z</time>
      </trkpt>
      <trkpt lat="44.31412" lon="5.82588">
        <ele>569</ele>
        <time>2019-06-15T06:56:28Z</time>
      </trkpt>
      <trkpt lat="44.31414" lon="5.82581">
        <ele>569</ele>
        <time>2019-06-15T06:56:29Z</time>
      </trkpt>
      <trkpt lat="44.31416" lon="5.82573">
        <ele>569</ele>
        <time>2019-06-15T06:56:30Z</time>
      </trkpt>
      <trkpt lat="44.31417" lon="5.82565">
        <ele>569</ele>
        <time>2019-06-15T06:56:31Z</time>
      </trkpt>
      <trkpt lat="44.31419" lon="5.82557">
        <ele>569</ele>
        <time>2019-06-15T06:56:32Z</time>
      </trkpt>
      <trkpt lat="44.3142" lon="5.82549">
        <ele>569</ele>
        <time>2019-06-15T06:56:33Z</time>
      </trkpt>
      <trkpt lat="44.31421" lon="5.82541">
        <ele>569</ele>
        <time>2019-06-15T06:56:34Z</time>
      </trkpt>
      <trkpt lat="44.31422" lon="5.82533">
        <ele>569</ele>
        <time>2019-06-15T06:56:35Z</time>
      </trkpt>
      <trkpt lat="44.31424" lon="5.82525">
        <ele>569</ele>
        <time>2019-06-15T06:56:36Z</time>
      </trkpt>
      <trkpt lat="44.31425" lon="5.82518">
        <ele>569</ele>
        <time>2019-06-15T06:56:37Z</time>
      </trkpt>
      <trkpt lat="44.31426" lon="5.8251">
        <ele>569</ele>
        <time>2019-06-15T06:56:38Z</time>
      </trkpt>
      <trkpt lat="44.31427" lon="5.82503">
        <ele>569</ele>
        <time>2019-06-15T06:56:39Z</time>
      </trkpt>
      <trkpt lat="44.31429" lon="5.82496">
        <ele>569</ele>
        <time>2019-06-15T06:56:40Z</time>
      </trkpt>
      <trkpt lat="44.3143" lon="5.82488">
        <ele>569</ele>
        <time>2019-06-15T06:56:41Z</time>
      </trkpt>
      <trkpt lat="44.3143" lon="5.8248">
        <ele>569</ele>
        <time>2019-06-15T06:56:42Z</time>
      </trkpt>
      <trkpt lat="44.3143" lon="5.82472">
        <ele>569</ele>
        <time>2019-06-15T06:56:43Z</time>
      </trkpt>
      <trkpt lat="44.3143" lon="5.82465">
        <ele>569</ele>
        <time>2019-06-15T06:56:44Z</time>
      </trkpt>
      <trkpt lat="44.31431" lon="5.82457">
        <ele>569</ele>
        <time>2019-06-15T06:56:45Z</time>
      </trkpt>
      <trkpt lat="44.31432" lon="5.8245">
        <ele>570</ele>
        <time>2019-06-15T06:56:46Z</time>
      </trkpt>
      <trkpt lat="44.31434" lon="5.82442">
        <ele>571</ele>
        <time>2019-06-15T06:56:47Z</time>
      </trkpt>
      <trkpt lat="44.31435" lon="5.82435">
        <ele>571</ele>
        <time>2019-06-15T06:56:48Z</time>
      </trkpt>
      <trkpt lat="44.31435" lon="5.82427">
        <ele>572</ele>
        <time>2019-06-15T06:56:49Z</time>
      </trkpt>
      <trkpt lat="44.31436" lon="5.82419">
        <ele>572</ele>
        <time>2019-06-15T06:56:50Z</time>
      </trkpt>
      <trkpt lat="44.31436" lon="5.82412">
        <ele>573</ele>
        <time>2019-06-15T06:56:51Z</time>
      </trkpt>
      <trkpt lat="44.31437" lon="5.82404">
        <ele>573</ele>
        <time>2019-06-15T06:56:52Z</time>
      </trkpt>
      <trkpt lat="44.31437" lon="5.82397">
        <ele>574</ele>
        <time>2019-06-15T06:56:53Z</time>
      </trkpt>
      <trkpt lat="44.31436" lon="5.82389">
        <ele>575</ele>
        <time>2019-06-15T06:56:54Z</time>
      </trkpt>
      <trkpt lat="44.31435" lon="5.82382">
        <ele>576</ele>
        <time>2019-06-15T06:56:55Z</time>
      </trkpt>
      <trkpt lat="44.31432" lon="5.82375">
        <ele>577</ele>
        <time>2019-06-15T06:56:56Z</time>
      </trkpt>
      <trkpt lat="44.3143" lon="5.82369">
        <ele>578</ele>
        <time>2019-06-15T06:56:57Z</time>
      </trkpt>
      <trkpt lat="44.3143" lon="5.82364">
        <ele>579</ele>
        <time>2019-06-15T06:56:58Z</time>
      </trkpt>
      <trkpt lat="44.31431" lon="5.8236">
        <ele>580</ele>
        <time>2019-06-15T06:56:59Z</time>
      </trkpt>
      <trkpt lat="44.31435" lon="5.82359">
        <ele>581</ele>
        <time>2019-06-15T06:57:00Z</time>
      </trkpt>
      <trkpt lat="44.3144" lon="5.8236">
        <ele>582</ele>
        <time>2019-06-15T06:57:01Z</time>
      </trkpt>
      <trkpt lat="44.31443" lon="5.82361">
        <ele>583</ele>
        <time>2019-06-15T06:57:02Z</time>
      </trkpt>
      <trkpt lat="44.31451" lon="5.82365">
        <ele>584</ele>
        <time>2019-06-15T06:57:03Z</time>
      </trkpt>
      <trkpt lat="44.31457" lon="5.82369">
        <ele>584</ele>
        <time>2019-06-15T06:57:03Z</time>
      </trkpt>
      <trkpt lat="44.31463" lon="5.82374">
        <ele>584</ele>
        <time>2019-06-15T06:57:05Z</time>
      </trkpt>
      <trkpt lat="44.31467" lon="5.82379">
        <ele>584</ele>
        <time>2019-06-15T06:57:06Z</time>
      </trkpt>
      <trkpt lat="44.31472" lon="5.82385">
        <ele>584</ele>
        <time>2019-06-15T06:57:07Z</time>
      </trkpt>
      <trkpt lat="44.31477" lon="5.82391">
        <ele>583</ele>
        <time>2019-06-15T06:57:08Z</time>
      </trkpt>
      <trkpt lat="44.31481" lon="5.82398">
        <ele>582</ele>
        <time>2019-06-15T06:57:08Z</time>
      </trkpt>
      <trkpt lat="44.31486" lon="5.82404">
        <ele>581</ele>
        <time>2019-06-15T06:57:10Z</time>
      </trkpt>
      <trkpt lat="44.31491" lon="5.8241">
        <ele>580</ele>
        <time>2019-06-15T06:57:11Z</time>
      </trkpt>
      <trkpt lat="44.31496" lon="5.82416">
        <ele>579</ele>
        <time>2019-06-15T06:57:12Z</time>
      </trkpt>
      <trkpt lat="44.31502" lon="5.82422">
        <ele>578</ele>
        <time>2019-06-15T06:57:13Z</time>
      </trkpt>
      <trkpt lat="44.31507" lon="5.82428">
        <ele>578</ele>
        <time>2019-06-15T06:57:14Z</time>
      </trkpt>
      <trkpt lat="44.31513" lon="5.82433">
        <ele>577</ele>
        <time>2019-06-15T06:57:15Z</time>
      </trkpt>
      <trkpt lat="44.31518" lon="5.82439">
        <ele>577</ele>
        <time>2019-06-15T06:57:16Z</time>
      </trkpt>
      <trkpt lat="44.31524" lon="5.82444">
        <ele>576</ele>
        <time>2019-06-15T06:57:17Z</time>
      </trkpt>
      <trkpt lat="44.31529" lon="5.8245">
        <ele>576</ele>
        <time>2019-06-15T06:57:18Z</time>
      </trkpt>
      <trkpt lat="44.31535" lon="5.82455">
        <ele>576</ele>
        <time>2019-06-15T06:57:19Z</time>
      </trkpt>
      <trkpt lat="44.31539" lon="5.82461">
        <ele>576</ele>
        <time>2019-06-15T06:57:20Z</time>
      </trkpt>
      <trkpt lat="44.31544" lon="5.82466">
        <ele>576</ele>
        <time>2019-06-15T06:57:21Z</time>
      </trkpt>
      <trkpt lat="44.31548" lon="5.82471">
        <ele>575</ele>
        <time>2019-06-15T06:57:22Z</time>
      </trkpt>
      <trkpt lat="44.31552" lon="5.82476">
        <ele>575</ele>
        <time>2019-06-15T06:57:23Z</time>
      </trkpt>
      <trkpt lat="44.31557" lon="5.8248">
        <ele>575</ele>
        <time>2019-06-15T06:57:24Z</time>
      </trkpt>
      <trkpt lat="44.31561" lon="5.82484">
        <ele>574</ele>
        <time>2019-06-15T06:57:25Z</time>
      </trkpt>
      <trkpt lat="44.31566" lon="5.82489">
        <ele>574</ele>
        <time>2019-06-15T06:57:26Z</time>
      </trkpt>
      <trkpt lat="44.3157" lon="5.82494">
        <ele>574</ele>
        <time>2019-06-15T06:57:27Z</time>
      </trkpt>
      <trkpt lat="44.31574" lon="5.82499">
        <ele>573</ele>
        <time>2019-06-15T06:57:28Z</time>
      </trkpt>
      <trkpt lat="44.31578" lon="5.82503">
        <ele>573</ele>
        <time>2019-06-15T06:57:29Z</time>
      </trkpt>
      <trkpt lat="44.31582" lon="5.82508">
        <ele>573</ele>
        <time>2019-06-15T06:57:30Z</time>
      </trkpt>
      <trkpt lat="44.31586" lon="5.82513">
        <ele>573</ele>
        <time>2019-06-15T06:57:31Z</time>
      </trkpt>
      <trkpt lat="44.3159" lon="5.82517">
        <ele>572</ele>
        <time>2019-06-15T06:57:32Z</time>
      </trkpt>
      <trkpt lat="44.31595" lon="5.82521">
        <ele>572</ele>
        <time>2019-06-15T06:57:33Z</time>
      </trkpt>
      <trkpt lat="44.31599" lon="5.82525">
        <ele>572</ele>
        <time>2019-06-15T06:57:34Z</time>
      </trkpt>
      <trkpt lat="44.31604" lon="5.82529">
        <ele>572</ele>
        <time>2019-06-15T06:57:35Z</time>
      </trkpt>
      <trkpt lat="44.31608" lon="5.82533">
        <ele>572</ele>
        <time>2019-06-15T06:57:36Z</time>
      </trkpt>
      <trkpt lat="44.31611" lon="5.82537">
        <ele>572</ele>
        <time>2019-06-15T06:57:37Z</time>
      </trkpt>
      <trkpt lat="44.31615" lon="5.82541">
        <ele>572</ele>
        <time>2019-06-15T06:57:38Z</time>
      </trkpt>
      <trkpt lat="44.31619" lon="5.82545">
        <ele>572</ele>
        <time>2019-06-15T06:57:39Z</time>
      </trkpt>
      <trkpt lat="44.31623" lon="5.82549">
        <ele>572</ele>
        <time>2019-06-15T06:57:40Z</time>
      </trkpt>
      <trkpt lat="44.31628" lon="5.82553">
        <ele>572</ele>
        <time>2019-06-15T06:57:41Z</time>
      </trkpt>
      <trkpt lat="44.31632" lon="5.82557">
        <ele>572</ele>
        <time>2019-06-15T06:57:42Z</time>
      </trkpt>
      <trkpt lat="44.31636" lon="5.82562">
        <ele>572</ele>
        <time>2019-06-15T06:57:43Z</time>
      </trkpt>
      <trkpt lat="44.3164" lon="5.82566">
        <ele>572</ele>
        <time>2019-06-15T06:57:44Z</time>
      </trkpt>
      <trkpt lat="44.31644" lon="5.8257">
        <ele>572</ele>
        <time>2019-06-15T06:57:45Z</time>
      </trkpt>
      <trkpt lat="44.31648" lon="5.82575">
        <ele>572</ele>
        <time>2019-06-15T06:57:46Z</time>
      </trkpt>
      <trkpt lat="44.31652" lon="5.82579">
        <ele>572</ele>
        <time>2019-06-15T06:57:47Z</time>
      </trkpt>
      <trkpt lat="44.31656" lon="5.82584">
        <ele>572</ele>
        <time>2019-06-15T06:57:48Z</time>
      </trkpt>
      <trkpt lat="44.3166" lon="5.82588">
        <ele>572</ele>
        <time>2019-06-15T06:57:49Z</time>
      </trkpt>
      <trkpt lat="44.31664" lon="5.82593">
        <ele>572</ele>
        <time>2019-06-15T06:57:50Z</time>
      </trkpt>
      <trkpt lat="44.31668" lon="5.82598">
        <ele>572</ele>
        <time>2019-06-15T06:57:51Z</time>
      </trkpt>
      <trkpt lat="44.31672" lon="5.82603">
        <ele>572</ele>
        <time>2019-06-15T06:57:52Z</time>
      </trkpt>
      <trkpt lat="44.31676" lon="5.82607">
        <ele>572</ele>
        <time>2019-06-15T06:57:53Z</time>
      </trkpt>
      <trkpt lat="44.3168" lon="5.82611">
        <ele>572</ele>
        <time>2019-06-15T06:57:54Z</time>
      </trkpt>
      <trkpt lat="44.31684" lon="5.82615">
        <ele>572</ele>
        <time>2019-06-15T06:57:55Z</time>
      </trkpt>
      <trkpt lat="44.31688" lon="5.8262">
        <ele>572</ele>
        <time>2019-06-15T06:57:56Z</time>
      </trkpt>
      <trkpt lat="44.31692" lon="5.82624">
        <ele>572</ele>
        <time>2019-06-15T06:57:57Z</time>
      </trkpt>
      <trkpt lat="44.31696" lon="5.82628">
        <ele>572</ele>
        <time>2019-06-15T06:57:58Z</time>
      </trkpt>
      <trkpt lat="44.317" lon="5.82631">
        <ele>572</ele>
        <time>2019-06-15T06:57:59Z</time>
      </trkpt>
      <trkpt lat="44.31704" lon="5.82635">
        <ele>572</ele>
        <time>2019-06-15T06:58:00Z</time>
      </trkpt>
      <trkpt lat="44.31708" lon="5.8264">
        <ele>572</ele>
        <time>2019-06-15T06:58:01Z</time>
      </trkpt>
      <trkpt lat="44.31712" lon="5.82644">
        <ele>572</ele>
        <time>2019-06-15T06:58:02Z</time>
      </trkpt>
      <trkpt lat="44.31715" lon="5.82648">
        <ele>572</ele>
        <time>2019-06-15T06:58:03Z</time>
      </trkpt>
      <trkpt lat="44.31718" lon="5.82652">
        <ele>572</ele>
        <time>2019-06-15T06:58:04Z</time>
      </trkpt>
      <trkpt lat="44.3172" lon="5.82655">
        <ele>572</ele>
        <time>2019-06-15T06:58:05Z</time>
      </trkpt>
      <trkpt lat="44.31722" lon="5.82657">
        <ele>572</ele>
        <time>2019-06-15T06:58:06Z</time>
      </trkpt>
      <trkpt lat="44.31723" lon="5.82659">
        <ele>572</ele>
        <time>2019-06-15T06:58:07Z</time>
      </trkpt>
      <trkpt lat="44.31725" lon="5.8266">
        <ele>572</ele>
        <time>2019-06-15T06:58:08Z</time>
      </trkpt>
      <trkpt lat="44.31723" lon="5.8266">
        <ele>572</ele>
        <time>2019-06-15T06:58:16Z</time>
      </trkpt>
      <trkpt lat="44.31722" lon="5.8266">
        <ele>572</ele>
        <time>2019-06-15T06:58:28Z</time>
      </trkpt>
      <trkpt lat="44.31723" lon="5.82662">
        <ele>572</ele>
        <time>2019-06-15T06:58:33Z</time>
      </trkpt>
      <trkpt lat="44.31723" lon="5.82664">
        <ele>572</ele>
        <time>2019-06-15T06:58:36Z</time>
      </trkpt>
      <trkpt lat="44.31724" lon="5.82666">
        <ele>572</ele>
        <time>2019-06-15T06:58:48Z</time>
      </trkpt>
      <trkpt lat="44.31724" lon="5.82664">
        <ele>572</ele>
        <time>2019-06-15T06:59:02Z</time>
      </trkpt>
      <trkpt lat="44.31723" lon="5.82665">
        <ele>572</ele>
        <time>2019-06-15T06:59:06Z</time>
      </trkpt>
      <trkpt lat="44.31722" lon="5.82665">
        <ele>572</ele>
        <time>2019-06-15T06:59:16Z</time>
      </trkpt>
      <trkpt lat="44.31724" lon="5.82667">
        <ele>572</ele>
        <time>2019-06-15T06:59:25Z</time>
      </trkpt>
      <trkpt lat="44.31725" lon="5.82667">
        <ele>572</ele>
        <time>2019-06-15T06:59:26Z</time>
      </trkpt>
      <trkpt lat="44.31727" lon="5.82667">
        <ele>572</ele>
        <time>2019-06-15T06:59:27Z</time>
      </trkpt>
      <trkpt lat="44.31729" lon="5.82668">
        <ele>572</ele>
        <time>2019-06-15T06:59:28Z</time>
      </trkpt>
      <trkpt lat="44.31731" lon="5.82669">
        <ele>572</ele>
        <time>2019-06-15T06:59:29Z</time>
      </trkpt>
      <trkpt lat="44.31732" lon="5.8267">
        <ele>572</ele>
        <time>2019-06-15T06:59:30Z</time>
      </trkpt>
      <trkpt lat="44.31735" lon="5.82672">
        <ele>572</ele>
        <time>2019-06-15T06:59:31Z</time>
      </trkpt>
      <trkpt lat="44.31737" lon="5.82673">
        <ele>572</ele>
        <time>2019-06-15T06:59:32Z</time>
      </trkpt>
      <trkpt lat="44.31739" lon="5.82674">
        <ele>572</ele>
        <time>2019-06-15T06:59:33Z</time>
      </trkpt>
      <trkpt lat="44.31743" lon="5.82678">
        <ele>572</ele>
        <time>2019-06-15T06:59:34Z</time>
      </trkpt>
      <trkpt lat="44.31746" lon="5.82682">
        <ele>572</ele>
        <time>2019-06-15T06:59:35Z</time>
      </trkpt>
      <trkpt lat="44.3175" lon="5.82685">
        <ele>572</ele>
        <time>2019-06-15T06:59:36Z</time>
      </trkpt>
      <trkpt lat="44.31753" lon="5.82688">
        <ele>571</ele>
        <time>2019-06-15T06:59:37Z</time>
      </trkpt>
      <trkpt lat="44.31757" lon="5.82691">
        <ele>571</ele>
        <time>2019-06-15T06:59:38Z</time>
      </trkpt>
      <trkpt lat="44.31761" lon="5.82695">
        <ele>571</ele>
        <time>2019-06-15T06:59:39Z</time>
      </trkpt>
      <trkpt lat="44.31766" lon="5.82699">
        <ele>570</ele>
        <time>2019-06-15T06:59:40Z</time>
      </trkpt>
      <trkpt lat="44.31769" lon="5.82704">
        <ele>570</ele>
        <time>2019-06-15T06:59:41Z</time>
      </trkpt>
      <trkpt lat="44.31773" lon="5.82707">
        <ele>570</ele>
        <time>2019-06-15T06:59:42Z</time>
      </trkpt>
      <trkpt lat="44.31778" lon="5.82711">
        <ele>570</ele>
        <time>2019-06-15T06:59:43Z</time>
      </trkpt>
      <trkpt lat="44.31782" lon="5.82714">
        <ele>570</ele>
        <time>2019-06-15T06:59:44Z</time>
      </trkpt>
      <trkpt lat="44.31786" lon="5.82717">
        <ele>570</ele>
        <time>2019-06-15T06:59:45Z</time>
      </trkpt>
      <trkpt lat="44.31789" lon="5.82721">
        <ele>570</ele>
        <time>2019-06-15T06:59:46Z</time>
      </trkpt>
      <trkpt lat="44.31793" lon="5.82724">
        <ele>570</ele>
        <time>2019-06-15T06:59:47Z</time>
      </trkpt>
      <trkpt lat="44.31796" lon="5.82728">
        <ele>570</ele>
        <time>2019-06-15T06:59:48Z</time>
      </trkpt>
      <trkpt lat="44.318" lon="5.82731">
        <ele>570</ele>
        <time>2019-06-15T06:59:49Z</time>
      </trkpt>
      <trkpt lat="44.31803" lon="5.82734">
        <ele>570</ele>
        <time>2019-06-15T06:59:50Z</time>
      </trkpt>
      <trkpt lat="44.31807" lon="5.82738">
        <ele>570</ele>
        <time>2019-06-15T06:59:51Z</time>
      </trkpt>
      <trkpt lat="44.3181" lon="5.82741">
        <ele>570</ele>
        <time>2019-06-15T06:59:52Z</time>
      </trkpt>
      <trkpt lat="44.31814" lon="5.82745">
        <ele>570</ele>
        <time>2019-06-15T06:59:53Z</time>
      </trkpt>
      <trkpt lat="44.31818" lon="5.82748">
        <ele>570</ele>
        <time>2019-06-15T06:59:54Z</time>
      </trkpt>
      <trkpt lat="44.31821" lon="5.82751">
        <ele>570</ele>
        <time>2019-06-15T06:59:55Z</time>
      </trkpt>
      <trkpt lat="44.31825" lon="5.82754">
        <ele>570</ele>
        <time>2019-06-15T06:59:56Z</time>
      </trkpt>
      <trkpt lat="44.31829" lon="5.82757">
        <ele>570</ele>
        <time>2019-06-15T06:59:57Z</time>
      </trkpt>
      <trkpt lat="44.31833" lon="5.82759">
        <ele>570</ele>
        <time>2019-06-15T06:59:58Z</time>
      </trkpt>
      <trkpt lat="44.31837" lon="5.82761">
        <ele>570</ele>
        <time>2019-06-15T06:59:59Z</time>
      </trkpt>
      <trkpt lat="44.31842" lon="5.82764">
        <ele>570</ele>
        <time>2019-06-15T07:00:00Z</time>
      </trkpt>
      <trkpt lat="44.31846" lon="5.82766">
        <ele>570</ele>
        <time>2019-06-15T07:00:01Z</time>
      </trkpt>
      <trkpt lat="44.3185" lon="5.82768">
        <ele>570</ele>
        <time>2019-06-15T07:00:02Z</time>
      </trkpt>
      <trkpt lat="44.31855" lon="5.8277">
        <ele>570</ele>
        <time>2019-06-15T07:00:03Z</time>
      </trkpt>
      <trkpt lat="44.31859" lon="5.82771">
        <ele>570</ele>
        <time>2019-06-15T07:00:04Z</time>
      </trkpt>
      <trkpt lat="44.31863" lon="5.82772">
        <ele>570</ele>
        <time>2019-06-15T07:00:05Z</time>
      </trkpt>
      <trkpt lat="44.31868" lon="5.82773">
        <ele>570</ele>
        <time>2019-06-15T07:00:06Z</time>
      </trkpt>
      <trkpt lat="44.31872" lon="5.82774">
        <ele>570</ele>
        <time>2019-06-15T07:00:07Z</time>
      </trkpt>
      <trkpt lat="44.31876" lon="5.82775">
        <ele>570</ele>
        <time>2019-06-15T07:00:08Z</time>
      </trkpt>
      <trkpt lat="44.31881" lon="5.82775">
        <ele>570</ele>
        <time>2019-06-15T07:00:09Z</time>
      </trkpt>
      <trkpt lat="44.31885" lon="5.82776">
        <ele>570</ele>
        <time>2019-06-15T07:00:10Z</time>
      </trkpt>
      <trkpt lat="44.31889" lon="5.82776">
        <ele>570</ele>
        <time>2019-06-15T07:00:11Z</time>
      </trkpt>
      <trkpt lat="44.31893" lon="5.82776">
        <ele>570</ele>
        <time>2019-06-15T07:00:12Z</time>
      </trkpt>
      <trkpt lat="44.31897" lon="5.82776">
        <ele>570</ele>
        <time>2019-06-15T07:00:13Z</time>
      </trkpt>
      <trkpt lat="44.31902" lon="5.82776">
        <ele>570</ele>
        <time>2019-06-15T07:00:14Z</time>
      </trkpt>
      <trkpt lat="44.31906" lon="5.82776">
        <ele>570</ele>
        <time>2019-06-15T07:00:15Z</time>
      </trkpt>
      <trkpt lat="44.3191" lon="5.82776">
        <ele>570</ele>
        <time>2019-06-15T07:00:16Z</time>
      </trkpt>
      <trkpt lat="44.31915" lon="5.82776">
        <ele>570</ele>
        <time>2019-06-15T07:00:17Z</time>
      </trkpt>
      <trkpt lat="44.31919" lon="5.82777">
        <ele>570</ele>
        <time>2019-06-15T07:00:18Z</time>
      </trkpt>
      <trkpt lat="44.31924" lon="5.82778">
        <ele>571</ele>
        <time>2019-06-15T07:00:19Z</time>
      </trkpt>
      <trkpt lat="44.31928" lon="5.82778">
        <ele>571</ele>
        <time>2019-06-15T07:00:20Z</time>
      </trkpt>
      <trkpt lat="44.31932" lon="5.82779">
        <ele>571</ele>
        <time>2019-06-15T07:00:21Z</time>
      </trkpt>
      <trkpt lat="44.31936" lon="5.82781">
        <ele>571</ele>
        <time>2019-06-15T07:00:22Z</time>
      </trkpt>
      <trkpt lat="44.31939" lon="5.82782">
        <ele>571</ele>
        <time>2019-06-15T07:00:23Z</time>
      </trkpt>
      <trkpt lat="44.31944" lon="5.82783">
        <ele>571</ele>
        <time>2019-06-15T07:00:24Z</time>
      </trkpt>
      <trkpt lat="44.31948" lon="5.82785">
        <ele>571</ele>
        <time>2019-06-15T07:00:25Z</time>
      </trkpt>
      <trkpt lat="44.31952" lon="5.82786">
        <ele>571</ele>
        <time>2019-06-15T07:00:26Z</time>
      </trkpt>
      <trkpt lat="44.31957" lon="5.82788">
        <ele>571</ele>
        <time>2019-06-15T07:00:27Z</time>
      </trkpt>
      <trkpt lat="44.31961" lon="5.8279">
        <ele>571</ele>
        <time>2019-06-15T07:00:28Z</time>
      </trkpt>
      <trkpt lat="44.31966" lon="5.82792">
        <ele>571</ele>
        <time>2019-06-15T07:00:28Z</time>
      </trkpt>
      <trkpt lat="44.31971" lon="5.82793">
        <ele>571</ele>
        <time>2019-06-15T07:00:30Z</time>
      </trkpt>
      <trkpt lat="44.31975" lon="5.82794">
        <ele>571</ele>
        <time>2019-06-15T07:00:31Z</time>
      </trkpt>
      <trkpt lat="44.31979" lon="5.82796">
        <ele>571</ele>
        <time>2019-06-15T07:00:32Z</time>
      </trkpt>
      <trkpt lat="44.31983" lon="5.82797">
        <ele>571</ele>
        <time>2019-06-15T07:00:33Z</time>
      </trkpt>
      <trkpt lat="44.31987" lon="5.82799">
        <ele>571</ele>
        <time>2019-06-15T07:00:34Z</time>
      </trkpt>
      <trkpt lat="44.31991" lon="5.82801">
        <ele>571</ele>
        <time>2019-06-15T07:00:35Z</time>
      </trkpt>
      <trkpt lat="44.31995" lon="5.82802">
        <ele>571</ele>
        <time>2019-06-15T07:00:36Z</time>
      </trkpt>
      <trkpt lat="44.31999" lon="5.82804">
        <ele>571</ele>
        <time>2019-06-15T07:00:37Z</time>
      </trkpt>
      <trkpt lat="44.32003" lon="5.82806">
        <ele>571</ele>
        <time>2019-06-15T07:00:38Z</time>
      </trkpt>
      <trkpt lat="44.32007" lon="5.82808">
        <ele>571</ele>
        <time>2019-06-15T07:00:39Z</time>
      </trkpt>
      <trkpt lat="44.32011" lon="5.8281">
        <ele>571</ele>
        <time>2019-06-15T07:00:40Z</time>
      </trkpt>
      <trkpt lat="44.32014" lon="5.82811">
        <ele>571</ele>
        <time>2019-06-15T07:00:41Z</time>
      </trkpt>
      <trkpt lat="44.32018" lon="5.82813">
        <ele>571</ele>
        <time>2019-06-15T07:00:42Z</time>
      </trkpt>
      <trkpt lat="44.32022" lon="5.82816">
        <ele>571</ele>
        <time>2019-06-15T07:00:43Z</time>
      </trkpt>
      <trkpt lat="44.32026" lon="5.82818">
        <ele>571</ele>
        <time>2019-06-15T07:00:44Z</time>
      </trkpt>
      <trkpt lat="44.32029" lon="5.8282">
        <ele>571</ele>
        <time>2019-06-15T07:00:45Z</time>
      </trkpt>
      <trkpt lat="44.32033" lon="5.82822">
        <ele>572</ele>
        <time>2019-06-15T07:00:46Z</time>
      </trkpt>
      <trkpt lat="44.32037" lon="5.82824">
        <ele>572</ele>
        <time>2019-06-15T07:00:47Z</time>
      </trkpt>
      <trkpt lat="44.32041" lon="5.82826">
        <ele>572</ele>
        <time>2019-06-15T07:00:48Z</time>
      </trkpt>
      <trkpt lat="44.32044" lon="5.82829">
        <ele>572</ele>
        <time>2019-06-15T07:00:48Z</time>
      </trkpt>
      <trkpt lat="44.32048" lon="5.82831">
        <ele>572</ele>
        <time>2019-06-15T07:00:50Z</time>
      </trkpt>
      <trkpt lat="44.32051" lon="5.82833">
        <ele>572</ele>
        <time>2019-06-15T07:00:51Z</time>
      </trkpt>
      <trkpt lat="44.32055" lon="5.82835">
        <ele>572</ele>
        <time>2019-06-15T07:00:51Z</time>
      </trkpt>
      <trkpt lat="44.32058" lon="5.82838">
        <ele>572</ele>
        <time>2019-06-15T07:00:53Z</time>
      </trkpt>
      <trkpt lat="44.32062" lon="5.82841">
        <ele>572</ele>
        <time>2019-06-15T07:00:54Z</time>
      </trkpt>
      <trkpt lat="44.32065" lon="5.82843">
        <ele>573</ele>
        <time>2019-06-15T07:00:55Z</time>
      </trkpt>
      <trkpt lat="44.32068" lon="5.82844">
        <ele>573</ele>
        <time>2019-06-15T07:00:56Z</time>
      </trkpt>
      <trkpt lat="44.32071" lon="5.82846">
        <ele>574</ele>
        <time>2019-06-15T07:00:57Z</time>
      </trkpt>
      <trkpt lat="44.32073" lon="5.82847">
        <ele>574</ele>
        <time>2019-06-15T07:00:58Z</time>
      </trkpt>
      <trkpt lat="44.32076" lon="5.8285">
        <ele>575</ele>
        <time>2019-06-15T07:00:59Z</time>
      </trkpt>
      <trkpt lat="44.32079" lon="5.82852">
        <ele>575</ele>
        <time>2019-06-15T07:01:00Z</time>
      </trkpt>
      <trkpt lat="44.32084" lon="5.82853">
        <ele>576</ele>
        <time>2019-06-15T07:01:00Z</time>
      </trkpt>
      <trkpt lat="44.32087" lon="5.82856">
        <ele>576</ele>
        <time>2019-06-15T07:01:02Z</time>
      </trkpt>
      <trkpt lat="44.3209" lon="5.82857">
        <ele>576</ele>
        <time>2019-06-15T07:01:03Z</time>
      </trkpt>
      <trkpt lat="44.32094" lon="5.82859">
        <ele>576</ele>
        <time>2019-06-15T07:01:04Z</time>
      </trkpt>
      <trkpt lat="44.32098" lon="5.8286">
        <ele>577</ele>
        <time>2019-06-15T07:01:05Z</time>
      </trkpt>
      <trkpt lat="44.32102" lon="5.82861">
        <ele>577</ele>
        <time>2019-06-15T07:01:06Z</time>
      </trkpt>
      <trkpt lat="44.32106" lon="5.82863">
        <ele>578</ele>
        <time>2019-06-15T07:01:07Z</time>
      </trkpt>
      <trkpt lat="44.32111" lon="5.82864">
        <ele>579</ele>
        <time>2019-06-15T07:01:08Z</time>
      </trkpt>
      <trkpt lat="44.32115" lon="5.82865">
        <ele>579</ele>
        <time>2019-06-15T07:01:08Z</time>
      </trkpt>
      <trkpt lat="44.32119" lon="5.82866">
        <ele>580</ele>
        <time>2019-06-15T07:01:10Z</time>
      </trkpt>
      <trkpt lat="44.32124" lon="5.82867">
        <ele>580</ele>
        <time>2019-06-15T07:01:11Z</time>
      </trkpt>
      <trkpt lat="44.32128" lon="5.82869">
        <ele>580</ele>
        <time>2019-06-15T07:01:12Z</time>
      </trkpt>
      <trkpt lat="44.32133" lon="5.82871">
        <ele>581</ele>
        <time>2019-06-15T07:01:13Z</time>
      </trkpt>
      <trkpt lat="44.32138" lon="5.82873">
        <ele>581</ele>
        <time>2019-06-15T07:01:14Z</time>
      </trkpt>
      <trkpt lat="44.32143" lon="5.82875">
        <ele>581</ele>
        <time>2019-06-15T07:01:15Z</time>
      </trkpt>
      <trkpt lat="44.32148" lon="5.82876">
        <ele>582</ele>
        <time>2019-06-15T07:01:15Z</time>
      </trkpt>
      <trkpt lat="44.32152" lon="5.82878">
        <ele>582</ele>
        <time>2019-06-15T07:01:17Z</time>
      </trkpt>
      <trkpt lat="44.32158" lon="5.8288">
        <ele>582</ele>
        <time>2019-06-15T07:01:18Z</time>
      </trkpt>
      <trkpt lat="44.32163" lon="5.82882">
        <ele>582</ele>
        <time>2019-06-15T07:01:19Z</time>
      </trkpt>
      <trkpt lat="44.32168" lon="5.82885">
        <ele>582</ele>
        <time>2019-06-15T07:01:20Z</time>
      </trkpt>
      <trkpt lat="44.32173" lon="5.82887">
        <ele>582</ele>
        <time>2019-06-15T07:01:21Z</time>
      </trkpt>
      <trkpt lat="44.32177" lon="5.8289">
        <ele>582</ele>
        <time>2019-06-15T07:01:22Z</time>
      </trkpt>
      <trkpt lat="44.32182" lon="5.82892">
        <ele>582</ele>
        <time>2019-06-15T07:01:23Z</time>
      </trkpt>
      <trkpt lat="44.32187" lon="5.82894">
        <ele>582</ele>
        <time>2019-06-15T07:01:24Z</time>
      </trkpt>
      <trkpt lat="44.32191" lon="5.82896">
        <ele>582</ele>
        <time>2019-06-15T07:01:25Z</time>
      </trkpt>
      <trkpt lat="44.32196" lon="5.82898">
        <ele>582</ele>
        <time>2019-06-15T07:01:26Z</time>
      </trkpt>
      <trkpt lat="44.32201" lon="5.829">
        <ele>582</ele>
        <time>2019-06-15T07:01:27Z</time>
      </trkpt>
      <trkpt lat="44.32206" lon="5.82903">
        <ele>582</ele>
        <time>2019-06-15T07:01:28Z</time>
      </trkpt>
      <trkpt lat="44.32211" lon="5.82905">
        <ele>582</ele>
        <time>2019-06-15T07:01:29Z</time>
      </trkpt>
      <trkpt lat="44.32216" lon="5.82907">
        <ele>582</ele>
        <time>2019-06-15T07:01:30Z</time>
      </trkpt>
      <trkpt lat="44.32221" lon="5.8291">
        <ele>582</ele>
        <time>2019-06-15T07:01:31Z</time>
      </trkpt>
      <trkpt lat="44.32226" lon="5.82913">
        <ele>582</ele>
        <time>2019-06-15T07:01:32Z</time>
      </trkpt>
      <trkpt lat="44.32231" lon="5.82915">
        <ele>582</ele>
        <time>2019-06-15T07:01:33Z</time>
      </trkpt>
      <trkpt lat="44.32236" lon="5.82917">
        <ele>582</ele>
        <time>2019-06-15T07:01:34Z</time>
      </trkpt>
      <trkpt lat="44.32241" lon="5.8292">
        <ele>582</ele>
        <time>2019-06-15T07:01:35Z</time>
      </trkpt>
      <trkpt lat="44.32245" lon="5.82922">
        <ele>582</ele>
        <time>2019-06-15T07:01:36Z</time>
      </trkpt>
      <trkpt lat="44.32249" lon="5.82924">
        <ele>583</ele>
        <time>2019-06-15T07:01:37Z</time>
      </trkpt>
      <trkpt lat="44.32254" lon="5.82926">
        <ele>583</ele>
        <time>2019-06-15T07:01:38Z</time>
      </trkpt>
      <trkpt lat="44.32258" lon="5.82928">
        <ele>583</ele>
        <time>2019-06-15T07:01:39Z</time>
      </trkpt>
      <trkpt lat="44.32263" lon="5.8293">
        <ele>583</ele>
        <time>2019-06-15T07:01:40Z</time>
      </trkpt>
      <trkpt lat="44.32267" lon="5.82932">
        <ele>584</ele>
        <time>2019-06-15T07:01:41Z</time>
      </trkpt>
      <trkpt lat="44.32272" lon="5.82935">
        <ele>584</ele>
        <time>2019-06-15T07:01:42Z</time>
      </trkpt>
      <trkpt lat="44.32276" lon="5.82937">
        <ele>584</ele>
        <time>2019-06-15T07:01:43Z</time>
      </trkpt>
      <trkpt lat="44.3228" lon="5.82939">
        <ele>584</ele>
        <time>2019-06-15T07:01:44Z</time>
      </trkpt>
      <trkpt lat="44.32285" lon="5.82941">
        <ele>584</ele>
        <time>2019-06-15T07:01:45Z</time>
      </trkpt>
      <trkpt lat="44.32289" lon="5.82943">
        <ele>585</ele>
        <time>2019-06-15T07:01:46Z</time>
      </trkpt>
      <trkpt lat="44.32294" lon="5.82946">
        <ele>585</ele>
        <time>2019-06-15T07:01:47Z</time>
      </trkpt>
      <trkpt lat="44.32298" lon="5.82948">
        <ele>585</ele>
        <time>2019-06-15T07:01:48Z</time>
      </trkpt>
      <trkpt lat="44.32303" lon="5.82951">
        <ele>585</ele>
        <time>2019-06-15T07:01:49Z</time>
      </trkpt>
      <trkpt lat="44.32307" lon="5.82954">
        <ele>585</ele>
        <time>2019-06-15T07:01:50Z</time>
      </trkpt>
      <trkpt lat="44.32312" lon="5.82956">
        <ele>585</ele>
        <time>2019-06-15T07:01:51Z</time>
      </trkpt>
      <trkpt lat="44.32317" lon="5.82959">
        <ele>585</ele>
        <time>2019-06-15T07:01:52Z</time>
      </trkpt>
      <trkpt lat="44.32321" lon="5.82961">
        <ele>585</ele>
        <time>2019-06-15T07:01:53Z</time>
      </trkpt>
      <trkpt lat="44.32326" lon="5.82964">
        <ele>585</ele>
        <time>2019-06-15T07:01:54Z</time>
      </trkpt>
      <trkpt lat="44.3233" lon="5.82966">
        <ele>585</ele>
        <time>2019-06-15T07:01:55Z</time>
      </trkpt>
      <trkpt lat="44.32335" lon="5.82969">
        <ele>585</ele>
        <time>2019-06-15T07:01:56Z</time>
      </trkpt>
      <trkpt lat="44.32338" lon="5.82972">
        <ele>585</ele>
        <time>2019-06-15T07:01:57Z</time>
      </trkpt>
      <trkpt lat="44.32343" lon="5.82975">
        <ele>585</ele>
        <time>2019-06-15T07:01:58Z</time>
      </trkpt>
      <trkpt lat="44.32347" lon="5.82979">
        <ele>585</ele>
        <time>2019-06-15T07:01:59Z</time>
      </trkpt>
      <trkpt lat="44.3235" lon="5.82984">
        <ele>585</ele>
        <time>2019-06-15T07:02:00Z</time>
      </trkpt>
      <trkpt lat="44.32354" lon="5.82988">
        <ele>585</ele>
        <time>2019-06-15T07:02:01Z</time>
      </trkpt>
      <trkpt lat="44.32357" lon="5.82994">
        <ele>585</ele>
        <time>2019-06-15T07:02:02Z</time>
      </trkpt>
      <trkpt lat="44.3236" lon="5.82999">
        <ele>585</ele>
        <time>2019-06-15T07:02:03Z</time>
      </trkpt>
      <trkpt lat="44.32364" lon="5.83005">
        <ele>585</ele>
        <time>2019-06-15T07:02:04Z</time>
      </trkpt>
      <trkpt lat="44.32366" lon="5.83011">
        <ele>585</ele>
        <time>2019-06-15T07:02:05Z</time>
      </trkpt>
      <trkpt lat="44.32369" lon="5.83017">
        <ele>585</ele>
        <time>2019-06-15T07:02:05Z</time>
      </trkpt>
      <trkpt lat="44.32371" lon="5.83024">
        <ele>585</ele>
        <time>2019-06-15T07:02:07Z</time>
      </trkpt>
      <trkpt lat="44.32373" lon="5.8303">
        <ele>585</ele>
        <time>2019-06-15T07:02:08Z</time>
      </trkpt>
      <trkpt lat="44.32375" lon="5.83037">
        <ele>585</ele>
        <time>2019-06-15T07:02:08Z</time>
      </trkpt>
      <trkpt lat="44.32377" lon="5.83044">
        <ele>585</ele>
        <time>2019-06-15T07:02:09Z</time>
      </trkpt>
      <trkpt lat="44.32379" lon="5.83051">
        <ele>585</ele>
        <time>2019-06-15T07:02:11Z</time>
      </trkpt>
      <trkpt lat="44.32381" lon="5.83058">
        <ele>585</ele>
        <time>2019-06-15T07:02:12Z</time>
      </trkpt>
      <trkpt lat="44.32384" lon="5.83065">
        <ele>585</ele>
        <time>2019-06-15T07:02:13Z</time>
      </trkpt>
      <trkpt lat="44.32387" lon="5.83073">
        <ele>585</ele>
        <time>2019-06-15T07:02:14Z</time>
      </trkpt>
      <trkpt lat="44.32391" lon="5.8308">
        <ele>585</ele>
        <time>2019-06-15T07:02:15Z</time>
      </trkpt>
      <trkpt lat="44.32394" lon="5.83088">
        <ele>585</ele>
        <time>2019-06-15T07:02:16Z</time>
      </trkpt>
      <trkpt lat="44.32399" lon="5.83095">
        <ele>585</ele>
        <time>2019-06-15T07:02:17Z</time>
      </trkpt>
      <trkpt lat="44.32403" lon="5.83102">
        <ele>585</ele>
        <time>2019-06-15T07:02:18Z</time>
      </trkpt>
      <trkpt lat="44.32407" lon="5.83108">
        <ele>585</ele>
        <time>2019-06-15T07:02:19Z</time>
      </trkpt>
      <trkpt lat="44.32412" lon="5.83114">
        <ele>585</ele>
        <time>2019-06-15T07:02:20Z</time>
      </trkpt>
      <trkpt lat="44.32417" lon="5.8312">
        <ele>585</ele>
        <time>2019-06-15T07:02:20Z</time>
      </trkpt>
      <trkpt lat="44.32422" lon="5.83126">
        <ele>585</ele>
        <time>2019-06-15T07:02:22Z</time>
      </trkpt>
      <trkpt lat="44.32427" lon="5.83131">
        <ele>585</ele>
        <time>2019-06-15T07:02:23Z</time>
      </trkpt>
      <trkpt lat="44.32432" lon="5.83136">
        <ele>585</ele>
        <time>2019-06-15T07:02:24Z</time>
      </trkpt>
      <trkpt lat="44.32437" lon="5.8314">
        <ele>585</ele>
        <time>2019-06-15T07:02:24Z</time>
      </trkpt>
      <trkpt lat="44.32441" lon="5.83145">
        <ele>585</ele>
        <time>2019-06-15T07:02:25Z</time>
      </trkpt>
      <trkpt lat="44.32446" lon="5.83149">
        <ele>585</ele>
        <time>2019-06-15T07:02:27Z</time>
      </trkpt>
      <trkpt lat="44.32451" lon="5.83153">
        <ele>585</ele>
        <time>2019-06-15T07:02:27Z</time>
      </trkpt>
      <trkpt lat="44.32456" lon="5.83157">
        <ele>585</ele>
        <time>2019-06-15T07:02:29Z</time>
      </trkpt>
      <trkpt lat="44.32461" lon="5.83162">
        <ele>585</ele>
        <time>2019-06-15T07:02:29Z</time>
      </trkpt>
      <trkpt lat="44.32466" lon="5.83166">
        <ele>585</ele>
        <time>2019-06-15T07:02:31Z</time>
      </trkpt>
      <trkpt lat="44.32471" lon="5.8317">
        <ele>585</ele>
        <time>2019-06-15T07:02:32Z</time>
      </trkpt>
      <trkpt lat="44.32476" lon="5.83173">
        <ele>585</ele>
        <time>2019-06-15T07:02:33Z</time>
      </trkpt>
      <trkpt lat="44.32482" lon="5.83177">
        <ele>585</ele>
        <time>2019-06-15T07:02:33Z</time>
      </trkpt>
      <trkpt lat="44.32487" lon="5.83181">
        <ele>585</ele>
        <time>2019-06-15T07:02:35Z</time>
      </trkpt>
      <trkpt lat="44.32493" lon="5.83184">
        <ele>585</ele>
        <time>2019-06-15T07:02:36Z</time>
      </trkpt>
      <trkpt lat="44.32499" lon="5.83187">
        <ele>585</ele>
        <time>2019-06-15T07:02:37Z</time>
      </trkpt>
      <trkpt lat="44.32504" lon="5.8319">
        <ele>585</ele>
        <time>2019-06-15T07:02:37Z</time>
      </trkpt>
      <trkpt lat="44.3251" lon="5.83193">
        <ele>584</ele>
        <time>2019-06-15T07:02:39Z</time>
      </trkpt>
      <trkpt lat="44.32516" lon="5.83196">
        <ele>584</ele>
        <time>2019-06-15T07:02:40Z</time>
      </trkpt>
      <trkpt lat="44.32522" lon="5.83198">
        <ele>584</ele>
        <time>2019-06-15T07:02:41Z</time>
      </trkpt>
      <trkpt lat="44.32528" lon="5.83201">
        <ele>584</ele>
        <time>2019-06-15T07:02:42Z</time>
      </trkpt>
      <trkpt lat="44.32533" lon="5.83204">
        <ele>584</ele>
        <time>2019-06-15T07:02:42Z</time>
      </trkpt>
      <trkpt lat="44.32539" lon="5.83206">
        <ele>584</ele>
        <time>2019-06-15T07:02:44Z</time>
      </trkpt>
      <trkpt lat="44.32545" lon="5.83209">
        <ele>584</ele>
        <time>2019-06-15T07:02:45Z</time>
      </trkpt>
      <trkpt lat="44.3255" lon="5.83212">
        <ele>584</ele>
        <time>2019-06-15T07:02:45Z</time>
      </trkpt>
      <trkpt lat="44.32556" lon="5.83214">
        <ele>584</ele>
        <time>2019-06-15T07:02:47Z</time>
      </trkpt>
      <trkpt lat="44.32562" lon="5.83217">
        <ele>584</ele>
        <time>2019-06-15T07:02:48Z</time>
      </trkpt>
      <trkpt lat="44.32568" lon="5.83219">
        <ele>584</ele>
        <time>2019-06-15T07:02:49Z</time>
      </trkpt>
      <trkpt lat="44.32573" lon="5.83221">
        <ele>584</ele>
        <time>2019-06-15T07:02:50Z</time>
      </trkpt>
      <trkpt lat="44.32579" lon="5.83224">
        <ele>583</ele>
        <time>2019-06-15T07:02:51Z</time>
      </trkpt>
      <trkpt lat="44.32584" lon="5.83226">
        <ele>583</ele>
        <time>2019-06-15T07:02:52Z</time>
      </trkpt>
      <trkpt lat="44.3259" lon="5.83229">
        <ele>583</ele>
        <time>2019-06-15T07:02:53Z</time>
      </trkpt>
      <trkpt lat="44.32595" lon="5.83232">
        <ele>583</ele>
        <time>2019-06-15T07:02:54Z</time>
      </trkpt>
      <trkpt lat="44.32601" lon="5.83236">
        <ele>583</ele>
        <time>2019-06-15T07:02:55Z</time>
      </trkpt>
      <trkpt lat="44.32606" lon="5.83239">
        <ele>583</ele>
        <time>2019-06-15T07:02:56Z</time>
      </trkpt>
      <trkpt lat="44.32611" lon="5.83243">
        <ele>583</ele>
        <time>2019-06-15T07:02:57Z</time>
      </trkpt>
      <trkpt lat="44.32617" lon="5.83246">
        <ele>583</ele>
        <time>2019-06-15T07:02:58Z</time>
      </trkpt>
      <trkpt lat="44.32622" lon="5.8325">
        <ele>583</ele>
        <time>2019-06-15T07:02:59Z</time>
      </trkpt>
      <trkpt lat="44.32627" lon="5.83253">
        <ele>583</ele>
        <time>2019-06-15T07:03:00Z</time>
      </trkpt>
      <trkpt lat="44.32632" lon="5.83257">
        <ele>583</ele>
        <time>2019-06-15T07:03:01Z</time>
      </trkpt>
      <trkpt lat="44.32637" lon="5.8326">
        <ele>583</ele>
        <time>2019-06-15T07:03:02Z</time>
      </trkpt>
      <trkpt lat="44.32642" lon="5.83264">
        <ele>583</ele>
        <time>2019-06-15T07:03:03Z</time>
      </trkpt>
      <trkpt lat="44.32647" lon="5.83267">
        <ele>583</ele>
        <time>2019-06-15T07:03:04Z</time>
      </trkpt>
      <trkpt lat="44.32652" lon="5.83271">
        <ele>583</ele>
        <time>2019-06-15T07:03:05Z</time>
      </trkpt>
      <trkpt lat="44.32657" lon="5.83275">
        <ele>583</ele>
        <time>2019-06-15T07:03:06Z</time>
      </trkpt>
      <trkpt lat="44.32661" lon="5.83278">
        <ele>583</ele>
        <time>2019-06-15T07:03:07Z</time>
      </trkpt>
      <trkpt lat="44.32666" lon="5.83281">
        <ele>583</ele>
        <time>2019-06-15T07:03:08Z</time>
      </trkpt>
      <trkpt lat="44.32671" lon="5.83285">
        <ele>583</ele>
        <time>2019-06-15T07:03:09Z</time>
      </trkpt>
      <trkpt lat="44.32676" lon="5.83288">
        <ele>583</ele>
        <time>2019-06-15T07:03:10Z</time>
      </trkpt>
      <trkpt lat="44.32681" lon="5.83291">
        <ele>583</ele>
        <time>2019-06-15T07:03:11Z</time>
      </trkpt>
      <trkpt lat="44.32686" lon="5.83295">
        <ele>583</ele>
        <time>2019-06-15T07:03:12Z</time>
      </trkpt>
      <trkpt lat="44.32691" lon="5.83298">
        <ele>583</ele>
        <time>2019-06-15T07:03:13Z</time>
      </trkpt>
      <trkpt lat="44.32696" lon="5.83301">
        <ele>583</ele>
        <time>2019-06-15T07:03:14Z</time>
      </trkpt>
      <trkpt lat="44.327" lon="5.83305">
        <ele>583</ele>
        <time>2019-06-15T07:03:15Z</time>
      </trkpt>
      <trkpt lat="44.32706" lon="5.83308">
        <ele>583</ele>
        <time>2019-06-15T07:03:16Z</time>
      </trkpt>
      <trkpt lat="44.32711" lon="5.83312">
        <ele>583</ele>
        <time>2019-06-15T07:03:17Z</time>
      </trkpt>
      <trkpt lat="44.32716" lon="5.83315">
        <ele>583</ele>
        <time>2019-06-15T07:03:17Z</time>
      </trkpt>
      <trkpt lat="44.32721" lon="5.83319">
        <ele>583</ele>
        <time>2019-06-15T07:03:19Z</time>
      </trkpt>
      <trkpt lat="44.32727" lon="5.83322">
        <ele>583</ele>
        <time>2019-06-15T07:03:20Z</time>
      </trkpt>
      <trkpt lat="44.32732" lon="5.83326">
        <ele>583</ele>
        <time>2019-06-15T07:03:21Z</time>
      </trkpt>
      <trkpt lat="44.32737" lon="5.83329">
        <ele>583</ele>
        <time>2019-06-15T07:03:21Z</time>
      </trkpt>
      <trkpt lat="44.32742" lon="5.83333">
        <ele>583</ele>
        <time>2019-06-15T07:03:23Z</time>
      </trkpt>
      <trkpt lat="44.32747" lon="5.83336">
        <ele>583</ele>
        <time>2019-06-15T07:03:24Z</time>
      </trkpt>
      <trkpt lat="44.32752" lon="5.8334">
        <ele>583</ele>
        <time>2019-06-15T07:03:25Z</time>
      </trkpt>
      <trkpt lat="44.32757" lon="5.83344">
        <ele>583</ele>
        <time>2019-06-15T07:03:26Z</time>
      </trkpt>
      <trkpt lat="44.32762" lon="5.83347">
        <ele>583</ele>
        <time>2019-06-15T07:03:27Z</time>
      </trkpt>
      <trkpt lat="44.32767" lon="5.83351">
        <ele>583</ele>
        <time>2019-06-15T07:03:28Z</time>
      </trkpt>
      <trkpt lat="44.32772" lon="5.83354">
        <ele>583</ele>
        <time>2019-06-15T07:03:29Z</time>
      </trkpt>
      <trkpt lat="44.32777" lon="5.83358">
        <ele>583</ele>
        <time>2019-06-15T07:03:30Z</time>
      </trkpt>
      <trkpt lat="44.32781" lon="5.83361">
        <ele>583</ele>
        <time>2019-06-15T07:03:31Z</time>
      </trkpt>
      <trkpt lat="44.32786" lon="5.83365">
        <ele>583</ele>
        <time>2019-06-15T07:03:32Z</time>
      </trkpt>
      <trkpt lat="44.32791" lon="5.83368">
        <ele>583</ele>
        <time>2019-06-15T07:03:33Z</time>
      </trkpt>
      <trkpt lat="44.32796" lon="5.83371">
        <ele>583</ele>
        <time>2019-06-15T07:03:34Z</time>
      </trkpt>
      <trkpt lat="44.32801" lon="5.83375">
        <ele>583</ele>
        <time>2019-06-15T07:03:35Z</time>
      </trkpt>
      <trkpt lat="44.32806" lon="5.83377">
        <ele>583</ele>
        <time>2019-06-15T07:03:36Z</time>
      </trkpt>
      <trkpt lat="44.32811" lon="5.8338">
        <ele>583</ele>
        <time>2019-06-15T07:03:37Z</time>
      </trkpt>
      <trkpt lat="44.32816" lon="5.83382">
        <ele>583</ele>
        <time>2019-06-15T07:03:37Z</time>
      </trkpt>
      <trkpt lat="44.32821" lon="5.83384">
        <ele>583</ele>
        <time>2019-06-15T07:03:39Z</time>
      </trkpt>
      <trkpt lat="44.32826" lon="5.83386">
        <ele>583</ele>
        <time>2019-06-15T07:03:40Z</time>
      </trkpt>
      <trkpt lat="44.32831" lon="5.83387">
        <ele>583</ele>
        <time>2019-06-15T07:03:41Z</time>
      </trkpt>
      <trkpt lat="44.32836" lon="5.83388">
        <ele>583</ele>
        <time>2019-06-15T07:03:42Z</time>
      </trkpt>
      <trkpt lat="44.32841" lon="5.83389">
        <ele>583</ele>
        <time>2019-06-15T07:03:43Z</time>
      </trkpt>
      <trkpt lat="44.32846" lon="5.83389">
        <ele>583</ele>
        <time>2019-06-15T07:03:43Z</time>
      </trkpt>
      <trkpt lat="44.32851" lon="5.8339">
        <ele>583</ele>
        <time>2019-06-15T07:03:45Z</time>
      </trkpt>
      <trkpt lat="44.32857" lon="5.8339">
        <ele>583</ele>
        <time>2019-06-15T07:03:46Z</time>
      </trkpt>
      <trkpt lat="44.32862" lon="5.83391">
        <ele>583</ele>
        <time>2019-06-15T07:03:47Z</time>
      </trkpt>
      <trkpt lat="44.32867" lon="5.83391">
        <ele>583</ele>
        <time>2019-06-15T07:03:48Z</time>
      </trkpt>
      <trkpt lat="44.32872" lon="5.83391">
        <ele>583</ele>
        <time>2019-06-15T07:03:49Z</time>
      </trkpt>
      <trkpt lat="44.32877" lon="5.83391">
        <ele>583</ele>
        <time>2019-06-15T07:03:50Z</time>
      </trkpt>
      <trkpt lat="44.32882" lon="5.83391">
        <ele>583</ele>
        <time>2019-06-15T07:03:51Z</time>
      </trkpt>
      <trkpt lat="44.32886" lon="5.83392">
        <ele>583</ele>
        <time>2019-06-15T07:03:52Z</time>
      </trkpt>
      <trkpt lat="44.32891" lon="5.83392">
        <ele>583</ele>
        <time>2019-06-15T07:03:53Z</time>
      </trkpt>
      <trkpt lat="44.32896" lon="5.83392">
        <ele>583</ele>
        <time>2019-06-15T07:03:53Z</time>
      </trkpt>
      <trkpt lat="44.32901" lon="5.83392">
        <ele>583</ele>
        <time>2019-06-15T07:03:55Z</time>
      </trkpt>
      <trkpt lat="44.32905" lon="5.83393">
        <ele>584</ele>
        <time>2019-06-15T07:03:56Z</time>
      </trkpt>
      <trkpt lat="44.3291" lon="5.83394">
        <ele>584</ele>
        <time>2019-06-15T07:03:57Z</time>
      </trkpt>
      <trkpt lat="44.32914" lon="5.83394">
        <ele>584</ele>
        <time>2019-06-15T07:03:57Z</time>
      </trkpt>
      <trkpt lat="44.32919" lon="5.83394">
        <ele>584</ele>
        <time>2019-06-15T07:03:59Z</time>
      </trkpt>
      <trkpt lat="44.32924" lon="5.83394">
        <ele>584</ele>
        <time>2019-06-15T07:04:00Z</time>
      </trkpt>
      <trkpt lat="44.32928" lon="5.83395">
        <ele>584</ele>
        <time>2019-06-15T07:04:00Z</time>
      </trkpt>
      <trkpt lat="44.32933" lon="5.83395">
        <ele>585</ele>
        <time>2019-06-15T07:04:01Z</time>
      </trkpt>
      <trkpt lat="44.32938" lon="5.83395">
        <ele>585</ele>
        <time>2019-06-15T07:04:03Z</time>
      </trkpt>
      <trkpt lat="44.32943" lon="5.83395">
        <ele>585</ele>
        <time>2019-06-15T07:04:04Z</time>
      </trkpt>
      <trkpt lat="44.32947" lon="5.83396">
        <ele>585</ele>
        <time>2019-06-15T07:04:05Z</time>
      </trkpt>
      <trkpt lat="44.32952" lon="5.83396">
        <ele>585</ele>
        <time>2019-06-15T07:04:05Z</time>
      </trkpt>
      <trkpt lat="44.32956" lon="5.83397">
        <ele>586</ele>
        <time>2019-06-15T07:04:07Z</time>
      </trkpt>
      <trkpt lat="44.32961" lon="5.83397">
        <ele>586</ele>
        <time>2019-06-15T07:04:08Z</time>
      </trkpt>
      <trkpt lat="44.32966" lon="5.83397">
        <ele>586</ele>
        <time>2019-06-15T07:04:09Z</time>
      </trkpt>
      <trkpt lat="44.3297" lon="5.83397">
        <ele>586</ele>
        <time>2019-06-15T07:04:09Z</time>
      </trkpt>
      <trkpt lat="44.32975" lon="5.83397">
        <ele>586</ele>
        <time>2019-06-15T07:04:11Z</time>
      </trkpt>
      <trkpt lat="44.3298" lon="5.83397">
        <ele>586</ele>
        <time>2019-06-15T07:04:12Z</time>
      </trkpt>
      <trkpt lat="44.32985" lon="5.83398">
        <ele>586</ele>
        <time>2019-06-15T07:04:13Z</time>
      </trkpt>
      <trkpt lat="44.3299" lon="5.83398">
        <ele>586</ele>
        <time>2019-06-15T07:04:13Z</time>
      </trkpt>
      <trkpt lat="44.32995" lon="5.83398">
        <ele>586</ele>
        <time>2019-06-15T07:04:15Z</time>
      </trkpt>
      <trkpt lat="44.33" lon="5.83398">
        <ele>586</ele>
        <time>2019-06-15T07:04:16Z</time>
      </trkpt>
      <trkpt lat="44.33005" lon="5.83399">
        <ele>586</ele>
        <time>2019-06-15T07:04:17Z</time>
      </trkpt>
      <trkpt lat="44.3301" lon="5.83399">
        <ele>586</ele>
        <time>2019-06-15T07:04:17Z</time>
      </trkpt>
      <trkpt lat="44.33015" lon="5.83399">
        <ele>586</ele>
        <time>2019-06-15T07:04:19Z</time>
      </trkpt>
      <trkpt lat="44.3302" lon="5.834">
        <ele>586</ele>
        <time>2019-06-15T07:04:20Z</time>
      </trkpt>
      <trkpt lat="44.33025" lon="5.834">
        <ele>586</ele>
        <time>2019-06-15T07:04:21Z</time>
      </trkpt>
      <trkpt lat="44.33031" lon="5.83401">
        <ele>586</ele>
        <time>2019-06-15T07:04:21Z</time>
      </trkpt>
      <trkpt lat="44.33036" lon="5.83401">
        <ele>586</ele>
        <time>2019-06-15T07:04:23Z</time>
      </trkpt>
      <trkpt lat="44.33042" lon="5.83401">
        <ele>586</ele>
        <time>2019-06-15T07:04:24Z</time>
      </trkpt>
      <trkpt lat="44.33048" lon="5.83402">
        <ele>586</ele>
        <time>2019-06-15T07:04:25Z</time>
      </trkpt>
      <trkpt lat="44.33054" lon="5.83402">
        <ele>586</ele>
        <time>2019-06-15T07:04:25Z</time>
      </trkpt>
      <trkpt lat="44.33059" lon="5.83402">
        <ele>586</ele>
        <time>2019-06-15T07:04:27Z</time>
      </trkpt>
      <trkpt lat="44.33065" lon="5.83403">
        <ele>586</ele>
        <time>2019-06-15T07:04:28Z</time>
      </trkpt>
      <trkpt lat="44.33071" lon="5.83403">
        <ele>586</ele>
        <time>2019-06-15T07:04:29Z</time>
      </trkpt>
      <trkpt lat="44.33077" lon="5.83403">
        <ele>586</ele>
        <time>2019-06-15T07:04:30Z</time>
      </trkpt>
      <trkpt lat="44.33083" lon="5.83402">
        <ele>586</ele>
        <time>2019-06-15T07:04:31Z</time>
      </trkpt>
      <trkpt lat="44.33089" lon="5.83402">
        <ele>586</ele>
        <time>2019-06-15T07:04:32Z</time>
      </trkpt>
      <trkpt lat="44.33095" lon="5.83402">
        <ele>586</ele>
        <time>2019-06-15T07:04:33Z</time>
      </trkpt>
      <trkpt lat="44.33101" lon="5.83401">
        <ele>586</ele>
        <time>2019-06-15T07:04:33Z</time>
      </trkpt>
      <trkpt lat="44.33107" lon="5.83401">
        <ele>586</ele>
        <time>2019-06-15T07:04:35Z</time>
      </trkpt>
      <trkpt lat="44.33113" lon="5.834">
        <ele>586</ele>
        <time>2019-06-15T07:04:36Z</time>
      </trkpt>
      <trkpt lat="44.33119" lon="5.834">
        <ele>586</ele>
        <time>2019-06-15T07:04:37Z</time>
      </trkpt>
      <trkpt lat="44.33125" lon="5.83399">
        <ele>586</ele>
        <time>2019-06-15T07:04:38Z</time>
      </trkpt>
      <trkpt lat="44.33131" lon="5.83398">
        <ele>586</ele>
        <time>2019-06-15T07:04:39Z</time>
      </trkpt>
      <trkpt lat="44.33136" lon="5.83398">
        <ele>586</ele>
        <time>2019-06-15T07:04:40Z</time>
      </trkpt>
      <trkpt lat="44.33142" lon="5.83397">
        <ele>586</ele>
        <time>2019-06-15T07:04:41Z</time>
      </trkpt>
      <trkpt lat="44.33148" lon="5.83396">
        <ele>586</ele>
        <time>2019-06-15T07:04:42Z</time>
      </trkpt>
      <trkpt lat="44.33154" lon="5.83395">
        <ele>586</ele>
        <time>2019-06-15T07:04:43Z</time>
      </trkpt>
      <trkpt lat="44.33159" lon="5.83394">
        <ele>586</ele>
        <time>2019-06-15T07:04:43Z</time>
      </trkpt>
      <trkpt lat="44.33165" lon="5.83393">
        <ele>587</ele>
        <time>2019-06-15T07:04:45Z</time>
      </trkpt>
      <trkpt lat="44.3317" lon="5.83392">
        <ele>587</ele>
        <time>2019-06-15T07:04:45Z</time>
      </trkpt>
      <trkpt lat="44.33176" lon="5.83391">
        <ele>587</ele>
        <time>2019-06-15T07:04:47Z</time>
      </trkpt>
      <trkpt lat="44.33181" lon="5.8339">
        <ele>587</ele>
        <time>2019-06-15T07:04:48Z</time>
      </trkpt>
      <trkpt lat="44.33187" lon="5.8339">
        <ele>587</ele>
        <time>2019-06-15T07:04:49Z</time>
      </trkpt>
      <trkpt lat="44.33192" lon="5.83389">
        <ele>587</ele>
        <time>2019-06-15T07:04:50Z</time>
      </trkpt>
      <trkpt lat="44.33197" lon="5.83388">
        <ele>587</ele>
        <time>2019-06-15T07:04:51Z</time>
      </trkpt>
      <trkpt lat="44.33203" lon="5.83387">
        <ele>587</ele>
        <time>2019-06-15T07:04:52Z</time>
      </trkpt>
      <trkpt lat="44.33208" lon="5.83386">
        <ele>587</ele>
        <time>2019-06-15T07:04:53Z</time>
      </trkpt>
      <trkpt lat="44.33213" lon="5.83385">
        <ele>588</ele>
        <time>2019-06-15T07:04:54Z</time>
      </trkpt>
      <trkpt lat="44.33219" lon="5.83385">
        <ele>588</ele>
        <time>2019-06-15T07:04:55Z</time>
      </trkpt>
      <trkpt lat="44.33224" lon="5.83384">
        <ele>588</ele>
        <time>2019-06-15T07:04:56Z</time>
      </trkpt>
      <trkpt lat="44.33229" lon="5.83383">
        <ele>588</ele>
        <time>2019-06-15T07:04:57Z</time>
      </trkpt>
      <trkpt lat="44.33234" lon="5.83382">
        <ele>588</ele>
        <time>2019-06-15T07:04:57Z</time>
      </trkpt>
      <trkpt lat="44.3324" lon="5.83381">
        <ele>588</ele>
        <time>2019-06-15T07:04:58Z</time>
      </trkpt>
      <trkpt lat="44.33245" lon="5.8338">
        <ele>588</ele>
        <time>2019-06-15T07:05:00Z</time>
      </trkpt>
      <trkpt lat="44.3325" lon="5.83379">
        <ele>588</ele>
        <time>2019-06-15T07:05:01Z</time>
      </trkpt>
      <trkpt lat="44.33255" lon="5.83378">
        <ele>588</ele>
        <time>2019-06-15T07:05:01Z</time>
      </trkpt>
      <trkpt lat="44.33261" lon="5.83377">
        <ele>588</ele>
        <time>2019-06-15T07:05:03Z</time>
      </trkpt>
      <trkpt lat="44.33266" lon="5.83377">
        <ele>589</ele>
        <time>2019-06-15T07:05:04Z</time>
      </trkpt>
      <trkpt lat="44.33272" lon="5.83376">
        <ele>589</ele>
        <time>2019-06-15T07:05:05Z</time>
      </trkpt>
      <trkpt lat="44.33277" lon="5.83375">
        <ele>589</ele>
        <time>2019-06-15T07:05:06Z</time>
      </trkpt>
      <trkpt lat="44.33282" lon="5.83374">
        <ele>589</ele>
        <time>2019-06-15T07:05:07Z</time>
      </trkpt>
      <trkpt lat="44.33287" lon="5.83373">
        <ele>589</ele>
        <time>2019-06-15T07:05:08Z</time>
      </trkpt>
      <trkpt lat="44.33293" lon="5.83372">
        <ele>589</ele>
        <time>2019-06-15T07:05:09Z</time>
      </trkpt>
      <trkpt lat="44.33298" lon="5.83372">
        <ele>589</ele>
        <time>2019-06-15T07:05:10Z</time>
      </trkpt>
      <trkpt lat="44.33304" lon="5.83371">
        <ele>589</ele>
        <time>2019-06-15T07:05:11Z</time>
      </trkpt>
      <trkpt lat="44.33309" lon="5.8337">
        <ele>589</ele>
        <time>2019-06-15T07:05:12Z</time>
      </trkpt>
      <trkpt lat="44.33314" lon="5.83369">
        <ele>589</ele>
        <time>2019-06-15T07:05:13Z</time>
      </trkpt>
      <trkpt lat="44.3332" lon="5.83368">
        <ele>589</ele>
        <time>2019-06-15T07:05:14Z</time>
      </trkpt>
      <trkpt lat="44.33325" lon="5.83368">
        <ele>589</ele>
        <time>2019-06-15T07:05:15Z</time>
      </trkpt>
      <trkpt lat="44.33331" lon="5.83367">
        <ele>590</ele>
        <time>2019-06-15T07:05:16Z</time>
      </trkpt>
      <trkpt lat="44.33336" lon="5.83367">
        <ele>590</ele>
        <time>2019-06-15T07:05:17Z</time>
      </trkpt>
      <trkpt lat="44.33341" lon="5.83366">
        <ele>590</ele>
        <time>2019-06-15T07:05:17Z</time>
      </trkpt>
      <trkpt lat="44.33347" lon="5.83365">
        <ele>590</ele>
        <time>2019-06-15T07:05:19Z</time>
      </trkpt>
      <trkpt lat="44.33352" lon="5.83364">
        <ele>590</ele>
        <time>2019-06-15T07:05:20Z</time>
      </trkpt>
      <trkpt lat="44.33357" lon="5.83364">
        <ele>590</ele>
        <time>2019-06-15T07:05:21Z</time>
      </trkpt>
      <trkpt lat="44.33363" lon="5.83363">
        <ele>590</ele>
        <time>2019-06-15T07:05:21Z</time>
      </trkpt>
      <trkpt lat="44.33368" lon="5.83362">
        <ele>590</ele>
        <time>2019-06-15T07:05:23Z</time>
      </trkpt>
      <trkpt lat="44.33374" lon="5.83362">
        <ele>590</ele>
        <time>2019-06-15T07:05:24Z</time>
      </trkpt>
      <trkpt lat="44.33379" lon="5.83361">
        <ele>591</ele>
        <time>2019-06-15T07:05:24Z</time>
      </trkpt>
      <trkpt lat="44.33384" lon="5.8336">
        <ele>591</ele>
        <time>2019-06-15T07:05:25Z</time>
      </trkpt>
      <trkpt lat="44.3339" lon="5.83359">
        <ele>591</ele>
        <time>2019-06-15T07:05:27Z</time>
      </trkpt>
      <trkpt lat="44.33395" lon="5.83359">
        <ele>591</ele>
        <time>2019-06-15T07:05:28Z</time>
      </trkpt>
      <trkpt lat="44.334" lon="5.83358">
        <ele>591</ele>
        <time>2019-06-15T07:05:29Z</time>
      </trkpt>
      <trkpt lat="44.33405" lon="5.83357">
        <ele>591</ele>
        <time>2019-06-15T07:05:29Z</time>
      </trkpt>
      <trkpt lat="44.33411" lon="5.83357">
        <ele>591</ele>
        <time>2019-06-15T07:05:30Z</time>
      </trkpt>
      <trkpt lat="44.33416" lon="5.83356">
        <ele>591</ele>
        <time>2019-06-15T07:05:31Z</time>
      </trkpt>
      <trkpt lat="44.33421" lon="5.83355">
        <ele>591</ele>
        <time>2019-06-15T07:05:33Z</time>
      </trkpt>
      <trkpt lat="44.33426" lon="5.83354">
        <ele>591</ele>
        <time>2019-06-15T07:05:33Z</time>
      </trkpt>
      <trkpt lat="44.33431" lon="5.83353">
        <ele>592</ele>
        <time>2019-06-15T07:05:35Z</time>
      </trkpt>
      <trkpt lat="44.33436" lon="5.83353">
        <ele>592</ele>
        <time>2019-06-15T07:05:36Z</time>
      </trkpt>
      <trkpt lat="44.33442" lon="5.83352">
        <ele>592</ele>
        <time>2019-06-15T07:05:37Z</time>
      </trkpt>
      <trkpt lat="44.33447" lon="5.83352">
        <ele>592</ele>
        <time>2019-06-15T07:05:37Z</time>
      </trkpt>
      <trkpt lat="44.33452" lon="5.83351">
        <ele>592</ele>
        <time>2019-06-15T07:05:38Z</time>
      </trkpt>
      <trkpt lat="44.33458" lon="5.83351">
        <ele>592</ele>
        <time>2019-06-15T07:05:39Z</time>
      </trkpt>
      <trkpt lat="44.33463" lon="5.83351">
        <ele>592</ele>
        <time>2019-06-15T07:05:41Z</time>
      </trkpt>
      <trkpt lat="44.33468" lon="5.83351">
        <ele>592</ele>
        <time>2019-06-15T07:05:42Z</time>
      </trkpt>
      <trkpt lat="44.33473" lon="5.83351">
        <ele>593</ele>
        <time>2019-06-15T07:05:43Z</time>
      </trkpt>
      <trkpt lat="44.33478" lon="5.83351">
        <ele>593</ele>
        <time>2019-06-15T07:05:44Z</time>
      </trkpt>
      <trkpt lat="44.33484" lon="5.83351">
        <ele>593</ele>
        <time>2019-06-15T07:05:45Z</time>
      </trkpt>
      <trkpt lat="44.33489" lon="5.83351">
        <ele>593</ele>
        <time>2019-06-15T07:05:46Z</time>
      </trkpt>
      <trkpt lat="44.33494" lon="5.83351">
        <ele>593</ele>
        <time>2019-06-15T07:05:47Z</time>
      </trkpt>
      <trkpt lat="44.33499" lon="5.83351">
        <ele>593</ele>
        <time>2019-06-15T07:05:48Z</time>
      </trkpt>
      <trkpt lat="44.33504" lon="5.83351">
        <ele>593</ele>
        <time>2019-06-15T07:05:49Z</time>
      </trkpt>
      <trkpt lat="44.33509" lon="5.83351">
        <ele>593</ele>
        <time>2019-06-15T07:05:49Z</time>
      </trkpt>
      <trkpt lat="44.33513" lon="5.83351">
        <ele>593</ele>
        <time>2019-06-15T07:05:51Z</time>
      </trkpt>
      <trkpt lat="44.33518" lon="5.83352">
        <ele>593</ele>
        <time>2019-06-15T07:05:52Z</time>
      </trkpt>
      <trkpt lat="44.33523" lon="5.83352">
        <ele>593</ele>
        <time>2019-06-15T07:05:53Z</time>
      </trkpt>
      <trkpt lat="44.33528" lon="5.83353">
        <ele>593</ele>
        <time>2019-06-15T07:05:53Z</time>
      </trkpt>
      <trkpt lat="44.33533" lon="5.83353">
        <ele>593</ele>
        <time>2019-06-15T07:05:55Z</time>
      </trkpt>
      <trkpt lat="44.33538" lon="5.83353">
        <ele>594</ele>
        <time>2019-06-15T07:05:56Z</time>
      </trkpt>
      <trkpt lat="44.33542" lon="5.83354">
        <ele>594</ele>
        <time>2019-06-15T07:05:57Z</time>
      </trkpt>
      <trkpt lat="44.33547" lon="5.83354">
        <ele>594</ele>
        <time>2019-06-15T07:05:57Z</time>
      </trkpt>
      <trkpt lat="44.33551" lon="5.83355">
        <ele>594</ele>
        <time>2019-06-15T07:05:59Z</time>
      </trkpt>
      <trkpt lat="44.33556" lon="5.83355">
        <ele>595</ele>
        <time>2019-06-15T07:06:00Z</time>
      </trkpt>
      <trkpt lat="44.3356" lon="5.83355">
        <ele>595</ele>
        <time>2019-06-15T07:06:00Z</time>
      </trkpt>
      <trkpt lat="44.33565" lon="5.83355">
        <ele>595</ele>
        <time>2019-06-15T07:06:02Z</time>
      </trkpt>
      <trkpt lat="44.33569" lon="5.83356">
        <ele>595</ele>
        <time>2019-06-15T07:06:02Z</time>
      </trkpt>
      <trkpt lat="44.33574" lon="5.83357">
        <ele>595</ele>
        <time>2019-06-15T07:06:03Z</time>
      </trkpt>
      <trkpt lat="44.33579" lon="5.83357">
        <ele>595</ele>
        <time>2019-06-15T07:06:05Z</time>
      </trkpt>
      <trkpt lat="44.33584" lon="5.83358">
        <ele>596</ele>
        <time>2019-06-15T07:06:05Z</time>
      </trkpt>
      <trkpt lat="44.33589" lon="5.83358">
        <ele>596</ele>
        <time>2019-06-15T07:06:07Z</time>
      </trkpt>
      <trkpt lat="44.33594" lon="5.83359">
        <ele>596</ele>
        <time>2019-06-15T07:06:07Z</time>
      </trkpt>
      <trkpt lat="44.33599" lon="5.83359">
        <ele>596</ele>
        <time>2019-06-15T07:06:08Z</time>
      </trkpt>
      <trkpt lat="44.33604" lon="5.8336">
        <ele>597</ele>
        <time>2019-06-15T07:06:09Z</time>
      </trkpt>
      <trkpt lat="44.33608" lon="5.8336">
        <ele>597</ele>
        <time>2019-06-15T07:06:11Z</time>
      </trkpt>
      <trkpt lat="44.33613" lon="5.83361">
        <ele>597</ele>
        <time>2019-06-15T07:06:12Z</time>
      </trkpt>
      <trkpt lat="44.33618" lon="5.83361">
        <ele>598</ele>
        <time>2019-06-15T07:06:13Z</time>
      </trkpt>
      <trkpt lat="44.33623" lon="5.83362">
        <ele>598</ele>
        <time>2019-06-15T07:06:13Z</time>
      </trkpt>
      <trkpt lat="44.33627" lon="5.83362">
        <ele>598</ele>
        <time>2019-06-15T07:06:15Z</time>
      </trkpt>
      <trkpt lat="44.33632" lon="5.83363">
        <ele>598</ele>
        <time>2019-06-15T07:06:15Z</time>
      </trkpt>
      <trkpt lat="44.33636" lon="5.83363">
        <ele>599</ele>
        <time>2019-06-15T07:06:17Z</time>
      </trkpt>
      <trkpt lat="44.33641" lon="5.83364">
        <ele>599</ele>
        <time>2019-06-15T07:06:17Z</time>
      </trkpt>
      <trkpt lat="44.33646" lon="5.83364">
        <ele>599</ele>
        <time>2019-06-15T07:06:18Z</time>
      </trkpt>
      <trkpt lat="44.3365" lon="5.83365">
        <ele>599</ele>
        <time>2019-06-15T07:06:20Z</time>
      </trkpt>
      <trkpt lat="44.33655" lon="5.83365">
        <ele>599</ele>
        <time>2019-06-15T07:06:21Z</time>
      </trkpt>
      <trkpt lat="44.3366" lon="5.83366">
        <ele>600</ele>
        <time>2019-06-15T07:06:21Z</time>
      </trkpt>
      <trkpt lat="44.33664" lon="5.83366">
        <ele>600</ele>
        <time>2019-06-15T07:06:23Z</time>
      </trkpt>
      <trkpt lat="44.33669" lon="5.83367">
        <ele>600</ele>
        <time>2019-06-15T07:06:24Z</time>
      </trkpt>
      <trkpt lat="44.33674" lon="5.83367">
        <ele>600</ele>
        <time>2019-06-15T07:06:24Z</time>
      </trkpt>
      <trkpt lat="44.33679" lon="5.83368">
        <ele>600</ele>
        <time>2019-06-15T07:06:25Z</time>
      </trkpt>
      <trkpt lat="44.33684" lon="5.83369">
        <ele>600</ele>
        <time>2019-06-15T07:06:27Z</time>
      </trkpt>
      <trkpt lat="44.33688" lon="5.83369">
        <ele>600</ele>
        <time>2019-06-15T07:06:27Z</time>
      </trkpt>
      <trkpt lat="44.33693" lon="5.8337">
        <ele>600</ele>
        <time>2019-06-15T07:06:29Z</time>
      </trkpt>
      <trkpt lat="44.33698" lon="5.8337">
        <ele>600</ele>
        <time>2019-06-15T07:06:30Z</time>
      </trkpt>
      <trkpt lat="44.33702" lon="5.83371">
        <ele>600</ele>
        <time>2019-06-15T07:06:31Z</time>
      </trkpt>
      <trkpt lat="44.33707" lon="5.83372">
        <ele>600</ele>
        <time>2019-06-15T07:06:32Z</time>
      </trkpt>
      <trkpt lat="44.33712" lon="5.83372">
        <ele>600</ele>
        <time>2019-06-15T07:06:33Z</time>
      </trkpt>
      <trkpt lat="44.33717" lon="5.83373">
        <ele>600</ele>
        <time>2019-06-15T07:06:34Z</time>
      </trkpt>
      <trkpt lat="44.33722" lon="5.83373">
        <ele>601</ele>
        <time>2019-06-15T07:06:35Z</time>
      </trkpt>
      <trkpt lat="44.33727" lon="5.83374">
        <ele>601</ele>
        <time>2019-06-15T07:06:36Z</time>
      </trkpt>
      <trkpt lat="44.33731" lon="5.83374">
        <ele>601</ele>
        <time>2019-06-15T07:06:37Z</time>
      </trkpt>
      <trkpt lat="44.33736" lon="5.83375">
        <ele>601</ele>
        <time>2019-06-15T07:06:38Z</time>
      </trkpt>
      <trkpt lat="44.33741" lon="5.83376">
        <ele>601</ele>
        <time>2019-06-15T07:06:39Z</time>
      </trkpt>
      <trkpt lat="44.33746" lon="5.83376">
        <ele>601</ele>
        <time>2019-06-15T07:06:40Z</time>
      </trkpt>
      <trkpt lat="44.33751" lon="5.83377">
        <ele>601</ele>
        <time>2019-06-15T07:06:41Z</time>
      </trkpt>
      <trkpt lat="44.33756" lon="5.83377">
        <ele>601</ele>
        <time>2019-06-15T07:06:42Z</time>
      </trkpt>
      <trkpt lat="44.33761" lon="5.83378">
        <ele>601</ele>
        <time>2019-06-15T07:06:43Z</time>
      </trkpt>
      <trkpt lat="44.33766" lon="5.83378">
        <ele>601</ele>
        <time>2019-06-15T07:06:44Z</time>
      </trkpt>
      <trkpt lat="44.33771" lon="5.83379">
        <ele>601</ele>
        <time>2019-06-15T07:06:45Z</time>
      </trkpt>
      <trkpt lat="44.33775" lon="5.8338">
        <ele>601</ele>
        <time>2019-06-15T07:06:46Z</time>
      </trkpt>
      <trkpt lat="44.33781" lon="5.83381">
        <ele>601</ele>
        <time>2019-06-15T07:06:47Z</time>
      </trkpt>
      <trkpt lat="44.33785" lon="5.83382">
        <ele>601</ele>
        <time>2019-06-15T07:06:48Z</time>
      </trkpt>
      <trkpt lat="44.3379" lon="5.83383">
        <ele>601</ele>
        <time>2019-06-15T07:06:49Z</time>
      </trkpt>
      <trkpt lat="44.33795" lon="5.83384">
        <ele>602</ele>
        <time>2019-06-15T07:06:50Z</time>
      </trkpt>
      <trkpt lat="44.338" lon="5.83385">
        <ele>602</ele>
        <time>2019-06-15T07:06:51Z</time>
      </trkpt>
      <trkpt lat="44.33805" lon="5.83386">
        <ele>602</ele>
        <time>2019-06-15T07:06:52Z</time>
      </trkpt>
      <trkpt lat="44.3381" lon="5.83387">
        <ele>602</ele>
        <time>2019-06-15T07:06:53Z</time>
      </trkpt>
      <trkpt lat="44.33815" lon="5.83388">
        <ele>602</ele>
        <time>2019-06-15T07:06:54Z</time>
      </trkpt>
      <trkpt lat="44.33819" lon="5.83389">
        <ele>602</ele>
        <time>2019-06-15T07:06:55Z</time>
      </trkpt>
      <trkpt lat="44.33824" lon="5.8339">
        <ele>602</ele>
        <time>2019-06-15T07:06:56Z</time>
      </trkpt>
      <trkpt lat="44.33829" lon="5.83391">
        <ele>602</ele>
        <time>2019-06-15T07:06:57Z</time>
      </trkpt>
      <trkpt lat="44.33834" lon="5.83392">
        <ele>603</ele>
        <time>2019-06-15T07:06:58Z</time>
      </trkpt>
      <trkpt lat="44.33839" lon="5.83393">
        <ele>603</ele>
        <time>2019-06-15T07:06:59Z</time>
      </trkpt>
      <trkpt lat="44.33844" lon="5.83394">
        <ele>603</ele>
        <time>2019-06-15T07:07:00Z</time>
      </trkpt>
      <trkpt lat="44.33848" lon="5.83395">
        <ele>603</ele>
        <time>2019-06-15T07:07:01Z</time>
      </trkpt>
      <trkpt lat="44.33853" lon="5.83396">
        <ele>603</ele>
        <time>2019-06-15T07:07:02Z</time>
      </trkpt>
      <trkpt lat="44.33858" lon="5.83397">
        <ele>603</ele>
        <time>2019-06-15T07:07:03Z</time>
      </trkpt>
      <trkpt lat="44.33863" lon="5.83398">
        <ele>603</ele>
        <time>2019-06-15T07:07:04Z</time>
      </trkpt>
      <trkpt lat="44.33868" lon="5.83399">
        <ele>603</ele>
        <time>2019-06-15T07:07:05Z</time>
      </trkpt>
      <trkpt lat="44.33873" lon="5.834">
        <ele>603</ele>
        <time>2019-06-15T07:07:06Z</time>
      </trkpt>
      <trkpt lat="44.33878" lon="5.83401">
        <ele>603</ele>
        <time>2019-06-15T07:07:07Z</time>
      </trkpt>
      <trkpt lat="44.33882" lon="5.83402">
        <ele>603</ele>
        <time>2019-06-15T07:07:08Z</time>
      </trkpt>
      <trkpt lat="44.33887" lon="5.83403">
        <ele>603</ele>
        <time>2019-06-15T07:07:09Z</time>
      </trkpt>
      <trkpt lat="44.33892" lon="5.83404">
        <ele>604</ele>
        <time>2019-06-15T07:07:10Z</time>
      </trkpt>
      <trkpt lat="44.33897" lon="5.83405">
        <ele>604</ele>
        <time>2019-06-15T07:07:11Z</time>
      </trkpt>
      <trkpt lat="44.33902" lon="5.83406">
        <ele>604</ele>
        <time>2019-06-15T07:07:12Z</time>
      </trkpt>
      <trkpt lat="44.33906" lon="5.83407">
        <ele>604</ele>
        <time>2019-06-15T07:07:13Z</time>
      </trkpt>
      <trkpt lat="44.33911" lon="5.83409">
        <ele>604</ele>
        <time>2019-06-15T07:07:14Z</time>
      </trkpt>
      <trkpt lat="44.33916" lon="5.8341">
        <ele>604</ele>
        <time>2019-06-15T07:07:15Z</time>
      </trkpt>
      <trkpt lat="44.33921" lon="5.83411">
        <ele>604</ele>
        <time>2019-06-15T07:07:16Z</time>
      </trkpt>
      <trkpt lat="44.33925" lon="5.83412">
        <ele>604</ele>
        <time>2019-06-15T07:07:17Z</time>
      </trkpt>
      <trkpt lat="44.3393" lon="5.83413">
        <ele>605</ele>
        <time>2019-06-15T07:07:18Z</time>
      </trkpt>
      <trkpt lat="44.33935" lon="5.83415">
        <ele>605</ele>
        <time>2019-06-15T07:07:18Z</time>
      </trkpt>
      <trkpt lat="44.33939" lon="5.83416">
        <ele>605</ele>
        <time>2019-06-15T07:07:20Z</time>
      </trkpt>
      <trkpt lat="44.33944" lon="5.83418">
        <ele>605</ele>
        <time>2019-06-15T07:07:21Z</time>
      </trkpt>
      <trkpt lat="44.33949" lon="5.8342">
        <ele>605</ele>
        <time>2019-06-15T07:07:22Z</time>
      </trkpt>
      <trkpt lat="44.33953" lon="5.83422">
        <ele>605</ele>
        <time>2019-06-15T07:07:23Z</time>
      </trkpt>
      <trkpt lat="44.33958" lon="5.83425">
        <ele>605</ele>
        <time>2019-06-15T07:07:24Z</time>
      </trkpt>
      <trkpt lat="44.33962" lon="5.83427">
        <ele>606</ele>
        <time>2019-06-15T07:07:25Z</time>
      </trkpt>
      <trkpt lat="44.33966" lon="5.8343">
        <ele>606</ele>
        <time>2019-06-15T07:07:26Z</time>
      </trkpt>
      <trkpt lat="44.3397" lon="5.83434">
        <ele>606</ele>
        <time>2019-06-15T07:07:27Z</time>
      </trkpt>
      <trkpt lat="44.33974" lon="5.83437">
        <ele>606</ele>
        <time>2019-06-15T07:07:28Z</time>
      </trkpt>
      <trkpt lat="44.33978" lon="5.83441">
        <ele>606</ele>
        <time>2019-06-15T07:07:29Z</time>
      </trkpt>
      <trkpt lat="44.33982" lon="5.83444">
        <ele>606</ele>
        <time>2019-06-15T07:07:30Z</time>
      </trkpt>
      <trkpt lat="44.33986" lon="5.83449">
        <ele>607</ele>
        <time>2019-06-15T07:07:31Z</time>
      </trkpt>
      <trkpt lat="44.3399" lon="5.83452">
        <ele>607</ele>
        <time>2019-06-15T07:07:32Z</time>
      </trkpt>
      <trkpt lat="44.33994" lon="5.83456">
        <ele>607</ele>
        <time>2019-06-15T07:07:33Z</time>
      </trkpt>
      <trkpt lat="44.33997" lon="5.8346">
        <ele>607</ele>
        <time>2019-06-15T07:07:33Z</time>
      </trkpt>
      <trkpt lat="44.34001" lon="5.83464">
        <ele>608</ele>
        <time>2019-06-15T07:07:35Z</time>
      </trkpt>
      <trkpt lat="44.34005" lon="5.83468">
        <ele>608</ele>
        <time>2019-06-15T07:07:35Z</time>
      </trkpt>
      <trkpt lat="44.34009" lon="5.83471">
        <ele>608</ele>
        <time>2019-06-15T07:07:37Z</time>
      </trkpt>
      <trkpt lat="44.34013" lon="5.83475">
        <ele>608</ele>
        <time>2019-06-15T07:07:37Z</time>
      </trkpt>
      <trkpt lat="44.34017" lon="5.83479">
        <ele>608</ele>
        <time>2019-06-15T07:07:39Z</time>
      </trkpt>
      <trkpt lat="44.34021" lon="5.83483">
        <ele>608</ele>
        <time>2019-06-15T07:07:39Z</time>
      </trkpt>
      <trkpt lat="44.34024" lon="5.83487">
        <ele>608</ele>
        <time>2019-06-15T07:07:41Z</time>
      </trkpt>
      <trkpt lat="44.34028" lon="5.83491">
        <ele>608</ele>
        <time>2019-06-15T07:07:42Z</time>
      </trkpt>
      <trkpt lat="44.34032" lon="5.83495">
        <ele>608</ele>
        <time>2019-06-15T07:07:42Z</time>
      </trkpt>
      <trkpt lat="44.34036" lon="5.83499">
        <ele>609</ele>
        <time>2019-06-15T07:07:43Z</time>
      </trkpt>
      <trkpt lat="44.3404" lon="5.83503">
        <ele>609</ele>
        <time>2019-06-15T07:07:45Z</time>
      </trkpt>
      <trkpt lat="44.34044" lon="5.83507">
        <ele>609</ele>
        <time>2019-06-15T07:07:46Z</time>
      </trkpt>
      <trkpt lat="44.34047" lon="5.8351">
        <ele>609</ele>
        <time>2019-06-15T07:07:47Z</time>
      </trkpt>
      <trkpt lat="44.34051" lon="5.83514">
        <ele>609</ele>
        <time>2019-06-15T07:07:47Z</time>
      </trkpt>
      <trkpt lat="44.34055" lon="5.83518">
        <ele>609</ele>
        <time>2019-06-15T07:07:49Z</time>
      </trkpt>
      <trkpt lat="44.34059" lon="5.83522">
        <ele>610</ele>
        <time>2019-06-15T07:07:49Z</time>
      </trkpt>
      <trkpt lat="44.34063" lon="5.83526">
        <ele>610</ele>
        <time>2019-06-15T07:07:50Z</time>
      </trkpt>
      <trkpt lat="44.34067" lon="5.8353">
        <ele>610</ele>
        <time>2019-06-15T07:07:52Z</time>
      </trkpt>
      <trkpt lat="44.34071" lon="5.83534">
        <ele>610</ele>
        <time>2019-06-15T07:07:53Z</time>
      </trkpt>
      <trkpt lat="44.34074" lon="5.83537">
        <ele>610</ele>
        <time>2019-06-15T07:07:54Z</time>
      </trkpt>
      <trkpt lat="44.34078" lon="5.83541">
        <ele>610</ele>
        <time>2019-06-15T07:07:54Z</time>
      </trkpt>
      <trkpt lat="44.34082" lon="5.83545">
        <ele>610</ele>
        <time>2019-06-15T07:07:55Z</time>
      </trkpt>
      <trkpt lat="44.34086" lon="5.83549">
        <ele>610</ele>
        <time>2019-06-15T07:07:56Z</time>
      </trkpt>
      <trkpt lat="44.3409" lon="5.83552">
        <ele>611</ele>
        <time>2019-06-15T07:07:58Z</time>
      </trkpt>
      <trkpt lat="44.34093" lon="5.83556">
        <ele>611</ele>
        <time>2019-06-15T07:07:58Z</time>
      </trkpt>
      <trkpt lat="44.34097" lon="5.8356">
        <ele>611</ele>
        <time>2019-06-15T07:07:59Z</time>
      </trkpt>
      <trkpt lat="44.34101" lon="5.83564">
        <ele>611</ele>
        <time>2019-06-15T07:08:00Z</time>
      </trkpt>
      <trkpt lat="44.34105" lon="5.83568">
        <ele>611</ele>
        <time>2019-06-15T07:08:01Z</time>
      </trkpt>
      <trkpt lat="44.34109" lon="5.83572">
        <ele>611</ele>
        <time>2019-06-15T07:08:03Z</time>
      </trkpt>
      <trkpt lat="44.34114" lon="5.83576">
        <ele>611</ele>
        <time>2019-06-15T07:08:03Z</time>
      </trkpt>
      <trkpt lat="44.34118" lon="5.83581">
        <ele>611</ele>
        <time>2019-06-15T07:08:04Z</time>
      </trkpt>
      <trkpt lat="44.34122" lon="5.83585">
        <ele>611</ele>
        <time>2019-06-15T07:08:05Z</time>
      </trkpt>
      <trkpt lat="44.34127" lon="5.83589">
        <ele>611</ele>
        <time>2019-06-15T07:08:06Z</time>
      </trkpt>
      <trkpt lat="44.34131" lon="5.83594">
        <ele>611</ele>
        <time>2019-06-15T07:08:08Z</time>
      </trkpt>
      <trkpt lat="44.34136" lon="5.83598">
        <ele>611</ele>
        <time>2019-06-15T07:08:08Z</time>
      </trkpt>
      <trkpt lat="44.3414" lon="5.83603">
        <ele>611</ele>
        <time>2019-06-15T07:08:09Z</time>
      </trkpt>
      <trkpt lat="44.34145" lon="5.83608">
        <ele>611</ele>
        <time>2019-06-15T07:08:11Z</time>
      </trkpt>
      <trkpt lat="44.3415" lon="5.83613">
        <ele>611</ele>
        <time>2019-06-15T07:08:11Z</time>
      </trkpt>
      <trkpt lat="44.34156" lon="5.83618">
        <ele>611</ele>
        <time>2019-06-15T07:08:13Z</time>
      </trkpt>
      <trkpt lat="44.34161" lon="5.83623">
        <ele>611</ele>
        <time>2019-06-15T07:08:13Z</time>
      </trkpt>
      <trkpt lat="44.34166" lon="5.83629">
        <ele>611</ele>
        <time>2019-06-15T07:08:14Z</time>
      </trkpt>
      <trkpt lat="44.34171" lon="5.83634">
        <ele>611</ele>
        <time>2019-06-15T07:08:15Z</time>
      </trkpt>
      <trkpt lat="44.34177" lon="5.83639">
        <ele>611</ele>
        <time>2019-06-15T07:08:16Z</time>
      </trkpt>
      <trkpt lat="44.34182" lon="5.83644">
        <ele>611</ele>
        <time>2019-06-15T07:08:18Z</time>
      </trkpt>
      <trkpt lat="44.34187" lon="5.8365">
        <ele>611</ele>
        <time>2019-06-15T07:08:18Z</time>
      </trkpt>
      <trkpt lat="44.34192" lon="5.83656">
        <ele>611</ele>
        <time>2019-06-15T07:08:19Z</time>
      </trkpt>
      <trkpt lat="44.34197" lon="5.83661">
        <ele>611</ele>
        <time>2019-06-15T07:08:20Z</time>
      </trkpt>
      <trkpt lat="44.34202" lon="5.83667">
        <ele>611</ele>
        <time>2019-06-15T07:08:21Z</time>
      </trkpt>
      <trkpt lat="44.34206" lon="5.83673">
        <ele>611</ele>
        <time>2019-06-15T07:08:23Z</time>
      </trkpt>
      <trkpt lat="44.34211" lon="5.83679">
        <ele>611</ele>
        <time>2019-06-15T07:08:23Z</time>
      </trkpt>
      <trkpt lat="44.34216" lon="5.83684">
        <ele>611</ele>
        <time>2019-06-15T07:08:24Z</time>
      </trkpt>
      <trkpt lat="44.3422" lon="5.83689">
        <ele>611</ele>
        <time>2019-06-15T07:08:25Z</time>
      </trkpt>
      <trkpt lat="44.34224" lon="5.83695">
        <ele>611</ele>
        <time>2019-06-15T07:08:26Z</time>
      </trkpt>
      <trkpt lat="44.34229" lon="5.83701">
        <ele>611</ele>
        <time>2019-06-15T07:08:28Z</time>
      </trkpt>
      <trkpt lat="44.34233" lon="5.83706">
        <ele>611</ele>
        <time>2019-06-15T07:08:28Z</time>
      </trkpt>
      <trkpt lat="44.34237" lon="5.83712">
        <ele>611</ele>
        <time>2019-06-15T07:08:29Z</time>
      </trkpt>
      <trkpt lat="44.34241" lon="5.83718">
        <ele>611</ele>
        <time>2019-06-15T07:08:30Z</time>
      </trkpt>
      <trkpt lat="44.34245" lon="5.83723">
        <ele>611</ele>
        <time>2019-06-15T07:08:31Z</time>
      </trkpt>
      <trkpt lat="44.34249" lon="5.83729">
        <ele>611</ele>
        <time>2019-06-15T07:08:33Z</time>
      </trkpt>
      <trkpt lat="44.34254" lon="5.83734">
        <ele>611</ele>
        <time>2019-06-15T07:08:33Z</time>
      </trkpt>
      <trkpt lat="44.34258" lon="5.8374">
        <ele>611</ele>
        <time>2019-06-15T07:08:34Z</time>
      </trkpt>
      <trkpt lat="44.34262" lon="5.83745">
        <ele>611</ele>
        <time>2019-06-15T07:08:35Z</time>
      </trkpt>
      <trkpt lat="44.34266" lon="5.8375">
        <ele>611</ele>
        <time>2019-06-15T07:08:36Z</time>
      </trkpt>
      <trkpt lat="44.3427" lon="5.83755">
        <ele>611</ele>
        <time>2019-06-15T07:08:38Z</time>
      </trkpt>
      <trkpt lat="44.34274" lon="5.8376">
        <ele>611</ele>
        <time>2019-06-15T07:08:38Z</time>
      </trkpt>
      <trkpt lat="44.34278" lon="5.83765">
        <ele>611</ele>
        <time>2019-06-15T07:08:39Z</time>
      </trkpt>
      <trkpt lat="44.34282" lon="5.83771">
        <ele>611</ele>
        <time>2019-06-15T07:08:40Z</time>
      </trkpt>
      <trkpt lat="44.34286" lon="5.83776">
        <ele>611</ele>
        <time>2019-06-15T07:08:42Z</time>
      </trkpt>
      <trkpt lat="44.3429" lon="5.83781">
        <ele>611</ele>
        <time>2019-06-15T07:08:43Z</time>
      </trkpt>
      <trkpt lat="44.34294" lon="5.83786">
        <ele>611</ele>
        <time>2019-06-15T07:08:43Z</time>
      </trkpt>
      <trkpt lat="44.34298" lon="5.83791">
        <ele>611</ele>
        <time>2019-06-15T07:08:44Z</time>
      </trkpt>
      <trkpt lat="44.34302" lon="5.83797">
        <ele>612</ele>
        <time>2019-06-15T07:08:45Z</time>
      </trkpt>
      <trkpt lat="44.34306" lon="5.83802">
        <ele>612</ele>
        <time>2019-06-15T07:08:46Z</time>
      </trkpt>
      <trkpt lat="44.3431" lon="5.83807">
        <ele>612</ele>
        <time>2019-06-15T07:08:48Z</time>
      </trkpt>
      <trkpt lat="44.34314" lon="5.83812">
        <ele>612</ele>
        <time>2019-06-15T07:08:48Z</time>
      </trkpt>
      <trkpt lat="44.34318" lon="5.83817">
        <ele>612</ele>
        <time>2019-06-15T07:08:49Z</time>
      </trkpt>
      <trkpt lat="44.34322" lon="5.83822">
        <ele>612</ele>
        <time>2019-06-15T07:08:50Z</time>
      </trkpt>
      <trkpt lat="44.34326" lon="5.83827">
        <ele>613</ele>
        <time>2019-06-15T07:08:51Z</time>
      </trkpt>
      <trkpt lat="44.3433" lon="5.83833">
        <ele>613</ele>
        <time>2019-06-15T07:08:53Z</time>
      </trkpt>
      <trkpt lat="44.34334" lon="5.83837">
        <ele>613</ele>
        <time>2019-06-15T07:08:53Z</time>
      </trkpt>
      <trkpt lat="44.34338" lon="5.83842">
        <ele>613</ele>
        <time>2019-06-15T07:08:54Z</time>
      </trkpt>
      <trkpt lat="44.34342" lon="5.83848">
        <ele>613</ele>
        <time>2019-06-15T07:08:55Z</time>
      </trkpt>
      <trkpt lat="44.34346" lon="5.83853">
        <ele>613</ele>
        <time>2019-06-15T07:08:56Z</time>
      </trkpt>
      <trkpt lat="44.34349" lon="5.83858">
        <ele>614</ele>
        <time>2019-06-15T07:08:57Z</time>
      </trkpt>
      <trkpt lat="44.34354" lon="5.83863">
        <ele>614</ele>
        <time>2019-06-15T07:08:59Z</time>
      </trkpt>
      <trkpt lat="44.34357" lon="5.83868">
        <ele>614</ele>
        <time>2019-06-15T07:08:59Z</time>
      </trkpt>
      <trkpt lat="44.34361" lon="5.83873">
        <ele>614</ele>
        <time>2019-06-15T07:09:00Z</time>
      </trkpt>
      <trkpt lat="44.34365" lon="5.83878">
        <ele>614</ele>
        <time>2019-06-15T07:09:01Z</time>
      </trkpt>
      <trkpt lat="44.34369" lon="5.83883">
        <ele>614</ele>
        <time>2019-06-15T07:09:02Z</time>
      </trkpt>
      <trkpt lat="44.34373" lon="5.83889">
        <ele>614</ele>
        <time>2019-06-15T07:09:04Z</time>
      </trkpt>
      <trkpt lat="44.34377" lon="5.83894">
        <ele>614</ele>
        <time>2019-06-15T07:09:04Z</time>
      </trkpt>
      <trkpt lat="44.34381" lon="5.83899">
        <ele>614</ele>
        <time>2019-06-15T07:09:05Z</time>
      </trkpt>
      <trkpt lat="44.34385" lon="5.83904">
        <ele>615</ele>
        <time>2019-06-15T07:09:06Z</time>
      </trkpt>
      <trkpt lat="44.34389" lon="5.83909">
        <ele>615</ele>
        <time>2019-06-15T07:09:07Z</time>
      </trkpt>
      <trkpt lat="44.34393" lon="5.83914">
        <ele>615</ele>
        <time>2019-06-15T07:09:09Z</time>
      </trkpt>
      <trkpt lat="44.34397" lon="5.83919">
        <ele>615</ele>
        <time>2019-06-15T07:09:09Z</time>
      </trkpt>
      <trkpt lat="44.34401" lon="5.83924">
        <ele>615</ele>
        <time>2019-06-15T07:09:10Z</time>
      </trkpt>
      <trkpt lat="44.34405" lon="5.83929">
        <ele>615</ele>
        <time>2019-06-15T07:09:12Z</time>
      </trkpt>
      <trkpt lat="44.34409" lon="5.83935">
        <ele>615</ele>
        <time>2019-06-15T07:09:12Z</time>
      </trkpt>
      <trkpt lat="44.34413" lon="5.8394">
        <ele>615</ele>
        <time>2019-06-15T07:09:14Z</time>
      </trkpt>
      <trkpt lat="44.34417" lon="5.83945">
        <ele>615</ele>
        <time>2019-06-15T07:09:14Z</time>
      </trkpt>
      <trkpt lat="44.34422" lon="5.83951">
        <ele>615</ele>
        <time>2019-06-15T07:09:15Z</time>
      </trkpt>
      <trkpt lat="44.34425" lon="5.83956">
        <ele>615</ele>
        <time>2019-06-15T07:09:16Z</time>
      </trkpt>
      <trkpt lat="44.3443" lon="5.83961">
        <ele>615</ele>
        <time>2019-06-15T07:09:17Z</time>
      </trkpt>
      <trkpt lat="44.34434" lon="5.83967">
        <ele>615</ele>
        <time>2019-06-15T07:09:19Z</time>
      </trkpt>
      <trkpt lat="44.34438" lon="5.83972">
        <ele>615</ele>
        <time>2019-06-15T07:09:19Z</time>
      </trkpt>
      <trkpt lat="44.34443" lon="5.83978">
        <ele>616</ele>
        <time>2019-06-15T07:09:20Z</time>
      </trkpt>
      <trkpt lat="44.34447" lon="5.83983">
        <ele>616</ele>
        <time>2019-06-15T07:09:21Z</time>
      </trkpt>
      <trkpt lat="44.34451" lon="5.83989">
        <ele>616</ele>
        <time>2019-06-15T07:09:23Z</time>
      </trkpt>
      <trkpt lat="44.34456" lon="5.83994">
        <ele>616</ele>
        <time>2019-06-15T07:09:24Z</time>
      </trkpt>
      <trkpt lat="44.3446" lon="5.83999">
        <ele>616</ele>
        <time>2019-06-15T07:09:24Z</time>
      </trkpt>
      <trkpt lat="44.34464" lon="5.84005">
        <ele>616</ele>
        <time>2019-06-15T07:09:25Z</time>
      </trkpt>
      <trkpt lat="44.34469" lon="5.84011">
        <ele>616</ele>
        <time>2019-06-15T07:09:26Z</time>
      </trkpt>
      <trkpt lat="44.34473" lon="5.84016">
        <ele>616</ele>
        <time>2019-06-15T07:09:27Z</time>
      </trkpt>
      <trkpt lat="44.34478" lon="5.84022">
        <ele>616</ele>
        <time>2019-06-15T07:09:29Z</time>
      </trkpt>
      <trkpt lat="44.34482" lon="5.84027">
        <ele>616</ele>
        <time>2019-06-15T07:09:29Z</time>
      </trkpt>
      <trkpt lat="44.34486" lon="5.84033">
        <ele>616</ele>
        <time>2019-06-15T07:09:30Z</time>
      </trkpt>
      <trkpt lat="44.3449" lon="5.84038">
        <ele>616</ele>
        <time>2019-06-15T07:09:31Z</time>
      </trkpt>
      <trkpt lat="44.34495" lon="5.84044">
        <ele>616</ele>
        <time>2019-06-15T07:09:32Z</time>
      </trkpt>
      <trkpt lat="44.34499" lon="5.8405">
        <ele>616</ele>
        <time>2019-06-15T07:09:34Z</time>
      </trkpt>
      <trkpt lat="44.34504" lon="5.84056">
        <ele>616</ele>
        <time>2019-06-15T07:09:34Z</time>
      </trkpt>
      <trkpt lat="44.34509" lon="5.84062">
        <ele>616</ele>
        <time>2019-06-15T07:09:35Z</time>
      </trkpt>
      <trkpt lat="44.34513" lon="5.84068">
        <ele>616</ele>
        <time>2019-06-15T07:09:36Z</time>
      </trkpt>
      <trkpt lat="44.34518" lon="5.84073">
        <ele>616</ele>
        <time>2019-06-15T07:09:37Z</time>
      </trkpt>
      <trkpt lat="44.34522" lon="5.84079">
        <ele>616</ele>
        <time>2019-06-15T07:09:39Z</time>
      </trkpt>
      <trkpt lat="44.34526" lon="5.84085">
        <ele>616</ele>
        <time>2019-06-15T07:09:39Z</time>
      </trkpt>
      <trkpt lat="44.3453" lon="5.84091">
        <ele>616</ele>
        <time>2019-06-15T07:09:40Z</time>
      </trkpt>
      <trkpt lat="44.34534" lon="5.84097">
        <ele>616</ele>
        <time>2019-06-15T07:09:42Z</time>
      </trkpt>
      <trkpt lat="44.34539" lon="5.84103">
        <ele>616</ele>
        <time>2019-06-15T07:09:42Z</time>
      </trkpt>
      <trkpt lat="44.34543" lon="5.84108">
        <ele>616</ele>
        <time>2019-06-15T07:09:43Z</time>
      </trkpt>
      <trkpt lat="44.34547" lon="5.84114">
        <ele>616</ele>
        <time>2019-06-15T07:09:44Z</time>
      </trkpt>
      <trkpt lat="44.34551" lon="5.8412">
        <ele>616</ele>
        <time>2019-06-15T07:09:45Z</time>
      </trkpt>
      <trkpt lat="44.34556" lon="5.84126">
        <ele>616</ele>
        <time>2019-06-15T07:09:46Z</time>
      </trkpt>
      <trkpt lat="44.3456" lon="5.84132">
        <ele>616</ele>
        <time>2019-06-15T07:09:47Z</time>
      </trkpt>
      <trkpt lat="44.34564" lon="5.84138">
        <ele>616</ele>
        <time>2019-06-15T07:09:48Z</time>
      </trkpt>
      <trkpt lat="44.34569" lon="5.84144">
        <ele>616</ele>
        <time>2019-06-15T07:09:49Z</time>
      </trkpt>
      <trkpt lat="44.34573" lon="5.8415">
        <ele>616</ele>
        <time>2019-06-15T07:09:50Z</time>
      </trkpt>
      <trkpt lat="44.34578" lon="5.84156">
        <ele>616</ele>
        <time>2019-06-15T07:09:51Z</time>
      </trkpt>
      <trkpt lat="44.34582" lon="5.84162">
        <ele>616</ele>
        <time>2019-06-15T07:09:52Z</time>
      </trkpt>
      <trkpt lat="44.34586" lon="5.84168">
        <ele>616</ele>
        <time>2019-06-15T07:09:53Z</time>
      </trkpt>
      <trkpt lat="44.3459" lon="5.84175">
        <ele>616</ele>
        <time>2019-06-15T07:09:54Z</time>
      </trkpt>
      <trkpt lat="44.34594" lon="5.84181">
        <ele>616</ele>
        <time>2019-06-15T07:09:55Z</time>
      </trkpt>
      <trkpt lat="44.34598" lon="5.84187">
        <ele>616</ele>
        <time>2019-06-15T07:09:56Z</time>
      </trkpt>
      <trkpt lat="44.34601" lon="5.84194">
        <ele>616</ele>
        <time>2019-06-15T07:09:57Z</time>
      </trkpt>
      <trkpt lat="44.34604" lon="5.84201">
        <ele>616</ele>
        <time>2019-06-15T07:09:59Z</time>
      </trkpt>
      <trkpt lat="44.34607" lon="5.84208">
        <ele>616</ele>
        <time>2019-06-15T07:09:59Z</time>
      </trkpt>
      <trkpt lat="44.34609" lon="5.84215">
        <ele>616</ele>
        <time>2019-06-15T07:10:00Z</time>
      </trkpt>
      <trkpt lat="44.34612" lon="5.84222">
        <ele>616</ele>
        <time>2019-06-15T07:10:01Z</time>
      </trkpt>
      <trkpt lat="44.34614" lon="5.84229">
        <ele>616</ele>
        <time>2019-06-15T07:10:02Z</time>
      </trkpt>
      <trkpt lat="44.34616" lon="5.84236">
        <ele>616</ele>
        <time>2019-06-15T07:10:04Z</time>
      </trkpt>
      <trkpt lat="44.34618" lon="5.84243">
        <ele>616</ele>
        <time>2019-06-15T07:10:04Z</time>
      </trkpt>
      <trkpt lat="44.3462" lon="5.8425">
        <ele>616</ele>
        <time>2019-06-15T07:10:05Z</time>
      </trkpt>
      <trkpt lat="44.34621" lon="5.84258">
        <ele>616</ele>
        <time>2019-06-15T07:10:06Z</time>
      </trkpt>
      <trkpt lat="44.34623" lon="5.84265">
        <ele>616</ele>
        <time>2019-06-15T07:10:07Z</time>
      </trkpt>
      <trkpt lat="44.34625" lon="5.84272">
        <ele>616</ele>
        <time>2019-06-15T07:10:08Z</time>
      </trkpt>
      <trkpt lat="44.34626" lon="5.84279">
        <ele>616</ele>
        <time>2019-06-15T07:10:09Z</time>
      </trkpt>
      <trkpt lat="44.34627" lon="5.84286">
        <ele>617</ele>
        <time>2019-06-15T07:10:11Z</time>
      </trkpt>
      <trkpt lat="44.34629" lon="5.84293">
        <ele>617</ele>
        <time>2019-06-15T07:10:11Z</time>
      </trkpt>
      <trkpt lat="44.3463" lon="5.843">
        <ele>617</ele>
        <time>2019-06-15T07:10:12Z</time>
      </trkpt>
      <trkpt lat="44.34631" lon="5.84306">
        <ele>617</ele>
        <time>2019-06-15T07:10:13Z</time>
      </trkpt>
      <trkpt lat="44.34633" lon="5.84313">
        <ele>617</ele>
        <time>2019-06-15T07:10:14Z</time>
      </trkpt>
      <trkpt lat="44.34634" lon="5.8432">
        <ele>618</ele>
        <time>2019-06-15T07:10:15Z</time>
      </trkpt>
      <trkpt lat="44.34636" lon="5.84326">
        <ele>618</ele>
        <time>2019-06-15T07:10:16Z</time>
      </trkpt>
      <trkpt lat="44.34637" lon="5.84333">
        <ele>618</ele>
        <time>2019-06-15T07:10:17Z</time>
      </trkpt>
      <trkpt lat="44.34639" lon="5.84339">
        <ele>618</ele>
        <time>2019-06-15T07:10:18Z</time>
      </trkpt>
      <trkpt lat="44.34641" lon="5.84345">
        <ele>618</ele>
        <time>2019-06-15T07:10:19Z</time>
      </trkpt>
      <trkpt lat="44.34643" lon="5.84351">
        <ele>619</ele>
        <time>2019-06-15T07:10:20Z</time>
      </trkpt>
      <trkpt lat="44.34645" lon="5.84357">
        <ele>619</ele>
        <time>2019-06-15T07:10:21Z</time>
      </trkpt>
      <trkpt lat="44.34647" lon="5.84363">
        <ele>619</ele>
        <time>2019-06-15T07:10:22Z</time>
      </trkpt>
      <trkpt lat="44.3465" lon="5.8437">
        <ele>619</ele>
        <time>2019-06-15T07:10:23Z</time>
      </trkpt>
      <trkpt lat="44.34653" lon="5.84376">
        <ele>619</ele>
        <time>2019-06-15T07:10:24Z</time>
      </trkpt>
      <trkpt lat="44.34655" lon="5.84382">
        <ele>620</ele>
        <time>2019-06-15T07:10:25Z</time>
      </trkpt>
      <trkpt lat="44.34658" lon="5.84389">
        <ele>620</ele>
        <time>2019-06-15T07:10:26Z</time>
      </trkpt>
      <trkpt lat="44.34661" lon="5.84395">
        <ele>620</ele>
        <time>2019-06-15T07:10:27Z</time>
      </trkpt>
      <trkpt lat="44.34664" lon="5.84402">
        <ele>620</ele>
        <time>2019-06-15T07:10:28Z</time>
      </trkpt>
      <trkpt lat="44.34668" lon="5.84409">
        <ele>620</ele>
        <time>2019-06-15T07:10:29Z</time>
      </trkpt>
      <trkpt lat="44.34671" lon="5.84415">
        <ele>620</ele>
        <time>2019-06-15T07:10:30Z</time>
      </trkpt>
      <trkpt lat="44.34675" lon="5.84421">
        <ele>621</ele>
        <time>2019-06-15T07:10:31Z</time>
      </trkpt>
      <trkpt lat="44.34679" lon="5.84427">
        <ele>621</ele>
        <time>2019-06-15T07:10:32Z</time>
      </trkpt>
      <trkpt lat="44.34683" lon="5.84432">
        <ele>621</ele>
        <time>2019-06-15T07:10:33Z</time>
      </trkpt>
      <trkpt lat="44.34687" lon="5.84437">
        <ele>621</ele>
        <time>2019-06-15T07:10:34Z</time>
      </trkpt>
      <trkpt lat="44.34691" lon="5.84442">
        <ele>621</ele>
        <time>2019-06-15T07:10:35Z</time>
      </trkpt>
      <trkpt lat="44.34695" lon="5.84447">
        <ele>622</ele>
        <time>2019-06-15T07:10:36Z</time>
      </trkpt>
      <trkpt lat="44.34699" lon="5.84451">
        <ele>622</ele>
        <time>2019-06-15T07:10:37Z</time>
      </trkpt>
      <trkpt lat="44.34703" lon="5.84455">
        <ele>622</ele>
        <time>2019-06-15T07:10:39Z</time>
      </trkpt>
      <trkpt lat="44.34706" lon="5.8446">
        <ele>622</ele>
        <time>2019-06-15T07:10:39Z</time>
      </trkpt>
      <trkpt lat="44.3471" lon="5.84465">
        <ele>622</ele>
        <time>2019-06-15T07:10:40Z</time>
      </trkpt>
      <trkpt lat="44.34714" lon="5.84469">
        <ele>622</ele>
        <time>2019-06-15T07:10:42Z</time>
      </trkpt>
      <trkpt lat="44.34718" lon="5.84474">
        <ele>622</ele>
        <time>2019-06-15T07:10:42Z</time>
      </trkpt>
      <trkpt lat="44.34721" lon="5.84479">
        <ele>622</ele>
        <time>2019-06-15T07:10:44Z</time>
      </trkpt>
      <trkpt lat="44.34725" lon="5.84483">
        <ele>622</ele>
        <time>2019-06-15T07:10:44Z</time>
      </trkpt>
      <trkpt lat="44.34729" lon="5.84488">
        <ele>622</ele>
        <time>2019-06-15T07:10:45Z</time>
      </trkpt>
      <trkpt lat="44.34733" lon="5.84493">
        <ele>622</ele>
        <time>2019-06-15T07:10:47Z</time>
      </trkpt>
      <trkpt lat="44.34737" lon="5.84498">
        <ele>623</ele>
        <time>2019-06-15T07:10:47Z</time>
      </trkpt>
      <trkpt lat="44.34741" lon="5.84502">
        <ele>623</ele>
        <time>2019-06-15T07:10:49Z</time>
      </trkpt>
      <trkpt lat="44.34745" lon="5.84507">
        <ele>623</ele>
        <time>2019-06-15T07:10:49Z</time>
      </trkpt>
      <trkpt lat="44.34748" lon="5.84512">
        <ele>623</ele>
        <time>2019-06-15T07:10:50Z</time>
      </trkpt>
      <trkpt lat="44.34753" lon="5.84516">
        <ele>623</ele>
        <time>2019-06-15T07:10:51Z</time>
      </trkpt>
      <trkpt lat="44.34756" lon="5.84521">
        <ele>623</ele>
        <time>2019-06-15T07:10:52Z</time>
      </trkpt>
      <trkpt lat="44.3476" lon="5.84525">
        <ele>623</ele>
        <time>2019-06-15T07:10:54Z</time>
      </trkpt>
      <trkpt lat="44.34764" lon="5.8453">
        <ele>623</ele>
        <time>2019-06-15T07:10:54Z</time>
      </trkpt>
      <trkpt lat="44.34768" lon="5.84534">
        <ele>623</ele>
        <time>2019-06-15T07:10:55Z</time>
      </trkpt>
      <trkpt lat="44.34772" lon="5.84539">
        <ele>623</ele>
        <time>2019-06-15T07:10:56Z</time>
      </trkpt>
      <trkpt lat="44.34776" lon="5.84543">
        <ele>623</ele>
        <time>2019-06-15T07:10:57Z</time>
      </trkpt>
      <trkpt lat="44.34779" lon="5.84548">
        <ele>623</ele>
        <time>2019-06-15T07:10:59Z</time>
      </trkpt>
      <trkpt lat="44.34783" lon="5.84552">
        <ele>623</ele>
        <time>2019-06-15T07:10:59Z</time>
      </trkpt>
      <trkpt lat="44.34787" lon="5.84557">
        <ele>623</ele>
        <time>2019-06-15T07:11:00Z</time>
      </trkpt>
      <trkpt lat="44.34791" lon="5.84561">
        <ele>623</ele>
        <time>2019-06-15T07:11:01Z</time>
      </trkpt>
      <trkpt lat="44.34795" lon="5.84566">
        <ele>624</ele>
        <time>2019-06-15T07:11:02Z</time>
      </trkpt>
      <trkpt lat="44.34799" lon="5.8457">
        <ele>624</ele>
        <time>2019-06-15T07:11:04Z</time>
      </trkpt>
      <trkpt lat="44.34803" lon="5.84575">
        <ele>624</ele>
        <time>2019-06-15T07:11:04Z</time>
      </trkpt>
      <trkpt lat="44.34807" lon="5.8458">
        <ele>624</ele>
        <time>2019-06-15T07:11:05Z</time>
      </trkpt>
      <trkpt lat="44.34811" lon="5.84584">
        <ele>624</ele>
        <time>2019-06-15T07:11:06Z</time>
      </trkpt>
      <trkpt lat="44.34814" lon="5.84589">
        <ele>624</ele>
        <time>2019-06-15T07:11:07Z</time>
      </trkpt>
      <trkpt lat="44.34818" lon="5.84594">
        <ele>624</ele>
        <time>2019-06-15T07:11:09Z</time>
      </trkpt>
      <trkpt lat="44.34822" lon="5.84599">
        <ele>624</ele>
        <time>2019-06-15T07:11:09Z</time>
      </trkpt>
      <trkpt lat="44.34826" lon="5.84604">
        <ele>624</ele>
        <time>2019-06-15T07:11:11Z</time>
      </trkpt>
      <trkpt lat="44.3483" lon="5.84609">
        <ele>624</ele>
        <time>2019-06-15T07:11:11Z</time>
      </trkpt>
      <trkpt lat="44.34834" lon="5.84614">
        <ele>625</ele>
        <time>2019-06-15T07:11:12Z</time>
      </trkpt>
      <trkpt lat="44.34837" lon="5.84619">
        <ele>625</ele>
        <time>2019-06-15T07:11:14Z</time>
      </trkpt>
      <trkpt lat="44.34841" lon="5.84624">
        <ele>625</ele>
        <time>2019-06-15T07:11:14Z</time>
      </trkpt>
      <trkpt lat="44.34844" lon="5.8463">
        <ele>625</ele>
        <time>2019-06-15T07:11:15Z</time>
      </trkpt>
      <trkpt lat="44.34848" lon="5.84635">
        <ele>625</ele>
        <time>2019-06-15T07:11:16Z</time>
      </trkpt>
      <trkpt lat="44.34851" lon="5.84641">
        <ele>625</ele>
        <time>2019-06-15T07:11:17Z</time>
      </trkpt>
      <trkpt lat="44.34854" lon="5.84647">
        <ele>625</ele>
        <time>2019-06-15T07:11:19Z</time>
      </trkpt>
      <trkpt lat="44.34857" lon="5.84652">
        <ele>625</ele>
        <time>2019-06-15T07:11:19Z</time>
      </trkpt>
      <trkpt lat="44.34861" lon="5.84658">
        <ele>625</ele>
        <time>2019-06-15T07:11:20Z</time>
      </trkpt>
      <trkpt lat="44.34864" lon="5.84663">
        <ele>625</ele>
        <time>2019-06-15T07:11:21Z</time>
      </trkpt>
      <trkpt lat="44.34867" lon="5.84669">
        <ele>626</ele>
        <time>2019-06-15T07:11:22Z</time>
      </trkpt>
      <trkpt lat="44.3487" lon="5.84675">
        <ele>626</ele>
        <time>2019-06-15T07:11:23Z</time>
      </trkpt>
      <trkpt lat="44.34873" lon="5.84681">
        <ele>626</ele>
        <time>2019-06-15T07:11:24Z</time>
      </trkpt>
      <trkpt lat="44.34877" lon="5.84686">
        <ele>626</ele>
        <time>2019-06-15T07:11:25Z</time>
      </trkpt>
      <trkpt lat="44.3488" lon="5.84692">
        <ele>626</ele>
        <time>2019-06-15T07:11:26Z</time>
      </trkpt>
      <trkpt lat="44.34883" lon="5.84697">
        <ele>626</ele>
        <time>2019-06-15T07:11:27Z</time>
      </trkpt>
      <trkpt lat="44.34887" lon="5.84703">
        <ele>626</ele>
        <time>2019-06-15T07:11:29Z</time>
      </trkpt>
      <trkpt lat="44.3489" lon="5.84708">
        <ele>626</ele>
        <time>2019-06-15T07:11:29Z</time>
      </trkpt>
      <trkpt lat="44.34893" lon="5.84713">
        <ele>626</ele>
        <time>2019-06-15T07:11:30Z</time>
      </trkpt>
      <trkpt lat="44.34897" lon="5.84718">
        <ele>626</ele>
        <time>2019-06-15T07:11:31Z</time>
      </trkpt>
      <trkpt lat="44.34901" lon="5.84723">
        <ele>627</ele>
        <time>2019-06-15T07:11:32Z</time>
      </trkpt>
      <trkpt lat="44.34904" lon="5.84728">
        <ele>627</ele>
        <time>2019-06-15T07:11:34Z</time>
      </trkpt>
      <trkpt lat="44.34908" lon="5.84732">
        <ele>627</ele>
        <time>2019-06-15T07:11:34Z</time>
      </trkpt>
      <trkpt lat="44.34912" lon="5.84737">
        <ele>627</ele>
        <time>2019-06-15T07:11:35Z</time>
      </trkpt>
      <trkpt lat="44.34917" lon="5.84741">
        <ele>627</ele>
        <time>2019-06-15T07:11:36Z</time>
      </trkpt>
      <trkpt lat="44.34922" lon="5.84746">
        <ele>627</ele>
        <time>2019-06-15T07:11:37Z</time>
      </trkpt>
      <trkpt lat="44.34926" lon="5.8475">
        <ele>627</ele>
        <time>2019-06-15T07:11:38Z</time>
      </trkpt>
      <trkpt lat="44.34931" lon="5.84754">
        <ele>627</ele>
        <time>2019-06-15T07:11:39Z</time>
      </trkpt>
      <trkpt lat="44.34936" lon="5.84758">
        <ele>627</ele>
        <time>2019-06-15T07:11:41Z</time>
      </trkpt>
      <trkpt lat="44.3494" lon="5.84763">
        <ele>627</ele>
        <time>2019-06-15T07:11:42Z</time>
      </trkpt>
      <trkpt lat="44.34945" lon="5.84767">
        <ele>627</ele>
        <time>2019-06-15T07:11:42Z</time>
      </trkpt>
      <trkpt lat="44.3495" lon="5.84771">
        <ele>627</ele>
        <time>2019-06-15T07:11:44Z</time>
      </trkpt>
      <trkpt lat="44.34955" lon="5.84775">
        <ele>627</ele>
        <time>2019-06-15T07:11:44Z</time>
      </trkpt>
      <trkpt lat="44.34959" lon="5.84779">
        <ele>627</ele>
        <time>2019-06-15T07:11:45Z</time>
      </trkpt>
      <trkpt lat="44.34964" lon="5.84783">
        <ele>627</ele>
        <time>2019-06-15T07:11:46Z</time>
      </trkpt>
      <trkpt lat="44.34969" lon="5.84786">
        <ele>627</ele>
        <time>2019-06-15T07:11:47Z</time>
      </trkpt>
      <trkpt lat="44.34973" lon="5.8479">
        <ele>627</ele>
        <time>2019-06-15T07:11:49Z</time>
      </trkpt>
      <trkpt lat="44.34978" lon="5.84794">
        <ele>627</ele>
        <time>2019-06-15T07:11:49Z</time>
      </trkpt>
      <trkpt lat="44.34983" lon="5.84798">
        <ele>627</ele>
        <time>2019-06-15T07:11:50Z</time>
      </trkpt>
      <trkpt lat="44.34987" lon="5.84803">
        <ele>627</ele>
        <time>2019-06-15T07:11:51Z</time>
      </trkpt>
      <trkpt lat="44.34991" lon="5.84807">
        <ele>627</ele>
        <time>2019-06-15T07:11:52Z</time>
      </trkpt>
      <trkpt lat="44.34996" lon="5.84811">
        <ele>627</ele>
        <time>2019-06-15T07:11:54Z</time>
      </trkpt>
      <trkpt lat="44.35" lon="5.84815">
        <ele>627</ele>
        <time>2019-06-15T07:11:54Z</time>
      </trkpt>
      <trkpt lat="44.35004" lon="5.84819">
        <ele>628</ele>
        <time>2019-06-15T07:11:55Z</time>
      </trkpt>
      <trkpt lat="44.35009" lon="5.84824">
        <ele>628</ele>
        <time>2019-06-15T07:11:56Z</time>
      </trkpt>
      <trkpt lat="44.35013" lon="5.84828">
        <ele>628</ele>
        <time>2019-06-15T07:11:57Z</time>
      </trkpt>
      <trkpt lat="44.35017" lon="5.84832">
        <ele>628</ele>
        <time>2019-06-15T07:11:59Z</time>
      </trkpt>
      <trkpt lat="44.35021" lon="5.84836">
        <ele>628</ele>
        <time>2019-06-15T07:11:59Z</time>
      </trkpt>
      <trkpt lat="44.35025" lon="5.8484">
        <ele>628</ele>
        <time>2019-06-15T07:12:00Z</time>
      </trkpt>
      <trkpt lat="44.35028" lon="5.84845">
        <ele>628</ele>
        <time>2019-06-15T07:12:01Z</time>
      </trkpt>
      <trkpt lat="44.35033" lon="5.84849">
        <ele>628</ele>
        <time>2019-06-15T07:12:02Z</time>
      </trkpt>
      <trkpt lat="44.35036" lon="5.84854">
        <ele>628</ele>
        <time>2019-06-15T07:12:04Z</time>
      </trkpt>
      <trkpt lat="44.3504" lon="5.84859">
        <ele>628</ele>
        <time>2019-06-15T07:12:04Z</time>
      </trkpt>
      <trkpt lat="44.35044" lon="5.84864">
        <ele>628</ele>
        <time>2019-06-15T07:12:05Z</time>
      </trkpt>
      <trkpt lat="44.35048" lon="5.84869">
        <ele>628</ele>
        <time>2019-06-15T07:12:06Z</time>
      </trkpt>
      <trkpt lat="44.35051" lon="5.84874">
        <ele>628</ele>
        <time>2019-06-15T07:12:07Z</time>
      </trkpt>
      <trkpt lat="44.35054" lon="5.84879">
        <ele>629</ele>
        <time>2019-06-15T07:12:08Z</time>
      </trkpt>
      <trkpt lat="44.35058" lon="5.84884">
        <ele>629</ele>
        <time>2019-06-15T07:12:09Z</time>
      </trkpt>
      <trkpt lat="44.35061" lon="5.84889">
        <ele>629</ele>
        <time>2019-06-15T07:12:11Z</time>
      </trkpt>
      <trkpt lat="44.35064" lon="5.84894">
        <ele>629</ele>
        <time>2019-06-15T07:12:11Z</time>
      </trkpt>
      <trkpt lat="44.35068" lon="5.84899">
        <ele>629</ele>
        <time>2019-06-15T07:12:12Z</time>
      </trkpt>
      <trkpt lat="44.35071" lon="5.84904">
        <ele>629</ele>
        <time>2019-06-15T07:12:14Z</time>
      </trkpt>
      <trkpt lat="44.35074" lon="5.84909">
        <ele>629</ele>
        <time>2019-06-15T07:12:14Z</time>
      </trkpt>
      <trkpt lat="44.35077" lon="5.84914">
        <ele>629</ele>
        <time>2019-06-15T07:12:15Z</time>
      </trkpt>
      <trkpt lat="44.35081" lon="5.84919">
        <ele>630</ele>
        <time>2019-06-15T07:12:16Z</time>
      </trkpt>
      <trkpt lat="44.35083" lon="5.84925">
        <ele>630</ele>
        <time>2019-06-15T07:12:17Z</time>
      </trkpt>
      <trkpt lat="44.35086" lon="5.84931">
        <ele>630</ele>
        <time>2019-06-15T07:12:19Z</time>
      </trkpt>
      <trkpt lat="44.35089" lon="5.84936">
        <ele>630</ele>
        <time>2019-06-15T07:12:19Z</time>
      </trkpt>
      <trkpt lat="44.35092" lon="5.84942">
        <ele>630</ele>
        <time>2019-06-15T07:12:20Z</time>
      </trkpt>
      <trkpt lat="44.35095" lon="5.84948">
        <ele>630</ele>
        <time>2019-06-15T07:12:21Z</time>
      </trkpt>
      <trkpt lat="44.35098" lon="5.84954">
        <ele>630</ele>
        <time>2019-06-15T07:12:22Z</time>
      </trkpt>
      <trkpt lat="44.351" lon="5.8496">
        <ele>630</ele>
        <time>2019-06-15T07:12:24Z</time>
      </trkpt>
      <trkpt lat="44.35103" lon="5.84966">
        <ele>631</ele>
        <time>2019-06-15T07:12:24Z</time>
      </trkpt>
      <trkpt lat="44.35106" lon="5.84972">
        <ele>631</ele>
        <time>2019-06-15T07:12:25Z</time>
      </trkpt>
      <trkpt lat="44.35108" lon="5.84978">
        <ele>631</ele>
        <time>2019-06-15T07:12:26Z</time>
      </trkpt>
      <trkpt lat="44.35111" lon="5.84984">
        <ele>631</ele>
        <time>2019-06-15T07:12:27Z</time>
      </trkpt>
      <trkpt lat="44.35113" lon="5.84991">
        <ele>631</ele>
        <time>2019-06-15T07:12:29Z</time>
      </trkpt>
      <trkpt lat="44.35116" lon="5.84997">
        <ele>632</ele>
        <time>2019-06-15T07:12:29Z</time>
      </trkpt>
      <trkpt lat="44.35119" lon="5.85002">
        <ele>632</ele>
        <time>2019-06-15T07:12:30Z</time>
      </trkpt>
      <trkpt lat="44.35121" lon="5.85008">
        <ele>632</ele>
        <time>2019-06-15T07:12:31Z</time>
      </trkpt>
      <trkpt lat="44.35124" lon="5.85014">
        <ele>632</ele>
        <time>2019-06-15T07:12:32Z</time>
      </trkpt>
      <trkpt lat="44.35127" lon="5.8502">
        <ele>632</ele>
        <time>2019-06-15T07:12:34Z</time>
      </trkpt>
      <trkpt lat="44.3513" lon="5.85027">
        <ele>632</ele>
        <time>2019-06-15T07:12:34Z</time>
      </trkpt>
      <trkpt lat="44.35132" lon="5.85033">
        <ele>632</ele>
        <time>2019-06-15T07:12:35Z</time>
      </trkpt>
      <trkpt lat="44.35135" lon="5.85039">
        <ele>632</ele>
        <time>2019-06-15T07:12:36Z</time>
      </trkpt>
      <trkpt lat="44.35138" lon="5.85044">
        <ele>632</ele>
        <time>2019-06-15T07:12:37Z</time>
      </trkpt>
      <trkpt lat="44.35142" lon="5.8505">
        <ele>632</ele>
        <time>2019-06-15T07:12:39Z</time>
      </trkpt>
      <trkpt lat="44.35145" lon="5.85055">
        <ele>633</ele>
        <time>2019-06-15T07:12:39Z</time>
      </trkpt>
      <trkpt lat="44.35149" lon="5.8506">
        <ele>633</ele>
        <time>2019-06-15T07:12:40Z</time>
      </trkpt>
      <trkpt lat="44.35152" lon="5.85065">
        <ele>633</ele>
        <time>2019-06-15T07:12:42Z</time>
      </trkpt>
      <trkpt lat="44.35156" lon="5.8507">
        <ele>633</ele>
        <time>2019-06-15T07:12:42Z</time>
      </trkpt>
      <trkpt lat="44.3516" lon="5.85075">
        <ele>633</ele>
        <time>2019-06-15T07:12:44Z</time>
      </trkpt>
      <trkpt lat="44.35164" lon="5.85079">
        <ele>633</ele>
        <time>2019-06-15T07:12:44Z</time>
      </trkpt>
      <trkpt lat="44.35168" lon="5.85084">
        <ele>633</ele>
        <time>2019-06-15T07:12:45Z</time>
      </trkpt>
      <trkpt lat="44.35172" lon="5.85089">
        <ele>633</ele>
        <time>2019-06-15T07:12:46Z</time>
      </trkpt>
      <trkpt lat="44.35176" lon="5.85093">
        <ele>633</ele>
        <time>2019-06-15T07:12:47Z</time>
      </trkpt>
      <trkpt lat="44.3518" lon="5.85099">
        <ele>633</ele>
        <time>2019-06-15T07:12:48Z</time>
      </trkpt>
      <trkpt lat="44.35184" lon="5.85104">
        <ele>634</ele>
        <time>2019-06-15T07:12:49Z</time>
      </trkpt>
      <trkpt lat="44.35189" lon="5.85108">
        <ele>634</ele>
        <time>2019-06-15T07:12:50Z</time>
      </trkpt>
      <trkpt lat="44.35193" lon="5.85113">
        <ele>634</ele>
        <time>2019-06-15T07:12:51Z</time>
      </trkpt>
      <trkpt lat="44.35197" lon="5.85118">
        <ele>634</ele>
        <time>2019-06-15T07:12:52Z</time>
      </trkpt>
      <trkpt lat="44.35201" lon="5.85123">
        <ele>634</ele>
        <time>2019-06-15T07:12:53Z</time>
      </trkpt>
      <trkpt lat="44.35205" lon="5.85128">
        <ele>634</ele>
        <time>2019-06-15T07:12:54Z</time>
      </trkpt>
      <trkpt lat="44.35209" lon="5.85134">
        <ele>634</ele>
        <time>2019-06-15T07:12:55Z</time>
      </trkpt>
      <trkpt lat="44.35213" lon="5.85139">
        <ele>634</ele>
        <time>2019-06-15T07:12:56Z</time>
      </trkpt>
      <trkpt lat="44.35217" lon="5.85145">
        <ele>634</ele>
        <time>2019-06-15T07:12:57Z</time>
      </trkpt>
      <trkpt lat="44.3522" lon="5.85151">
        <ele>634</ele>
        <time>2019-06-15T07:12:59Z</time>
      </trkpt>
      <trkpt lat="44.35223" lon="5.85157">
        <ele>634</ele>
        <time>2019-06-15T07:12:59Z</time>
      </trkpt>
      <trkpt lat="44.35226" lon="5.85163">
        <ele>634</ele>
        <time>2019-06-15T07:13:00Z</time>
      </trkpt>
      <trkpt lat="44.35228" lon="5.8517">
        <ele>634</ele>
        <time>2019-06-15T07:13:01Z</time>
      </trkpt>
      <trkpt lat="44.35231" lon="5.85176">
        <ele>635</ele>
        <time>2019-06-15T07:13:02Z</time>
      </trkpt>
      <trkpt lat="44.35233" lon="5.85183">
        <ele>635</ele>
        <time>2019-06-15T07:13:04Z</time>
      </trkpt>
      <trkpt lat="44.35234" lon="5.85189">
        <ele>635</ele>
        <time>2019-06-15T07:13:04Z</time>
      </trkpt>
      <trkpt lat="44.35236" lon="5.85196">
        <ele>635</ele>
        <time>2019-06-15T07:13:05Z</time>
      </trkpt>
      <trkpt lat="44.35239" lon="5.85202">
        <ele>636</ele>
        <time>2019-06-15T07:13:06Z</time>
      </trkpt>
      <trkpt lat="44.35241" lon="5.85209">
        <ele>636</ele>
        <time>2019-06-15T07:13:07Z</time>
      </trkpt>
      <trkpt lat="44.35243" lon="5.85215">
        <ele>636</ele>
        <time>2019-06-15T07:13:08Z</time>
      </trkpt>
      <trkpt lat="44.35245" lon="5.85221">
        <ele>636</ele>
        <time>2019-06-15T07:13:09Z</time>
      </trkpt>
      <trkpt lat="44.35247" lon="5.85228">
        <ele>637</ele>
        <time>2019-06-15T07:13:10Z</time>
      </trkpt>
      <trkpt lat="44.35249" lon="5.85234">
        <ele>637</ele>
        <time>2019-06-15T07:13:11Z</time>
      </trkpt>
      <trkpt lat="44.35251" lon="5.85241">
        <ele>637</ele>
        <time>2019-06-15T07:13:12Z</time>
      </trkpt>
      <trkpt lat="44.35253" lon="5.85248">
        <ele>637</ele>
        <time>2019-06-15T07:13:13Z</time>
      </trkpt>
      <trkpt lat="44.35255" lon="5.85254">
        <ele>637</ele>
        <time>2019-06-15T07:13:14Z</time>
      </trkpt>
      <trkpt lat="44.35257" lon="5.8526">
        <ele>638</ele>
        <time>2019-06-15T07:13:15Z</time>
      </trkpt>
      <trkpt lat="44.3526" lon="5.85267">
        <ele>638</ele>
        <time>2019-06-15T07:13:16Z</time>
      </trkpt>
      <trkpt lat="44.35262" lon="5.85273">
        <ele>638</ele>
        <time>2019-06-15T07:13:17Z</time>
      </trkpt>
      <trkpt lat="44.35264" lon="5.8528">
        <ele>638</ele>
        <time>2019-06-15T07:13:18Z</time>
      </trkpt>
      <trkpt lat="44.35266" lon="5.85287">
        <ele>638</ele>
        <time>2019-06-15T07:13:19Z</time>
      </trkpt>
      <trkpt lat="44.35268" lon="5.85293">
        <ele>638</ele>
        <time>2019-06-15T07:13:20Z</time>
      </trkpt>
      <trkpt lat="44.3527" lon="5.853">
        <ele>638</ele>
        <time>2019-06-15T07:13:21Z</time>
      </trkpt>
      <trkpt lat="44.35272" lon="5.85306">
        <ele>638</ele>
        <time>2019-06-15T07:13:22Z</time>
      </trkpt>
      <trkpt lat="44.35274" lon="5.85313">
        <ele>638</ele>
        <time>2019-06-15T07:13:23Z</time>
      </trkpt>
      <trkpt lat="44.35276" lon="5.85319">
        <ele>638</ele>
        <time>2019-06-15T07:13:24Z</time>
      </trkpt>
      <trkpt lat="44.35278" lon="5.85325">
        <ele>638</ele>
        <time>2019-06-15T07:13:25Z</time>
      </trkpt>
      <trkpt lat="44.3528" lon="5.85332">
        <ele>638</ele>
        <time>2019-06-15T07:13:26Z</time>
      </trkpt>
      <trkpt lat="44.35282" lon="5.85338">
        <ele>638</ele>
        <time>2019-06-15T07:13:27Z</time>
      </trkpt>
      <trkpt lat="44.35284" lon="5.85345">
        <ele>638</ele>
        <time>2019-06-15T07:13:28Z</time>
      </trkpt>
      <trkpt lat="44.35286" lon="5.85351">
        <ele>638</ele>
        <time>2019-06-15T07:13:29Z</time>
      </trkpt>
      <trkpt lat="44.35288" lon="5.85358">
        <ele>638</ele>
        <time>2019-06-15T07:13:30Z</time>
      </trkpt>
      <trkpt lat="44.3529" lon="5.85364">
        <ele>638</ele>
        <time>2019-06-15T07:13:31Z</time>
      </trkpt>
      <trkpt lat="44.35292" lon="5.8537">
        <ele>638</ele>
        <time>2019-06-15T07:13:32Z</time>
      </trkpt>
      <trkpt lat="44.35295" lon="5.85377">
        <ele>638</ele>
        <time>2019-06-15T07:13:33Z</time>
      </trkpt>
      <trkpt lat="44.35297" lon="5.85384">
        <ele>638</ele>
        <time>2019-06-15T07:13:34Z</time>
      </trkpt>
      <trkpt lat="44.353" lon="5.8539">
        <ele>638</ele>
        <time>2019-06-15T07:13:35Z</time>
      </trkpt>
      <trkpt lat="44.35302" lon="5.85397">
        <ele>638</ele>
        <time>2019-06-15T07:13:36Z</time>
      </trkpt>
      <trkpt lat="44.35304" lon="5.85403">
        <ele>639</ele>
        <time>2019-06-15T07:13:37Z</time>
      </trkpt>
      <trkpt lat="44.35306" lon="5.85409">
        <ele>639</ele>
        <time>2019-06-15T07:13:38Z</time>
      </trkpt>
      <trkpt lat="44.35308" lon="5.85415">
        <ele>639</ele>
        <time>2019-06-15T07:13:39Z</time>
      </trkpt>
      <trkpt lat="44.3531" lon="5.85421">
        <ele>639</ele>
        <time>2019-06-15T07:13:40Z</time>
      </trkpt>
      <trkpt lat="44.35313" lon="5.85426">
        <ele>640</ele>
        <time>2019-06-15T07:13:42Z</time>
      </trkpt>
      <trkpt lat="44.35316" lon="5.85432">
        <ele>640</ele>
        <time>2019-06-15T07:13:42Z</time>
      </trkpt>
      <trkpt lat="44.35319" lon="5.85438">
        <ele>640</ele>
        <time>2019-06-15T07:13:43Z</time>
      </trkpt>
      <trkpt lat="44.35322" lon="5.85443">
        <ele>640</ele>
        <time>2019-06-15T07:13:44Z</time>
      </trkpt>
      <trkpt lat="44.35325" lon="5.85449">
        <ele>640</ele>
        <time>2019-06-15T07:13:45Z</time>
      </trkpt>
      <trkpt lat="44.35329" lon="5.85454">
        <ele>640</ele>
        <time>2019-06-15T07:13:46Z</time>
      </trkpt>
      <trkpt lat="44.35332" lon="5.85459">
        <ele>640</ele>
        <time>2019-06-15T07:13:47Z</time>
      </trkpt>
      <trkpt lat="44.35337" lon="5.85464">
        <ele>640</ele>
        <time>2019-06-15T07:13:48Z</time>
      </trkpt>
      <trkpt lat="44.35341" lon="5.85469">
        <ele>640</ele>
        <time>2019-06-15T07:13:49Z</time>
      </trkpt>
      <trkpt lat="44.35345" lon="5.85473">
        <ele>640</ele>
        <time>2019-06-15T07:13:50Z</time>
      </trkpt>
      <trkpt lat="44.35349" lon="5.85478">
        <ele>640</ele>
        <time>2019-06-15T07:13:51Z</time>
      </trkpt>
      <trkpt lat="44.35353" lon="5.85483">
        <ele>640</ele>
        <time>2019-06-15T07:13:52Z</time>
      </trkpt>
      <trkpt lat="44.35358" lon="5.85488">
        <ele>640</ele>
        <time>2019-06-15T07:13:53Z</time>
      </trkpt>
      <trkpt lat="44.35362" lon="5.85492">
        <ele>640</ele>
        <time>2019-06-15T07:13:54Z</time>
      </trkpt>
      <trkpt lat="44.35366" lon="5.85497">
        <ele>640</ele>
        <time>2019-06-15T07:13:55Z</time>
      </trkpt>
      <trkpt lat="44.3537" lon="5.85502">
        <ele>641</ele>
        <time>2019-06-15T07:13:56Z</time>
      </trkpt>
      <trkpt lat="44.35374" lon="5.85506">
        <ele>641</ele>
        <time>2019-06-15T07:13:57Z</time>
      </trkpt>
      <trkpt lat="44.35378" lon="5.85511">
        <ele>641</ele>
        <time>2019-06-15T07:13:58Z</time>
      </trkpt>
      <trkpt lat="44.35382" lon="5.85515">
        <ele>641</ele>
        <time>2019-06-15T07:13:59Z</time>
      </trkpt>
      <trkpt lat="44.35386" lon="5.8552">
        <ele>642</ele>
        <time>2019-06-15T07:14:00Z</time>
      </trkpt>
      <trkpt lat="44.3539" lon="5.85524">
        <ele>642</ele>
        <time>2019-06-15T07:14:01Z</time>
      </trkpt>
      <trkpt lat="44.35394" lon="5.85529">
        <ele>642</ele>
        <time>2019-06-15T07:14:02Z</time>
      </trkpt>
      <trkpt lat="44.35398" lon="5.85533">
        <ele>643</ele>
        <time>2019-06-15T07:14:03Z</time>
      </trkpt>
      <trkpt lat="44.35403" lon="5.85538">
        <ele>643</ele>
        <time>2019-06-15T07:14:04Z</time>
      </trkpt>
      <trkpt lat="44.35407" lon="5.85542">
        <ele>643</ele>
        <time>2019-06-15T07:14:05Z</time>
      </trkpt>
      <trkpt lat="44.35411" lon="5.85547">
        <ele>643</ele>
        <time>2019-06-15T07:14:06Z</time>
      </trkpt>
      <trkpt lat="44.35415" lon="5.85552">
        <ele>644</ele>
        <time>2019-06-15T07:14:07Z</time>
      </trkpt>
      <trkpt lat="44.35419" lon="5.85557">
        <ele>644</ele>
        <time>2019-06-15T07:14:08Z</time>
      </trkpt>
      <trkpt lat="44.35424" lon="5.85561">
        <ele>644</ele>
        <time>2019-06-15T07:14:09Z</time>
      </trkpt>
      <trkpt lat="44.35428" lon="5.85566">
        <ele>644</ele>
        <time>2019-06-15T07:14:11Z</time>
      </trkpt>
      <trkpt lat="44.35432" lon="5.8557">
        <ele>644</ele>
        <time>2019-06-15T07:14:11Z</time>
      </trkpt>
      <trkpt lat="44.35436" lon="5.85575">
        <ele>645</ele>
        <time>2019-06-15T07:14:12Z</time>
      </trkpt>
      <trkpt lat="44.3544" lon="5.85579">
        <ele>645</ele>
        <time>2019-06-15T07:14:13Z</time>
      </trkpt>
      <trkpt lat="44.35444" lon="5.85583">
        <ele>645</ele>
        <time>2019-06-15T07:14:14Z</time>
      </trkpt>
      <trkpt lat="44.35448" lon="5.85588">
        <ele>645</ele>
        <time>2019-06-15T07:14:15Z</time>
      </trkpt>
      <trkpt lat="44.35452" lon="5.85592">
        <ele>645</ele>
        <time>2019-06-15T07:14:16Z</time>
      </trkpt>
      <trkpt lat="44.35456" lon="5.85597">
        <ele>646</ele>
        <time>2019-06-15T07:14:17Z</time>
      </trkpt>
      <trkpt lat="44.3546" lon="5.85601">
        <ele>646</ele>
        <time>2019-06-15T07:14:18Z</time>
      </trkpt>
      <trkpt lat="44.35463" lon="5.85605">
        <ele>646</ele>
        <time>2019-06-15T07:14:19Z</time>
      </trkpt>
      <trkpt lat="44.35467" lon="5.8561">
        <ele>646</ele>
        <time>2019-06-15T07:14:20Z</time>
      </trkpt>
      <trkpt lat="44.35471" lon="5.85614">
        <ele>647</ele>
        <time>2019-06-15T07:14:21Z</time>
      </trkpt>
      <trkpt lat="44.35475" lon="5.85618">
        <ele>647</ele>
        <time>2019-06-15T07:14:22Z</time>
      </trkpt>
      <trkpt lat="44.35479" lon="5.85623">
        <ele>647</ele>
        <time>2019-06-15T07:14:23Z</time>
      </trkpt>
      <trkpt lat="44.35483" lon="5.85627">
        <ele>647</ele>
        <time>2019-06-15T07:14:24Z</time>
      </trkpt>
      <trkpt lat="44.35487" lon="5.85631">
        <ele>647</ele>
        <time>2019-06-15T07:14:25Z</time>
      </trkpt>
      <trkpt lat="44.35491" lon="5.85636">
        <ele>647</ele>
        <time>2019-06-15T07:14:26Z</time>
      </trkpt>
      <trkpt lat="44.35495" lon="5.8564">
        <ele>648</ele>
        <time>2019-06-15T07:14:27Z</time>
      </trkpt>
      <trkpt lat="44.35499" lon="5.85644">
        <ele>648</ele>
        <time>2019-06-15T07:14:28Z</time>
      </trkpt>
      <trkpt lat="44.35503" lon="5.85648">
        <ele>648</ele>
        <time>2019-06-15T07:14:29Z</time>
      </trkpt>
      <trkpt lat="44.35507" lon="5.85653">
        <ele>648</ele>
        <time>2019-06-15T07:14:30Z</time>
      </trkpt>
      <trkpt lat="44.35511" lon="5.85657">
        <ele>648</ele>
        <time>2019-06-15T07:14:31Z</time>
      </trkpt>
      <trkpt lat="44.35515" lon="5.85662">
        <ele>649</ele>
        <time>2019-06-15T07:14:32Z</time>
      </trkpt>
      <trkpt lat="44.35519" lon="5.85666">
        <ele>649</ele>
        <time>2019-06-15T07:14:33Z</time>
      </trkpt>
      <trkpt lat="44.35523" lon="5.85671">
        <ele>649</ele>
        <time>2019-06-15T07:14:34Z</time>
      </trkpt>
      <trkpt lat="44.35527" lon="5.85675">
        <ele>649</ele>
        <time>2019-06-15T07:14:35Z</time>
      </trkpt>
      <trkpt lat="44.35531" lon="5.8568">
        <ele>649</ele>
        <time>2019-06-15T07:14:36Z</time>
      </trkpt>
      <trkpt lat="44.35535" lon="5.85684">
        <ele>649</ele>
        <time>2019-06-15T07:14:37Z</time>
      </trkpt>
      <trkpt lat="44.35539" lon="5.85689">
        <ele>650</ele>
        <time>2019-06-15T07:14:38Z</time>
      </trkpt>
      <trkpt lat="44.35543" lon="5.85693">
        <ele>650</ele>
        <time>2019-06-15T07:14:39Z</time>
      </trkpt>
      <trkpt lat="44.35547" lon="5.85698">
        <ele>650</ele>
        <time>2019-06-15T07:14:40Z</time>
      </trkpt>
      <trkpt lat="44.35551" lon="5.85702">
        <ele>650</ele>
        <time>2019-06-15T07:14:42Z</time>
      </trkpt>
      <trkpt lat="44.35555" lon="5.85706">
        <ele>650</ele>
        <time>2019-06-15T07:14:42Z</time>
      </trkpt>
      <trkpt lat="44.35559" lon="5.8571">
        <ele>650</ele>
        <time>2019-06-15T07:14:43Z</time>
      </trkpt>
      <trkpt lat="44.35563" lon="5.85715">
        <ele>650</ele>
        <time>2019-06-15T07:14:44Z</time>
      </trkpt>
      <trkpt lat="44.35567" lon="5.85719">
        <ele>651</ele>
        <time>2019-06-15T07:14:45Z</time>
      </trkpt>
      <trkpt lat="44.35571" lon="5.85723">
        <ele>651</ele>
        <time>2019-06-15T07:14:46Z</time>
      </trkpt>
      <trkpt lat="44.35574" lon="5.85727">
        <ele>651</ele>
        <time>2019-06-15T07:14:47Z</time>
      </trkpt>
      <trkpt lat="44.35578" lon="5.85732">
        <ele>651</ele>
        <time>2019-06-15T07:14:48Z</time>
      </trkpt>
      <trkpt lat="44.35582" lon="5.85736">
        <ele>651</ele>
        <time>2019-06-15T07:14:49Z</time>
      </trkpt>
      <trkpt lat="44.35586" lon="5.8574">
        <ele>652</ele>
        <time>2019-06-15T07:14:50Z</time>
      </trkpt>
      <trkpt lat="44.3559" lon="5.85744">
        <ele>652</ele>
        <time>2019-06-15T07:14:51Z</time>
      </trkpt>
      <trkpt lat="44.35593" lon="5.85748">
        <ele>652</ele>
        <time>2019-06-15T07:14:52Z</time>
      </trkpt>
      <trkpt lat="44.35597" lon="5.85752">
        <ele>652</ele>
        <time>2019-06-15T07:14:53Z</time>
      </trkpt>
      <trkpt lat="44.356" lon="5.85757">
        <ele>653</ele>
        <time>2019-06-15T07:14:54Z</time>
      </trkpt>
      <trkpt lat="44.35603" lon="5.85761">
        <ele>653</ele>
        <time>2019-06-15T07:14:55Z</time>
      </trkpt>
      <trkpt lat="44.35607" lon="5.85766">
        <ele>653</ele>
        <time>2019-06-15T07:14:56Z</time>
      </trkpt>
      <trkpt lat="44.3561" lon="5.8577">
        <ele>653</ele>
        <time>2019-06-15T07:14:57Z</time>
      </trkpt>
      <trkpt lat="44.35614" lon="5.85774">
        <ele>654</ele>
        <time>2019-06-15T07:14:58Z</time>
      </trkpt>
      <trkpt lat="44.35617" lon="5.85779">
        <ele>654</ele>
        <time>2019-06-15T07:14:59Z</time>
      </trkpt>
      <trkpt lat="44.3562" lon="5.85783">
        <ele>654</ele>
        <time>2019-06-15T07:15:00Z</time>
      </trkpt>
      <trkpt lat="44.35624" lon="5.85788">
        <ele>654</ele>
        <time>2019-06-15T07:15:01Z</time>
      </trkpt>
      <trkpt lat="44.35627" lon="5.85793">
        <ele>654</ele>
        <time>2019-06-15T07:15:02Z</time>
      </trkpt>
      <trkpt lat="44.3563" lon="5.85798">
        <ele>655</ele>
        <time>2019-06-15T07:15:03Z</time>
      </trkpt>
      <trkpt lat="44.35634" lon="5.85803">
        <ele>655</ele>
        <time>2019-06-15T07:15:04Z</time>
      </trkpt>
      <trkpt lat="44.35637" lon="5.85809">
        <ele>655</ele>
        <time>2019-06-15T07:15:05Z</time>
      </trkpt>
      <trkpt lat="44.3564" lon="5.85814">
        <ele>655</ele>
        <time>2019-06-15T07:15:06Z</time>
      </trkpt>
      <trkpt lat="44.35644" lon="5.85819">
        <ele>655</ele>
        <time>2019-06-15T07:15:07Z</time>
      </trkpt>
      <trkpt lat="44.35647" lon="5.85824">
        <ele>655</ele>
        <time>2019-06-15T07:15:08Z</time>
      </trkpt>
      <trkpt lat="44.35651" lon="5.85829">
        <ele>655</ele>
        <time>2019-06-15T07:15:09Z</time>
      </trkpt>
      <trkpt lat="44.35654" lon="5.85835">
        <ele>655</ele>
        <time>2019-06-15T07:15:10Z</time>
      </trkpt>
      <trkpt lat="44.35657" lon="5.8584">
        <ele>656</ele>
        <time>2019-06-15T07:15:11Z</time>
      </trkpt>
      <trkpt lat="44.3566" lon="5.85845">
        <ele>656</ele>
        <time>2019-06-15T07:15:12Z</time>
      </trkpt>
      <trkpt lat="44.35663" lon="5.8585">
        <ele>656</ele>
        <time>2019-06-15T07:15:13Z</time>
      </trkpt>
      <trkpt lat="44.35666" lon="5.85855">
        <ele>656</ele>
        <time>2019-06-15T07:15:14Z</time>
      </trkpt>
      <trkpt lat="44.35669" lon="5.8586">
        <ele>656</ele>
        <time>2019-06-15T07:15:15Z</time>
      </trkpt>
      <trkpt lat="44.35672" lon="5.85865">
        <ele>656</ele>
        <time>2019-06-15T07:15:16Z</time>
      </trkpt>
      <trkpt lat="44.35675" lon="5.85871">
        <ele>657</ele>
        <time>2019-06-15T07:15:17Z</time>
      </trkpt>
      <trkpt lat="44.35679" lon="5.85876">
        <ele>657</ele>
        <time>2019-06-15T07:15:18Z</time>
      </trkpt>
      <trkpt lat="44.35682" lon="5.85881">
        <ele>657</ele>
        <time>2019-06-15T07:15:19Z</time>
      </trkpt>
      <trkpt lat="44.35685" lon="5.85885">
        <ele>657</ele>
        <time>2019-06-15T07:15:20Z</time>
      </trkpt>
      <trkpt lat="44.35688" lon="5.85891">
        <ele>658</ele>
        <time>2019-06-15T07:15:21Z</time>
      </trkpt>
      <trkpt lat="44.35691" lon="5.85896">
        <ele>658</ele>
        <time>2019-06-15T07:15:22Z</time>
      </trkpt>
      <trkpt lat="44.35694" lon="5.85901">
        <ele>658</ele>
        <time>2019-06-15T07:15:23Z</time>
      </trkpt>
      <trkpt lat="44.35698" lon="5.85907">
        <ele>658</ele>
        <time>2019-06-15T07:15:24Z</time>
      </trkpt>
      <trkpt lat="44.35701" lon="5.85912">
        <ele>658</ele>
        <time>2019-06-15T07:15:25Z</time>
      </trkpt>
      <trkpt lat="44.35704" lon="5.85917">
        <ele>659</ele>
        <time>2019-06-15T07:15:26Z</time>
      </trkpt>
      <trkpt lat="44.35707" lon="5.85922">
        <ele>659</ele>
        <time>2019-06-15T07:15:27Z</time>
      </trkpt>
      <trkpt lat="44.3571" lon="5.85927">
        <ele>659</ele>
        <time>2019-06-15T07:15:28Z</time>
      </trkpt>
      <trkpt lat="44.35714" lon="5.85932">
        <ele>659</ele>
        <time>2019-06-15T07:15:29Z</time>
      </trkpt>
      <trkpt lat="44.35717" lon="5.85937">
        <ele>660</ele>
        <time>2019-06-15T07:15:30Z</time>
      </trkpt>
      <trkpt lat="44.3572" lon="5.85942">
        <ele>660</ele>
        <time>2019-06-15T07:15:31Z</time>
      </trkpt>
      <trkpt lat="44.35723" lon="5.85947">
        <ele>660</ele>
        <time>2019-06-15T07:15:32Z</time>
      </trkpt>
      <trkpt lat="44.35726" lon="5.85952">
        <ele>660</ele>
        <time>2019-06-15T07:15:33Z</time>
      </trkpt>
      <trkpt lat="44.35729" lon="5.85957">
        <ele>660</ele>
        <time>2019-06-15T07:15:34Z</time>
      </trkpt>
      <trkpt lat="44.35732" lon="5.85963">
        <ele>660</ele>
        <time>2019-06-15T07:15:35Z</time>
      </trkpt>
      <trkpt lat="44.35735" lon="5.85968">
        <ele>661</ele>
        <time>2019-06-15T07:15:36Z</time>
      </trkpt>
      <trkpt lat="44.35738" lon="5.85973">
        <ele>661</ele>
        <time>2019-06-15T07:15:37Z</time>
      </trkpt>
      <trkpt lat="44.35741" lon="5.85978">
        <ele>661</ele>
        <time>2019-06-15T07:15:38Z</time>
      </trkpt>
      <trkpt lat="44.35745" lon="5.85983">
        <ele>662</ele>
        <time>2019-06-15T07:15:39Z</time>
      </trkpt>
      <trkpt lat="44.35748" lon="5.85988">
        <ele>662</ele>
        <time>2019-06-15T07:15:40Z</time>
      </trkpt>
      <trkpt lat="44.35751" lon="5.85993">
        <ele>662</ele>
        <time>2019-06-15T07:15:42Z</time>
      </trkpt>
      <trkpt lat="44.35754" lon="5.85998">
        <ele>663</ele>
        <time>2019-06-15T07:15:42Z</time>
      </trkpt>
      <trkpt lat="44.35757" lon="5.86004">
        <ele>663</ele>
        <time>2019-06-15T07:15:43Z</time>
      </trkpt>
      <trkpt lat="44.3576" lon="5.86009">
        <ele>663</ele>
        <time>2019-06-15T07:15:44Z</time>
      </trkpt>
      <trkpt lat="44.35764" lon="5.86015">
        <ele>663</ele>
        <time>2019-06-15T07:15:45Z</time>
      </trkpt>
      <trkpt lat="44.35767" lon="5.86021">
        <ele>663</ele>
        <time>2019-06-15T07:15:46Z</time>
      </trkpt>
      <trkpt lat="44.3577" lon="5.86027">
        <ele>664</ele>
        <time>2019-06-15T07:15:47Z</time>
      </trkpt>
      <trkpt lat="44.35772" lon="5.86033">
        <ele>664</ele>
        <time>2019-06-15T07:15:48Z</time>
      </trkpt>
      <trkpt lat="44.35775" lon="5.86039">
        <ele>664</ele>
        <time>2019-06-15T07:15:49Z</time>
      </trkpt>
      <trkpt lat="44.35778" lon="5.86045">
        <ele>664</ele>
        <time>2019-06-15T07:15:50Z</time>
      </trkpt>
      <trkpt lat="44.3578" lon="5.86052">
        <ele>664</ele>
        <time>2019-06-15T07:15:51Z</time>
      </trkpt>
      <trkpt lat="44.35782" lon="5.86059">
        <ele>665</ele>
        <time>2019-06-15T07:15:52Z</time>
      </trkpt>
      <trkpt lat="44.35784" lon="5.86066">
        <ele>665</ele>
        <time>2019-06-15T07:15:53Z</time>
      </trkpt>
      <trkpt lat="44.35786" lon="5.86073">
        <ele>665</ele>
        <time>2019-06-15T07:15:54Z</time>
      </trkpt>
      <trkpt lat="44.35788" lon="5.8608">
        <ele>665</ele>
        <time>2019-06-15T07:15:55Z</time>
      </trkpt>
      <trkpt lat="44.3579" lon="5.86088">
        <ele>665</ele>
        <time>2019-06-15T07:15:56Z</time>
      </trkpt>
      <trkpt lat="44.35791" lon="5.86095">
        <ele>665</ele>
        <time>2019-06-15T07:15:57Z</time>
      </trkpt>
      <trkpt lat="44.35793" lon="5.86102">
        <ele>665</ele>
        <time>2019-06-15T07:15:58Z</time>
      </trkpt>
      <trkpt lat="44.35795" lon="5.8611">
        <ele>665</ele>
        <time>2019-06-15T07:15:59Z</time>
      </trkpt>
      <trkpt lat="44.35796" lon="5.86118">
        <ele>665</ele>
        <time>2019-06-15T07:16:00Z</time>
      </trkpt>
      <trkpt lat="44.35798" lon="5.86125">
        <ele>665</ele>
        <time>2019-06-15T07:16:01Z</time>
      </trkpt>
      <trkpt lat="44.35799" lon="5.86133">
        <ele>665</ele>
        <time>2019-06-15T07:16:02Z</time>
      </trkpt>
      <trkpt lat="44.358" lon="5.8614">
        <ele>665</ele>
        <time>2019-06-15T07:16:03Z</time>
      </trkpt>
      <trkpt lat="44.35802" lon="5.86148">
        <ele>665</ele>
        <time>2019-06-15T07:16:04Z</time>
      </trkpt>
      <trkpt lat="44.35803" lon="5.86156">
        <ele>665</ele>
        <time>2019-06-15T07:16:05Z</time>
      </trkpt>
      <trkpt lat="44.35805" lon="5.86163">
        <ele>665</ele>
        <time>2019-06-15T07:16:06Z</time>
      </trkpt>
      <trkpt lat="44.35806" lon="5.86171">
        <ele>665</ele>
        <time>2019-06-15T07:16:07Z</time>
      </trkpt>
      <trkpt lat="44.35808" lon="5.86178">
        <ele>665</ele>
        <time>2019-06-15T07:16:08Z</time>
      </trkpt>
      <trkpt lat="44.3581" lon="5.86186">
        <ele>665</ele>
        <time>2019-06-15T07:16:09Z</time>
      </trkpt>
      <trkpt lat="44.35812" lon="5.86193">
        <ele>665</ele>
        <time>2019-06-15T07:16:10Z</time>
      </trkpt>
      <trkpt lat="44.35813" lon="5.862">
        <ele>665</ele>
        <time>2019-06-15T07:16:11Z</time>
      </trkpt>
      <trkpt lat="44.35815" lon="5.86207">
        <ele>665</ele>
        <time>2019-06-15T07:16:12Z</time>
      </trkpt>
      <trkpt lat="44.35817" lon="5.86214">
        <ele>665</ele>
        <time>2019-06-15T07:16:13Z</time>
      </trkpt>
      <trkpt lat="44.35819" lon="5.86221">
        <ele>665</ele>
        <time>2019-06-15T07:16:14Z</time>
      </trkpt>
      <trkpt lat="44.35822" lon="5.86228">
        <ele>665</ele>
        <time>2019-06-15T07:16:15Z</time>
      </trkpt>
      <trkpt lat="44.35824" lon="5.86235">
        <ele>665</ele>
        <time>2019-06-15T07:16:16Z</time>
      </trkpt>
      <trkpt lat="44.35827" lon="5.86242">
        <ele>665</ele>
        <time>2019-06-15T07:16:17Z</time>
      </trkpt>
      <trkpt lat="44.3583" lon="5.86249">
        <ele>665</ele>
        <time>2019-06-15T07:16:18Z</time>
      </trkpt>
      <trkpt lat="44.35832" lon="5.86256">
        <ele>665</ele>
        <time>2019-06-15T07:16:19Z</time>
      </trkpt>
      <trkpt lat="44.35835" lon="5.86263">
        <ele>665</ele>
        <time>2019-06-15T07:16:20Z</time>
      </trkpt>
      <trkpt lat="44.35838" lon="5.86269">
        <ele>665</ele>
        <time>2019-06-15T07:16:21Z</time>
      </trkpt>
      <trkpt lat="44.35842" lon="5.86276">
        <ele>665</ele>
        <time>2019-06-15T07:16:22Z</time>
      </trkpt>
      <trkpt lat="44.35845" lon="5.86282">
        <ele>665</ele>
        <time>2019-06-15T07:16:23Z</time>
      </trkpt>
      <trkpt lat="44.35848" lon="5.86288">
        <ele>665</ele>
        <time>2019-06-15T07:16:24Z</time>
      </trkpt>
      <trkpt lat="44.35852" lon="5.86295">
        <ele>665</ele>
        <time>2019-06-15T07:16:25Z</time>
      </trkpt>
      <trkpt lat="44.35855" lon="5.86301">
        <ele>665</ele>
        <time>2019-06-15T07:16:26Z</time>
      </trkpt>
      <trkpt lat="44.35858" lon="5.86308">
        <ele>665</ele>
        <time>2019-06-15T07:16:27Z</time>
      </trkpt>
      <trkpt lat="44.3586" lon="5.86314">
        <ele>665</ele>
        <time>2019-06-15T07:16:28Z</time>
      </trkpt>
      <trkpt lat="44.35863" lon="5.8632">
        <ele>665</ele>
        <time>2019-06-15T07:16:29Z</time>
      </trkpt>
      <trkpt lat="44.35865" lon="5.86327">
        <ele>665</ele>
        <time>2019-06-15T07:16:30Z</time>
      </trkpt>
      <trkpt lat="44.35867" lon="5.86334">
        <ele>665</ele>
        <time>2019-06-15T07:16:31Z</time>
      </trkpt>
      <trkpt lat="44.3587" lon="5.86341">
        <ele>665</ele>
        <time>2019-06-15T07:16:32Z</time>
      </trkpt>
      <trkpt lat="44.35872" lon="5.86348">
        <ele>665</ele>
        <time>2019-06-15T07:16:33Z</time>
      </trkpt>
      <trkpt lat="44.35874" lon="5.86355">
        <ele>665</ele>
        <time>2019-06-15T07:16:34Z</time>
      </trkpt>
      <trkpt lat="44.35876" lon="5.86363">
        <ele>665</ele>
        <time>2019-06-15T07:16:35Z</time>
      </trkpt>
      <trkpt lat="44.35878" lon="5.8637">
        <ele>665</ele>
        <time>2019-06-15T07:16:36Z</time>
      </trkpt>
      <trkpt lat="44.3588" lon="5.86377">
        <ele>665</ele>
        <time>2019-06-15T07:16:37Z</time>
      </trkpt>
      <trkpt lat="44.35881" lon="5.86385">
        <ele>665</ele>
        <time>2019-06-15T07:16:38Z</time>
      </trkpt>
      <trkpt lat="44.35883" lon="5.86393">
        <ele>665</ele>
        <time>2019-06-15T07:16:39Z</time>
      </trkpt>
      <trkpt lat="44.35884" lon="5.86401">
        <ele>665</ele>
        <time>2019-06-15T07:16:40Z</time>
      </trkpt>
      <trkpt lat="44.35886" lon="5.86408">
        <ele>665</ele>
        <time>2019-06-15T07:16:42Z</time>
      </trkpt>
      <trkpt lat="44.35888" lon="5.86416">
        <ele>665</ele>
        <time>2019-06-15T07:16:42Z</time>
      </trkpt>
      <trkpt lat="44.3589" lon="5.86424">
        <ele>665</ele>
        <time>2019-06-15T07:16:43Z</time>
      </trkpt>
      <trkpt lat="44.35892" lon="5.86432">
        <ele>665</ele>
        <time>2019-06-15T07:16:44Z</time>
      </trkpt>
      <trkpt lat="44.35893" lon="5.86441">
        <ele>665</ele>
        <time>2019-06-15T07:16:45Z</time>
      </trkpt>
      <trkpt lat="44.35895" lon="5.86449">
        <ele>665</ele>
        <time>2019-06-15T07:16:46Z</time>
      </trkpt>
      <trkpt lat="44.35897" lon="5.86457">
        <ele>665</ele>
        <time>2019-06-15T07:16:47Z</time>
      </trkpt>
      <trkpt lat="44.35899" lon="5.86466">
        <ele>665</ele>
        <time>2019-06-15T07:16:48Z</time>
      </trkpt>
      <trkpt lat="44.35901" lon="5.86474">
        <ele>665</ele>
        <time>2019-06-15T07:16:49Z</time>
      </trkpt>
      <trkpt lat="44.35903" lon="5.86483">
        <ele>665</ele>
        <time>2019-06-15T07:16:50Z</time>
      </trkpt>
      <trkpt lat="44.35905" lon="5.86492">
        <ele>665</ele>
        <time>2019-06-15T07:16:51Z</time>
      </trkpt>
      <trkpt lat="44.35907" lon="5.86501">
        <ele>665</ele>
        <time>2019-06-15T07:16:52Z</time>
      </trkpt>
      <trkpt lat="44.35909" lon="5.8651">
        <ele>665</ele>
        <time>2019-06-15T07:16:53Z</time>
      </trkpt>
      <trkpt lat="44.35911" lon="5.86519">
        <ele>665</ele>
        <time>2019-06-15T07:16:54Z</time>
      </trkpt>
      <trkpt lat="44.35913" lon="5.86528">
        <ele>665</ele>
        <time>2019-06-15T07:16:55Z</time>
      </trkpt>
      <trkpt lat="44.35915" lon="5.86538">
        <ele>665</ele>
        <time>2019-06-15T07:16:56Z</time>
      </trkpt>
      <trkpt lat="44.35917" lon="5.86547">
        <ele>665</ele>
        <time>2019-06-15T07:16:57Z</time>
      </trkpt>
      <trkpt lat="44.35919" lon="5.86556">
        <ele>665</ele>
        <time>2019-06-15T07:16:58Z</time>
      </trkpt>
      <trkpt lat="44.35921" lon="5.86565">
        <ele>665</ele>
        <time>2019-06-15T07:16:59Z</time>
      </trkpt>
      <trkpt lat="44.35923" lon="5.86575">
        <ele>665</ele>
        <time>2019-06-15T07:17:00Z</time>
      </trkpt>
      <trkpt lat="44.35925" lon="5.86584">
        <ele>665</ele>
        <time>2019-06-15T07:17:01Z</time>
      </trkpt>
      <trkpt lat="44.35927" lon="5.86593">
        <ele>665</ele>
        <time>2019-06-15T07:17:02Z</time>
      </trkpt>
      <trkpt lat="44.35929" lon="5.86602">
        <ele>665</ele>
        <time>2019-06-15T07:17:03Z</time>
      </trkpt>
      <trkpt lat="44.35931" lon="5.86611">
        <ele>665</ele>
        <time>2019-06-15T07:17:04Z</time>
      </trkpt>
      <trkpt lat="44.35933" lon="5.86621">
        <ele>665</ele>
        <time>2019-06-15T07:17:05Z</time>
      </trkpt>
      <trkpt lat="44.35935" lon="5.8663">
        <ele>665</ele>
        <time>2019-06-15T07:17:06Z</time>
      </trkpt>
      <trkpt lat="44.35937" lon="5.8664">
        <ele>665</ele>
        <time>2019-06-15T07:17:07Z</time>
      </trkpt>
      <trkpt lat="44.35939" lon="5.8665">
        <ele>665</ele>
        <time>2019-06-15T07:17:08Z</time>
      </trkpt>
      <trkpt lat="44.35941" lon="5.86659">
        <ele>665</ele>
        <time>2019-06-15T07:17:09Z</time>
      </trkpt>
      <trkpt lat="44.35944" lon="5.86669">
        <ele>665</ele>
        <time>2019-06-15T07:17:10Z</time>
      </trkpt>
      <trkpt lat="44.35947" lon="5.86678">
        <ele>665</ele>
        <time>2019-06-15T07:17:11Z</time>
      </trkpt>
      <trkpt lat="44.3595" lon="5.86687">
        <ele>665</ele>
        <time>2019-06-15T07:17:12Z</time>
      </trkpt>
      <trkpt lat="44.35953" lon="5.86696">
        <ele>665</ele>
        <time>2019-06-15T07:17:13Z</time>
      </trkpt>
      <trkpt lat="44.35957" lon="5.86706">
        <ele>665</ele>
        <time>2019-06-15T07:17:14Z</time>
      </trkpt>
      <trkpt lat="44.3596" lon="5.86715">
        <ele>665</ele>
        <time>2019-06-15T07:17:15Z</time>
      </trkpt>
      <trkpt lat="44.35964" lon="5.86724">
        <ele>665</ele>
        <time>2019-06-15T07:17:16Z</time>
      </trkpt>
      <trkpt lat="44.35968" lon="5.86732">
        <ele>665</ele>
        <time>2019-06-15T07:17:17Z</time>
      </trkpt>
      <trkpt lat="44.35972" lon="5.86741">
        <ele>665</ele>
        <time>2019-06-15T07:17:18Z</time>
      </trkpt>
      <trkpt lat="44.35976" lon="5.8675">
        <ele>665</ele>
        <time>2019-06-15T07:17:19Z</time>
      </trkpt>
      <trkpt lat="44.35981" lon="5.86759">
        <ele>665</ele>
        <time>2019-06-15T07:17:20Z</time>
      </trkpt>
      <trkpt lat="44.35985" lon="5.86769">
        <ele>665</ele>
        <time>2019-06-15T07:17:21Z</time>
      </trkpt>
      <trkpt lat="44.3599" lon="5.86778">
        <ele>665</ele>
        <time>2019-06-15T07:17:22Z</time>
      </trkpt>
      <trkpt lat="44.35994" lon="5.86788">
        <ele>665</ele>
        <time>2019-06-15T07:17:23Z</time>
      </trkpt>
      <trkpt lat="44.35999" lon="5.86798">
        <ele>665</ele>
        <time>2019-06-15T07:17:24Z</time>
      </trkpt>
      <trkpt lat="44.36003" lon="5.86808">
        <ele>665</ele>
        <time>2019-06-15T07:17:25Z</time>
      </trkpt>
      <trkpt lat="44.36008" lon="5.86819">
        <ele>665</ele>
        <time>2019-06-15T07:17:26Z</time>
      </trkpt>
      <trkpt lat="44.36013" lon="5.86829">
        <ele>665</ele>
        <time>2019-06-15T07:17:27Z</time>
      </trkpt>
      <trkpt lat="44.36018" lon="5.86839">
        <ele>665</ele>
        <time>2019-06-15T07:17:28Z</time>
      </trkpt>
      <trkpt lat="44.36023" lon="5.8685">
        <ele>664</ele>
        <time>2019-06-15T07:17:29Z</time>
      </trkpt>
      <trkpt lat="44.36029" lon="5.86861">
        <ele>664</ele>
        <time>2019-06-15T07:17:30Z</time>
      </trkpt>
      <trkpt lat="44.36034" lon="5.86872">
        <ele>663</ele>
        <time>2019-06-15T07:17:31Z</time>
      </trkpt>
      <trkpt lat="44.36039" lon="5.86883">
        <ele>663</ele>
        <time>2019-06-15T07:17:32Z</time>
      </trkpt>
      <trkpt lat="44.36044" lon="5.86894">
        <ele>663</ele>
        <time>2019-06-15T07:17:33Z</time>
      </trkpt>
      <trkpt lat="44.3605" lon="5.86905">
        <ele>662</ele>
        <time>2019-06-15T07:17:34Z</time>
      </trkpt>
      <trkpt lat="44.36055" lon="5.86916">
        <ele>662</ele>
        <time>2019-06-15T07:17:35Z</time>
      </trkpt>
      <trkpt lat="44.3606" lon="5.86927">
        <ele>661</ele>
        <time>2019-06-15T07:17:36Z</time>
      </trkpt>
      <trkpt lat="44.36066" lon="5.86938">
        <ele>661</ele>
        <time>2019-06-15T07:17:37Z</time>
      </trkpt>
      <trkpt lat="44.36071" lon="5.86949">
        <ele>660</ele>
        <time>2019-06-15T07:17:38Z</time>
      </trkpt>
      <trkpt lat="44.36076" lon="5.86961">
        <ele>660</ele>
        <time>2019-06-15T07:17:39Z</time>
      </trkpt>
      <trkpt lat="44.36081" lon="5.86972">
        <ele>659</ele>
        <time>2019-06-15T07:17:40Z</time>
      </trkpt>
      <trkpt lat="44.36087" lon="5.86984">
        <ele>659</ele>
        <time>2019-06-15T07:17:41Z</time>
      </trkpt>
      <trkpt lat="44.36092" lon="5.86996">
        <ele>658</ele>
        <time>2019-06-15T07:17:42Z</time>
      </trkpt>
      <trkpt lat="44.36096" lon="5.87009">
        <ele>657</ele>
        <time>2019-06-15T07:17:43Z</time>
      </trkpt>
      <trkpt lat="44.361" lon="5.87022">
        <ele>657</ele>
        <time>2019-06-15T07:17:44Z</time>
      </trkpt>
      <trkpt lat="44.36104" lon="5.87036">
        <ele>656</ele>
        <time>2019-06-15T07:17:45Z</time>
      </trkpt>
      <trkpt lat="44.36108" lon="5.8705">
        <ele>655</ele>
        <time>2019-06-15T07:17:46Z</time>
      </trkpt>
      <trkpt lat="44.36111" lon="5.87065">
        <ele>654</ele>
        <time>2019-06-15T07:17:47Z</time>
      </trkpt>
      <trkpt lat="44.36113" lon="5.8708">
        <ele>654</ele>
        <time>2019-06-15T07:17:48Z</time>
      </trkpt>
      <trkpt lat="44.36116" lon="5.87095">
        <ele>653</ele>
        <time>2019-06-15T07:17:49Z</time>
      </trkpt>
      <trkpt lat="44.36118" lon="5.8711">
        <ele>652</ele>
        <time>2019-06-15T07:17:50Z</time>
      </trkpt>
      <trkpt lat="44.3612" lon="5.87125">
        <ele>651</ele>
        <time>2019-06-15T07:17:51Z</time>
      </trkpt>
      <trkpt lat="44.36123" lon="5.8714">
        <ele>651</ele>
        <time>2019-06-15T07:17:52Z</time>
      </trkpt>
      <trkpt lat="44.36125" lon="5.87155">
        <ele>650</ele>
        <time>2019-06-15T07:17:53Z</time>
      </trkpt>
      <trkpt lat="44.36127" lon="5.87171">
        <ele>649</ele>
        <time>2019-06-15T07:17:54Z</time>
      </trkpt>
      <trkpt lat="44.36129" lon="5.87186">
        <ele>648</ele>
        <time>2019-06-15T07:17:55Z</time>
      </trkpt>
      <trkpt lat="44.36132" lon="5.87203">
        <ele>648</ele>
        <time>2019-06-15T07:17:56Z</time>
      </trkpt>
      <trkpt lat="44.36135" lon="5.87219">
        <ele>647</ele>
        <time>2019-06-15T07:17:57Z</time>
      </trkpt>
      <trkpt lat="44.36138" lon="5.87235">
        <ele>646</ele>
        <time>2019-06-15T07:17:58Z</time>
      </trkpt>
      <trkpt lat="44.36142" lon="5.87249">
        <ele>645</ele>
        <time>2019-06-15T07:17:59Z</time>
      </trkpt>
      <trkpt lat="44.36147" lon="5.87264">
        <ele>645</ele>
        <time>2019-06-15T07:18:00Z</time>
      </trkpt>
      <trkpt lat="44.36153" lon="5.87277">
        <ele>644</ele>
        <time>2019-06-15T07:18:01Z</time>
      </trkpt>
      <trkpt lat="44.3616" lon="5.87291">
        <ele>643</ele>
        <time>2019-06-15T07:18:02Z</time>
      </trkpt>
      <trkpt lat="44.36168" lon="5.87304">
        <ele>642</ele>
        <time>2019-06-15T07:18:03Z</time>
      </trkpt>
      <trkpt lat="44.36177" lon="5.87317">
        <ele>642</ele>
        <time>2019-06-15T07:18:04Z</time>
      </trkpt>
      <trkpt lat="44.36185" lon="5.8733">
        <ele>641</ele>
        <time>2019-06-15T07:18:05Z</time>
      </trkpt>
      <trkpt lat="44.36192" lon="5.87344">
        <ele>640</ele>
        <time>2019-06-15T07:18:06Z</time>
      </trkpt>
      <trkpt lat="44.36199" lon="5.87358">
        <ele>639</ele>
        <time>2019-06-15T07:18:07Z</time>
      </trkpt>
      <trkpt lat="44.36204" lon="5.87373">
        <ele>638</ele>
        <time>2019-06-15T07:18:08Z</time>
      </trkpt>
      <trkpt lat="44.36206" lon="5.8739">
        <ele>638</ele>
        <time>2019-06-15T07:18:09Z</time>
      </trkpt>
      <trkpt lat="44.36207" lon="5.87407">
        <ele>637</ele>
        <time>2019-06-15T07:18:10Z</time>
      </trkpt>
      <trkpt lat="44.36204" lon="5.87423">
        <ele>637</ele>
        <time>2019-06-15T07:18:11Z</time>
      </trkpt>
      <trkpt lat="44.362" lon="5.87437">
        <ele>636</ele>
        <time>2019-06-15T07:18:12Z</time>
      </trkpt>
      <trkpt lat="44.36197" lon="5.87451">
        <ele>636</ele>
        <time>2019-06-15T07:18:13Z</time>
      </trkpt>
      <trkpt lat="44.36194" lon="5.87465">
        <ele>636</ele>
        <time>2019-06-15T07:18:14Z</time>
      </trkpt>
      <trkpt lat="44.36193" lon="5.87479">
        <ele>636</ele>
        <time>2019-06-15T07:18:15Z</time>
      </trkpt>
      <trkpt lat="44.36193" lon="5.87494">
        <ele>635</ele>
        <time>2019-06-15T07:18:16Z</time>
      </trkpt>
      <trkpt lat="44.36193" lon="5.87509">
        <ele>635</ele>
        <time>2019-06-15T07:18:17Z</time>
      </trkpt>
      <trkpt lat="44.36195" lon="5.87524">
        <ele>634</ele>
        <time>2019-06-15T07:18:18Z</time>
      </trkpt>
      <trkpt lat="44.36196" lon="5.87539">
        <ele>634</ele>
        <time>2019-06-15T07:18:19Z</time>
      </trkpt>
      <trkpt lat="44.36197" lon="5.87554">
        <ele>634</ele>
        <time>2019-06-15T07:18:20Z</time>
      </trkpt>
      <trkpt lat="44.36199" lon="5.87568">
        <ele>633</ele>
        <time>2019-06-15T07:18:21Z</time>
      </trkpt>
      <trkpt lat="44.36202" lon="5.87582">
        <ele>633</ele>
        <time>2019-06-15T07:18:22Z</time>
      </trkpt>
      <trkpt lat="44.36205" lon="5.87596">
        <ele>633</ele>
        <time>2019-06-15T07:18:23Z</time>
      </trkpt>
      <trkpt lat="44.36209" lon="5.8761">
        <ele>633</ele>
        <time>2019-06-15T07:18:24Z</time>
      </trkpt>
      <trkpt lat="44.36213" lon="5.87624">
        <ele>632</ele>
        <time>2019-06-15T07:18:25Z</time>
      </trkpt>
      <trkpt lat="44.36216" lon="5.87638">
        <ele>632</ele>
        <time>2019-06-15T07:18:26Z</time>
      </trkpt>
      <trkpt lat="44.36219" lon="5.87653">
        <ele>632</ele>
        <time>2019-06-15T07:18:27Z</time>
      </trkpt>
      <trkpt lat="44.36219" lon="5.87668">
        <ele>631</ele>
        <time>2019-06-15T07:18:28Z</time>
      </trkpt>
      <trkpt lat="44.3622" lon="5.87684">
        <ele>630</ele>
        <time>2019-06-15T07:18:29Z</time>
      </trkpt>
      <trkpt lat="44.36221" lon="5.877">
        <ele>630</ele>
        <time>2019-06-15T07:18:30Z</time>
      </trkpt>
      <trkpt lat="44.3622" lon="5.87715">
        <ele>629</ele>
        <time>2019-06-15T07:18:31Z</time>
      </trkpt>
      <trkpt lat="44.3622" lon="5.87731">
        <ele>629</ele>
        <time>2019-06-15T07:18:32Z</time>
      </trkpt>
      <trkpt lat="44.36222" lon="5.87747">
        <ele>628</ele>
        <time>2019-06-15T07:18:33Z</time>
      </trkpt>
      <trkpt lat="44.36224" lon="5.87762">
        <ele>627</ele>
        <time>2019-06-15T07:18:34Z</time>
      </trkpt>
      <trkpt lat="44.36227" lon="5.87777">
        <ele>627</ele>
        <time>2019-06-15T07:18:35Z</time>
      </trkpt>
      <trkpt lat="44.3623" lon="5.87791">
        <ele>626</ele>
        <time>2019-06-15T07:18:36Z</time>
      </trkpt>
      <trkpt lat="44.36233" lon="5.87806">
        <ele>626</ele>
        <time>2019-06-15T07:18:37Z</time>
      </trkpt>
      <trkpt lat="44.36237" lon="5.87819">
        <ele>625</ele>
        <time>2019-06-15T07:18:38Z</time>
      </trkpt>
      <trkpt lat="44.3624" lon="5.87833">
        <ele>625</ele>
        <time>2019-06-15T07:18:39Z</time>
      </trkpt>
      <trkpt lat="44.36243" lon="5.87846">
        <ele>624</ele>
        <time>2019-06-15T07:18:40Z</time>
      </trkpt>
      <trkpt lat="44.36244" lon="5.8786">
        <ele>624</ele>
        <time>2019-06-15T07:18:42Z</time>
      </trkpt>
      <trkpt lat="44.36245" lon="5.87873">
        <ele>624</ele>
        <time>2019-06-15T07:18:42Z</time>
      </trkpt>
      <trkpt lat="44.36245" lon="5.87885">
        <ele>623</ele>
        <time>2019-06-15T07:18:43Z</time>
      </trkpt>
      <trkpt lat="44.36244" lon="5.87897">
        <ele>622</ele>
        <time>2019-06-15T07:18:44Z</time>
      </trkpt>
      <trkpt lat="44.36243" lon="5.87909">
        <ele>622</ele>
        <time>2019-06-15T07:18:45Z</time>
      </trkpt>
      <trkpt lat="44.36242" lon="5.87921">
        <ele>621</ele>
        <time>2019-06-15T07:18:46Z</time>
      </trkpt>
      <trkpt lat="44.36241" lon="5.87932">
        <ele>620</ele>
        <time>2019-06-15T07:18:47Z</time>
      </trkpt>
      <trkpt lat="44.3624" lon="5.87944">
        <ele>620</ele>
        <time>2019-06-15T07:18:48Z</time>
      </trkpt>
      <trkpt lat="44.3624" lon="5.87956">
        <ele>619</ele>
        <time>2019-06-15T07:18:49Z</time>
      </trkpt>
      <trkpt lat="44.36241" lon="5.8797">
        <ele>619</ele>
        <time>2019-06-15T07:18:50Z</time>
      </trkpt>
      <trkpt lat="44.36243" lon="5.87983">
        <ele>618</ele>
        <time>2019-06-15T07:18:51Z</time>
      </trkpt>
      <trkpt lat="44.36246" lon="5.87997">
        <ele>618</ele>
        <time>2019-06-15T07:18:52Z</time>
      </trkpt>
      <trkpt lat="44.3625" lon="5.8801">
        <ele>618</ele>
        <time>2019-06-15T07:18:53Z</time>
      </trkpt>
      <trkpt lat="44.36255" lon="5.88023">
        <ele>617</ele>
        <time>2019-06-15T07:18:54Z</time>
      </trkpt>
      <trkpt lat="44.36259" lon="5.88036">
        <ele>617</ele>
        <time>2019-06-15T07:18:55Z</time>
      </trkpt>
      <trkpt lat="44.36264" lon="5.8805">
        <ele>617</ele>
        <time>2019-06-15T07:18:56Z</time>
      </trkpt>
      <trkpt lat="44.36268" lon="5.88064">
        <ele>616</ele>
        <time>2019-06-15T07:18:57Z</time>
      </trkpt>
      <trkpt lat="44.36272" lon="5.88077">
        <ele>616</ele>
        <time>2019-06-15T07:18:58Z</time>
      </trkpt>
      <trkpt lat="44.36275" lon="5.88091">
        <ele>616</ele>
        <time>2019-06-15T07:18:59Z</time>
      </trkpt>
      <trkpt lat="44.36279" lon="5.88103">
        <ele>616</ele>
        <time>2019-06-15T07:19:00Z</time>
      </trkpt>
      <trkpt lat="44.36283" lon="5.88116">
        <ele>616</ele>
        <time>2019-06-15T07:19:01Z</time>
      </trkpt>
      <trkpt lat="44.36286" lon="5.88128">
        <ele>616</ele>
        <time>2019-06-15T07:19:02Z</time>
      </trkpt>
      <trkpt lat="44.36289" lon="5.88139">
        <ele>616</ele>
        <time>2019-06-15T07:19:03Z</time>
      </trkpt>
      <trkpt lat="44.36291" lon="5.8815">
        <ele>616</ele>
        <time>2019-06-15T07:19:04Z</time>
      </trkpt>
      <trkpt lat="44.36294" lon="5.88161">
        <ele>616</ele>
        <time>2019-06-15T07:19:05Z</time>
      </trkpt>
      <trkpt lat="44.36297" lon="5.88171">
        <ele>616</ele>
        <time>2019-06-15T07:19:06Z</time>
      </trkpt>
      <trkpt lat="44.363" lon="5.88181">
        <ele>616</ele>
        <time>2019-06-15T07:19:07Z</time>
      </trkpt>
      <trkpt lat="44.36303" lon="5.88192">
        <ele>616</ele>
        <time>2019-06-15T07:19:08Z</time>
      </trkpt>
      <trkpt lat="44.36305" lon="5.88202">
        <ele>616</ele>
        <time>2019-06-15T07:19:10Z</time>
      </trkpt>
      <trkpt lat="44.36308" lon="5.88213">
        <ele>616</ele>
        <time>2019-06-15T07:19:10Z</time>
      </trkpt>
      <trkpt lat="44.3631" lon="5.88225">
        <ele>616</ele>
        <time>2019-06-15T07:19:11Z</time>
      </trkpt>
      <trkpt lat="44.36312" lon="5.88236">
        <ele>616</ele>
        <time>2019-06-15T07:19:12Z</time>
      </trkpt>
      <trkpt lat="44.36314" lon="5.88248">
        <ele>616</ele>
        <time>2019-06-15T07:19:13Z</time>
      </trkpt>
      <trkpt lat="44.36316" lon="5.88259">
        <ele>616</ele>
        <time>2019-06-15T07:19:14Z</time>
      </trkpt>
      <trkpt lat="44.36317" lon="5.88271">
        <ele>616</ele>
        <time>2019-06-15T07:19:15Z</time>
      </trkpt>
      <trkpt lat="44.36319" lon="5.88282">
        <ele>616</ele>
        <time>2019-06-15T07:19:16Z</time>
      </trkpt>
      <trkpt lat="44.36322" lon="5.88294">
        <ele>616</ele>
        <time>2019-06-15T07:19:17Z</time>
      </trkpt>
      <trkpt lat="44.36325" lon="5.88305">
        <ele>615</ele>
        <time>2019-06-15T07:19:18Z</time>
      </trkpt>
      <trkpt lat="44.36328" lon="5.88316">
        <ele>615</ele>
        <time>2019-06-15T07:19:19Z</time>
      </trkpt>
      <trkpt lat="44.36332" lon="5.88328">
        <ele>615</ele>
        <time>2019-06-15T07:19:20Z</time>
      </trkpt>
      <trkpt lat="44.36337" lon="5.88341">
        <ele>614</ele>
        <time>2019-06-15T07:19:21Z</time>
      </trkpt>
      <trkpt lat="44.36341" lon="5.88353">
        <ele>614</ele>
        <time>2019-06-15T07:19:22Z</time>
      </trkpt>
      <trkpt lat="44.36346" lon="5.88365">
        <ele>613</ele>
        <time>2019-06-15T07:19:23Z</time>
      </trkpt>
      <trkpt lat="44.3635" lon="5.88377">
        <ele>613</ele>
        <time>2019-06-15T07:19:24Z</time>
      </trkpt>
      <trkpt lat="44.36354" lon="5.88389">
        <ele>613</ele>
        <time>2019-06-15T07:19:25Z</time>
      </trkpt>
      <trkpt lat="44.36359" lon="5.88401">
        <ele>612</ele>
        <time>2019-06-15T07:19:26Z</time>
      </trkpt>
      <trkpt lat="44.36362" lon="5.88413">
        <ele>612</ele>
        <time>2019-06-15T07:19:27Z</time>
      </trkpt>
      <trkpt lat="44.36365" lon="5.88425">
        <ele>612</ele>
        <time>2019-06-15T07:19:28Z</time>
      </trkpt>
      <trkpt lat="44.36367" lon="5.88437">
        <ele>612</ele>
        <time>2019-06-15T07:19:29Z</time>
      </trkpt>
      <trkpt lat="44.36369" lon="5.88449">
        <ele>612</ele>
        <time>2019-06-15T07:19:30Z</time>
      </trkpt>
      <trkpt lat="44.3637" lon="5.8846">
        <ele>612</ele>
        <time>2019-06-15T07:19:31Z</time>
      </trkpt>
      <trkpt lat="44.36371" lon="5.88472">
        <ele>612</ele>
        <time>2019-06-15T07:19:32Z</time>
      </trkpt>
      <trkpt lat="44.36371" lon="5.88483">
        <ele>612</ele>
        <time>2019-06-15T07:19:33Z</time>
      </trkpt>
      <trkpt lat="44.36371" lon="5.88493">
        <ele>612</ele>
        <time>2019-06-15T07:19:34Z</time>
      </trkpt>
      <trkpt lat="44.36371" lon="5.88503">
        <ele>612</ele>
        <time>2019-06-15T07:19:35Z</time>
      </trkpt>
      <trkpt lat="44.36371" lon="5.88513">
        <ele>612</ele>
        <time>2019-06-15T07:19:36Z</time>
      </trkpt>
      <trkpt lat="44.36371" lon="5.88522">
        <ele>612</ele>
        <time>2019-06-15T07:19:37Z</time>
      </trkpt>
      <trkpt lat="44.3637" lon="5.88531">
        <ele>612</ele>
        <time>2019-06-15T07:19:38Z</time>
      </trkpt>
      <trkpt lat="44.3637" lon="5.88541">
        <ele>612</ele>
        <time>2019-06-15T07:19:39Z</time>
      </trkpt>
      <trkpt lat="44.3637" lon="5.8855">
        <ele>612</ele>
        <time>2019-06-15T07:19:40Z</time>
      </trkpt>
      <trkpt lat="44.3637" lon="5.88559">
        <ele>612</ele>
        <time>2019-06-15T07:19:42Z</time>
      </trkpt>
      <trkpt lat="44.3637" lon="5.88569">
        <ele>612</ele>
        <time>2019-06-15T07:19:42Z</time>
      </trkpt>
      <trkpt lat="44.3637" lon="5.88579">
        <ele>612</ele>
        <time>2019-06-15T07:19:43Z</time>
      </trkpt>
      <trkpt lat="44.3637" lon="5.88589">
        <ele>612</ele>
        <time>2019-06-15T07:19:44Z</time>
      </trkpt>
      <trkpt lat="44.3637" lon="5.88598">
        <ele>612</ele>
        <time>2019-06-15T07:19:45Z</time>
      </trkpt>
      <trkpt lat="44.36369" lon="5.88608">
        <ele>612</ele>
        <time>2019-06-15T07:19:46Z</time>
      </trkpt>
      <trkpt lat="44.36369" lon="5.88618">
        <ele>612</ele>
        <time>2019-06-15T07:19:47Z</time>
      </trkpt>
      <trkpt lat="44.36367" lon="5.88628">
        <ele>612</ele>
        <time>2019-06-15T07:19:48Z</time>
      </trkpt>
      <trkpt lat="44.36366" lon="5.88638">
        <ele>613</ele>
        <time>2019-06-15T07:19:49Z</time>
      </trkpt>
      <trkpt lat="44.36364" lon="5.88649">
        <ele>613</ele>
        <time>2019-06-15T07:19:50Z</time>
      </trkpt>
      <trkpt lat="44.36361" lon="5.88659">
        <ele>614</ele>
        <time>2019-06-15T07:19:51Z</time>
      </trkpt>
      <trkpt lat="44.36359" lon="5.88668">
        <ele>614</ele>
        <time>2019-06-15T07:19:52Z</time>
      </trkpt>
      <trkpt lat="44.36356" lon="5.88677">
        <ele>615</ele>
        <time>2019-06-15T07:19:53Z</time>
      </trkpt>
      <trkpt lat="44.36352" lon="5.88686">
        <ele>615</ele>
        <time>2019-06-15T07:19:54Z</time>
      </trkpt>
      <trkpt lat="44.36349" lon="5.88694">
        <ele>615</ele>
        <time>2019-06-15T07:19:55Z</time>
      </trkpt>
      <trkpt lat="44.36345" lon="5.88701">
        <ele>615</ele>
        <time>2019-06-15T07:19:56Z</time>
      </trkpt>
      <trkpt lat="44.36342" lon="5.88709">
        <ele>615</ele>
        <time>2019-06-15T07:19:57Z</time>
      </trkpt>
      <trkpt lat="44.36339" lon="5.88717">
        <ele>615</ele>
        <time>2019-06-15T07:19:58Z</time>
      </trkpt>
      <trkpt lat="44.36337" lon="5.88726">
        <ele>615</ele>
        <time>2019-06-15T07:19:59Z</time>
      </trkpt>
      <trkpt lat="44.36336" lon="5.88734">
        <ele>615</ele>
        <time>2019-06-15T07:20:00Z</time>
      </trkpt>
      <trkpt lat="44.36335" lon="5.88744">
        <ele>615</ele>
        <time>2019-06-15T07:20:01Z</time>
      </trkpt>
      <trkpt lat="44.36335" lon="5.88753">
        <ele>615</ele>
        <time>2019-06-15T07:20:02Z</time>
      </trkpt>
      <trkpt lat="44.36336" lon="5.88763">
        <ele>615</ele>
        <time>2019-06-15T07:20:03Z</time>
      </trkpt>
      <trkpt lat="44.36337" lon="5.88772">
        <ele>615</ele>
        <time>2019-06-15T07:20:04Z</time>
      </trkpt>
      <trkpt lat="44.36338" lon="5.88782">
        <ele>615</ele>
        <time>2019-06-15T07:20:05Z</time>
      </trkpt>
      <trkpt lat="44.36341" lon="5.88792">
        <ele>615</ele>
        <time>2019-06-15T07:20:06Z</time>
      </trkpt>
      <trkpt lat="44.36344" lon="5.88802">
        <ele>615</ele>
        <time>2019-06-15T07:20:07Z</time>
      </trkpt>
      <trkpt lat="44.36348" lon="5.88812">
        <ele>615</ele>
        <time>2019-06-15T07:20:08Z</time>
      </trkpt>
      <trkpt lat="44.36352" lon="5.88823">
        <ele>615</ele>
        <time>2019-06-15T07:20:09Z</time>
      </trkpt>
      <trkpt lat="44.36356" lon="5.88834">
        <ele>615</ele>
        <time>2019-06-15T07:20:10Z</time>
      </trkpt>
      <trkpt lat="44.36361" lon="5.88844">
        <ele>615</ele>
        <time>2019-06-15T07:20:11Z</time>
      </trkpt>
      <trkpt lat="44.36365" lon="5.88855">
        <ele>615</ele>
        <time>2019-06-15T07:20:12Z</time>
      </trkpt>
      <trkpt lat="44.36369" lon="5.88865">
        <ele>615</ele>
        <time>2019-06-15T07:20:13Z</time>
      </trkpt>
      <trkpt lat="44.36373" lon="5.88876">
        <ele>615</ele>
        <time>2019-06-15T07:20:14Z</time>
      </trkpt>
      <trkpt lat="44.36377" lon="5.88886">
        <ele>615</ele>
        <time>2019-06-15T07:20:15Z</time>
      </trkpt>
      <trkpt lat="44.36381" lon="5.88897">
        <ele>615</ele>
        <time>2019-06-15T07:20:16Z</time>
      </trkpt>
      <trkpt lat="44.36386" lon="5.88908">
        <ele>615</ele>
        <time>2019-06-15T07:20:17Z</time>
      </trkpt>
      <trkpt lat="44.3639" lon="5.88919">
        <ele>615</ele>
        <time>2019-06-15T07:20:18Z</time>
      </trkpt>
      <trkpt lat="44.36394" lon="5.88929">
        <ele>615</ele>
        <time>2019-06-15T07:20:19Z</time>
      </trkpt>
      <trkpt lat="44.36398" lon="5.8894">
        <ele>614</ele>
        <time>2019-06-15T07:20:20Z</time>
      </trkpt>
      <trkpt lat="44.36402" lon="5.88951">
        <ele>614</ele>
        <time>2019-06-15T07:20:21Z</time>
      </trkpt>
      <trkpt lat="44.36406" lon="5.88962">
        <ele>613</ele>
        <time>2019-06-15T07:20:22Z</time>
      </trkpt>
      <trkpt lat="44.3641" lon="5.88973">
        <ele>613</ele>
        <time>2019-06-15T07:20:23Z</time>
      </trkpt>
      <trkpt lat="44.36414" lon="5.88983">
        <ele>613</ele>
        <time>2019-06-15T07:20:24Z</time>
      </trkpt>
      <trkpt lat="44.36417" lon="5.88992">
        <ele>613</ele>
        <time>2019-06-15T07:20:25Z</time>
      </trkpt>
      <trkpt lat="44.36421" lon="5.89001">
        <ele>613</ele>
        <time>2019-06-15T07:20:26Z</time>
      </trkpt>
      <trkpt lat="44.36424" lon="5.89009">
        <ele>613</ele>
        <time>2019-06-15T07:20:27Z</time>
      </trkpt>
      <trkpt lat="44.36428" lon="5.89017">
        <ele>613</ele>
        <time>2019-06-15T07:20:28Z</time>
      </trkpt>
      <trkpt lat="44.36431" lon="5.89025">
        <ele>613</ele>
        <time>2019-06-15T07:20:29Z</time>
      </trkpt>
      <trkpt lat="44.36434" lon="5.89034">
        <ele>613</ele>
        <time>2019-06-15T07:20:30Z</time>
      </trkpt>
      <trkpt lat="44.36437" lon="5.89042">
        <ele>613</ele>
        <time>2019-06-15T07:20:31Z</time>
      </trkpt>
      <trkpt lat="44.36441" lon="5.8905">
        <ele>613</ele>
        <time>2019-06-15T07:20:32Z</time>
      </trkpt>
      <trkpt lat="44.36444" lon="5.89059">
        <ele>613</ele>
        <time>2019-06-15T07:20:33Z</time>
      </trkpt>
      <trkpt lat="44.36448" lon="5.89068">
        <ele>612</ele>
        <time>2019-06-15T07:20:34Z</time>
      </trkpt>
      <trkpt lat="44.36451" lon="5.89078">
        <ele>612</ele>
        <time>2019-06-15T07:20:35Z</time>
      </trkpt>
      <trkpt lat="44.36455" lon="5.89088">
        <ele>612</ele>
        <time>2019-06-15T07:20:36Z</time>
      </trkpt>
      <trkpt lat="44.36459" lon="5.89098">
        <ele>611</ele>
        <time>2019-06-15T07:20:37Z</time>
      </trkpt>
      <trkpt lat="44.36463" lon="5.89109">
        <ele>611</ele>
        <time>2019-06-15T07:20:38Z</time>
      </trkpt>
      <trkpt lat="44.36467" lon="5.8912">
        <ele>610</ele>
        <time>2019-06-15T07:20:39Z</time>
      </trkpt>
      <trkpt lat="44.36471" lon="5.8913">
        <ele>610</ele>
        <time>2019-06-15T07:20:40Z</time>
      </trkpt>
      <trkpt lat="44.36475" lon="5.89141">
        <ele>610</ele>
        <time>2019-06-15T07:20:42Z</time>
      </trkpt>
      <trkpt lat="44.36479" lon="5.89152">
        <ele>610</ele>
        <time>2019-06-15T07:20:42Z</time>
      </trkpt>
      <trkpt lat="44.36483" lon="5.89162">
        <ele>609</ele>
        <time>2019-06-15T07:20:43Z</time>
      </trkpt>
      <trkpt lat="44.36487" lon="5.89173">
        <ele>609</ele>
        <time>2019-06-15T07:20:44Z</time>
      </trkpt>
      <trkpt lat="44.36491" lon="5.89183">
        <ele>609</ele>
        <time>2019-06-15T07:20:45Z</time>
      </trkpt>
      <trkpt lat="44.36496" lon="5.89193">
        <ele>609</ele>
        <time>2019-06-15T07:20:46Z</time>
      </trkpt>
      <trkpt lat="44.36499" lon="5.89204">
        <ele>608</ele>
        <time>2019-06-15T07:20:47Z</time>
      </trkpt>
      <trkpt lat="44.36503" lon="5.89214">
        <ele>608</ele>
        <time>2019-06-15T07:20:48Z</time>
      </trkpt>
      <trkpt lat="44.36507" lon="5.89225">
        <ele>608</ele>
        <time>2019-06-15T07:20:49Z</time>
      </trkpt>
      <trkpt lat="44.36511" lon="5.89235">
        <ele>608</ele>
        <time>2019-06-15T07:20:50Z</time>
      </trkpt>
      <trkpt lat="44.36515" lon="5.89246">
        <ele>607</ele>
        <time>2019-06-15T07:20:51Z</time>
      </trkpt>
      <trkpt lat="44.3652" lon="5.89257">
        <ele>607</ele>
        <time>2019-06-15T07:20:52Z</time>
      </trkpt>
      <trkpt lat="44.36523" lon="5.89268">
        <ele>606</ele>
        <time>2019-06-15T07:20:53Z</time>
      </trkpt>
      <trkpt lat="44.36528" lon="5.89281">
        <ele>606</ele>
        <time>2019-06-15T07:20:54Z</time>
      </trkpt>
      <trkpt lat="44.36532" lon="5.89293">
        <ele>605</ele>
        <time>2019-06-15T07:20:55Z</time>
      </trkpt>
      <trkpt lat="44.36536" lon="5.89305">
        <ele>605</ele>
        <time>2019-06-15T07:20:56Z</time>
      </trkpt>
      <trkpt lat="44.36539" lon="5.89319">
        <ele>604</ele>
        <time>2019-06-15T07:20:57Z</time>
      </trkpt>
      <trkpt lat="44.36542" lon="5.89333">
        <ele>603</ele>
        <time>2019-06-15T07:20:58Z</time>
      </trkpt>
      <trkpt lat="44.36544" lon="5.89347">
        <ele>603</ele>
        <time>2019-06-15T07:20:59Z</time>
      </trkpt>
      <trkpt lat="44.36546" lon="5.89361">
        <ele>603</ele>
        <time>2019-06-15T07:21:00Z</time>
      </trkpt>
      <trkpt lat="44.36548" lon="5.89374">
        <ele>602</ele>
        <time>2019-06-15T07:21:01Z</time>
      </trkpt>
      <trkpt lat="44.36549" lon="5.89387">
        <ele>602</ele>
        <time>2019-06-15T07:21:02Z</time>
      </trkpt>
      <trkpt lat="44.36551" lon="5.894">
        <ele>602</ele>
        <time>2019-06-15T07:21:03Z</time>
      </trkpt>
      <trkpt lat="44.36554" lon="5.89412">
        <ele>602</ele>
        <time>2019-06-15T07:21:04Z</time>
      </trkpt>
      <trkpt lat="44.36557" lon="5.89423">
        <ele>602</ele>
        <time>2019-06-15T07:21:05Z</time>
      </trkpt>
      <trkpt lat="44.3656" lon="5.89433">
        <ele>602</ele>
        <time>2019-06-15T07:21:06Z</time>
      </trkpt>
      <trkpt lat="44.36563" lon="5.89443">
        <ele>602</ele>
        <time>2019-06-15T07:21:07Z</time>
      </trkpt>
      <trkpt lat="44.36567" lon="5.89453">
        <ele>602</ele>
        <time>2019-06-15T07:21:08Z</time>
      </trkpt>
      <trkpt lat="44.36572" lon="5.89462">
        <ele>602</ele>
        <time>2019-06-15T07:21:09Z</time>
      </trkpt>
      <trkpt lat="44.36577" lon="5.8947">
        <ele>602</ele>
        <time>2019-06-15T07:21:10Z</time>
      </trkpt>
      <trkpt lat="44.36582" lon="5.89478">
        <ele>602</ele>
        <time>2019-06-15T07:21:11Z</time>
      </trkpt>
      <trkpt lat="44.36587" lon="5.89486">
        <ele>602</ele>
        <time>2019-06-15T07:21:12Z</time>
      </trkpt>
      <trkpt lat="44.36592" lon="5.89493">
        <ele>602</ele>
        <time>2019-06-15T07:21:13Z</time>
      </trkpt>
      <trkpt lat="44.36598" lon="5.89501">
        <ele>602</ele>
        <time>2019-06-15T07:21:14Z</time>
      </trkpt>
      <trkpt lat="44.36603" lon="5.89508">
        <ele>602</ele>
        <time>2019-06-15T07:21:15Z</time>
      </trkpt>
      <trkpt lat="44.36608" lon="5.89516">
        <ele>602</ele>
        <time>2019-06-15T07:21:16Z</time>
      </trkpt>
      <trkpt lat="44.36614" lon="5.89524">
        <ele>602</ele>
        <time>2019-06-15T07:21:17Z</time>
      </trkpt>
      <trkpt lat="44.3662" lon="5.89533">
        <ele>602</ele>
        <time>2019-06-15T07:21:18Z</time>
      </trkpt>
      <trkpt lat="44.36626" lon="5.89541">
        <ele>602</ele>
        <time>2019-06-15T07:21:19Z</time>
      </trkpt>
      <trkpt lat="44.36632" lon="5.8955">
        <ele>602</ele>
        <time>2019-06-15T07:21:20Z</time>
      </trkpt>
      <trkpt lat="44.36637" lon="5.89559">
        <ele>602</ele>
        <time>2019-06-15T07:21:21Z</time>
      </trkpt>
      <trkpt lat="44.36643" lon="5.89568">
        <ele>602</ele>
        <time>2019-06-15T07:21:22Z</time>
      </trkpt>
      <trkpt lat="44.36649" lon="5.89577">
        <ele>602</ele>
        <time>2019-06-15T07:21:23Z</time>
      </trkpt>
      <trkpt lat="44.36654" lon="5.89585">
        <ele>602</ele>
        <time>2019-06-15T07:21:24Z</time>
      </trkpt>
      <trkpt lat="44.36659" lon="5.89593">
        <ele>602</ele>
        <time>2019-06-15T07:21:25Z</time>
      </trkpt>
      <trkpt lat="44.36664" lon="5.896">
        <ele>602</ele>
        <time>2019-06-15T07:21:26Z</time>
      </trkpt>
      <trkpt lat="44.36669" lon="5.89608">
        <ele>602</ele>
        <time>2019-06-15T07:21:27Z</time>
      </trkpt>
      <trkpt lat="44.36673" lon="5.89615">
        <ele>602</ele>
        <time>2019-06-15T07:21:28Z</time>
      </trkpt>
      <trkpt lat="44.36678" lon="5.89622">
        <ele>602</ele>
        <time>2019-06-15T07:21:29Z</time>
      </trkpt>
      <trkpt lat="44.36682" lon="5.8963">
        <ele>602</ele>
        <time>2019-06-15T07:21:30Z</time>
      </trkpt>
      <trkpt lat="44.36686" lon="5.89637">
        <ele>602</ele>
        <time>2019-06-15T07:21:31Z</time>
      </trkpt>
      <trkpt lat="44.36691" lon="5.89643">
        <ele>602</ele>
        <time>2019-06-15T07:21:32Z</time>
      </trkpt>
      <trkpt lat="44.36695" lon="5.89649">
        <ele>602</ele>
        <time>2019-06-15T07:21:33Z</time>
      </trkpt>
      <trkpt lat="44.36699" lon="5.89656">
        <ele>602</ele>
        <time>2019-06-15T07:21:34Z</time>
      </trkpt>
      <trkpt lat="44.36703" lon="5.89663">
        <ele>602</ele>
        <time>2019-06-15T07:21:35Z</time>
      </trkpt>
      <trkpt lat="44.36708" lon="5.8967">
        <ele>602</ele>
        <time>2019-06-15T07:21:36Z</time>
      </trkpt>
      <trkpt lat="44.36712" lon="5.89676">
        <ele>602</ele>
        <time>2019-06-15T07:21:37Z</time>
      </trkpt>
      <trkpt lat="44.36716" lon="5.89683">
        <ele>602</ele>
        <time>2019-06-15T07:21:38Z</time>
      </trkpt>
      <trkpt lat="44.36721" lon="5.8969">
        <ele>602</ele>
        <time>2019-06-15T07:21:39Z</time>
      </trkpt>
      <trkpt lat="44.36725" lon="5.89696">
        <ele>602</ele>
        <time>2019-06-15T07:21:40Z</time>
      </trkpt>
      <trkpt lat="44.36729" lon="5.89703">
        <ele>602</ele>
        <time>2019-06-15T07:21:42Z</time>
      </trkpt>
      <trkpt lat="44.36733" lon="5.8971">
        <ele>602</ele>
        <time>2019-06-15T07:21:42Z</time>
      </trkpt>
      <trkpt lat="44.36737" lon="5.89716">
        <ele>602</ele>
        <time>2019-06-15T07:21:43Z</time>
      </trkpt>
      <trkpt lat="44.36742" lon="5.89723">
        <ele>602</ele>
        <time>2019-06-15T07:21:44Z</time>
      </trkpt>
      <trkpt lat="44.36745" lon="5.8973">
        <ele>602</ele>
        <time>2019-06-15T07:21:45Z</time>
      </trkpt>
      <trkpt lat="44.3675" lon="5.89737">
        <ele>602</ele>
        <time>2019-06-15T07:21:46Z</time>
      </trkpt>
      <trkpt lat="44.36753" lon="5.89743">
        <ele>602</ele>
        <time>2019-06-15T07:21:47Z</time>
      </trkpt>
      <trkpt lat="44.36757" lon="5.89749">
        <ele>602</ele>
        <time>2019-06-15T07:21:48Z</time>
      </trkpt>
      <trkpt lat="44.36761" lon="5.89756">
        <ele>602</ele>
        <time>2019-06-15T07:21:49Z</time>
      </trkpt>
      <trkpt lat="44.36765" lon="5.89762">
        <ele>602</ele>
        <time>2019-06-15T07:21:50Z</time>
      </trkpt>
      <trkpt lat="44.36768" lon="5.89769">
        <ele>602</ele>
        <time>2019-06-15T07:21:51Z</time>
      </trkpt>
      <trkpt lat="44.36771" lon="5.89776">
        <ele>602</ele>
        <time>2019-06-15T07:21:52Z</time>
      </trkpt>
      <trkpt lat="44.36775" lon="5.89783">
        <ele>602</ele>
        <time>2019-06-15T07:21:53Z</time>
      </trkpt>
      <trkpt lat="44.36778" lon="5.8979">
        <ele>602</ele>
        <time>2019-06-15T07:21:54Z</time>
      </trkpt>
      <trkpt lat="44.36781" lon="5.89798">
        <ele>602</ele>
        <time>2019-06-15T07:21:55Z</time>
      </trkpt>
      <trkpt lat="44.36785" lon="5.89806">
        <ele>602</ele>
        <time>2019-06-15T07:21:56Z</time>
      </trkpt>
      <trkpt lat="44.36788" lon="5.89815">
        <ele>602</ele>
        <time>2019-06-15T07:21:57Z</time>
      </trkpt>
      <trkpt lat="44.36791" lon="5.89823">
        <ele>602</ele>
        <time>2019-06-15T07:21:58Z</time>
      </trkpt>
      <trkpt lat="44.36795" lon="5.89832">
        <ele>602</ele>
        <time>2019-06-15T07:21:59Z</time>
      </trkpt>
      <trkpt lat="44.36798" lon="5.89841">
        <ele>602</ele>
        <time>2019-06-15T07:22:00Z</time>
      </trkpt>
      <trkpt lat="44.36803" lon="5.89851">
        <ele>602</ele>
        <time>2019-06-15T07:22:01Z</time>
      </trkpt>
      <trkpt lat="44.36809" lon="5.89859">
        <ele>602</ele>
        <time>2019-06-15T07:22:02Z</time>
      </trkpt>
      <trkpt lat="44.36815" lon="5.89869">
        <ele>602</ele>
        <time>2019-06-15T07:22:03Z</time>
      </trkpt>
      <trkpt lat="44.36821" lon="5.89878">
        <ele>602</ele>
        <time>2019-06-15T07:22:04Z</time>
      </trkpt>
      <trkpt lat="44.36828" lon="5.89886">
        <ele>602</ele>
        <time>2019-06-15T07:22:05Z</time>
      </trkpt>
      <trkpt lat="44.36835" lon="5.89894">
        <ele>602</ele>
        <time>2019-06-15T07:22:06Z</time>
      </trkpt>
      <trkpt lat="44.36843" lon="5.89902">
        <ele>602</ele>
        <time>2019-06-15T07:22:07Z</time>
      </trkpt>
      <trkpt lat="44.3685" lon="5.89909">
        <ele>602</ele>
        <time>2019-06-15T07:22:08Z</time>
      </trkpt>
      <trkpt lat="44.36858" lon="5.89916">
        <ele>602</ele>
        <time>2019-06-15T07:22:09Z</time>
      </trkpt>
      <trkpt lat="44.36865" lon="5.89922">
        <ele>602</ele>
        <time>2019-06-15T07:22:10Z</time>
      </trkpt>
      <trkpt lat="44.36872" lon="5.89927">
        <ele>602</ele>
        <time>2019-06-15T07:22:11Z</time>
      </trkpt>
      <trkpt lat="44.3688" lon="5.89932">
        <ele>602</ele>
        <time>2019-06-15T07:22:12Z</time>
      </trkpt>
      <trkpt lat="44.36887" lon="5.89936">
        <ele>602</ele>
        <time>2019-06-15T07:22:13Z</time>
      </trkpt>
      <trkpt lat="44.36893" lon="5.8994">
        <ele>602</ele>
        <time>2019-06-15T07:22:14Z</time>
      </trkpt>
      <trkpt lat="44.369" lon="5.89945">
        <ele>602</ele>
        <time>2019-06-15T07:22:15Z</time>
      </trkpt>
      <trkpt lat="44.36906" lon="5.89949">
        <ele>602</ele>
        <time>2019-06-15T07:22:16Z</time>
      </trkpt>
      <trkpt lat="44.36912" lon="5.89952">
        <ele>602</ele>
        <time>2019-06-15T07:22:17Z</time>
      </trkpt>
      <trkpt lat="44.36917" lon="5.89956">
        <ele>602</ele>
        <time>2019-06-15T07:22:18Z</time>
      </trkpt>
      <trkpt lat="44.36923" lon="5.89959">
        <ele>602</ele>
        <time>2019-06-15T07:22:19Z</time>
      </trkpt>
      <trkpt lat="44.36929" lon="5.89962">
        <ele>602</ele>
        <time>2019-06-15T07:22:20Z</time>
      </trkpt>
      <trkpt lat="44.36934" lon="5.89966">
        <ele>602</ele>
        <time>2019-06-15T07:22:21Z</time>
      </trkpt>
      <trkpt lat="44.36939" lon="5.89969">
        <ele>602</ele>
        <time>2019-06-15T07:22:22Z</time>
      </trkpt>
      <trkpt lat="44.36944" lon="5.89972">
        <ele>602</ele>
        <time>2019-06-15T07:22:23Z</time>
      </trkpt>
      <trkpt lat="44.36949" lon="5.89975">
        <ele>602</ele>
        <time>2019-06-15T07:22:24Z</time>
      </trkpt>
      <trkpt lat="44.36954" lon="5.89978">
        <ele>602</ele>
        <time>2019-06-15T07:22:25Z</time>
      </trkpt>
      <trkpt lat="44.3696" lon="5.89981">
        <ele>602</ele>
        <time>2019-06-15T07:22:26Z</time>
      </trkpt>
      <trkpt lat="44.36965" lon="5.89984">
        <ele>602</ele>
        <time>2019-06-15T07:22:27Z</time>
      </trkpt>
      <trkpt lat="44.3697" lon="5.89987">
        <ele>602</ele>
        <time>2019-06-15T07:22:28Z</time>
      </trkpt>
      <trkpt lat="44.36975" lon="5.89989">
        <ele>602</ele>
        <time>2019-06-15T07:22:29Z</time>
      </trkpt>
      <trkpt lat="44.3698" lon="5.89992">
        <ele>602</ele>
        <time>2019-06-15T07:22:30Z</time>
      </trkpt>
      <trkpt lat="44.36985" lon="5.89993">
        <ele>602</ele>
        <time>2019-06-15T07:22:31Z</time>
      </trkpt>
      <trkpt lat="44.36989" lon="5.89995">
        <ele>602</ele>
        <time>2019-06-15T07:22:32Z</time>
      </trkpt>
      <trkpt lat="44.36993" lon="5.89997">
        <ele>602</ele>
        <time>2019-06-15T07:22:33Z</time>
      </trkpt>
      <trkpt lat="44.36997" lon="5.89998">
        <ele>602</ele>
        <time>2019-06-15T07:22:34Z</time>
      </trkpt>
      <trkpt lat="44.37001" lon="5.9">
        <ele>602</ele>
        <time>2019-06-15T07:22:35Z</time>
      </trkpt>
      <trkpt lat="44.37005" lon="5.90002">
        <ele>602</ele>
        <time>2019-06-15T07:22:36Z</time>
      </trkpt>
      <trkpt lat="44.37009" lon="5.90003">
        <ele>603</ele>
        <time>2019-06-15T07:22:37Z</time>
      </trkpt>
      <trkpt lat="44.37014" lon="5.90005">
        <ele>603</ele>
        <time>2019-06-15T07:22:38Z</time>
      </trkpt>
      <trkpt lat="44.37018" lon="5.90006">
        <ele>603</ele>
        <time>2019-06-15T07:22:39Z</time>
      </trkpt>
      <trkpt lat="44.37022" lon="5.90008">
        <ele>603</ele>
        <time>2019-06-15T07:22:40Z</time>
      </trkpt>
      <trkpt lat="44.37027" lon="5.90009">
        <ele>604</ele>
        <time>2019-06-15T07:22:42Z</time>
      </trkpt>
      <trkpt lat="44.37031" lon="5.90011">
        <ele>604</ele>
        <time>2019-06-15T07:22:42Z</time>
      </trkpt>
      <trkpt lat="44.37036" lon="5.90012">
        <ele>604</ele>
        <time>2019-06-15T07:22:43Z</time>
      </trkpt>
      <trkpt lat="44.37041" lon="5.90013">
        <ele>604</ele>
        <time>2019-06-15T07:22:44Z</time>
      </trkpt>
      <trkpt lat="44.37047" lon="5.90014">
        <ele>604</ele>
        <time>2019-06-15T07:22:45Z</time>
      </trkpt>
      <trkpt lat="44.37052" lon="5.90014">
        <ele>604</ele>
        <time>2019-06-15T07:22:46Z</time>
      </trkpt>
      <trkpt lat="44.37058" lon="5.90013">
        <ele>604</ele>
        <time>2019-06-15T07:22:47Z</time>
      </trkpt>
      <trkpt lat="44.37064" lon="5.90011">
        <ele>604</ele>
        <time>2019-06-15T07:22:48Z</time>
      </trkpt>
      <trkpt lat="44.3707" lon="5.90008">
        <ele>604</ele>
        <time>2019-06-15T07:22:49Z</time>
      </trkpt>
      <trkpt lat="44.37077" lon="5.90005">
        <ele>604</ele>
        <time>2019-06-15T07:22:50Z</time>
      </trkpt>
      <trkpt lat="44.37084" lon="5.90001">
        <ele>604</ele>
        <time>2019-06-15T07:22:51Z</time>
      </trkpt>
      <trkpt lat="44.3709" lon="5.89995">
        <ele>604</ele>
        <time>2019-06-15T07:22:52Z</time>
      </trkpt>
      <trkpt lat="44.37097" lon="5.89988">
        <ele>604</ele>
        <time>2019-06-15T07:22:53Z</time>
      </trkpt>
      <trkpt lat="44.37103" lon="5.89981">
        <ele>604</ele>
        <time>2019-06-15T07:22:54Z</time>
      </trkpt>
      <trkpt lat="44.37109" lon="5.89972">
        <ele>604</ele>
        <time>2019-06-15T07:22:55Z</time>
      </trkpt>
      <trkpt lat="44.37116" lon="5.89964">
        <ele>604</ele>
        <time>2019-06-15T07:22:56Z</time>
      </trkpt>
      <trkpt lat="44.37123" lon="5.89957">
        <ele>604</ele>
        <time>2019-06-15T07:22:57Z</time>
      </trkpt>
      <trkpt lat="44.3713" lon="5.89951">
        <ele>604</ele>
        <time>2019-06-15T07:22:58Z</time>
      </trkpt>
      <trkpt lat="44.37138" lon="5.89947">
        <ele>604</ele>
        <time>2019-06-15T07:22:59Z</time>
      </trkpt>
      <trkpt lat="44.37146" lon="5.89945">
        <ele>604</ele>
        <time>2019-06-15T07:23:00Z</time>
      </trkpt>
      <trkpt lat="44.37154" lon="5.89945">
        <ele>604</ele>
        <time>2019-06-15T07:23:01Z</time>
      </trkpt>
      <trkpt lat="44.37161" lon="5.89946">
        <ele>604</ele>
        <time>2019-06-15T07:23:02Z</time>
      </trkpt>
      <trkpt lat="44.37168" lon="5.8995">
        <ele>604</ele>
        <time>2019-06-15T07:23:03Z</time>
      </trkpt>
      <trkpt lat="44.37175" lon="5.89954">
        <ele>604</ele>
        <time>2019-06-15T07:23:04Z</time>
      </trkpt>
      <trkpt lat="44.37181" lon="5.89957">
        <ele>603</ele>
        <time>2019-06-15T07:23:05Z</time>
      </trkpt>
      <trkpt lat="44.37188" lon="5.89958">
        <ele>603</ele>
        <time>2019-06-15T07:23:06Z</time>
      </trkpt>
      <trkpt lat="44.37194" lon="5.89955">
        <ele>603</ele>
        <time>2019-06-15T07:23:07Z</time>
      </trkpt>
      <trkpt lat="44.37199" lon="5.89949">
        <ele>603</ele>
        <time>2019-06-15T07:23:08Z</time>
      </trkpt>
      <trkpt lat="44.37203" lon="5.89941">
        <ele>603</ele>
        <time>2019-06-15T07:23:09Z</time>
      </trkpt>
      <trkpt lat="44.37206" lon="5.89931">
        <ele>603</ele>
        <time>2019-06-15T07:23:10Z</time>
      </trkpt>
      <trkpt lat="44.37208" lon="5.89922">
        <ele>603</ele>
        <time>2019-06-15T07:23:11Z</time>
      </trkpt>
      <trkpt lat="44.37211" lon="5.89912">
        <ele>603</ele>
        <time>2019-06-15T07:23:12Z</time>
      </trkpt>
      <trkpt lat="44.37214" lon="5.89903">
        <ele>603</ele>
        <time>2019-06-15T07:23:13Z</time>
      </trkpt>
      <trkpt lat="44.37216" lon="5.89894">
        <ele>603</ele>
        <time>2019-06-15T07:23:14Z</time>
      </trkpt>
      <trkpt lat="44.37218" lon="5.89885">
        <ele>603</ele>
        <time>2019-06-15T07:23:15Z</time>
      </trkpt>
      <trkpt lat="44.37221" lon="5.89876">
        <ele>603</ele>
        <time>2019-06-15T07:23:16Z</time>
      </trkpt>
      <trkpt lat="44.37224" lon="5.89867">
        <ele>603</ele>
        <time>2019-06-15T07:23:17Z</time>
      </trkpt>
      <trkpt lat="44.37226" lon="5.89858">
        <ele>603</ele>
        <time>2019-06-15T07:23:18Z</time>
      </trkpt>
      <trkpt lat="44.37229" lon="5.89849">
        <ele>603</ele>
        <time>2019-06-15T07:23:19Z</time>
      </trkpt>
      <trkpt lat="44.37231" lon="5.89841">
        <ele>603</ele>
        <time>2019-06-15T07:23:20Z</time>
      </trkpt>
      <trkpt lat="44.37233" lon="5.89832">
        <ele>603</ele>
        <time>2019-06-15T07:23:21Z</time>
      </trkpt>
      <trkpt lat="44.37235" lon="5.89824">
        <ele>603</ele>
        <time>2019-06-15T07:23:22Z</time>
      </trkpt>
      <trkpt lat="44.37237" lon="5.89817">
        <ele>603</ele>
        <time>2019-06-15T07:23:23Z</time>
      </trkpt>
      <trkpt lat="44.37239" lon="5.8981">
        <ele>603</ele>
        <time>2019-06-15T07:23:24Z</time>
      </trkpt>
      <trkpt lat="44.37241" lon="5.89804">
        <ele>603</ele>
        <time>2019-06-15T07:23:25Z</time>
      </trkpt>
      <trkpt lat="44.37243" lon="5.89798">
        <ele>603</ele>
        <time>2019-06-15T07:23:26Z</time>
      </trkpt>
      <trkpt lat="44.37245" lon="5.89793">
        <ele>603</ele>
        <time>2019-06-15T07:23:27Z</time>
      </trkpt>
      <trkpt lat="44.37248" lon="5.89789">
        <ele>603</ele>
        <time>2019-06-15T07:23:28Z</time>
      </trkpt>
      <trkpt lat="44.37251" lon="5.89785">
        <ele>603</ele>
        <time>2019-06-15T07:23:29Z</time>
      </trkpt>
      <trkpt lat="44.37254" lon="5.89781">
        <ele>603</ele>
        <time>2019-06-15T07:23:30Z</time>
      </trkpt>
      <trkpt lat="44.37258" lon="5.89778">
        <ele>603</ele>
        <time>2019-06-15T07:23:31Z</time>
      </trkpt>
      <trkpt lat="44.37262" lon="5.89775">
        <ele>603</ele>
        <time>2019-06-15T07:23:32Z</time>
      </trkpt>
      <trkpt lat="44.37266" lon="5.89773">
        <ele>603</ele>
        <time>2019-06-15T07:23:33Z</time>
      </trkpt>
      <trkpt lat="44.3727" lon="5.89771">
        <ele>603</ele>
        <time>2019-06-15T07:23:34Z</time>
      </trkpt>
      <trkpt lat="44.37274" lon="5.89768">
        <ele>603</ele>
        <time>2019-06-15T07:23:35Z</time>
      </trkpt>
      <trkpt lat="44.37278" lon="5.89765">
        <ele>603</ele>
        <time>2019-06-15T07:23:36Z</time>
      </trkpt>
      <trkpt lat="44.37282" lon="5.89763">
        <ele>603</ele>
        <time>2019-06-15T07:23:37Z</time>
      </trkpt>
      <trkpt lat="44.37286" lon="5.8976">
        <ele>603</ele>
        <time>2019-06-15T07:23:38Z</time>
      </trkpt>
      <trkpt lat="44.37289" lon="5.89756">
        <ele>604</ele>
        <time>2019-06-15T07:23:39Z</time>
      </trkpt>
      <trkpt lat="44.37293" lon="5.89752">
        <ele>604</ele>
        <time>2019-06-15T07:23:40Z</time>
      </trkpt>
      <trkpt lat="44.37296" lon="5.89748">
        <ele>604</ele>
        <time>2019-06-15T07:23:42Z</time>
      </trkpt>
      <trkpt lat="44.373" lon="5.89744">
        <ele>604</ele>
        <time>2019-06-15T07:23:42Z</time>
      </trkpt>
      <trkpt lat="44.37303" lon="5.8974">
        <ele>604</ele>
        <time>2019-06-15T07:23:43Z</time>
      </trkpt>
      <trkpt lat="44.37306" lon="5.89736">
        <ele>604</ele>
        <time>2019-06-15T07:23:44Z</time>
      </trkpt>
      <trkpt lat="44.37309" lon="5.89732">
        <ele>604</ele>
        <time>2019-06-15T07:23:45Z</time>
      </trkpt>
      <trkpt lat="44.37312" lon="5.89727">
        <ele>604</ele>
        <time>2019-06-15T07:23:46Z</time>
      </trkpt>
      <trkpt lat="44.37315" lon="5.89723">
        <ele>604</ele>
        <time>2019-06-15T07:23:47Z</time>
      </trkpt>
      <trkpt lat="44.37319" lon="5.89718">
        <ele>604</ele>
        <time>2019-06-15T07:23:48Z</time>
      </trkpt>
      <trkpt lat="44.37323" lon="5.89712">
        <ele>604</ele>
        <time>2019-06-15T07:23:49Z</time>
      </trkpt>
      <trkpt lat="44.37326" lon="5.89707">
        <ele>604</ele>
        <time>2019-06-15T07:23:50Z</time>
      </trkpt>
      <trkpt lat="44.37328" lon="5.89701">
        <ele>605</ele>
        <time>2019-06-15T07:23:51Z</time>
      </trkpt>
      <trkpt lat="44.37331" lon="5.89694">
        <ele>605</ele>
        <time>2019-06-15T07:23:52Z</time>
      </trkpt>
      <trkpt lat="44.37333" lon="5.89688">
        <ele>605</ele>
        <time>2019-06-15T07:23:53Z</time>
      </trkpt>
      <trkpt lat="44.37336" lon="5.89682">
        <ele>605</ele>
        <time>2019-06-15T07:23:54Z</time>
      </trkpt>
      <trkpt lat="44.37339" lon="5.89676">
        <ele>605</ele>
        <time>2019-06-15T07:23:55Z</time>
      </trkpt>
      <trkpt lat="44.37342" lon="5.89671">
        <ele>605</ele>
        <time>2019-06-15T07:23:56Z</time>
      </trkpt>
      <trkpt lat="44.37344" lon="5.89666">
        <ele>605</ele>
        <time>2019-06-15T07:23:57Z</time>
      </trkpt>
      <trkpt lat="44.37346" lon="5.89661">
        <ele>605</ele>
        <time>2019-06-15T07:23:58Z</time>
      </trkpt>
      <trkpt lat="44.37349" lon="5.89656">
        <ele>606</ele>
        <time>2019-06-15T07:23:59Z</time>
      </trkpt>
      <trkpt lat="44.37351" lon="5.89651">
        <ele>606</ele>
        <time>2019-06-15T07:24:00Z</time>
      </trkpt>
      <trkpt lat="44.37352" lon="5.89647">
        <ele>606</ele>
        <time>2019-06-15T07:24:01Z</time>
      </trkpt>
      <trkpt lat="44.37354" lon="5.89643">
        <ele>606</ele>
        <time>2019-06-15T07:24:02Z</time>
      </trkpt>
      <trkpt lat="44.37356" lon="5.89639">
        <ele>606</ele>
        <time>2019-06-15T07:24:03Z</time>
      </trkpt>
      <trkpt lat="44.37358" lon="5.89634">
        <ele>606</ele>
        <time>2019-06-15T07:24:04Z</time>
      </trkpt>
      <trkpt lat="44.3736" lon="5.8963">
        <ele>606</ele>
        <time>2019-06-15T07:24:05Z</time>
      </trkpt>
      <trkpt lat="44.37362" lon="5.89625">
        <ele>606</ele>
        <time>2019-06-15T07:24:06Z</time>
      </trkpt>
      <trkpt lat="44.37364" lon="5.89621">
        <ele>606</ele>
        <time>2019-06-15T07:24:07Z</time>
      </trkpt>
      <trkpt lat="44.37366" lon="5.89616">
        <ele>606</ele>
        <time>2019-06-15T07:24:08Z</time>
      </trkpt>
      <trkpt lat="44.37368" lon="5.89612">
        <ele>606</ele>
        <time>2019-06-15T07:24:09Z</time>
      </trkpt>
      <trkpt lat="44.37369" lon="5.89608">
        <ele>606</ele>
        <time>2019-06-15T07:24:10Z</time>
      </trkpt>
      <trkpt lat="44.37371" lon="5.89604">
        <ele>607</ele>
        <time>2019-06-15T07:24:11Z</time>
      </trkpt>
      <trkpt lat="44.37372" lon="5.896">
        <ele>607</ele>
        <time>2019-06-15T07:24:12Z</time>
      </trkpt>
      <trkpt lat="44.37373" lon="5.89596">
        <ele>607</ele>
        <time>2019-06-15T07:24:13Z</time>
      </trkpt>
      <trkpt lat="44.37375" lon="5.89593">
        <ele>607</ele>
        <time>2019-06-15T07:24:14Z</time>
      </trkpt>
      <trkpt lat="44.37377" lon="5.89589">
        <ele>607</ele>
        <time>2019-06-15T07:24:15Z</time>
      </trkpt>
      <trkpt lat="44.37379" lon="5.89586">
        <ele>607</ele>
        <time>2019-06-15T07:24:16Z</time>
      </trkpt>
      <trkpt lat="44.37381" lon="5.89583">
        <ele>607</ele>
        <time>2019-06-15T07:24:17Z</time>
      </trkpt>
      <trkpt lat="44.37383" lon="5.8958">
        <ele>608</ele>
        <time>2019-06-15T07:24:18Z</time>
      </trkpt>
      <trkpt lat="44.37385" lon="5.89577">
        <ele>608</ele>
        <time>2019-06-15T07:24:19Z</time>
      </trkpt>
      <trkpt lat="44.37387" lon="5.89574">
        <ele>609</ele>
        <time>2019-06-15T07:24:20Z</time>
      </trkpt>
      <trkpt lat="44.37388" lon="5.8957">
        <ele>609</ele>
        <time>2019-06-15T07:24:21Z</time>
      </trkpt>
      <trkpt lat="44.37389" lon="5.89567">
        <ele>610</ele>
        <time>2019-06-15T07:24:22Z</time>
      </trkpt>
      <trkpt lat="44.37391" lon="5.89562">
        <ele>610</ele>
        <time>2019-06-15T07:24:23Z</time>
      </trkpt>
      <trkpt lat="44.37392" lon="5.89559">
        <ele>610</ele>
        <time>2019-06-15T07:24:24Z</time>
      </trkpt>
      <trkpt lat="44.37393" lon="5.89555">
        <ele>610</ele>
        <time>2019-06-15T07:24:25Z</time>
      </trkpt>
      <trkpt lat="44.37394" lon="5.89551">
        <ele>610</ele>
        <time>2019-06-15T07:24:26Z</time>
      </trkpt>
      <trkpt lat="44.37395" lon="5.89547">
        <ele>610</ele>
        <time>2019-06-15T07:24:27Z</time>
      </trkpt>
      <trkpt lat="44.37395" lon="5.89542">
        <ele>611</ele>
        <time>2019-06-15T07:24:28Z</time>
      </trkpt>
      <trkpt lat="44.37396" lon="5.89538">
        <ele>611</ele>
        <time>2019-06-15T07:24:29Z</time>
      </trkpt>
      <trkpt lat="44.37397" lon="5.89534">
        <ele>611</ele>
        <time>2019-06-15T07:24:30Z</time>
      </trkpt>
      <trkpt lat="44.37398" lon="5.8953">
        <ele>612</ele>
        <time>2019-06-15T07:24:31Z</time>
      </trkpt>
      <trkpt lat="44.37399" lon="5.89526">
        <ele>612</ele>
        <time>2019-06-15T07:24:32Z</time>
      </trkpt>
      <trkpt lat="44.374" lon="5.89522">
        <ele>612</ele>
        <time>2019-06-15T07:24:33Z</time>
      </trkpt>
      <trkpt lat="44.37402" lon="5.89519">
        <ele>613</ele>
        <time>2019-06-15T07:24:34Z</time>
      </trkpt>
      <trkpt lat="44.37403" lon="5.89515">
        <ele>613</ele>
        <time>2019-06-15T07:24:35Z</time>
      </trkpt>
      <trkpt lat="44.37405" lon="5.89511">
        <ele>613</ele>
        <time>2019-06-15T07:24:36Z</time>
      </trkpt>
      <trkpt lat="44.37406" lon="5.89507">
        <ele>613</ele>
        <time>2019-06-15T07:24:37Z</time>
      </trkpt>
      <trkpt lat="44.37407" lon="5.89504">
        <ele>614</ele>
        <time>2019-06-15T07:24:38Z</time>
      </trkpt>
      <trkpt lat="44.37409" lon="5.89501">
        <ele>614</ele>
        <time>2019-06-15T07:24:39Z</time>
      </trkpt>
      <trkpt lat="44.37411" lon="5.89498">
        <ele>614</ele>
        <time>2019-06-15T07:24:40Z</time>
      </trkpt>
      <trkpt lat="44.37413" lon="5.89495">
        <ele>615</ele>
        <time>2019-06-15T07:24:42Z</time>
      </trkpt>
      <trkpt lat="44.37415" lon="5.89492">
        <ele>616</ele>
        <time>2019-06-15T07:24:42Z</time>
      </trkpt>
      <trkpt lat="44.37417" lon="5.89489">
        <ele>616</ele>
        <time>2019-06-15T07:24:43Z</time>
      </trkpt>
      <trkpt lat="44.37418" lon="5.89486">
        <ele>616</ele>
        <time>2019-06-15T07:24:44Z</time>
      </trkpt>
      <trkpt lat="44.37421" lon="5.89483">
        <ele>617</ele>
        <time>2019-06-15T07:24:45Z</time>
      </trkpt>
      <trkpt lat="44.37423" lon="5.8948">
        <ele>617</ele>
        <time>2019-06-15T07:24:46Z</time>
      </trkpt>
      <trkpt lat="44.37424" lon="5.89478">
        <ele>617</ele>
        <time>2019-06-15T07:24:47Z</time>
      </trkpt>
      <trkpt lat="44.37426" lon="5.89475">
        <ele>617</ele>
        <time>2019-06-15T07:24:48Z</time>
      </trkpt>
      <trkpt lat="44.37428" lon="5.89472">
        <ele>618</ele>
        <time>2019-06-15T07:24:49Z</time>
      </trkpt>
      <trkpt lat="44.3743" lon="5.89469">
        <ele>618</ele>
        <time>2019-06-15T07:24:50Z</time>
      </trkpt>
      <trkpt lat="44.37431" lon="5.89466">
        <ele>619</ele>
        <time>2019-06-15T07:24:51Z</time>
      </trkpt>
      <trkpt lat="44.37433" lon="5.89463">
        <ele>619</ele>
        <time>2019-06-15T07:24:52Z</time>
      </trkpt>
      <trkpt lat="44.37434" lon="5.89459">
        <ele>619</ele>
        <time>2019-06-15T07:24:53Z</time>
      </trkpt>
      <trkpt lat="44.37435" lon="5.89456">
        <ele>619</ele>
        <time>2019-06-15T07:24:54Z</time>
      </trkpt>
      <trkpt lat="44.37436" lon="5.89453">
        <ele>620</ele>
        <time>2019-06-15T07:24:55Z</time>
      </trkpt>
      <trkpt lat="44.37437" lon="5.8945">
        <ele>620</ele>
        <time>2019-06-15T07:24:56Z</time>
      </trkpt>
      <trkpt lat="44.37438" lon="5.89447">
        <ele>620</ele>
        <time>2019-06-15T07:24:57Z</time>
      </trkpt>
      <trkpt lat="44.37439" lon="5.89444">
        <ele>620</ele>
        <time>2019-06-15T07:24:58Z</time>
      </trkpt>
      <trkpt lat="44.3744" lon="5.89441">
        <ele>621</ele>
        <time>2019-06-15T07:24:59Z</time>
      </trkpt>
      <trkpt lat="44.3744" lon="5.89438">
        <ele>621</ele>
        <time>2019-06-15T07:25:00Z</time>
      </trkpt>
      <trkpt lat="44.37441" lon="5.89434">
        <ele>621</ele>
        <time>2019-06-15T07:25:01Z</time>
      </trkpt>
      <trkpt lat="44.37442" lon="5.89431">
        <ele>622</ele>
        <time>2019-06-15T07:25:02Z</time>
      </trkpt>
      <trkpt lat="44.37442" lon="5.89428">
        <ele>622</ele>
        <time>2019-06-15T07:25:03Z</time>
      </trkpt>
      <trkpt lat="44.37443" lon="5.89425">
        <ele>622</ele>
        <time>2019-06-15T07:25:04Z</time>
      </trkpt>
      <trkpt lat="44.37443" lon="5.89421">
        <ele>622</ele>
        <time>2019-06-15T07:25:05Z</time>
      </trkpt>
      <trkpt lat="44.37444" lon="5.89417">
        <ele>623</ele>
        <time>2019-06-15T07:25:06Z</time>
      </trkpt>
      <trkpt lat="44.37444" lon="5.89414">
        <ele>623</ele>
        <time>2019-06-15T07:25:07Z</time>
      </trkpt>
      <trkpt lat="44.37444" lon="5.89411">
        <ele>623</ele>
        <time>2019-06-15T07:25:08Z</time>
      </trkpt>
      <trkpt lat="44.37445" lon="5.89408">
        <ele>623</ele>
        <time>2019-06-15T07:25:09Z</time>
      </trkpt>
      <trkpt lat="44.37445" lon="5.89405">
        <ele>623</ele>
        <time>2019-06-15T07:25:10Z</time>
      </trkpt>
      <trkpt lat="44.37445" lon="5.89403">
        <ele>623</ele>
        <time>2019-06-15T07:25:11Z</time>
      </trkpt>
      <trkpt lat="44.37445" lon="5.894">
        <ele>623</ele>
        <time>2019-06-15T07:25:12Z</time>
      </trkpt>
      <trkpt lat="44.37445" lon="5.89398">
        <ele>624</ele>
        <time>2019-06-15T07:25:13Z</time>
      </trkpt>
      <trkpt lat="44.37445" lon="5.89395">
        <ele>624</ele>
        <time>2019-06-15T07:25:14Z</time>
      </trkpt>
      <trkpt lat="44.37445" lon="5.89392">
        <ele>624</ele>
        <time>2019-06-15T07:25:15Z</time>
      </trkpt>
      <trkpt lat="44.37445" lon="5.89389">
        <ele>624</ele>
        <time>2019-06-15T07:25:16Z</time>
      </trkpt>
      <trkpt lat="44.37445" lon="5.89386">
        <ele>624</ele>
        <time>2019-06-15T07:25:17Z</time>
      </trkpt>
      <trkpt lat="44.37445" lon="5.89383">
        <ele>624</ele>
        <time>2019-06-15T07:25:18Z</time>
      </trkpt>
      <trkpt lat="44.37445" lon="5.8938">
        <ele>625</ele>
        <time>2019-06-15T07:25:19Z</time>
      </trkpt>
      <trkpt lat="44.37446" lon="5.89376">
        <ele>625</ele>
        <time>2019-06-15T07:25:20Z</time>
      </trkpt>
      <trkpt lat="44.37446" lon="5.89373">
        <ele>625</ele>
        <time>2019-06-15T07:25:21Z</time>
      </trkpt>
      <trkpt lat="44.37446" lon="5.8937">
        <ele>625</ele>
        <time>2019-06-15T07:25:22Z</time>
      </trkpt>
      <trkpt lat="44.37446" lon="5.89367">
        <ele>625</ele>
        <time>2019-06-15T07:25:23Z</time>
      </trkpt>
      <trkpt lat="44.37446" lon="5.89364">
        <ele>626</ele>
        <time>2019-06-15T07:25:24Z</time>
      </trkpt>
      <trkpt lat="44.37447" lon="5.89361">
        <ele>626</ele>
        <time>2019-06-15T07:25:25Z</time>
      </trkpt>
      <trkpt lat="44.37447" lon="5.89358">
        <ele>626</ele>
        <time>2019-06-15T07:25:26Z</time>
      </trkpt>
      <trkpt lat="44.37447" lon="5.89355">
        <ele>626</ele>
        <time>2019-06-15T07:25:27Z</time>
      </trkpt>
      <trkpt lat="44.37447" lon="5.89352">
        <ele>626</ele>
        <time>2019-06-15T07:25:28Z</time>
      </trkpt>
      <trkpt lat="44.37448" lon="5.89348">
        <ele>627</ele>
        <time>2019-06-15T07:25:29Z</time>
      </trkpt>
      <trkpt lat="44.37448" lon="5.89345">
        <ele>627</ele>
        <time>2019-06-15T07:25:30Z</time>
      </trkpt>
      <trkpt lat="44.37448" lon="5.89342">
        <ele>627</ele>
        <time>2019-06-15T07:25:31Z</time>
      </trkpt>
      <trkpt lat="44.37448" lon="5.89338">
        <ele>627</ele>
        <time>2019-06-15T07:25:32Z</time>
      </trkpt>
      <trkpt lat="44.37447" lon="5.89335">
        <ele>628</ele>
        <time>2019-06-15T07:25:33Z</time>
      </trkpt>
      <trkpt lat="44.37447" lon="5.89332">
        <ele>628</ele>
        <time>2019-06-15T07:25:34Z</time>
      </trkpt>
      <trkpt lat="44.37447" lon="5.89329">
        <ele>628</ele>
        <time>2019-06-15T07:25:35Z</time>
      </trkpt>
      <trkpt lat="44.37447" lon="5.89325">
        <ele>628</ele>
        <time>2019-06-15T07:25:36Z</time>
      </trkpt>
      <trkpt lat="44.37448" lon="5.89322">
        <ele>628</ele>
        <time>2019-06-15T07:25:37Z</time>
      </trkpt>
      <trkpt lat="44.37448" lon="5.89319">
        <ele>628</ele>
        <time>2019-06-15T07:25:38Z</time>
      </trkpt>
      <trkpt lat="44.37449" lon="5.89315">
        <ele>628</ele>
        <time>2019-06-15T07:25:39Z</time>
      </trkpt>
      <trkpt lat="44.37449" lon="5.89312">
        <ele>628</ele>
        <time>2019-06-15T07:25:40Z</time>
      </trkpt>
      <trkpt lat="44.3745" lon="5.89309">
        <ele>628</ele>
        <time>2019-06-15T07:25:42Z</time>
      </trkpt>
      <trkpt lat="44.3745" lon="5.89306">
        <ele>628</ele>
        <time>2019-06-15T07:25:42Z</time>
      </trkpt>
      <trkpt lat="44.37451" lon="5.89303">
        <ele>628</ele>
        <time>2019-06-15T07:25:43Z</time>
      </trkpt>
      <trkpt lat="44.37451" lon="5.893">
        <ele>628</ele>
        <time>2019-06-15T07:25:44Z</time>
      </trkpt>
      <trkpt lat="44.37452" lon="5.89297">
        <ele>628</ele>
        <time>2019-06-15T07:25:45Z</time>
      </trkpt>
      <trkpt lat="44.37452" lon="5.89294">
        <ele>629</ele>
        <time>2019-06-15T07:25:46Z</time>
      </trkpt>
      <trkpt lat="44.37453" lon="5.89291">
        <ele>629</ele>
        <time>2019-06-15T07:25:47Z</time>
      </trkpt>
      <trkpt lat="44.37454" lon="5.89288">
        <ele>629</ele>
        <time>2019-06-15T07:25:48Z</time>
      </trkpt>
      <trkpt lat="44.37454" lon="5.89285">
        <ele>629</ele>
        <time>2019-06-15T07:25:49Z</time>
      </trkpt>
      <trkpt lat="44.37455" lon="5.89283">
        <ele>630</ele>
        <time>2019-06-15T07:25:50Z</time>
      </trkpt>
      <trkpt lat="44.37455" lon="5.8928">
        <ele>630</ele>
        <time>2019-06-15T07:25:51Z</time>
      </trkpt>
      <trkpt lat="44.37455" lon="5.89278">
        <ele>630</ele>
        <time>2019-06-15T07:25:52Z</time>
      </trkpt>
      <trkpt lat="44.37456" lon="5.89275">
        <ele>630</ele>
        <time>2019-06-15T07:25:53Z</time>
      </trkpt>
      <trkpt lat="44.37457" lon="5.89272">
        <ele>631</ele>
        <time>2019-06-15T07:25:54Z</time>
      </trkpt>
      <trkpt lat="44.37458" lon="5.89269">
        <ele>631</ele>
        <time>2019-06-15T07:25:55Z</time>
      </trkpt>
      <trkpt lat="44.37458" lon="5.89266">
        <ele>631</ele>
        <time>2019-06-15T07:25:56Z</time>
      </trkpt>
      <trkpt lat="44.37458" lon="5.89263">
        <ele>631</ele>
        <time>2019-06-15T07:25:57Z</time>
      </trkpt>
      <trkpt lat="44.37459" lon="5.8926">
        <ele>631</ele>
        <time>2019-06-15T07:25:58Z</time>
      </trkpt>
      <trkpt lat="44.37459" lon="5.89257">
        <ele>631</ele>
        <time>2019-06-15T07:25:59Z</time>
      </trkpt>
      <trkpt lat="44.3746" lon="5.89254">
        <ele>631</ele>
        <time>2019-06-15T07:26:00Z</time>
      </trkpt>
      <trkpt lat="44.3746" lon="5.89251">
        <ele>631</ele>
        <time>2019-06-15T07:26:01Z</time>
      </trkpt>
      <trkpt lat="44.3746" lon="5.89248">
        <ele>631</ele>
        <time>2019-06-15T07:26:02Z</time>
      </trkpt>
      <trkpt lat="44.3746" lon="5.89245">
        <ele>631</ele>
        <time>2019-06-15T07:26:03Z</time>
      </trkpt>
      <trkpt lat="44.37461" lon="5.89243">
        <ele>631</ele>
        <time>2019-06-15T07:26:04Z</time>
      </trkpt>
      <trkpt lat="44.37461" lon="5.89239">
        <ele>631</ele>
        <time>2019-06-15T07:26:05Z</time>
      </trkpt>
      <trkpt lat="44.37461" lon="5.89237">
        <ele>631</ele>
        <time>2019-06-15T07:26:06Z</time>
      </trkpt>
      <trkpt lat="44.37461" lon="5.89234">
        <ele>631</ele>
        <time>2019-06-15T07:26:07Z</time>
      </trkpt>
      <trkpt lat="44.37462" lon="5.89231">
        <ele>631</ele>
        <time>2019-06-15T07:26:08Z</time>
      </trkpt>
      <trkpt lat="44.37462" lon="5.89228">
        <ele>631</ele>
        <time>2019-06-15T07:26:09Z</time>
      </trkpt>
      <trkpt lat="44.37463" lon="5.89225">
        <ele>631</ele>
        <time>2019-06-15T07:26:10Z</time>
      </trkpt>
      <trkpt lat="44.37463" lon="5.89222">
        <ele>631</ele>
        <time>2019-06-15T07:26:11Z</time>
      </trkpt>
      <trkpt lat="44.37463" lon="5.89219">
        <ele>631</ele>
        <time>2019-06-15T07:26:12Z</time>
      </trkpt>
      <trkpt lat="44.37463" lon="5.89217">
        <ele>631</ele>
        <time>2019-06-15T07:26:13Z</time>
      </trkpt>
      <trkpt lat="44.37462" lon="5.89214">
        <ele>631</ele>
        <time>2019-06-15T07:26:14Z</time>
      </trkpt>
      <trkpt lat="44.37462" lon="5.89211">
        <ele>631</ele>
        <time>2019-06-15T07:26:15Z</time>
      </trkpt>
      <trkpt lat="44.37462" lon="5.89208">
        <ele>631</ele>
        <time>2019-06-15T07:26:16Z</time>
      </trkpt>
      <trkpt lat="44.37462" lon="5.89205">
        <ele>631</ele>
        <time>2019-06-15T07:26:17Z</time>
      </trkpt>
      <trkpt lat="44.37462" lon="5.89202">
        <ele>631</ele>
        <time>2019-06-15T07:26:18Z</time>
      </trkpt>
      <trkpt lat="44.37461" lon="5.89199">
        <ele>631</ele>
        <time>2019-06-15T07:26:19Z</time>
      </trkpt>
      <trkpt lat="44.37461" lon="5.89195">
        <ele>631</ele>
        <time>2019-06-15T07:26:20Z</time>
      </trkpt>
      <trkpt lat="44.37461" lon="5.89192">
        <ele>631</ele>
        <time>2019-06-15T07:26:21Z</time>
      </trkpt>
      <trkpt lat="44.37461" lon="5.89189">
        <ele>631</ele>
        <time>2019-06-15T07:26:22Z</time>
      </trkpt>
      <trkpt lat="44.37461" lon="5.89185">
        <ele>632</ele>
        <time>2019-06-15T07:26:23Z</time>
      </trkpt>
      <trkpt lat="44.3746" lon="5.89183">
        <ele>633</ele>
        <time>2019-06-15T07:26:24Z</time>
      </trkpt>
      <trkpt lat="44.3746" lon="5.89179">
        <ele>634</ele>
        <time>2019-06-15T07:26:25Z</time>
      </trkpt>
      <trkpt lat="44.37459" lon="5.89176">
        <ele>635</ele>
        <time>2019-06-15T07:26:26Z</time>
      </trkpt>
      <trkpt lat="44.37458" lon="5.89172">
        <ele>636</ele>
        <time>2019-06-15T07:26:27Z</time>
      </trkpt>
      <trkpt lat="44.37457" lon="5.89169">
        <ele>636</ele>
        <time>2019-06-15T07:26:28Z</time>
      </trkpt>
      <trkpt lat="44.37456" lon="5.89165">
        <ele>637</ele>
        <time>2019-06-15T07:26:29Z</time>
      </trkpt>
      <trkpt lat="44.37455" lon="5.89162">
        <ele>638</ele>
        <time>2019-06-15T07:26:30Z</time>
      </trkpt>
      <trkpt lat="44.37454" lon="5.89159">
        <ele>639</ele>
        <time>2019-06-15T07:26:31Z</time>
      </trkpt>
      <trkpt lat="44.37453" lon="5.89156">
        <ele>639</ele>
        <time>2019-06-15T07:26:32Z</time>
      </trkpt>
      <trkpt lat="44.37452" lon="5.89153">
        <ele>640</ele>
        <time>2019-06-15T07:26:33Z</time>
      </trkpt>
      <trkpt lat="44.37451" lon="5.8915">
        <ele>640</ele>
        <time>2019-06-15T07:26:34Z</time>
      </trkpt>
      <trkpt lat="44.3745" lon="5.89147">
        <ele>640</ele>
        <time>2019-06-15T07:26:35Z</time>
      </trkpt>
      <trkpt lat="44.37449" lon="5.89145">
        <ele>641</ele>
        <time>2019-06-15T07:26:36Z</time>
      </trkpt>
      <trkpt lat="44.37448" lon="5.89142">
        <ele>641</ele>
        <time>2019-06-15T07:26:37Z</time>
      </trkpt>
      <trkpt lat="44.37446" lon="5.89139">
        <ele>641</ele>
        <time>2019-06-15T07:26:38Z</time>
      </trkpt>
      <trkpt lat="44.37445" lon="5.89136">
        <ele>641</ele>
        <time>2019-06-15T07:26:39Z</time>
      </trkpt>
      <trkpt lat="44.37444" lon="5.89132">
        <ele>641</ele>
        <time>2019-06-15T07:26:40Z</time>
      </trkpt>
      <trkpt lat="44.37442" lon="5.89129">
        <ele>641</ele>
        <time>2019-06-15T07:26:41Z</time>
      </trkpt>
      <trkpt lat="44.37442" lon="5.89125">
        <ele>641</ele>
        <time>2019-06-15T07:26:42Z</time>
      </trkpt>
      <trkpt lat="44.3744" lon="5.89122">
        <ele>641</ele>
        <time>2019-06-15T07:26:43Z</time>
      </trkpt>
      <trkpt lat="44.37439" lon="5.89119">
        <ele>641</ele>
        <time>2019-06-15T07:26:44Z</time>
      </trkpt>
      <trkpt lat="44.37437" lon="5.89116">
        <ele>641</ele>
        <time>2019-06-15T07:26:45Z</time>
      </trkpt>
      <trkpt lat="44.37436" lon="5.89113">
        <ele>641</ele>
        <time>2019-06-15T07:26:46Z</time>
      </trkpt>
      <trkpt lat="44.37434" lon="5.89109">
        <ele>641</ele>
        <time>2019-06-15T07:26:47Z</time>
      </trkpt>
      <trkpt lat="44.37433" lon="5.89106">
        <ele>641</ele>
        <time>2019-06-15T07:26:48Z</time>
      </trkpt>
      <trkpt lat="44.37431" lon="5.89104">
        <ele>641</ele>
        <time>2019-06-15T07:26:49Z</time>
      </trkpt>
      <trkpt lat="44.37429" lon="5.89101">
        <ele>641</ele>
        <time>2019-06-15T07:26:50Z</time>
      </trkpt>
      <trkpt lat="44.37428" lon="5.89097">
        <ele>641</ele>
        <time>2019-06-15T07:26:51Z</time>
      </trkpt>
      <trkpt lat="44.37426" lon="5.89094">
        <ele>641</ele>
        <time>2019-06-15T07:26:52Z</time>
      </trkpt>
      <trkpt lat="44.37426" lon="5.8909">
        <ele>641</ele>
        <time>2019-06-15T07:26:53Z</time>
      </trkpt>
      <trkpt lat="44.37424" lon="5.89087">
        <ele>642</ele>
        <time>2019-06-15T07:26:54Z</time>
      </trkpt>
      <trkpt lat="44.37423" lon="5.89083">
        <ele>642</ele>
        <time>2019-06-15T07:26:55Z</time>
      </trkpt>
      <trkpt lat="44.37423" lon="5.8908">
        <ele>642</ele>
        <time>2019-06-15T07:26:56Z</time>
      </trkpt>
      <trkpt lat="44.37421" lon="5.89076">
        <ele>643</ele>
        <time>2019-06-15T07:26:57Z</time>
      </trkpt>
      <trkpt lat="44.37421" lon="5.89073">
        <ele>643</ele>
        <time>2019-06-15T07:26:58Z</time>
      </trkpt>
      <trkpt lat="44.37419" lon="5.89069">
        <ele>643</ele>
        <time>2019-06-15T07:26:59Z</time>
      </trkpt>
      <trkpt lat="44.37418" lon="5.89065">
        <ele>644</ele>
        <time>2019-06-15T07:27:00Z</time>
      </trkpt>
      <trkpt lat="44.37418" lon="5.89061">
        <ele>644</ele>
        <time>2019-06-15T07:27:01Z</time>
      </trkpt>
      <trkpt lat="44.37417" lon="5.89057">
        <ele>644</ele>
        <time>2019-06-15T07:27:02Z</time>
      </trkpt>
      <trkpt lat="44.37417" lon="5.89054">
        <ele>645</ele>
        <time>2019-06-15T07:27:03Z</time>
      </trkpt>
      <trkpt lat="44.37417" lon="5.8905">
        <ele>645</ele>
        <time>2019-06-15T07:27:04Z</time>
      </trkpt>
      <trkpt lat="44.37416" lon="5.89046">
        <ele>645</ele>
        <time>2019-06-15T07:27:05Z</time>
      </trkpt>
      <trkpt lat="44.37417" lon="5.89042">
        <ele>645</ele>
        <time>2019-06-15T07:27:06Z</time>
      </trkpt>
      <trkpt lat="44.37417" lon="5.89038">
        <ele>646</ele>
        <time>2019-06-15T07:27:07Z</time>
      </trkpt>
      <trkpt lat="44.37417" lon="5.89034">
        <ele>646</ele>
        <time>2019-06-15T07:27:08Z</time>
      </trkpt>
      <trkpt lat="44.37418" lon="5.89031">
        <ele>646</ele>
        <time>2019-06-15T07:27:09Z</time>
      </trkpt>
      <trkpt lat="44.37419" lon="5.89027">
        <ele>646</ele>
        <time>2019-06-15T07:27:10Z</time>
      </trkpt>
      <trkpt lat="44.3742" lon="5.89023">
        <ele>647</ele>
        <time>2019-06-15T07:27:11Z</time>
      </trkpt>
      <trkpt lat="44.3742" lon="5.89019">
        <ele>647</ele>
        <time>2019-06-15T07:27:12Z</time>
      </trkpt>
      <trkpt lat="44.37421" lon="5.89015">
        <ele>647</ele>
        <time>2019-06-15T07:27:13Z</time>
      </trkpt>
      <trkpt lat="44.37421" lon="5.89011">
        <ele>647</ele>
        <time>2019-06-15T07:27:14Z</time>
      </trkpt>
      <trkpt lat="44.37422" lon="5.89008">
        <ele>648</ele>
        <time>2019-06-15T07:27:15Z</time>
      </trkpt>
      <trkpt lat="44.37423" lon="5.89004">
        <ele>648</ele>
        <time>2019-06-15T07:27:16Z</time>
      </trkpt>
      <trkpt lat="44.37423" lon="5.89001">
        <ele>648</ele>
        <time>2019-06-15T07:27:17Z</time>
      </trkpt>
      <trkpt lat="44.37424" lon="5.88997">
        <ele>648</ele>
        <time>2019-06-15T07:27:18Z</time>
      </trkpt>
      <trkpt lat="44.37425" lon="5.88994">
        <ele>649</ele>
        <time>2019-06-15T07:27:19Z</time>
      </trkpt>
      <trkpt lat="44.37425" lon="5.88991">
        <ele>649</ele>
        <time>2019-06-15T07:27:20Z</time>
      </trkpt>
      <trkpt lat="44.37426" lon="5.88987">
        <ele>649</ele>
        <time>2019-06-15T07:27:21Z</time>
      </trkpt>
      <trkpt lat="44.37427" lon="5.88984">
        <ele>649</ele>
        <time>2019-06-15T07:27:22Z</time>
      </trkpt>
      <trkpt lat="44.37427" lon="5.8898">
        <ele>649</ele>
        <time>2019-06-15T07:27:23Z</time>
      </trkpt>
      <trkpt lat="44.37428" lon="5.88977">
        <ele>650</ele>
        <time>2019-06-15T07:27:24Z</time>
      </trkpt>
      <trkpt lat="44.37429" lon="5.88974">
        <ele>650</ele>
        <time>2019-06-15T07:27:25Z</time>
      </trkpt>
      <trkpt lat="44.37429" lon="5.8897">
        <ele>650</ele>
        <time>2019-06-15T07:27:26Z</time>
      </trkpt>
      <trkpt lat="44.3743" lon="5.88967">
        <ele>650</ele>
        <time>2019-06-15T07:27:27Z</time>
      </trkpt>
      <trkpt lat="44.37431" lon="5.88964">
        <ele>651</ele>
        <time>2019-06-15T07:27:28Z</time>
      </trkpt>
      <trkpt lat="44.37433" lon="5.8896">
        <ele>651</ele>
        <time>2019-06-15T07:27:29Z</time>
      </trkpt>
      <trkpt lat="44.37434" lon="5.88956">
        <ele>651</ele>
        <time>2019-06-15T07:27:30Z</time>
      </trkpt>
      <trkpt lat="44.37435" lon="5.88953">
        <ele>651</ele>
        <time>2019-06-15T07:27:31Z</time>
      </trkpt>
      <trkpt lat="44.37436" lon="5.88949">
        <ele>652</ele>
        <time>2019-06-15T07:27:32Z</time>
      </trkpt>
      <trkpt lat="44.37437" lon="5.88946">
        <ele>652</ele>
        <time>2019-06-15T07:27:33Z</time>
      </trkpt>
      <trkpt lat="44.37439" lon="5.88943">
        <ele>652</ele>
        <time>2019-06-15T07:27:34Z</time>
      </trkpt>
      <trkpt lat="44.37441" lon="5.8894">
        <ele>652</ele>
        <time>2019-06-15T07:27:35Z</time>
      </trkpt>
      <trkpt lat="44.37443" lon="5.88938">
        <ele>652</ele>
        <time>2019-06-15T07:27:36Z</time>
      </trkpt>
      <trkpt lat="44.37445" lon="5.88935">
        <ele>652</ele>
        <time>2019-06-15T07:27:37Z</time>
      </trkpt>
      <trkpt lat="44.37447" lon="5.88933">
        <ele>652</ele>
        <time>2019-06-15T07:27:38Z</time>
      </trkpt>
      <trkpt lat="44.37449" lon="5.8893">
        <ele>652</ele>
        <time>2019-06-15T07:27:39Z</time>
      </trkpt>
      <trkpt lat="44.37451" lon="5.88928">
        <ele>652</ele>
        <time>2019-06-15T07:27:40Z</time>
      </trkpt>
      <trkpt lat="44.37453" lon="5.88926">
        <ele>652</ele>
        <time>2019-06-15T07:27:42Z</time>
      </trkpt>
      <trkpt lat="44.37456" lon="5.88923">
        <ele>652</ele>
        <time>2019-06-15T07:27:42Z</time>
      </trkpt>
      <trkpt lat="44.37458" lon="5.88921">
        <ele>652</ele>
        <time>2019-06-15T07:27:43Z</time>
      </trkpt>
      <trkpt lat="44.3746" lon="5.88919">
        <ele>653</ele>
        <time>2019-06-15T07:27:44Z</time>
      </trkpt>
      <trkpt lat="44.37463" lon="5.88916">
        <ele>653</ele>
        <time>2019-06-15T07:27:45Z</time>
      </trkpt>
      <trkpt lat="44.37465" lon="5.88914">
        <ele>653</ele>
        <time>2019-06-15T07:27:46Z</time>
      </trkpt>
      <trkpt lat="44.37467" lon="5.88911">
        <ele>653</ele>
        <time>2019-06-15T07:27:47Z</time>
      </trkpt>
      <trkpt lat="44.37469" lon="5.88909">
        <ele>653</ele>
        <time>2019-06-15T07:27:48Z</time>
      </trkpt>
      <trkpt lat="44.37472" lon="5.88906">
        <ele>653</ele>
        <time>2019-06-15T07:27:49Z</time>
      </trkpt>
      <trkpt lat="44.37474" lon="5.88904">
        <ele>653</ele>
        <time>2019-06-15T07:27:50Z</time>
      </trkpt>
      <trkpt lat="44.37477" lon="5.88901">
        <ele>653</ele>
        <time>2019-06-15T07:27:51Z</time>
      </trkpt>
      <trkpt lat="44.37479" lon="5.88899">
        <ele>653</ele>
        <time>2019-06-15T07:27:52Z</time>
      </trkpt>
      <trkpt lat="44.37482" lon="5.88897">
        <ele>653</ele>
        <time>2019-06-15T07:27:53Z</time>
      </trkpt>
      <trkpt lat="44.37484" lon="5.88894">
        <ele>653</ele>
        <time>2019-06-15T07:27:54Z</time>
      </trkpt>
      <trkpt lat="44.37487" lon="5.88892">
        <ele>653</ele>
        <time>2019-06-15T07:27:55Z</time>
      </trkpt>
      <trkpt lat="44.3749" lon="5.88889">
        <ele>653</ele>
        <time>2019-06-15T07:27:56Z</time>
      </trkpt>
      <trkpt lat="44.37493" lon="5.88886">
        <ele>653</ele>
        <time>2019-06-15T07:27:57Z</time>
      </trkpt>
      <trkpt lat="44.37496" lon="5.88883">
        <ele>653</ele>
        <time>2019-06-15T07:27:58Z</time>
      </trkpt>
      <trkpt lat="44.37499" lon="5.88881">
        <ele>653</ele>
        <time>2019-06-15T07:27:59Z</time>
      </trkpt>
      <trkpt lat="44.37502" lon="5.88877">
        <ele>654</ele>
        <time>2019-06-15T07:28:00Z</time>
      </trkpt>
      <trkpt lat="44.37506" lon="5.88874">
        <ele>654</ele>
        <time>2019-06-15T07:28:01Z</time>
      </trkpt>
      <trkpt lat="44.37509" lon="5.88871">
        <ele>654</ele>
        <time>2019-06-15T07:28:02Z</time>
      </trkpt>
      <trkpt lat="44.37512" lon="5.88867">
        <ele>654</ele>
        <time>2019-06-15T07:28:03Z</time>
      </trkpt>
      <trkpt lat="44.37515" lon="5.88864">
        <ele>654</ele>
        <time>2019-06-15T07:28:04Z</time>
      </trkpt>
      <trkpt lat="44.37518" lon="5.8886">
        <ele>654</ele>
        <time>2019-06-15T07:28:05Z</time>
      </trkpt>
      <trkpt lat="44.37521" lon="5.88857">
        <ele>654</ele>
        <time>2019-06-15T07:28:06Z</time>
      </trkpt>
      <trkpt lat="44.37524" lon="5.88853">
        <ele>654</ele>
        <time>2019-06-15T07:28:07Z</time>
      </trkpt>
      <trkpt lat="44.37527" lon="5.8885">
        <ele>654</ele>
        <time>2019-06-15T07:28:08Z</time>
      </trkpt>
      <trkpt lat="44.3753" lon="5.88847">
        <ele>654</ele>
        <time>2019-06-15T07:28:09Z</time>
      </trkpt>
      <trkpt lat="44.37534" lon="5.88843">
        <ele>654</ele>
        <time>2019-06-15T07:28:10Z</time>
      </trkpt>
      <trkpt lat="44.37537" lon="5.8884">
        <ele>654</ele>
        <time>2019-06-15T07:28:11Z</time>
      </trkpt>
      <trkpt lat="44.3754" lon="5.88837">
        <ele>654</ele>
        <time>2019-06-15T07:28:12Z</time>
      </trkpt>
      <trkpt lat="44.37543" lon="5.88834">
        <ele>654</ele>
        <time>2019-06-15T07:28:13Z</time>
      </trkpt>
      <trkpt lat="44.37547" lon="5.88831">
        <ele>655</ele>
        <time>2019-06-15T07:28:14Z</time>
      </trkpt>
      <trkpt lat="44.3755" lon="5.88827">
        <ele>655</ele>
        <time>2019-06-15T07:28:15Z</time>
      </trkpt>
      <trkpt lat="44.37554" lon="5.88824">
        <ele>655</ele>
        <time>2019-06-15T07:28:16Z</time>
      </trkpt>
      <trkpt lat="44.37557" lon="5.88821">
        <ele>655</ele>
        <time>2019-06-15T07:28:17Z</time>
      </trkpt>
      <trkpt lat="44.37561" lon="5.88817">
        <ele>655</ele>
        <time>2019-06-15T07:28:18Z</time>
      </trkpt>
      <trkpt lat="44.37564" lon="5.88814">
        <ele>656</ele>
        <time>2019-06-15T07:28:19Z</time>
      </trkpt>
      <trkpt lat="44.37567" lon="5.8881">
        <ele>656</ele>
        <time>2019-06-15T07:28:20Z</time>
      </trkpt>
      <trkpt lat="44.37571" lon="5.88806">
        <ele>656</ele>
        <time>2019-06-15T07:28:21Z</time>
      </trkpt>
      <trkpt lat="44.37574" lon="5.88802">
        <ele>656</ele>
        <time>2019-06-15T07:28:22Z</time>
      </trkpt>
      <trkpt lat="44.37577" lon="5.88798">
        <ele>657</ele>
        <time>2019-06-15T07:28:23Z</time>
      </trkpt>
      <trkpt lat="44.3758" lon="5.88793">
        <ele>657</ele>
        <time>2019-06-15T07:28:24Z</time>
      </trkpt>
      <trkpt lat="44.37583" lon="5.88789">
        <ele>657</ele>
        <time>2019-06-15T07:28:25Z</time>
      </trkpt>
      <trkpt lat="44.37586" lon="5.88784">
        <ele>657</ele>
        <time>2019-06-15T07:28:26Z</time>
      </trkpt>
      <trkpt lat="44.37588" lon="5.88779">
        <ele>657</ele>
        <time>2019-06-15T07:28:27Z</time>
      </trkpt>
      <trkpt lat="44.37591" lon="5.88774">
        <ele>658</ele>
        <time>2019-06-15T07:28:28Z</time>
      </trkpt>
      <trkpt lat="44.37593" lon="5.88768">
        <ele>658</ele>
        <time>2019-06-15T07:28:29Z</time>
      </trkpt>
      <trkpt lat="44.37595" lon="5.88763">
        <ele>658</ele>
        <time>2019-06-15T07:28:30Z</time>
      </trkpt>
      <trkpt lat="44.37598" lon="5.88758">
        <ele>658</ele>
        <time>2019-06-15T07:28:31Z</time>
      </trkpt>
      <trkpt lat="44.376" lon="5.88752">
        <ele>658</ele>
        <time>2019-06-15T07:28:32Z</time>
      </trkpt>
      <trkpt lat="44.37602" lon="5.88747">
        <ele>659</ele>
        <time>2019-06-15T07:28:33Z</time>
      </trkpt>
      <trkpt lat="44.37604" lon="5.88741">
        <ele>659</ele>
        <time>2019-06-15T07:28:34Z</time>
      </trkpt>
      <trkpt lat="44.37606" lon="5.88736">
        <ele>659</ele>
        <time>2019-06-15T07:28:35Z</time>
      </trkpt>
      <trkpt lat="44.37608" lon="5.88731">
        <ele>659</ele>
        <time>2019-06-15T07:28:36Z</time>
      </trkpt>
      <trkpt lat="44.37611" lon="5.88725">
        <ele>660</ele>
        <time>2019-06-15T07:28:37Z</time>
      </trkpt>
      <trkpt lat="44.37613" lon="5.8872">
        <ele>660</ele>
        <time>2019-06-15T07:28:38Z</time>
      </trkpt>
      <trkpt lat="44.37615" lon="5.88715">
        <ele>660</ele>
        <time>2019-06-15T07:28:39Z</time>
      </trkpt>
      <trkpt lat="44.37617" lon="5.8871">
        <ele>661</ele>
        <time>2019-06-15T07:28:40Z</time>
      </trkpt>
      <trkpt lat="44.37619" lon="5.88705">
        <ele>661</ele>
        <time>2019-06-15T07:28:41Z</time>
      </trkpt>
      <trkpt lat="44.37622" lon="5.887">
        <ele>661</ele>
        <time>2019-06-15T07:28:42Z</time>
      </trkpt>
      <trkpt lat="44.37623" lon="5.88695">
        <ele>661</ele>
        <time>2019-06-15T07:28:43Z</time>
      </trkpt>
      <trkpt lat="44.37625" lon="5.8869">
        <ele>662</ele>
        <time>2019-06-15T07:28:44Z</time>
      </trkpt>
      <trkpt lat="44.37627" lon="5.88685">
        <ele>662</ele>
        <time>2019-06-15T07:28:45Z</time>
      </trkpt>
      <trkpt lat="44.37629" lon="5.88681">
        <ele>662</ele>
        <time>2019-06-15T07:28:46Z</time>
      </trkpt>
      <trkpt lat="44.37631" lon="5.88676">
        <ele>662</ele>
        <time>2019-06-15T07:28:47Z</time>
      </trkpt>
      <trkpt lat="44.37633" lon="5.88671">
        <ele>663</ele>
        <time>2019-06-15T07:28:48Z</time>
      </trkpt>
      <trkpt lat="44.37635" lon="5.88666">
        <ele>663</ele>
        <time>2019-06-15T07:28:49Z</time>
      </trkpt>
      <trkpt lat="44.37637" lon="5.88662">
        <ele>663</ele>
        <time>2019-06-15T07:28:50Z</time>
      </trkpt>
      <trkpt lat="44.37639" lon="5.88658">
        <ele>663</ele>
        <time>2019-06-15T07:28:51Z</time>
      </trkpt>
      <trkpt lat="44.37641" lon="5.88653">
        <ele>663</ele>
        <time>2019-06-15T07:28:52Z</time>
      </trkpt>
      <trkpt lat="44.37643" lon="5.88649">
        <ele>664</ele>
        <time>2019-06-15T07:28:53Z</time>
      </trkpt>
      <trkpt lat="44.37645" lon="5.88644">
        <ele>664</ele>
        <time>2019-06-15T07:28:54Z</time>
      </trkpt>
      <trkpt lat="44.37647" lon="5.8864">
        <ele>664</ele>
        <time>2019-06-15T07:28:55Z</time>
      </trkpt>
      <trkpt lat="44.37649" lon="5.88635">
        <ele>664</ele>
        <time>2019-06-15T07:28:56Z</time>
      </trkpt>
      <trkpt lat="44.37651" lon="5.88631">
        <ele>664</ele>
        <time>2019-06-15T07:28:57Z</time>
      </trkpt>
      <trkpt lat="44.37653" lon="5.88627">
        <ele>665</ele>
        <time>2019-06-15T07:28:58Z</time>
      </trkpt>
      <trkpt lat="44.37655" lon="5.88623">
        <ele>665</ele>
        <time>2019-06-15T07:28:59Z</time>
      </trkpt>
      <trkpt lat="44.37657" lon="5.88618">
        <ele>665</ele>
        <time>2019-06-15T07:29:00Z</time>
      </trkpt>
      <trkpt lat="44.37658" lon="5.88614">
        <ele>665</ele>
        <time>2019-06-15T07:29:01Z</time>
      </trkpt>
      <trkpt lat="44.3766" lon="5.8861">
        <ele>665</ele>
        <time>2019-06-15T07:29:02Z</time>
      </trkpt>
      <trkpt lat="44.37662" lon="5.88605">
        <ele>665</ele>
        <time>2019-06-15T07:29:03Z</time>
      </trkpt>
      <trkpt lat="44.37664" lon="5.88601">
        <ele>665</ele>
        <time>2019-06-15T07:29:04Z</time>
      </trkpt>
      <trkpt lat="44.37666" lon="5.88597">
        <ele>666</ele>
        <time>2019-06-15T07:29:05Z</time>
      </trkpt>
      <trkpt lat="44.37667" lon="5.88593">
        <ele>666</ele>
        <time>2019-06-15T07:29:06Z</time>
      </trkpt>
      <trkpt lat="44.37669" lon="5.88589">
        <ele>666</ele>
        <time>2019-06-15T07:29:07Z</time>
      </trkpt>
      <trkpt lat="44.37671" lon="5.88585">
        <ele>666</ele>
        <time>2019-06-15T07:29:08Z</time>
      </trkpt>
      <trkpt lat="44.37673" lon="5.88581">
        <ele>666</ele>
        <time>2019-06-15T07:29:09Z</time>
      </trkpt>
      <trkpt lat="44.37675" lon="5.88577">
        <ele>667</ele>
        <time>2019-06-15T07:29:10Z</time>
      </trkpt>
      <trkpt lat="44.37677" lon="5.88573">
        <ele>667</ele>
        <time>2019-06-15T07:29:11Z</time>
      </trkpt>
      <trkpt lat="44.37679" lon="5.88568">
        <ele>667</ele>
        <time>2019-06-15T07:29:12Z</time>
      </trkpt>
      <trkpt lat="44.3768" lon="5.88564">
        <ele>667</ele>
        <time>2019-06-15T07:29:13Z</time>
      </trkpt>
      <trkpt lat="44.37682" lon="5.8856">
        <ele>667</ele>
        <time>2019-06-15T07:29:14Z</time>
      </trkpt>
      <trkpt lat="44.37684" lon="5.88555">
        <ele>668</ele>
        <time>2019-06-15T07:29:15Z</time>
      </trkpt>
      <trkpt lat="44.37685" lon="5.88551">
        <ele>668</ele>
        <time>2019-06-15T07:29:16Z</time>
      </trkpt>
      <trkpt lat="44.37687" lon="5.88547">
        <ele>668</ele>
        <time>2019-06-15T07:29:17Z</time>
      </trkpt>
      <trkpt lat="44.37689" lon="5.88543">
        <ele>668</ele>
        <time>2019-06-15T07:29:18Z</time>
      </trkpt>
      <trkpt lat="44.37691" lon="5.8854">
        <ele>668</ele>
        <time>2019-06-15T07:29:19Z</time>
      </trkpt>
      <trkpt lat="44.37693" lon="5.88536">
        <ele>669</ele>
        <time>2019-06-15T07:29:20Z</time>
      </trkpt>
      <trkpt lat="44.37694" lon="5.88532">
        <ele>669</ele>
        <time>2019-06-15T07:29:21Z</time>
      </trkpt>
      <trkpt lat="44.37696" lon="5.88528">
        <ele>669</ele>
        <time>2019-06-15T07:29:22Z</time>
      </trkpt>
      <trkpt lat="44.37698" lon="5.88523">
        <ele>669</ele>
        <time>2019-06-15T07:29:23Z</time>
      </trkpt>
      <trkpt lat="44.377" lon="5.88519">
        <ele>669</ele>
        <time>2019-06-15T07:29:24Z</time>
      </trkpt>
      <trkpt lat="44.37701" lon="5.88515">
        <ele>670</ele>
        <time>2019-06-15T07:29:25Z</time>
      </trkpt>
      <trkpt lat="44.37703" lon="5.88511">
        <ele>670</ele>
        <time>2019-06-15T07:29:26Z</time>
      </trkpt>
      <trkpt lat="44.37704" lon="5.88506">
        <ele>670</ele>
        <time>2019-06-15T07:29:27Z</time>
      </trkpt>
      <trkpt lat="44.37705" lon="5.88501">
        <ele>670</ele>
        <time>2019-06-15T07:29:28Z</time>
      </trkpt>
      <trkpt lat="44.37706" lon="5.88496">
        <ele>671</ele>
        <time>2019-06-15T07:29:29Z</time>
      </trkpt>
      <trkpt lat="44.37706" lon="5.8849">
        <ele>671</ele>
        <time>2019-06-15T07:29:30Z</time>
      </trkpt>
      <trkpt lat="44.37705" lon="5.88485">
        <ele>671</ele>
        <time>2019-06-15T07:29:31Z</time>
      </trkpt>
      <trkpt lat="44.37704" lon="5.88481">
        <ele>671</ele>
        <time>2019-06-15T07:29:32Z</time>
      </trkpt>
      <trkpt lat="44.37703" lon="5.88476">
        <ele>671</ele>
        <time>2019-06-15T07:29:33Z</time>
      </trkpt>
      <trkpt lat="44.37701" lon="5.88472">
        <ele>671</ele>
        <time>2019-06-15T07:29:34Z</time>
      </trkpt>
      <trkpt lat="44.37701" lon="5.88467">
        <ele>671</ele>
        <time>2019-06-15T07:29:35Z</time>
      </trkpt>
      <trkpt lat="44.37699" lon="5.88462">
        <ele>672</ele>
        <time>2019-06-15T07:29:36Z</time>
      </trkpt>
      <trkpt lat="44.37698" lon="5.88457">
        <ele>672</ele>
        <time>2019-06-15T07:29:37Z</time>
      </trkpt>
      <trkpt lat="44.37696" lon="5.88453">
        <ele>672</ele>
        <time>2019-06-15T07:29:38Z</time>
      </trkpt>
      <trkpt lat="44.37694" lon="5.88449">
        <ele>672</ele>
        <time>2019-06-15T07:29:39Z</time>
      </trkpt>
      <trkpt lat="44.37693" lon="5.88445">
        <ele>672</ele>
        <time>2019-06-15T07:29:40Z</time>
      </trkpt>
      <trkpt lat="44.37691" lon="5.88441">
        <ele>672</ele>
        <time>2019-06-15T07:29:41Z</time>
      </trkpt>
      <trkpt lat="44.3769" lon="5.88437">
        <ele>672</ele>
        <time>2019-06-15T07:29:42Z</time>
      </trkpt>
      <trkpt lat="44.37688" lon="5.88434">
        <ele>672</ele>
        <time>2019-06-15T07:29:43Z</time>
      </trkpt>
      <trkpt lat="44.37687" lon="5.8843">
        <ele>673</ele>
        <time>2019-06-15T07:29:44Z</time>
      </trkpt>
      <trkpt lat="44.37685" lon="5.88426">
        <ele>673</ele>
        <time>2019-06-15T07:29:45Z</time>
      </trkpt>
      <trkpt lat="44.37683" lon="5.88422">
        <ele>673</ele>
        <time>2019-06-15T07:29:46Z</time>
      </trkpt>
      <trkpt lat="44.37682" lon="5.88419">
        <ele>673</ele>
        <time>2019-06-15T07:29:47Z</time>
      </trkpt>
      <trkpt lat="44.3768" lon="5.88415">
        <ele>674</ele>
        <time>2019-06-15T07:29:48Z</time>
      </trkpt>
      <trkpt lat="44.37678" lon="5.88411">
        <ele>674</ele>
        <time>2019-06-15T07:29:49Z</time>
      </trkpt>
      <trkpt lat="44.37677" lon="5.88407">
        <ele>674</ele>
        <time>2019-06-15T07:29:50Z</time>
      </trkpt>
      <trkpt lat="44.37675" lon="5.88403">
        <ele>674</ele>
        <time>2019-06-15T07:29:51Z</time>
      </trkpt>
      <trkpt lat="44.37674" lon="5.88399">
        <ele>675</ele>
        <time>2019-06-15T07:29:52Z</time>
      </trkpt>
      <trkpt lat="44.37673" lon="5.88394">
        <ele>675</ele>
        <time>2019-06-15T07:29:53Z</time>
      </trkpt>
      <trkpt lat="44.37671" lon="5.8839">
        <ele>675</ele>
        <time>2019-06-15T07:29:54Z</time>
      </trkpt>
      <trkpt lat="44.3767" lon="5.88386">
        <ele>676</ele>
        <time>2019-06-15T07:29:55Z</time>
      </trkpt>
      <trkpt lat="44.37669" lon="5.88382">
        <ele>676</ele>
        <time>2019-06-15T07:29:56Z</time>
      </trkpt>
      <trkpt lat="44.37668" lon="5.88378">
        <ele>676</ele>
        <time>2019-06-15T07:29:57Z</time>
      </trkpt>
      <trkpt lat="44.37666" lon="5.88374">
        <ele>677</ele>
        <time>2019-06-15T07:29:58Z</time>
      </trkpt>
      <trkpt lat="44.37666" lon="5.8837">
        <ele>677</ele>
        <time>2019-06-15T07:29:59Z</time>
      </trkpt>
      <trkpt lat="44.37665" lon="5.88366">
        <ele>677</ele>
        <time>2019-06-15T07:30:00Z</time>
      </trkpt>
      <trkpt lat="44.37664" lon="5.88362">
        <ele>677</ele>
        <time>2019-06-15T07:30:01Z</time>
      </trkpt>
      <trkpt lat="44.37664" lon="5.88358">
        <ele>677</ele>
        <time>2019-06-15T07:30:02Z</time>
      </trkpt>
      <trkpt lat="44.37663" lon="5.88354">
        <ele>677</ele>
        <time>2019-06-15T07:30:03Z</time>
      </trkpt>
      <trkpt lat="44.37662" lon="5.8835">
        <ele>677</ele>
        <time>2019-06-15T07:30:04Z</time>
      </trkpt>
      <trkpt lat="44.37661" lon="5.88345">
        <ele>677</ele>
        <time>2019-06-15T07:30:05Z</time>
      </trkpt>
      <trkpt lat="44.3766" lon="5.88341">
        <ele>678</ele>
        <time>2019-06-15T07:30:06Z</time>
      </trkpt>
      <trkpt lat="44.37659" lon="5.88336">
        <ele>678</ele>
        <time>2019-06-15T07:30:07Z</time>
      </trkpt>
      <trkpt lat="44.37659" lon="5.88332">
        <ele>678</ele>
        <time>2019-06-15T07:30:08Z</time>
      </trkpt>
      <trkpt lat="44.37658" lon="5.88327">
        <ele>679</ele>
        <time>2019-06-15T07:30:09Z</time>
      </trkpt>
      <trkpt lat="44.37658" lon="5.88322">
        <ele>679</ele>
        <time>2019-06-15T07:30:10Z</time>
      </trkpt>
      <trkpt lat="44.37656" lon="5.88318">
        <ele>679</ele>
        <time>2019-06-15T07:30:11Z</time>
      </trkpt>
      <trkpt lat="44.37656" lon="5.88313">
        <ele>680</ele>
        <time>2019-06-15T07:30:12Z</time>
      </trkpt>
      <trkpt lat="44.37655" lon="5.88309">
        <ele>680</ele>
        <time>2019-06-15T07:30:13Z</time>
      </trkpt>
      <trkpt lat="44.37654" lon="5.88304">
        <ele>681</ele>
        <time>2019-06-15T07:30:14Z</time>
      </trkpt>
      <trkpt lat="44.37653" lon="5.883">
        <ele>681</ele>
        <time>2019-06-15T07:30:15Z</time>
      </trkpt>
      <trkpt lat="44.37653" lon="5.88295">
        <ele>681</ele>
        <time>2019-06-15T07:30:16Z</time>
      </trkpt>
      <trkpt lat="44.37652" lon="5.88291">
        <ele>682</ele>
        <time>2019-06-15T07:30:17Z</time>
      </trkpt>
      <trkpt lat="44.37651" lon="5.88287">
        <ele>683</ele>
        <time>2019-06-15T07:30:18Z</time>
      </trkpt>
      <trkpt lat="44.3765" lon="5.88283">
        <ele>683</ele>
        <time>2019-06-15T07:30:19Z</time>
      </trkpt>
      <trkpt lat="44.3765" lon="5.88279">
        <ele>684</ele>
        <time>2019-06-15T07:30:20Z</time>
      </trkpt>
      <trkpt lat="44.37649" lon="5.88275">
        <ele>684</ele>
        <time>2019-06-15T07:30:21Z</time>
      </trkpt>
      <trkpt lat="44.37648" lon="5.88272">
        <ele>684</ele>
        <time>2019-06-15T07:30:22Z</time>
      </trkpt>
      <trkpt lat="44.37647" lon="5.88268">
        <ele>685</ele>
        <time>2019-06-15T07:30:23Z</time>
      </trkpt>
      <trkpt lat="44.37646" lon="5.88264">
        <ele>685</ele>
        <time>2019-06-15T07:30:24Z</time>
      </trkpt>
      <trkpt lat="44.37646" lon="5.8826">
        <ele>686</ele>
        <time>2019-06-15T07:30:25Z</time>
      </trkpt>
      <trkpt lat="44.37645" lon="5.88257">
        <ele>686</ele>
        <time>2019-06-15T07:30:26Z</time>
      </trkpt>
      <trkpt lat="44.37645" lon="5.88253">
        <ele>686</ele>
        <time>2019-06-15T07:30:27Z</time>
      </trkpt>
      <trkpt lat="44.37644" lon="5.88249">
        <ele>687</ele>
        <time>2019-06-15T07:30:28Z</time>
      </trkpt>
      <trkpt lat="44.37644" lon="5.88245">
        <ele>687</ele>
        <time>2019-06-15T07:30:29Z</time>
      </trkpt>
      <trkpt lat="44.37644" lon="5.88241">
        <ele>687</ele>
        <time>2019-06-15T07:30:30Z</time>
      </trkpt>
      <trkpt lat="44.37643" lon="5.88238">
        <ele>687</ele>
        <time>2019-06-15T07:30:31Z</time>
      </trkpt>
      <trkpt lat="44.37642" lon="5.88234">
        <ele>688</ele>
        <time>2019-06-15T07:30:32Z</time>
      </trkpt>
      <trkpt lat="44.37642" lon="5.88231">
        <ele>688</ele>
        <time>2019-06-15T07:30:33Z</time>
      </trkpt>
      <trkpt lat="44.37642" lon="5.88228">
        <ele>688</ele>
        <time>2019-06-15T07:30:34Z</time>
      </trkpt>
      <trkpt lat="44.37642" lon="5.88225">
        <ele>688</ele>
        <time>2019-06-15T07:30:35Z</time>
      </trkpt>
      <trkpt lat="44.37642" lon="5.88221">
        <ele>689</ele>
        <time>2019-06-15T07:30:36Z</time>
      </trkpt>
      <trkpt lat="44.37642" lon="5.88218">
        <ele>689</ele>
        <time>2019-06-15T07:30:37Z</time>
      </trkpt>
      <trkpt lat="44.37642" lon="5.88214">
        <ele>689</ele>
        <time>2019-06-15T07:30:38Z</time>
      </trkpt>
      <trkpt lat="44.37643" lon="5.8821">
        <ele>689</ele>
        <time>2019-06-15T07:30:39Z</time>
      </trkpt>
      <trkpt lat="44.37643" lon="5.88206">
        <ele>689</ele>
        <time>2019-06-15T07:30:40Z</time>
      </trkpt>
      <trkpt lat="44.37643" lon="5.88203">
        <ele>689</ele>
        <time>2019-06-15T07:30:41Z</time>
      </trkpt>
      <trkpt lat="44.37643" lon="5.88199">
        <ele>690</ele>
        <time>2019-06-15T07:30:42Z</time>
      </trkpt>
      <trkpt lat="44.37643" lon="5.88196">
        <ele>690</ele>
        <time>2019-06-15T07:30:43Z</time>
      </trkpt>
      <trkpt lat="44.37643" lon="5.88192">
        <ele>690</ele>
        <time>2019-06-15T07:30:44Z</time>
      </trkpt>
      <trkpt lat="44.37643" lon="5.88188">
        <ele>690</ele>
        <time>2019-06-15T07:30:45Z</time>
      </trkpt>
      <trkpt lat="44.37643" lon="5.88185">
        <ele>691</ele>
        <time>2019-06-15T07:30:46Z</time>
      </trkpt>
      <trkpt lat="44.37643" lon="5.88181">
        <ele>691</ele>
        <time>2019-06-15T07:30:47Z</time>
      </trkpt>
      <trkpt lat="44.37644" lon="5.88178">
        <ele>691</ele>
        <time>2019-06-15T07:30:48Z</time>
      </trkpt>
      <trkpt lat="44.37644" lon="5.88175">
        <ele>691</ele>
        <time>2019-06-15T07:30:49Z</time>
      </trkpt>
      <trkpt lat="44.37644" lon="5.88171">
        <ele>691</ele>
        <time>2019-06-15T07:30:50Z</time>
      </trkpt>
      <trkpt lat="44.37644" lon="5.88168">
        <ele>691</ele>
        <time>2019-06-15T07:30:51Z</time>
      </trkpt>
      <trkpt lat="44.37645" lon="5.88165">
        <ele>691</ele>
        <time>2019-06-15T07:30:52Z</time>
      </trkpt>
      <trkpt lat="44.37645" lon="5.88161">
        <ele>691</ele>
        <time>2019-06-15T07:30:53Z</time>
      </trkpt>
      <trkpt lat="44.37645" lon="5.88158">
        <ele>691</ele>
        <time>2019-06-15T07:30:54Z</time>
      </trkpt>
      <trkpt lat="44.37645" lon="5.88154">
        <ele>692</ele>
        <time>2019-06-15T07:30:55Z</time>
      </trkpt>
      <trkpt lat="44.37646" lon="5.88151">
        <ele>692</ele>
        <time>2019-06-15T07:30:56Z</time>
      </trkpt>
      <trkpt lat="44.37646" lon="5.88147">
        <ele>692</ele>
        <time>2019-06-15T07:30:57Z</time>
      </trkpt>
      <trkpt lat="44.37646" lon="5.88144">
        <ele>692</ele>
        <time>2019-06-15T07:30:58Z</time>
      </trkpt>
      <trkpt lat="44.37647" lon="5.8814">
        <ele>693</ele>
        <time>2019-06-15T07:30:59Z</time>
      </trkpt>
      <trkpt lat="44.37647" lon="5.88137">
        <ele>693</ele>
        <time>2019-06-15T07:31:00Z</time>
      </trkpt>
      <trkpt lat="44.37648" lon="5.88133">
        <ele>693</ele>
        <time>2019-06-15T07:31:01Z</time>
      </trkpt>
      <trkpt lat="44.37648" lon="5.8813">
        <ele>693</ele>
        <time>2019-06-15T07:31:02Z</time>
      </trkpt>
      <trkpt lat="44.37648" lon="5.88126">
        <ele>693</ele>
        <time>2019-06-15T07:31:03Z</time>
      </trkpt>
      <trkpt lat="44.37648" lon="5.88123">
        <ele>694</ele>
        <time>2019-06-15T07:31:04Z</time>
      </trkpt>
      <trkpt lat="44.37649" lon="5.88119">
        <ele>694</ele>
        <time>2019-06-15T07:31:05Z</time>
      </trkpt>
      <trkpt lat="44.37649" lon="5.88116">
        <ele>694</ele>
        <time>2019-06-15T07:31:06Z</time>
      </trkpt>
      <trkpt lat="44.37649" lon="5.88113">
        <ele>694</ele>
        <time>2019-06-15T07:31:07Z</time>
      </trkpt>
      <trkpt lat="44.3765" lon="5.88109">
        <ele>694</ele>
        <time>2019-06-15T07:31:08Z</time>
      </trkpt>
      <trkpt lat="44.3765" lon="5.88106">
        <ele>694</ele>
        <time>2019-06-15T07:31:09Z</time>
      </trkpt>
      <trkpt lat="44.3765" lon="5.88103">
        <ele>694</ele>
        <time>2019-06-15T07:31:10Z</time>
      </trkpt>
      <trkpt lat="44.3765" lon="5.881">
        <ele>694</ele>
        <time>2019-06-15T07:31:11Z</time>
      </trkpt>
      <trkpt lat="44.3765" lon="5.88097">
        <ele>694</ele>
        <time>2019-06-15T07:31:12Z</time>
      </trkpt>
      <trkpt lat="44.3765" lon="5.88093">
        <ele>695</ele>
        <time>2019-06-15T07:31:13Z</time>
      </trkpt>
      <trkpt lat="44.3765" lon="5.8809">
        <ele>695</ele>
        <time>2019-06-15T07:31:14Z</time>
      </trkpt>
      <trkpt lat="44.37651" lon="5.88087">
        <ele>695</ele>
        <time>2019-06-15T07:31:15Z</time>
      </trkpt>
      <trkpt lat="44.37651" lon="5.88084">
        <ele>695</ele>
        <time>2019-06-15T07:31:16Z</time>
      </trkpt>
      <trkpt lat="44.37651" lon="5.88081">
        <ele>695</ele>
        <time>2019-06-15T07:31:17Z</time>
      </trkpt>
      <trkpt lat="44.37651" lon="5.88078">
        <ele>696</ele>
        <time>2019-06-15T07:31:18Z</time>
      </trkpt>
      <trkpt lat="44.37652" lon="5.88075">
        <ele>696</ele>
        <time>2019-06-15T07:31:19Z</time>
      </trkpt>
      <trkpt lat="44.37652" lon="5.88072">
        <ele>696</ele>
        <time>2019-06-15T07:31:20Z</time>
      </trkpt>
      <trkpt lat="44.37653" lon="5.88069">
        <ele>696</ele>
        <time>2019-06-15T07:31:21Z</time>
      </trkpt>
      <trkpt lat="44.37653" lon="5.88066">
        <ele>697</ele>
        <time>2019-06-15T07:31:22Z</time>
      </trkpt>
      <trkpt lat="44.37653" lon="5.88063">
        <ele>697</ele>
        <time>2019-06-15T07:31:23Z</time>
      </trkpt>
      <trkpt lat="44.37653" lon="5.8806">
        <ele>697</ele>
        <time>2019-06-15T07:31:24Z</time>
      </trkpt>
      <trkpt lat="44.37653" lon="5.88058">
        <ele>697</ele>
        <time>2019-06-15T07:31:25Z</time>
      </trkpt>
      <trkpt lat="44.37653" lon="5.88055">
        <ele>697</ele>
        <time>2019-06-15T07:31:26Z</time>
      </trkpt>
      <trkpt lat="44.37654" lon="5.88052">
        <ele>697</ele>
        <time>2019-06-15T07:31:27Z</time>
      </trkpt>
      <trkpt lat="44.37654" lon="5.88049">
        <ele>697</ele>
        <time>2019-06-15T07:31:28Z</time>
      </trkpt>
      <trkpt lat="44.37654" lon="5.88045">
        <ele>698</ele>
        <time>2019-06-15T07:31:29Z</time>
      </trkpt>
      <trkpt lat="44.37654" lon="5.88042">
        <ele>698</ele>
        <time>2019-06-15T07:31:30Z</time>
      </trkpt>
      <trkpt lat="44.37655" lon="5.88039">
        <ele>698</ele>
        <time>2019-06-15T07:31:31Z</time>
      </trkpt>
      <trkpt lat="44.37655" lon="5.88036">
        <ele>698</ele>
        <time>2019-06-15T07:31:32Z</time>
      </trkpt>
      <trkpt lat="44.37655" lon="5.88033">
        <ele>698</ele>
        <time>2019-06-15T07:31:33Z</time>
      </trkpt>
      <trkpt lat="44.37655" lon="5.88029">
        <ele>698</ele>
        <time>2019-06-15T07:31:34Z</time>
      </trkpt>
      <trkpt lat="44.37656" lon="5.88027">
        <ele>698</ele>
        <time>2019-06-15T07:31:35Z</time>
      </trkpt>
      <trkpt lat="44.37656" lon="5.88023">
        <ele>699</ele>
        <time>2019-06-15T07:31:36Z</time>
      </trkpt>
      <trkpt lat="44.37656" lon="5.8802">
        <ele>699</ele>
        <time>2019-06-15T07:31:37Z</time>
      </trkpt>
      <trkpt lat="44.37656" lon="5.88017">
        <ele>699</ele>
        <time>2019-06-15T07:31:38Z</time>
      </trkpt>
      <trkpt lat="44.37656" lon="5.88014">
        <ele>699</ele>
        <time>2019-06-15T07:31:39Z</time>
      </trkpt>
      <trkpt lat="44.37656" lon="5.88011">
        <ele>699</ele>
        <time>2019-06-15T07:31:40Z</time>
      </trkpt>
      <trkpt lat="44.37656" lon="5.88008">
        <ele>700</ele>
        <time>2019-06-15T07:31:41Z</time>
      </trkpt>
      <trkpt lat="44.37657" lon="5.88005">
        <ele>700</ele>
        <time>2019-06-15T07:31:42Z</time>
      </trkpt>
      <trkpt lat="44.37658" lon="5.88003">
        <ele>700</ele>
        <time>2019-06-15T07:31:43Z</time>
      </trkpt>
      <trkpt lat="44.37658" lon="5.88">
        <ele>700</ele>
        <time>2019-06-15T07:31:44Z</time>
      </trkpt>
      <trkpt lat="44.37658" lon="5.87997">
        <ele>701</ele>
        <time>2019-06-15T07:31:45Z</time>
      </trkpt>
      <trkpt lat="44.37658" lon="5.87994">
        <ele>701</ele>
        <time>2019-06-15T07:31:46Z</time>
      </trkpt>
      <trkpt lat="44.37658" lon="5.87991">
        <ele>701</ele>
        <time>2019-06-15T07:31:47Z</time>
      </trkpt>
      <trkpt lat="44.37658" lon="5.87988">
        <ele>701</ele>
        <time>2019-06-15T07:31:48Z</time>
      </trkpt>
      <trkpt lat="44.37659" lon="5.87985">
        <ele>701</ele>
        <time>2019-06-15T07:31:49Z</time>
      </trkpt>
      <trkpt lat="44.37659" lon="5.87982">
        <ele>701</ele>
        <time>2019-06-15T07:31:50Z</time>
      </trkpt>
      <trkpt lat="44.37659" lon="5.8798">
        <ele>701</ele>
        <time>2019-06-15T07:31:51Z</time>
      </trkpt>
      <trkpt lat="44.37659" lon="5.87977">
        <ele>702</ele>
        <time>2019-06-15T07:31:52Z</time>
      </trkpt>
      <trkpt lat="44.37659" lon="5.87974">
        <ele>702</ele>
        <time>2019-06-15T07:31:53Z</time>
      </trkpt>
      <trkpt lat="44.37659" lon="5.87972">
        <ele>702</ele>
        <time>2019-06-15T07:31:54Z</time>
      </trkpt>
      <trkpt lat="44.37659" lon="5.87969">
        <ele>703</ele>
        <time>2019-06-15T07:31:55Z</time>
      </trkpt>
      <trkpt lat="44.37659" lon="5.87966">
        <ele>703</ele>
        <time>2019-06-15T07:31:56Z</time>
      </trkpt>
      <trkpt lat="44.37659" lon="5.87963">
        <ele>703</ele>
        <time>2019-06-15T07:31:57Z</time>
      </trkpt>
      <trkpt lat="44.37659" lon="5.8796">
        <ele>703</ele>
        <time>2019-06-15T07:31:58Z</time>
      </trkpt>
      <trkpt lat="44.37659" lon="5.87958">
        <ele>704</ele>
        <time>2019-06-15T07:31:59Z</time>
      </trkpt>
      <trkpt lat="44.37659" lon="5.87955">
        <ele>704</ele>
        <time>2019-06-15T07:32:00Z</time>
      </trkpt>
      <trkpt lat="44.37659" lon="5.87952">
        <ele>704</ele>
        <time>2019-06-15T07:32:01Z</time>
      </trkpt>
      <trkpt lat="44.37659" lon="5.87949">
        <ele>704</ele>
        <time>2019-06-15T07:32:02Z</time>
      </trkpt>
      <trkpt lat="44.37659" lon="5.87947">
        <ele>704</ele>
        <time>2019-06-15T07:32:03Z</time>
      </trkpt>
      <trkpt lat="44.37659" lon="5.87944">
        <ele>705</ele>
        <time>2019-06-15T07:32:04Z</time>
      </trkpt>
      <trkpt lat="44.37659" lon="5.87941">
        <ele>705</ele>
        <time>2019-06-15T07:32:05Z</time>
      </trkpt>
      <trkpt lat="44.37659" lon="5.87938">
        <ele>705</ele>
        <time>2019-06-15T07:32:06Z</time>
      </trkpt>
      <trkpt lat="44.37659" lon="5.87935">
        <ele>705</ele>
        <time>2019-06-15T07:32:07Z</time>
      </trkpt>
      <trkpt lat="44.37658" lon="5.87933">
        <ele>706</ele>
        <time>2019-06-15T07:32:08Z</time>
      </trkpt>
      <trkpt lat="44.37658" lon="5.87931">
        <ele>706</ele>
        <time>2019-06-15T07:32:09Z</time>
      </trkpt>
      <trkpt lat="44.37658" lon="5.87928">
        <ele>706</ele>
        <time>2019-06-15T07:32:10Z</time>
      </trkpt>
      <trkpt lat="44.37658" lon="5.87926">
        <ele>707</ele>
        <time>2019-06-15T07:32:11Z</time>
      </trkpt>
      <trkpt lat="44.37657" lon="5.87923">
        <ele>707</ele>
        <time>2019-06-15T07:32:12Z</time>
      </trkpt>
      <trkpt lat="44.37656" lon="5.87921">
        <ele>708</ele>
        <time>2019-06-15T07:32:13Z</time>
      </trkpt>
      <trkpt lat="44.37656" lon="5.87919">
        <ele>708</ele>
        <time>2019-06-15T07:32:14Z</time>
      </trkpt>
      <trkpt lat="44.37655" lon="5.87916">
        <ele>709</ele>
        <time>2019-06-15T07:32:15Z</time>
      </trkpt>
      <trkpt lat="44.37655" lon="5.87914">
        <ele>709</ele>
        <time>2019-06-15T07:32:16Z</time>
      </trkpt>
      <trkpt lat="44.37655" lon="5.87911">
        <ele>709</ele>
        <time>2019-06-15T07:32:17Z</time>
      </trkpt>
      <trkpt lat="44.37655" lon="5.87908">
        <ele>710</ele>
        <time>2019-06-15T07:32:18Z</time>
      </trkpt>
      <trkpt lat="44.37654" lon="5.87905">
        <ele>710</ele>
        <time>2019-06-15T07:32:19Z</time>
      </trkpt>
      <trkpt lat="44.37654" lon="5.87902">
        <ele>710</ele>
        <time>2019-06-15T07:32:20Z</time>
      </trkpt>
      <trkpt lat="44.37654" lon="5.87899">
        <ele>710</ele>
        <time>2019-06-15T07:32:21Z</time>
      </trkpt>
      <trkpt lat="44.37653" lon="5.87896">
        <ele>710</ele>
        <time>2019-06-15T07:32:22Z</time>
      </trkpt>
      <trkpt lat="44.37653" lon="5.87894">
        <ele>710</ele>
        <time>2019-06-15T07:32:23Z</time>
      </trkpt>
      <trkpt lat="44.37652" lon="5.87891">
        <ele>711</ele>
        <time>2019-06-15T07:32:24Z</time>
      </trkpt>
      <trkpt lat="44.37652" lon="5.87888">
        <ele>711</ele>
        <time>2019-06-15T07:32:25Z</time>
      </trkpt>
      <trkpt lat="44.37651" lon="5.87886">
        <ele>711</ele>
        <time>2019-06-15T07:32:26Z</time>
      </trkpt>
      <trkpt lat="44.3765" lon="5.87884">
        <ele>711</ele>
        <time>2019-06-15T07:32:27Z</time>
      </trkpt>
      <trkpt lat="44.3765" lon="5.87881">
        <ele>711</ele>
        <time>2019-06-15T07:32:28Z</time>
      </trkpt>
      <trkpt lat="44.37649" lon="5.87879">
        <ele>711</ele>
        <time>2019-06-15T07:32:29Z</time>
      </trkpt>
      <trkpt lat="44.37649" lon="5.87877">
        <ele>711</ele>
        <time>2019-06-15T07:32:30Z</time>
      </trkpt>
      <trkpt lat="44.37649" lon="5.87874">
        <ele>711</ele>
        <time>2019-06-15T07:32:31Z</time>
      </trkpt>
      <trkpt lat="44.37648" lon="5.87872">
        <ele>711</ele>
        <time>2019-06-15T07:32:32Z</time>
      </trkpt>
      <trkpt lat="44.37649" lon="5.87869">
        <ele>711</ele>
        <time>2019-06-15T07:32:33Z</time>
      </trkpt>
      <trkpt lat="44.37648" lon="5.87866">
        <ele>711</ele>
        <time>2019-06-15T07:32:34Z</time>
      </trkpt>
      <trkpt lat="44.37648" lon="5.87864">
        <ele>711</ele>
        <time>2019-06-15T07:32:35Z</time>
      </trkpt>
      <trkpt lat="44.37647" lon="5.87861">
        <ele>711</ele>
        <time>2019-06-15T07:32:36Z</time>
      </trkpt>
      <trkpt lat="44.37646" lon="5.87859">
        <ele>711</ele>
        <time>2019-06-15T07:32:37Z</time>
      </trkpt>
      <trkpt lat="44.37645" lon="5.87857">
        <ele>712</ele>
        <time>2019-06-15T07:32:38Z</time>
      </trkpt>
      <trkpt lat="44.37644" lon="5.87855">
        <ele>712</ele>
        <time>2019-06-15T07:32:39Z</time>
      </trkpt>
      <trkpt lat="44.37644" lon="5.87852">
        <ele>713</ele>
        <time>2019-06-15T07:32:40Z</time>
      </trkpt>
      <trkpt lat="44.37643" lon="5.8785">
        <ele>713</ele>
        <time>2019-06-15T07:32:41Z</time>
      </trkpt>
      <trkpt lat="44.37643" lon="5.87848">
        <ele>713</ele>
        <time>2019-06-15T07:32:42Z</time>
      </trkpt>
      <trkpt lat="44.37642" lon="5.87846">
        <ele>714</ele>
        <time>2019-06-15T07:32:43Z</time>
      </trkpt>
      <trkpt lat="44.37642" lon="5.87843">
        <ele>714</ele>
        <time>2019-06-15T07:32:44Z</time>
      </trkpt>
      <trkpt lat="44.37641" lon="5.87841">
        <ele>714</ele>
        <time>2019-06-15T07:32:45Z</time>
      </trkpt>
      <trkpt lat="44.37641" lon="5.87839">
        <ele>714</ele>
        <time>2019-06-15T07:32:46Z</time>
      </trkpt>
      <trkpt lat="44.3764" lon="5.87837">
        <ele>714</ele>
        <time>2019-06-15T07:32:47Z</time>
      </trkpt>
      <trkpt lat="44.3764" lon="5.87834">
        <ele>714</ele>
        <time>2019-06-15T07:32:48Z</time>
      </trkpt>
      <trkpt lat="44.37638" lon="5.87832">
        <ele>714</ele>
        <time>2019-06-15T07:32:49Z</time>
      </trkpt>
      <trkpt lat="44.37638" lon="5.8783">
        <ele>715</ele>
        <time>2019-06-15T07:32:50Z</time>
      </trkpt>
      <trkpt lat="44.37637" lon="5.87828">
        <ele>715</ele>
        <time>2019-06-15T07:32:51Z</time>
      </trkpt>
      <trkpt lat="44.37637" lon="5.87826">
        <ele>715</ele>
        <time>2019-06-15T07:32:52Z</time>
      </trkpt>
      <trkpt lat="44.37636" lon="5.87823">
        <ele>715</ele>
        <time>2019-06-15T07:32:53Z</time>
      </trkpt>
      <trkpt lat="44.37635" lon="5.87821">
        <ele>715</ele>
        <time>2019-06-15T07:32:54Z</time>
      </trkpt>
      <trkpt lat="44.37635" lon="5.87819">
        <ele>715</ele>
        <time>2019-06-15T07:32:55Z</time>
      </trkpt>
      <trkpt lat="44.37635" lon="5.87816">
        <ele>715</ele>
        <time>2019-06-15T07:32:56Z</time>
      </trkpt>
      <trkpt lat="44.37634" lon="5.87813">
        <ele>715</ele>
        <time>2019-06-15T07:32:57Z</time>
      </trkpt>
      <trkpt lat="44.37633" lon="5.87811">
        <ele>715</ele>
        <time>2019-06-15T07:32:58Z</time>
      </trkpt>
      <trkpt lat="44.37632" lon="5.87808">
        <ele>715</ele>
        <time>2019-06-15T07:32:59Z</time>
      </trkpt>
      <trkpt lat="44.37632" lon="5.87804">
        <ele>715</ele>
        <time>2019-06-15T07:33:00Z</time>
      </trkpt>
      <trkpt lat="44.37631" lon="5.87801">
        <ele>715</ele>
        <time>2019-06-15T07:33:01Z</time>
      </trkpt>
      <trkpt lat="44.37631" lon="5.87797">
        <ele>715</ele>
        <time>2019-06-15T07:33:02Z</time>
      </trkpt>
      <trkpt lat="44.3763" lon="5.87794">
        <ele>715</ele>
        <time>2019-06-15T07:33:03Z</time>
      </trkpt>
      <trkpt lat="44.3763" lon="5.8779">
        <ele>715</ele>
        <time>2019-06-15T07:33:04Z</time>
      </trkpt>
      <trkpt lat="44.3763" lon="5.87786">
        <ele>715</ele>
        <time>2019-06-15T07:33:05Z</time>
      </trkpt>
      <trkpt lat="44.37629" lon="5.87782">
        <ele>715</ele>
        <time>2019-06-15T07:33:06Z</time>
      </trkpt>
      <trkpt lat="44.37629" lon="5.87779">
        <ele>715</ele>
        <time>2019-06-15T07:33:07Z</time>
      </trkpt>
      <trkpt lat="44.37629" lon="5.87776">
        <ele>715</ele>
        <time>2019-06-15T07:33:08Z</time>
      </trkpt>
      <trkpt lat="44.37629" lon="5.87772">
        <ele>715</ele>
        <time>2019-06-15T07:33:09Z</time>
      </trkpt>
      <trkpt lat="44.37628" lon="5.87769">
        <ele>715</ele>
        <time>2019-06-15T07:33:10Z</time>
      </trkpt>
      <trkpt lat="44.37628" lon="5.87766">
        <ele>715</ele>
        <time>2019-06-15T07:33:11Z</time>
      </trkpt>
      <trkpt lat="44.37628" lon="5.87762">
        <ele>716</ele>
        <time>2019-06-15T07:33:12Z</time>
      </trkpt>
      <trkpt lat="44.37628" lon="5.87759">
        <ele>716</ele>
        <time>2019-06-15T07:33:13Z</time>
      </trkpt>
      <trkpt lat="44.37628" lon="5.87756">
        <ele>716</ele>
        <time>2019-06-15T07:33:14Z</time>
      </trkpt>
      <trkpt lat="44.37627" lon="5.87753">
        <ele>716</ele>
        <time>2019-06-15T07:33:15Z</time>
      </trkpt>
      <trkpt lat="44.37627" lon="5.87749">
        <ele>717</ele>
        <time>2019-06-15T07:33:16Z</time>
      </trkpt>
      <trkpt lat="44.37627" lon="5.87746">
        <ele>717</ele>
        <time>2019-06-15T07:33:17Z</time>
      </trkpt>
      <trkpt lat="44.37627" lon="5.87743">
        <ele>717</ele>
        <time>2019-06-15T07:33:18Z</time>
      </trkpt>
      <trkpt lat="44.37627" lon="5.8774">
        <ele>717</ele>
        <time>2019-06-15T07:33:19Z</time>
      </trkpt>
      <trkpt lat="44.37627" lon="5.87737">
        <ele>718</ele>
        <time>2019-06-15T07:33:20Z</time>
      </trkpt>
      <trkpt lat="44.37627" lon="5.87734">
        <ele>718</ele>
        <time>2019-06-15T07:33:21Z</time>
      </trkpt>
      <trkpt lat="44.37627" lon="5.8773">
        <ele>718</ele>
        <time>2019-06-15T07:33:22Z</time>
      </trkpt>
      <trkpt lat="44.37627" lon="5.87727">
        <ele>718</ele>
        <time>2019-06-15T07:33:23Z</time>
      </trkpt>
      <trkpt lat="44.37627" lon="5.87724">
        <ele>719</ele>
        <time>2019-06-15T07:33:24Z</time>
      </trkpt>
      <trkpt lat="44.37627" lon="5.87721">
        <ele>719</ele>
        <time>2019-06-15T07:33:25Z</time>
      </trkpt>
      <trkpt lat="44.37626" lon="5.87718">
        <ele>719</ele>
        <time>2019-06-15T07:33:26Z</time>
      </trkpt>
      <trkpt lat="44.37626" lon="5.87716">
        <ele>720</ele>
        <time>2019-06-15T07:33:27Z</time>
      </trkpt>
      <trkpt lat="44.37626" lon="5.87712">
        <ele>720</ele>
        <time>2019-06-15T07:33:28Z</time>
      </trkpt>
      <trkpt lat="44.37626" lon="5.87709">
        <ele>721</ele>
        <time>2019-06-15T07:33:29Z</time>
      </trkpt>
      <trkpt lat="44.37625" lon="5.87706">
        <ele>721</ele>
        <time>2019-06-15T07:33:30Z</time>
      </trkpt>
      <trkpt lat="44.37625" lon="5.87703">
        <ele>722</ele>
        <time>2019-06-15T07:33:31Z</time>
      </trkpt>
      <trkpt lat="44.37625" lon="5.877">
        <ele>723</ele>
        <time>2019-06-15T07:33:32Z</time>
      </trkpt>
      <trkpt lat="44.37625" lon="5.87697">
        <ele>723</ele>
        <time>2019-06-15T07:33:33Z</time>
      </trkpt>
      <trkpt lat="44.37625" lon="5.87695">
        <ele>723</ele>
        <time>2019-06-15T07:33:34Z</time>
      </trkpt>
      <trkpt lat="44.37625" lon="5.87691">
        <ele>723</ele>
        <time>2019-06-15T07:33:35Z</time>
      </trkpt>
      <trkpt lat="44.37625" lon="5.87688">
        <ele>723</ele>
        <time>2019-06-15T07:33:36Z</time>
      </trkpt>
      <trkpt lat="44.37625" lon="5.87685">
        <ele>724</ele>
        <time>2019-06-15T07:33:37Z</time>
      </trkpt>
      <trkpt lat="44.37625" lon="5.87682">
        <ele>724</ele>
        <time>2019-06-15T07:33:38Z</time>
      </trkpt>
      <trkpt lat="44.37625" lon="5.87678">
        <ele>724</ele>
        <time>2019-06-15T07:33:39Z</time>
      </trkpt>
      <trkpt lat="44.37625" lon="5.87675">
        <ele>724</ele>
        <time>2019-06-15T07:33:40Z</time>
      </trkpt>
      <trkpt lat="44.37625" lon="5.87672">
        <ele>724</ele>
        <time>2019-06-15T07:33:41Z</time>
      </trkpt>
      <trkpt lat="44.37625" lon="5.8767">
        <ele>724</ele>
        <time>2019-06-15T07:33:42Z</time>
      </trkpt>
      <trkpt lat="44.37625" lon="5.87667">
        <ele>724</ele>
        <time>2019-06-15T07:33:43Z</time>
      </trkpt>
      <trkpt lat="44.37624" lon="5.87664">
        <ele>724</ele>
        <time>2019-06-15T07:33:44Z</time>
      </trkpt>
      <trkpt lat="44.37624" lon="5.87661">
        <ele>724</ele>
        <time>2019-06-15T07:33:45Z</time>
      </trkpt>
      <trkpt lat="44.37624" lon="5.87658">
        <ele>724</ele>
        <time>2019-06-15T07:33:46Z</time>
      </trkpt>
      <trkpt lat="44.37623" lon="5.87655">
        <ele>724</ele>
        <time>2019-06-15T07:33:47Z</time>
      </trkpt>
      <trkpt lat="44.37623" lon="5.87652">
        <ele>725</ele>
        <time>2019-06-15T07:33:48Z</time>
      </trkpt>
      <trkpt lat="44.37622" lon="5.8765">
        <ele>725</ele>
        <time>2019-06-15T07:33:49Z</time>
      </trkpt>
      <trkpt lat="44.37622" lon="5.87647">
        <ele>725</ele>
        <time>2019-06-15T07:33:50Z</time>
      </trkpt>
      <trkpt lat="44.37621" lon="5.87645">
        <ele>725</ele>
        <time>2019-06-15T07:33:51Z</time>
      </trkpt>
      <trkpt lat="44.3762" lon="5.87642">
        <ele>725</ele>
        <time>2019-06-15T07:33:52Z</time>
      </trkpt>
      <trkpt lat="44.3762" lon="5.87639">
        <ele>726</ele>
        <time>2019-06-15T07:33:53Z</time>
      </trkpt>
      <trkpt lat="44.37619" lon="5.87637">
        <ele>726</ele>
        <time>2019-06-15T07:33:54Z</time>
      </trkpt>
      <trkpt lat="44.37619" lon="5.87634">
        <ele>726</ele>
        <time>2019-06-15T07:33:55Z</time>
      </trkpt>
      <trkpt lat="44.37617" lon="5.87631">
        <ele>726</ele>
        <time>2019-06-15T07:33:56Z</time>
      </trkpt>
      <trkpt lat="44.37616" lon="5.87629">
        <ele>726</ele>
        <time>2019-06-15T07:33:57Z</time>
      </trkpt>
      <trkpt lat="44.37615" lon="5.87626">
        <ele>726</ele>
        <time>2019-06-15T07:33:58Z</time>
      </trkpt>
      <trkpt lat="44.37614" lon="5.87623">
        <ele>726</ele>
        <time>2019-06-15T07:33:59Z</time>
      </trkpt>
      <trkpt lat="44.37614" lon="5.8762">
        <ele>726</ele>
        <time>2019-06-15T07:34:00Z</time>
      </trkpt>
      <trkpt lat="44.37613" lon="5.87617">
        <ele>727</ele>
        <time>2019-06-15T07:34:01Z</time>
      </trkpt>
      <trkpt lat="44.37612" lon="5.87615">
        <ele>727</ele>
        <time>2019-06-15T07:34:02Z</time>
      </trkpt>
      <trkpt lat="44.37611" lon="5.87612">
        <ele>727</ele>
        <time>2019-06-15T07:34:03Z</time>
      </trkpt>
      <trkpt lat="44.3761" lon="5.87609">
        <ele>728</ele>
        <time>2019-06-15T07:34:04Z</time>
      </trkpt>
      <trkpt lat="44.37609" lon="5.87607">
        <ele>728</ele>
        <time>2019-06-15T07:34:05Z</time>
      </trkpt>
      <trkpt lat="44.37609" lon="5.87605">
        <ele>728</ele>
        <time>2019-06-15T07:34:06Z</time>
      </trkpt>
      <trkpt lat="44.37608" lon="5.87602">
        <ele>728</ele>
        <time>2019-06-15T07:34:07Z</time>
      </trkpt>
      <trkpt lat="44.37607" lon="5.876">
        <ele>728</ele>
        <time>2019-06-15T07:34:08Z</time>
      </trkpt>
      <trkpt lat="44.37606" lon="5.87597">
        <ele>728</ele>
        <time>2019-06-15T07:34:09Z</time>
      </trkpt>
      <trkpt lat="44.37606" lon="5.87594">
        <ele>728</ele>
        <time>2019-06-15T07:34:10Z</time>
      </trkpt>
      <trkpt lat="44.37605" lon="5.87591">
        <ele>728</ele>
        <time>2019-06-15T07:34:11Z</time>
      </trkpt>
      <trkpt lat="44.37604" lon="5.87588">
        <ele>729</ele>
        <time>2019-06-15T07:34:12Z</time>
      </trkpt>
      <trkpt lat="44.37603" lon="5.87585">
        <ele>729</ele>
        <time>2019-06-15T07:34:13Z</time>
      </trkpt>
      <trkpt lat="44.37603" lon="5.87582">
        <ele>729</ele>
        <time>2019-06-15T07:34:14Z</time>
      </trkpt>
      <trkpt lat="44.37602" lon="5.87579">
        <ele>730</ele>
        <time>2019-06-15T07:34:15Z</time>
      </trkpt>
      <trkpt lat="44.37602" lon="5.87576">
        <ele>730</ele>
        <time>2019-06-15T07:34:16Z</time>
      </trkpt>
      <trkpt lat="44.37601" lon="5.87572">
        <ele>730</ele>
        <time>2019-06-15T07:34:17Z</time>
      </trkpt>
      <trkpt lat="44.37601" lon="5.87569">
        <ele>730</ele>
        <time>2019-06-15T07:34:18Z</time>
      </trkpt>
      <trkpt lat="44.37601" lon="5.87566">
        <ele>731</ele>
        <time>2019-06-15T07:34:19Z</time>
      </trkpt>
      <trkpt lat="44.37601" lon="5.87562">
        <ele>731</ele>
        <time>2019-06-15T07:34:20Z</time>
      </trkpt>
      <trkpt lat="44.37601" lon="5.87558">
        <ele>731</ele>
        <time>2019-06-15T07:34:21Z</time>
      </trkpt>
      <trkpt lat="44.37601" lon="5.87555">
        <ele>731</ele>
        <time>2019-06-15T07:34:22Z</time>
      </trkpt>
      <trkpt lat="44.37602" lon="5.87552">
        <ele>731</ele>
        <time>2019-06-15T07:34:23Z</time>
      </trkpt>
      <trkpt lat="44.37602" lon="5.87548">
        <ele>732</ele>
        <time>2019-06-15T07:34:24Z</time>
      </trkpt>
      <trkpt lat="44.37603" lon="5.87545">
        <ele>732</ele>
        <time>2019-06-15T07:34:25Z</time>
      </trkpt>
      <trkpt lat="44.37603" lon="5.87541">
        <ele>732</ele>
        <time>2019-06-15T07:34:26Z</time>
      </trkpt>
      <trkpt lat="44.37603" lon="5.87537">
        <ele>732</ele>
        <time>2019-06-15T07:34:27Z</time>
      </trkpt>
      <trkpt lat="44.37604" lon="5.87534">
        <ele>732</ele>
        <time>2019-06-15T07:34:28Z</time>
      </trkpt>
      <trkpt lat="44.37604" lon="5.8753">
        <ele>732</ele>
        <time>2019-06-15T07:34:29Z</time>
      </trkpt>
      <trkpt lat="44.37604" lon="5.87526">
        <ele>732</ele>
        <time>2019-06-15T07:34:30Z</time>
      </trkpt>
      <trkpt lat="44.37605" lon="5.87522">
        <ele>732</ele>
        <time>2019-06-15T07:34:31Z</time>
      </trkpt>
      <trkpt lat="44.37605" lon="5.87518">
        <ele>732</ele>
        <time>2019-06-15T07:34:32Z</time>
      </trkpt>
      <trkpt lat="44.37605" lon="5.87515">
        <ele>732</ele>
        <time>2019-06-15T07:34:33Z</time>
      </trkpt>
      <trkpt lat="44.37605" lon="5.87511">
        <ele>732</ele>
        <time>2019-06-15T07:34:34Z</time>
      </trkpt>
      <trkpt lat="44.37605" lon="5.87507">
        <ele>732</ele>
        <time>2019-06-15T07:34:35Z</time>
      </trkpt>
      <trkpt lat="44.37605" lon="5.87504">
        <ele>732</ele>
        <time>2019-06-15T07:34:36Z</time>
      </trkpt>
      <trkpt lat="44.37605" lon="5.875">
        <ele>732</ele>
        <time>2019-06-15T07:34:37Z</time>
      </trkpt>
      <trkpt lat="44.37605" lon="5.87497">
        <ele>732</ele>
        <time>2019-06-15T07:34:38Z</time>
      </trkpt>
      <trkpt lat="44.37605" lon="5.87494">
        <ele>732</ele>
        <time>2019-06-15T07:34:39Z</time>
      </trkpt>
      <trkpt lat="44.37604" lon="5.87491">
        <ele>732</ele>
        <time>2019-06-15T07:34:40Z</time>
      </trkpt>
      <trkpt lat="44.37604" lon="5.87488">
        <ele>733</ele>
        <time>2019-06-15T07:34:41Z</time>
      </trkpt>
      <trkpt lat="44.37603" lon="5.87485">
        <ele>733</ele>
        <time>2019-06-15T07:34:42Z</time>
      </trkpt>
      <trkpt lat="44.37602" lon="5.87482">
        <ele>733</ele>
        <time>2019-06-15T07:34:43Z</time>
      </trkpt>
      <trkpt lat="44.37602" lon="5.87478">
        <ele>733</ele>
        <time>2019-06-15T07:34:44Z</time>
      </trkpt>
      <trkpt lat="44.37602" lon="5.87475">
        <ele>733</ele>
        <time>2019-06-15T07:34:45Z</time>
      </trkpt>
      <trkpt lat="44.37602" lon="5.87472">
        <ele>733</ele>
        <time>2019-06-15T07:34:46Z</time>
      </trkpt>
      <trkpt lat="44.37603" lon="5.87469">
        <ele>733</ele>
        <time>2019-06-15T07:34:47Z</time>
      </trkpt>
      <trkpt lat="44.37602" lon="5.87466">
        <ele>734</ele>
        <time>2019-06-15T07:34:48Z</time>
      </trkpt>
      <trkpt lat="44.37603" lon="5.87463">
        <ele>734</ele>
        <time>2019-06-15T07:34:49Z</time>
      </trkpt>
      <trkpt lat="44.37603" lon="5.8746">
        <ele>734</ele>
        <time>2019-06-15T07:34:50Z</time>
      </trkpt>
      <trkpt lat="44.37604" lon="5.87458">
        <ele>734</ele>
        <time>2019-06-15T07:34:51Z</time>
      </trkpt>
      <trkpt lat="44.37605" lon="5.87455">
        <ele>734</ele>
        <time>2019-06-15T07:34:52Z</time>
      </trkpt>
      <trkpt lat="44.37605" lon="5.87453">
        <ele>734</ele>
        <time>2019-06-15T07:34:53Z</time>
      </trkpt>
      <trkpt lat="44.37606" lon="5.8745">
        <ele>735</ele>
        <time>2019-06-15T07:34:54Z</time>
      </trkpt>
      <trkpt lat="44.37607" lon="5.87448">
        <ele>735</ele>
        <time>2019-06-15T07:34:55Z</time>
      </trkpt>
      <trkpt lat="44.37608" lon="5.87446">
        <ele>735</ele>
        <time>2019-06-15T07:34:56Z</time>
      </trkpt>
      <trkpt lat="44.37609" lon="5.87444">
        <ele>735</ele>
        <time>2019-06-15T07:34:57Z</time>
      </trkpt>
      <trkpt lat="44.3761" lon="5.87442">
        <ele>736</ele>
        <time>2019-06-15T07:34:58Z</time>
      </trkpt>
      <trkpt lat="44.37611" lon="5.87439">
        <ele>736</ele>
        <time>2019-06-15T07:34:59Z</time>
      </trkpt>
      <trkpt lat="44.37612" lon="5.87437">
        <ele>737</ele>
        <time>2019-06-15T07:35:00Z</time>
      </trkpt>
      <trkpt lat="44.37614" lon="5.87435">
        <ele>737</ele>
        <time>2019-06-15T07:35:01Z</time>
      </trkpt>
      <trkpt lat="44.37615" lon="5.87433">
        <ele>737</ele>
        <time>2019-06-15T07:35:02Z</time>
      </trkpt>
      <trkpt lat="44.37617" lon="5.87431">
        <ele>737</ele>
        <time>2019-06-15T07:35:03Z</time>
      </trkpt>
      <trkpt lat="44.37618" lon="5.87429">
        <ele>737</ele>
        <time>2019-06-15T07:35:04Z</time>
      </trkpt>
      <trkpt lat="44.3762" lon="5.87427">
        <ele>737</ele>
        <time>2019-06-15T07:35:05Z</time>
      </trkpt>
      <trkpt lat="44.37622" lon="5.87425">
        <ele>737</ele>
        <time>2019-06-15T07:35:06Z</time>
      </trkpt>
      <trkpt lat="44.37623" lon="5.87422">
        <ele>737</ele>
        <time>2019-06-15T07:35:07Z</time>
      </trkpt>
      <trkpt lat="44.37625" lon="5.8742">
        <ele>737</ele>
        <time>2019-06-15T07:35:08Z</time>
      </trkpt>
      <trkpt lat="44.37627" lon="5.87418">
        <ele>737</ele>
        <time>2019-06-15T07:35:09Z</time>
      </trkpt>
      <trkpt lat="44.37629" lon="5.87417">
        <ele>737</ele>
        <time>2019-06-15T07:35:10Z</time>
      </trkpt>
      <trkpt lat="44.37631" lon="5.87415">
        <ele>737</ele>
        <time>2019-06-15T07:35:11Z</time>
      </trkpt>
      <trkpt lat="44.37633" lon="5.87413">
        <ele>737</ele>
        <time>2019-06-15T07:35:12Z</time>
      </trkpt>
      <trkpt lat="44.37635" lon="5.87411">
        <ele>737</ele>
        <time>2019-06-15T07:35:13Z</time>
      </trkpt>
      <trkpt lat="44.37637" lon="5.87409">
        <ele>737</ele>
        <time>2019-06-15T07:35:14Z</time>
      </trkpt>
      <trkpt lat="44.37639" lon="5.87407">
        <ele>737</ele>
        <time>2019-06-15T07:35:15Z</time>
      </trkpt>
      <trkpt lat="44.37641" lon="5.87405">
        <ele>737</ele>
        <time>2019-06-15T07:35:16Z</time>
      </trkpt>
      <trkpt lat="44.37643" lon="5.87403">
        <ele>738</ele>
        <time>2019-06-15T07:35:17Z</time>
      </trkpt>
      <trkpt lat="44.37645" lon="5.87402">
        <ele>738</ele>
        <time>2019-06-15T07:35:18Z</time>
      </trkpt>
      <trkpt lat="44.37648" lon="5.874">
        <ele>738</ele>
        <time>2019-06-15T07:35:19Z</time>
      </trkpt>
      <trkpt lat="44.3765" lon="5.87398">
        <ele>738</ele>
        <time>2019-06-15T07:35:20Z</time>
      </trkpt>
      <trkpt lat="44.37652" lon="5.87396">
        <ele>739</ele>
        <time>2019-06-15T07:35:21Z</time>
      </trkpt>
      <trkpt lat="44.37655" lon="5.87394">
        <ele>739</ele>
        <time>2019-06-15T07:35:22Z</time>
      </trkpt>
      <trkpt lat="44.37657" lon="5.87391">
        <ele>739</ele>
        <time>2019-06-15T07:35:23Z</time>
      </trkpt>
      <trkpt lat="44.37659" lon="5.87389">
        <ele>740</ele>
        <time>2019-06-15T07:35:24Z</time>
      </trkpt>
      <trkpt lat="44.37661" lon="5.87387">
        <ele>740</ele>
        <time>2019-06-15T07:35:25Z</time>
      </trkpt>
      <trkpt lat="44.37663" lon="5.87385">
        <ele>740</ele>
        <time>2019-06-15T07:35:26Z</time>
      </trkpt>
      <trkpt lat="44.37665" lon="5.87383">
        <ele>740</ele>
        <time>2019-06-15T07:35:27Z</time>
      </trkpt>
      <trkpt lat="44.37667" lon="5.87382">
        <ele>740</ele>
        <time>2019-06-15T07:35:28Z</time>
      </trkpt>
      <trkpt lat="44.37669" lon="5.87379">
        <ele>741</ele>
        <time>2019-06-15T07:35:29Z</time>
      </trkpt>
      <trkpt lat="44.37671" lon="5.87377">
        <ele>741</ele>
        <time>2019-06-15T07:35:30Z</time>
      </trkpt>
      <trkpt lat="44.37672" lon="5.87375">
        <ele>741</ele>
        <time>2019-06-15T07:35:31Z</time>
      </trkpt>
      <trkpt lat="44.37674" lon="5.87373">
        <ele>742</ele>
        <time>2019-06-15T07:35:32Z</time>
      </trkpt>
      <trkpt lat="44.37676" lon="5.87371">
        <ele>742</ele>
        <time>2019-06-15T07:35:33Z</time>
      </trkpt>
      <trkpt lat="44.37678" lon="5.8737">
        <ele>742</ele>
        <time>2019-06-15T07:35:34Z</time>
      </trkpt>
      <trkpt lat="44.3768" lon="5.87368">
        <ele>742</ele>
        <time>2019-06-15T07:35:35Z</time>
      </trkpt>
      <trkpt lat="44.37682" lon="5.87366">
        <ele>742</ele>
        <time>2019-06-15T07:35:36Z</time>
      </trkpt>
      <trkpt lat="44.37683" lon="5.87364">
        <ele>743</ele>
        <time>2019-06-15T07:35:37Z</time>
      </trkpt>
      <trkpt lat="44.37685" lon="5.87361">
        <ele>743</ele>
        <time>2019-06-15T07:35:38Z</time>
      </trkpt>
      <trkpt lat="44.37687" lon="5.87359">
        <ele>743</ele>
        <time>2019-06-15T07:35:39Z</time>
      </trkpt>
      <trkpt lat="44.37689" lon="5.87357">
        <ele>743</ele>
        <time>2019-06-15T07:35:40Z</time>
      </trkpt>
      <trkpt lat="44.37691" lon="5.87355">
        <ele>744</ele>
        <time>2019-06-15T07:35:41Z</time>
      </trkpt>
      <trkpt lat="44.37693" lon="5.87353">
        <ele>744</ele>
        <time>2019-06-15T07:35:42Z</time>
      </trkpt>
      <trkpt lat="44.37694" lon="5.87351">
        <ele>744</ele>
        <time>2019-06-15T07:35:43Z</time>
      </trkpt>
      <trkpt lat="44.37696" lon="5.87348">
        <ele>745</ele>
        <time>2019-06-15T07:35:44Z</time>
      </trkpt>
      <trkpt lat="44.37698" lon="5.87346">
        <ele>745</ele>
        <time>2019-06-15T07:35:45Z</time>
      </trkpt>
      <trkpt lat="44.37699" lon="5.87344">
        <ele>745</ele>
        <time>2019-06-15T07:35:46Z</time>
      </trkpt>
      <trkpt lat="44.37701" lon="5.87341">
        <ele>745</ele>
        <time>2019-06-15T07:35:47Z</time>
      </trkpt>
      <trkpt lat="44.37702" lon="5.87339">
        <ele>746</ele>
        <time>2019-06-15T07:35:48Z</time>
      </trkpt>
      <trkpt lat="44.37704" lon="5.87338">
        <ele>746</ele>
        <time>2019-06-15T07:35:49Z</time>
      </trkpt>
      <trkpt lat="44.37707" lon="5.87336">
        <ele>746</ele>
        <time>2019-06-15T07:35:50Z</time>
      </trkpt>
      <trkpt lat="44.37709" lon="5.87334">
        <ele>747</ele>
        <time>2019-06-15T07:35:51Z</time>
      </trkpt>
      <trkpt lat="44.3771" lon="5.87332">
        <ele>747</ele>
        <time>2019-06-15T07:35:52Z</time>
      </trkpt>
      <trkpt lat="44.37712" lon="5.8733">
        <ele>747</ele>
        <time>2019-06-15T07:35:53Z</time>
      </trkpt>
      <trkpt lat="44.37714" lon="5.87328">
        <ele>747</ele>
        <time>2019-06-15T07:35:54Z</time>
      </trkpt>
      <trkpt lat="44.37716" lon="5.87326">
        <ele>748</ele>
        <time>2019-06-15T07:35:55Z</time>
      </trkpt>
      <trkpt lat="44.37717" lon="5.87325">
        <ele>748</ele>
        <time>2019-06-15T07:35:56Z</time>
      </trkpt>
      <trkpt lat="44.37719" lon="5.87324">
        <ele>749</ele>
        <time>2019-06-15T07:35:57Z</time>
      </trkpt>
      <trkpt lat="44.37721" lon="5.87323">
        <ele>749</ele>
        <time>2019-06-15T07:35:58Z</time>
      </trkpt>
      <trkpt lat="44.37723" lon="5.87322">
        <ele>749</ele>
        <time>2019-06-15T07:35:59Z</time>
      </trkpt>
      <trkpt lat="44.37725" lon="5.87321">
        <ele>750</ele>
        <time>2019-06-15T07:36:00Z</time>
      </trkpt>
      <trkpt lat="44.37727" lon="5.8732">
        <ele>750</ele>
        <time>2019-06-15T07:36:01Z</time>
      </trkpt>
      <trkpt lat="44.37729" lon="5.87319">
        <ele>750</ele>
        <time>2019-06-15T07:36:02Z</time>
      </trkpt>
      <trkpt lat="44.37731" lon="5.87319">
        <ele>751</ele>
        <time>2019-06-15T07:36:03Z</time>
      </trkpt>
      <trkpt lat="44.37732" lon="5.87317">
        <ele>751</ele>
        <time>2019-06-15T07:36:04Z</time>
      </trkpt>
      <trkpt lat="44.37734" lon="5.87316">
        <ele>751</ele>
        <time>2019-06-15T07:36:05Z</time>
      </trkpt>
      <trkpt lat="44.37737" lon="5.87315">
        <ele>752</ele>
        <time>2019-06-15T07:36:06Z</time>
      </trkpt>
      <trkpt lat="44.37739" lon="5.87314">
        <ele>752</ele>
        <time>2019-06-15T07:36:07Z</time>
      </trkpt>
      <trkpt lat="44.37741" lon="5.87314">
        <ele>752</ele>
        <time>2019-06-15T07:36:08Z</time>
      </trkpt>
      <trkpt lat="44.37742" lon="5.87313">
        <ele>752</ele>
        <time>2019-06-15T07:36:09Z</time>
      </trkpt>
      <trkpt lat="44.37744" lon="5.87311">
        <ele>752</ele>
        <time>2019-06-15T07:36:10Z</time>
      </trkpt>
      <trkpt lat="44.37746" lon="5.8731">
        <ele>752</ele>
        <time>2019-06-15T07:36:11Z</time>
      </trkpt>
      <trkpt lat="44.37748" lon="5.87309">
        <ele>752</ele>
        <time>2019-06-15T07:36:12Z</time>
      </trkpt>
      <trkpt lat="44.37749" lon="5.87308">
        <ele>753</ele>
        <time>2019-06-15T07:36:13Z</time>
      </trkpt>
      <trkpt lat="44.37751" lon="5.87307">
        <ele>753</ele>
        <time>2019-06-15T07:36:14Z</time>
      </trkpt>
      <trkpt lat="44.37753" lon="5.87305">
        <ele>753</ele>
        <time>2019-06-15T07:36:15Z</time>
      </trkpt>
      <trkpt lat="44.37755" lon="5.87304">
        <ele>753</ele>
        <time>2019-06-15T07:36:16Z</time>
      </trkpt>
      <trkpt lat="44.37756" lon="5.87302">
        <ele>753</ele>
        <time>2019-06-15T07:36:17Z</time>
      </trkpt>
      <trkpt lat="44.37758" lon="5.87301">
        <ele>753</ele>
        <time>2019-06-15T07:36:18Z</time>
      </trkpt>
      <trkpt lat="44.3776" lon="5.873">
        <ele>753</ele>
        <time>2019-06-15T07:36:19Z</time>
      </trkpt>
      <trkpt lat="44.37762" lon="5.87298">
        <ele>753</ele>
        <time>2019-06-15T07:36:20Z</time>
      </trkpt>
      <trkpt lat="44.37764" lon="5.87297">
        <ele>753</ele>
        <time>2019-06-15T07:36:21Z</time>
      </trkpt>
      <trkpt lat="44.37765" lon="5.87296">
        <ele>753</ele>
        <time>2019-06-15T07:36:22Z</time>
      </trkpt>
      <trkpt lat="44.37766" lon="5.87295">
        <ele>753</ele>
        <time>2019-06-15T07:36:23Z</time>
      </trkpt>
      <trkpt lat="44.37768" lon="5.87293">
        <ele>753</ele>
        <time>2019-06-15T07:36:25Z</time>
      </trkpt>
      <trkpt lat="44.37769" lon="5.87292">
        <ele>753</ele>
        <time>2019-06-15T07:36:26Z</time>
      </trkpt>
      <trkpt lat="44.37771" lon="5.87291">
        <ele>754</ele>
        <time>2019-06-15T07:36:27Z</time>
      </trkpt>
      <trkpt lat="44.37772" lon="5.8729">
        <ele>754</ele>
        <time>2019-06-15T07:36:28Z</time>
      </trkpt>
      <trkpt lat="44.37774" lon="5.87288">
        <ele>754</ele>
        <time>2019-06-15T07:36:29Z</time>
      </trkpt>
      <trkpt lat="44.37775" lon="5.87287">
        <ele>754</ele>
        <time>2019-06-15T07:36:30Z</time>
      </trkpt>
      <trkpt lat="44.37777" lon="5.87285">
        <ele>754</ele>
        <time>2019-06-15T07:36:31Z</time>
      </trkpt>
      <trkpt lat="44.37778" lon="5.87283">
        <ele>754</ele>
        <time>2019-06-15T07:36:32Z</time>
      </trkpt>
      <trkpt lat="44.3778" lon="5.87281">
        <ele>754</ele>
        <time>2019-06-15T07:36:33Z</time>
      </trkpt>
      <trkpt lat="44.3778" lon="5.87279">
        <ele>754</ele>
        <time>2019-06-15T07:36:34Z</time>
      </trkpt>
      <trkpt lat="44.37781" lon="5.87276">
        <ele>754</ele>
        <time>2019-06-15T07:36:35Z</time>
      </trkpt>
      <trkpt lat="44.37782" lon="5.87273">
        <ele>755</ele>
        <time>2019-06-15T07:36:36Z</time>
      </trkpt>
      <trkpt lat="44.37781" lon="5.8727">
        <ele>755</ele>
        <time>2019-06-15T07:36:37Z</time>
      </trkpt>
      <trkpt lat="44.3778" lon="5.87268">
        <ele>755</ele>
        <time>2019-06-15T07:36:38Z</time>
      </trkpt>
      <trkpt lat="44.37779" lon="5.87265">
        <ele>756</ele>
        <time>2019-06-15T07:36:39Z</time>
      </trkpt>
      <trkpt lat="44.37777" lon="5.87263">
        <ele>756</ele>
        <time>2019-06-15T07:36:40Z</time>
      </trkpt>
      <trkpt lat="44.37775" lon="5.87262">
        <ele>757</ele>
        <time>2019-06-15T07:36:41Z</time>
      </trkpt>
      <trkpt lat="44.37773" lon="5.87261">
        <ele>757</ele>
        <time>2019-06-15T07:36:42Z</time>
      </trkpt>
      <trkpt lat="44.37771" lon="5.8726">
        <ele>757</ele>
        <time>2019-06-15T07:36:43Z</time>
      </trkpt>
      <trkpt lat="44.37768" lon="5.87259">
        <ele>757</ele>
        <time>2019-06-15T07:36:44Z</time>
      </trkpt>
      <trkpt lat="44.37766" lon="5.87259">
        <ele>757</ele>
        <time>2019-06-15T07:36:45Z</time>
      </trkpt>
      <trkpt lat="44.37764" lon="5.87259">
        <ele>757</ele>
        <time>2019-06-15T07:36:46Z</time>
      </trkpt>
      <trkpt lat="44.37762" lon="5.87259">
        <ele>757</ele>
        <time>2019-06-15T07:36:47Z</time>
      </trkpt>
      <trkpt lat="44.3776" lon="5.87258">
        <ele>757</ele>
        <time>2019-06-15T07:36:48Z</time>
      </trkpt>
      <trkpt lat="44.37758" lon="5.87258">
        <ele>757</ele>
        <time>2019-06-15T07:36:49Z</time>
      </trkpt>
      <trkpt lat="44.37756" lon="5.87257">
        <ele>757</ele>
        <time>2019-06-15T07:36:50Z</time>
      </trkpt>
      <trkpt lat="44.37755" lon="5.87257">
        <ele>757</ele>
        <time>2019-06-15T07:36:51Z</time>
      </trkpt>
      <trkpt lat="44.37753" lon="5.87256">
        <ele>758</ele>
        <time>2019-06-15T07:36:52Z</time>
      </trkpt>
      <trkpt lat="44.37751" lon="5.87255">
        <ele>758</ele>
        <time>2019-06-15T07:36:53Z</time>
      </trkpt>
      <trkpt lat="44.37749" lon="5.87254">
        <ele>758</ele>
        <time>2019-06-15T07:36:54Z</time>
      </trkpt>
      <trkpt lat="44.37747" lon="5.87254">
        <ele>758</ele>
        <time>2019-06-15T07:36:55Z</time>
      </trkpt>
      <trkpt lat="44.37745" lon="5.87252">
        <ele>758</ele>
        <time>2019-06-15T07:36:56Z</time>
      </trkpt>
      <trkpt lat="44.37743" lon="5.8725">
        <ele>759</ele>
        <time>2019-06-15T07:36:57Z</time>
      </trkpt>
      <trkpt lat="44.37742" lon="5.87249">
        <ele>759</ele>
        <time>2019-06-15T07:36:58Z</time>
      </trkpt>
      <trkpt lat="44.3774" lon="5.87247">
        <ele>759</ele>
        <time>2019-06-15T07:36:59Z</time>
      </trkpt>
      <trkpt lat="44.37739" lon="5.87245">
        <ele>759</ele>
        <time>2019-06-15T07:37:00Z</time>
      </trkpt>
      <trkpt lat="44.37738" lon="5.87243">
        <ele>760</ele>
        <time>2019-06-15T07:37:01Z</time>
      </trkpt>
      <trkpt lat="44.37737" lon="5.87241">
        <ele>761</ele>
        <time>2019-06-15T07:37:02Z</time>
      </trkpt>
      <trkpt lat="44.37736" lon="5.87239">
        <ele>761</ele>
        <time>2019-06-15T07:37:03Z</time>
      </trkpt>
      <trkpt lat="44.37735" lon="5.87236">
        <ele>762</ele>
        <time>2019-06-15T07:37:04Z</time>
      </trkpt>
      <trkpt lat="44.37734" lon="5.87234">
        <ele>762</ele>
        <time>2019-06-15T07:37:05Z</time>
      </trkpt>
      <trkpt lat="44.37733" lon="5.87233">
        <ele>762</ele>
        <time>2019-06-15T07:37:06Z</time>
      </trkpt>
      <trkpt lat="44.37732" lon="5.87231">
        <ele>763</ele>
        <time>2019-06-15T07:37:07Z</time>
      </trkpt>
      <trkpt lat="44.37731" lon="5.87229">
        <ele>763</ele>
        <time>2019-06-15T07:37:08Z</time>
      </trkpt>
      <trkpt lat="44.3773" lon="5.87227">
        <ele>763</ele>
        <time>2019-06-15T07:37:09Z</time>
      </trkpt>
      <trkpt lat="44.3773" lon="5.87224">
        <ele>763</ele>
        <time>2019-06-15T07:37:10Z</time>
      </trkpt>
      <trkpt lat="44.37729" lon="5.87222">
        <ele>763</ele>
        <time>2019-06-15T07:37:11Z</time>
      </trkpt>
      <trkpt lat="44.37728" lon="5.8722">
        <ele>763</ele>
        <time>2019-06-15T07:37:12Z</time>
      </trkpt>
      <trkpt lat="44.37727" lon="5.87218">
        <ele>763</ele>
        <time>2019-06-15T07:37:13Z</time>
      </trkpt>
      <trkpt lat="44.37726" lon="5.87216">
        <ele>763</ele>
        <time>2019-06-15T07:37:14Z</time>
      </trkpt>
      <trkpt lat="44.37725" lon="5.87213">
        <ele>763</ele>
        <time>2019-06-15T07:37:15Z</time>
      </trkpt>
      <trkpt lat="44.37724" lon="5.87211">
        <ele>764</ele>
        <time>2019-06-15T07:37:16Z</time>
      </trkpt>
      <trkpt lat="44.37723" lon="5.87209">
        <ele>764</ele>
        <time>2019-06-15T07:37:17Z</time>
      </trkpt>
      <trkpt lat="44.37722" lon="5.87206">
        <ele>764</ele>
        <time>2019-06-15T07:37:18Z</time>
      </trkpt>
      <trkpt lat="44.37722" lon="5.87204">
        <ele>764</ele>
        <time>2019-06-15T07:37:19Z</time>
      </trkpt>
      <trkpt lat="44.37721" lon="5.87202">
        <ele>764</ele>
        <time>2019-06-15T07:37:20Z</time>
      </trkpt>
      <trkpt lat="44.3772" lon="5.87199">
        <ele>764</ele>
        <time>2019-06-15T07:37:21Z</time>
      </trkpt>
      <trkpt lat="44.37719" lon="5.87197">
        <ele>764</ele>
        <time>2019-06-15T07:37:22Z</time>
      </trkpt>
      <trkpt lat="44.37717" lon="5.87195">
        <ele>764</ele>
        <time>2019-06-15T07:37:23Z</time>
      </trkpt>
      <trkpt lat="44.37717" lon="5.87193">
        <ele>764</ele>
        <time>2019-06-15T07:37:24Z</time>
      </trkpt>
      <trkpt lat="44.37716" lon="5.87191">
        <ele>764</ele>
        <time>2019-06-15T07:37:25Z</time>
      </trkpt>
      <trkpt lat="44.37715" lon="5.87188">
        <ele>764</ele>
        <time>2019-06-15T07:37:26Z</time>
      </trkpt>
      <trkpt lat="44.37715" lon="5.87186">
        <ele>764</ele>
        <time>2019-06-15T07:37:27Z</time>
      </trkpt>
      <trkpt lat="44.37714" lon="5.87183">
        <ele>765</ele>
        <time>2019-06-15T07:37:28Z</time>
      </trkpt>
      <trkpt lat="44.37714" lon="5.87181">
        <ele>765</ele>
        <time>2019-06-15T07:37:29Z</time>
      </trkpt>
      <trkpt lat="44.37713" lon="5.87179">
        <ele>765</ele>
        <time>2019-06-15T07:37:30Z</time>
      </trkpt>
      <trkpt lat="44.37712" lon="5.87176">
        <ele>766</ele>
        <time>2019-06-15T07:37:31Z</time>
      </trkpt>
      <trkpt lat="44.37711" lon="5.87174">
        <ele>766</ele>
        <time>2019-06-15T07:37:32Z</time>
      </trkpt>
      <trkpt lat="44.37711" lon="5.87172">
        <ele>766</ele>
        <time>2019-06-15T07:37:33Z</time>
      </trkpt>
      <trkpt lat="44.37711" lon="5.87169">
        <ele>766</ele>
        <time>2019-06-15T07:37:34Z</time>
      </trkpt>
      <trkpt lat="44.37711" lon="5.87167">
        <ele>766</ele>
        <time>2019-06-15T07:37:35Z</time>
      </trkpt>
      <trkpt lat="44.37711" lon="5.87164">
        <ele>767</ele>
        <time>2019-06-15T07:37:36Z</time>
      </trkpt>
      <trkpt lat="44.37711" lon="5.87162">
        <ele>767</ele>
        <time>2019-06-15T07:37:37Z</time>
      </trkpt>
      <trkpt lat="44.37711" lon="5.87159">
        <ele>767</ele>
        <time>2019-06-15T07:37:38Z</time>
      </trkpt>
      <trkpt lat="44.37711" lon="5.87157">
        <ele>768</ele>
        <time>2019-06-15T07:37:39Z</time>
      </trkpt>
      <trkpt lat="44.37711" lon="5.87155">
        <ele>768</ele>
        <time>2019-06-15T07:37:40Z</time>
      </trkpt>
      <trkpt lat="44.37711" lon="5.87152">
        <ele>769</ele>
        <time>2019-06-15T07:37:41Z</time>
      </trkpt>
      <trkpt lat="44.37711" lon="5.8715">
        <ele>769</ele>
        <time>2019-06-15T07:37:42Z</time>
      </trkpt>
      <trkpt lat="44.37711" lon="5.87148">
        <ele>769</ele>
        <time>2019-06-15T07:37:43Z</time>
      </trkpt>
      <trkpt lat="44.3771" lon="5.87145">
        <ele>770</ele>
        <time>2019-06-15T07:37:44Z</time>
      </trkpt>
      <trkpt lat="44.3771" lon="5.87143">
        <ele>770</ele>
        <time>2019-06-15T07:37:45Z</time>
      </trkpt>
      <trkpt lat="44.37709" lon="5.87141">
        <ele>771</ele>
        <time>2019-06-15T07:37:46Z</time>
      </trkpt>
      <trkpt lat="44.37709" lon="5.87138">
        <ele>771</ele>
        <time>2019-06-15T07:37:47Z</time>
      </trkpt>
      <trkpt lat="44.37709" lon="5.87135">
        <ele>771</ele>
        <time>2019-06-15T07:37:48Z</time>
      </trkpt>
      <trkpt lat="44.37709" lon="5.87132">
        <ele>772</ele>
        <time>2019-06-15T07:37:49Z</time>
      </trkpt>
      <trkpt lat="44.37708" lon="5.87129">
        <ele>772</ele>
        <time>2019-06-15T07:37:50Z</time>
      </trkpt>
      <trkpt lat="44.37707" lon="5.87127">
        <ele>772</ele>
        <time>2019-06-15T07:37:51Z</time>
      </trkpt>
      <trkpt lat="44.37706" lon="5.87124">
        <ele>773</ele>
        <time>2019-06-15T07:37:52Z</time>
      </trkpt>
      <trkpt lat="44.37705" lon="5.87122">
        <ele>773</ele>
        <time>2019-06-15T07:37:53Z</time>
      </trkpt>
      <trkpt lat="44.37704" lon="5.87119">
        <ele>774</ele>
        <time>2019-06-15T07:37:54Z</time>
      </trkpt>
      <trkpt lat="44.37703" lon="5.87117">
        <ele>774</ele>
        <time>2019-06-15T07:37:55Z</time>
      </trkpt>
      <trkpt lat="44.37701" lon="5.87115">
        <ele>775</ele>
        <time>2019-06-15T07:37:56Z</time>
      </trkpt>
      <trkpt lat="44.377" lon="5.87113">
        <ele>776</ele>
        <time>2019-06-15T07:37:57Z</time>
      </trkpt>
      <trkpt lat="44.37698" lon="5.87111">
        <ele>776</ele>
        <time>2019-06-15T07:37:58Z</time>
      </trkpt>
      <trkpt lat="44.37697" lon="5.87108">
        <ele>777</ele>
        <time>2019-06-15T07:37:59Z</time>
      </trkpt>
      <trkpt lat="44.37696" lon="5.87106">
        <ele>777</ele>
        <time>2019-06-15T07:38:00Z</time>
      </trkpt>
      <trkpt lat="44.37695" lon="5.87104">
        <ele>778</ele>
        <time>2019-06-15T07:38:01Z</time>
      </trkpt>
      <trkpt lat="44.37694" lon="5.87102">
        <ele>778</ele>
        <time>2019-06-15T07:38:02Z</time>
      </trkpt>
      <trkpt lat="44.37693" lon="5.871">
        <ele>778</ele>
        <time>2019-06-15T07:38:03Z</time>
      </trkpt>
      <trkpt lat="44.37692" lon="5.87098">
        <ele>779</ele>
        <time>2019-06-15T07:38:04Z</time>
      </trkpt>
      <trkpt lat="44.37691" lon="5.87095">
        <ele>779</ele>
        <time>2019-06-15T07:38:05Z</time>
      </trkpt>
      <trkpt lat="44.3769" lon="5.87092">
        <ele>779</ele>
        <time>2019-06-15T07:38:06Z</time>
      </trkpt>
      <trkpt lat="44.37689" lon="5.8709">
        <ele>779</ele>
        <time>2019-06-15T07:38:07Z</time>
      </trkpt>
      <trkpt lat="44.37688" lon="5.87088">
        <ele>779</ele>
        <time>2019-06-15T07:38:08Z</time>
      </trkpt>
      <trkpt lat="44.37687" lon="5.87086">
        <ele>779</ele>
        <time>2019-06-15T07:38:09Z</time>
      </trkpt>
      <trkpt lat="44.37685" lon="5.87084">
        <ele>779</ele>
        <time>2019-06-15T07:38:10Z</time>
      </trkpt>
      <trkpt lat="44.37685" lon="5.87081">
        <ele>779</ele>
        <time>2019-06-15T07:38:11Z</time>
      </trkpt>
      <trkpt lat="44.37683" lon="5.87079">
        <ele>779</ele>
        <time>2019-06-15T07:38:12Z</time>
      </trkpt>
      <trkpt lat="44.37682" lon="5.87076">
        <ele>779</ele>
        <time>2019-06-15T07:38:13Z</time>
      </trkpt>
      <trkpt lat="44.37681" lon="5.87073">
        <ele>780</ele>
        <time>2019-06-15T07:38:14Z</time>
      </trkpt>
      <trkpt lat="44.3768" lon="5.87071">
        <ele>780</ele>
        <time>2019-06-15T07:38:15Z</time>
      </trkpt>
      <trkpt lat="44.37679" lon="5.87068">
        <ele>780</ele>
        <time>2019-06-15T07:38:16Z</time>
      </trkpt>
      <trkpt lat="44.37678" lon="5.87065">
        <ele>780</ele>
        <time>2019-06-15T07:38:17Z</time>
      </trkpt>
      <trkpt lat="44.37677" lon="5.87062">
        <ele>780</ele>
        <time>2019-06-15T07:38:18Z</time>
      </trkpt>
      <trkpt lat="44.37676" lon="5.87059">
        <ele>780</ele>
        <time>2019-06-15T07:38:19Z</time>
      </trkpt>
      <trkpt lat="44.37675" lon="5.87056">
        <ele>780</ele>
        <time>2019-06-15T07:38:20Z</time>
      </trkpt>
      <trkpt lat="44.37674" lon="5.87053">
        <ele>780</ele>
        <time>2019-06-15T07:38:21Z</time>
      </trkpt>
      <trkpt lat="44.37674" lon="5.8705">
        <ele>780</ele>
        <time>2019-06-15T07:38:22Z</time>
      </trkpt>
      <trkpt lat="44.37673" lon="5.87047">
        <ele>780</ele>
        <time>2019-06-15T07:38:23Z</time>
      </trkpt>
      <trkpt lat="44.37672" lon="5.87044">
        <ele>780</ele>
        <time>2019-06-15T07:38:24Z</time>
      </trkpt>
      <trkpt lat="44.37672" lon="5.87041">
        <ele>780</ele>
        <time>2019-06-15T07:38:25Z</time>
      </trkpt>
      <trkpt lat="44.37671" lon="5.87038">
        <ele>780</ele>
        <time>2019-06-15T07:38:26Z</time>
      </trkpt>
      <trkpt lat="44.3767" lon="5.87035">
        <ele>780</ele>
        <time>2019-06-15T07:38:27Z</time>
      </trkpt>
      <trkpt lat="44.37669" lon="5.87032">
        <ele>780</ele>
        <time>2019-06-15T07:38:28Z</time>
      </trkpt>
      <trkpt lat="44.37669" lon="5.8703">
        <ele>780</ele>
        <time>2019-06-15T07:38:29Z</time>
      </trkpt>
      <trkpt lat="44.37668" lon="5.87027">
        <ele>780</ele>
        <time>2019-06-15T07:38:30Z</time>
      </trkpt>
      <trkpt lat="44.37667" lon="5.87024">
        <ele>780</ele>
        <time>2019-06-15T07:38:31Z</time>
      </trkpt>
      <trkpt lat="44.37666" lon="5.87021">
        <ele>780</ele>
        <time>2019-06-15T07:38:32Z</time>
      </trkpt>
      <trkpt lat="44.37666" lon="5.87019">
        <ele>780</ele>
        <time>2019-06-15T07:38:33Z</time>
      </trkpt>
      <trkpt lat="44.37665" lon="5.87016">
        <ele>780</ele>
        <time>2019-06-15T07:38:34Z</time>
      </trkpt>
      <trkpt lat="44.37664" lon="5.87013">
        <ele>780</ele>
        <time>2019-06-15T07:38:35Z</time>
      </trkpt>
      <trkpt lat="44.37663" lon="5.8701">
        <ele>780</ele>
        <time>2019-06-15T07:38:36Z</time>
      </trkpt>
      <trkpt lat="44.37662" lon="5.87008">
        <ele>780</ele>
        <time>2019-06-15T07:38:37Z</time>
      </trkpt>
      <trkpt lat="44.37661" lon="5.87006">
        <ele>780</ele>
        <time>2019-06-15T07:38:38Z</time>
      </trkpt>
      <trkpt lat="44.3766" lon="5.87003">
        <ele>780</ele>
        <time>2019-06-15T07:38:39Z</time>
      </trkpt>
      <trkpt lat="44.37659" lon="5.87001">
        <ele>780</ele>
        <time>2019-06-15T07:38:40Z</time>
      </trkpt>
      <trkpt lat="44.37658" lon="5.86998">
        <ele>780</ele>
        <time>2019-06-15T07:38:41Z</time>
      </trkpt>
      <trkpt lat="44.37658" lon="5.86996">
        <ele>780</ele>
        <time>2019-06-15T07:38:42Z</time>
      </trkpt>
      <trkpt lat="44.37656" lon="5.86993">
        <ele>780</ele>
        <time>2019-06-15T07:38:43Z</time>
      </trkpt>
      <trkpt lat="44.37656" lon="5.86991">
        <ele>780</ele>
        <time>2019-06-15T07:38:44Z</time>
      </trkpt>
      <trkpt lat="44.37654" lon="5.86989">
        <ele>781</ele>
        <time>2019-06-15T07:38:45Z</time>
      </trkpt>
      <trkpt lat="44.37653" lon="5.86987">
        <ele>781</ele>
        <time>2019-06-15T07:38:46Z</time>
      </trkpt>
      <trkpt lat="44.37652" lon="5.86985">
        <ele>781</ele>
        <time>2019-06-15T07:38:47Z</time>
      </trkpt>
      <trkpt lat="44.3765" lon="5.86983">
        <ele>781</ele>
        <time>2019-06-15T07:38:48Z</time>
      </trkpt>
      <trkpt lat="44.37649" lon="5.86981">
        <ele>782</ele>
        <time>2019-06-15T07:38:49Z</time>
      </trkpt>
      <trkpt lat="44.37647" lon="5.86979">
        <ele>782</ele>
        <time>2019-06-15T07:38:50Z</time>
      </trkpt>
      <trkpt lat="44.37645" lon="5.86978">
        <ele>782</ele>
        <time>2019-06-15T07:38:51Z</time>
      </trkpt>
      <trkpt lat="44.37643" lon="5.86976">
        <ele>782</ele>
        <time>2019-06-15T07:38:52Z</time>
      </trkpt>
      <trkpt lat="44.37642" lon="5.86974">
        <ele>782</ele>
        <time>2019-06-15T07:38:53Z</time>
      </trkpt>
      <trkpt lat="44.3764" lon="5.86973">
        <ele>783</ele>
        <time>2019-06-15T07:38:54Z</time>
      </trkpt>
      <trkpt lat="44.37638" lon="5.86972">
        <ele>783</ele>
        <time>2019-06-15T07:38:55Z</time>
      </trkpt>
      <trkpt lat="44.37636" lon="5.8697">
        <ele>783</ele>
        <time>2019-06-15T07:38:56Z</time>
      </trkpt>
      <trkpt lat="44.37633" lon="5.86969">
        <ele>783</ele>
        <time>2019-06-15T07:38:57Z</time>
      </trkpt>
      <trkpt lat="44.37631" lon="5.86969">
        <ele>783</ele>
        <time>2019-06-15T07:38:58Z</time>
      </trkpt>
      <trkpt lat="44.37628" lon="5.86968">
        <ele>784</ele>
        <time>2019-06-15T07:38:59Z</time>
      </trkpt>
      <trkpt lat="44.37626" lon="5.86967">
        <ele>784</ele>
        <time>2019-06-15T07:39:00Z</time>
      </trkpt>
      <trkpt lat="44.37623" lon="5.86967">
        <ele>785</ele>
        <time>2019-06-15T07:39:01Z</time>
      </trkpt>
      <trkpt lat="44.3762" lon="5.86966">
        <ele>786</ele>
        <time>2019-06-15T07:39:02Z</time>
      </trkpt>
      <trkpt lat="44.37618" lon="5.86965">
        <ele>786</ele>
        <time>2019-06-15T07:39:03Z</time>
      </trkpt>
      <trkpt lat="44.37616" lon="5.86964">
        <ele>787</ele>
        <time>2019-06-15T07:39:04Z</time>
      </trkpt>
      <trkpt lat="44.37613" lon="5.86962">
        <ele>787</ele>
        <time>2019-06-15T07:39:05Z</time>
      </trkpt>
      <trkpt lat="44.37611" lon="5.8696">
        <ele>787</ele>
        <time>2019-06-15T07:39:06Z</time>
      </trkpt>
      <trkpt lat="44.37609" lon="5.86957">
        <ele>788</ele>
        <time>2019-06-15T07:39:07Z</time>
      </trkpt>
      <trkpt lat="44.37608" lon="5.86953">
        <ele>788</ele>
        <time>2019-06-15T07:39:08Z</time>
      </trkpt>
      <trkpt lat="44.37607" lon="5.86949">
        <ele>788</ele>
        <time>2019-06-15T07:39:09Z</time>
      </trkpt>
      <trkpt lat="44.37607" lon="5.86946">
        <ele>788</ele>
        <time>2019-06-15T07:39:10Z</time>
      </trkpt>
      <trkpt lat="44.37608" lon="5.86943">
        <ele>788</ele>
        <time>2019-06-15T07:39:11Z</time>
      </trkpt>
      <trkpt lat="44.3761" lon="5.86941">
        <ele>788</ele>
        <time>2019-06-15T07:39:12Z</time>
      </trkpt>
      <trkpt lat="44.37611" lon="5.8694">
        <ele>788</ele>
        <time>2019-06-15T07:39:13Z</time>
      </trkpt>
      <trkpt lat="44.37613" lon="5.86939">
        <ele>788</ele>
        <time>2019-06-15T07:39:14Z</time>
      </trkpt>
      <trkpt lat="44.37615" lon="5.86939">
        <ele>788</ele>
        <time>2019-06-15T07:39:15Z</time>
      </trkpt>
      <trkpt lat="44.37617" lon="5.86939">
        <ele>788</ele>
        <time>2019-06-15T07:39:16Z</time>
      </trkpt>
      <trkpt lat="44.37619" lon="5.86939">
        <ele>788</ele>
        <time>2019-06-15T07:39:17Z</time>
      </trkpt>
      <trkpt lat="44.37621" lon="5.8694">
        <ele>788</ele>
        <time>2019-06-15T07:39:18Z</time>
      </trkpt>
      <trkpt lat="44.37623" lon="5.86939">
        <ele>789</ele>
        <time>2019-06-15T07:39:19Z</time>
      </trkpt>
      <trkpt lat="44.37626" lon="5.86939">
        <ele>789</ele>
        <time>2019-06-15T07:39:20Z</time>
      </trkpt>
      <trkpt lat="44.37628" lon="5.86939">
        <ele>790</ele>
        <time>2019-06-15T07:39:21Z</time>
      </trkpt>
      <trkpt lat="44.37629" lon="5.8694">
        <ele>791</ele>
        <time>2019-06-15T07:39:22Z</time>
      </trkpt>
      <trkpt lat="44.37631" lon="5.8694">
        <ele>792</ele>
        <time>2019-06-15T07:39:23Z</time>
      </trkpt>
      <trkpt lat="44.37633" lon="5.86938">
        <ele>792</ele>
        <time>2019-06-15T07:39:24Z</time>
      </trkpt>
      <trkpt lat="44.37635" lon="5.86938">
        <ele>793</ele>
        <time>2019-06-15T07:39:25Z</time>
      </trkpt>
      <trkpt lat="44.37637" lon="5.86938">
        <ele>793</ele>
        <time>2019-06-15T07:39:26Z</time>
      </trkpt>
      <trkpt lat="44.37639" lon="5.86938">
        <ele>794</ele>
        <time>2019-06-15T07:39:27Z</time>
      </trkpt>
      <trkpt lat="44.3764" lon="5.86937">
        <ele>794</ele>
        <time>2019-06-15T07:39:28Z</time>
      </trkpt>
      <trkpt lat="44.37642" lon="5.86937">
        <ele>794</ele>
        <time>2019-06-15T07:39:29Z</time>
      </trkpt>
      <trkpt lat="44.37644" lon="5.86936">
        <ele>795</ele>
        <time>2019-06-15T07:39:30Z</time>
      </trkpt>
      <trkpt lat="44.37645" lon="5.86936">
        <ele>795</ele>
        <time>2019-06-15T07:39:31Z</time>
      </trkpt>
      <trkpt lat="44.37647" lon="5.86935">
        <ele>796</ele>
        <time>2019-06-15T07:39:32Z</time>
      </trkpt>
      <trkpt lat="44.37649" lon="5.86935">
        <ele>796</ele>
        <time>2019-06-15T07:39:33Z</time>
      </trkpt>
      <trkpt lat="44.37651" lon="5.86935">
        <ele>796</ele>
        <time>2019-06-15T07:39:34Z</time>
      </trkpt>
      <trkpt lat="44.37652" lon="5.86934">
        <ele>797</ele>
        <time>2019-06-15T07:39:35Z</time>
      </trkpt>
      <trkpt lat="44.37654" lon="5.86934">
        <ele>797</ele>
        <time>2019-06-15T07:39:36Z</time>
      </trkpt>
      <trkpt lat="44.37655" lon="5.86933">
        <ele>797</ele>
        <time>2019-06-15T07:39:37Z</time>
      </trkpt>
      <trkpt lat="44.37657" lon="5.86933">
        <ele>798</ele>
        <time>2019-06-15T07:39:38Z</time>
      </trkpt>
      <trkpt lat="44.37658" lon="5.86932">
        <ele>798</ele>
        <time>2019-06-15T07:39:39Z</time>
      </trkpt>
      <trkpt lat="44.3766" lon="5.86932">
        <ele>798</ele>
        <time>2019-06-15T07:39:40Z</time>
      </trkpt>
      <trkpt lat="44.37662" lon="5.86931">
        <ele>799</ele>
        <time>2019-06-15T07:39:41Z</time>
      </trkpt>
      <trkpt lat="44.37664" lon="5.8693">
        <ele>799</ele>
        <time>2019-06-15T07:39:42Z</time>
      </trkpt>
      <trkpt lat="44.37665" lon="5.8693">
        <ele>800</ele>
        <time>2019-06-15T07:39:43Z</time>
      </trkpt>
      <trkpt lat="44.37667" lon="5.86929">
        <ele>800</ele>
        <time>2019-06-15T07:39:44Z</time>
      </trkpt>
      <trkpt lat="44.37669" lon="5.86928">
        <ele>800</ele>
        <time>2019-06-15T07:39:45Z</time>
      </trkpt>
      <trkpt lat="44.3767" lon="5.86927">
        <ele>800</ele>
        <time>2019-06-15T07:39:46Z</time>
      </trkpt>
      <trkpt lat="44.37672" lon="5.86926">
        <ele>801</ele>
        <time>2019-06-15T07:39:47Z</time>
      </trkpt>
      <trkpt lat="44.37674" lon="5.86925">
        <ele>801</ele>
        <time>2019-06-15T07:39:48Z</time>
      </trkpt>
      <trkpt lat="44.37676" lon="5.86924">
        <ele>801</ele>
        <time>2019-06-15T07:39:49Z</time>
      </trkpt>
      <trkpt lat="44.37677" lon="5.86923">
        <ele>801</ele>
        <time>2019-06-15T07:39:50Z</time>
      </trkpt>
      <trkpt lat="44.37679" lon="5.86922">
        <ele>801</ele>
        <time>2019-06-15T07:39:51Z</time>
      </trkpt>
      <trkpt lat="44.37681" lon="5.86921">
        <ele>801</ele>
        <time>2019-06-15T07:39:52Z</time>
      </trkpt>
      <trkpt lat="44.37682" lon="5.86919">
        <ele>801</ele>
        <time>2019-06-15T07:39:53Z</time>
      </trkpt>
      <trkpt lat="44.37684" lon="5.86918">
        <ele>801</ele>
        <time>2019-06-15T07:39:54Z</time>
      </trkpt>
      <trkpt lat="44.37686" lon="5.86916">
        <ele>801</ele>
        <time>2019-06-15T07:39:55Z</time>
      </trkpt>
      <trkpt lat="44.37687" lon="5.86915">
        <ele>801</ele>
        <time>2019-06-15T07:39:56Z</time>
      </trkpt>
      <trkpt lat="44.37689" lon="5.86913">
        <ele>801</ele>
        <time>2019-06-15T07:39:57Z</time>
      </trkpt>
      <trkpt lat="44.37691" lon="5.86912">
        <ele>801</ele>
        <time>2019-06-15T07:39:58Z</time>
      </trkpt>
      <trkpt lat="44.37693" lon="5.8691">
        <ele>801</ele>
        <time>2019-06-15T07:39:59Z</time>
      </trkpt>
      <trkpt lat="44.37695" lon="5.86908">
        <ele>801</ele>
        <time>2019-06-15T07:40:00Z</time>
      </trkpt>
      <trkpt lat="44.37697" lon="5.86907">
        <ele>801</ele>
        <time>2019-06-15T07:40:01Z</time>
      </trkpt>
      <trkpt lat="44.37699" lon="5.86904">
        <ele>801</ele>
        <time>2019-06-15T07:40:02Z</time>
      </trkpt>
      <trkpt lat="44.37701" lon="5.86903">
        <ele>801</ele>
        <time>2019-06-15T07:40:03Z</time>
      </trkpt>
      <trkpt lat="44.37703" lon="5.869">
        <ele>801</ele>
        <time>2019-06-15T07:40:04Z</time>
      </trkpt>
      <trkpt lat="44.37705" lon="5.86898">
        <ele>801</ele>
        <time>2019-06-15T07:40:05Z</time>
      </trkpt>
      <trkpt lat="44.37707" lon="5.86895">
        <ele>801</ele>
        <time>2019-06-15T07:40:06Z</time>
      </trkpt>
      <trkpt lat="44.37709" lon="5.86893">
        <ele>801</ele>
        <time>2019-06-15T07:40:07Z</time>
      </trkpt>
      <trkpt lat="44.37711" lon="5.86891">
        <ele>801</ele>
        <time>2019-06-15T07:40:08Z</time>
      </trkpt>
      <trkpt lat="44.37713" lon="5.86888">
        <ele>801</ele>
        <time>2019-06-15T07:40:09Z</time>
      </trkpt>
      <trkpt lat="44.37715" lon="5.86886">
        <ele>801</ele>
        <time>2019-06-15T07:40:10Z</time>
      </trkpt>
      <trkpt lat="44.37717" lon="5.86884">
        <ele>801</ele>
        <time>2019-06-15T07:40:11Z</time>
      </trkpt>
      <trkpt lat="44.37719" lon="5.86882">
        <ele>801</ele>
        <time>2019-06-15T07:40:12Z</time>
      </trkpt>
      <trkpt lat="44.37721" lon="5.8688">
        <ele>801</ele>
        <time>2019-06-15T07:40:13Z</time>
      </trkpt>
      <trkpt lat="44.37723" lon="5.86879">
        <ele>802</ele>
        <time>2019-06-15T07:40:14Z</time>
      </trkpt>
      <trkpt lat="44.37725" lon="5.86877">
        <ele>802</ele>
        <time>2019-06-15T07:40:15Z</time>
      </trkpt>
      <trkpt lat="44.37727" lon="5.86876">
        <ele>802</ele>
        <time>2019-06-15T07:40:16Z</time>
      </trkpt>
      <trkpt lat="44.37729" lon="5.86875">
        <ele>803</ele>
        <time>2019-06-15T07:40:17Z</time>
      </trkpt>
      <trkpt lat="44.37732" lon="5.86874">
        <ele>803</ele>
        <time>2019-06-15T07:40:18Z</time>
      </trkpt>
      <trkpt lat="44.37734" lon="5.86872">
        <ele>803</ele>
        <time>2019-06-15T07:40:19Z</time>
      </trkpt>
      <trkpt lat="44.37736" lon="5.86871">
        <ele>803</ele>
        <time>2019-06-15T07:40:20Z</time>
      </trkpt>
      <trkpt lat="44.37738" lon="5.8687">
        <ele>803</ele>
        <time>2019-06-15T07:40:21Z</time>
      </trkpt>
      <trkpt lat="44.3774" lon="5.86869">
        <ele>803</ele>
        <time>2019-06-15T07:40:22Z</time>
      </trkpt>
      <trkpt lat="44.37743" lon="5.86869">
        <ele>803</ele>
        <time>2019-06-15T07:40:23Z</time>
      </trkpt>
      <trkpt lat="44.37745" lon="5.86869">
        <ele>803</ele>
        <time>2019-06-15T07:40:24Z</time>
      </trkpt>
      <trkpt lat="44.37748" lon="5.86868">
        <ele>804</ele>
        <time>2019-06-15T07:40:25Z</time>
      </trkpt>
      <trkpt lat="44.3775" lon="5.86868">
        <ele>804</ele>
        <time>2019-06-15T07:40:26Z</time>
      </trkpt>
      <trkpt lat="44.37752" lon="5.86868">
        <ele>804</ele>
        <time>2019-06-15T07:40:27Z</time>
      </trkpt>
      <trkpt lat="44.37754" lon="5.86869">
        <ele>804</ele>
        <time>2019-06-15T07:40:28Z</time>
      </trkpt>
      <trkpt lat="44.37757" lon="5.86869">
        <ele>804</ele>
        <time>2019-06-15T07:40:29Z</time>
      </trkpt>
      <trkpt lat="44.37759" lon="5.8687">
        <ele>805</ele>
        <time>2019-06-15T07:40:30Z</time>
      </trkpt>
      <trkpt lat="44.37761" lon="5.86871">
        <ele>805</ele>
        <time>2019-06-15T07:40:31Z</time>
      </trkpt>
      <trkpt lat="44.37764" lon="5.86873">
        <ele>805</ele>
        <time>2019-06-15T07:40:32Z</time>
      </trkpt>
      <trkpt lat="44.37766" lon="5.86874">
        <ele>805</ele>
        <time>2019-06-15T07:40:33Z</time>
      </trkpt>
      <trkpt lat="44.37768" lon="5.86876">
        <ele>805</ele>
        <time>2019-06-15T07:40:34Z</time>
      </trkpt>
      <trkpt lat="44.3777" lon="5.86877">
        <ele>805</ele>
        <time>2019-06-15T07:40:35Z</time>
      </trkpt>
      <trkpt lat="44.37772" lon="5.86877">
        <ele>806</ele>
        <time>2019-06-15T07:40:36Z</time>
      </trkpt>
      <trkpt lat="44.37775" lon="5.86878">
        <ele>806</ele>
        <time>2019-06-15T07:40:37Z</time>
      </trkpt>
      <trkpt lat="44.37777" lon="5.86879">
        <ele>807</ele>
        <time>2019-06-15T07:40:38Z</time>
      </trkpt>
      <trkpt lat="44.37779" lon="5.8688">
        <ele>807</ele>
        <time>2019-06-15T07:40:39Z</time>
      </trkpt>
      <trkpt lat="44.37781" lon="5.86881">
        <ele>807</ele>
        <time>2019-06-15T07:40:40Z</time>
      </trkpt>
      <trkpt lat="44.37784" lon="5.86881">
        <ele>807</ele>
        <time>2019-06-15T07:40:41Z</time>
      </trkpt>
      <trkpt lat="44.37786" lon="5.86882">
        <ele>808</ele>
        <time>2019-06-15T07:40:42Z</time>
      </trkpt>
      <trkpt lat="44.37788" lon="5.86883">
        <ele>808</ele>
        <time>2019-06-15T07:40:43Z</time>
      </trkpt>
      <trkpt lat="44.37791" lon="5.86885">
        <ele>808</ele>
        <time>2019-06-15T07:40:44Z</time>
      </trkpt>
      <trkpt lat="44.37793" lon="5.86886">
        <ele>808</ele>
        <time>2019-06-15T07:40:45Z</time>
      </trkpt>
      <trkpt lat="44.37795" lon="5.86887">
        <ele>809</ele>
        <time>2019-06-15T07:40:46Z</time>
      </trkpt>
      <trkpt lat="44.37798" lon="5.86888">
        <ele>809</ele>
        <time>2019-06-15T07:40:47Z</time>
      </trkpt>
      <trkpt lat="44.378" lon="5.86889">
        <ele>809</ele>
        <time>2019-06-15T07:40:48Z</time>
      </trkpt>
      <trkpt lat="44.37802" lon="5.86889">
        <ele>809</ele>
        <time>2019-06-15T07:40:49Z</time>
      </trkpt>
      <trkpt lat="44.37804" lon="5.8689">
        <ele>809</ele>
        <time>2019-06-15T07:40:50Z</time>
      </trkpt>
      <trkpt lat="44.37806" lon="5.8689">
        <ele>809</ele>
        <time>2019-06-15T07:40:51Z</time>
      </trkpt>
      <trkpt lat="44.37809" lon="5.8689">
        <ele>810</ele>
        <time>2019-06-15T07:40:52Z</time>
      </trkpt>
      <trkpt lat="44.37811" lon="5.8689">
        <ele>810</ele>
        <time>2019-06-15T07:40:53Z</time>
      </trkpt>
      <trkpt lat="44.37813" lon="5.86891">
        <ele>810</ele>
        <time>2019-06-15T07:40:54Z</time>
      </trkpt>
      <trkpt lat="44.37816" lon="5.86891">
        <ele>810</ele>
        <time>2019-06-15T07:40:55Z</time>
      </trkpt>
      <trkpt lat="44.37819" lon="5.86891">
        <ele>811</ele>
        <time>2019-06-15T07:40:56Z</time>
      </trkpt>
      <trkpt lat="44.37822" lon="5.86892">
        <ele>811</ele>
        <time>2019-06-15T07:40:57Z</time>
      </trkpt>
      <trkpt lat="44.37825" lon="5.86892">
        <ele>812</ele>
        <time>2019-06-15T07:40:58Z</time>
      </trkpt>
      <trkpt lat="44.37827" lon="5.86893">
        <ele>812</ele>
        <time>2019-06-15T07:40:59Z</time>
      </trkpt>
      <trkpt lat="44.3783" lon="5.86893">
        <ele>812</ele>
        <time>2019-06-15T07:41:00Z</time>
      </trkpt>
      <trkpt lat="44.37833" lon="5.86894">
        <ele>813</ele>
        <time>2019-06-15T07:41:01Z</time>
      </trkpt>
      <trkpt lat="44.37836" lon="5.86895">
        <ele>813</ele>
        <time>2019-06-15T07:41:02Z</time>
      </trkpt>
      <trkpt lat="44.37839" lon="5.86897">
        <ele>813</ele>
        <time>2019-06-15T07:41:03Z</time>
      </trkpt>
      <trkpt lat="44.37841" lon="5.86898">
        <ele>814</ele>
        <time>2019-06-15T07:41:04Z</time>
      </trkpt>
      <trkpt lat="44.37844" lon="5.869">
        <ele>814</ele>
        <time>2019-06-15T07:41:05Z</time>
      </trkpt>
      <trkpt lat="44.37846" lon="5.86902">
        <ele>814</ele>
        <time>2019-06-15T07:41:06Z</time>
      </trkpt>
      <trkpt lat="44.37849" lon="5.86903">
        <ele>814</ele>
        <time>2019-06-15T07:41:07Z</time>
      </trkpt>
      <trkpt lat="44.37851" lon="5.86905">
        <ele>815</ele>
        <time>2019-06-15T07:41:08Z</time>
      </trkpt>
      <trkpt lat="44.37853" lon="5.86907">
        <ele>815</ele>
        <time>2019-06-15T07:41:09Z</time>
      </trkpt>
      <trkpt lat="44.37856" lon="5.86908">
        <ele>815</ele>
        <time>2019-06-15T07:41:10Z</time>
      </trkpt>
      <trkpt lat="44.37858" lon="5.8691">
        <ele>815</ele>
        <time>2019-06-15T07:41:11Z</time>
      </trkpt>
      <trkpt lat="44.3786" lon="5.86912">
        <ele>815</ele>
        <time>2019-06-15T07:41:12Z</time>
      </trkpt>
      <trkpt lat="44.37862" lon="5.86914">
        <ele>815</ele>
        <time>2019-06-15T07:41:13Z</time>
      </trkpt>
      <trkpt lat="44.37864" lon="5.86915">
        <ele>815</ele>
        <time>2019-06-15T07:41:14Z</time>
      </trkpt>
      <trkpt lat="44.37867" lon="5.86917">
        <ele>815</ele>
        <time>2019-06-15T07:41:15Z</time>
      </trkpt>
      <trkpt lat="44.37869" lon="5.86918">
        <ele>815</ele>
        <time>2019-06-15T07:41:16Z</time>
      </trkpt>
      <trkpt lat="44.37872" lon="5.86919">
        <ele>816</ele>
        <time>2019-06-15T07:41:17Z</time>
      </trkpt>
      <trkpt lat="44.37874" lon="5.8692">
        <ele>816</ele>
        <time>2019-06-15T07:41:18Z</time>
      </trkpt>
      <trkpt lat="44.37877" lon="5.8692">
        <ele>816</ele>
        <time>2019-06-15T07:41:19Z</time>
      </trkpt>
      <trkpt lat="44.37879" lon="5.86921">
        <ele>816</ele>
        <time>2019-06-15T07:41:20Z</time>
      </trkpt>
      <trkpt lat="44.37882" lon="5.86922">
        <ele>817</ele>
        <time>2019-06-15T07:41:21Z</time>
      </trkpt>
      <trkpt lat="44.37884" lon="5.86923">
        <ele>817</ele>
        <time>2019-06-15T07:41:22Z</time>
      </trkpt>
      <trkpt lat="44.37886" lon="5.86924">
        <ele>817</ele>
        <time>2019-06-15T07:41:23Z</time>
      </trkpt>
      <trkpt lat="44.37889" lon="5.86924">
        <ele>817</ele>
        <time>2019-06-15T07:41:24Z</time>
      </trkpt>
      <trkpt lat="44.37892" lon="5.86924">
        <ele>818</ele>
        <time>2019-06-15T07:41:25Z</time>
      </trkpt>
      <trkpt lat="44.37894" lon="5.86925">
        <ele>818</ele>
        <time>2019-06-15T07:41:26Z</time>
      </trkpt>
      <trkpt lat="44.37897" lon="5.86926">
        <ele>818</ele>
        <time>2019-06-15T07:41:27Z</time>
      </trkpt>
      <trkpt lat="44.37899" lon="5.86926">
        <ele>818</ele>
        <time>2019-06-15T07:41:28Z</time>
      </trkpt>
      <trkpt lat="44.37902" lon="5.86927">
        <ele>819</ele>
        <time>2019-06-15T07:41:29Z</time>
      </trkpt>
      <trkpt lat="44.37905" lon="5.86927">
        <ele>819</ele>
        <time>2019-06-15T07:41:30Z</time>
      </trkpt>
      <trkpt lat="44.37907" lon="5.86927">
        <ele>819</ele>
        <time>2019-06-15T07:41:31Z</time>
      </trkpt>
      <trkpt lat="44.3791" lon="5.86928">
        <ele>820</ele>
        <time>2019-06-15T07:41:32Z</time>
      </trkpt>
      <trkpt lat="44.37912" lon="5.86929">
        <ele>820</ele>
        <time>2019-06-15T07:41:33Z</time>
      </trkpt>
      <trkpt lat="44.37914" lon="5.8693">
        <ele>820</ele>
        <time>2019-06-15T07:41:34Z</time>
      </trkpt>
      <trkpt lat="44.37916" lon="5.86931">
        <ele>821</ele>
        <time>2019-06-15T07:41:35Z</time>
      </trkpt>
      <trkpt lat="44.37918" lon="5.86932">
        <ele>821</ele>
        <time>2019-06-15T07:41:36Z</time>
      </trkpt>
      <trkpt lat="44.3792" lon="5.86933">
        <ele>821</ele>
        <time>2019-06-15T07:41:37Z</time>
      </trkpt>
      <trkpt lat="44.37922" lon="5.86933">
        <ele>821</ele>
        <time>2019-06-15T07:41:38Z</time>
      </trkpt>
      <trkpt lat="44.37924" lon="5.86934">
        <ele>822</ele>
        <time>2019-06-15T07:41:39Z</time>
      </trkpt>
      <trkpt lat="44.37926" lon="5.86935">
        <ele>822</ele>
        <time>2019-06-15T07:41:40Z</time>
      </trkpt>
      <trkpt lat="44.37928" lon="5.86936">
        <ele>822</ele>
        <time>2019-06-15T07:41:41Z</time>
      </trkpt>
      <trkpt lat="44.37931" lon="5.86938">
        <ele>823</ele>
        <time>2019-06-15T07:41:42Z</time>
      </trkpt>
      <trkpt lat="44.37933" lon="5.86939">
        <ele>823</ele>
        <time>2019-06-15T07:41:43Z</time>
      </trkpt>
      <trkpt lat="44.37935" lon="5.8694">
        <ele>824</ele>
        <time>2019-06-15T07:41:44Z</time>
      </trkpt>
      <trkpt lat="44.37937" lon="5.86941">
        <ele>824</ele>
        <time>2019-06-15T07:41:45Z</time>
      </trkpt>
      <trkpt lat="44.37939" lon="5.86943">
        <ele>824</ele>
        <time>2019-06-15T07:41:46Z</time>
      </trkpt>
      <trkpt lat="44.37941" lon="5.86944">
        <ele>825</ele>
        <time>2019-06-15T07:41:47Z</time>
      </trkpt>
      <trkpt lat="44.37943" lon="5.86945">
        <ele>825</ele>
        <time>2019-06-15T07:41:48Z</time>
      </trkpt>
      <trkpt lat="44.37946" lon="5.86946">
        <ele>826</ele>
        <time>2019-06-15T07:41:49Z</time>
      </trkpt>
      <trkpt lat="44.37947" lon="5.86947">
        <ele>826</ele>
        <time>2019-06-15T07:41:50Z</time>
      </trkpt>
      <trkpt lat="44.3795" lon="5.86948">
        <ele>827</ele>
        <time>2019-06-15T07:41:51Z</time>
      </trkpt>
      <trkpt lat="44.37952" lon="5.86949">
        <ele>827</ele>
        <time>2019-06-15T07:41:52Z</time>
      </trkpt>
      <trkpt lat="44.37955" lon="5.8695">
        <ele>828</ele>
        <time>2019-06-15T07:41:53Z</time>
      </trkpt>
      <trkpt lat="44.37957" lon="5.86951">
        <ele>828</ele>
        <time>2019-06-15T07:41:54Z</time>
      </trkpt>
      <trkpt lat="44.3796" lon="5.86951">
        <ele>828</ele>
        <time>2019-06-15T07:41:55Z</time>
      </trkpt>
      <trkpt lat="44.37962" lon="5.86951">
        <ele>829</ele>
        <time>2019-06-15T07:41:56Z</time>
      </trkpt>
      <trkpt lat="44.37965" lon="5.86952">
        <ele>829</ele>
        <time>2019-06-15T07:41:57Z</time>
      </trkpt>
      <trkpt lat="44.37968" lon="5.86953">
        <ele>829</ele>
        <time>2019-06-15T07:41:58Z</time>
      </trkpt>
      <trkpt lat="44.3797" lon="5.86954">
        <ele>829</ele>
        <time>2019-06-15T07:41:59Z</time>
      </trkpt>
      <trkpt lat="44.37973" lon="5.86954">
        <ele>830</ele>
        <time>2019-06-15T07:42:00Z</time>
      </trkpt>
      <trkpt lat="44.37975" lon="5.86954">
        <ele>830</ele>
        <time>2019-06-15T07:42:01Z</time>
      </trkpt>
      <trkpt lat="44.37977" lon="5.86954">
        <ele>830</ele>
        <time>2019-06-15T07:42:02Z</time>
      </trkpt>
      <trkpt lat="44.3798" lon="5.86954">
        <ele>830</ele>
        <time>2019-06-15T07:42:03Z</time>
      </trkpt>
      <trkpt lat="44.37982" lon="5.86954">
        <ele>830</ele>
        <time>2019-06-15T07:42:04Z</time>
      </trkpt>
      <trkpt lat="44.37984" lon="5.86955">
        <ele>830</ele>
        <time>2019-06-15T07:42:05Z</time>
      </trkpt>
      <trkpt lat="44.37986" lon="5.86956">
        <ele>830</ele>
        <time>2019-06-15T07:42:06Z</time>
      </trkpt>
      <trkpt lat="44.37988" lon="5.86956">
        <ele>831</ele>
        <time>2019-06-15T07:42:07Z</time>
      </trkpt>
      <trkpt lat="44.3799" lon="5.86955">
        <ele>831</ele>
        <time>2019-06-15T07:42:08Z</time>
      </trkpt>
      <trkpt lat="44.37992" lon="5.86955">
        <ele>831</ele>
        <time>2019-06-15T07:42:09Z</time>
      </trkpt>
      <trkpt lat="44.37995" lon="5.86954">
        <ele>831</ele>
        <time>2019-06-15T07:42:10Z</time>
      </trkpt>
      <trkpt lat="44.37997" lon="5.86955">
        <ele>831</ele>
        <time>2019-06-15T07:42:11Z</time>
      </trkpt>
      <trkpt lat="44.37999" lon="5.86955">
        <ele>831</ele>
        <time>2019-06-15T07:42:12Z</time>
      </trkpt>
      <trkpt lat="44.38" lon="5.86955">
        <ele>831</ele>
        <time>2019-06-15T07:42:13Z</time>
      </trkpt>
      <trkpt lat="44.38003" lon="5.86955">
        <ele>831</ele>
        <time>2019-06-15T07:42:14Z</time>
      </trkpt>
      <trkpt lat="44.38005" lon="5.86955">
        <ele>831</ele>
        <time>2019-06-15T07:42:15Z</time>
      </trkpt>
      <trkpt lat="44.38007" lon="5.86954">
        <ele>831</ele>
        <time>2019-06-15T07:42:16Z</time>
      </trkpt>
      <trkpt lat="44.38009" lon="5.86954">
        <ele>831</ele>
        <time>2019-06-15T07:42:17Z</time>
      </trkpt>
      <trkpt lat="44.38011" lon="5.86953">
        <ele>832</ele>
        <time>2019-06-15T07:42:18Z</time>
      </trkpt>
      <trkpt lat="44.38013" lon="5.86952">
        <ele>832</ele>
        <time>2019-06-15T07:42:19Z</time>
      </trkpt>
      <trkpt lat="44.38015" lon="5.86951">
        <ele>832</ele>
        <time>2019-06-15T07:42:20Z</time>
      </trkpt>
      <trkpt lat="44.38017" lon="5.86949">
        <ele>832</ele>
        <time>2019-06-15T07:42:21Z</time>
      </trkpt>
      <trkpt lat="44.38019" lon="5.86947">
        <ele>832</ele>
        <time>2019-06-15T07:42:22Z</time>
      </trkpt>
      <trkpt lat="44.38021" lon="5.86946">
        <ele>832</ele>
        <time>2019-06-15T07:42:23Z</time>
      </trkpt>
      <trkpt lat="44.38023" lon="5.86944">
        <ele>832</ele>
        <time>2019-06-15T07:42:24Z</time>
      </trkpt>
      <trkpt lat="44.38026" lon="5.86943">
        <ele>832</ele>
        <time>2019-06-15T07:42:25Z</time>
      </trkpt>
      <trkpt lat="44.38028" lon="5.86941">
        <ele>832</ele>
        <time>2019-06-15T07:42:26Z</time>
      </trkpt>
      <trkpt lat="44.3803" lon="5.86939">
        <ele>833</ele>
        <time>2019-06-15T07:42:27Z</time>
      </trkpt>
      <trkpt lat="44.38032" lon="5.86937">
        <ele>833</ele>
        <time>2019-06-15T07:42:28Z</time>
      </trkpt>
      <trkpt lat="44.38034" lon="5.86935">
        <ele>833</ele>
        <time>2019-06-15T07:42:29Z</time>
      </trkpt>
      <trkpt lat="44.38035" lon="5.86933">
        <ele>833</ele>
        <time>2019-06-15T07:42:30Z</time>
      </trkpt>
      <trkpt lat="44.38037" lon="5.86931">
        <ele>833</ele>
        <time>2019-06-15T07:42:31Z</time>
      </trkpt>
      <trkpt lat="44.38038" lon="5.8693">
        <ele>833</ele>
        <time>2019-06-15T07:42:32Z</time>
      </trkpt>
      <trkpt lat="44.3804" lon="5.86928">
        <ele>833</ele>
        <time>2019-06-15T07:42:33Z</time>
      </trkpt>
      <trkpt lat="44.38042" lon="5.86926">
        <ele>834</ele>
        <time>2019-06-15T07:42:34Z</time>
      </trkpt>
      <trkpt lat="44.38043" lon="5.86925">
        <ele>834</ele>
        <time>2019-06-15T07:42:35Z</time>
      </trkpt>
      <trkpt lat="44.38045" lon="5.86923">
        <ele>834</ele>
        <time>2019-06-15T07:42:36Z</time>
      </trkpt>
      <trkpt lat="44.38047" lon="5.86922">
        <ele>834</ele>
        <time>2019-06-15T07:42:37Z</time>
      </trkpt>
      <trkpt lat="44.38049" lon="5.8692">
        <ele>834</ele>
        <time>2019-06-15T07:42:38Z</time>
      </trkpt>
      <trkpt lat="44.3805" lon="5.86918">
        <ele>834</ele>
        <time>2019-06-15T07:42:39Z</time>
      </trkpt>
      <trkpt lat="44.38052" lon="5.86917">
        <ele>834</ele>
        <time>2019-06-15T07:42:40Z</time>
      </trkpt>
      <trkpt lat="44.38053" lon="5.86915">
        <ele>834</ele>
        <time>2019-06-15T07:42:41Z</time>
      </trkpt>
      <trkpt lat="44.38055" lon="5.86914">
        <ele>834</ele>
        <time>2019-06-15T07:42:42Z</time>
      </trkpt>
      <trkpt lat="44.38057" lon="5.86912">
        <ele>834</ele>
        <time>2019-06-15T07:42:43Z</time>
      </trkpt>
      <trkpt lat="44.38058" lon="5.86911">
        <ele>834</ele>
        <time>2019-06-15T07:42:44Z</time>
      </trkpt>
      <trkpt lat="44.3806" lon="5.86909">
        <ele>835</ele>
        <time>2019-06-15T07:42:45Z</time>
      </trkpt>
      <trkpt lat="44.38061" lon="5.86907">
        <ele>835</ele>
        <time>2019-06-15T07:42:46Z</time>
      </trkpt>
      <trkpt lat="44.38063" lon="5.86906">
        <ele>835</ele>
        <time>2019-06-15T07:42:47Z</time>
      </trkpt>
      <trkpt lat="44.38064" lon="5.86905">
        <ele>835</ele>
        <time>2019-06-15T07:42:48Z</time>
      </trkpt>
      <trkpt lat="44.38066" lon="5.86903">
        <ele>835</ele>
        <time>2019-06-15T07:42:49Z</time>
      </trkpt>
      <trkpt lat="44.38068" lon="5.86902">
        <ele>836</ele>
        <time>2019-06-15T07:42:50Z</time>
      </trkpt>
      <trkpt lat="44.38069" lon="5.869">
        <ele>836</ele>
        <time>2019-06-15T07:42:51Z</time>
      </trkpt>
      <trkpt lat="44.38071" lon="5.86899">
        <ele>836</ele>
        <time>2019-06-15T07:42:52Z</time>
      </trkpt>
      <trkpt lat="44.38072" lon="5.86898">
        <ele>836</ele>
        <time>2019-06-15T07:42:53Z</time>
      </trkpt>
      <trkpt lat="44.38073" lon="5.86896">
        <ele>837</ele>
        <time>2019-06-15T07:42:54Z</time>
      </trkpt>
      <trkpt lat="44.38075" lon="5.86895">
        <ele>837</ele>
        <time>2019-06-15T07:42:55Z</time>
      </trkpt>
      <trkpt lat="44.38076" lon="5.86895">
        <ele>837</ele>
        <time>2019-06-15T07:42:56Z</time>
      </trkpt>
      <trkpt lat="44.38078" lon="5.86894">
        <ele>837</ele>
        <time>2019-06-15T07:42:57Z</time>
      </trkpt>
      <trkpt lat="44.38079" lon="5.86893">
        <ele>838</ele>
        <time>2019-06-15T07:42:58Z</time>
      </trkpt>
      <trkpt lat="44.38081" lon="5.86892">
        <ele>838</ele>
        <time>2019-06-15T07:42:59Z</time>
      </trkpt>
      <trkpt lat="44.38083" lon="5.86891">
        <ele>838</ele>
        <time>2019-06-15T07:43:00Z</time>
      </trkpt>
      <trkpt lat="44.38085" lon="5.8689">
        <ele>839</ele>
        <time>2019-06-15T07:43:01Z</time>
      </trkpt>
      <trkpt lat="44.38087" lon="5.8689">
        <ele>839</ele>
        <time>2019-06-15T07:43:02Z</time>
      </trkpt>
      <trkpt lat="44.38089" lon="5.8689">
        <ele>839</ele>
        <time>2019-06-15T07:43:03Z</time>
      </trkpt>
      <trkpt lat="44.38091" lon="5.86889">
        <ele>840</ele>
        <time>2019-06-15T07:43:04Z</time>
      </trkpt>
      <trkpt lat="44.38093" lon="5.86888">
        <ele>840</ele>
        <time>2019-06-15T07:43:05Z</time>
      </trkpt>
      <trkpt lat="44.38095" lon="5.86888">
        <ele>840</ele>
        <time>2019-06-15T07:43:06Z</time>
      </trkpt>
      <trkpt lat="44.38097" lon="5.86888">
        <ele>841</ele>
        <time>2019-06-15T07:43:07Z</time>
      </trkpt>
      <trkpt lat="44.38099" lon="5.86889">
        <ele>842</ele>
        <time>2019-06-15T07:43:08Z</time>
      </trkpt>
      <trkpt lat="44.381" lon="5.86889">
        <ele>842</ele>
        <time>2019-06-15T07:43:09Z</time>
      </trkpt>
      <trkpt lat="44.38103" lon="5.86888">
        <ele>843</ele>
        <time>2019-06-15T07:43:10Z</time>
      </trkpt>
      <trkpt lat="44.38105" lon="5.86888">
        <ele>844</ele>
        <time>2019-06-15T07:43:11Z</time>
      </trkpt>
      <trkpt lat="44.38108" lon="5.86887">
        <ele>844</ele>
        <time>2019-06-15T07:43:12Z</time>
      </trkpt>
      <trkpt lat="44.3811" lon="5.86887">
        <ele>845</ele>
        <time>2019-06-15T07:43:13Z</time>
      </trkpt>
      <trkpt lat="44.38112" lon="5.86887">
        <ele>845</ele>
        <time>2019-06-15T07:43:14Z</time>
      </trkpt>
      <trkpt lat="44.38114" lon="5.86887">
        <ele>846</ele>
        <time>2019-06-15T07:43:15Z</time>
      </trkpt>
      <trkpt lat="44.38117" lon="5.86886">
        <ele>846</ele>
        <time>2019-06-15T07:43:16Z</time>
      </trkpt>
      <trkpt lat="44.38118" lon="5.86887">
        <ele>847</ele>
        <time>2019-06-15T07:43:17Z</time>
      </trkpt>
      <trkpt lat="44.38121" lon="5.86887">
        <ele>847</ele>
        <time>2019-06-15T07:43:18Z</time>
      </trkpt>
      <trkpt lat="44.38122" lon="5.86887">
        <ele>848</ele>
        <time>2019-06-15T07:43:19Z</time>
      </trkpt>
      <trkpt lat="44.38124" lon="5.86888">
        <ele>849</ele>
        <time>2019-06-15T07:43:20Z</time>
      </trkpt>
      <trkpt lat="44.38126" lon="5.86888">
        <ele>849</ele>
        <time>2019-06-15T07:43:21Z</time>
      </trkpt>
      <trkpt lat="44.38128" lon="5.86888">
        <ele>849</ele>
        <time>2019-06-15T07:43:22Z</time>
      </trkpt>
      <trkpt lat="44.3813" lon="5.86889">
        <ele>849</ele>
        <time>2019-06-15T07:43:23Z</time>
      </trkpt>
      <trkpt lat="44.38132" lon="5.86889">
        <ele>849</ele>
        <time>2019-06-15T07:43:24Z</time>
      </trkpt>
      <trkpt lat="44.38134" lon="5.8689">
        <ele>849</ele>
        <time>2019-06-15T07:43:25Z</time>
      </trkpt>
      <trkpt lat="44.38136" lon="5.8689">
        <ele>849</ele>
        <time>2019-06-15T07:43:26Z</time>
      </trkpt>
      <trkpt lat="44.38138" lon="5.86891">
        <ele>849</ele>
        <time>2019-06-15T07:43:27Z</time>
      </trkpt>
      <trkpt lat="44.38141" lon="5.86891">
        <ele>849</ele>
        <time>2019-06-15T07:43:28Z</time>
      </trkpt>
      <trkpt lat="44.38143" lon="5.86891">
        <ele>849</ele>
        <time>2019-06-15T07:43:29Z</time>
      </trkpt>
      <trkpt lat="44.38145" lon="5.86892">
        <ele>849</ele>
        <time>2019-06-15T07:43:30Z</time>
      </trkpt>
      <trkpt lat="44.38147" lon="5.86892">
        <ele>850</ele>
        <time>2019-06-15T07:43:31Z</time>
      </trkpt>
      <trkpt lat="44.3815" lon="5.86892">
        <ele>850</ele>
        <time>2019-06-15T07:43:32Z</time>
      </trkpt>
      <trkpt lat="44.38152" lon="5.86892">
        <ele>850</ele>
        <time>2019-06-15T07:43:33Z</time>
      </trkpt>
      <trkpt lat="44.38154" lon="5.86892">
        <ele>850</ele>
        <time>2019-06-15T07:43:34Z</time>
      </trkpt>
      <trkpt lat="44.38157" lon="5.86892">
        <ele>850</ele>
        <time>2019-06-15T07:43:35Z</time>
      </trkpt>
      <trkpt lat="44.38159" lon="5.86892">
        <ele>850</ele>
        <time>2019-06-15T07:43:36Z</time>
      </trkpt>
      <trkpt lat="44.38161" lon="5.86892">
        <ele>850</ele>
        <time>2019-06-15T07:43:37Z</time>
      </trkpt>
      <trkpt lat="44.38163" lon="5.86892">
        <ele>850</ele>
        <time>2019-06-15T07:43:38Z</time>
      </trkpt>
      <trkpt lat="44.38166" lon="5.86892">
        <ele>850</ele>
        <time>2019-06-15T07:43:39Z</time>
      </trkpt>
      <trkpt lat="44.38168" lon="5.86891">
        <ele>850</ele>
        <time>2019-06-15T07:43:40Z</time>
      </trkpt>
      <trkpt lat="44.3817" lon="5.86891">
        <ele>851</ele>
        <time>2019-06-15T07:43:41Z</time>
      </trkpt>
      <trkpt lat="44.38172" lon="5.8689">
        <ele>851</ele>
        <time>2019-06-15T07:43:42Z</time>
      </trkpt>
      <trkpt lat="44.38175" lon="5.8689">
        <ele>851</ele>
        <time>2019-06-15T07:43:43Z</time>
      </trkpt>
      <trkpt lat="44.38177" lon="5.8689">
        <ele>851</ele>
        <time>2019-06-15T07:43:44Z</time>
      </trkpt>
      <trkpt lat="44.38179" lon="5.8689">
        <ele>852</ele>
        <time>2019-06-15T07:43:45Z</time>
      </trkpt>
      <trkpt lat="44.38181" lon="5.8689">
        <ele>852</ele>
        <time>2019-06-15T07:43:46Z</time>
      </trkpt>
      <trkpt lat="44.38183" lon="5.86889">
        <ele>852</ele>
        <time>2019-06-15T07:43:47Z</time>
      </trkpt>
      <trkpt lat="44.38185" lon="5.86889">
        <ele>852</ele>
        <time>2019-06-15T07:43:48Z</time>
      </trkpt>
      <trkpt lat="44.38187" lon="5.86888">
        <ele>852</ele>
        <time>2019-06-15T07:43:49Z</time>
      </trkpt>
      <trkpt lat="44.3819" lon="5.86888">
        <ele>852</ele>
        <time>2019-06-15T07:43:50Z</time>
      </trkpt>
      <trkpt lat="44.38192" lon="5.86887">
        <ele>852</ele>
        <time>2019-06-15T07:43:51Z</time>
      </trkpt>
      <trkpt lat="44.38195" lon="5.86887">
        <ele>853</ele>
        <time>2019-06-15T07:43:52Z</time>
      </trkpt>
      <trkpt lat="44.38197" lon="5.86886">
        <ele>853</ele>
        <time>2019-06-15T07:43:53Z</time>
      </trkpt>
      <trkpt lat="44.38199" lon="5.86885">
        <ele>853</ele>
        <time>2019-06-15T07:43:54Z</time>
      </trkpt>
      <trkpt lat="44.38201" lon="5.86885">
        <ele>853</ele>
        <time>2019-06-15T07:43:55Z</time>
      </trkpt>
      <trkpt lat="44.38203" lon="5.86885">
        <ele>853</ele>
        <time>2019-06-15T07:43:56Z</time>
      </trkpt>
      <trkpt lat="44.38205" lon="5.86885">
        <ele>853</ele>
        <time>2019-06-15T07:43:57Z</time>
      </trkpt>
      <trkpt lat="44.38208" lon="5.86885">
        <ele>854</ele>
        <time>2019-06-15T07:43:58Z</time>
      </trkpt>
      <trkpt lat="44.3821" lon="5.86884">
        <ele>854</ele>
        <time>2019-06-15T07:43:59Z</time>
      </trkpt>
      <trkpt lat="44.38213" lon="5.86884">
        <ele>854</ele>
        <time>2019-06-15T07:44:00Z</time>
      </trkpt>
      <trkpt lat="44.38215" lon="5.86883">
        <ele>854</ele>
        <time>2019-06-15T07:44:01Z</time>
      </trkpt>
      <trkpt lat="44.38218" lon="5.86883">
        <ele>854</ele>
        <time>2019-06-15T07:44:02Z</time>
      </trkpt>
      <trkpt lat="44.38221" lon="5.86882">
        <ele>854</ele>
        <time>2019-06-15T07:44:03Z</time>
      </trkpt>
      <trkpt lat="44.38223" lon="5.86882">
        <ele>854</ele>
        <time>2019-06-15T07:44:04Z</time>
      </trkpt>
      <trkpt lat="44.38225" lon="5.86881">
        <ele>854</ele>
        <time>2019-06-15T07:44:05Z</time>
      </trkpt>
      <trkpt lat="44.38228" lon="5.86881">
        <ele>854</ele>
        <time>2019-06-15T07:44:06Z</time>
      </trkpt>
      <trkpt lat="44.3823" lon="5.8688">
        <ele>854</ele>
        <time>2019-06-15T07:44:07Z</time>
      </trkpt>
      <trkpt lat="44.38233" lon="5.86879">
        <ele>854</ele>
        <time>2019-06-15T07:44:08Z</time>
      </trkpt>
      <trkpt lat="44.38235" lon="5.86879">
        <ele>854</ele>
        <time>2019-06-15T07:44:09Z</time>
      </trkpt>
      <trkpt lat="44.38237" lon="5.86878">
        <ele>854</ele>
        <time>2019-06-15T07:44:10Z</time>
      </trkpt>
      <trkpt lat="44.3824" lon="5.86877">
        <ele>854</ele>
        <time>2019-06-15T07:44:11Z</time>
      </trkpt>
      <trkpt lat="44.38242" lon="5.86876">
        <ele>854</ele>
        <time>2019-06-15T07:44:12Z</time>
      </trkpt>
      <trkpt lat="44.38245" lon="5.86876">
        <ele>854</ele>
        <time>2019-06-15T07:44:13Z</time>
      </trkpt>
      <trkpt lat="44.38247" lon="5.86875">
        <ele>855</ele>
        <time>2019-06-15T07:44:14Z</time>
      </trkpt>
      <trkpt lat="44.3825" lon="5.86874">
        <ele>855</ele>
        <time>2019-06-15T07:44:15Z</time>
      </trkpt>
      <trkpt lat="44.38252" lon="5.86873">
        <ele>855</ele>
        <time>2019-06-15T07:44:16Z</time>
      </trkpt>
      <trkpt lat="44.38254" lon="5.86871">
        <ele>855</ele>
        <time>2019-06-15T07:44:17Z</time>
      </trkpt>
      <trkpt lat="44.38256" lon="5.8687">
        <ele>855</ele>
        <time>2019-06-15T07:44:18Z</time>
      </trkpt>
      <trkpt lat="44.38259" lon="5.86869">
        <ele>855</ele>
        <time>2019-06-15T07:44:19Z</time>
      </trkpt>
      <trkpt lat="44.38261" lon="5.86869">
        <ele>855</ele>
        <time>2019-06-15T07:44:20Z</time>
      </trkpt>
      <trkpt lat="44.38263" lon="5.86868">
        <ele>856</ele>
        <time>2019-06-15T07:44:21Z</time>
      </trkpt>
      <trkpt lat="44.38266" lon="5.86866">
        <ele>856</ele>
        <time>2019-06-15T07:44:22Z</time>
      </trkpt>
      <trkpt lat="44.38268" lon="5.86865">
        <ele>856</ele>
        <time>2019-06-15T07:44:23Z</time>
      </trkpt>
      <trkpt lat="44.3827" lon="5.86864">
        <ele>856</ele>
        <time>2019-06-15T07:44:24Z</time>
      </trkpt>
      <trkpt lat="44.38272" lon="5.86863">
        <ele>856</ele>
        <time>2019-06-15T07:44:25Z</time>
      </trkpt>
      <trkpt lat="44.38275" lon="5.86862">
        <ele>856</ele>
        <time>2019-06-15T07:44:26Z</time>
      </trkpt>
      <trkpt lat="44.38277" lon="5.86861">
        <ele>856</ele>
        <time>2019-06-15T07:44:27Z</time>
      </trkpt>
      <trkpt lat="44.38279" lon="5.8686">
        <ele>857</ele>
        <time>2019-06-15T07:44:28Z</time>
      </trkpt>
      <trkpt lat="44.38281" lon="5.86859">
        <ele>857</ele>
        <time>2019-06-15T07:44:29Z</time>
      </trkpt>
      <trkpt lat="44.38283" lon="5.86858">
        <ele>857</ele>
        <time>2019-06-15T07:44:30Z</time>
      </trkpt>
      <trkpt lat="44.38285" lon="5.86857">
        <ele>857</ele>
        <time>2019-06-15T07:44:31Z</time>
      </trkpt>
      <trkpt lat="44.38288" lon="5.86857">
        <ele>857</ele>
        <time>2019-06-15T07:44:32Z</time>
      </trkpt>
      <trkpt lat="44.3829" lon="5.86856">
        <ele>857</ele>
        <time>2019-06-15T07:44:33Z</time>
      </trkpt>
      <trkpt lat="44.38292" lon="5.86855">
        <ele>857</ele>
        <time>2019-06-15T07:44:34Z</time>
      </trkpt>
      <trkpt lat="44.38294" lon="5.86853">
        <ele>858</ele>
        <time>2019-06-15T07:44:35Z</time>
      </trkpt>
      <trkpt lat="44.38296" lon="5.86852">
        <ele>858</ele>
        <time>2019-06-15T07:44:36Z</time>
      </trkpt>
      <trkpt lat="44.38298" lon="5.86851">
        <ele>858</ele>
        <time>2019-06-15T07:44:37Z</time>
      </trkpt>
      <trkpt lat="44.383" lon="5.86851">
        <ele>859</ele>
        <time>2019-06-15T07:44:38Z</time>
      </trkpt>
      <trkpt lat="44.38302" lon="5.8685">
        <ele>859</ele>
        <time>2019-06-15T07:44:39Z</time>
      </trkpt>
      <trkpt lat="44.38303" lon="5.8685">
        <ele>860</ele>
        <time>2019-06-15T07:44:40Z</time>
      </trkpt>
      <trkpt lat="44.38306" lon="5.86849">
        <ele>860</ele>
        <time>2019-06-15T07:44:41Z</time>
      </trkpt>
      <trkpt lat="44.38308" lon="5.86848">
        <ele>860</ele>
        <time>2019-06-15T07:44:42Z</time>
      </trkpt>
      <trkpt lat="44.3831" lon="5.86847">
        <ele>861</ele>
        <time>2019-06-15T07:44:43Z</time>
      </trkpt>
      <trkpt lat="44.38313" lon="5.86846">
        <ele>861</ele>
        <time>2019-06-15T07:44:44Z</time>
      </trkpt>
      <trkpt lat="44.38315" lon="5.86845">
        <ele>861</ele>
        <time>2019-06-15T07:44:45Z</time>
      </trkpt>
      <trkpt lat="44.38317" lon="5.86843">
        <ele>861</ele>
        <time>2019-06-15T07:44:46Z</time>
      </trkpt>
      <trkpt lat="44.38319" lon="5.86842">
        <ele>862</ele>
        <time>2019-06-15T07:44:47Z</time>
      </trkpt>
      <trkpt lat="44.38321" lon="5.86842">
        <ele>862</ele>
        <time>2019-06-15T07:44:48Z</time>
      </trkpt>
      <trkpt lat="44.38323" lon="5.86841">
        <ele>862</ele>
        <time>2019-06-15T07:44:49Z</time>
      </trkpt>
      <trkpt lat="44.38325" lon="5.8684">
        <ele>862</ele>
        <time>2019-06-15T07:44:50Z</time>
      </trkpt>
      <trkpt lat="44.38327" lon="5.86838">
        <ele>862</ele>
        <time>2019-06-15T07:44:51Z</time>
      </trkpt>
      <trkpt lat="44.38329" lon="5.86837">
        <ele>862</ele>
        <time>2019-06-15T07:44:52Z</time>
      </trkpt>
      <trkpt lat="44.38332" lon="5.86835">
        <ele>862</ele>
        <time>2019-06-15T07:44:53Z</time>
      </trkpt>
      <trkpt lat="44.38334" lon="5.86834">
        <ele>863</ele>
        <time>2019-06-15T07:44:54Z</time>
      </trkpt>
      <trkpt lat="44.38337" lon="5.86833">
        <ele>863</ele>
        <time>2019-06-15T07:44:55Z</time>
      </trkpt>
      <trkpt lat="44.38339" lon="5.86832">
        <ele>863</ele>
        <time>2019-06-15T07:44:56Z</time>
      </trkpt>
      <trkpt lat="44.38342" lon="5.86831">
        <ele>863</ele>
        <time>2019-06-15T07:44:57Z</time>
      </trkpt>
      <trkpt lat="44.38344" lon="5.8683">
        <ele>863</ele>
        <time>2019-06-15T07:44:58Z</time>
      </trkpt>
      <trkpt lat="44.38346" lon="5.86828">
        <ele>863</ele>
        <time>2019-06-15T07:44:59Z</time>
      </trkpt>
      <trkpt lat="44.38349" lon="5.86826">
        <ele>863</ele>
        <time>2019-06-15T07:45:00Z</time>
      </trkpt>
      <trkpt lat="44.38351" lon="5.86825">
        <ele>863</ele>
        <time>2019-06-15T07:45:01Z</time>
      </trkpt>
      <trkpt lat="44.38354" lon="5.86824">
        <ele>863</ele>
        <time>2019-06-15T07:45:02Z</time>
      </trkpt>
      <trkpt lat="44.38356" lon="5.86823">
        <ele>863</ele>
        <time>2019-06-15T07:45:03Z</time>
      </trkpt>
      <trkpt lat="44.38359" lon="5.86822">
        <ele>863</ele>
        <time>2019-06-15T07:45:04Z</time>
      </trkpt>
      <trkpt lat="44.38362" lon="5.8682">
        <ele>863</ele>
        <time>2019-06-15T07:45:05Z</time>
      </trkpt>
      <trkpt lat="44.38364" lon="5.86819">
        <ele>863</ele>
        <time>2019-06-15T07:45:06Z</time>
      </trkpt>
      <trkpt lat="44.38367" lon="5.86817">
        <ele>863</ele>
        <time>2019-06-15T07:45:07Z</time>
      </trkpt>
      <trkpt lat="44.3837" lon="5.86815">
        <ele>863</ele>
        <time>2019-06-15T07:45:08Z</time>
      </trkpt>
      <trkpt lat="44.38373" lon="5.86813">
        <ele>863</ele>
        <time>2019-06-15T07:45:09Z</time>
      </trkpt>
      <trkpt lat="44.38376" lon="5.86811">
        <ele>863</ele>
        <time>2019-06-15T07:45:10Z</time>
      </trkpt>
      <trkpt lat="44.38379" lon="5.86808">
        <ele>863</ele>
        <time>2019-06-15T07:45:11Z</time>
      </trkpt>
      <trkpt lat="44.38382" lon="5.86805">
        <ele>863</ele>
        <time>2019-06-15T07:45:12Z</time>
      </trkpt>
      <trkpt lat="44.38386" lon="5.86802">
        <ele>863</ele>
        <time>2019-06-15T07:45:13Z</time>
      </trkpt>
      <trkpt lat="44.3839" lon="5.86799">
        <ele>863</ele>
        <time>2019-06-15T07:45:14Z</time>
      </trkpt>
      <trkpt lat="44.38393" lon="5.86796">
        <ele>863</ele>
        <time>2019-06-15T07:45:15Z</time>
      </trkpt>
      <trkpt lat="44.38397" lon="5.86793">
        <ele>863</ele>
        <time>2019-06-15T07:45:16Z</time>
      </trkpt>
      <trkpt lat="44.38401" lon="5.8679">
        <ele>863</ele>
        <time>2019-06-15T07:45:17Z</time>
      </trkpt>
      <trkpt lat="44.38404" lon="5.86787">
        <ele>863</ele>
        <time>2019-06-15T07:45:18Z</time>
      </trkpt>
      <trkpt lat="44.38408" lon="5.86783">
        <ele>863</ele>
        <time>2019-06-15T07:45:19Z</time>
      </trkpt>
      <trkpt lat="44.38412" lon="5.86779">
        <ele>863</ele>
        <time>2019-06-15T07:45:20Z</time>
      </trkpt>
      <trkpt lat="44.38416" lon="5.86775">
        <ele>863</ele>
        <time>2019-06-15T07:45:21Z</time>
      </trkpt>
      <trkpt lat="44.3842" lon="5.86772">
        <ele>863</ele>
        <time>2019-06-15T07:45:22Z</time>
      </trkpt>
      <trkpt lat="44.38424" lon="5.86769">
        <ele>863</ele>
        <time>2019-06-15T07:45:23Z</time>
      </trkpt>
      <trkpt lat="44.38429" lon="5.86765">
        <ele>863</ele>
        <time>2019-06-15T07:45:24Z</time>
      </trkpt>
      <trkpt lat="44.38432" lon="5.86762">
        <ele>863</ele>
        <time>2019-06-15T07:45:25Z</time>
      </trkpt>
      <trkpt lat="44.38436" lon="5.86759">
        <ele>863</ele>
        <time>2019-06-15T07:45:26Z</time>
      </trkpt>
      <trkpt lat="44.3844" lon="5.86755">
        <ele>863</ele>
        <time>2019-06-15T07:45:27Z</time>
      </trkpt>
      <trkpt lat="44.38444" lon="5.86751">
        <ele>863</ele>
        <time>2019-06-15T07:45:28Z</time>
      </trkpt>
      <trkpt lat="44.38448" lon="5.86747">
        <ele>863</ele>
        <time>2019-06-15T07:45:29Z</time>
      </trkpt>
      <trkpt lat="44.38452" lon="5.86743">
        <ele>863</ele>
        <time>2019-06-15T07:45:30Z</time>
      </trkpt>
      <trkpt lat="44.38457" lon="5.8674">
        <ele>863</ele>
        <time>2019-06-15T07:45:31Z</time>
      </trkpt>
      <trkpt lat="44.38461" lon="5.86736">
        <ele>863</ele>
        <time>2019-06-15T07:45:32Z</time>
      </trkpt>
      <trkpt lat="44.38466" lon="5.86732">
        <ele>863</ele>
        <time>2019-06-15T07:45:33Z</time>
      </trkpt>
      <trkpt lat="44.3847" lon="5.86728">
        <ele>863</ele>
        <time>2019-06-15T07:45:34Z</time>
      </trkpt>
      <trkpt lat="44.38475" lon="5.86726">
        <ele>863</ele>
        <time>2019-06-15T07:45:35Z</time>
      </trkpt>
      <trkpt lat="44.3848" lon="5.86722">
        <ele>863</ele>
        <time>2019-06-15T07:45:36Z</time>
      </trkpt>
      <trkpt lat="44.38485" lon="5.86719">
        <ele>863</ele>
        <time>2019-06-15T07:45:37Z</time>
      </trkpt>
      <trkpt lat="44.38489" lon="5.86716">
        <ele>863</ele>
        <time>2019-06-15T07:45:38Z</time>
      </trkpt>
      <trkpt lat="44.38493" lon="5.86713">
        <ele>863</ele>
        <time>2019-06-15T07:45:39Z</time>
      </trkpt>
      <trkpt lat="44.38497" lon="5.8671">
        <ele>863</ele>
        <time>2019-06-15T07:45:40Z</time>
      </trkpt>
      <trkpt lat="44.38501" lon="5.86707">
        <ele>863</ele>
        <time>2019-06-15T07:45:41Z</time>
      </trkpt>
      <trkpt lat="44.38506" lon="5.86705">
        <ele>863</ele>
        <time>2019-06-15T07:45:42Z</time>
      </trkpt>
      <trkpt lat="44.3851" lon="5.86702">
        <ele>863</ele>
        <time>2019-06-15T07:45:43Z</time>
      </trkpt>
      <trkpt lat="44.38514" lon="5.867">
        <ele>863</ele>
        <time>2019-06-15T07:45:44Z</time>
      </trkpt>
      <trkpt lat="44.38518" lon="5.86698">
        <ele>863</ele>
        <time>2019-06-15T07:45:45Z</time>
      </trkpt>
      <trkpt lat="44.38522" lon="5.86696">
        <ele>863</ele>
        <time>2019-06-15T07:45:46Z</time>
      </trkpt>
      <trkpt lat="44.38526" lon="5.86694">
        <ele>863</ele>
        <time>2019-06-15T07:45:47Z</time>
      </trkpt>
      <trkpt lat="44.3853" lon="5.86692">
        <ele>863</ele>
        <time>2019-06-15T07:45:48Z</time>
      </trkpt>
      <trkpt lat="44.38535" lon="5.86689">
        <ele>863</ele>
        <time>2019-06-15T07:45:49Z</time>
      </trkpt>
      <trkpt lat="44.38539" lon="5.86686">
        <ele>863</ele>
        <time>2019-06-15T07:45:50Z</time>
      </trkpt>
      <trkpt lat="44.38543" lon="5.86684">
        <ele>863</ele>
        <time>2019-06-15T07:45:51Z</time>
      </trkpt>
      <trkpt lat="44.38548" lon="5.86683">
        <ele>863</ele>
        <time>2019-06-15T07:45:52Z</time>
      </trkpt>
      <trkpt lat="44.38552" lon="5.86681">
        <ele>864</ele>
        <time>2019-06-15T07:45:53Z</time>
      </trkpt>
      <trkpt lat="44.38557" lon="5.86678">
        <ele>865</ele>
        <time>2019-06-15T07:45:54Z</time>
      </trkpt>
      <trkpt lat="44.38561" lon="5.86677">
        <ele>865</ele>
        <time>2019-06-15T07:45:55Z</time>
      </trkpt>
      <trkpt lat="44.38566" lon="5.86675">
        <ele>866</ele>
        <time>2019-06-15T07:45:56Z</time>
      </trkpt>
      <trkpt lat="44.38571" lon="5.86673">
        <ele>867</ele>
        <time>2019-06-15T07:45:57Z</time>
      </trkpt>
      <trkpt lat="44.38574" lon="5.86672">
        <ele>867</ele>
        <time>2019-06-15T07:45:58Z</time>
      </trkpt>
      <trkpt lat="44.38578" lon="5.8667">
        <ele>868</ele>
        <time>2019-06-15T07:45:59Z</time>
      </trkpt>
      <trkpt lat="44.38582" lon="5.86667">
        <ele>869</ele>
        <time>2019-06-15T07:46:00Z</time>
      </trkpt>
      <trkpt lat="44.38585" lon="5.86664">
        <ele>869</ele>
        <time>2019-06-15T07:46:01Z</time>
      </trkpt>
      <trkpt lat="44.38589" lon="5.86663">
        <ele>870</ele>
        <time>2019-06-15T07:46:02Z</time>
      </trkpt>
      <trkpt lat="44.38592" lon="5.86661">
        <ele>870</ele>
        <time>2019-06-15T07:46:03Z</time>
      </trkpt>
      <trkpt lat="44.38596" lon="5.86659">
        <ele>870</ele>
        <time>2019-06-15T07:46:04Z</time>
      </trkpt>
      <trkpt lat="44.38599" lon="5.86657">
        <ele>871</ele>
        <time>2019-06-15T07:46:05Z</time>
      </trkpt>
      <trkpt lat="44.38602" lon="5.86656">
        <ele>871</ele>
        <time>2019-06-15T07:46:06Z</time>
      </trkpt>
      <trkpt lat="44.38605" lon="5.86654">
        <ele>872</ele>
        <time>2019-06-15T07:46:07Z</time>
      </trkpt>
      <trkpt lat="44.38608" lon="5.86652">
        <ele>872</ele>
        <time>2019-06-15T07:46:08Z</time>
      </trkpt>
      <trkpt lat="44.38612" lon="5.86651">
        <ele>873</ele>
        <time>2019-06-15T07:46:09Z</time>
      </trkpt>
      <trkpt lat="44.38614" lon="5.8665">
        <ele>873</ele>
        <time>2019-06-15T07:46:10Z</time>
      </trkpt>
      <trkpt lat="44.38618" lon="5.86648">
        <ele>874</ele>
        <time>2019-06-15T07:46:11Z</time>
      </trkpt>
      <trkpt lat="44.38622" lon="5.86647">
        <ele>874</ele>
        <time>2019-06-15T07:46:12Z</time>
      </trkpt>
      <trkpt lat="44.38626" lon="5.86646">
        <ele>875</ele>
        <time>2019-06-15T07:46:13Z</time>
      </trkpt>
      <trkpt lat="44.38629" lon="5.86645">
        <ele>876</ele>
        <time>2019-06-15T07:46:14Z</time>
      </trkpt>
      <trkpt lat="44.38633" lon="5.86643">
        <ele>876</ele>
        <time>2019-06-15T07:46:15Z</time>
      </trkpt>
      <trkpt lat="44.38636" lon="5.86642">
        <ele>877</ele>
        <time>2019-06-15T07:46:16Z</time>
      </trkpt>
      <trkpt lat="44.38638" lon="5.8664">
        <ele>877</ele>
        <time>2019-06-15T07:46:17Z</time>
      </trkpt>
      <trkpt lat="44.38641" lon="5.86638">
        <ele>878</ele>
        <time>2019-06-15T07:46:18Z</time>
      </trkpt>
      <trkpt lat="44.38644" lon="5.86636">
        <ele>878</ele>
        <time>2019-06-15T07:46:19Z</time>
      </trkpt>
      <trkpt lat="44.38647" lon="5.86635">
        <ele>878</ele>
        <time>2019-06-15T07:46:20Z</time>
      </trkpt>
      <trkpt lat="44.3865" lon="5.86634">
        <ele>878</ele>
        <time>2019-06-15T07:46:21Z</time>
      </trkpt>
      <trkpt lat="44.38653" lon="5.86633">
        <ele>878</ele>
        <time>2019-06-15T07:46:22Z</time>
      </trkpt>
      <trkpt lat="44.38656" lon="5.86631">
        <ele>878</ele>
        <time>2019-06-15T07:46:23Z</time>
      </trkpt>
      <trkpt lat="44.38659" lon="5.8663">
        <ele>878</ele>
        <time>2019-06-15T07:46:24Z</time>
      </trkpt>
      <trkpt lat="44.38663" lon="5.86629">
        <ele>878</ele>
        <time>2019-06-15T07:46:25Z</time>
      </trkpt>
      <trkpt lat="44.38667" lon="5.86627">
        <ele>878</ele>
        <time>2019-06-15T07:46:26Z</time>
      </trkpt>
      <trkpt lat="44.3867" lon="5.86625">
        <ele>878</ele>
        <time>2019-06-15T07:46:27Z</time>
      </trkpt>
      <trkpt lat="44.38673" lon="5.86624">
        <ele>878</ele>
        <time>2019-06-15T07:46:28Z</time>
      </trkpt>
      <trkpt lat="44.38676" lon="5.86622">
        <ele>878</ele>
        <time>2019-06-15T07:46:29Z</time>
      </trkpt>
      <trkpt lat="44.3868" lon="5.86621">
        <ele>878</ele>
        <time>2019-06-15T07:46:30Z</time>
      </trkpt>
      <trkpt lat="44.38683" lon="5.8662">
        <ele>878</ele>
        <time>2019-06-15T07:46:31Z</time>
      </trkpt>
      <trkpt lat="44.38686" lon="5.86619">
        <ele>878</ele>
        <time>2019-06-15T07:46:32Z</time>
      </trkpt>
      <trkpt lat="44.38689" lon="5.86617">
        <ele>878</ele>
        <time>2019-06-15T07:46:33Z</time>
      </trkpt>
      <trkpt lat="44.38691" lon="5.86615">
        <ele>878</ele>
        <time>2019-06-15T07:46:34Z</time>
      </trkpt>
      <trkpt lat="44.38694" lon="5.86614">
        <ele>878</ele>
        <time>2019-06-15T07:46:35Z</time>
      </trkpt>
      <trkpt lat="44.38696" lon="5.86613">
        <ele>878</ele>
        <time>2019-06-15T07:46:36Z</time>
      </trkpt>
      <trkpt lat="44.38698" lon="5.86612">
        <ele>878</ele>
        <time>2019-06-15T07:46:37Z</time>
      </trkpt>
      <trkpt lat="44.387" lon="5.86611">
        <ele>878</ele>
        <time>2019-06-15T07:46:38Z</time>
      </trkpt>
      <trkpt lat="44.38703" lon="5.8661">
        <ele>878</ele>
        <time>2019-06-15T07:46:39Z</time>
      </trkpt>
      <trkpt lat="44.38705" lon="5.86609">
        <ele>878</ele>
        <time>2019-06-15T07:46:40Z</time>
      </trkpt>
      <trkpt lat="44.38707" lon="5.86607">
        <ele>878</ele>
        <time>2019-06-15T07:46:41Z</time>
      </trkpt>
      <trkpt lat="44.38709" lon="5.86607">
        <ele>878</ele>
        <time>2019-06-15T07:46:42Z</time>
      </trkpt>
      <trkpt lat="44.38711" lon="5.86605">
        <ele>878</ele>
        <time>2019-06-15T07:46:43Z</time>
      </trkpt>
      <trkpt lat="44.38713" lon="5.86604">
        <ele>878</ele>
        <time>2019-06-15T07:46:44Z</time>
      </trkpt>
      <trkpt lat="44.38715" lon="5.86603">
        <ele>878</ele>
        <time>2019-06-15T07:46:45Z</time>
      </trkpt>
      <trkpt lat="44.38717" lon="5.86601">
        <ele>878</ele>
        <time>2019-06-15T07:46:46Z</time>
      </trkpt>
      <trkpt lat="44.38719" lon="5.866">
        <ele>878</ele>
        <time>2019-06-15T07:46:47Z</time>
      </trkpt>
      <trkpt lat="44.38721" lon="5.86599">
        <ele>878</ele>
        <time>2019-06-15T07:46:48Z</time>
      </trkpt>
      <trkpt lat="44.38723" lon="5.86598">
        <ele>878</ele>
        <time>2019-06-15T07:46:49Z</time>
      </trkpt>
      <trkpt lat="44.38725" lon="5.86596">
        <ele>878</ele>
        <time>2019-06-15T07:46:50Z</time>
      </trkpt>
      <trkpt lat="44.38727" lon="5.86595">
        <ele>878</ele>
        <time>2019-06-15T07:46:51Z</time>
      </trkpt>
      <trkpt lat="44.38729" lon="5.86594">
        <ele>878</ele>
        <time>2019-06-15T07:46:52Z</time>
      </trkpt>
      <trkpt lat="44.38731" lon="5.86592">
        <ele>878</ele>
        <time>2019-06-15T07:46:53Z</time>
      </trkpt>
      <trkpt lat="44.38732" lon="5.8659">
        <ele>878</ele>
        <time>2019-06-15T07:46:54Z</time>
      </trkpt>
      <trkpt lat="44.38734" lon="5.86589">
        <ele>878</ele>
        <time>2019-06-15T07:46:55Z</time>
      </trkpt>
      <trkpt lat="44.38736" lon="5.86589">
        <ele>878</ele>
        <time>2019-06-15T07:46:56Z</time>
      </trkpt>
      <trkpt lat="44.38738" lon="5.86588">
        <ele>878</ele>
        <time>2019-06-15T07:46:57Z</time>
      </trkpt>
      <trkpt lat="44.3874" lon="5.86587">
        <ele>878</ele>
        <time>2019-06-15T07:46:58Z</time>
      </trkpt>
      <trkpt lat="44.38742" lon="5.86586">
        <ele>878</ele>
        <time>2019-06-15T07:46:59Z</time>
      </trkpt>
      <trkpt lat="44.38744" lon="5.86585">
        <ele>878</ele>
        <time>2019-06-15T07:47:00Z</time>
      </trkpt>
      <trkpt lat="44.38745" lon="5.86584">
        <ele>878</ele>
        <time>2019-06-15T07:47:01Z</time>
      </trkpt>
      <trkpt lat="44.38747" lon="5.86582">
        <ele>879</ele>
        <time>2019-06-15T07:47:02Z</time>
      </trkpt>
      <trkpt lat="44.38748" lon="5.86581">
        <ele>879</ele>
        <time>2019-06-15T07:47:03Z</time>
      </trkpt>
      <trkpt lat="44.38749" lon="5.86579">
        <ele>879</ele>
        <time>2019-06-15T07:47:04Z</time>
      </trkpt>
      <trkpt lat="44.38751" lon="5.86578">
        <ele>879</ele>
        <time>2019-06-15T07:47:05Z</time>
      </trkpt>
      <trkpt lat="44.38752" lon="5.86577">
        <ele>879</ele>
        <time>2019-06-15T07:47:06Z</time>
      </trkpt>
      <trkpt lat="44.38754" lon="5.86576">
        <ele>879</ele>
        <time>2019-06-15T07:47:07Z</time>
      </trkpt>
      <trkpt lat="44.38756" lon="5.86575">
        <ele>879</ele>
        <time>2019-06-15T07:47:08Z</time>
      </trkpt>
      <trkpt lat="44.38758" lon="5.86574">
        <ele>879</ele>
        <time>2019-06-15T07:47:09Z</time>
      </trkpt>
      <trkpt lat="44.3876" lon="5.86572">
        <ele>879</ele>
        <time>2019-06-15T07:47:10Z</time>
      </trkpt>
      <trkpt lat="44.38761" lon="5.86571">
        <ele>879</ele>
        <time>2019-06-15T07:47:11Z</time>
      </trkpt>
      <trkpt lat="44.38763" lon="5.86569">
        <ele>879</ele>
        <time>2019-06-15T07:47:12Z</time>
      </trkpt>
      <trkpt lat="44.38764" lon="5.86567">
        <ele>880</ele>
        <time>2019-06-15T07:47:13Z</time>
      </trkpt>
      <trkpt lat="44.38765" lon="5.86566">
        <ele>880</ele>
        <time>2019-06-15T07:47:14Z</time>
      </trkpt>
      <trkpt lat="44.38767" lon="5.86565">
        <ele>880</ele>
        <time>2019-06-15T07:47:15Z</time>
      </trkpt>
      <trkpt lat="44.38768" lon="5.86564">
        <ele>880</ele>
        <time>2019-06-15T07:47:16Z</time>
      </trkpt>
      <trkpt lat="44.38771" lon="5.86564">
        <ele>880</ele>
        <time>2019-06-15T07:47:17Z</time>
      </trkpt>
      <trkpt lat="44.38773" lon="5.86563">
        <ele>881</ele>
        <time>2019-06-15T07:47:18Z</time>
      </trkpt>
      <trkpt lat="44.38775" lon="5.86562">
        <ele>881</ele>
        <time>2019-06-15T07:47:19Z</time>
      </trkpt>
      <trkpt lat="44.38777" lon="5.86561">
        <ele>882</ele>
        <time>2019-06-15T07:47:20Z</time>
      </trkpt>
      <trkpt lat="44.38779" lon="5.8656">
        <ele>882</ele>
        <time>2019-06-15T07:47:21Z</time>
      </trkpt>
      <trkpt lat="44.38781" lon="5.86559">
        <ele>882</ele>
        <time>2019-06-15T07:47:22Z</time>
      </trkpt>
      <trkpt lat="44.38783" lon="5.86558">
        <ele>882</ele>
        <time>2019-06-15T07:47:23Z</time>
      </trkpt>
      <trkpt lat="44.38785" lon="5.86556">
        <ele>883</ele>
        <time>2019-06-15T07:47:24Z</time>
      </trkpt>
      <trkpt lat="44.38787" lon="5.86554">
        <ele>883</ele>
        <time>2019-06-15T07:47:25Z</time>
      </trkpt>
      <trkpt lat="44.3879" lon="5.86553">
        <ele>883</ele>
        <time>2019-06-15T07:47:26Z</time>
      </trkpt>
      <trkpt lat="44.38792" lon="5.86552">
        <ele>883</ele>
        <time>2019-06-15T07:47:27Z</time>
      </trkpt>
      <trkpt lat="44.38793" lon="5.86551">
        <ele>883</ele>
        <time>2019-06-15T07:47:28Z</time>
      </trkpt>
      <trkpt lat="44.38795" lon="5.8655">
        <ele>883</ele>
        <time>2019-06-15T07:47:29Z</time>
      </trkpt>
      <trkpt lat="44.38797" lon="5.86549">
        <ele>883</ele>
        <time>2019-06-15T07:47:30Z</time>
      </trkpt>
      <trkpt lat="44.38799" lon="5.86547">
        <ele>883</ele>
        <time>2019-06-15T07:47:31Z</time>
      </trkpt>
      <trkpt lat="44.388" lon="5.86546">
        <ele>883</ele>
        <time>2019-06-15T07:47:32Z</time>
      </trkpt>
      <trkpt lat="44.38802" lon="5.86545">
        <ele>883</ele>
        <time>2019-06-15T07:47:33Z</time>
      </trkpt>
      <trkpt lat="44.38804" lon="5.86543">
        <ele>883</ele>
        <time>2019-06-15T07:47:34Z</time>
      </trkpt>
      <trkpt lat="44.38806" lon="5.86542">
        <ele>884</ele>
        <time>2019-06-15T07:47:35Z</time>
      </trkpt>
      <trkpt lat="44.38808" lon="5.86541">
        <ele>884</ele>
        <time>2019-06-15T07:47:36Z</time>
      </trkpt>
      <trkpt lat="44.3881" lon="5.8654">
        <ele>884</ele>
        <time>2019-06-15T07:47:37Z</time>
      </trkpt>
      <trkpt lat="44.38813" lon="5.8654">
        <ele>884</ele>
        <time>2019-06-15T07:47:38Z</time>
      </trkpt>
      <trkpt lat="44.38814" lon="5.86538">
        <ele>884</ele>
        <time>2019-06-15T07:47:39Z</time>
      </trkpt>
      <trkpt lat="44.38816" lon="5.86537">
        <ele>885</ele>
        <time>2019-06-15T07:47:40Z</time>
      </trkpt>
      <trkpt lat="44.38818" lon="5.86535">
        <ele>885</ele>
        <time>2019-06-15T07:47:41Z</time>
      </trkpt>
      <trkpt lat="44.38819" lon="5.86533">
        <ele>885</ele>
        <time>2019-06-15T07:47:42Z</time>
      </trkpt>
      <trkpt lat="44.38821" lon="5.86532">
        <ele>885</ele>
        <time>2019-06-15T07:47:43Z</time>
      </trkpt>
      <trkpt lat="44.38822" lon="5.8653">
        <ele>885</ele>
        <time>2019-06-15T07:47:44Z</time>
      </trkpt>
      <trkpt lat="44.38824" lon="5.86529">
        <ele>886</ele>
        <time>2019-06-15T07:47:45Z</time>
      </trkpt>
      <trkpt lat="44.38826" lon="5.86528">
        <ele>886</ele>
        <time>2019-06-15T07:47:46Z</time>
      </trkpt>
      <trkpt lat="44.38828" lon="5.86527">
        <ele>886</ele>
        <time>2019-06-15T07:47:47Z</time>
      </trkpt>
      <trkpt lat="44.3883" lon="5.86526">
        <ele>886</ele>
        <time>2019-06-15T07:47:48Z</time>
      </trkpt>
      <trkpt lat="44.38831" lon="5.86525">
        <ele>886</ele>
        <time>2019-06-15T07:47:49Z</time>
      </trkpt>
      <trkpt lat="44.38833" lon="5.86523">
        <ele>886</ele>
        <time>2019-06-15T07:47:50Z</time>
      </trkpt>
      <trkpt lat="44.38835" lon="5.86521">
        <ele>886</ele>
        <time>2019-06-15T07:47:51Z</time>
      </trkpt>
      <trkpt lat="44.38836" lon="5.86519">
        <ele>886</ele>
        <time>2019-06-15T07:47:52Z</time>
      </trkpt>
      <trkpt lat="44.38837" lon="5.86517">
        <ele>886</ele>
        <time>2019-06-15T07:47:53Z</time>
      </trkpt>
      <trkpt lat="44.38839" lon="5.86516">
        <ele>887</ele>
        <time>2019-06-15T07:47:54Z</time>
      </trkpt>
      <trkpt lat="44.3884" lon="5.86515">
        <ele>887</ele>
        <time>2019-06-15T07:47:55Z</time>
      </trkpt>
      <trkpt lat="44.38842" lon="5.86513">
        <ele>887</ele>
        <time>2019-06-15T07:47:56Z</time>
      </trkpt>
      <trkpt lat="44.38844" lon="5.86512">
        <ele>887</ele>
        <time>2019-06-15T07:47:57Z</time>
      </trkpt>
      <trkpt lat="44.38845" lon="5.86509">
        <ele>887</ele>
        <time>2019-06-15T07:47:58Z</time>
      </trkpt>
      <trkpt lat="44.38847" lon="5.86507">
        <ele>887</ele>
        <time>2019-06-15T07:47:59Z</time>
      </trkpt>
      <trkpt lat="44.3885" lon="5.86504">
        <ele>887</ele>
        <time>2019-06-15T07:48:00Z</time>
      </trkpt>
      <trkpt lat="44.38852" lon="5.86501">
        <ele>887</ele>
        <time>2019-06-15T07:48:01Z</time>
      </trkpt>
      <trkpt lat="44.38855" lon="5.86498">
        <ele>887</ele>
        <time>2019-06-15T07:48:02Z</time>
      </trkpt>
      <trkpt lat="44.38857" lon="5.86495">
        <ele>887</ele>
        <time>2019-06-15T07:48:03Z</time>
      </trkpt>
      <trkpt lat="44.3886" lon="5.86491">
        <ele>887</ele>
        <time>2019-06-15T07:48:04Z</time>
      </trkpt>
      <trkpt lat="44.38863" lon="5.86488">
        <ele>887</ele>
        <time>2019-06-15T07:48:05Z</time>
      </trkpt>
      <trkpt lat="44.38866" lon="5.86484">
        <ele>887</ele>
        <time>2019-06-15T07:48:06Z</time>
      </trkpt>
      <trkpt lat="44.38868" lon="5.8648">
        <ele>887</ele>
        <time>2019-06-15T07:48:07Z</time>
      </trkpt>
      <trkpt lat="44.38871" lon="5.86476">
        <ele>887</ele>
        <time>2019-06-15T07:48:08Z</time>
      </trkpt>
      <trkpt lat="44.38874" lon="5.86473">
        <ele>887</ele>
        <time>2019-06-15T07:48:09Z</time>
      </trkpt>
      <trkpt lat="44.38877" lon="5.86469">
        <ele>887</ele>
        <time>2019-06-15T07:48:10Z</time>
      </trkpt>
      <trkpt lat="44.3888" lon="5.86465">
        <ele>887</ele>
        <time>2019-06-15T07:48:11Z</time>
      </trkpt>
      <trkpt lat="44.38883" lon="5.86461">
        <ele>887</ele>
        <time>2019-06-15T07:48:12Z</time>
      </trkpt>
      <trkpt lat="44.38886" lon="5.86457">
        <ele>887</ele>
        <time>2019-06-15T07:48:13Z</time>
      </trkpt>
      <trkpt lat="44.38889" lon="5.86454">
        <ele>887</ele>
        <time>2019-06-15T07:48:14Z</time>
      </trkpt>
      <trkpt lat="44.38892" lon="5.8645">
        <ele>888</ele>
        <time>2019-06-15T07:48:15Z</time>
      </trkpt>
      <trkpt lat="44.38895" lon="5.86447">
        <ele>888</ele>
        <time>2019-06-15T07:48:16Z</time>
      </trkpt>
      <trkpt lat="44.38899" lon="5.86444">
        <ele>888</ele>
        <time>2019-06-15T07:48:17Z</time>
      </trkpt>
      <trkpt lat="44.38903" lon="5.8644">
        <ele>888</ele>
        <time>2019-06-15T07:48:18Z</time>
      </trkpt>
      <trkpt lat="44.38907" lon="5.86437">
        <ele>888</ele>
        <time>2019-06-15T07:48:19Z</time>
      </trkpt>
      <trkpt lat="44.38911" lon="5.86434">
        <ele>889</ele>
        <time>2019-06-15T07:48:20Z</time>
      </trkpt>
      <trkpt lat="44.38914" lon="5.86431">
        <ele>889</ele>
        <time>2019-06-15T07:48:21Z</time>
      </trkpt>
      <trkpt lat="44.38918" lon="5.86428">
        <ele>889</ele>
        <time>2019-06-15T07:48:22Z</time>
      </trkpt>
      <trkpt lat="44.38922" lon="5.86425">
        <ele>890</ele>
        <time>2019-06-15T07:48:23Z</time>
      </trkpt>
      <trkpt lat="44.38926" lon="5.86423">
        <ele>890</ele>
        <time>2019-06-15T07:48:24Z</time>
      </trkpt>
      <trkpt lat="44.38929" lon="5.8642">
        <ele>891</ele>
        <time>2019-06-15T07:48:25Z</time>
      </trkpt>
      <trkpt lat="44.38933" lon="5.86418">
        <ele>891</ele>
        <time>2019-06-15T07:48:26Z</time>
      </trkpt>
      <trkpt lat="44.38936" lon="5.86416">
        <ele>892</ele>
        <time>2019-06-15T07:48:27Z</time>
      </trkpt>
      <trkpt lat="44.3894" lon="5.86413">
        <ele>892</ele>
        <time>2019-06-15T07:48:28Z</time>
      </trkpt>
      <trkpt lat="44.38942" lon="5.8641">
        <ele>893</ele>
        <time>2019-06-15T07:48:29Z</time>
      </trkpt>
      <trkpt lat="44.38945" lon="5.86408">
        <ele>893</ele>
        <time>2019-06-15T07:48:30Z</time>
      </trkpt>
      <trkpt lat="44.38948" lon="5.86406">
        <ele>893</ele>
        <time>2019-06-15T07:48:31Z</time>
      </trkpt>
      <trkpt lat="44.38951" lon="5.86405">
        <ele>893</ele>
        <time>2019-06-15T07:48:32Z</time>
      </trkpt>
      <trkpt lat="44.38954" lon="5.86403">
        <ele>893</ele>
        <time>2019-06-15T07:48:33Z</time>
      </trkpt>
      <trkpt lat="44.38957" lon="5.86401">
        <ele>894</ele>
        <time>2019-06-15T07:48:34Z</time>
      </trkpt>
      <trkpt lat="44.3896" lon="5.864">
        <ele>894</ele>
        <time>2019-06-15T07:48:35Z</time>
      </trkpt>
      <trkpt lat="44.38964" lon="5.86399">
        <ele>895</ele>
        <time>2019-06-15T07:48:36Z</time>
      </trkpt>
      <trkpt lat="44.38967" lon="5.86398">
        <ele>895</ele>
        <time>2019-06-15T07:48:37Z</time>
      </trkpt>
      <trkpt lat="44.38971" lon="5.86397">
        <ele>895</ele>
        <time>2019-06-15T07:48:38Z</time>
      </trkpt>
      <trkpt lat="44.38974" lon="5.86396">
        <ele>896</ele>
        <time>2019-06-15T07:48:39Z</time>
      </trkpt>
      <trkpt lat="44.38977" lon="5.86395">
        <ele>896</ele>
        <time>2019-06-15T07:48:40Z</time>
      </trkpt>
      <trkpt lat="44.3898" lon="5.86394">
        <ele>897</ele>
        <time>2019-06-15T07:48:41Z</time>
      </trkpt>
      <trkpt lat="44.38982" lon="5.86392">
        <ele>897</ele>
        <time>2019-06-15T07:48:42Z</time>
      </trkpt>
      <trkpt lat="44.38985" lon="5.86391">
        <ele>897</ele>
        <time>2019-06-15T07:48:43Z</time>
      </trkpt>
      <trkpt lat="44.38988" lon="5.8639">
        <ele>897</ele>
        <time>2019-06-15T07:48:44Z</time>
      </trkpt>
      <trkpt lat="44.3899" lon="5.86389">
        <ele>898</ele>
        <time>2019-06-15T07:48:45Z</time>
      </trkpt>
      <trkpt lat="44.38992" lon="5.86388">
        <ele>898</ele>
        <time>2019-06-15T07:48:46Z</time>
      </trkpt>
      <trkpt lat="44.38995" lon="5.86386">
        <ele>898</ele>
        <time>2019-06-15T07:48:47Z</time>
      </trkpt>
      <trkpt lat="44.38997" lon="5.86384">
        <ele>898</ele>
        <time>2019-06-15T07:48:48Z</time>
      </trkpt>
      <trkpt lat="44.38999" lon="5.86382">
        <ele>898</ele>
        <time>2019-06-15T07:48:49Z</time>
      </trkpt>
      <trkpt lat="44.39002" lon="5.86379">
        <ele>898</ele>
        <time>2019-06-15T07:48:50Z</time>
      </trkpt>
      <trkpt lat="44.39004" lon="5.86377">
        <ele>898</ele>
        <time>2019-06-15T07:48:51Z</time>
      </trkpt>
      <trkpt lat="44.39007" lon="5.86375">
        <ele>898</ele>
        <time>2019-06-15T07:48:52Z</time>
      </trkpt>
      <trkpt lat="44.39009" lon="5.86372">
        <ele>898</ele>
        <time>2019-06-15T07:48:53Z</time>
      </trkpt>
      <trkpt lat="44.39012" lon="5.86368">
        <ele>898</ele>
        <time>2019-06-15T07:48:54Z</time>
      </trkpt>
      <trkpt lat="44.39014" lon="5.86365">
        <ele>898</ele>
        <time>2019-06-15T07:48:55Z</time>
      </trkpt>
      <trkpt lat="44.39017" lon="5.86361">
        <ele>898</ele>
        <time>2019-06-15T07:48:56Z</time>
      </trkpt>
      <trkpt lat="44.39019" lon="5.86358">
        <ele>898</ele>
        <time>2019-06-15T07:48:57Z</time>
      </trkpt>
      <trkpt lat="44.39021" lon="5.86354">
        <ele>898</ele>
        <time>2019-06-15T07:48:58Z</time>
      </trkpt>
      <trkpt lat="44.39023" lon="5.8635">
        <ele>898</ele>
        <time>2019-06-15T07:48:59Z</time>
      </trkpt>
      <trkpt lat="44.39024" lon="5.86347">
        <ele>898</ele>
        <time>2019-06-15T07:49:00Z</time>
      </trkpt>
      <trkpt lat="44.39027" lon="5.86343">
        <ele>898</ele>
        <time>2019-06-15T07:49:01Z</time>
      </trkpt>
      <trkpt lat="44.39029" lon="5.86339">
        <ele>898</ele>
        <time>2019-06-15T07:49:02Z</time>
      </trkpt>
      <trkpt lat="44.39031" lon="5.86336">
        <ele>898</ele>
        <time>2019-06-15T07:49:03Z</time>
      </trkpt>
      <trkpt lat="44.39033" lon="5.86332">
        <ele>898</ele>
        <time>2019-06-15T07:49:04Z</time>
      </trkpt>
      <trkpt lat="44.39035" lon="5.86329">
        <ele>898</ele>
        <time>2019-06-15T07:49:05Z</time>
      </trkpt>
      <trkpt lat="44.39038" lon="5.86325">
        <ele>898</ele>
        <time>2019-06-15T07:49:06Z</time>
      </trkpt>
      <trkpt lat="44.3904" lon="5.86321">
        <ele>898</ele>
        <time>2019-06-15T07:49:07Z</time>
      </trkpt>
      <trkpt lat="44.39043" lon="5.86318">
        <ele>899</ele>
        <time>2019-06-15T07:49:08Z</time>
      </trkpt>
      <trkpt lat="44.39045" lon="5.86315">
        <ele>899</ele>
        <time>2019-06-15T07:49:09Z</time>
      </trkpt>
      <trkpt lat="44.39048" lon="5.86311">
        <ele>899</ele>
        <time>2019-06-15T07:49:10Z</time>
      </trkpt>
      <trkpt lat="44.3905" lon="5.86307">
        <ele>899</ele>
        <time>2019-06-15T07:49:11Z</time>
      </trkpt>
      <trkpt lat="44.39053" lon="5.86304">
        <ele>899</ele>
        <time>2019-06-15T07:49:12Z</time>
      </trkpt>
      <trkpt lat="44.39056" lon="5.86301">
        <ele>899</ele>
        <time>2019-06-15T07:49:13Z</time>
      </trkpt>
      <trkpt lat="44.39058" lon="5.86298">
        <ele>899</ele>
        <time>2019-06-15T07:49:14Z</time>
      </trkpt>
      <trkpt lat="44.3906" lon="5.86295">
        <ele>899</ele>
        <time>2019-06-15T07:49:15Z</time>
      </trkpt>
      <trkpt lat="44.39062" lon="5.86292">
        <ele>899</ele>
        <time>2019-06-15T07:49:16Z</time>
      </trkpt>
      <trkpt lat="44.39065" lon="5.8629">
        <ele>899</ele>
        <time>2019-06-15T07:49:17Z</time>
      </trkpt>
      <trkpt lat="44.39067" lon="5.86288">
        <ele>900</ele>
        <time>2019-06-15T07:49:18Z</time>
      </trkpt>
      <trkpt lat="44.3907" lon="5.86286">
        <ele>901</ele>
        <time>2019-06-15T07:49:19Z</time>
      </trkpt>
      <trkpt lat="44.39072" lon="5.86282">
        <ele>902</ele>
        <time>2019-06-15T07:49:20Z</time>
      </trkpt>
      <trkpt lat="44.39075" lon="5.86279">
        <ele>902</ele>
        <time>2019-06-15T07:49:21Z</time>
      </trkpt>
      <trkpt lat="44.39078" lon="5.86276">
        <ele>902</ele>
        <time>2019-06-15T07:49:22Z</time>
      </trkpt>
      <trkpt lat="44.3908" lon="5.86272">
        <ele>902</ele>
        <time>2019-06-15T07:49:23Z</time>
      </trkpt>
      <trkpt lat="44.39083" lon="5.8627">
        <ele>902</ele>
        <time>2019-06-15T07:49:24Z</time>
      </trkpt>
      <trkpt lat="44.39086" lon="5.86266">
        <ele>902</ele>
        <time>2019-06-15T07:49:25Z</time>
      </trkpt>
      <trkpt lat="44.39088" lon="5.86263">
        <ele>902</ele>
        <time>2019-06-15T07:49:26Z</time>
      </trkpt>
      <trkpt lat="44.39091" lon="5.8626">
        <ele>902</ele>
        <time>2019-06-15T07:49:27Z</time>
      </trkpt>
      <trkpt lat="44.39094" lon="5.86256">
        <ele>902</ele>
        <time>2019-06-15T07:49:28Z</time>
      </trkpt>
      <trkpt lat="44.39096" lon="5.86253">
        <ele>902</ele>
        <time>2019-06-15T07:49:29Z</time>
      </trkpt>
      <trkpt lat="44.39097" lon="5.86251">
        <ele>902</ele>
        <time>2019-06-15T07:49:30Z</time>
      </trkpt>
      <trkpt lat="44.39099" lon="5.86248">
        <ele>902</ele>
        <time>2019-06-15T07:49:31Z</time>
      </trkpt>
      <trkpt lat="44.39101" lon="5.86245">
        <ele>902</ele>
        <time>2019-06-15T07:49:32Z</time>
      </trkpt>
      <trkpt lat="44.39103" lon="5.86243">
        <ele>902</ele>
        <time>2019-06-15T07:49:33Z</time>
      </trkpt>
      <trkpt lat="44.39105" lon="5.8624">
        <ele>902</ele>
        <time>2019-06-15T07:49:34Z</time>
      </trkpt>
      <trkpt lat="44.39108" lon="5.86237">
        <ele>902</ele>
        <time>2019-06-15T07:49:35Z</time>
      </trkpt>
      <trkpt lat="44.39109" lon="5.86235">
        <ele>902</ele>
        <time>2019-06-15T07:49:36Z</time>
      </trkpt>
      <trkpt lat="44.39112" lon="5.86232">
        <ele>902</ele>
        <time>2019-06-15T07:49:37Z</time>
      </trkpt>
      <trkpt lat="44.39114" lon="5.86229">
        <ele>902</ele>
        <time>2019-06-15T07:49:38Z</time>
      </trkpt>
      <trkpt lat="44.39117" lon="5.86226">
        <ele>902</ele>
        <time>2019-06-15T07:49:39Z</time>
      </trkpt>
      <trkpt lat="44.39119" lon="5.86223">
        <ele>902</ele>
        <time>2019-06-15T07:49:40Z</time>
      </trkpt>
      <trkpt lat="44.3912" lon="5.86221">
        <ele>902</ele>
        <time>2019-06-15T07:49:41Z</time>
      </trkpt>
      <trkpt lat="44.39123" lon="5.86219">
        <ele>903</ele>
        <time>2019-06-15T07:49:42Z</time>
      </trkpt>
      <trkpt lat="44.39125" lon="5.86216">
        <ele>903</ele>
        <time>2019-06-15T07:49:43Z</time>
      </trkpt>
      <trkpt lat="44.39127" lon="5.86213">
        <ele>903</ele>
        <time>2019-06-15T07:49:44Z</time>
      </trkpt>
      <trkpt lat="44.39129" lon="5.86211">
        <ele>903</ele>
        <time>2019-06-15T07:49:45Z</time>
      </trkpt>
      <trkpt lat="44.39132" lon="5.86209">
        <ele>903</ele>
        <time>2019-06-15T07:49:46Z</time>
      </trkpt>
      <trkpt lat="44.39135" lon="5.86205">
        <ele>903</ele>
        <time>2019-06-15T07:49:47Z</time>
      </trkpt>
      <trkpt lat="44.39138" lon="5.86203">
        <ele>903</ele>
        <time>2019-06-15T07:49:48Z</time>
      </trkpt>
      <trkpt lat="44.3914" lon="5.862">
        <ele>903</ele>
        <time>2019-06-15T07:49:49Z</time>
      </trkpt>
      <trkpt lat="44.39143" lon="5.86197">
        <ele>903</ele>
        <time>2019-06-15T07:49:50Z</time>
      </trkpt>
      <trkpt lat="44.39145" lon="5.86194">
        <ele>903</ele>
        <time>2019-06-15T07:49:51Z</time>
      </trkpt>
      <trkpt lat="44.39148" lon="5.86191">
        <ele>903</ele>
        <time>2019-06-15T07:49:52Z</time>
      </trkpt>
      <trkpt lat="44.39151" lon="5.86188">
        <ele>903</ele>
        <time>2019-06-15T07:49:53Z</time>
      </trkpt>
      <trkpt lat="44.39153" lon="5.86185">
        <ele>903</ele>
        <time>2019-06-15T07:49:54Z</time>
      </trkpt>
      <trkpt lat="44.39156" lon="5.86182">
        <ele>903</ele>
        <time>2019-06-15T07:49:55Z</time>
      </trkpt>
      <trkpt lat="44.39158" lon="5.86179">
        <ele>903</ele>
        <time>2019-06-15T07:49:56Z</time>
      </trkpt>
      <trkpt lat="44.39162" lon="5.86176">
        <ele>903</ele>
        <time>2019-06-15T07:49:57Z</time>
      </trkpt>
      <trkpt lat="44.39165" lon="5.86174">
        <ele>903</ele>
        <time>2019-06-15T07:49:58Z</time>
      </trkpt>
      <trkpt lat="44.39169" lon="5.86171">
        <ele>903</ele>
        <time>2019-06-15T07:49:59Z</time>
      </trkpt>
      <trkpt lat="44.3917" lon="5.86169">
        <ele>903</ele>
        <time>2019-06-15T07:50:00Z</time>
      </trkpt>
      <trkpt lat="44.39173" lon="5.86166">
        <ele>903</ele>
        <time>2019-06-15T07:50:01Z</time>
      </trkpt>
      <trkpt lat="44.39175" lon="5.86163">
        <ele>903</ele>
        <time>2019-06-15T07:50:02Z</time>
      </trkpt>
      <trkpt lat="44.39177" lon="5.8616">
        <ele>903</ele>
        <time>2019-06-15T07:50:03Z</time>
      </trkpt>
      <trkpt lat="44.3918" lon="5.86156">
        <ele>903</ele>
        <time>2019-06-15T07:50:04Z</time>
      </trkpt>
      <trkpt lat="44.39183" lon="5.86154">
        <ele>903</ele>
        <time>2019-06-15T07:50:05Z</time>
      </trkpt>
      <trkpt lat="44.39184" lon="5.86151">
        <ele>904</ele>
        <time>2019-06-15T07:50:06Z</time>
      </trkpt>
      <trkpt lat="44.39185" lon="5.86149">
        <ele>905</ele>
        <time>2019-06-15T07:50:07Z</time>
      </trkpt>
      <trkpt lat="44.39187" lon="5.86146">
        <ele>905</ele>
        <time>2019-06-15T07:50:08Z</time>
      </trkpt>
      <trkpt lat="44.39188" lon="5.86143">
        <ele>906</ele>
        <time>2019-06-15T07:50:09Z</time>
      </trkpt>
      <trkpt lat="44.3919" lon="5.86141">
        <ele>906</ele>
        <time>2019-06-15T07:50:10Z</time>
      </trkpt>
      <trkpt lat="44.39192" lon="5.86138">
        <ele>906</ele>
        <time>2019-06-15T07:50:11Z</time>
      </trkpt>
      <trkpt lat="44.39194" lon="5.86135">
        <ele>907</ele>
        <time>2019-06-15T07:50:12Z</time>
      </trkpt>
      <trkpt lat="44.39195" lon="5.86132">
        <ele>907</ele>
        <time>2019-06-15T07:50:13Z</time>
      </trkpt>
      <trkpt lat="44.39196" lon="5.86129">
        <ele>907</ele>
        <time>2019-06-15T07:50:14Z</time>
      </trkpt>
      <trkpt lat="44.39197" lon="5.86126">
        <ele>907</ele>
        <time>2019-06-15T07:50:15Z</time>
      </trkpt>
      <trkpt lat="44.39199" lon="5.86122">
        <ele>907</ele>
        <time>2019-06-15T07:50:16Z</time>
      </trkpt>
      <trkpt lat="44.392" lon="5.86117">
        <ele>907</ele>
        <time>2019-06-15T07:50:17Z</time>
      </trkpt>
      <trkpt lat="44.39202" lon="5.86112">
        <ele>907</ele>
        <time>2019-06-15T07:50:18Z</time>
      </trkpt>
      <trkpt lat="44.39204" lon="5.86108">
        <ele>907</ele>
        <time>2019-06-15T07:50:19Z</time>
      </trkpt>
      <trkpt lat="44.39205" lon="5.86103">
        <ele>907</ele>
        <time>2019-06-15T07:50:20Z</time>
      </trkpt>
      <trkpt lat="44.39206" lon="5.86099">
        <ele>907</ele>
        <time>2019-06-15T07:50:21Z</time>
      </trkpt>
      <trkpt lat="44.39207" lon="5.86094">
        <ele>907</ele>
        <time>2019-06-15T07:50:22Z</time>
      </trkpt>
      <trkpt lat="44.39207" lon="5.8609">
        <ele>907</ele>
        <time>2019-06-15T07:50:23Z</time>
      </trkpt>
      <trkpt lat="44.39208" lon="5.86085">
        <ele>907</ele>
        <time>2019-06-15T07:50:24Z</time>
      </trkpt>
      <trkpt lat="44.39209" lon="5.8608">
        <ele>907</ele>
        <time>2019-06-15T07:50:25Z</time>
      </trkpt>
      <trkpt lat="44.39209" lon="5.86075">
        <ele>907</ele>
        <time>2019-06-15T07:50:26Z</time>
      </trkpt>
      <trkpt lat="44.39209" lon="5.86071">
        <ele>907</ele>
        <time>2019-06-15T07:50:27Z</time>
      </trkpt>
      <trkpt lat="44.39211" lon="5.86065">
        <ele>907</ele>
        <time>2019-06-15T07:50:28Z</time>
      </trkpt>
      <trkpt lat="44.39211" lon="5.8606">
        <ele>907</ele>
        <time>2019-06-15T07:50:29Z</time>
      </trkpt>
      <trkpt lat="44.39212" lon="5.86055">
        <ele>907</ele>
        <time>2019-06-15T07:50:30Z</time>
      </trkpt>
      <trkpt lat="44.39213" lon="5.86049">
        <ele>907</ele>
        <time>2019-06-15T07:50:31Z</time>
      </trkpt>
      <trkpt lat="44.39214" lon="5.86044">
        <ele>907</ele>
        <time>2019-06-15T07:50:32Z</time>
      </trkpt>
      <trkpt lat="44.39215" lon="5.86039">
        <ele>907</ele>
        <time>2019-06-15T07:50:33Z</time>
      </trkpt>
      <trkpt lat="44.39218" lon="5.86033">
        <ele>907</ele>
        <time>2019-06-15T07:50:34Z</time>
      </trkpt>
      <trkpt lat="44.39221" lon="5.86029">
        <ele>907</ele>
        <time>2019-06-15T07:50:35Z</time>
      </trkpt>
      <trkpt lat="44.39224" lon="5.86024">
        <ele>907</ele>
        <time>2019-06-15T07:50:36Z</time>
      </trkpt>
      <trkpt lat="44.39226" lon="5.86019">
        <ele>907</ele>
        <time>2019-06-15T07:50:37Z</time>
      </trkpt>
      <trkpt lat="44.39229" lon="5.86014">
        <ele>907</ele>
        <time>2019-06-15T07:50:38Z</time>
      </trkpt>
      <trkpt lat="44.39231" lon="5.86009">
        <ele>907</ele>
        <time>2019-06-15T07:50:39Z</time>
      </trkpt>
      <trkpt lat="44.39234" lon="5.86004">
        <ele>907</ele>
        <time>2019-06-15T07:50:40Z</time>
      </trkpt>
      <trkpt lat="44.39236" lon="5.85999">
        <ele>907</ele>
        <time>2019-06-15T07:50:41Z</time>
      </trkpt>
      <trkpt lat="44.39238" lon="5.85994">
        <ele>907</ele>
        <time>2019-06-15T07:50:42Z</time>
      </trkpt>
      <trkpt lat="44.39241" lon="5.85989">
        <ele>907</ele>
        <time>2019-06-15T07:50:43Z</time>
      </trkpt>
      <trkpt lat="44.39243" lon="5.85984">
        <ele>907</ele>
        <time>2019-06-15T07:50:44Z</time>
      </trkpt>
      <trkpt lat="44.39244" lon="5.8598">
        <ele>907</ele>
        <time>2019-06-15T07:50:45Z</time>
      </trkpt>
      <trkpt lat="44.39246" lon="5.85974">
        <ele>907</ele>
        <time>2019-06-15T07:50:46Z</time>
      </trkpt>
      <trkpt lat="44.39248" lon="5.85969">
        <ele>907</ele>
        <time>2019-06-15T07:50:47Z</time>
      </trkpt>
      <trkpt lat="44.3925" lon="5.85965">
        <ele>907</ele>
        <time>2019-06-15T07:50:48Z</time>
      </trkpt>
      <trkpt lat="44.39251" lon="5.8596">
        <ele>907</ele>
        <time>2019-06-15T07:50:49Z</time>
      </trkpt>
      <trkpt lat="44.39252" lon="5.85956">
        <ele>907</ele>
        <time>2019-06-15T07:50:50Z</time>
      </trkpt>
      <trkpt lat="44.39254" lon="5.85951">
        <ele>907</ele>
        <time>2019-06-15T07:50:51Z</time>
      </trkpt>
      <trkpt lat="44.39256" lon="5.85947">
        <ele>908</ele>
        <time>2019-06-15T07:50:52Z</time>
      </trkpt>
      <trkpt lat="44.39257" lon="5.85942">
        <ele>908</ele>
        <time>2019-06-15T07:50:53Z</time>
      </trkpt>
      <trkpt lat="44.39259" lon="5.85938">
        <ele>908</ele>
        <time>2019-06-15T07:50:54Z</time>
      </trkpt>
      <trkpt lat="44.3926" lon="5.85933">
        <ele>908</ele>
        <time>2019-06-15T07:50:55Z</time>
      </trkpt>
      <trkpt lat="44.39262" lon="5.85929">
        <ele>908</ele>
        <time>2019-06-15T07:50:56Z</time>
      </trkpt>
      <trkpt lat="44.39264" lon="5.85924">
        <ele>908</ele>
        <time>2019-06-15T07:50:57Z</time>
      </trkpt>
      <trkpt lat="44.39265" lon="5.85919">
        <ele>908</ele>
        <time>2019-06-15T07:50:58Z</time>
      </trkpt>
      <trkpt lat="44.39267" lon="5.85914">
        <ele>908</ele>
        <time>2019-06-15T07:50:59Z</time>
      </trkpt>
      <trkpt lat="44.39268" lon="5.85908">
        <ele>909</ele>
        <time>2019-06-15T07:51:00Z</time>
      </trkpt>
      <trkpt lat="44.39271" lon="5.85902">
        <ele>909</ele>
        <time>2019-06-15T07:51:01Z</time>
      </trkpt>
      <trkpt lat="44.39273" lon="5.85895">
        <ele>909</ele>
        <time>2019-06-15T07:51:02Z</time>
      </trkpt>
      <trkpt lat="44.39275" lon="5.85889">
        <ele>909</ele>
        <time>2019-06-15T07:51:03Z</time>
      </trkpt>
      <trkpt lat="44.39276" lon="5.85882">
        <ele>909</ele>
        <time>2019-06-15T07:51:04Z</time>
      </trkpt>
      <trkpt lat="44.39278" lon="5.85874">
        <ele>909</ele>
        <time>2019-06-15T07:51:05Z</time>
      </trkpt>
      <trkpt lat="44.3928" lon="5.85866">
        <ele>909</ele>
        <time>2019-06-15T07:51:06Z</time>
      </trkpt>
      <trkpt lat="44.39283" lon="5.85857">
        <ele>910</ele>
        <time>2019-06-15T07:51:07Z</time>
      </trkpt>
      <trkpt lat="44.39286" lon="5.85849">
        <ele>910</ele>
        <time>2019-06-15T07:51:08Z</time>
      </trkpt>
      <trkpt lat="44.3929" lon="5.85841">
        <ele>910</ele>
        <time>2019-06-15T07:51:09Z</time>
      </trkpt>
      <trkpt lat="44.39294" lon="5.85833">
        <ele>910</ele>
        <time>2019-06-15T07:51:10Z</time>
      </trkpt>
      <trkpt lat="44.39298" lon="5.85825">
        <ele>910</ele>
        <time>2019-06-15T07:51:11Z</time>
      </trkpt>
      <trkpt lat="44.39302" lon="5.85817">
        <ele>910</ele>
        <time>2019-06-15T07:51:12Z</time>
      </trkpt>
      <trkpt lat="44.39306" lon="5.85809">
        <ele>910</ele>
        <time>2019-06-15T07:51:13Z</time>
      </trkpt>
      <trkpt lat="44.3931" lon="5.85801">
        <ele>910</ele>
        <time>2019-06-15T07:51:14Z</time>
      </trkpt>
      <trkpt lat="44.39314" lon="5.85793">
        <ele>910</ele>
        <time>2019-06-15T07:51:15Z</time>
      </trkpt>
      <trkpt lat="44.39318" lon="5.85786">
        <ele>910</ele>
        <time>2019-06-15T07:51:16Z</time>
      </trkpt>
      <trkpt lat="44.39321" lon="5.85779">
        <ele>910</ele>
        <time>2019-06-15T07:51:17Z</time>
      </trkpt>
      <trkpt lat="44.39325" lon="5.85772">
        <ele>910</ele>
        <time>2019-06-15T07:51:18Z</time>
      </trkpt>
      <trkpt lat="44.39328" lon="5.85765">
        <ele>910</ele>
        <time>2019-06-15T07:51:19Z</time>
      </trkpt>
      <trkpt lat="44.39331" lon="5.85759">
        <ele>910</ele>
        <time>2019-06-15T07:51:20Z</time>
      </trkpt>
      <trkpt lat="44.39334" lon="5.85751">
        <ele>910</ele>
        <time>2019-06-15T07:51:21Z</time>
      </trkpt>
      <trkpt lat="44.39337" lon="5.85744">
        <ele>910</ele>
        <time>2019-06-15T07:51:22Z</time>
      </trkpt>
      <trkpt lat="44.39341" lon="5.85737">
        <ele>910</ele>
        <time>2019-06-15T07:51:23Z</time>
      </trkpt>
      <trkpt lat="44.39343" lon="5.8573">
        <ele>910</ele>
        <time>2019-06-15T07:51:24Z</time>
      </trkpt>
      <trkpt lat="44.39346" lon="5.85722">
        <ele>910</ele>
        <time>2019-06-15T07:51:25Z</time>
      </trkpt>
      <trkpt lat="44.39349" lon="5.85714">
        <ele>910</ele>
        <time>2019-06-15T07:51:26Z</time>
      </trkpt>
      <trkpt lat="44.39351" lon="5.85706">
        <ele>910</ele>
        <time>2019-06-15T07:51:27Z</time>
      </trkpt>
      <trkpt lat="44.39353" lon="5.85698">
        <ele>910</ele>
        <time>2019-06-15T07:51:28Z</time>
      </trkpt>
      <trkpt lat="44.39355" lon="5.8569">
        <ele>910</ele>
        <time>2019-06-15T07:51:29Z</time>
      </trkpt>
      <trkpt lat="44.39358" lon="5.85683">
        <ele>910</ele>
        <time>2019-06-15T07:51:30Z</time>
      </trkpt>
      <trkpt lat="44.3936" lon="5.85675">
        <ele>910</ele>
        <time>2019-06-15T07:51:31Z</time>
      </trkpt>
      <trkpt lat="44.39363" lon="5.85668">
        <ele>910</ele>
        <time>2019-06-15T07:51:32Z</time>
      </trkpt>
      <trkpt lat="44.39365" lon="5.85662">
        <ele>910</ele>
        <time>2019-06-15T07:51:33Z</time>
      </trkpt>
      <trkpt lat="44.39367" lon="5.85656">
        <ele>910</ele>
        <time>2019-06-15T07:51:34Z</time>
      </trkpt>
      <trkpt lat="44.3937" lon="5.85651">
        <ele>910</ele>
        <time>2019-06-15T07:51:35Z</time>
      </trkpt>
      <trkpt lat="44.39373" lon="5.85645">
        <ele>910</ele>
        <time>2019-06-15T07:51:36Z</time>
      </trkpt>
      <trkpt lat="44.39376" lon="5.85641">
        <ele>910</ele>
        <time>2019-06-15T07:51:37Z</time>
      </trkpt>
      <trkpt lat="44.39379" lon="5.85636">
        <ele>910</ele>
        <time>2019-06-15T07:51:38Z</time>
      </trkpt>
      <trkpt lat="44.39381" lon="5.85632">
        <ele>910</ele>
        <time>2019-06-15T07:51:39Z</time>
      </trkpt>
      <trkpt lat="44.39384" lon="5.85627">
        <ele>910</ele>
        <time>2019-06-15T07:51:40Z</time>
      </trkpt>
      <trkpt lat="44.39386" lon="5.85622">
        <ele>910</ele>
        <time>2019-06-15T07:51:41Z</time>
      </trkpt>
      <trkpt lat="44.39389" lon="5.85617">
        <ele>910</ele>
        <time>2019-06-15T07:51:42Z</time>
      </trkpt>
      <trkpt lat="44.39392" lon="5.85612">
        <ele>910</ele>
        <time>2019-06-15T07:51:43Z</time>
      </trkpt>
      <trkpt lat="44.39395" lon="5.85608">
        <ele>910</ele>
        <time>2019-06-15T07:51:44Z</time>
      </trkpt>
      <trkpt lat="44.39398" lon="5.85602">
        <ele>910</ele>
        <time>2019-06-15T07:51:45Z</time>
      </trkpt>
      <trkpt lat="44.39402" lon="5.85597">
        <ele>910</ele>
        <time>2019-06-15T07:51:46Z</time>
      </trkpt>
      <trkpt lat="44.39406" lon="5.85591">
        <ele>910</ele>
        <time>2019-06-15T07:51:47Z</time>
      </trkpt>
      <trkpt lat="44.3941" lon="5.85586">
        <ele>910</ele>
        <time>2019-06-15T07:51:48Z</time>
      </trkpt>
      <trkpt lat="44.39415" lon="5.85581">
        <ele>910</ele>
        <time>2019-06-15T07:51:49Z</time>
      </trkpt>
      <trkpt lat="44.3942" lon="5.85577">
        <ele>910</ele>
        <time>2019-06-15T07:51:50Z</time>
      </trkpt>
      <trkpt lat="44.39424" lon="5.85573">
        <ele>910</ele>
        <time>2019-06-15T07:51:51Z</time>
      </trkpt>
      <trkpt lat="44.39429" lon="5.85569">
        <ele>910</ele>
        <time>2019-06-15T07:51:52Z</time>
      </trkpt>
      <trkpt lat="44.39434" lon="5.85565">
        <ele>910</ele>
        <time>2019-06-15T07:51:53Z</time>
      </trkpt>
      <trkpt lat="44.39439" lon="5.85561">
        <ele>910</ele>
        <time>2019-06-15T07:51:54Z</time>
      </trkpt>
      <trkpt lat="44.39444" lon="5.85556">
        <ele>910</ele>
        <time>2019-06-15T07:51:55Z</time>
      </trkpt>
      <trkpt lat="44.39448" lon="5.85551">
        <ele>910</ele>
        <time>2019-06-15T07:51:56Z</time>
      </trkpt>
      <trkpt lat="44.39452" lon="5.85546">
        <ele>910</ele>
        <time>2019-06-15T07:51:57Z</time>
      </trkpt>
      <trkpt lat="44.39455" lon="5.8554">
        <ele>910</ele>
        <time>2019-06-15T07:51:58Z</time>
      </trkpt>
      <trkpt lat="44.39459" lon="5.85535">
        <ele>910</ele>
        <time>2019-06-15T07:51:59Z</time>
      </trkpt>
      <trkpt lat="44.39462" lon="5.8553">
        <ele>910</ele>
        <time>2019-06-15T07:52:00Z</time>
      </trkpt>
      <trkpt lat="44.39465" lon="5.85525">
        <ele>910</ele>
        <time>2019-06-15T07:52:01Z</time>
      </trkpt>
      <trkpt lat="44.39468" lon="5.8552">
        <ele>910</ele>
        <time>2019-06-15T07:52:02Z</time>
      </trkpt>
      <trkpt lat="44.39471" lon="5.85515">
        <ele>910</ele>
        <time>2019-06-15T07:52:03Z</time>
      </trkpt>
      <trkpt lat="44.39474" lon="5.85509">
        <ele>910</ele>
        <time>2019-06-15T07:52:04Z</time>
      </trkpt>
      <trkpt lat="44.39479" lon="5.85504">
        <ele>910</ele>
        <time>2019-06-15T07:52:05Z</time>
      </trkpt>
      <trkpt lat="44.39484" lon="5.85498">
        <ele>910</ele>
        <time>2019-06-15T07:52:06Z</time>
      </trkpt>
      <trkpt lat="44.39488" lon="5.85493">
        <ele>910</ele>
        <time>2019-06-15T07:52:07Z</time>
      </trkpt>
      <trkpt lat="44.39493" lon="5.85487">
        <ele>910</ele>
        <time>2019-06-15T07:52:08Z</time>
      </trkpt>
      <trkpt lat="44.39498" lon="5.8548">
        <ele>910</ele>
        <time>2019-06-15T07:52:09Z</time>
      </trkpt>
      <trkpt lat="44.39503" lon="5.85474">
        <ele>910</ele>
        <time>2019-06-15T07:52:10Z</time>
      </trkpt>
      <trkpt lat="44.39507" lon="5.85468">
        <ele>910</ele>
        <time>2019-06-15T07:52:11Z</time>
      </trkpt>
      <trkpt lat="44.39512" lon="5.85463">
        <ele>910</ele>
        <time>2019-06-15T07:52:12Z</time>
      </trkpt>
      <trkpt lat="44.39517" lon="5.85457">
        <ele>910</ele>
        <time>2019-06-15T07:52:13Z</time>
      </trkpt>
      <trkpt lat="44.39521" lon="5.85453">
        <ele>910</ele>
        <time>2019-06-15T07:52:14Z</time>
      </trkpt>
      <trkpt lat="44.39527" lon="5.85449">
        <ele>910</ele>
        <time>2019-06-15T07:52:15Z</time>
      </trkpt>
      <trkpt lat="44.39533" lon="5.85446">
        <ele>910</ele>
        <time>2019-06-15T07:52:16Z</time>
      </trkpt>
      <trkpt lat="44.39538" lon="5.85444">
        <ele>910</ele>
        <time>2019-06-15T07:52:17Z</time>
      </trkpt>
      <trkpt lat="44.39544" lon="5.85442">
        <ele>910</ele>
        <time>2019-06-15T07:52:18Z</time>
      </trkpt>
      <trkpt lat="44.39548" lon="5.85441">
        <ele>910</ele>
        <time>2019-06-15T07:52:19Z</time>
      </trkpt>
      <trkpt lat="44.39553" lon="5.8544">
        <ele>910</ele>
        <time>2019-06-15T07:52:20Z</time>
      </trkpt>
      <trkpt lat="44.39558" lon="5.8544">
        <ele>910</ele>
        <time>2019-06-15T07:52:21Z</time>
      </trkpt>
      <trkpt lat="44.39562" lon="5.85439">
        <ele>910</ele>
        <time>2019-06-15T07:52:22Z</time>
      </trkpt>
      <trkpt lat="44.39567" lon="5.85438">
        <ele>910</ele>
        <time>2019-06-15T07:52:23Z</time>
      </trkpt>
      <trkpt lat="44.39573" lon="5.85438">
        <ele>911</ele>
        <time>2019-06-15T07:52:24Z</time>
      </trkpt>
      <trkpt lat="44.39578" lon="5.85438">
        <ele>912</ele>
        <time>2019-06-15T07:52:25Z</time>
      </trkpt>
      <trkpt lat="44.39583" lon="5.85439">
        <ele>913</ele>
        <time>2019-06-15T07:52:26Z</time>
      </trkpt>
      <trkpt lat="44.39588" lon="5.85439">
        <ele>914</ele>
        <time>2019-06-15T07:52:27Z</time>
      </trkpt>
      <trkpt lat="44.39593" lon="5.8544">
        <ele>915</ele>
        <time>2019-06-15T07:52:28Z</time>
      </trkpt>
      <trkpt lat="44.39598" lon="5.85441">
        <ele>915</ele>
        <time>2019-06-15T07:52:29Z</time>
      </trkpt>
      <trkpt lat="44.39603" lon="5.85442">
        <ele>916</ele>
        <time>2019-06-15T07:52:30Z</time>
      </trkpt>
      <trkpt lat="44.39608" lon="5.85443">
        <ele>916</ele>
        <time>2019-06-15T07:52:31Z</time>
      </trkpt>
      <trkpt lat="44.39612" lon="5.85444">
        <ele>917</ele>
        <time>2019-06-15T07:52:32Z</time>
      </trkpt>
      <trkpt lat="44.39617" lon="5.85445">
        <ele>918</ele>
        <time>2019-06-15T07:52:33Z</time>
      </trkpt>
      <trkpt lat="44.39621" lon="5.85447">
        <ele>919</ele>
        <time>2019-06-15T07:52:34Z</time>
      </trkpt>
      <trkpt lat="44.39625" lon="5.85448">
        <ele>920</ele>
        <time>2019-06-15T07:52:35Z</time>
      </trkpt>
      <trkpt lat="44.39629" lon="5.8545">
        <ele>921</ele>
        <time>2019-06-15T07:52:36Z</time>
      </trkpt>
      <trkpt lat="44.39634" lon="5.85452">
        <ele>921</ele>
        <time>2019-06-15T07:52:37Z</time>
      </trkpt>
      <trkpt lat="44.39637" lon="5.85453">
        <ele>922</ele>
        <time>2019-06-15T07:52:38Z</time>
      </trkpt>
      <trkpt lat="44.39641" lon="5.85455">
        <ele>923</ele>
        <time>2019-06-15T07:52:39Z</time>
      </trkpt>
      <trkpt lat="44.39645" lon="5.85455">
        <ele>923</ele>
        <time>2019-06-15T07:52:40Z</time>
      </trkpt>
      <trkpt lat="44.39649" lon="5.85456">
        <ele>924</ele>
        <time>2019-06-15T07:52:41Z</time>
      </trkpt>
      <trkpt lat="44.39652" lon="5.85457">
        <ele>924</ele>
        <time>2019-06-15T07:52:42Z</time>
      </trkpt>
      <trkpt lat="44.39656" lon="5.85457">
        <ele>925</ele>
        <time>2019-06-15T07:52:43Z</time>
      </trkpt>
      <trkpt lat="44.39659" lon="5.85458">
        <ele>925</ele>
        <time>2019-06-15T07:52:44Z</time>
      </trkpt>
      <trkpt lat="44.39662" lon="5.85458">
        <ele>925</ele>
        <time>2019-06-15T07:52:45Z</time>
      </trkpt>
      <trkpt lat="44.39665" lon="5.85459">
        <ele>926</ele>
        <time>2019-06-15T07:52:46Z</time>
      </trkpt>
      <trkpt lat="44.39667" lon="5.85459">
        <ele>926</ele>
        <time>2019-06-15T07:52:47Z</time>
      </trkpt>
      <trkpt lat="44.3967" lon="5.8546">
        <ele>926</ele>
        <time>2019-06-15T07:52:48Z</time>
      </trkpt>
      <trkpt lat="44.39673" lon="5.85459">
        <ele>926</ele>
        <time>2019-06-15T07:52:49Z</time>
      </trkpt>
      <trkpt lat="44.39676" lon="5.85459">
        <ele>927</ele>
        <time>2019-06-15T07:52:50Z</time>
      </trkpt>
      <trkpt lat="44.39679" lon="5.85459">
        <ele>927</ele>
        <time>2019-06-15T07:52:51Z</time>
      </trkpt>
      <trkpt lat="44.39681" lon="5.8546">
        <ele>927</ele>
        <time>2019-06-15T07:52:52Z</time>
      </trkpt>
      <trkpt lat="44.39684" lon="5.85461">
        <ele>927</ele>
        <time>2019-06-15T07:52:53Z</time>
      </trkpt>
      <trkpt lat="44.39687" lon="5.85462">
        <ele>927</ele>
        <time>2019-06-15T07:52:54Z</time>
      </trkpt>
      <trkpt lat="44.39689" lon="5.85463">
        <ele>927</ele>
        <time>2019-06-15T07:52:55Z</time>
      </trkpt>
      <trkpt lat="44.39692" lon="5.85464">
        <ele>927</ele>
        <time>2019-06-15T07:52:56Z</time>
      </trkpt>
      <trkpt lat="44.39695" lon="5.85465">
        <ele>927</ele>
        <time>2019-06-15T07:52:57Z</time>
      </trkpt>
      <trkpt lat="44.39697" lon="5.85465">
        <ele>927</ele>
        <time>2019-06-15T07:52:58Z</time>
      </trkpt>
      <trkpt lat="44.397" lon="5.85466">
        <ele>927</ele>
        <time>2019-06-15T07:52:59Z</time>
      </trkpt>
      <trkpt lat="44.39702" lon="5.85467">
        <ele>927</ele>
        <time>2019-06-15T07:53:00Z</time>
      </trkpt>
      <trkpt lat="44.39704" lon="5.85468">
        <ele>927</ele>
        <time>2019-06-15T07:53:01Z</time>
      </trkpt>
      <trkpt lat="44.39706" lon="5.8547">
        <ele>927</ele>
        <time>2019-06-15T07:53:02Z</time>
      </trkpt>
      <trkpt lat="44.39709" lon="5.8547">
        <ele>927</ele>
        <time>2019-06-15T07:53:03Z</time>
      </trkpt>
      <trkpt lat="44.39711" lon="5.85471">
        <ele>927</ele>
        <time>2019-06-15T07:53:04Z</time>
      </trkpt>
      <trkpt lat="44.39713" lon="5.85472">
        <ele>927</ele>
        <time>2019-06-15T07:53:05Z</time>
      </trkpt>
      <trkpt lat="44.39716" lon="5.85472">
        <ele>927</ele>
        <time>2019-06-15T07:53:06Z</time>
      </trkpt>
      <trkpt lat="44.39718" lon="5.85473">
        <ele>927</ele>
        <time>2019-06-15T07:53:07Z</time>
      </trkpt>
      <trkpt lat="44.39721" lon="5.85474">
        <ele>927</ele>
        <time>2019-06-15T07:53:08Z</time>
      </trkpt>
      <trkpt lat="44.39723" lon="5.85475">
        <ele>927</ele>
        <time>2019-06-15T07:53:09Z</time>
      </trkpt>
      <trkpt lat="44.39726" lon="5.85476">
        <ele>927</ele>
        <time>2019-06-15T07:53:10Z</time>
      </trkpt>
      <trkpt lat="44.39729" lon="5.85477">
        <ele>927</ele>
        <time>2019-06-15T07:53:11Z</time>
      </trkpt>
      <trkpt lat="44.39732" lon="5.85478">
        <ele>927</ele>
        <time>2019-06-15T07:53:12Z</time>
      </trkpt>
      <trkpt lat="44.39734" lon="5.85479">
        <ele>927</ele>
        <time>2019-06-15T07:53:13Z</time>
      </trkpt>
      <trkpt lat="44.39736" lon="5.85479">
        <ele>928</ele>
        <time>2019-06-15T07:53:14Z</time>
      </trkpt>
      <trkpt lat="44.39738" lon="5.8548">
        <ele>928</ele>
        <time>2019-06-15T07:53:15Z</time>
      </trkpt>
      <trkpt lat="44.3974" lon="5.8548">
        <ele>929</ele>
        <time>2019-06-15T07:53:16Z</time>
      </trkpt>
      <trkpt lat="44.39742" lon="5.8548">
        <ele>929</ele>
        <time>2019-06-15T07:53:17Z</time>
      </trkpt>
      <trkpt lat="44.39744" lon="5.8548">
        <ele>930</ele>
        <time>2019-06-15T07:53:18Z</time>
      </trkpt>
      <trkpt lat="44.39746" lon="5.85481">
        <ele>930</ele>
        <time>2019-06-15T07:53:19Z</time>
      </trkpt>
      <trkpt lat="44.39748" lon="5.85482">
        <ele>931</ele>
        <time>2019-06-15T07:53:20Z</time>
      </trkpt>
      <trkpt lat="44.3975" lon="5.85481">
        <ele>931</ele>
        <time>2019-06-15T07:53:21Z</time>
      </trkpt>
      <trkpt lat="44.39753" lon="5.85481">
        <ele>932</ele>
        <time>2019-06-15T07:53:22Z</time>
      </trkpt>
      <trkpt lat="44.39755" lon="5.85482">
        <ele>932</ele>
        <time>2019-06-15T07:53:23Z</time>
      </trkpt>
      <trkpt lat="44.39757" lon="5.85482">
        <ele>932</ele>
        <time>2019-06-15T07:53:24Z</time>
      </trkpt>
      <trkpt lat="44.39759" lon="5.85483">
        <ele>932</ele>
        <time>2019-06-15T07:53:25Z</time>
      </trkpt>
      <trkpt lat="44.39761" lon="5.85483">
        <ele>933</ele>
        <time>2019-06-15T07:53:26Z</time>
      </trkpt>
      <trkpt lat="44.39763" lon="5.85484">
        <ele>933</ele>
        <time>2019-06-15T07:53:27Z</time>
      </trkpt>
      <trkpt lat="44.39766" lon="5.85485">
        <ele>933</ele>
        <time>2019-06-15T07:53:28Z</time>
      </trkpt>
      <trkpt lat="44.39768" lon="5.85485">
        <ele>933</ele>
        <time>2019-06-15T07:53:29Z</time>
      </trkpt>
      <trkpt lat="44.3977" lon="5.85485">
        <ele>933</ele>
        <time>2019-06-15T07:53:30Z</time>
      </trkpt>
      <trkpt lat="44.39772" lon="5.85486">
        <ele>933</ele>
        <time>2019-06-15T07:53:31Z</time>
      </trkpt>
      <trkpt lat="44.39775" lon="5.85486">
        <ele>933</ele>
        <time>2019-06-15T07:53:32Z</time>
      </trkpt>
      <trkpt lat="44.39777" lon="5.85485">
        <ele>933</ele>
        <time>2019-06-15T07:53:33Z</time>
      </trkpt>
      <trkpt lat="44.3978" lon="5.85485">
        <ele>934</ele>
        <time>2019-06-15T07:53:34Z</time>
      </trkpt>
      <trkpt lat="44.39784" lon="5.85486">
        <ele>934</ele>
        <time>2019-06-15T07:53:35Z</time>
      </trkpt>
      <trkpt lat="44.39786" lon="5.85485">
        <ele>935</ele>
        <time>2019-06-15T07:53:36Z</time>
      </trkpt>
      <trkpt lat="44.39789" lon="5.85484">
        <ele>935</ele>
        <time>2019-06-15T07:53:37Z</time>
      </trkpt>
      <trkpt lat="44.39791" lon="5.85483">
        <ele>936</ele>
        <time>2019-06-15T07:53:38Z</time>
      </trkpt>
      <trkpt lat="44.39794" lon="5.85482">
        <ele>936</ele>
        <time>2019-06-15T07:53:39Z</time>
      </trkpt>
      <trkpt lat="44.39796" lon="5.8548">
        <ele>936</ele>
        <time>2019-06-15T07:53:40Z</time>
      </trkpt>
      <trkpt lat="44.39799" lon="5.85479">
        <ele>936</ele>
        <time>2019-06-15T07:53:41Z</time>
      </trkpt>
      <trkpt lat="44.39802" lon="5.85477">
        <ele>936</ele>
        <time>2019-06-15T07:53:42Z</time>
      </trkpt>
      <trkpt lat="44.39804" lon="5.85474">
        <ele>936</ele>
        <time>2019-06-15T07:53:43Z</time>
      </trkpt>
      <trkpt lat="44.39807" lon="5.85471">
        <ele>936</ele>
        <time>2019-06-15T07:53:44Z</time>
      </trkpt>
      <trkpt lat="44.39809" lon="5.85468">
        <ele>936</ele>
        <time>2019-06-15T07:53:45Z</time>
      </trkpt>
      <trkpt lat="44.39812" lon="5.85464">
        <ele>936</ele>
        <time>2019-06-15T07:53:46Z</time>
      </trkpt>
      <trkpt lat="44.39814" lon="5.8546">
        <ele>936</ele>
        <time>2019-06-15T07:53:47Z</time>
      </trkpt>
      <trkpt lat="44.39816" lon="5.85454">
        <ele>936</ele>
        <time>2019-06-15T07:53:48Z</time>
      </trkpt>
      <trkpt lat="44.39819" lon="5.85448">
        <ele>936</ele>
        <time>2019-06-15T07:53:49Z</time>
      </trkpt>
      <trkpt lat="44.3982" lon="5.85442">
        <ele>936</ele>
        <time>2019-06-15T07:53:50Z</time>
      </trkpt>
      <trkpt lat="44.39822" lon="5.85434">
        <ele>936</ele>
        <time>2019-06-15T07:53:51Z</time>
      </trkpt>
      <trkpt lat="44.39824" lon="5.85427">
        <ele>936</ele>
        <time>2019-06-15T07:53:52Z</time>
      </trkpt>
      <trkpt lat="44.39825" lon="5.85419">
        <ele>935</ele>
        <time>2019-06-15T07:53:53Z</time>
      </trkpt>
      <trkpt lat="44.39825" lon="5.85411">
        <ele>934</ele>
        <time>2019-06-15T07:53:54Z</time>
      </trkpt>
      <trkpt lat="44.39825" lon="5.85402">
        <ele>933</ele>
        <time>2019-06-15T07:53:55Z</time>
      </trkpt>
      <trkpt lat="44.39825" lon="5.85393">
        <ele>933</ele>
        <time>2019-06-15T07:53:56Z</time>
      </trkpt>
      <trkpt lat="44.39824" lon="5.85384">
        <ele>932</ele>
        <time>2019-06-15T07:53:57Z</time>
      </trkpt>
      <trkpt lat="44.39823" lon="5.85374">
        <ele>931</ele>
        <time>2019-06-15T07:53:58Z</time>
      </trkpt>
      <trkpt lat="44.39822" lon="5.85364">
        <ele>930</ele>
        <time>2019-06-15T07:53:59Z</time>
      </trkpt>
      <trkpt lat="44.39822" lon="5.85354">
        <ele>929</ele>
        <time>2019-06-15T07:54:00Z</time>
      </trkpt>
      <trkpt lat="44.39821" lon="5.85344">
        <ele>928</ele>
        <time>2019-06-15T07:54:01Z</time>
      </trkpt>
      <trkpt lat="44.3982" lon="5.85333">
        <ele>927</ele>
        <time>2019-06-15T07:54:02Z</time>
      </trkpt>
      <trkpt lat="44.39819" lon="5.85323">
        <ele>927</ele>
        <time>2019-06-15T07:54:03Z</time>
      </trkpt>
      <trkpt lat="44.39818" lon="5.85311">
        <ele>927</ele>
        <time>2019-06-15T07:54:04Z</time>
      </trkpt>
      <trkpt lat="44.39816" lon="5.85299">
        <ele>926</ele>
        <time>2019-06-15T07:54:05Z</time>
      </trkpt>
      <trkpt lat="44.39813" lon="5.85286">
        <ele>925</ele>
        <time>2019-06-15T07:54:06Z</time>
      </trkpt>
      <trkpt lat="44.39811" lon="5.85273">
        <ele>925</ele>
        <time>2019-06-15T07:54:07Z</time>
      </trkpt>
      <trkpt lat="44.39809" lon="5.85259">
        <ele>924</ele>
        <time>2019-06-15T07:54:08Z</time>
      </trkpt>
      <trkpt lat="44.39808" lon="5.85245">
        <ele>923</ele>
        <time>2019-06-15T07:54:09Z</time>
      </trkpt>
      <trkpt lat="44.39806" lon="5.85232">
        <ele>922</ele>
        <time>2019-06-15T07:54:10Z</time>
      </trkpt>
      <trkpt lat="44.39803" lon="5.85219">
        <ele>922</ele>
        <time>2019-06-15T07:54:11Z</time>
      </trkpt>
      <trkpt lat="44.39799" lon="5.85206">
        <ele>921</ele>
        <time>2019-06-15T07:54:12Z</time>
      </trkpt>
      <trkpt lat="44.39795" lon="5.85193">
        <ele>920</ele>
        <time>2019-06-15T07:54:13Z</time>
      </trkpt>
      <trkpt lat="44.39791" lon="5.85179">
        <ele>919</ele>
        <time>2019-06-15T07:54:14Z</time>
      </trkpt>
      <trkpt lat="44.39788" lon="5.85166">
        <ele>918</ele>
        <time>2019-06-15T07:54:15Z</time>
      </trkpt>
      <trkpt lat="44.39784" lon="5.85152">
        <ele>917</ele>
        <time>2019-06-15T07:54:16Z</time>
      </trkpt>
      <trkpt lat="44.39782" lon="5.85139">
        <ele>916</ele>
        <time>2019-06-15T07:54:17Z</time>
      </trkpt>
      <trkpt lat="44.3978" lon="5.85126">
        <ele>915</ele>
        <time>2019-06-15T07:54:18Z</time>
      </trkpt>
      <trkpt lat="44.39778" lon="5.85114">
        <ele>915</ele>
        <time>2019-06-15T07:54:19Z</time>
      </trkpt>
      <trkpt lat="44.39777" lon="5.85103">
        <ele>914</ele>
        <time>2019-06-15T07:54:20Z</time>
      </trkpt>
      <trkpt lat="44.39778" lon="5.85094">
        <ele>914</ele>
        <time>2019-06-15T07:54:21Z</time>
      </trkpt>
      <trkpt lat="44.39781" lon="5.85087">
        <ele>913</ele>
        <time>2019-06-15T07:54:23Z</time>
      </trkpt>
      <trkpt lat="44.39786" lon="5.85081">
        <ele>913</ele>
        <time>2019-06-15T07:54:23Z</time>
      </trkpt>
      <trkpt lat="44.39793" lon="5.85077">
        <ele>913</ele>
        <time>2019-06-15T07:54:24Z</time>
      </trkpt>
      <trkpt lat="44.398" lon="5.85074">
        <ele>913</ele>
        <time>2019-06-15T07:54:25Z</time>
      </trkpt>
      <trkpt lat="44.39806" lon="5.85071">
        <ele>913</ele>
        <time>2019-06-15T07:54:26Z</time>
      </trkpt>
      <trkpt lat="44.39813" lon="5.85066">
        <ele>913</ele>
        <time>2019-06-15T07:54:27Z</time>
      </trkpt>
      <trkpt lat="44.3982" lon="5.85061">
        <ele>913</ele>
        <time>2019-06-15T07:54:28Z</time>
      </trkpt>
      <trkpt lat="44.39826" lon="5.85057">
        <ele>913</ele>
        <time>2019-06-15T07:54:29Z</time>
      </trkpt>
      <trkpt lat="44.39832" lon="5.85054">
        <ele>913</ele>
        <time>2019-06-15T07:54:30Z</time>
      </trkpt>
      <trkpt lat="44.39838" lon="5.85052">
        <ele>913</ele>
        <time>2019-06-15T07:54:31Z</time>
      </trkpt>
      <trkpt lat="44.39846" lon="5.8505">
        <ele>913</ele>
        <time>2019-06-15T07:54:32Z</time>
      </trkpt>
      <trkpt lat="44.39853" lon="5.85048">
        <ele>913</ele>
        <time>2019-06-15T07:54:33Z</time>
      </trkpt>
      <trkpt lat="44.39861" lon="5.85049">
        <ele>913</ele>
        <time>2019-06-15T07:54:34Z</time>
      </trkpt>
      <trkpt lat="44.3987" lon="5.85049">
        <ele>914</ele>
        <time>2019-06-15T07:54:35Z</time>
      </trkpt>
      <trkpt lat="44.39878" lon="5.8505">
        <ele>915</ele>
        <time>2019-06-15T07:54:36Z</time>
      </trkpt>
      <trkpt lat="44.39886" lon="5.85051">
        <ele>916</ele>
        <time>2019-06-15T07:54:37Z</time>
      </trkpt>
      <trkpt lat="44.39893" lon="5.85051">
        <ele>917</ele>
        <time>2019-06-15T07:54:38Z</time>
      </trkpt>
      <trkpt lat="44.39902" lon="5.85052">
        <ele>918</ele>
        <time>2019-06-15T07:54:39Z</time>
      </trkpt>
      <trkpt lat="44.39909" lon="5.85051">
        <ele>918</ele>
        <time>2019-06-15T07:54:40Z</time>
      </trkpt>
      <trkpt lat="44.39916" lon="5.85049">
        <ele>919</ele>
        <time>2019-06-15T07:54:41Z</time>
      </trkpt>
      <trkpt lat="44.39923" lon="5.85047">
        <ele>919</ele>
        <time>2019-06-15T07:54:42Z</time>
      </trkpt>
      <trkpt lat="44.3993" lon="5.85043">
        <ele>920</ele>
        <time>2019-06-15T07:54:43Z</time>
      </trkpt>
      <trkpt lat="44.39937" lon="5.8504">
        <ele>920</ele>
        <time>2019-06-15T07:54:44Z</time>
      </trkpt>
      <trkpt lat="44.39943" lon="5.85036">
        <ele>920</ele>
        <time>2019-06-15T07:54:45Z</time>
      </trkpt>
      <trkpt lat="44.39949" lon="5.85031">
        <ele>921</ele>
        <time>2019-06-15T07:54:46Z</time>
      </trkpt>
      <trkpt lat="44.39956" lon="5.85026">
        <ele>921</ele>
        <time>2019-06-15T07:54:47Z</time>
      </trkpt>
      <trkpt lat="44.39963" lon="5.85021">
        <ele>921</ele>
        <time>2019-06-15T07:54:48Z</time>
      </trkpt>
      <trkpt lat="44.3997" lon="5.85017">
        <ele>921</ele>
        <time>2019-06-15T07:54:49Z</time>
      </trkpt>
      <trkpt lat="44.39977" lon="5.85012">
        <ele>921</ele>
        <time>2019-06-15T07:54:50Z</time>
      </trkpt>
      <trkpt lat="44.39984" lon="5.85007">
        <ele>921</ele>
        <time>2019-06-15T07:54:51Z</time>
      </trkpt>
      <trkpt lat="44.39991" lon="5.85002">
        <ele>921</ele>
        <time>2019-06-15T07:54:52Z</time>
      </trkpt>
      <trkpt lat="44.39997" lon="5.84995">
        <ele>921</ele>
        <time>2019-06-15T07:54:53Z</time>
      </trkpt>
      <trkpt lat="44.40003" lon="5.84986">
        <ele>921</ele>
        <time>2019-06-15T07:54:54Z</time>
      </trkpt>
      <trkpt lat="44.40009" lon="5.84978">
        <ele>921</ele>
        <time>2019-06-15T07:54:55Z</time>
      </trkpt>
      <trkpt lat="44.40014" lon="5.8497">
        <ele>921</ele>
        <time>2019-06-15T07:54:56Z</time>
      </trkpt>
      <trkpt lat="44.40018" lon="5.84962">
        <ele>921</ele>
        <time>2019-06-15T07:54:57Z</time>
      </trkpt>
      <trkpt lat="44.40022" lon="5.84952">
        <ele>921</ele>
        <time>2019-06-15T07:54:58Z</time>
      </trkpt>
      <trkpt lat="44.40025" lon="5.84943">
        <ele>921</ele>
        <time>2019-06-15T07:54:59Z</time>
      </trkpt>
      <trkpt lat="44.40029" lon="5.84933">
        <ele>921</ele>
        <time>2019-06-15T07:55:00Z</time>
      </trkpt>
      <trkpt lat="44.40032" lon="5.84923">
        <ele>921</ele>
        <time>2019-06-15T07:55:01Z</time>
      </trkpt>
      <trkpt lat="44.40035" lon="5.84913">
        <ele>921</ele>
        <time>2019-06-15T07:55:02Z</time>
      </trkpt>
      <trkpt lat="44.40037" lon="5.84903">
        <ele>921</ele>
        <time>2019-06-15T07:55:03Z</time>
      </trkpt>
      <trkpt lat="44.4004" lon="5.84893">
        <ele>921</ele>
        <time>2019-06-15T07:55:04Z</time>
      </trkpt>
      <trkpt lat="44.40042" lon="5.84882">
        <ele>921</ele>
        <time>2019-06-15T07:55:05Z</time>
      </trkpt>
      <trkpt lat="44.40044" lon="5.84871">
        <ele>921</ele>
        <time>2019-06-15T07:55:06Z</time>
      </trkpt>
      <trkpt lat="44.40045" lon="5.8486">
        <ele>921</ele>
        <time>2019-06-15T07:55:07Z</time>
      </trkpt>
      <trkpt lat="44.40045" lon="5.84849">
        <ele>921</ele>
        <time>2019-06-15T07:55:08Z</time>
      </trkpt>
      <trkpt lat="44.40044" lon="5.84837">
        <ele>920</ele>
        <time>2019-06-15T07:55:09Z</time>
      </trkpt>
      <trkpt lat="44.40042" lon="5.84826">
        <ele>920</ele>
        <time>2019-06-15T07:55:10Z</time>
      </trkpt>
      <trkpt lat="44.40039" lon="5.84813">
        <ele>919</ele>
        <time>2019-06-15T07:55:11Z</time>
      </trkpt>
      <trkpt lat="44.40036" lon="5.84802">
        <ele>919</ele>
        <time>2019-06-15T07:55:12Z</time>
      </trkpt>
      <trkpt lat="44.40033" lon="5.8479">
        <ele>918</ele>
        <time>2019-06-15T07:55:13Z</time>
      </trkpt>
      <trkpt lat="44.40032" lon="5.84779">
        <ele>918</ele>
        <time>2019-06-15T07:55:14Z</time>
      </trkpt>
      <trkpt lat="44.40031" lon="5.84767">
        <ele>917</ele>
        <time>2019-06-15T07:55:15Z</time>
      </trkpt>
      <trkpt lat="44.40031" lon="5.84755">
        <ele>917</ele>
        <time>2019-06-15T07:55:16Z</time>
      </trkpt>
      <trkpt lat="44.40032" lon="5.84742">
        <ele>916</ele>
        <time>2019-06-15T07:55:17Z</time>
      </trkpt>
      <trkpt lat="44.40034" lon="5.8473">
        <ele>915</ele>
        <time>2019-06-15T07:55:18Z</time>
      </trkpt>
      <trkpt lat="44.40036" lon="5.84718">
        <ele>914</ele>
        <time>2019-06-15T07:55:19Z</time>
      </trkpt>
      <trkpt lat="44.40039" lon="5.84707">
        <ele>913</ele>
        <time>2019-06-15T07:55:20Z</time>
      </trkpt>
      <trkpt lat="44.40043" lon="5.84697">
        <ele>913</ele>
        <time>2019-06-15T07:55:21Z</time>
      </trkpt>
      <trkpt lat="44.40046" lon="5.84687">
        <ele>912</ele>
        <time>2019-06-15T07:55:22Z</time>
      </trkpt>
      <trkpt lat="44.40049" lon="5.84678">
        <ele>912</ele>
        <time>2019-06-15T07:55:23Z</time>
      </trkpt>
      <trkpt lat="44.40053" lon="5.84669">
        <ele>912</ele>
        <time>2019-06-15T07:55:24Z</time>
      </trkpt>
      <trkpt lat="44.40058" lon="5.84662">
        <ele>912</ele>
        <time>2019-06-15T07:55:25Z</time>
      </trkpt>
      <trkpt lat="44.40063" lon="5.84656">
        <ele>912</ele>
        <time>2019-06-15T07:55:26Z</time>
      </trkpt>
      <trkpt lat="44.40069" lon="5.8465">
        <ele>911</ele>
        <time>2019-06-15T07:55:27Z</time>
      </trkpt>
      <trkpt lat="44.40077" lon="5.84647">
        <ele>911</ele>
        <time>2019-06-15T07:55:28Z</time>
      </trkpt>
      <trkpt lat="44.40085" lon="5.84643">
        <ele>911</ele>
        <time>2019-06-15T07:55:29Z</time>
      </trkpt>
      <trkpt lat="44.40093" lon="5.8464">
        <ele>911</ele>
        <time>2019-06-15T07:55:30Z</time>
      </trkpt>
      <trkpt lat="44.40101" lon="5.84637">
        <ele>911</ele>
        <time>2019-06-15T07:55:31Z</time>
      </trkpt>
      <trkpt lat="44.40111" lon="5.84636">
        <ele>911</ele>
        <time>2019-06-15T07:55:32Z</time>
      </trkpt>
      <trkpt lat="44.40121" lon="5.84635">
        <ele>911</ele>
        <time>2019-06-15T07:55:33Z</time>
      </trkpt>
      <trkpt lat="44.40132" lon="5.84634">
        <ele>911</ele>
        <time>2019-06-15T07:55:34Z</time>
      </trkpt>
      <trkpt lat="44.4014" lon="5.84631">
        <ele>911</ele>
        <time>2019-06-15T07:55:35Z</time>
      </trkpt>
      <trkpt lat="44.40146" lon="5.84628">
        <ele>911</ele>
        <time>2019-06-15T07:55:36Z</time>
      </trkpt>
      <trkpt lat="44.40152" lon="5.84624">
        <ele>911</ele>
        <time>2019-06-15T07:55:37Z</time>
      </trkpt>
      <trkpt lat="44.40157" lon="5.8462">
        <ele>911</ele>
        <time>2019-06-15T07:55:38Z</time>
      </trkpt>
      <trkpt lat="44.40162" lon="5.84616">
        <ele>911</ele>
        <time>2019-06-15T07:55:39Z</time>
      </trkpt>
      <trkpt lat="44.40167" lon="5.84611">
        <ele>911</ele>
        <time>2019-06-15T07:55:40Z</time>
      </trkpt>
      <trkpt lat="44.40171" lon="5.84606">
        <ele>911</ele>
        <time>2019-06-15T07:55:41Z</time>
      </trkpt>
      <trkpt lat="44.40174" lon="5.846">
        <ele>911</ele>
        <time>2019-06-15T07:55:42Z</time>
      </trkpt>
      <trkpt lat="44.40177" lon="5.84594">
        <ele>911</ele>
        <time>2019-06-15T07:55:43Z</time>
      </trkpt>
      <trkpt lat="44.40179" lon="5.84587">
        <ele>911</ele>
        <time>2019-06-15T07:55:44Z</time>
      </trkpt>
      <trkpt lat="44.40181" lon="5.8458">
        <ele>911</ele>
        <time>2019-06-15T07:55:45Z</time>
      </trkpt>
      <trkpt lat="44.40183" lon="5.84573">
        <ele>911</ele>
        <time>2019-06-15T07:55:46Z</time>
      </trkpt>
      <trkpt lat="44.40185" lon="5.84565">
        <ele>911</ele>
        <time>2019-06-15T07:55:47Z</time>
      </trkpt>
      <trkpt lat="44.40187" lon="5.84558">
        <ele>911</ele>
        <time>2019-06-15T07:55:48Z</time>
      </trkpt>
      <trkpt lat="44.40189" lon="5.84551">
        <ele>911</ele>
        <time>2019-06-15T07:55:49Z</time>
      </trkpt>
      <trkpt lat="44.40191" lon="5.84543">
        <ele>911</ele>
        <time>2019-06-15T07:55:50Z</time>
      </trkpt>
      <trkpt lat="44.40192" lon="5.84536">
        <ele>911</ele>
        <time>2019-06-15T07:55:51Z</time>
      </trkpt>
      <trkpt lat="44.40194" lon="5.84528">
        <ele>911</ele>
        <time>2019-06-15T07:55:52Z</time>
      </trkpt>
      <trkpt lat="44.40197" lon="5.84521">
        <ele>911</ele>
        <time>2019-06-15T07:55:53Z</time>
      </trkpt>
      <trkpt lat="44.40199" lon="5.84514">
        <ele>911</ele>
        <time>2019-06-15T07:55:54Z</time>
      </trkpt>
      <trkpt lat="44.40201" lon="5.84507">
        <ele>911</ele>
        <time>2019-06-15T07:55:55Z</time>
      </trkpt>
      <trkpt lat="44.40203" lon="5.845">
        <ele>911</ele>
        <time>2019-06-15T07:55:56Z</time>
      </trkpt>
      <trkpt lat="44.40205" lon="5.84493">
        <ele>911</ele>
        <time>2019-06-15T07:55:57Z</time>
      </trkpt>
      <trkpt lat="44.40207" lon="5.84486">
        <ele>911</ele>
        <time>2019-06-15T07:55:58Z</time>
      </trkpt>
      <trkpt lat="44.40209" lon="5.84479">
        <ele>911</ele>
        <time>2019-06-15T07:55:59Z</time>
      </trkpt>
      <trkpt lat="44.40211" lon="5.84472">
        <ele>911</ele>
        <time>2019-06-15T07:56:00Z</time>
      </trkpt>
      <trkpt lat="44.40214" lon="5.84465">
        <ele>911</ele>
        <time>2019-06-15T07:56:01Z</time>
      </trkpt>
      <trkpt lat="44.40217" lon="5.84457">
        <ele>911</ele>
        <time>2019-06-15T07:56:02Z</time>
      </trkpt>
      <trkpt lat="44.40219" lon="5.8445">
        <ele>911</ele>
        <time>2019-06-15T07:56:03Z</time>
      </trkpt>
      <trkpt lat="44.40223" lon="5.84444">
        <ele>911</ele>
        <time>2019-06-15T07:56:04Z</time>
      </trkpt>
      <trkpt lat="44.40226" lon="5.84437">
        <ele>911</ele>
        <time>2019-06-15T07:56:05Z</time>
      </trkpt>
      <trkpt lat="44.4023" lon="5.84431">
        <ele>911</ele>
        <time>2019-06-15T07:56:06Z</time>
      </trkpt>
      <trkpt lat="44.40233" lon="5.84425">
        <ele>911</ele>
        <time>2019-06-15T07:56:07Z</time>
      </trkpt>
      <trkpt lat="44.40236" lon="5.84419">
        <ele>912</ele>
        <time>2019-06-15T07:56:08Z</time>
      </trkpt>
      <trkpt lat="44.40239" lon="5.84413">
        <ele>913</ele>
        <time>2019-06-15T07:56:09Z</time>
      </trkpt>
      <trkpt lat="44.40242" lon="5.84407">
        <ele>913</ele>
        <time>2019-06-15T07:56:10Z</time>
      </trkpt>
      <trkpt lat="44.40245" lon="5.84402">
        <ele>914</ele>
        <time>2019-06-15T07:56:11Z</time>
      </trkpt>
      <trkpt lat="44.40248" lon="5.84396">
        <ele>914</ele>
        <time>2019-06-15T07:56:12Z</time>
      </trkpt>
      <trkpt lat="44.40251" lon="5.84391">
        <ele>915</ele>
        <time>2019-06-15T07:56:13Z</time>
      </trkpt>
      <trkpt lat="44.40254" lon="5.84385">
        <ele>915</ele>
        <time>2019-06-15T07:56:14Z</time>
      </trkpt>
      <trkpt lat="44.40257" lon="5.8438">
        <ele>916</ele>
        <time>2019-06-15T07:56:15Z</time>
      </trkpt>
      <trkpt lat="44.4026" lon="5.84374">
        <ele>916</ele>
        <time>2019-06-15T07:56:16Z</time>
      </trkpt>
      <trkpt lat="44.40263" lon="5.84369">
        <ele>917</ele>
        <time>2019-06-15T07:56:17Z</time>
      </trkpt>
      <trkpt lat="44.40266" lon="5.84363">
        <ele>917</ele>
        <time>2019-06-15T07:56:18Z</time>
      </trkpt>
      <trkpt lat="44.40268" lon="5.84357">
        <ele>917</ele>
        <time>2019-06-15T07:56:19Z</time>
      </trkpt>
      <trkpt lat="44.40271" lon="5.84351">
        <ele>918</ele>
        <time>2019-06-15T07:56:20Z</time>
      </trkpt>
      <trkpt lat="44.40273" lon="5.84345">
        <ele>918</ele>
        <time>2019-06-15T07:56:21Z</time>
      </trkpt>
      <trkpt lat="44.40275" lon="5.84339">
        <ele>918</ele>
        <time>2019-06-15T07:56:22Z</time>
      </trkpt>
      <trkpt lat="44.40277" lon="5.84332">
        <ele>919</ele>
        <time>2019-06-15T07:56:23Z</time>
      </trkpt>
      <trkpt lat="44.40278" lon="5.84326">
        <ele>919</ele>
        <time>2019-06-15T07:56:24Z</time>
      </trkpt>
      <trkpt lat="44.40279" lon="5.84319">
        <ele>919</ele>
        <time>2019-06-15T07:56:25Z</time>
      </trkpt>
      <trkpt lat="44.40281" lon="5.84312">
        <ele>919</ele>
        <time>2019-06-15T07:56:26Z</time>
      </trkpt>
      <trkpt lat="44.40281" lon="5.84306">
        <ele>919</ele>
        <time>2019-06-15T07:56:27Z</time>
      </trkpt>
      <trkpt lat="44.40282" lon="5.843">
        <ele>919</ele>
        <time>2019-06-15T07:56:28Z</time>
      </trkpt>
      <trkpt lat="44.40282" lon="5.84293">
        <ele>919</ele>
        <time>2019-06-15T07:56:29Z</time>
      </trkpt>
      <trkpt lat="44.40282" lon="5.84286">
        <ele>920</ele>
        <time>2019-06-15T07:56:30Z</time>
      </trkpt>
      <trkpt lat="44.40283" lon="5.84279">
        <ele>920</ele>
        <time>2019-06-15T07:56:31Z</time>
      </trkpt>
      <trkpt lat="44.40283" lon="5.84273">
        <ele>920</ele>
        <time>2019-06-15T07:56:32Z</time>
      </trkpt>
      <trkpt lat="44.40282" lon="5.84266">
        <ele>920</ele>
        <time>2019-06-15T07:56:33Z</time>
      </trkpt>
      <trkpt lat="44.40283" lon="5.84259">
        <ele>921</ele>
        <time>2019-06-15T07:56:34Z</time>
      </trkpt>
      <trkpt lat="44.40283" lon="5.84253">
        <ele>921</ele>
        <time>2019-06-15T07:56:35Z</time>
      </trkpt>
      <trkpt lat="44.40284" lon="5.84246">
        <ele>921</ele>
        <time>2019-06-15T07:56:36Z</time>
      </trkpt>
      <trkpt lat="44.40284" lon="5.8424">
        <ele>921</ele>
        <time>2019-06-15T07:56:37Z</time>
      </trkpt>
      <trkpt lat="44.40284" lon="5.84233">
        <ele>921</ele>
        <time>2019-06-15T07:56:38Z</time>
      </trkpt>
      <trkpt lat="44.40284" lon="5.84226">
        <ele>921</ele>
        <time>2019-06-15T07:56:39Z</time>
      </trkpt>
      <trkpt lat="44.40284" lon="5.8422">
        <ele>921</ele>
        <time>2019-06-15T07:56:40Z</time>
      </trkpt>
      <trkpt lat="44.40284" lon="5.84213">
        <ele>921</ele>
        <time>2019-06-15T07:56:41Z</time>
      </trkpt>
      <trkpt lat="44.40285" lon="5.84206">
        <ele>921</ele>
        <time>2019-06-15T07:56:42Z</time>
      </trkpt>
      <trkpt lat="44.40285" lon="5.84199">
        <ele>921</ele>
        <time>2019-06-15T07:56:43Z</time>
      </trkpt>
      <trkpt lat="44.40286" lon="5.84192">
        <ele>921</ele>
        <time>2019-06-15T07:56:44Z</time>
      </trkpt>
      <trkpt lat="44.40287" lon="5.84185">
        <ele>921</ele>
        <time>2019-06-15T07:56:45Z</time>
      </trkpt>
      <trkpt lat="44.40288" lon="5.84178">
        <ele>921</ele>
        <time>2019-06-15T07:56:46Z</time>
      </trkpt>
      <trkpt lat="44.40289" lon="5.84171">
        <ele>921</ele>
        <time>2019-06-15T07:56:47Z</time>
      </trkpt>
      <trkpt lat="44.40289" lon="5.84164">
        <ele>921</ele>
        <time>2019-06-15T07:56:48Z</time>
      </trkpt>
      <trkpt lat="44.4029" lon="5.84157">
        <ele>921</ele>
        <time>2019-06-15T07:56:49Z</time>
      </trkpt>
      <trkpt lat="44.40292" lon="5.84149">
        <ele>921</ele>
        <time>2019-06-15T07:56:50Z</time>
      </trkpt>
      <trkpt lat="44.40293" lon="5.84143">
        <ele>921</ele>
        <time>2019-06-15T07:56:51Z</time>
      </trkpt>
      <trkpt lat="44.40296" lon="5.84137">
        <ele>921</ele>
        <time>2019-06-15T07:56:52Z</time>
      </trkpt>
      <trkpt lat="44.403" lon="5.84132">
        <ele>921</ele>
        <time>2019-06-15T07:56:53Z</time>
      </trkpt>
      <trkpt lat="44.40304" lon="5.84128">
        <ele>921</ele>
        <time>2019-06-15T07:56:54Z</time>
      </trkpt>
      <trkpt lat="44.40309" lon="5.84125">
        <ele>921</ele>
        <time>2019-06-15T07:56:55Z</time>
      </trkpt>
      <trkpt lat="44.40314" lon="5.84123">
        <ele>921</ele>
        <time>2019-06-15T07:56:56Z</time>
      </trkpt>
      <trkpt lat="44.40319" lon="5.84121">
        <ele>921</ele>
        <time>2019-06-15T07:56:57Z</time>
      </trkpt>
      <trkpt lat="44.40323" lon="5.84119">
        <ele>921</ele>
        <time>2019-06-15T07:56:58Z</time>
      </trkpt>
      <trkpt lat="44.40329" lon="5.84118">
        <ele>921</ele>
        <time>2019-06-15T07:56:59Z</time>
      </trkpt>
      <trkpt lat="44.40334" lon="5.84117">
        <ele>921</ele>
        <time>2019-06-15T07:57:00Z</time>
      </trkpt>
      <trkpt lat="44.40339" lon="5.84115">
        <ele>921</ele>
        <time>2019-06-15T07:57:01Z</time>
      </trkpt>
      <trkpt lat="44.40343" lon="5.84114">
        <ele>921</ele>
        <time>2019-06-15T07:57:02Z</time>
      </trkpt>
      <trkpt lat="44.40348" lon="5.84112">
        <ele>922</ele>
        <time>2019-06-15T07:57:03Z</time>
      </trkpt>
      <trkpt lat="44.40353" lon="5.8411">
        <ele>922</ele>
        <time>2019-06-15T07:57:04Z</time>
      </trkpt>
      <trkpt lat="44.40357" lon="5.84108">
        <ele>923</ele>
        <time>2019-06-15T07:57:05Z</time>
      </trkpt>
      <trkpt lat="44.40362" lon="5.84107">
        <ele>923</ele>
        <time>2019-06-15T07:57:06Z</time>
      </trkpt>
      <trkpt lat="44.40367" lon="5.84107">
        <ele>924</ele>
        <time>2019-06-15T07:57:07Z</time>
      </trkpt>
      <trkpt lat="44.40372" lon="5.84107">
        <ele>924</ele>
        <time>2019-06-15T07:57:08Z</time>
      </trkpt>
      <trkpt lat="44.40377" lon="5.84108">
        <ele>925</ele>
        <time>2019-06-15T07:57:09Z</time>
      </trkpt>
      <trkpt lat="44.40382" lon="5.84109">
        <ele>925</ele>
        <time>2019-06-15T07:57:10Z</time>
      </trkpt>
      <trkpt lat="44.40387" lon="5.84111">
        <ele>926</ele>
        <time>2019-06-15T07:57:11Z</time>
      </trkpt>
      <trkpt lat="44.40392" lon="5.84113">
        <ele>926</ele>
        <time>2019-06-15T07:57:12Z</time>
      </trkpt>
      <trkpt lat="44.40396" lon="5.84115">
        <ele>926</ele>
        <time>2019-06-15T07:57:13Z</time>
      </trkpt>
      <trkpt lat="44.40401" lon="5.84118">
        <ele>927</ele>
        <time>2019-06-15T07:57:14Z</time>
      </trkpt>
      <trkpt lat="44.40405" lon="5.8412">
        <ele>927</ele>
        <time>2019-06-15T07:57:15Z</time>
      </trkpt>
      <trkpt lat="44.40409" lon="5.84122">
        <ele>927</ele>
        <time>2019-06-15T07:57:16Z</time>
      </trkpt>
      <trkpt lat="44.40414" lon="5.84123">
        <ele>927</ele>
        <time>2019-06-15T07:57:17Z</time>
      </trkpt>
      <trkpt lat="44.40418" lon="5.84125">
        <ele>927</ele>
        <time>2019-06-15T07:57:18Z</time>
      </trkpt>
      <trkpt lat="44.40422" lon="5.84126">
        <ele>928</ele>
        <time>2019-06-15T07:57:19Z</time>
      </trkpt>
      <trkpt lat="44.40427" lon="5.84127">
        <ele>928</ele>
        <time>2019-06-15T07:57:20Z</time>
      </trkpt>
      <trkpt lat="44.40431" lon="5.84129">
        <ele>928</ele>
        <time>2019-06-15T07:57:21Z</time>
      </trkpt>
      <trkpt lat="44.40435" lon="5.8413">
        <ele>928</ele>
        <time>2019-06-15T07:57:22Z</time>
      </trkpt>
      <trkpt lat="44.40438" lon="5.84131">
        <ele>929</ele>
        <time>2019-06-15T07:57:23Z</time>
      </trkpt>
      <trkpt lat="44.40443" lon="5.84133">
        <ele>929</ele>
        <time>2019-06-15T07:57:24Z</time>
      </trkpt>
      <trkpt lat="44.40447" lon="5.84135">
        <ele>930</ele>
        <time>2019-06-15T07:57:25Z</time>
      </trkpt>
      <trkpt lat="44.40451" lon="5.84137">
        <ele>930</ele>
        <time>2019-06-15T07:57:26Z</time>
      </trkpt>
      <trkpt lat="44.40455" lon="5.84139">
        <ele>930</ele>
        <time>2019-06-15T07:57:27Z</time>
      </trkpt>
      <trkpt lat="44.40459" lon="5.84141">
        <ele>931</ele>
        <time>2019-06-15T07:57:28Z</time>
      </trkpt>
      <trkpt lat="44.40463" lon="5.84143">
        <ele>931</ele>
        <time>2019-06-15T07:57:29Z</time>
      </trkpt>
      <trkpt lat="44.40467" lon="5.84145">
        <ele>931</ele>
        <time>2019-06-15T07:57:30Z</time>
      </trkpt>
      <trkpt lat="44.40471" lon="5.84148">
        <ele>932</ele>
        <time>2019-06-15T07:57:31Z</time>
      </trkpt>
      <trkpt lat="44.40474" lon="5.8415">
        <ele>932</ele>
        <time>2019-06-15T07:57:32Z</time>
      </trkpt>
      <trkpt lat="44.40479" lon="5.84153">
        <ele>933</ele>
        <time>2019-06-15T07:57:33Z</time>
      </trkpt>
      <trkpt lat="44.40482" lon="5.84156">
        <ele>933</ele>
        <time>2019-06-15T07:57:34Z</time>
      </trkpt>
      <trkpt lat="44.40486" lon="5.84159">
        <ele>934</ele>
        <time>2019-06-15T07:57:35Z</time>
      </trkpt>
      <trkpt lat="44.40489" lon="5.84162">
        <ele>934</ele>
        <time>2019-06-15T07:57:36Z</time>
      </trkpt>
      <trkpt lat="44.40491" lon="5.84166">
        <ele>935</ele>
        <time>2019-06-15T07:57:37Z</time>
      </trkpt>
      <trkpt lat="44.40495" lon="5.8417">
        <ele>935</ele>
        <time>2019-06-15T07:57:38Z</time>
      </trkpt>
      <trkpt lat="44.40499" lon="5.84173">
        <ele>936</ele>
        <time>2019-06-15T07:57:39Z</time>
      </trkpt>
      <trkpt lat="44.40503" lon="5.84176">
        <ele>937</ele>
        <time>2019-06-15T07:57:40Z</time>
      </trkpt>
      <trkpt lat="44.40507" lon="5.84179">
        <ele>938</ele>
        <time>2019-06-15T07:57:41Z</time>
      </trkpt>
      <trkpt lat="44.4051" lon="5.84181">
        <ele>938</ele>
        <time>2019-06-15T07:57:42Z</time>
      </trkpt>
      <trkpt lat="44.40513" lon="5.84185">
        <ele>939</ele>
        <time>2019-06-15T07:57:43Z</time>
      </trkpt>
      <trkpt lat="44.40516" lon="5.84188">
        <ele>940</ele>
        <time>2019-06-15T07:57:44Z</time>
      </trkpt>
      <trkpt lat="44.40519" lon="5.84191">
        <ele>941</ele>
        <time>2019-06-15T07:57:45Z</time>
      </trkpt>
      <trkpt lat="44.40523" lon="5.84195">
        <ele>941</ele>
        <time>2019-06-15T07:57:46Z</time>
      </trkpt>
      <trkpt lat="44.40526" lon="5.84198">
        <ele>942</ele>
        <time>2019-06-15T07:57:47Z</time>
      </trkpt>
      <trkpt lat="44.40529" lon="5.842">
        <ele>942</ele>
        <time>2019-06-15T07:57:48Z</time>
      </trkpt>
      <trkpt lat="44.40533" lon="5.84203">
        <ele>943</ele>
        <time>2019-06-15T07:57:49Z</time>
      </trkpt>
      <trkpt lat="44.40536" lon="5.84205">
        <ele>943</ele>
        <time>2019-06-15T07:57:50Z</time>
      </trkpt>
      <trkpt lat="44.40539" lon="5.84208">
        <ele>944</ele>
        <time>2019-06-15T07:57:51Z</time>
      </trkpt>
      <trkpt lat="44.40543" lon="5.84211">
        <ele>945</ele>
        <time>2019-06-15T07:57:52Z</time>
      </trkpt>
      <trkpt lat="44.40546" lon="5.84213">
        <ele>946</ele>
        <time>2019-06-15T07:57:53Z</time>
      </trkpt>
      <trkpt lat="44.40548" lon="5.84214">
        <ele>947</ele>
        <time>2019-06-15T07:57:54Z</time>
      </trkpt>
      <trkpt lat="44.40552" lon="5.84216">
        <ele>947</ele>
        <time>2019-06-15T07:57:55Z</time>
      </trkpt>
      <trkpt lat="44.40556" lon="5.84218">
        <ele>948</ele>
        <time>2019-06-15T07:57:56Z</time>
      </trkpt>
      <trkpt lat="44.4056" lon="5.8422">
        <ele>948</ele>
        <time>2019-06-15T07:57:57Z</time>
      </trkpt>
      <trkpt lat="44.40565" lon="5.84221">
        <ele>948</ele>
        <time>2019-06-15T07:57:58Z</time>
      </trkpt>
      <trkpt lat="44.4057" lon="5.84223">
        <ele>948</ele>
        <time>2019-06-15T07:57:59Z</time>
      </trkpt>
      <trkpt lat="44.40574" lon="5.84223">
        <ele>948</ele>
        <time>2019-06-15T07:58:00Z</time>
      </trkpt>
      <trkpt lat="44.40579" lon="5.84223">
        <ele>948</ele>
        <time>2019-06-15T07:58:01Z</time>
      </trkpt>
      <trkpt lat="44.40584" lon="5.84222">
        <ele>948</ele>
        <time>2019-06-15T07:58:02Z</time>
      </trkpt>
      <trkpt lat="44.40589" lon="5.8422">
        <ele>948</ele>
        <time>2019-06-15T07:58:03Z</time>
      </trkpt>
      <trkpt lat="44.40595" lon="5.84217">
        <ele>948</ele>
        <time>2019-06-15T07:58:04Z</time>
      </trkpt>
      <trkpt lat="44.40601" lon="5.84213">
        <ele>948</ele>
        <time>2019-06-15T07:58:05Z</time>
      </trkpt>
      <trkpt lat="44.40606" lon="5.84209">
        <ele>948</ele>
        <time>2019-06-15T07:58:06Z</time>
      </trkpt>
      <trkpt lat="44.40611" lon="5.84204">
        <ele>948</ele>
        <time>2019-06-15T07:58:07Z</time>
      </trkpt>
      <trkpt lat="44.40616" lon="5.84198">
        <ele>948</ele>
        <time>2019-06-15T07:58:08Z</time>
      </trkpt>
      <trkpt lat="44.40621" lon="5.84192">
        <ele>948</ele>
        <time>2019-06-15T07:58:09Z</time>
      </trkpt>
      <trkpt lat="44.40626" lon="5.84185">
        <ele>948</ele>
        <time>2019-06-15T07:58:10Z</time>
      </trkpt>
      <trkpt lat="44.40631" lon="5.84178">
        <ele>947</ele>
        <time>2019-06-15T07:58:11Z</time>
      </trkpt>
      <trkpt lat="44.40636" lon="5.84171">
        <ele>947</ele>
        <time>2019-06-15T07:58:12Z</time>
      </trkpt>
      <trkpt lat="44.40641" lon="5.84163">
        <ele>946</ele>
        <time>2019-06-15T07:58:13Z</time>
      </trkpt>
      <trkpt lat="44.40647" lon="5.84155">
        <ele>945</ele>
        <time>2019-06-15T07:58:14Z</time>
      </trkpt>
      <trkpt lat="44.40653" lon="5.84148">
        <ele>944</ele>
        <time>2019-06-15T07:58:15Z</time>
      </trkpt>
      <trkpt lat="44.40659" lon="5.8414">
        <ele>943</ele>
        <time>2019-06-15T07:58:16Z</time>
      </trkpt>
      <trkpt lat="44.40665" lon="5.84132">
        <ele>942</ele>
        <time>2019-06-15T07:58:17Z</time>
      </trkpt>
      <trkpt lat="44.40672" lon="5.84124">
        <ele>941</ele>
        <time>2019-06-15T07:58:18Z</time>
      </trkpt>
      <trkpt lat="44.40677" lon="5.84116">
        <ele>940</ele>
        <time>2019-06-15T07:58:19Z</time>
      </trkpt>
      <trkpt lat="44.40684" lon="5.84109">
        <ele>940</ele>
        <time>2019-06-15T07:58:20Z</time>
      </trkpt>
      <trkpt lat="44.40689" lon="5.84102">
        <ele>939</ele>
        <time>2019-06-15T07:58:21Z</time>
      </trkpt>
      <trkpt lat="44.40695" lon="5.84095">
        <ele>939</ele>
        <time>2019-06-15T07:58:22Z</time>
      </trkpt>
      <trkpt lat="44.40701" lon="5.84089">
        <ele>939</ele>
        <time>2019-06-15T07:58:23Z</time>
      </trkpt>
      <trkpt lat="44.40708" lon="5.84083">
        <ele>939</ele>
        <time>2019-06-15T07:58:24Z</time>
      </trkpt>
      <trkpt lat="44.40715" lon="5.84078">
        <ele>938</ele>
        <time>2019-06-15T07:58:25Z</time>
      </trkpt>
      <trkpt lat="44.40722" lon="5.84074">
        <ele>938</ele>
        <time>2019-06-15T07:58:26Z</time>
      </trkpt>
      <trkpt lat="44.40731" lon="5.84071">
        <ele>938</ele>
        <time>2019-06-15T07:58:27Z</time>
      </trkpt>
      <trkpt lat="44.40739" lon="5.84068">
        <ele>937</ele>
        <time>2019-06-15T07:58:28Z</time>
      </trkpt>
      <trkpt lat="44.40747" lon="5.84066">
        <ele>937</ele>
        <time>2019-06-15T07:58:29Z</time>
      </trkpt>
      <trkpt lat="44.40756" lon="5.84064">
        <ele>937</ele>
        <time>2019-06-15T07:58:30Z</time>
      </trkpt>
      <trkpt lat="44.40765" lon="5.84062">
        <ele>937</ele>
        <time>2019-06-15T07:58:31Z</time>
      </trkpt>
      <trkpt lat="44.40773" lon="5.8406">
        <ele>936</ele>
        <time>2019-06-15T07:58:32Z</time>
      </trkpt>
      <trkpt lat="44.40782" lon="5.84058">
        <ele>936</ele>
        <time>2019-06-15T07:58:33Z</time>
      </trkpt>
      <trkpt lat="44.4079" lon="5.84056">
        <ele>936</ele>
        <time>2019-06-15T07:58:34Z</time>
      </trkpt>
      <trkpt lat="44.40798" lon="5.84054">
        <ele>936</ele>
        <time>2019-06-15T07:58:35Z</time>
      </trkpt>
      <trkpt lat="44.40805" lon="5.84052">
        <ele>935</ele>
        <time>2019-06-15T07:58:36Z</time>
      </trkpt>
      <trkpt lat="44.40813" lon="5.84051">
        <ele>935</ele>
        <time>2019-06-15T07:58:37Z</time>
      </trkpt>
      <trkpt lat="44.4082" lon="5.8405">
        <ele>935</ele>
        <time>2019-06-15T07:58:38Z</time>
      </trkpt>
      <trkpt lat="44.40827" lon="5.84049">
        <ele>934</ele>
        <time>2019-06-15T07:58:39Z</time>
      </trkpt>
      <trkpt lat="44.40834" lon="5.84048">
        <ele>934</ele>
        <time>2019-06-15T07:58:40Z</time>
      </trkpt>
      <trkpt lat="44.40841" lon="5.84047">
        <ele>933</ele>
        <time>2019-06-15T07:58:41Z</time>
      </trkpt>
      <trkpt lat="44.40847" lon="5.84045">
        <ele>933</ele>
        <time>2019-06-15T07:58:42Z</time>
      </trkpt>
      <trkpt lat="44.40854" lon="5.84044">
        <ele>933</ele>
        <time>2019-06-15T07:58:43Z</time>
      </trkpt>
      <trkpt lat="44.4086" lon="5.84043">
        <ele>932</ele>
        <time>2019-06-15T07:58:44Z</time>
      </trkpt>
      <trkpt lat="44.40866" lon="5.84041">
        <ele>932</ele>
        <time>2019-06-15T07:58:45Z</time>
      </trkpt>
      <trkpt lat="44.40873" lon="5.8404">
        <ele>932</ele>
        <time>2019-06-15T07:58:46Z</time>
      </trkpt>
      <trkpt lat="44.40879" lon="5.84038">
        <ele>932</ele>
        <time>2019-06-15T07:58:47Z</time>
      </trkpt>
      <trkpt lat="44.40885" lon="5.84037">
        <ele>931</ele>
        <time>2019-06-15T07:58:48Z</time>
      </trkpt>
      <trkpt lat="44.40891" lon="5.84036">
        <ele>931</ele>
        <time>2019-06-15T07:58:49Z</time>
      </trkpt>
      <trkpt lat="44.40897" lon="5.84034">
        <ele>931</ele>
        <time>2019-06-15T07:58:50Z</time>
      </trkpt>
      <trkpt lat="44.40903" lon="5.84034">
        <ele>930</ele>
        <time>2019-06-15T07:58:51Z</time>
      </trkpt>
      <trkpt lat="44.40909" lon="5.84032">
        <ele>930</ele>
        <time>2019-06-15T07:58:52Z</time>
      </trkpt>
      <trkpt lat="44.40915" lon="5.84031">
        <ele>930</ele>
        <time>2019-06-15T07:58:53Z</time>
      </trkpt>
      <trkpt lat="44.4092" lon="5.8403">
        <ele>930</ele>
        <time>2019-06-15T07:58:54Z</time>
      </trkpt>
      <trkpt lat="44.40925" lon="5.84029">
        <ele>930</ele>
        <time>2019-06-15T07:58:55Z</time>
      </trkpt>
      <trkpt lat="44.40929" lon="5.84028">
        <ele>930</ele>
        <time>2019-06-15T07:58:56Z</time>
      </trkpt>
      <trkpt lat="44.40933" lon="5.84027">
        <ele>930</ele>
        <time>2019-06-15T07:58:57Z</time>
      </trkpt>
      <trkpt lat="44.40936" lon="5.84027">
        <ele>930</ele>
        <time>2019-06-15T07:58:58Z</time>
      </trkpt>
      <trkpt lat="44.40938" lon="5.84026">
        <ele>930</ele>
        <time>2019-06-15T07:58:59Z</time>
      </trkpt>
      <trkpt lat="44.40938" lon="5.84028">
        <ele>930</ele>
        <time>2019-06-15T07:59:12Z</time>
      </trkpt>
      <trkpt lat="44.40939" lon="5.84029">
        <ele>931</ele>
        <time>2019-06-15T07:59:20Z</time>
      </trkpt>
      <trkpt lat="44.4094" lon="5.84029">
        <ele>932</ele>
        <time>2019-06-15T07:59:32Z</time>
      </trkpt>
      <trkpt lat="44.40939" lon="5.84029">
        <ele>933</ele>
        <time>2019-06-15T07:59:44Z</time>
      </trkpt>
      <trkpt lat="44.40938" lon="5.84028">
        <ele>933</ele>
        <time>2019-06-15T07:59:46Z</time>
      </trkpt>
      <trkpt lat="44.40937" lon="5.84028">
        <ele>933</ele>
        <time>2019-06-15T07:59:50Z</time>
      </trkpt>
      <trkpt lat="44.40935" lon="5.84029">
        <ele>933</ele>
        <time>2019-06-15T07:59:58Z</time>
      </trkpt>
      <trkpt lat="44.40935" lon="5.84031">
        <ele>935</ele>
        <time>2019-06-15T08:00:14Z</time>
      </trkpt>
      <trkpt lat="44.40935" lon="5.84032">
        <ele>937</ele>
        <time>2019-06-15T08:00:23Z</time>
      </trkpt>
      <trkpt lat="44.40936" lon="5.84031">
        <ele>937</ele>
        <time>2019-06-15T08:00:47Z</time>
      </trkpt>
      <trkpt lat="44.40936" lon="5.84029">
        <ele>937</ele>
        <time>2019-06-15T08:00:54Z</time>
      </trkpt>
      <trkpt lat="44.40937" lon="5.84029">
        <ele>937</ele>
        <time>2019-06-15T08:01:28Z</time>
      </trkpt>
      <trkpt lat="44.40938" lon="5.84028">
        <ele>937</ele>
        <time>2019-06-15T08:01:41Z</time>
      </trkpt>
      <trkpt lat="44.40939" lon="5.84028">
        <ele>935</ele>
        <time>2019-06-15T08:01:54Z</time>
      </trkpt>
      <trkpt lat="44.40939" lon="5.84029">
        <ele>935</ele>
        <time>2019-06-15T08:01:59Z</time>
      </trkpt>
      <trkpt lat="44.40939" lon="5.84031">
        <ele>935</ele>
        <time>2019-06-15T08:02:16Z</time>
      </trkpt>
      <trkpt lat="44.4094" lon="5.84027">
        <ele>935</ele>
        <time>2019-06-15T08:02:26Z</time>
      </trkpt>
      <trkpt lat="44.40941" lon="5.84025">
        <ele>935</ele>
        <time>2019-06-15T08:02:27Z</time>
      </trkpt>
      <trkpt lat="44.40944" lon="5.84023">
        <ele>935</ele>
        <time>2019-06-15T08:02:28Z</time>
      </trkpt>
      <trkpt lat="44.40947" lon="5.84021">
        <ele>935</ele>
        <time>2019-06-15T08:02:29Z</time>
      </trkpt>
      <trkpt lat="44.4095" lon="5.84019">
        <ele>935</ele>
        <time>2019-06-15T08:02:30Z</time>
      </trkpt>
      <trkpt lat="44.40952" lon="5.84017">
        <ele>935</ele>
        <time>2019-06-15T08:02:31Z</time>
      </trkpt>
      <trkpt lat="44.40956" lon="5.84014">
        <ele>935</ele>
        <time>2019-06-15T08:02:32Z</time>
      </trkpt>
      <trkpt lat="44.4096" lon="5.84009">
        <ele>935</ele>
        <time>2019-06-15T08:02:33Z</time>
      </trkpt>
      <trkpt lat="44.40966" lon="5.84005">
        <ele>935</ele>
        <time>2019-06-15T08:02:34Z</time>
      </trkpt>
      <trkpt lat="44.40971" lon="5.84001">
        <ele>935</ele>
        <time>2019-06-15T08:02:35Z</time>
      </trkpt>
      <trkpt lat="44.40978" lon="5.83997">
        <ele>934</ele>
        <time>2019-06-15T08:02:36Z</time>
      </trkpt>
      <trkpt lat="44.40986" lon="5.83993">
        <ele>933</ele>
        <time>2019-06-15T08:02:37Z</time>
      </trkpt>
      <trkpt lat="44.40993" lon="5.83989">
        <ele>933</ele>
        <time>2019-06-15T08:02:38Z</time>
      </trkpt>
      <trkpt lat="44.41001" lon="5.83987">
        <ele>932</ele>
        <time>2019-06-15T08:02:39Z</time>
      </trkpt>
      <trkpt lat="44.41009" lon="5.83984">
        <ele>931</ele>
        <time>2019-06-15T08:02:40Z</time>
      </trkpt>
      <trkpt lat="44.41016" lon="5.83981">
        <ele>930</ele>
        <time>2019-06-15T08:02:41Z</time>
      </trkpt>
      <trkpt lat="44.41025" lon="5.83977">
        <ele>929</ele>
        <time>2019-06-15T08:02:42Z</time>
      </trkpt>
      <trkpt lat="44.41033" lon="5.83972">
        <ele>928</ele>
        <time>2019-06-15T08:02:43Z</time>
      </trkpt>
      <trkpt lat="44.41042" lon="5.83968">
        <ele>927</ele>
        <time>2019-06-15T08:02:44Z</time>
      </trkpt>
      <trkpt lat="44.4105" lon="5.83963">
        <ele>926</ele>
        <time>2019-06-15T08:02:45Z</time>
      </trkpt>
      <trkpt lat="44.41057" lon="5.83957">
        <ele>925</ele>
        <time>2019-06-15T08:02:46Z</time>
      </trkpt>
      <trkpt lat="44.41065" lon="5.83954">
        <ele>924</ele>
        <time>2019-06-15T08:02:47Z</time>
      </trkpt>
      <trkpt lat="44.41073" lon="5.83952">
        <ele>923</ele>
        <time>2019-06-15T08:02:48Z</time>
      </trkpt>
      <trkpt lat="44.41081" lon="5.83952">
        <ele>922</ele>
        <time>2019-06-15T08:02:49Z</time>
      </trkpt>
      <trkpt lat="44.41088" lon="5.83951">
        <ele>921</ele>
        <time>2019-06-15T08:02:50Z</time>
      </trkpt>
      <trkpt lat="44.41095" lon="5.83947">
        <ele>920</ele>
        <time>2019-06-15T08:02:51Z</time>
      </trkpt>
      <trkpt lat="44.41102" lon="5.8394">
        <ele>919</ele>
        <time>2019-06-15T08:02:52Z</time>
      </trkpt>
      <trkpt lat="44.41108" lon="5.83932">
        <ele>918</ele>
        <time>2019-06-15T08:02:53Z</time>
      </trkpt>
      <trkpt lat="44.41116" lon="5.83925">
        <ele>917</ele>
        <time>2019-06-15T08:02:54Z</time>
      </trkpt>
      <trkpt lat="44.41123" lon="5.8392">
        <ele>916</ele>
        <time>2019-06-15T08:02:55Z</time>
      </trkpt>
      <trkpt lat="44.4113" lon="5.83917">
        <ele>916</ele>
        <time>2019-06-15T08:02:56Z</time>
      </trkpt>
      <trkpt lat="44.41138" lon="5.83917">
        <ele>915</ele>
        <time>2019-06-15T08:02:57Z</time>
      </trkpt>
      <trkpt lat="44.41146" lon="5.83919">
        <ele>914</ele>
        <time>2019-06-15T08:02:58Z</time>
      </trkpt>
      <trkpt lat="44.41155" lon="5.83921">
        <ele>914</ele>
        <time>2019-06-15T08:02:59Z</time>
      </trkpt>
      <trkpt lat="44.41162" lon="5.83922">
        <ele>913</ele>
        <time>2019-06-15T08:03:00Z</time>
      </trkpt>
      <trkpt lat="44.41171" lon="5.83923">
        <ele>912</ele>
        <time>2019-06-15T08:03:01Z</time>
      </trkpt>
      <trkpt lat="44.41178" lon="5.83926">
        <ele>912</ele>
        <time>2019-06-15T08:03:02Z</time>
      </trkpt>
      <trkpt lat="44.41185" lon="5.83928">
        <ele>911</ele>
        <time>2019-06-15T08:03:03Z</time>
      </trkpt>
      <trkpt lat="44.41194" lon="5.83929">
        <ele>910</ele>
        <time>2019-06-15T08:03:04Z</time>
      </trkpt>
      <trkpt lat="44.41202" lon="5.83925">
        <ele>910</ele>
        <time>2019-06-15T08:03:05Z</time>
      </trkpt>
      <trkpt lat="44.4121" lon="5.83921">
        <ele>909</ele>
        <time>2019-06-15T08:03:06Z</time>
      </trkpt>
      <trkpt lat="44.41219" lon="5.83919">
        <ele>909</ele>
        <time>2019-06-15T08:03:07Z</time>
      </trkpt>
      <trkpt lat="44.41228" lon="5.83918">
        <ele>908</ele>
        <time>2019-06-15T08:03:08Z</time>
      </trkpt>
      <trkpt lat="44.41236" lon="5.83918">
        <ele>908</ele>
        <time>2019-06-15T08:03:09Z</time>
      </trkpt>
      <trkpt lat="44.41245" lon="5.83916">
        <ele>907</ele>
        <time>2019-06-15T08:03:10Z</time>
      </trkpt>
      <trkpt lat="44.41253" lon="5.83912">
        <ele>906</ele>
        <time>2019-06-15T08:03:11Z</time>
      </trkpt>
      <trkpt lat="44.41261" lon="5.83908">
        <ele>905</ele>
        <time>2019-06-15T08:03:12Z</time>
      </trkpt>
      <trkpt lat="44.41268" lon="5.83902">
        <ele>904</ele>
        <time>2019-06-15T08:03:13Z</time>
      </trkpt>
      <trkpt lat="44.41274" lon="5.83895">
        <ele>903</ele>
        <time>2019-06-15T08:03:14Z</time>
      </trkpt>
      <trkpt lat="44.41277" lon="5.83885">
        <ele>902</ele>
        <time>2019-06-15T08:03:15Z</time>
      </trkpt>
      <trkpt lat="44.41281" lon="5.83874">
        <ele>901</ele>
        <time>2019-06-15T08:03:16Z</time>
      </trkpt>
      <trkpt lat="44.41285" lon="5.83863">
        <ele>900</ele>
        <time>2019-06-15T08:03:17Z</time>
      </trkpt>
      <trkpt lat="44.41291" lon="5.83853">
        <ele>899</ele>
        <time>2019-06-15T08:03:18Z</time>
      </trkpt>
      <trkpt lat="44.41296" lon="5.83843">
        <ele>898</ele>
        <time>2019-06-15T08:03:19Z</time>
      </trkpt>
      <trkpt lat="44.41302" lon="5.83833">
        <ele>897</ele>
        <time>2019-06-15T08:03:20Z</time>
      </trkpt>
      <trkpt lat="44.41306" lon="5.83821">
        <ele>896</ele>
        <time>2019-06-15T08:03:21Z</time>
      </trkpt>
      <trkpt lat="44.41312" lon="5.83809">
        <ele>895</ele>
        <time>2019-06-15T08:03:22Z</time>
      </trkpt>
      <trkpt lat="44.41317" lon="5.83797">
        <ele>894</ele>
        <time>2019-06-15T08:03:23Z</time>
      </trkpt>
      <trkpt lat="44.41324" lon="5.83786">
        <ele>893</ele>
        <time>2019-06-15T08:03:24Z</time>
      </trkpt>
      <trkpt lat="44.4133" lon="5.83775">
        <ele>892</ele>
        <time>2019-06-15T08:03:25Z</time>
      </trkpt>
      <trkpt lat="44.41336" lon="5.83765">
        <ele>891</ele>
        <time>2019-06-15T08:03:26Z</time>
      </trkpt>
      <trkpt lat="44.4134" lon="5.83754">
        <ele>890</ele>
        <time>2019-06-15T08:03:27Z</time>
      </trkpt>
      <trkpt lat="44.41342" lon="5.83743">
        <ele>889</ele>
        <time>2019-06-15T08:03:28Z</time>
      </trkpt>
      <trkpt lat="44.41343" lon="5.83733">
        <ele>888</ele>
        <time>2019-06-15T08:03:29Z</time>
      </trkpt>
      <trkpt lat="44.41341" lon="5.83723">
        <ele>887</ele>
        <time>2019-06-15T08:03:30Z</time>
      </trkpt>
      <trkpt lat="44.41338" lon="5.83713">
        <ele>886</ele>
        <time>2019-06-15T08:03:31Z</time>
      </trkpt>
      <trkpt lat="44.41334" lon="5.83703">
        <ele>885</ele>
        <time>2019-06-15T08:03:32Z</time>
      </trkpt>
      <trkpt lat="44.41332" lon="5.83692">
        <ele>884</ele>
        <time>2019-06-15T08:03:33Z</time>
      </trkpt>
      <trkpt lat="44.41331" lon="5.8368">
        <ele>883</ele>
        <time>2019-06-15T08:03:34Z</time>
      </trkpt>
      <trkpt lat="44.41332" lon="5.83669">
        <ele>882</ele>
        <time>2019-06-15T08:03:35Z</time>
      </trkpt>
      <trkpt lat="44.41337" lon="5.8366">
        <ele>881</ele>
        <time>2019-06-15T08:03:36Z</time>
      </trkpt>
      <trkpt lat="44.41344" lon="5.83653">
        <ele>880</ele>
        <time>2019-06-15T08:03:37Z</time>
      </trkpt>
      <trkpt lat="44.41351" lon="5.83647">
        <ele>879</ele>
        <time>2019-06-15T08:03:38Z</time>
      </trkpt>
      <trkpt lat="44.41357" lon="5.83639">
        <ele>878</ele>
        <time>2019-06-15T08:03:39Z</time>
      </trkpt>
      <trkpt lat="44.41362" lon="5.8363">
        <ele>877</ele>
        <time>2019-06-15T08:03:40Z</time>
      </trkpt>
      <trkpt lat="44.41365" lon="5.83619">
        <ele>876</ele>
        <time>2019-06-15T08:03:41Z</time>
      </trkpt>
      <trkpt lat="44.41367" lon="5.83607">
        <ele>875</ele>
        <time>2019-06-15T08:03:42Z</time>
      </trkpt>
      <trkpt lat="44.41369" lon="5.83596">
        <ele>874</ele>
        <time>2019-06-15T08:03:43Z</time>
      </trkpt>
      <trkpt lat="44.41371" lon="5.83583">
        <ele>873</ele>
        <time>2019-06-15T08:03:44Z</time>
      </trkpt>
      <trkpt lat="44.41374" lon="5.8357">
        <ele>872</ele>
        <time>2019-06-15T08:03:45Z</time>
      </trkpt>
      <trkpt lat="44.41377" lon="5.83558">
        <ele>871</ele>
        <time>2019-06-15T08:03:46Z</time>
      </trkpt>
      <trkpt lat="44.41379" lon="5.83546">
        <ele>870</ele>
        <time>2019-06-15T08:03:47Z</time>
      </trkpt>
      <trkpt lat="44.4138" lon="5.83536">
        <ele>869</ele>
        <time>2019-06-15T08:03:48Z</time>
      </trkpt>
      <trkpt lat="44.41383" lon="5.83527">
        <ele>868</ele>
        <time>2019-06-15T08:03:49Z</time>
      </trkpt>
      <trkpt lat="44.41386" lon="5.8352">
        <ele>867</ele>
        <time>2019-06-15T08:03:50Z</time>
      </trkpt>
      <trkpt lat="44.41392" lon="5.83515">
        <ele>866</ele>
        <time>2019-06-15T08:03:51Z</time>
      </trkpt>
      <trkpt lat="44.41399" lon="5.83514">
        <ele>865</ele>
        <time>2019-06-15T08:03:52Z</time>
      </trkpt>
      <trkpt lat="44.41407" lon="5.83516">
        <ele>865</ele>
        <time>2019-06-15T08:03:53Z</time>
      </trkpt>
      <trkpt lat="44.41417" lon="5.8352">
        <ele>864</ele>
        <time>2019-06-15T08:03:54Z</time>
      </trkpt>
      <trkpt lat="44.41425" lon="5.83522">
        <ele>863</ele>
        <time>2019-06-15T08:03:55Z</time>
      </trkpt>
      <trkpt lat="44.41433" lon="5.83525">
        <ele>863</ele>
        <time>2019-06-15T08:03:56Z</time>
      </trkpt>
      <trkpt lat="44.41441" lon="5.83526">
        <ele>862</ele>
        <time>2019-06-15T08:03:57Z</time>
      </trkpt>
      <trkpt lat="44.4145" lon="5.83526">
        <ele>862</ele>
        <time>2019-06-15T08:03:58Z</time>
      </trkpt>
      <trkpt lat="44.41458" lon="5.83524">
        <ele>861</ele>
        <time>2019-06-15T08:03:59Z</time>
      </trkpt>
      <trkpt lat="44.41467" lon="5.83521">
        <ele>860</ele>
        <time>2019-06-15T08:04:00Z</time>
      </trkpt>
      <trkpt lat="44.41476" lon="5.83518">
        <ele>860</ele>
        <time>2019-06-15T08:04:01Z</time>
      </trkpt>
      <trkpt lat="44.41485" lon="5.83516">
        <ele>859</ele>
        <time>2019-06-15T08:04:02Z</time>
      </trkpt>
      <trkpt lat="44.41494" lon="5.83514">
        <ele>858</ele>
        <time>2019-06-15T08:04:03Z</time>
      </trkpt>
      <trkpt lat="44.41503" lon="5.83514">
        <ele>857</ele>
        <time>2019-06-15T08:04:04Z</time>
      </trkpt>
      <trkpt lat="44.41512" lon="5.83516">
        <ele>857</ele>
        <time>2019-06-15T08:04:05Z</time>
      </trkpt>
      <trkpt lat="44.4152" lon="5.83521">
        <ele>856</ele>
        <time>2019-06-15T08:04:06Z</time>
      </trkpt>
      <trkpt lat="44.41528" lon="5.83526">
        <ele>855</ele>
        <time>2019-06-15T08:04:07Z</time>
      </trkpt>
      <trkpt lat="44.41534" lon="5.83531">
        <ele>854</ele>
        <time>2019-06-15T08:04:08Z</time>
      </trkpt>
      <trkpt lat="44.41541" lon="5.83533">
        <ele>853</ele>
        <time>2019-06-15T08:04:09Z</time>
      </trkpt>
      <trkpt lat="44.41547" lon="5.83532">
        <ele>852</ele>
        <time>2019-06-15T08:04:10Z</time>
      </trkpt>
      <trkpt lat="44.41551" lon="5.83529">
        <ele>852</ele>
        <time>2019-06-15T08:04:11Z</time>
      </trkpt>
      <trkpt lat="44.41555" lon="5.83522">
        <ele>851</ele>
        <time>2019-06-15T08:04:12Z</time>
      </trkpt>
      <trkpt lat="44.41554" lon="5.83512">
        <ele>851</ele>
        <time>2019-06-15T08:04:13Z</time>
      </trkpt>
      <trkpt lat="44.41553" lon="5.83504">
        <ele>851</ele>
        <time>2019-06-15T08:04:14Z</time>
      </trkpt>
      <trkpt lat="44.4155" lon="5.83497">
        <ele>851</ele>
        <time>2019-06-15T08:04:15Z</time>
      </trkpt>
      <trkpt lat="44.41548" lon="5.8349">
        <ele>851</ele>
        <time>2019-06-15T08:04:16Z</time>
      </trkpt>
      <trkpt lat="44.41545" lon="5.83482">
        <ele>851</ele>
        <time>2019-06-15T08:04:17Z</time>
      </trkpt>
      <trkpt lat="44.41542" lon="5.83474">
        <ele>851</ele>
        <time>2019-06-15T08:04:18Z</time>
      </trkpt>
      <trkpt lat="44.41539" lon="5.83466">
        <ele>850</ele>
        <time>2019-06-15T08:04:19Z</time>
      </trkpt>
      <trkpt lat="44.41536" lon="5.83458">
        <ele>850</ele>
        <time>2019-06-15T08:04:20Z</time>
      </trkpt>
      <trkpt lat="44.41534" lon="5.83449">
        <ele>849</ele>
        <time>2019-06-15T08:04:21Z</time>
      </trkpt>
      <trkpt lat="44.41532" lon="5.83439">
        <ele>849</ele>
        <time>2019-06-15T08:04:22Z</time>
      </trkpt>
      <trkpt lat="44.41531" lon="5.8343">
        <ele>849</ele>
        <time>2019-06-15T08:04:23Z</time>
      </trkpt>
      <trkpt lat="44.41529" lon="5.8342">
        <ele>848</ele>
        <time>2019-06-15T08:04:24Z</time>
      </trkpt>
      <trkpt lat="44.41528" lon="5.83409">
        <ele>848</ele>
        <time>2019-06-15T08:04:25Z</time>
      </trkpt>
      <trkpt lat="44.41526" lon="5.83399">
        <ele>848</ele>
        <time>2019-06-15T08:04:26Z</time>
      </trkpt>
      <trkpt lat="44.41523" lon="5.8339">
        <ele>848</ele>
        <time>2019-06-15T08:04:27Z</time>
      </trkpt>
      <trkpt lat="44.41519" lon="5.83382">
        <ele>847</ele>
        <time>2019-06-15T08:04:28Z</time>
      </trkpt>
      <trkpt lat="44.41514" lon="5.83374">
        <ele>847</ele>
        <time>2019-06-15T08:04:29Z</time>
      </trkpt>
      <trkpt lat="44.41509" lon="5.83366">
        <ele>847</ele>
        <time>2019-06-15T08:04:30Z</time>
      </trkpt>
      <trkpt lat="44.41504" lon="5.83358">
        <ele>847</ele>
        <time>2019-06-15T08:04:31Z</time>
      </trkpt>
      <trkpt lat="44.41499" lon="5.8335">
        <ele>847</ele>
        <time>2019-06-15T08:04:32Z</time>
      </trkpt>
      <trkpt lat="44.41493" lon="5.83342">
        <ele>847</ele>
        <time>2019-06-15T08:04:33Z</time>
      </trkpt>
      <trkpt lat="44.41488" lon="5.83333">
        <ele>847</ele>
        <time>2019-06-15T08:04:34Z</time>
      </trkpt>
      <trkpt lat="44.41483" lon="5.83323">
        <ele>846</ele>
        <time>2019-06-15T08:04:35Z</time>
      </trkpt>
      <trkpt lat="44.4148" lon="5.83312">
        <ele>846</ele>
        <time>2019-06-15T08:04:36Z</time>
      </trkpt>
      <trkpt lat="44.41478" lon="5.83299">
        <ele>845</ele>
        <time>2019-06-15T08:04:37Z</time>
      </trkpt>
      <trkpt lat="44.41478" lon="5.83286">
        <ele>845</ele>
        <time>2019-06-15T08:04:38Z</time>
      </trkpt>
      <trkpt lat="44.41478" lon="5.83273">
        <ele>844</ele>
        <time>2019-06-15T08:04:39Z</time>
      </trkpt>
      <trkpt lat="44.41478" lon="5.83258">
        <ele>843</ele>
        <time>2019-06-15T08:04:40Z</time>
      </trkpt>
      <trkpt lat="44.41479" lon="5.83245">
        <ele>842</ele>
        <time>2019-06-15T08:04:41Z</time>
      </trkpt>
      <trkpt lat="44.41481" lon="5.83231">
        <ele>841</ele>
        <time>2019-06-15T08:04:42Z</time>
      </trkpt>
      <trkpt lat="44.41483" lon="5.83217">
        <ele>841</ele>
        <time>2019-06-15T08:04:43Z</time>
      </trkpt>
      <trkpt lat="44.41486" lon="5.83204">
        <ele>840</ele>
        <time>2019-06-15T08:04:44Z</time>
      </trkpt>
      <trkpt lat="44.41491" lon="5.83192">
        <ele>839</ele>
        <time>2019-06-15T08:04:45Z</time>
      </trkpt>
      <trkpt lat="44.41497" lon="5.83181">
        <ele>838</ele>
        <time>2019-06-15T08:04:46Z</time>
      </trkpt>
      <trkpt lat="44.41503" lon="5.83171">
        <ele>838</ele>
        <time>2019-06-15T08:04:47Z</time>
      </trkpt>
      <trkpt lat="44.4151" lon="5.8316">
        <ele>837</ele>
        <time>2019-06-15T08:04:48Z</time>
      </trkpt>
      <trkpt lat="44.41517" lon="5.8315">
        <ele>836</ele>
        <time>2019-06-15T08:04:49Z</time>
      </trkpt>
      <trkpt lat="44.41524" lon="5.83141">
        <ele>835</ele>
        <time>2019-06-15T08:04:50Z</time>
      </trkpt>
      <trkpt lat="44.41532" lon="5.83132">
        <ele>835</ele>
        <time>2019-06-15T08:04:51Z</time>
      </trkpt>
      <trkpt lat="44.41539" lon="5.83124">
        <ele>834</ele>
        <time>2019-06-15T08:04:52Z</time>
      </trkpt>
      <trkpt lat="44.41547" lon="5.83117">
        <ele>833</ele>
        <time>2019-06-15T08:04:53Z</time>
      </trkpt>
      <trkpt lat="44.41555" lon="5.8311">
        <ele>832</ele>
        <time>2019-06-15T08:04:54Z</time>
      </trkpt>
      <trkpt lat="44.41562" lon="5.83103">
        <ele>831</ele>
        <time>2019-06-15T08:04:55Z</time>
      </trkpt>
      <trkpt lat="44.41568" lon="5.83094">
        <ele>830</ele>
        <time>2019-06-15T08:04:56Z</time>
      </trkpt>
      <trkpt lat="44.41573" lon="5.83083">
        <ele>830</ele>
        <time>2019-06-15T08:04:57Z</time>
      </trkpt>
      <trkpt lat="44.41576" lon="5.83071">
        <ele>829</ele>
        <time>2019-06-15T08:04:58Z</time>
      </trkpt>
      <trkpt lat="44.41577" lon="5.83057">
        <ele>829</ele>
        <time>2019-06-15T08:04:59Z</time>
      </trkpt>
      <trkpt lat="44.41576" lon="5.83044">
        <ele>828</ele>
        <time>2019-06-15T08:05:00Z</time>
      </trkpt>
      <trkpt lat="44.41574" lon="5.83032">
        <ele>828</ele>
        <time>2019-06-15T08:05:01Z</time>
      </trkpt>
      <trkpt lat="44.41571" lon="5.83019">
        <ele>828</ele>
        <time>2019-06-15T08:05:02Z</time>
      </trkpt>
      <trkpt lat="44.41569" lon="5.83007">
        <ele>828</ele>
        <time>2019-06-15T08:05:03Z</time>
      </trkpt>
      <trkpt lat="44.41566" lon="5.82995">
        <ele>828</ele>
        <time>2019-06-15T08:05:04Z</time>
      </trkpt>
      <trkpt lat="44.41564" lon="5.82983">
        <ele>828</ele>
        <time>2019-06-15T08:05:05Z</time>
      </trkpt>
      <trkpt lat="44.41562" lon="5.82971">
        <ele>827</ele>
        <time>2019-06-15T08:05:06Z</time>
      </trkpt>
      <trkpt lat="44.41559" lon="5.82959">
        <ele>827</ele>
        <time>2019-06-15T08:05:07Z</time>
      </trkpt>
      <trkpt lat="44.41557" lon="5.82947">
        <ele>827</ele>
        <time>2019-06-15T08:05:08Z</time>
      </trkpt>
      <trkpt lat="44.41554" lon="5.82935">
        <ele>827</ele>
        <time>2019-06-15T08:05:09Z</time>
      </trkpt>
      <trkpt lat="44.41552" lon="5.82923">
        <ele>826</ele>
        <time>2019-06-15T08:05:10Z</time>
      </trkpt>
      <trkpt lat="44.4155" lon="5.8291">
        <ele>826</ele>
        <time>2019-06-15T08:05:11Z</time>
      </trkpt>
      <trkpt lat="44.41547" lon="5.82897">
        <ele>826</ele>
        <time>2019-06-15T08:05:12Z</time>
      </trkpt>
      <trkpt lat="44.41545" lon="5.82884">
        <ele>826</ele>
        <time>2019-06-15T08:05:13Z</time>
      </trkpt>
      <trkpt lat="44.41542" lon="5.82871">
        <ele>825</ele>
        <time>2019-06-15T08:05:14Z</time>
      </trkpt>
      <trkpt lat="44.4154" lon="5.82858">
        <ele>825</ele>
        <time>2019-06-15T08:05:15Z</time>
      </trkpt>
      <trkpt lat="44.41537" lon="5.82845">
        <ele>824</ele>
        <time>2019-06-15T08:05:16Z</time>
      </trkpt>
      <trkpt lat="44.41535" lon="5.82832">
        <ele>824</ele>
        <time>2019-06-15T08:05:17Z</time>
      </trkpt>
      <trkpt lat="44.41533" lon="5.82818">
        <ele>823</ele>
        <time>2019-06-15T08:05:18Z</time>
      </trkpt>
      <trkpt lat="44.4153" lon="5.82805">
        <ele>823</ele>
        <time>2019-06-15T08:05:19Z</time>
      </trkpt>
      <trkpt lat="44.41528" lon="5.82791">
        <ele>823</ele>
        <time>2019-06-15T08:05:20Z</time>
      </trkpt>
      <trkpt lat="44.41525" lon="5.82778">
        <ele>822</ele>
        <time>2019-06-15T08:05:21Z</time>
      </trkpt>
      <trkpt lat="44.41522" lon="5.82764">
        <ele>822</ele>
        <time>2019-06-15T08:05:22Z</time>
      </trkpt>
      <trkpt lat="44.4152" lon="5.8275">
        <ele>821</ele>
        <time>2019-06-15T08:05:23Z</time>
      </trkpt>
      <trkpt lat="44.41517" lon="5.82735">
        <ele>821</ele>
        <time>2019-06-15T08:05:24Z</time>
      </trkpt>
      <trkpt lat="44.41514" lon="5.8272">
        <ele>820</ele>
        <time>2019-06-15T08:05:25Z</time>
      </trkpt>
      <trkpt lat="44.41512" lon="5.82706">
        <ele>820</ele>
        <time>2019-06-15T08:05:26Z</time>
      </trkpt>
      <trkpt lat="44.41509" lon="5.8269">
        <ele>819</ele>
        <time>2019-06-15T08:05:27Z</time>
      </trkpt>
      <trkpt lat="44.41506" lon="5.82676">
        <ele>818</ele>
        <time>2019-06-15T08:05:28Z</time>
      </trkpt>
      <trkpt lat="44.41503" lon="5.8266">
        <ele>818</ele>
        <time>2019-06-15T08:05:29Z</time>
      </trkpt>
      <trkpt lat="44.41501" lon="5.82646">
        <ele>817</ele>
        <time>2019-06-15T08:05:30Z</time>
      </trkpt>
      <trkpt lat="44.41499" lon="5.82632">
        <ele>817</ele>
        <time>2019-06-15T08:05:31Z</time>
      </trkpt>
      <trkpt lat="44.41496" lon="5.82618">
        <ele>816</ele>
        <time>2019-06-15T08:05:32Z</time>
      </trkpt>
      <trkpt lat="44.41494" lon="5.82605">
        <ele>816</ele>
        <time>2019-06-15T08:05:33Z</time>
      </trkpt>
      <trkpt lat="44.41492" lon="5.82592">
        <ele>815</ele>
        <time>2019-06-15T08:05:34Z</time>
      </trkpt>
      <trkpt lat="44.41489" lon="5.82579">
        <ele>814</ele>
        <time>2019-06-15T08:05:35Z</time>
      </trkpt>
      <trkpt lat="44.41487" lon="5.82565">
        <ele>813</ele>
        <time>2019-06-15T08:05:36Z</time>
      </trkpt>
      <trkpt lat="44.41484" lon="5.82551">
        <ele>813</ele>
        <time>2019-06-15T08:05:37Z</time>
      </trkpt>
      <trkpt lat="44.41482" lon="5.82537">
        <ele>812</ele>
        <time>2019-06-15T08:05:38Z</time>
      </trkpt>
      <trkpt lat="44.41479" lon="5.82522">
        <ele>811</ele>
        <time>2019-06-15T08:05:39Z</time>
      </trkpt>
      <trkpt lat="44.41476" lon="5.82507">
        <ele>810</ele>
        <time>2019-06-15T08:05:40Z</time>
      </trkpt>
      <trkpt lat="44.41473" lon="5.82491">
        <ele>809</ele>
        <time>2019-06-15T08:05:41Z</time>
      </trkpt>
      <trkpt lat="44.4147" lon="5.82476">
        <ele>808</ele>
        <time>2019-06-15T08:05:42Z</time>
      </trkpt>
      <trkpt lat="44.41467" lon="5.8246">
        <ele>807</ele>
        <time>2019-06-15T08:05:43Z</time>
      </trkpt>
      <trkpt lat="44.41465" lon="5.82444">
        <ele>806</ele>
        <time>2019-06-15T08:05:44Z</time>
      </trkpt>
      <trkpt lat="44.41462" lon="5.82429">
        <ele>805</ele>
        <time>2019-06-15T08:05:45Z</time>
      </trkpt>
      <trkpt lat="44.41459" lon="5.82413">
        <ele>804</ele>
        <time>2019-06-15T08:05:46Z</time>
      </trkpt>
      <trkpt lat="44.41457" lon="5.82398">
        <ele>804</ele>
        <time>2019-06-15T08:05:47Z</time>
      </trkpt>
      <trkpt lat="44.41454" lon="5.82383">
        <ele>803</ele>
        <time>2019-06-15T08:05:48Z</time>
      </trkpt>
      <trkpt lat="44.41452" lon="5.82368">
        <ele>803</ele>
        <time>2019-06-15T08:05:49Z</time>
      </trkpt>
      <trkpt lat="44.41449" lon="5.82353">
        <ele>803</ele>
        <time>2019-06-15T08:05:50Z</time>
      </trkpt>
      <trkpt lat="44.41446" lon="5.82339">
        <ele>803</ele>
        <time>2019-06-15T08:05:51Z</time>
      </trkpt>
      <trkpt lat="44.41443" lon="5.82325">
        <ele>802</ele>
        <time>2019-06-15T08:05:52Z</time>
      </trkpt>
      <trkpt lat="44.41439" lon="5.82312">
        <ele>802</ele>
        <time>2019-06-15T08:05:53Z</time>
      </trkpt>
      <trkpt lat="44.41436" lon="5.823">
        <ele>802</ele>
        <time>2019-06-15T08:05:54Z</time>
      </trkpt>
      <trkpt lat="44.41431" lon="5.82289">
        <ele>802</ele>
        <time>2019-06-15T08:05:55Z</time>
      </trkpt>
      <trkpt lat="44.41427" lon="5.82279">
        <ele>802</ele>
        <time>2019-06-15T08:05:56Z</time>
      </trkpt>
      <trkpt lat="44.41423" lon="5.82269">
        <ele>802</ele>
        <time>2019-06-15T08:05:57Z</time>
      </trkpt>
      <trkpt lat="44.41418" lon="5.82259">
        <ele>802</ele>
        <time>2019-06-15T08:05:58Z</time>
      </trkpt>
      <trkpt lat="44.41413" lon="5.8225">
        <ele>802</ele>
        <time>2019-06-15T08:05:59Z</time>
      </trkpt>
      <trkpt lat="44.41408" lon="5.8224">
        <ele>802</ele>
        <time>2019-06-15T08:06:00Z</time>
      </trkpt>
      <trkpt lat="44.41403" lon="5.82231">
        <ele>801</ele>
        <time>2019-06-15T08:06:01Z</time>
      </trkpt>
      <trkpt lat="44.41397" lon="5.82221">
        <ele>801</ele>
        <time>2019-06-15T08:06:02Z</time>
      </trkpt>
      <trkpt lat="44.41392" lon="5.82211">
        <ele>801</ele>
        <time>2019-06-15T08:06:03Z</time>
      </trkpt>
      <trkpt lat="44.41386" lon="5.822">
        <ele>800</ele>
        <time>2019-06-15T08:06:04Z</time>
      </trkpt>
      <trkpt lat="44.4138" lon="5.8219">
        <ele>800</ele>
        <time>2019-06-15T08:06:05Z</time>
      </trkpt>
      <trkpt lat="44.41374" lon="5.82178">
        <ele>799</ele>
        <time>2019-06-15T08:06:06Z</time>
      </trkpt>
      <trkpt lat="44.41368" lon="5.82167">
        <ele>799</ele>
        <time>2019-06-15T08:06:07Z</time>
      </trkpt>
      <trkpt lat="44.41362" lon="5.82156">
        <ele>798</ele>
        <time>2019-06-15T08:06:08Z</time>
      </trkpt>
      <trkpt lat="44.41356" lon="5.82144">
        <ele>798</ele>
        <time>2019-06-15T08:06:09Z</time>
      </trkpt>
      <trkpt lat="44.4135" lon="5.82133">
        <ele>797</ele>
        <time>2019-06-15T08:06:10Z</time>
      </trkpt>
      <trkpt lat="44.41344" lon="5.82123">
        <ele>797</ele>
        <time>2019-06-15T08:06:11Z</time>
      </trkpt>
      <trkpt lat="44.41339" lon="5.82112">
        <ele>796</ele>
        <time>2019-06-15T08:06:12Z</time>
      </trkpt>
      <trkpt lat="44.41333" lon="5.82101">
        <ele>795</ele>
        <time>2019-06-15T08:06:13Z</time>
      </trkpt>
      <trkpt lat="44.41327" lon="5.8209">
        <ele>795</ele>
        <time>2019-06-15T08:06:14Z</time>
      </trkpt>
      <trkpt lat="44.41321" lon="5.82079">
        <ele>794</ele>
        <time>2019-06-15T08:06:15Z</time>
      </trkpt>
      <trkpt lat="44.41315" lon="5.82068">
        <ele>794</ele>
        <time>2019-06-15T08:06:16Z</time>
      </trkpt>
      <trkpt lat="44.41309" lon="5.82057">
        <ele>793</ele>
        <time>2019-06-15T08:06:17Z</time>
      </trkpt>
      <trkpt lat="44.41303" lon="5.82045">
        <ele>793</ele>
        <time>2019-06-15T08:06:18Z</time>
      </trkpt>
      <trkpt lat="44.41296" lon="5.82033">
        <ele>792</ele>
        <time>2019-06-15T08:06:19Z</time>
      </trkpt>
      <trkpt lat="44.4129" lon="5.82022">
        <ele>792</ele>
        <time>2019-06-15T08:06:20Z</time>
      </trkpt>
      <trkpt lat="44.41283" lon="5.8201">
        <ele>791</ele>
        <time>2019-06-15T08:06:21Z</time>
      </trkpt>
      <trkpt lat="44.41277" lon="5.81997">
        <ele>791</ele>
        <time>2019-06-15T08:06:22Z</time>
      </trkpt>
      <trkpt lat="44.41272" lon="5.81985">
        <ele>790</ele>
        <time>2019-06-15T08:06:23Z</time>
      </trkpt>
      <trkpt lat="44.41269" lon="5.81971">
        <ele>789</ele>
        <time>2019-06-15T08:06:24Z</time>
      </trkpt>
      <trkpt lat="44.41267" lon="5.81957">
        <ele>789</ele>
        <time>2019-06-15T08:06:25Z</time>
      </trkpt>
      <trkpt lat="44.41268" lon="5.81942">
        <ele>788</ele>
        <time>2019-06-15T08:06:26Z</time>
      </trkpt>
      <trkpt lat="44.4127" lon="5.81927">
        <ele>787</ele>
        <time>2019-06-15T08:06:27Z</time>
      </trkpt>
      <trkpt lat="44.41272" lon="5.81913">
        <ele>787</ele>
        <time>2019-06-15T08:06:28Z</time>
      </trkpt>
      <trkpt lat="44.41274" lon="5.81897">
        <ele>786</ele>
        <time>2019-06-15T08:06:29Z</time>
      </trkpt>
      <trkpt lat="44.41276" lon="5.81882">
        <ele>786</ele>
        <time>2019-06-15T08:06:30Z</time>
      </trkpt>
      <trkpt lat="44.41278" lon="5.81867">
        <ele>785</ele>
        <time>2019-06-15T08:06:31Z</time>
      </trkpt>
      <trkpt lat="44.4128" lon="5.81852">
        <ele>785</ele>
        <time>2019-06-15T08:06:32Z</time>
      </trkpt>
      <trkpt lat="44.41283" lon="5.81837">
        <ele>784</ele>
        <time>2019-06-15T08:06:33Z</time>
      </trkpt>
      <trkpt lat="44.41285" lon="5.81821">
        <ele>784</ele>
        <time>2019-06-15T08:06:34Z</time>
      </trkpt>
      <trkpt lat="44.41287" lon="5.81807">
        <ele>784</ele>
        <time>2019-06-15T08:06:35Z</time>
      </trkpt>
      <trkpt lat="44.4129" lon="5.81792">
        <ele>783</ele>
        <time>2019-06-15T08:06:36Z</time>
      </trkpt>
      <trkpt lat="44.41294" lon="5.81777">
        <ele>783</ele>
        <time>2019-06-15T08:06:37Z</time>
      </trkpt>
      <trkpt lat="44.41298" lon="5.81762">
        <ele>782</ele>
        <time>2019-06-15T08:06:38Z</time>
      </trkpt>
      <trkpt lat="44.41302" lon="5.81747">
        <ele>782</ele>
        <time>2019-06-15T08:06:39Z</time>
      </trkpt>
      <trkpt lat="44.41307" lon="5.81732">
        <ele>781</ele>
        <time>2019-06-15T08:06:40Z</time>
      </trkpt>
      <trkpt lat="44.41312" lon="5.81717">
        <ele>780</ele>
        <time>2019-06-15T08:06:41Z</time>
      </trkpt>
      <trkpt lat="44.41317" lon="5.81702">
        <ele>780</ele>
        <time>2019-06-15T08:06:42Z</time>
      </trkpt>
      <trkpt lat="44.41321" lon="5.81687">
        <ele>779</ele>
        <time>2019-06-15T08:06:43Z</time>
      </trkpt>
      <trkpt lat="44.41325" lon="5.81673">
        <ele>778</ele>
        <time>2019-06-15T08:06:44Z</time>
      </trkpt>
      <trkpt lat="44.4133" lon="5.81659">
        <ele>777</ele>
        <time>2019-06-15T08:06:45Z</time>
      </trkpt>
      <trkpt lat="44.41334" lon="5.81645">
        <ele>777</ele>
        <time>2019-06-15T08:06:46Z</time>
      </trkpt>
      <trkpt lat="44.41338" lon="5.81631">
        <ele>776</ele>
        <time>2019-06-15T08:06:47Z</time>
      </trkpt>
      <trkpt lat="44.41342" lon="5.81617">
        <ele>775</ele>
        <time>2019-06-15T08:06:48Z</time>
      </trkpt>
      <trkpt lat="44.41346" lon="5.81603">
        <ele>775</ele>
        <time>2019-06-15T08:06:49Z</time>
      </trkpt>
      <trkpt lat="44.4135" lon="5.81588">
        <ele>774</ele>
        <time>2019-06-15T08:06:50Z</time>
      </trkpt>
      <trkpt lat="44.41355" lon="5.81574">
        <ele>774</ele>
        <time>2019-06-15T08:06:51Z</time>
      </trkpt>
      <trkpt lat="44.41359" lon="5.8156">
        <ele>773</ele>
        <time>2019-06-15T08:06:52Z</time>
      </trkpt>
      <trkpt lat="44.41364" lon="5.81546">
        <ele>773</ele>
        <time>2019-06-15T08:06:53Z</time>
      </trkpt>
      <trkpt lat="44.41369" lon="5.81532">
        <ele>772</ele>
        <time>2019-06-15T08:06:54Z</time>
      </trkpt>
      <trkpt lat="44.41374" lon="5.81518">
        <ele>772</ele>
        <time>2019-06-15T08:06:55Z</time>
      </trkpt>
      <trkpt lat="44.41379" lon="5.81504">
        <ele>772</ele>
        <time>2019-06-15T08:06:56Z</time>
      </trkpt>
      <trkpt lat="44.41384" lon="5.81491">
        <ele>771</ele>
        <time>2019-06-15T08:06:57Z</time>
      </trkpt>
      <trkpt lat="44.41389" lon="5.81476">
        <ele>771</ele>
        <time>2019-06-15T08:06:58Z</time>
      </trkpt>
      <trkpt lat="44.41395" lon="5.81463">
        <ele>771</ele>
        <time>2019-06-15T08:06:59Z</time>
      </trkpt>
      <trkpt lat="44.414" lon="5.81449">
        <ele>770</ele>
        <time>2019-06-15T08:07:00Z</time>
      </trkpt>
      <trkpt lat="44.41405" lon="5.81435">
        <ele>770</ele>
        <time>2019-06-15T08:07:01Z</time>
      </trkpt>
      <trkpt lat="44.41411" lon="5.81421">
        <ele>769</ele>
        <time>2019-06-15T08:07:02Z</time>
      </trkpt>
      <trkpt lat="44.41416" lon="5.81406">
        <ele>769</ele>
        <time>2019-06-15T08:07:03Z</time>
      </trkpt>
      <trkpt lat="44.41422" lon="5.81392">
        <ele>768</ele>
        <time>2019-06-15T08:07:04Z</time>
      </trkpt>
      <trkpt lat="44.41427" lon="5.81378">
        <ele>768</ele>
        <time>2019-06-15T08:07:05Z</time>
      </trkpt>
      <trkpt lat="44.41432" lon="5.81363">
        <ele>767</ele>
        <time>2019-06-15T08:07:06Z</time>
      </trkpt>
      <trkpt lat="44.41438" lon="5.81349">
        <ele>767</ele>
        <time>2019-06-15T08:07:07Z</time>
      </trkpt>
      <trkpt lat="44.41443" lon="5.81334">
        <ele>766</ele>
        <time>2019-06-15T08:07:08Z</time>
      </trkpt>
      <trkpt lat="44.41448" lon="5.8132">
        <ele>766</ele>
        <time>2019-06-15T08:07:09Z</time>
      </trkpt>
      <trkpt lat="44.41453" lon="5.81306">
        <ele>765</ele>
        <time>2019-06-15T08:07:10Z</time>
      </trkpt>
      <trkpt lat="44.41458" lon="5.81291">
        <ele>765</ele>
        <time>2019-06-15T08:07:11Z</time>
      </trkpt>
      <trkpt lat="44.41462" lon="5.81277">
        <ele>764</ele>
        <time>2019-06-15T08:07:12Z</time>
      </trkpt>
      <trkpt lat="44.41466" lon="5.81262">
        <ele>764</ele>
        <time>2019-06-15T08:07:13Z</time>
      </trkpt>
      <trkpt lat="44.4147" lon="5.81247">
        <ele>763</ele>
        <time>2019-06-15T08:07:14Z</time>
      </trkpt>
      <trkpt lat="44.41473" lon="5.81233">
        <ele>763</ele>
        <time>2019-06-15T08:07:15Z</time>
      </trkpt>
      <trkpt lat="44.41476" lon="5.81218">
        <ele>763</ele>
        <time>2019-06-15T08:07:16Z</time>
      </trkpt>
      <trkpt lat="44.41478" lon="5.81204">
        <ele>762</ele>
        <time>2019-06-15T08:07:17Z</time>
      </trkpt>
      <trkpt lat="44.4148" lon="5.81189">
        <ele>762</ele>
        <time>2019-06-15T08:07:18Z</time>
      </trkpt>
      <trkpt lat="44.4148" lon="5.81175">
        <ele>762</ele>
        <time>2019-06-15T08:07:19Z</time>
      </trkpt>
      <trkpt lat="44.41481" lon="5.81161">
        <ele>762</ele>
        <time>2019-06-15T08:07:20Z</time>
      </trkpt>
      <trkpt lat="44.41481" lon="5.81147">
        <ele>761</ele>
        <time>2019-06-15T08:07:21Z</time>
      </trkpt>
      <trkpt lat="44.41482" lon="5.81134">
        <ele>761</ele>
        <time>2019-06-15T08:07:22Z</time>
      </trkpt>
      <trkpt lat="44.41484" lon="5.8112">
        <ele>761</ele>
        <time>2019-06-15T08:07:23Z</time>
      </trkpt>
      <trkpt lat="44.41485" lon="5.81107">
        <ele>761</ele>
        <time>2019-06-15T08:07:24Z</time>
      </trkpt>
      <trkpt lat="44.41486" lon="5.81093">
        <ele>761</ele>
        <time>2019-06-15T08:07:25Z</time>
      </trkpt>
      <trkpt lat="44.41488" lon="5.81079">
        <ele>760</ele>
        <time>2019-06-15T08:07:26Z</time>
      </trkpt>
      <trkpt lat="44.4149" lon="5.81066">
        <ele>760</ele>
        <time>2019-06-15T08:07:27Z</time>
      </trkpt>
      <trkpt lat="44.41492" lon="5.81052">
        <ele>760</ele>
        <time>2019-06-15T08:07:28Z</time>
      </trkpt>
      <trkpt lat="44.41494" lon="5.81038">
        <ele>760</ele>
        <time>2019-06-15T08:07:29Z</time>
      </trkpt>
      <trkpt lat="44.41496" lon="5.81024">
        <ele>759</ele>
        <time>2019-06-15T08:07:30Z</time>
      </trkpt>
      <trkpt lat="44.41497" lon="5.8101">
        <ele>759</ele>
        <time>2019-06-15T08:07:31Z</time>
      </trkpt>
      <trkpt lat="44.41499" lon="5.80996">
        <ele>759</ele>
        <time>2019-06-15T08:07:32Z</time>
      </trkpt>
      <trkpt lat="44.415" lon="5.80982">
        <ele>759</ele>
        <time>2019-06-15T08:07:33Z</time>
      </trkpt>
      <trkpt lat="44.41501" lon="5.80968">
        <ele>758</ele>
        <time>2019-06-15T08:07:34Z</time>
      </trkpt>
      <trkpt lat="44.41502" lon="5.80954">
        <ele>758</ele>
        <time>2019-06-15T08:07:35Z</time>
      </trkpt>
      <trkpt lat="44.41503" lon="5.80939">
        <ele>758</ele>
        <time>2019-06-15T08:07:36Z</time>
      </trkpt>
      <trkpt lat="44.41503" lon="5.80925">
        <ele>758</ele>
        <time>2019-06-15T08:07:37Z</time>
      </trkpt>
      <trkpt lat="44.41504" lon="5.80911">
        <ele>757</ele>
        <time>2019-06-15T08:07:38Z</time>
      </trkpt>
      <trkpt lat="44.41504" lon="5.80897">
        <ele>757</ele>
        <time>2019-06-15T08:07:39Z</time>
      </trkpt>
      <trkpt lat="44.41504" lon="5.80883">
        <ele>757</ele>
        <time>2019-06-15T08:07:40Z</time>
      </trkpt>
      <trkpt lat="44.41503" lon="5.80869">
        <ele>756</ele>
        <time>2019-06-15T08:07:41Z</time>
      </trkpt>
      <trkpt lat="44.41503" lon="5.80855">
        <ele>756</ele>
        <time>2019-06-15T08:07:42Z</time>
      </trkpt>
      <trkpt lat="44.41504" lon="5.80841">
        <ele>756</ele>
        <time>2019-06-15T08:07:43Z</time>
      </trkpt>
      <trkpt lat="44.41504" lon="5.80827">
        <ele>755</ele>
        <time>2019-06-15T08:07:44Z</time>
      </trkpt>
      <trkpt lat="44.41504" lon="5.80813">
        <ele>755</ele>
        <time>2019-06-15T08:07:45Z</time>
      </trkpt>
      <trkpt lat="44.41505" lon="5.80799">
        <ele>755</ele>
        <time>2019-06-15T08:07:46Z</time>
      </trkpt>
      <trkpt lat="44.41505" lon="5.80785">
        <ele>755</ele>
        <time>2019-06-15T08:07:47Z</time>
      </trkpt>
      <trkpt lat="44.41505" lon="5.8077">
        <ele>754</ele>
        <time>2019-06-15T08:07:48Z</time>
      </trkpt>
      <trkpt lat="44.41506" lon="5.80756">
        <ele>754</ele>
        <time>2019-06-15T08:07:49Z</time>
      </trkpt>
      <trkpt lat="44.41507" lon="5.80741">
        <ele>753</ele>
        <time>2019-06-15T08:07:50Z</time>
      </trkpt>
      <trkpt lat="44.41506" lon="5.80726">
        <ele>753</ele>
        <time>2019-06-15T08:07:51Z</time>
      </trkpt>
      <trkpt lat="44.41504" lon="5.80712">
        <ele>753</ele>
        <time>2019-06-15T08:07:52Z</time>
      </trkpt>
      <trkpt lat="44.41502" lon="5.80697">
        <ele>752</ele>
        <time>2019-06-15T08:07:53Z</time>
      </trkpt>
      <trkpt lat="44.41498" lon="5.80683">
        <ele>752</ele>
        <time>2019-06-15T08:07:54Z</time>
      </trkpt>
      <trkpt lat="44.41495" lon="5.80669">
        <ele>752</ele>
        <time>2019-06-15T08:07:55Z</time>
      </trkpt>
      <trkpt lat="44.41491" lon="5.80655">
        <ele>751</ele>
        <time>2019-06-15T08:07:56Z</time>
      </trkpt>
      <trkpt lat="44.41486" lon="5.80642">
        <ele>751</ele>
        <time>2019-06-15T08:07:57Z</time>
      </trkpt>
      <trkpt lat="44.41481" lon="5.80629">
        <ele>750</ele>
        <time>2019-06-15T08:07:58Z</time>
      </trkpt>
      <trkpt lat="44.41478" lon="5.80617">
        <ele>750</ele>
        <time>2019-06-15T08:07:59Z</time>
      </trkpt>
      <trkpt lat="44.41476" lon="5.80604">
        <ele>749</ele>
        <time>2019-06-15T08:08:00Z</time>
      </trkpt>
      <trkpt lat="44.41476" lon="5.8059">
        <ele>749</ele>
        <time>2019-06-15T08:08:01Z</time>
      </trkpt>
      <trkpt lat="44.41478" lon="5.80577">
        <ele>748</ele>
        <time>2019-06-15T08:08:02Z</time>
      </trkpt>
      <trkpt lat="44.41481" lon="5.80563">
        <ele>747</ele>
        <time>2019-06-15T08:08:03Z</time>
      </trkpt>
      <trkpt lat="44.41484" lon="5.80549">
        <ele>747</ele>
        <time>2019-06-15T08:08:04Z</time>
      </trkpt>
      <trkpt lat="44.41489" lon="5.80537">
        <ele>746</ele>
        <time>2019-06-15T08:08:05Z</time>
      </trkpt>
      <trkpt lat="44.41495" lon="5.80525">
        <ele>745</ele>
        <time>2019-06-15T08:08:06Z</time>
      </trkpt>
      <trkpt lat="44.41502" lon="5.80514">
        <ele>745</ele>
        <time>2019-06-15T08:08:07Z</time>
      </trkpt>
      <trkpt lat="44.4151" lon="5.80505">
        <ele>745</ele>
        <time>2019-06-15T08:08:08Z</time>
      </trkpt>
      <trkpt lat="44.41517" lon="5.80496">
        <ele>745</ele>
        <time>2019-06-15T08:08:09Z</time>
      </trkpt>
      <trkpt lat="44.41524" lon="5.80487">
        <ele>745</ele>
        <time>2019-06-15T08:08:10Z</time>
      </trkpt>
      <trkpt lat="44.41531" lon="5.80479">
        <ele>745</ele>
        <time>2019-06-15T08:08:11Z</time>
      </trkpt>
      <trkpt lat="44.41537" lon="5.80471">
        <ele>745</ele>
        <time>2019-06-15T08:08:12Z</time>
      </trkpt>
      <trkpt lat="44.41543" lon="5.80463">
        <ele>745</ele>
        <time>2019-06-15T08:08:13Z</time>
      </trkpt>
      <trkpt lat="44.41549" lon="5.80455">
        <ele>745</ele>
        <time>2019-06-15T08:08:14Z</time>
      </trkpt>
      <trkpt lat="44.41555" lon="5.80447">
        <ele>745</ele>
        <time>2019-06-15T08:08:15Z</time>
      </trkpt>
      <trkpt lat="44.41561" lon="5.80439">
        <ele>745</ele>
        <time>2019-06-15T08:08:16Z</time>
      </trkpt>
      <trkpt lat="44.41566" lon="5.80431">
        <ele>745</ele>
        <time>2019-06-15T08:08:17Z</time>
      </trkpt>
      <trkpt lat="44.41572" lon="5.80423">
        <ele>745</ele>
        <time>2019-06-15T08:08:18Z</time>
      </trkpt>
      <trkpt lat="44.41577" lon="5.80416">
        <ele>745</ele>
        <time>2019-06-15T08:08:19Z</time>
      </trkpt>
      <trkpt lat="44.41582" lon="5.80409">
        <ele>745</ele>
        <time>2019-06-15T08:08:20Z</time>
      </trkpt>
      <trkpt lat="44.41587" lon="5.80402">
        <ele>745</ele>
        <time>2019-06-15T08:08:21Z</time>
      </trkpt>
      <trkpt lat="44.41592" lon="5.80394">
        <ele>745</ele>
        <time>2019-06-15T08:08:22Z</time>
      </trkpt>
      <trkpt lat="44.41597" lon="5.80387">
        <ele>745</ele>
        <time>2019-06-15T08:08:23Z</time>
      </trkpt>
      <trkpt lat="44.41602" lon="5.8038">
        <ele>745</ele>
        <time>2019-06-15T08:08:24Z</time>
      </trkpt>
      <trkpt lat="44.41607" lon="5.80373">
        <ele>745</ele>
        <time>2019-06-15T08:08:25Z</time>
      </trkpt>
      <trkpt lat="44.41611" lon="5.80367">
        <ele>745</ele>
        <time>2019-06-15T08:08:26Z</time>
      </trkpt>
      <trkpt lat="44.41616" lon="5.8036">
        <ele>745</ele>
        <time>2019-06-15T08:08:27Z</time>
      </trkpt>
      <trkpt lat="44.41621" lon="5.80353">
        <ele>745</ele>
        <time>2019-06-15T08:08:28Z</time>
      </trkpt>
      <trkpt lat="44.41626" lon="5.80347">
        <ele>745</ele>
        <time>2019-06-15T08:08:29Z</time>
      </trkpt>
      <trkpt lat="44.41631" lon="5.8034">
        <ele>745</ele>
        <time>2019-06-15T08:08:30Z</time>
      </trkpt>
      <trkpt lat="44.41636" lon="5.80335">
        <ele>745</ele>
        <time>2019-06-15T08:08:31Z</time>
      </trkpt>
      <trkpt lat="44.41641" lon="5.80329">
        <ele>745</ele>
        <time>2019-06-15T08:08:32Z</time>
      </trkpt>
      <trkpt lat="44.41646" lon="5.80323">
        <ele>745</ele>
        <time>2019-06-15T08:08:33Z</time>
      </trkpt>
      <trkpt lat="44.41651" lon="5.80317">
        <ele>745</ele>
        <time>2019-06-15T08:08:34Z</time>
      </trkpt>
      <trkpt lat="44.41656" lon="5.80312">
        <ele>745</ele>
        <time>2019-06-15T08:08:35Z</time>
      </trkpt>
      <trkpt lat="44.41661" lon="5.80306">
        <ele>745</ele>
        <time>2019-06-15T08:08:36Z</time>
      </trkpt>
      <trkpt lat="44.41666" lon="5.80301">
        <ele>745</ele>
        <time>2019-06-15T08:08:37Z</time>
      </trkpt>
      <trkpt lat="44.41671" lon="5.80295">
        <ele>745</ele>
        <time>2019-06-15T08:08:38Z</time>
      </trkpt>
      <trkpt lat="44.41677" lon="5.80289">
        <ele>745</ele>
        <time>2019-06-15T08:08:39Z</time>
      </trkpt>
      <trkpt lat="44.41682" lon="5.80283">
        <ele>745</ele>
        <time>2019-06-15T08:08:40Z</time>
      </trkpt>
      <trkpt lat="44.41687" lon="5.80277">
        <ele>745</ele>
        <time>2019-06-15T08:08:41Z</time>
      </trkpt>
      <trkpt lat="44.41692" lon="5.8027">
        <ele>745</ele>
        <time>2019-06-15T08:08:42Z</time>
      </trkpt>
      <trkpt lat="44.41697" lon="5.80263">
        <ele>745</ele>
        <time>2019-06-15T08:08:43Z</time>
      </trkpt>
      <trkpt lat="44.417" lon="5.80255">
        <ele>745</ele>
        <time>2019-06-15T08:08:44Z</time>
      </trkpt>
      <trkpt lat="44.41704" lon="5.80246">
        <ele>745</ele>
        <time>2019-06-15T08:08:45Z</time>
      </trkpt>
      <trkpt lat="44.41706" lon="5.80237">
        <ele>745</ele>
        <time>2019-06-15T08:08:46Z</time>
      </trkpt>
      <trkpt lat="44.41708" lon="5.80228">
        <ele>745</ele>
        <time>2019-06-15T08:08:47Z</time>
      </trkpt>
      <trkpt lat="44.4171" lon="5.80218">
        <ele>745</ele>
        <time>2019-06-15T08:08:48Z</time>
      </trkpt>
      <trkpt lat="44.41711" lon="5.80209">
        <ele>745</ele>
        <time>2019-06-15T08:08:49Z</time>
      </trkpt>
      <trkpt lat="44.41713" lon="5.80199">
        <ele>745</ele>
        <time>2019-06-15T08:08:50Z</time>
      </trkpt>
      <trkpt lat="44.41716" lon="5.8019">
        <ele>745</ele>
        <time>2019-06-15T08:08:51Z</time>
      </trkpt>
      <trkpt lat="44.41719" lon="5.80182">
        <ele>744</ele>
        <time>2019-06-15T08:08:52Z</time>
      </trkpt>
      <trkpt lat="44.41724" lon="5.80174">
        <ele>744</ele>
        <time>2019-06-15T08:08:53Z</time>
      </trkpt>
      <trkpt lat="44.41729" lon="5.80168">
        <ele>744</ele>
        <time>2019-06-15T08:08:54Z</time>
      </trkpt>
      <trkpt lat="44.41734" lon="5.80162">
        <ele>744</ele>
        <time>2019-06-15T08:08:55Z</time>
      </trkpt>
      <trkpt lat="44.4174" lon="5.80157">
        <ele>744</ele>
        <time>2019-06-15T08:08:56Z</time>
      </trkpt>
      <trkpt lat="44.41746" lon="5.80153">
        <ele>744</ele>
        <time>2019-06-15T08:08:57Z</time>
      </trkpt>
      <trkpt lat="44.41752" lon="5.80148">
        <ele>744</ele>
        <time>2019-06-15T08:08:58Z</time>
      </trkpt>
      <trkpt lat="44.41758" lon="5.80144">
        <ele>744</ele>
        <time>2019-06-15T08:08:59Z</time>
      </trkpt>
      <trkpt lat="44.41763" lon="5.8014">
        <ele>744</ele>
        <time>2019-06-15T08:09:00Z</time>
      </trkpt>
      <trkpt lat="44.41769" lon="5.80135">
        <ele>744</ele>
        <time>2019-06-15T08:09:01Z</time>
      </trkpt>
      <trkpt lat="44.41774" lon="5.80131">
        <ele>744</ele>
        <time>2019-06-15T08:09:02Z</time>
      </trkpt>
      <trkpt lat="44.41779" lon="5.80126">
        <ele>744</ele>
        <time>2019-06-15T08:09:03Z</time>
      </trkpt>
      <trkpt lat="44.41784" lon="5.80121">
        <ele>744</ele>
        <time>2019-06-15T08:09:04Z</time>
      </trkpt>
      <trkpt lat="44.41788" lon="5.80116">
        <ele>744</ele>
        <time>2019-06-15T08:09:05Z</time>
      </trkpt>
      <trkpt lat="44.41793" lon="5.8011">
        <ele>744</ele>
        <time>2019-06-15T08:09:06Z</time>
      </trkpt>
      <trkpt lat="44.41797" lon="5.80104">
        <ele>744</ele>
        <time>2019-06-15T08:09:07Z</time>
      </trkpt>
      <trkpt lat="44.41801" lon="5.80098">
        <ele>744</ele>
        <time>2019-06-15T08:09:08Z</time>
      </trkpt>
      <trkpt lat="44.41806" lon="5.80091">
        <ele>744</ele>
        <time>2019-06-15T08:09:09Z</time>
      </trkpt>
      <trkpt lat="44.4181" lon="5.80085">
        <ele>744</ele>
        <time>2019-06-15T08:09:10Z</time>
      </trkpt>
      <trkpt lat="44.41814" lon="5.80079">
        <ele>744</ele>
        <time>2019-06-15T08:09:11Z</time>
      </trkpt>
      <trkpt lat="44.41819" lon="5.80072">
        <ele>744</ele>
        <time>2019-06-15T08:09:12Z</time>
      </trkpt>
      <trkpt lat="44.41824" lon="5.80066">
        <ele>744</ele>
        <time>2019-06-15T08:09:13Z</time>
      </trkpt>
      <trkpt lat="44.41828" lon="5.80059">
        <ele>744</ele>
        <time>2019-06-15T08:09:14Z</time>
      </trkpt>
      <trkpt lat="44.41832" lon="5.80053">
        <ele>744</ele>
        <time>2019-06-15T08:09:15Z</time>
      </trkpt>
      <trkpt lat="44.41837" lon="5.80046">
        <ele>744</ele>
        <time>2019-06-15T08:09:16Z</time>
      </trkpt>
      <trkpt lat="44.41841" lon="5.80039">
        <ele>744</ele>
        <time>2019-06-15T08:09:17Z</time>
      </trkpt>
      <trkpt lat="44.41845" lon="5.80032">
        <ele>744</ele>
        <time>2019-06-15T08:09:18Z</time>
      </trkpt>
      <trkpt lat="44.4185" lon="5.80026">
        <ele>744</ele>
        <time>2019-06-15T08:09:19Z</time>
      </trkpt>
      <trkpt lat="44.41854" lon="5.80019">
        <ele>744</ele>
        <time>2019-06-15T08:09:20Z</time>
      </trkpt>
      <trkpt lat="44.41858" lon="5.80011">
        <ele>744</ele>
        <time>2019-06-15T08:09:21Z</time>
      </trkpt>
      <trkpt lat="44.41862" lon="5.80004">
        <ele>744</ele>
        <time>2019-06-15T08:09:22Z</time>
      </trkpt>
      <trkpt lat="44.41866" lon="5.79996">
        <ele>744</ele>
        <time>2019-06-15T08:09:23Z</time>
      </trkpt>
      <trkpt lat="44.4187" lon="5.79988">
        <ele>744</ele>
        <time>2019-06-15T08:09:24Z</time>
      </trkpt>
      <trkpt lat="44.41874" lon="5.7998">
        <ele>744</ele>
        <time>2019-06-15T08:09:25Z</time>
      </trkpt>
      <trkpt lat="44.41877" lon="5.79973">
        <ele>744</ele>
        <time>2019-06-15T08:09:26Z</time>
      </trkpt>
      <trkpt lat="44.41882" lon="5.79965">
        <ele>744</ele>
        <time>2019-06-15T08:09:27Z</time>
      </trkpt>
      <trkpt lat="44.41886" lon="5.79958">
        <ele>744</ele>
        <time>2019-06-15T08:09:28Z</time>
      </trkpt>
      <trkpt lat="44.4189" lon="5.79952">
        <ele>744</ele>
        <time>2019-06-15T08:09:29Z</time>
      </trkpt>
      <trkpt lat="44.41895" lon="5.79946">
        <ele>744</ele>
        <time>2019-06-15T08:09:30Z</time>
      </trkpt>
      <trkpt lat="44.419" lon="5.7994">
        <ele>744</ele>
        <time>2019-06-15T08:09:31Z</time>
      </trkpt>
      <trkpt lat="44.41906" lon="5.79935">
        <ele>743</ele>
        <time>2019-06-15T08:09:32Z</time>
      </trkpt>
      <trkpt lat="44.41911" lon="5.79929">
        <ele>743</ele>
        <time>2019-06-15T08:09:33Z</time>
      </trkpt>
      <trkpt lat="44.41916" lon="5.79924">
        <ele>743</ele>
        <time>2019-06-15T08:09:34Z</time>
      </trkpt>
      <trkpt lat="44.4192" lon="5.79919">
        <ele>743</ele>
        <time>2019-06-15T08:09:35Z</time>
      </trkpt>
      <trkpt lat="44.41925" lon="5.79914">
        <ele>743</ele>
        <time>2019-06-15T08:09:36Z</time>
      </trkpt>
      <trkpt lat="44.4193" lon="5.79908">
        <ele>743</ele>
        <time>2019-06-15T08:09:37Z</time>
      </trkpt>
      <trkpt lat="44.41935" lon="5.79903">
        <ele>743</ele>
        <time>2019-06-15T08:09:38Z</time>
      </trkpt>
      <trkpt lat="44.41939" lon="5.79897">
        <ele>743</ele>
        <time>2019-06-15T08:09:39Z</time>
      </trkpt>
      <trkpt lat="44.41944" lon="5.79892">
        <ele>743</ele>
        <time>2019-06-15T08:09:40Z</time>
      </trkpt>
      <trkpt lat="44.41948" lon="5.79887">
        <ele>743</ele>
        <time>2019-06-15T08:09:41Z</time>
      </trkpt>
      <trkpt lat="44.41953" lon="5.79882">
        <ele>743</ele>
        <time>2019-06-15T08:09:42Z</time>
      </trkpt>
      <trkpt lat="44.41959" lon="5.79879">
        <ele>743</ele>
        <time>2019-06-15T08:09:43Z</time>
      </trkpt>
      <trkpt lat="44.41964" lon="5.79876">
        <ele>743</ele>
        <time>2019-06-15T08:09:44Z</time>
      </trkpt>
      <trkpt lat="44.41969" lon="5.79874">
        <ele>743</ele>
        <time>2019-06-15T08:09:45Z</time>
      </trkpt>
      <trkpt lat="44.41975" lon="5.79872">
        <ele>743</ele>
        <time>2019-06-15T08:09:46Z</time>
      </trkpt>
      <trkpt lat="44.4198" lon="5.7987">
        <ele>743</ele>
        <time>2019-06-15T08:09:47Z</time>
      </trkpt>
      <trkpt lat="44.41986" lon="5.7987">
        <ele>743</ele>
        <time>2019-06-15T08:09:48Z</time>
      </trkpt>
      <trkpt lat="44.41991" lon="5.79869">
        <ele>743</ele>
        <time>2019-06-15T08:09:49Z</time>
      </trkpt>
      <trkpt lat="44.41996" lon="5.79869">
        <ele>743</ele>
        <time>2019-06-15T08:09:50Z</time>
      </trkpt>
      <trkpt lat="44.42001" lon="5.79868">
        <ele>743</ele>
        <time>2019-06-15T08:09:51Z</time>
      </trkpt>
      <trkpt lat="44.42006" lon="5.79867">
        <ele>743</ele>
        <time>2019-06-15T08:09:52Z</time>
      </trkpt>
      <trkpt lat="44.42011" lon="5.79866">
        <ele>743</ele>
        <time>2019-06-15T08:09:53Z</time>
      </trkpt>
      <trkpt lat="44.42016" lon="5.79864">
        <ele>743</ele>
        <time>2019-06-15T08:09:54Z</time>
      </trkpt>
      <trkpt lat="44.4202" lon="5.7986">
        <ele>743</ele>
        <time>2019-06-15T08:09:55Z</time>
      </trkpt>
      <trkpt lat="44.42024" lon="5.79856">
        <ele>743</ele>
        <time>2019-06-15T08:09:56Z</time>
      </trkpt>
      <trkpt lat="44.42027" lon="5.7985">
        <ele>743</ele>
        <time>2019-06-15T08:09:57Z</time>
      </trkpt>
      <trkpt lat="44.42029" lon="5.79844">
        <ele>743</ele>
        <time>2019-06-15T08:09:58Z</time>
      </trkpt>
      <trkpt lat="44.42031" lon="5.79838">
        <ele>743</ele>
        <time>2019-06-15T08:09:59Z</time>
      </trkpt>
      <trkpt lat="44.42032" lon="5.79831">
        <ele>743</ele>
        <time>2019-06-15T08:10:00Z</time>
      </trkpt>
      <trkpt lat="44.42033" lon="5.79823">
        <ele>743</ele>
        <time>2019-06-15T08:10:01Z</time>
      </trkpt>
      <trkpt lat="44.42035" lon="5.79816">
        <ele>743</ele>
        <time>2019-06-15T08:10:02Z</time>
      </trkpt>
      <trkpt lat="44.42035" lon="5.79809">
        <ele>743</ele>
        <time>2019-06-15T08:10:03Z</time>
      </trkpt>
      <trkpt lat="44.42036" lon="5.79801">
        <ele>743</ele>
        <time>2019-06-15T08:10:04Z</time>
      </trkpt>
      <trkpt lat="44.42037" lon="5.79794">
        <ele>743</ele>
        <time>2019-06-15T08:10:05Z</time>
      </trkpt>
      <trkpt lat="44.42039" lon="5.79786">
        <ele>743</ele>
        <time>2019-06-15T08:10:06Z</time>
      </trkpt>
      <trkpt lat="44.4204" lon="5.79779">
        <ele>743</ele>
        <time>2019-06-15T08:10:07Z</time>
      </trkpt>
      <trkpt lat="44.42043" lon="5.79772">
        <ele>743</ele>
        <time>2019-06-15T08:10:08Z</time>
      </trkpt>
      <trkpt lat="44.42045" lon="5.79765">
        <ele>743</ele>
        <time>2019-06-15T08:10:09Z</time>
      </trkpt>
      <trkpt lat="44.42048" lon="5.79758">
        <ele>743</ele>
        <time>2019-06-15T08:10:10Z</time>
      </trkpt>
      <trkpt lat="44.42052" lon="5.79752">
        <ele>743</ele>
        <time>2019-06-15T08:10:11Z</time>
      </trkpt>
      <trkpt lat="44.42055" lon="5.79747">
        <ele>743</ele>
        <time>2019-06-15T08:10:12Z</time>
      </trkpt>
      <trkpt lat="44.42059" lon="5.79741">
        <ele>743</ele>
        <time>2019-06-15T08:10:13Z</time>
      </trkpt>
      <trkpt lat="44.42063" lon="5.79736">
        <ele>743</ele>
        <time>2019-06-15T08:10:14Z</time>
      </trkpt>
      <trkpt lat="44.42067" lon="5.79731">
        <ele>743</ele>
        <time>2019-06-15T08:10:15Z</time>
      </trkpt>
      <trkpt lat="44.4207" lon="5.79726">
        <ele>743</ele>
        <time>2019-06-15T08:10:16Z</time>
      </trkpt>
      <trkpt lat="44.42073" lon="5.7972">
        <ele>743</ele>
        <time>2019-06-15T08:10:17Z</time>
      </trkpt>
      <trkpt lat="44.42077" lon="5.79715">
        <ele>743</ele>
        <time>2019-06-15T08:10:18Z</time>
      </trkpt>
      <trkpt lat="44.4208" lon="5.7971">
        <ele>743</ele>
        <time>2019-06-15T08:10:19Z</time>
      </trkpt>
      <trkpt lat="44.42082" lon="5.79705">
        <ele>743</ele>
        <time>2019-06-15T08:10:20Z</time>
      </trkpt>
      <trkpt lat="44.42085" lon="5.797">
        <ele>743</ele>
        <time>2019-06-15T08:10:21Z</time>
      </trkpt>
      <trkpt lat="44.42088" lon="5.79694">
        <ele>743</ele>
        <time>2019-06-15T08:10:22Z</time>
      </trkpt>
      <trkpt lat="44.42091" lon="5.79689">
        <ele>743</ele>
        <time>2019-06-15T08:10:23Z</time>
      </trkpt>
      <trkpt lat="44.42094" lon="5.79682">
        <ele>743</ele>
        <time>2019-06-15T08:10:24Z</time>
      </trkpt>
      <trkpt lat="44.42096" lon="5.79676">
        <ele>743</ele>
        <time>2019-06-15T08:10:25Z</time>
      </trkpt>
      <trkpt lat="44.42099" lon="5.7967">
        <ele>743</ele>
        <time>2019-06-15T08:10:26Z</time>
      </trkpt>
      <trkpt lat="44.42101" lon="5.79664">
        <ele>743</ele>
        <time>2019-06-15T08:10:27Z</time>
      </trkpt>
      <trkpt lat="44.42104" lon="5.79658">
        <ele>743</ele>
        <time>2019-06-15T08:10:28Z</time>
      </trkpt>
      <trkpt lat="44.42106" lon="5.79651">
        <ele>743</ele>
        <time>2019-06-15T08:10:29Z</time>
      </trkpt>
      <trkpt lat="44.42109" lon="5.79644">
        <ele>743</ele>
        <time>2019-06-15T08:10:30Z</time>
      </trkpt>
      <trkpt lat="44.42111" lon="5.79638">
        <ele>743</ele>
        <time>2019-06-15T08:10:31Z</time>
      </trkpt>
      <trkpt lat="44.42114" lon="5.79631">
        <ele>743</ele>
        <time>2019-06-15T08:10:32Z</time>
      </trkpt>
      <trkpt lat="44.42118" lon="5.79623">
        <ele>743</ele>
        <time>2019-06-15T08:10:33Z</time>
      </trkpt>
      <trkpt lat="44.4212" lon="5.79615">
        <ele>743</ele>
        <time>2019-06-15T08:10:34Z</time>
      </trkpt>
      <trkpt lat="44.42124" lon="5.79607">
        <ele>743</ele>
        <time>2019-06-15T08:10:35Z</time>
      </trkpt>
      <trkpt lat="44.42127" lon="5.79599">
        <ele>743</ele>
        <time>2019-06-15T08:10:36Z</time>
      </trkpt>
      <trkpt lat="44.42131" lon="5.7959">
        <ele>743</ele>
        <time>2019-06-15T08:10:37Z</time>
      </trkpt>
      <trkpt lat="44.42134" lon="5.7958">
        <ele>742</ele>
        <time>2019-06-15T08:10:38Z</time>
      </trkpt>
      <trkpt lat="44.42138" lon="5.79571">
        <ele>742</ele>
        <time>2019-06-15T08:10:39Z</time>
      </trkpt>
      <trkpt lat="44.42143" lon="5.79562">
        <ele>741</ele>
        <time>2019-06-15T08:10:40Z</time>
      </trkpt>
      <trkpt lat="44.42148" lon="5.79552">
        <ele>741</ele>
        <time>2019-06-15T08:10:41Z</time>
      </trkpt>
      <trkpt lat="44.42153" lon="5.79543">
        <ele>740</ele>
        <time>2019-06-15T08:10:42Z</time>
      </trkpt>
      <trkpt lat="44.42159" lon="5.79534">
        <ele>739</ele>
        <time>2019-06-15T08:10:43Z</time>
      </trkpt>
      <trkpt lat="44.42165" lon="5.79525">
        <ele>738</ele>
        <time>2019-06-15T08:10:44Z</time>
      </trkpt>
      <trkpt lat="44.42171" lon="5.79516">
        <ele>738</ele>
        <time>2019-06-15T08:10:45Z</time>
      </trkpt>
      <trkpt lat="44.42176" lon="5.79507">
        <ele>737</ele>
        <time>2019-06-15T08:10:46Z</time>
      </trkpt>
      <trkpt lat="44.42181" lon="5.79498">
        <ele>737</ele>
        <time>2019-06-15T08:10:47Z</time>
      </trkpt>
      <trkpt lat="44.42185" lon="5.79491">
        <ele>737</ele>
        <time>2019-06-15T08:10:48Z</time>
      </trkpt>
      <trkpt lat="44.42189" lon="5.79484">
        <ele>737</ele>
        <time>2019-06-15T08:10:49Z</time>
      </trkpt>
      <trkpt lat="44.42191" lon="5.79477">
        <ele>737</ele>
        <time>2019-06-15T08:10:50Z</time>
      </trkpt>
      <trkpt lat="44.42194" lon="5.79473">
        <ele>737</ele>
        <time>2019-06-15T08:10:51Z</time>
      </trkpt>
      <trkpt lat="44.42199" lon="5.7947">
        <ele>737</ele>
        <time>2019-06-15T08:10:52Z</time>
      </trkpt>
      <trkpt lat="44.42203" lon="5.7947">
        <ele>737</ele>
        <time>2019-06-15T08:10:53Z</time>
      </trkpt>
      <trkpt lat="44.42208" lon="5.79471">
        <ele>737</ele>
        <time>2019-06-15T08:10:54Z</time>
      </trkpt>
      <trkpt lat="44.42213" lon="5.79472">
        <ele>737</ele>
        <time>2019-06-15T08:10:55Z</time>
      </trkpt>
      <trkpt lat="44.42218" lon="5.79472">
        <ele>737</ele>
        <time>2019-06-15T08:10:56Z</time>
      </trkpt>
      <trkpt lat="44.42223" lon="5.79473">
        <ele>737</ele>
        <time>2019-06-15T08:10:57Z</time>
      </trkpt>
      <trkpt lat="44.42228" lon="5.79474">
        <ele>737</ele>
        <time>2019-06-15T08:10:58Z</time>
      </trkpt>
      <trkpt lat="44.42233" lon="5.79474">
        <ele>737</ele>
        <time>2019-06-15T08:10:59Z</time>
      </trkpt>
      <trkpt lat="44.42238" lon="5.79474">
        <ele>737</ele>
        <time>2019-06-15T08:11:00Z</time>
      </trkpt>
      <trkpt lat="44.42243" lon="5.79474">
        <ele>737</ele>
        <time>2019-06-15T08:11:01Z</time>
      </trkpt>
      <trkpt lat="44.42248" lon="5.79473">
        <ele>737</ele>
        <time>2019-06-15T08:11:02Z</time>
      </trkpt>
      <trkpt lat="44.42252" lon="5.79473">
        <ele>737</ele>
        <time>2019-06-15T08:11:03Z</time>
      </trkpt>
      <trkpt lat="44.42257" lon="5.79473">
        <ele>737</ele>
        <time>2019-06-15T08:11:04Z</time>
      </trkpt>
      <trkpt lat="44.42261" lon="5.79473">
        <ele>737</ele>
        <time>2019-06-15T08:11:05Z</time>
      </trkpt>
      <trkpt lat="44.42265" lon="5.79472">
        <ele>737</ele>
        <time>2019-06-15T08:11:06Z</time>
      </trkpt>
      <trkpt lat="44.4227" lon="5.79472">
        <ele>737</ele>
        <time>2019-06-15T08:11:07Z</time>
      </trkpt>
      <trkpt lat="44.42274" lon="5.79472">
        <ele>737</ele>
        <time>2019-06-15T08:11:08Z</time>
      </trkpt>
      <trkpt lat="44.42278" lon="5.79471">
        <ele>737</ele>
        <time>2019-06-15T08:11:09Z</time>
      </trkpt>
      <trkpt lat="44.42281" lon="5.79471">
        <ele>737</ele>
        <time>2019-06-15T08:11:10Z</time>
      </trkpt>
      <trkpt lat="44.42285" lon="5.7947">
        <ele>737</ele>
        <time>2019-06-15T08:11:11Z</time>
      </trkpt>
      <trkpt lat="44.42289" lon="5.7947">
        <ele>738</ele>
        <time>2019-06-15T08:11:12Z</time>
      </trkpt>
      <trkpt lat="44.42293" lon="5.79471">
        <ele>738</ele>
        <time>2019-06-15T08:11:13Z</time>
      </trkpt>
      <trkpt lat="44.42297" lon="5.79471">
        <ele>739</ele>
        <time>2019-06-15T08:11:14Z</time>
      </trkpt>
      <trkpt lat="44.42302" lon="5.79472">
        <ele>739</ele>
        <time>2019-06-15T08:11:15Z</time>
      </trkpt>
      <trkpt lat="44.42306" lon="5.79472">
        <ele>740</ele>
        <time>2019-06-15T08:11:16Z</time>
      </trkpt>
      <trkpt lat="44.4231" lon="5.79472">
        <ele>740</ele>
        <time>2019-06-15T08:11:17Z</time>
      </trkpt>
      <trkpt lat="44.42313" lon="5.79473">
        <ele>740</ele>
        <time>2019-06-15T08:11:18Z</time>
      </trkpt>
      <trkpt lat="44.42317" lon="5.79473">
        <ele>741</ele>
        <time>2019-06-15T08:11:19Z</time>
      </trkpt>
      <trkpt lat="44.42321" lon="5.79474">
        <ele>741</ele>
        <time>2019-06-15T08:11:20Z</time>
      </trkpt>
      <trkpt lat="44.42324" lon="5.79475">
        <ele>741</ele>
        <time>2019-06-15T08:11:21Z</time>
      </trkpt>
      <trkpt lat="44.42328" lon="5.79477">
        <ele>741</ele>
        <time>2019-06-15T08:11:22Z</time>
      </trkpt>
      <trkpt lat="44.42331" lon="5.79478">
        <ele>742</ele>
        <time>2019-06-15T08:11:23Z</time>
      </trkpt>
      <trkpt lat="44.42335" lon="5.7948">
        <ele>742</ele>
        <time>2019-06-15T08:11:24Z</time>
      </trkpt>
      <trkpt lat="44.42339" lon="5.79481">
        <ele>742</ele>
        <time>2019-06-15T08:11:25Z</time>
      </trkpt>
      <trkpt lat="44.42343" lon="5.79481">
        <ele>742</ele>
        <time>2019-06-15T08:11:26Z</time>
      </trkpt>
      <trkpt lat="44.42346" lon="5.79482">
        <ele>742</ele>
        <time>2019-06-15T08:11:27Z</time>
      </trkpt>
      <trkpt lat="44.4235" lon="5.79483">
        <ele>742</ele>
        <time>2019-06-15T08:11:28Z</time>
      </trkpt>
      <trkpt lat="44.42354" lon="5.79484">
        <ele>742</ele>
        <time>2019-06-15T08:11:29Z</time>
      </trkpt>
      <trkpt lat="44.42358" lon="5.79486">
        <ele>742</ele>
        <time>2019-06-15T08:11:30Z</time>
      </trkpt>
      <trkpt lat="44.42361" lon="5.79487">
        <ele>742</ele>
        <time>2019-06-15T08:11:31Z</time>
      </trkpt>
      <trkpt lat="44.42365" lon="5.79488">
        <ele>743</ele>
        <time>2019-06-15T08:11:32Z</time>
      </trkpt>
      <trkpt lat="44.42369" lon="5.79488">
        <ele>743</ele>
        <time>2019-06-15T08:11:33Z</time>
      </trkpt>
      <trkpt lat="44.42373" lon="5.79489">
        <ele>743</ele>
        <time>2019-06-15T08:11:34Z</time>
      </trkpt>
      <trkpt lat="44.42376" lon="5.79491">
        <ele>743</ele>
        <time>2019-06-15T08:11:35Z</time>
      </trkpt>
      <trkpt lat="44.4238" lon="5.79492">
        <ele>743</ele>
        <time>2019-06-15T08:11:36Z</time>
      </trkpt>
      <trkpt lat="44.42384" lon="5.79493">
        <ele>743</ele>
        <time>2019-06-15T08:11:37Z</time>
      </trkpt>
      <trkpt lat="44.42388" lon="5.79494">
        <ele>743</ele>
        <time>2019-06-15T08:11:38Z</time>
      </trkpt>
      <trkpt lat="44.42392" lon="5.79495">
        <ele>743</ele>
        <time>2019-06-15T08:11:39Z</time>
      </trkpt>
      <trkpt lat="44.42396" lon="5.79496">
        <ele>743</ele>
        <time>2019-06-15T08:11:40Z</time>
      </trkpt>
      <trkpt lat="44.424" lon="5.79498">
        <ele>744</ele>
        <time>2019-06-15T08:11:41Z</time>
      </trkpt>
      <trkpt lat="44.42403" lon="5.79499">
        <ele>744</ele>
        <time>2019-06-15T08:11:42Z</time>
      </trkpt>
      <trkpt lat="44.42408" lon="5.79501">
        <ele>744</ele>
        <time>2019-06-15T08:11:43Z</time>
      </trkpt>
      <trkpt lat="44.42412" lon="5.79502">
        <ele>744</ele>
        <time>2019-06-15T08:11:44Z</time>
      </trkpt>
      <trkpt lat="44.42416" lon="5.79504">
        <ele>744</ele>
        <time>2019-06-15T08:11:45Z</time>
      </trkpt>
      <trkpt lat="44.4242" lon="5.79506">
        <ele>744</ele>
        <time>2019-06-15T08:11:46Z</time>
      </trkpt>
      <trkpt lat="44.42424" lon="5.79508">
        <ele>744</ele>
        <time>2019-06-15T08:11:47Z</time>
      </trkpt>
      <trkpt lat="44.42428" lon="5.7951">
        <ele>745</ele>
        <time>2019-06-15T08:11:48Z</time>
      </trkpt>
      <trkpt lat="44.42432" lon="5.79512">
        <ele>745</ele>
        <time>2019-06-15T08:11:49Z</time>
      </trkpt>
      <trkpt lat="44.42436" lon="5.79514">
        <ele>745</ele>
        <time>2019-06-15T08:11:50Z</time>
      </trkpt>
      <trkpt lat="44.4244" lon="5.79516">
        <ele>745</ele>
        <time>2019-06-15T08:11:51Z</time>
      </trkpt>
      <trkpt lat="44.42445" lon="5.79518">
        <ele>745</ele>
        <time>2019-06-15T08:11:52Z</time>
      </trkpt>
      <trkpt lat="44.42449" lon="5.79521">
        <ele>745</ele>
        <time>2019-06-15T08:11:53Z</time>
      </trkpt>
      <trkpt lat="44.42453" lon="5.79523">
        <ele>745</ele>
        <time>2019-06-15T08:11:54Z</time>
      </trkpt>
      <trkpt lat="44.42457" lon="5.79526">
        <ele>746</ele>
        <time>2019-06-15T08:11:55Z</time>
      </trkpt>
      <trkpt lat="44.42462" lon="5.79529">
        <ele>746</ele>
        <time>2019-06-15T08:11:56Z</time>
      </trkpt>
      <trkpt lat="44.42466" lon="5.79531">
        <ele>746</ele>
        <time>2019-06-15T08:11:57Z</time>
      </trkpt>
      <trkpt lat="44.42471" lon="5.79534">
        <ele>746</ele>
        <time>2019-06-15T08:11:58Z</time>
      </trkpt>
      <trkpt lat="44.42475" lon="5.79537">
        <ele>746</ele>
        <time>2019-06-15T08:11:59Z</time>
      </trkpt>
      <trkpt lat="44.4248" lon="5.7954">
        <ele>746</ele>
        <time>2019-06-15T08:12:00Z</time>
      </trkpt>
      <trkpt lat="44.42484" lon="5.79542">
        <ele>746</ele>
        <time>2019-06-15T08:12:01Z</time>
      </trkpt>
      <trkpt lat="44.42488" lon="5.79545">
        <ele>746</ele>
        <time>2019-06-15T08:12:02Z</time>
      </trkpt>
      <trkpt lat="44.42493" lon="5.79548">
        <ele>746</ele>
        <time>2019-06-15T08:12:03Z</time>
      </trkpt>
      <trkpt lat="44.42497" lon="5.79551">
        <ele>746</ele>
        <time>2019-06-15T08:12:04Z</time>
      </trkpt>
      <trkpt lat="44.42502" lon="5.79555">
        <ele>746</ele>
        <time>2019-06-15T08:12:05Z</time>
      </trkpt>
      <trkpt lat="44.42507" lon="5.79558">
        <ele>746</ele>
        <time>2019-06-15T08:12:06Z</time>
      </trkpt>
      <trkpt lat="44.42511" lon="5.79561">
        <ele>746</ele>
        <time>2019-06-15T08:12:07Z</time>
      </trkpt>
      <trkpt lat="44.42516" lon="5.79564">
        <ele>746</ele>
        <time>2019-06-15T08:12:08Z</time>
      </trkpt>
      <trkpt lat="44.4252" lon="5.79567">
        <ele>746</ele>
        <time>2019-06-15T08:12:09Z</time>
      </trkpt>
      <trkpt lat="44.42525" lon="5.7957">
        <ele>746</ele>
        <time>2019-06-15T08:12:10Z</time>
      </trkpt>
      <trkpt lat="44.4253" lon="5.79573">
        <ele>746</ele>
        <time>2019-06-15T08:12:11Z</time>
      </trkpt>
      <trkpt lat="44.42535" lon="5.79576">
        <ele>746</ele>
        <time>2019-06-15T08:12:12Z</time>
      </trkpt>
      <trkpt lat="44.4254" lon="5.79579">
        <ele>746</ele>
        <time>2019-06-15T08:12:13Z</time>
      </trkpt>
      <trkpt lat="44.42544" lon="5.79583">
        <ele>746</ele>
        <time>2019-06-15T08:12:14Z</time>
      </trkpt>
      <trkpt lat="44.42548" lon="5.79585">
        <ele>746</ele>
        <time>2019-06-15T08:12:15Z</time>
      </trkpt>
      <trkpt lat="44.42553" lon="5.79588">
        <ele>747</ele>
        <time>2019-06-15T08:12:16Z</time>
      </trkpt>
      <trkpt lat="44.42557" lon="5.79591">
        <ele>747</ele>
        <time>2019-06-15T08:12:17Z</time>
      </trkpt>
      <trkpt lat="44.42562" lon="5.79594">
        <ele>747</ele>
        <time>2019-06-15T08:12:18Z</time>
      </trkpt>
      <trkpt lat="44.42566" lon="5.79596">
        <ele>747</ele>
        <time>2019-06-15T08:12:19Z</time>
      </trkpt>
      <trkpt lat="44.42571" lon="5.79598">
        <ele>748</ele>
        <time>2019-06-15T08:12:20Z</time>
      </trkpt>
      <trkpt lat="44.42575" lon="5.796">
        <ele>748</ele>
        <time>2019-06-15T08:12:21Z</time>
      </trkpt>
      <trkpt lat="44.4258" lon="5.79601">
        <ele>748</ele>
        <time>2019-06-15T08:12:22Z</time>
      </trkpt>
      <trkpt lat="44.42584" lon="5.79602">
        <ele>748</ele>
        <time>2019-06-15T08:12:23Z</time>
      </trkpt>
      <trkpt lat="44.42588" lon="5.79603">
        <ele>748</ele>
        <time>2019-06-15T08:12:24Z</time>
      </trkpt>
      <trkpt lat="44.42593" lon="5.79605">
        <ele>748</ele>
        <time>2019-06-15T08:12:25Z</time>
      </trkpt>
      <trkpt lat="44.42597" lon="5.79606">
        <ele>749</ele>
        <time>2019-06-15T08:12:26Z</time>
      </trkpt>
      <trkpt lat="44.42602" lon="5.79606">
        <ele>749</ele>
        <time>2019-06-15T08:12:27Z</time>
      </trkpt>
      <trkpt lat="44.42607" lon="5.79607">
        <ele>749</ele>
        <time>2019-06-15T08:12:28Z</time>
      </trkpt>
      <trkpt lat="44.42611" lon="5.79607">
        <ele>749</ele>
        <time>2019-06-15T08:12:29Z</time>
      </trkpt>
      <trkpt lat="44.42615" lon="5.79607">
        <ele>750</ele>
        <time>2019-06-15T08:12:30Z</time>
      </trkpt>
      <trkpt lat="44.4262" lon="5.79608">
        <ele>750</ele>
        <time>2019-06-15T08:12:31Z</time>
      </trkpt>
      <trkpt lat="44.42624" lon="5.79608">
        <ele>750</ele>
        <time>2019-06-15T08:12:32Z</time>
      </trkpt>
      <trkpt lat="44.42628" lon="5.79609">
        <ele>751</ele>
        <time>2019-06-15T08:12:33Z</time>
      </trkpt>
      <trkpt lat="44.42632" lon="5.79609">
        <ele>751</ele>
        <time>2019-06-15T08:12:34Z</time>
      </trkpt>
      <trkpt lat="44.42636" lon="5.79609">
        <ele>751</ele>
        <time>2019-06-15T08:12:35Z</time>
      </trkpt>
      <trkpt lat="44.4264" lon="5.79609">
        <ele>752</ele>
        <time>2019-06-15T08:12:36Z</time>
      </trkpt>
      <trkpt lat="44.42644" lon="5.79609">
        <ele>752</ele>
        <time>2019-06-15T08:12:37Z</time>
      </trkpt>
      <trkpt lat="44.42648" lon="5.79609">
        <ele>752</ele>
        <time>2019-06-15T08:12:38Z</time>
      </trkpt>
      <trkpt lat="44.42652" lon="5.79609">
        <ele>753</ele>
        <time>2019-06-15T08:12:39Z</time>
      </trkpt>
      <trkpt lat="44.42656" lon="5.79609">
        <ele>753</ele>
        <time>2019-06-15T08:12:40Z</time>
      </trkpt>
      <trkpt lat="44.42661" lon="5.79608">
        <ele>753</ele>
        <time>2019-06-15T08:12:41Z</time>
      </trkpt>
      <trkpt lat="44.42665" lon="5.79607">
        <ele>753</ele>
        <time>2019-06-15T08:12:42Z</time>
      </trkpt>
      <trkpt lat="44.42669" lon="5.79605">
        <ele>753</ele>
        <time>2019-06-15T08:12:43Z</time>
      </trkpt>
      <trkpt lat="44.42673" lon="5.79603">
        <ele>754</ele>
        <time>2019-06-15T08:12:44Z</time>
      </trkpt>
      <trkpt lat="44.42677" lon="5.79601">
        <ele>754</ele>
        <time>2019-06-15T08:12:45Z</time>
      </trkpt>
      <trkpt lat="44.42681" lon="5.79598">
        <ele>754</ele>
        <time>2019-06-15T08:12:46Z</time>
      </trkpt>
      <trkpt lat="44.42685" lon="5.79596">
        <ele>754</ele>
        <time>2019-06-15T08:12:47Z</time>
      </trkpt>
      <trkpt lat="44.42689" lon="5.79593">
        <ele>754</ele>
        <time>2019-06-15T08:12:48Z</time>
      </trkpt>
      <trkpt lat="44.42693" lon="5.7959">
        <ele>754</ele>
        <time>2019-06-15T08:12:49Z</time>
      </trkpt>
      <trkpt lat="44.42696" lon="5.79587">
        <ele>754</ele>
        <time>2019-06-15T08:12:50Z</time>
      </trkpt>
      <trkpt lat="44.427" lon="5.79584">
        <ele>754</ele>
        <time>2019-06-15T08:12:51Z</time>
      </trkpt>
      <trkpt lat="44.42704" lon="5.7958">
        <ele>754</ele>
        <time>2019-06-15T08:12:52Z</time>
      </trkpt>
      <trkpt lat="44.42707" lon="5.79576">
        <ele>754</ele>
        <time>2019-06-15T08:12:53Z</time>
      </trkpt>
      <trkpt lat="44.4271" lon="5.79572">
        <ele>754</ele>
        <time>2019-06-15T08:12:54Z</time>
      </trkpt>
      <trkpt lat="44.42712" lon="5.79567">
        <ele>754</ele>
        <time>2019-06-15T08:12:55Z</time>
      </trkpt>
      <trkpt lat="44.42715" lon="5.79562">
        <ele>755</ele>
        <time>2019-06-15T08:12:56Z</time>
      </trkpt>
      <trkpt lat="44.42717" lon="5.79557">
        <ele>755</ele>
        <time>2019-06-15T08:12:57Z</time>
      </trkpt>
      <trkpt lat="44.42719" lon="5.79551">
        <ele>755</ele>
        <time>2019-06-15T08:12:58Z</time>
      </trkpt>
      <trkpt lat="44.4272" lon="5.79546">
        <ele>756</ele>
        <time>2019-06-15T08:12:59Z</time>
      </trkpt>
      <trkpt lat="44.42722" lon="5.7954">
        <ele>756</ele>
        <time>2019-06-15T08:13:00Z</time>
      </trkpt>
      <trkpt lat="44.42725" lon="5.79534">
        <ele>756</ele>
        <time>2019-06-15T08:13:01Z</time>
      </trkpt>
      <trkpt lat="44.42727" lon="5.79528">
        <ele>757</ele>
        <time>2019-06-15T08:13:02Z</time>
      </trkpt>
      <trkpt lat="44.42729" lon="5.79521">
        <ele>757</ele>
        <time>2019-06-15T08:13:03Z</time>
      </trkpt>
      <trkpt lat="44.42732" lon="5.79515">
        <ele>757</ele>
        <time>2019-06-15T08:13:04Z</time>
      </trkpt>
      <trkpt lat="44.42735" lon="5.7951">
        <ele>757</ele>
        <time>2019-06-15T08:13:05Z</time>
      </trkpt>
      <trkpt lat="44.42739" lon="5.79506">
        <ele>757</ele>
        <time>2019-06-15T08:13:06Z</time>
      </trkpt>
      <trkpt lat="44.42743" lon="5.79502">
        <ele>757</ele>
        <time>2019-06-15T08:13:07Z</time>
      </trkpt>
      <trkpt lat="44.42747" lon="5.79499">
        <ele>757</ele>
        <time>2019-06-15T08:13:08Z</time>
      </trkpt>
      <trkpt lat="44.42751" lon="5.79496">
        <ele>758</ele>
        <time>2019-06-15T08:13:09Z</time>
      </trkpt>
      <trkpt lat="44.42755" lon="5.79494">
        <ele>758</ele>
        <time>2019-06-15T08:13:10Z</time>
      </trkpt>
      <trkpt lat="44.42759" lon="5.79493">
        <ele>758</ele>
        <time>2019-06-15T08:13:11Z</time>
      </trkpt>
      <trkpt lat="44.42763" lon="5.79492">
        <ele>758</ele>
        <time>2019-06-15T08:13:12Z</time>
      </trkpt>
      <trkpt lat="44.42767" lon="5.79492">
        <ele>759</ele>
        <time>2019-06-15T08:13:13Z</time>
      </trkpt>
      <trkpt lat="44.42771" lon="5.79492">
        <ele>759</ele>
        <time>2019-06-15T08:13:14Z</time>
      </trkpt>
      <trkpt lat="44.42774" lon="5.79492">
        <ele>759</ele>
        <time>2019-06-15T08:13:15Z</time>
      </trkpt>
      <trkpt lat="44.42778" lon="5.79492">
        <ele>760</ele>
        <time>2019-06-15T08:13:16Z</time>
      </trkpt>
      <trkpt lat="44.42782" lon="5.79492">
        <ele>760</ele>
        <time>2019-06-15T08:13:17Z</time>
      </trkpt>
      <trkpt lat="44.42786" lon="5.79492">
        <ele>760</ele>
        <time>2019-06-15T08:13:18Z</time>
      </trkpt>
      <trkpt lat="44.42789" lon="5.79493">
        <ele>760</ele>
        <time>2019-06-15T08:13:19Z</time>
      </trkpt>
      <trkpt lat="44.42793" lon="5.79494">
        <ele>761</ele>
        <time>2019-06-15T08:13:20Z</time>
      </trkpt>
      <trkpt lat="44.42797" lon="5.79496">
        <ele>761</ele>
        <time>2019-06-15T08:13:21Z</time>
      </trkpt>
      <trkpt lat="44.428" lon="5.79497">
        <ele>761</ele>
        <time>2019-06-15T08:13:22Z</time>
      </trkpt>
      <trkpt lat="44.42803" lon="5.79498">
        <ele>761</ele>
        <time>2019-06-15T08:13:23Z</time>
      </trkpt>
      <trkpt lat="44.42807" lon="5.79498">
        <ele>762</ele>
        <time>2019-06-15T08:13:24Z</time>
      </trkpt>
      <trkpt lat="44.4281" lon="5.79497">
        <ele>762</ele>
        <time>2019-06-15T08:13:25Z</time>
      </trkpt>
      <trkpt lat="44.42813" lon="5.79496">
        <ele>762</ele>
        <time>2019-06-15T08:13:26Z</time>
      </trkpt>
      <trkpt lat="44.42817" lon="5.79495">
        <ele>762</ele>
        <time>2019-06-15T08:13:27Z</time>
      </trkpt>
      <trkpt lat="44.4282" lon="5.79493">
        <ele>762</ele>
        <time>2019-06-15T08:13:28Z</time>
      </trkpt>
      <trkpt lat="44.42823" lon="5.79491">
        <ele>762</ele>
        <time>2019-06-15T08:13:29Z</time>
      </trkpt>
      <trkpt lat="44.42826" lon="5.79489">
        <ele>762</ele>
        <time>2019-06-15T08:13:30Z</time>
      </trkpt>
      <trkpt lat="44.4283" lon="5.79487">
        <ele>763</ele>
        <time>2019-06-15T08:13:31Z</time>
      </trkpt>
      <trkpt lat="44.42833" lon="5.79485">
        <ele>763</ele>
        <time>2019-06-15T08:13:32Z</time>
      </trkpt>
      <trkpt lat="44.42835" lon="5.79482">
        <ele>763</ele>
        <time>2019-06-15T08:13:33Z</time>
      </trkpt>
      <trkpt lat="44.42838" lon="5.79479">
        <ele>763</ele>
        <time>2019-06-15T08:13:34Z</time>
      </trkpt>
      <trkpt lat="44.42841" lon="5.79477">
        <ele>763</ele>
        <time>2019-06-15T08:13:35Z</time>
      </trkpt>
      <trkpt lat="44.42843" lon="5.79474">
        <ele>764</ele>
        <time>2019-06-15T08:13:36Z</time>
      </trkpt>
      <trkpt lat="44.42846" lon="5.79471">
        <ele>764</ele>
        <time>2019-06-15T08:13:37Z</time>
      </trkpt>
      <trkpt lat="44.42849" lon="5.79469">
        <ele>764</ele>
        <time>2019-06-15T08:13:38Z</time>
      </trkpt>
      <trkpt lat="44.42852" lon="5.79466">
        <ele>764</ele>
        <time>2019-06-15T08:13:39Z</time>
      </trkpt>
      <trkpt lat="44.42855" lon="5.79464">
        <ele>765</ele>
        <time>2019-06-15T08:13:40Z</time>
      </trkpt>
      <trkpt lat="44.42858" lon="5.79462">
        <ele>765</ele>
        <time>2019-06-15T08:13:41Z</time>
      </trkpt>
      <trkpt lat="44.42861" lon="5.7946">
        <ele>765</ele>
        <time>2019-06-15T08:13:42Z</time>
      </trkpt>
      <trkpt lat="44.42864" lon="5.79459">
        <ele>765</ele>
        <time>2019-06-15T08:13:43Z</time>
      </trkpt>
      <trkpt lat="44.42867" lon="5.79458">
        <ele>766</ele>
        <time>2019-06-15T08:13:44Z</time>
      </trkpt>
      <trkpt lat="44.4287" lon="5.79458">
        <ele>766</ele>
        <time>2019-06-15T08:13:45Z</time>
      </trkpt>
      <trkpt lat="44.42873" lon="5.79458">
        <ele>766</ele>
        <time>2019-06-15T08:13:46Z</time>
      </trkpt>
      <trkpt lat="44.42877" lon="5.79458">
        <ele>767</ele>
        <time>2019-06-15T08:13:47Z</time>
      </trkpt>
      <trkpt lat="44.4288" lon="5.79459">
        <ele>767</ele>
        <time>2019-06-15T08:13:48Z</time>
      </trkpt>
      <trkpt lat="44.42883" lon="5.7946">
        <ele>767</ele>
        <time>2019-06-15T08:13:49Z</time>
      </trkpt>
      <trkpt lat="44.42886" lon="5.79462">
        <ele>768</ele>
        <time>2019-06-15T08:13:50Z</time>
      </trkpt>
      <trkpt lat="44.42889" lon="5.79464">
        <ele>768</ele>
        <time>2019-06-15T08:13:51Z</time>
      </trkpt>
      <trkpt lat="44.42891" lon="5.79466">
        <ele>768</ele>
        <time>2019-06-15T08:13:52Z</time>
      </trkpt>
      <trkpt lat="44.42894" lon="5.79468">
        <ele>769</ele>
        <time>2019-06-15T08:13:53Z</time>
      </trkpt>
      <trkpt lat="44.42896" lon="5.7947">
        <ele>769</ele>
        <time>2019-06-15T08:13:54Z</time>
      </trkpt>
      <trkpt lat="44.42898" lon="5.79472">
        <ele>769</ele>
        <time>2019-06-15T08:13:55Z</time>
      </trkpt>
      <trkpt lat="44.42901" lon="5.79474">
        <ele>770</ele>
        <time>2019-06-15T08:13:56Z</time>
      </trkpt>
      <trkpt lat="44.42903" lon="5.79476">
        <ele>770</ele>
        <time>2019-06-15T08:13:57Z</time>
      </trkpt>
      <trkpt lat="44.42906" lon="5.79479">
        <ele>770</ele>
        <time>2019-06-15T08:13:58Z</time>
      </trkpt>
      <trkpt lat="44.42908" lon="5.79481">
        <ele>770</ele>
        <time>2019-06-15T08:13:59Z</time>
      </trkpt>
      <trkpt lat="44.4291" lon="5.79483">
        <ele>771</ele>
        <time>2019-06-15T08:14:00Z</time>
      </trkpt>
      <trkpt lat="44.42913" lon="5.79485">
        <ele>771</ele>
        <time>2019-06-15T08:14:01Z</time>
      </trkpt>
      <trkpt lat="44.42915" lon="5.79486">
        <ele>771</ele>
        <time>2019-06-15T08:14:02Z</time>
      </trkpt>
      <trkpt lat="44.42918" lon="5.79487">
        <ele>771</ele>
        <time>2019-06-15T08:14:03Z</time>
      </trkpt>
      <trkpt lat="44.4292" lon="5.79489">
        <ele>771</ele>
        <time>2019-06-15T08:14:04Z</time>
      </trkpt>
      <trkpt lat="44.42923" lon="5.7949">
        <ele>772</ele>
        <time>2019-06-15T08:14:05Z</time>
      </trkpt>
      <trkpt lat="44.42925" lon="5.79491">
        <ele>772</ele>
        <time>2019-06-15T08:14:06Z</time>
      </trkpt>
      <trkpt lat="44.42927" lon="5.79493">
        <ele>772</ele>
        <time>2019-06-15T08:14:07Z</time>
      </trkpt>
      <trkpt lat="44.42929" lon="5.79494">
        <ele>772</ele>
        <time>2019-06-15T08:14:08Z</time>
      </trkpt>
      <trkpt lat="44.42932" lon="5.79496">
        <ele>772</ele>
        <time>2019-06-15T08:14:09Z</time>
      </trkpt>
      <trkpt lat="44.42934" lon="5.79498">
        <ele>772</ele>
        <time>2019-06-15T08:14:10Z</time>
      </trkpt>
      <trkpt lat="44.42936" lon="5.795">
        <ele>773</ele>
        <time>2019-06-15T08:14:11Z</time>
      </trkpt>
      <trkpt lat="44.42938" lon="5.79502">
        <ele>773</ele>
        <time>2019-06-15T08:14:12Z</time>
      </trkpt>
      <trkpt lat="44.42939" lon="5.79505">
        <ele>773</ele>
        <time>2019-06-15T08:14:13Z</time>
      </trkpt>
      <trkpt lat="44.42941" lon="5.79508">
        <ele>773</ele>
        <time>2019-06-15T08:14:14Z</time>
      </trkpt>
      <trkpt lat="44.42941" lon="5.79512">
        <ele>774</ele>
        <time>2019-06-15T08:14:15Z</time>
      </trkpt>
      <trkpt lat="44.42942" lon="5.79516">
        <ele>774</ele>
        <time>2019-06-15T08:14:16Z</time>
      </trkpt>
      <trkpt lat="44.42943" lon="5.79519">
        <ele>774</ele>
        <time>2019-06-15T08:14:17Z</time>
      </trkpt>
      <trkpt lat="44.42943" lon="5.79523">
        <ele>774</ele>
        <time>2019-06-15T08:14:18Z</time>
      </trkpt>
      <trkpt lat="44.42944" lon="5.79526">
        <ele>774</ele>
        <time>2019-06-15T08:14:19Z</time>
      </trkpt>
      <trkpt lat="44.42946" lon="5.7953">
        <ele>774</ele>
        <time>2019-06-15T08:14:20Z</time>
      </trkpt>
      <trkpt lat="44.42948" lon="5.79533">
        <ele>774</ele>
        <time>2019-06-15T08:14:21Z</time>
      </trkpt>
      <trkpt lat="44.4295" lon="5.79535">
        <ele>775</ele>
        <time>2019-06-15T08:14:22Z</time>
      </trkpt>
      <trkpt lat="44.42953" lon="5.79536">
        <ele>775</ele>
        <time>2019-06-15T08:14:23Z</time>
      </trkpt>
      <trkpt lat="44.42956" lon="5.79536">
        <ele>775</ele>
        <time>2019-06-15T08:14:24Z</time>
      </trkpt>
      <trkpt lat="44.42958" lon="5.79535">
        <ele>776</ele>
        <time>2019-06-15T08:14:25Z</time>
      </trkpt>
      <trkpt lat="44.42961" lon="5.79534">
        <ele>776</ele>
        <time>2019-06-15T08:14:26Z</time>
      </trkpt>
      <trkpt lat="44.42963" lon="5.79532">
        <ele>776</ele>
        <time>2019-06-15T08:14:27Z</time>
      </trkpt>
      <trkpt lat="44.42965" lon="5.7953">
        <ele>776</ele>
        <time>2019-06-15T08:14:28Z</time>
      </trkpt>
      <trkpt lat="44.42966" lon="5.79527">
        <ele>777</ele>
        <time>2019-06-15T08:14:29Z</time>
      </trkpt>
      <trkpt lat="44.42968" lon="5.79524">
        <ele>777</ele>
        <time>2019-06-15T08:14:30Z</time>
      </trkpt>
      <trkpt lat="44.4297" lon="5.79521">
        <ele>777</ele>
        <time>2019-06-15T08:14:31Z</time>
      </trkpt>
      <trkpt lat="44.42971" lon="5.79519">
        <ele>777</ele>
        <time>2019-06-15T08:14:32Z</time>
      </trkpt>
      <trkpt lat="44.42973" lon="5.79516">
        <ele>778</ele>
        <time>2019-06-15T08:14:33Z</time>
      </trkpt>
      <trkpt lat="44.42975" lon="5.79514">
        <ele>778</ele>
        <time>2019-06-15T08:14:34Z</time>
      </trkpt>
      <trkpt lat="44.42976" lon="5.79511">
        <ele>778</ele>
        <time>2019-06-15T08:14:35Z</time>
      </trkpt>
      <trkpt lat="44.42978" lon="5.79509">
        <ele>778</ele>
        <time>2019-06-15T08:14:36Z</time>
      </trkpt>
      <trkpt lat="44.4298" lon="5.79507">
        <ele>778</ele>
        <time>2019-06-15T08:14:37Z</time>
      </trkpt>
      <trkpt lat="44.42981" lon="5.79504">
        <ele>778</ele>
        <time>2019-06-15T08:14:38Z</time>
      </trkpt>
      <trkpt lat="44.42983" lon="5.79502">
        <ele>778</ele>
        <time>2019-06-15T08:14:39Z</time>
      </trkpt>
      <trkpt lat="44.42984" lon="5.795">
        <ele>778</ele>
        <time>2019-06-15T08:14:40Z</time>
      </trkpt>
      <trkpt lat="44.42986" lon="5.79498">
        <ele>779</ele>
        <time>2019-06-15T08:14:41Z</time>
      </trkpt>
      <trkpt lat="44.42988" lon="5.79496">
        <ele>779</ele>
        <time>2019-06-15T08:14:42Z</time>
      </trkpt>
      <trkpt lat="44.42989" lon="5.79493">
        <ele>779</ele>
        <time>2019-06-15T08:14:43Z</time>
      </trkpt>
      <trkpt lat="44.42991" lon="5.79491">
        <ele>779</ele>
        <time>2019-06-15T08:14:44Z</time>
      </trkpt>
      <trkpt lat="44.42993" lon="5.79489">
        <ele>780</ele>
        <time>2019-06-15T08:14:45Z</time>
      </trkpt>
      <trkpt lat="44.42995" lon="5.79487">
        <ele>780</ele>
        <time>2019-06-15T08:14:46Z</time>
      </trkpt>
      <trkpt lat="44.42996" lon="5.79485">
        <ele>780</ele>
        <time>2019-06-15T08:14:47Z</time>
      </trkpt>
      <trkpt lat="44.42997" lon="5.79482">
        <ele>780</ele>
        <time>2019-06-15T08:14:48Z</time>
      </trkpt>
      <trkpt lat="44.42999" lon="5.79479">
        <ele>780</ele>
        <time>2019-06-15T08:14:49Z</time>
      </trkpt>
      <trkpt lat="44.43" lon="5.79477">
        <ele>780</ele>
        <time>2019-06-15T08:14:50Z</time>
      </trkpt>
      <trkpt lat="44.43001" lon="5.79474">
        <ele>781</ele>
        <time>2019-06-15T08:14:51Z</time>
      </trkpt>
      <trkpt lat="44.43002" lon="5.79471">
        <ele>781</ele>
        <time>2019-06-15T08:14:52Z</time>
      </trkpt>
      <trkpt lat="44.43003" lon="5.79469">
        <ele>781</ele>
        <time>2019-06-15T08:14:53Z</time>
      </trkpt>
      <trkpt lat="44.43004" lon="5.79466">
        <ele>782</ele>
        <time>2019-06-15T08:14:54Z</time>
      </trkpt>
      <trkpt lat="44.43005" lon="5.79463">
        <ele>782</ele>
        <time>2019-06-15T08:14:55Z</time>
      </trkpt>
      <trkpt lat="44.43006" lon="5.79461">
        <ele>782</ele>
        <time>2019-06-15T08:14:56Z</time>
      </trkpt>
      <trkpt lat="44.43007" lon="5.79458">
        <ele>782</ele>
        <time>2019-06-15T08:14:57Z</time>
      </trkpt>
      <trkpt lat="44.43007" lon="5.79455">
        <ele>783</ele>
        <time>2019-06-15T08:14:58Z</time>
      </trkpt>
      <trkpt lat="44.43008" lon="5.79452">
        <ele>783</ele>
        <time>2019-06-15T08:14:59Z</time>
      </trkpt>
      <trkpt lat="44.43008" lon="5.79449">
        <ele>783</ele>
        <time>2019-06-15T08:15:00Z</time>
      </trkpt>
      <trkpt lat="44.43009" lon="5.79446">
        <ele>783</ele>
        <time>2019-06-15T08:15:01Z</time>
      </trkpt>
      <trkpt lat="44.4301" lon="5.79442">
        <ele>784</ele>
        <time>2019-06-15T08:15:02Z</time>
      </trkpt>
      <trkpt lat="44.4301" lon="5.79439">
        <ele>784</ele>
        <time>2019-06-15T08:15:03Z</time>
      </trkpt>
      <trkpt lat="44.4301" lon="5.79436">
        <ele>784</ele>
        <time>2019-06-15T08:15:04Z</time>
      </trkpt>
      <trkpt lat="44.43011" lon="5.79433">
        <ele>784</ele>
        <time>2019-06-15T08:15:05Z</time>
      </trkpt>
      <trkpt lat="44.43012" lon="5.79431">
        <ele>785</ele>
        <time>2019-06-15T08:15:06Z</time>
      </trkpt>
      <trkpt lat="44.43013" lon="5.79428">
        <ele>785</ele>
        <time>2019-06-15T08:15:07Z</time>
      </trkpt>
      <trkpt lat="44.43015" lon="5.79426">
        <ele>785</ele>
        <time>2019-06-15T08:15:08Z</time>
      </trkpt>
      <trkpt lat="44.43016" lon="5.79425">
        <ele>785</ele>
        <time>2019-06-15T08:15:09Z</time>
      </trkpt>
      <trkpt lat="44.43018" lon="5.79423">
        <ele>785</ele>
        <time>2019-06-15T08:15:10Z</time>
      </trkpt>
      <trkpt lat="44.43019" lon="5.79422">
        <ele>786</ele>
        <time>2019-06-15T08:15:11Z</time>
      </trkpt>
      <trkpt lat="44.43021" lon="5.79421">
        <ele>786</ele>
        <time>2019-06-15T08:15:12Z</time>
      </trkpt>
      <trkpt lat="44.43023" lon="5.7942">
        <ele>786</ele>
        <time>2019-06-15T08:15:13Z</time>
      </trkpt>
      <trkpt lat="44.43025" lon="5.79419">
        <ele>786</ele>
        <time>2019-06-15T08:15:14Z</time>
      </trkpt>
      <trkpt lat="44.43027" lon="5.79419">
        <ele>787</ele>
        <time>2019-06-15T08:15:15Z</time>
      </trkpt>
      <trkpt lat="44.43029" lon="5.79418">
        <ele>787</ele>
        <time>2019-06-15T08:15:16Z</time>
      </trkpt>
      <trkpt lat="44.43031" lon="5.79417">
        <ele>787</ele>
        <time>2019-06-15T08:15:17Z</time>
      </trkpt>
      <trkpt lat="44.43033" lon="5.79415">
        <ele>787</ele>
        <time>2019-06-15T08:15:18Z</time>
      </trkpt>
      <trkpt lat="44.43035" lon="5.79414">
        <ele>787</ele>
        <time>2019-06-15T08:15:19Z</time>
      </trkpt>
      <trkpt lat="44.43037" lon="5.79412">
        <ele>787</ele>
        <time>2019-06-15T08:15:20Z</time>
      </trkpt>
      <trkpt lat="44.43038" lon="5.7941">
        <ele>787</ele>
        <time>2019-06-15T08:15:21Z</time>
      </trkpt>
      <trkpt lat="44.4304" lon="5.79408">
        <ele>788</ele>
        <time>2019-06-15T08:15:22Z</time>
      </trkpt>
      <trkpt lat="44.43042" lon="5.79407">
        <ele>788</ele>
        <time>2019-06-15T08:15:23Z</time>
      </trkpt>
      <trkpt lat="44.43043" lon="5.79405">
        <ele>788</ele>
        <time>2019-06-15T08:15:24Z</time>
      </trkpt>
      <trkpt lat="44.43045" lon="5.79403">
        <ele>788</ele>
        <time>2019-06-15T08:15:25Z</time>
      </trkpt>
      <trkpt lat="44.43047" lon="5.794">
        <ele>788</ele>
        <time>2019-06-15T08:15:26Z</time>
      </trkpt>
      <trkpt lat="44.43048" lon="5.79397">
        <ele>788</ele>
        <time>2019-06-15T08:15:27Z</time>
      </trkpt>
      <trkpt lat="44.4305" lon="5.79395">
        <ele>788</ele>
        <time>2019-06-15T08:15:28Z</time>
      </trkpt>
      <trkpt lat="44.43052" lon="5.79392">
        <ele>789</ele>
        <time>2019-06-15T08:15:29Z</time>
      </trkpt>
      <trkpt lat="44.43053" lon="5.79389">
        <ele>789</ele>
        <time>2019-06-15T08:15:30Z</time>
      </trkpt>
      <trkpt lat="44.43054" lon="5.79386">
        <ele>789</ele>
        <time>2019-06-15T08:15:31Z</time>
      </trkpt>
      <trkpt lat="44.43055" lon="5.79383">
        <ele>790</ele>
        <time>2019-06-15T08:15:32Z</time>
      </trkpt>
      <trkpt lat="44.43055" lon="5.79379">
        <ele>790</ele>
        <time>2019-06-15T08:15:33Z</time>
      </trkpt>
      <trkpt lat="44.43056" lon="5.79376">
        <ele>790</ele>
        <time>2019-06-15T08:15:34Z</time>
      </trkpt>
      <trkpt lat="44.43055" lon="5.79372">
        <ele>790</ele>
        <time>2019-06-15T08:15:35Z</time>
      </trkpt>
      <trkpt lat="44.43055" lon="5.79369">
        <ele>791</ele>
        <time>2019-06-15T08:15:36Z</time>
      </trkpt>
      <trkpt lat="44.43053" lon="5.79366">
        <ele>791</ele>
        <time>2019-06-15T08:15:37Z</time>
      </trkpt>
      <trkpt lat="44.43052" lon="5.79363">
        <ele>791</ele>
        <time>2019-06-15T08:15:38Z</time>
      </trkpt>
      <trkpt lat="44.4305" lon="5.79361">
        <ele>791</ele>
        <time>2019-06-15T08:15:39Z</time>
      </trkpt>
      <trkpt lat="44.43048" lon="5.7936">
        <ele>792</ele>
        <time>2019-06-15T08:15:40Z</time>
      </trkpt>
      <trkpt lat="44.43045" lon="5.79358">
        <ele>792</ele>
        <time>2019-06-15T08:15:41Z</time>
      </trkpt>
      <trkpt lat="44.43043" lon="5.79356">
        <ele>792</ele>
        <time>2019-06-15T08:15:42Z</time>
      </trkpt>
      <trkpt lat="44.4304" lon="5.79354">
        <ele>792</ele>
        <time>2019-06-15T08:15:43Z</time>
      </trkpt>
      <trkpt lat="44.43038" lon="5.79353">
        <ele>792</ele>
        <time>2019-06-15T08:15:44Z</time>
      </trkpt>
      <trkpt lat="44.43035" lon="5.79352">
        <ele>792</ele>
        <time>2019-06-15T08:15:45Z</time>
      </trkpt>
      <trkpt lat="44.43032" lon="5.79351">
        <ele>792</ele>
        <time>2019-06-15T08:15:46Z</time>
      </trkpt>
      <trkpt lat="44.4303" lon="5.79349">
        <ele>792</ele>
        <time>2019-06-15T08:15:47Z</time>
      </trkpt>
      <trkpt lat="44.43028" lon="5.79347">
        <ele>792</ele>
        <time>2019-06-15T08:15:48Z</time>
      </trkpt>
      <trkpt lat="44.43026" lon="5.79344">
        <ele>792</ele>
        <time>2019-06-15T08:15:49Z</time>
      </trkpt>
      <trkpt lat="44.43025" lon="5.7934">
        <ele>792</ele>
        <time>2019-06-15T08:15:50Z</time>
      </trkpt>
      <trkpt lat="44.43025" lon="5.79337">
        <ele>792</ele>
        <time>2019-06-15T08:15:51Z</time>
      </trkpt>
      <trkpt lat="44.43025" lon="5.79334">
        <ele>792</ele>
        <time>2019-06-15T08:15:52Z</time>
      </trkpt>
      <trkpt lat="44.43025" lon="5.7933">
        <ele>792</ele>
        <time>2019-06-15T08:15:53Z</time>
      </trkpt>
      <trkpt lat="44.43026" lon="5.79327">
        <ele>792</ele>
        <time>2019-06-15T08:15:54Z</time>
      </trkpt>
      <trkpt lat="44.43027" lon="5.79325">
        <ele>792</ele>
        <time>2019-06-15T08:15:55Z</time>
      </trkpt>
      <trkpt lat="44.43029" lon="5.79322">
        <ele>792</ele>
        <time>2019-06-15T08:15:56Z</time>
      </trkpt>
      <trkpt lat="44.43032" lon="5.79321">
        <ele>793</ele>
        <time>2019-06-15T08:15:57Z</time>
      </trkpt>
      <trkpt lat="44.43034" lon="5.7932">
        <ele>793</ele>
        <time>2019-06-15T08:15:58Z</time>
      </trkpt>
      <trkpt lat="44.43037" lon="5.79318">
        <ele>794</ele>
        <time>2019-06-15T08:15:59Z</time>
      </trkpt>
      <trkpt lat="44.43039" lon="5.79316">
        <ele>794</ele>
        <time>2019-06-15T08:16:00Z</time>
      </trkpt>
      <trkpt lat="44.43042" lon="5.79316">
        <ele>794</ele>
        <time>2019-06-15T08:16:01Z</time>
      </trkpt>
      <trkpt lat="44.43045" lon="5.79315">
        <ele>795</ele>
        <time>2019-06-15T08:16:02Z</time>
      </trkpt>
      <trkpt lat="44.43048" lon="5.79315">
        <ele>795</ele>
        <time>2019-06-15T08:16:03Z</time>
      </trkpt>
      <trkpt lat="44.43051" lon="5.79315">
        <ele>795</ele>
        <time>2019-06-15T08:16:04Z</time>
      </trkpt>
      <trkpt lat="44.43053" lon="5.79315">
        <ele>795</ele>
        <time>2019-06-15T08:16:05Z</time>
      </trkpt>
      <trkpt lat="44.43056" lon="5.79316">
        <ele>795</ele>
        <time>2019-06-15T08:16:06Z</time>
      </trkpt>
      <trkpt lat="44.43058" lon="5.79316">
        <ele>796</ele>
        <time>2019-06-15T08:16:07Z</time>
      </trkpt>
      <trkpt lat="44.43061" lon="5.79317">
        <ele>796</ele>
        <time>2019-06-15T08:16:08Z</time>
      </trkpt>
      <trkpt lat="44.43063" lon="5.79318">
        <ele>796</ele>
        <time>2019-06-15T08:16:09Z</time>
      </trkpt>
      <trkpt lat="44.43066" lon="5.79319">
        <ele>796</ele>
        <time>2019-06-15T08:16:10Z</time>
      </trkpt>
      <trkpt lat="44.43068" lon="5.79319">
        <ele>797</ele>
        <time>2019-06-15T08:16:11Z</time>
      </trkpt>
      <trkpt lat="44.4307" lon="5.7932">
        <ele>797</ele>
        <time>2019-06-15T08:16:12Z</time>
      </trkpt>
      <trkpt lat="44.43073" lon="5.79321">
        <ele>798</ele>
        <time>2019-06-15T08:16:13Z</time>
      </trkpt>
      <trkpt lat="44.43075" lon="5.79323">
        <ele>798</ele>
        <time>2019-06-15T08:16:14Z</time>
      </trkpt>
      <trkpt lat="44.43077" lon="5.79324">
        <ele>798</ele>
        <time>2019-06-15T08:16:15Z</time>
      </trkpt>
      <trkpt lat="44.43079" lon="5.79326">
        <ele>799</ele>
        <time>2019-06-15T08:16:16Z</time>
      </trkpt>
      <trkpt lat="44.43081" lon="5.79328">
        <ele>799</ele>
        <time>2019-06-15T08:16:17Z</time>
      </trkpt>
      <trkpt lat="44.43083" lon="5.7933">
        <ele>799</ele>
        <time>2019-06-15T08:16:18Z</time>
      </trkpt>
      <trkpt lat="44.43085" lon="5.79332">
        <ele>800</ele>
        <time>2019-06-15T08:16:19Z</time>
      </trkpt>
      <trkpt lat="44.43087" lon="5.79333">
        <ele>800</ele>
        <time>2019-06-15T08:16:20Z</time>
      </trkpt>
      <trkpt lat="44.43089" lon="5.79335">
        <ele>800</ele>
        <time>2019-06-15T08:16:21Z</time>
      </trkpt>
      <trkpt lat="44.43092" lon="5.79337">
        <ele>800</ele>
        <time>2019-06-15T08:16:22Z</time>
      </trkpt>
      <trkpt lat="44.43093" lon="5.79339">
        <ele>801</ele>
        <time>2019-06-15T08:16:23Z</time>
      </trkpt>
      <trkpt lat="44.43095" lon="5.7934">
        <ele>801</ele>
        <time>2019-06-15T08:16:24Z</time>
      </trkpt>
      <trkpt lat="44.43097" lon="5.79342">
        <ele>801</ele>
        <time>2019-06-15T08:16:25Z</time>
      </trkpt>
      <trkpt lat="44.43099" lon="5.79344">
        <ele>802</ele>
        <time>2019-06-15T08:16:26Z</time>
      </trkpt>
      <trkpt lat="44.43101" lon="5.79345">
        <ele>802</ele>
        <time>2019-06-15T08:16:27Z</time>
      </trkpt>
      <trkpt lat="44.43103" lon="5.79347">
        <ele>802</ele>
        <time>2019-06-15T08:16:28Z</time>
      </trkpt>
      <trkpt lat="44.43105" lon="5.79348">
        <ele>803</ele>
        <time>2019-06-15T08:16:29Z</time>
      </trkpt>
      <trkpt lat="44.43107" lon="5.7935">
        <ele>803</ele>
        <time>2019-06-15T08:16:30Z</time>
      </trkpt>
      <trkpt lat="44.43108" lon="5.79352">
        <ele>804</ele>
        <time>2019-06-15T08:16:31Z</time>
      </trkpt>
      <trkpt lat="44.4311" lon="5.79354">
        <ele>804</ele>
        <time>2019-06-15T08:16:32Z</time>
      </trkpt>
      <trkpt lat="44.43112" lon="5.79356">
        <ele>805</ele>
        <time>2019-06-15T08:16:33Z</time>
      </trkpt>
      <trkpt lat="44.43114" lon="5.79358">
        <ele>805</ele>
        <time>2019-06-15T08:16:34Z</time>
      </trkpt>
      <trkpt lat="44.43116" lon="5.79359">
        <ele>805</ele>
        <time>2019-06-15T08:16:35Z</time>
      </trkpt>
      <trkpt lat="44.43118" lon="5.79361">
        <ele>806</ele>
        <time>2019-06-15T08:16:36Z</time>
      </trkpt>
      <trkpt lat="44.43119" lon="5.79364">
        <ele>806</ele>
        <time>2019-06-15T08:16:37Z</time>
      </trkpt>
      <trkpt lat="44.4312" lon="5.79367">
        <ele>806</ele>
        <time>2019-06-15T08:16:38Z</time>
      </trkpt>
      <trkpt lat="44.43122" lon="5.79369">
        <ele>806</ele>
        <time>2019-06-15T08:16:39Z</time>
      </trkpt>
      <trkpt lat="44.43124" lon="5.7937">
        <ele>807</ele>
        <time>2019-06-15T08:16:40Z</time>
      </trkpt>
      <trkpt lat="44.43126" lon="5.79371">
        <ele>807</ele>
        <time>2019-06-15T08:16:41Z</time>
      </trkpt>
      <trkpt lat="44.43127" lon="5.79373">
        <ele>807</ele>
        <time>2019-06-15T08:16:42Z</time>
      </trkpt>
      <trkpt lat="44.43129" lon="5.79375">
        <ele>807</ele>
        <time>2019-06-15T08:16:43Z</time>
      </trkpt>
      <trkpt lat="44.43131" lon="5.79377">
        <ele>807</ele>
        <time>2019-06-15T08:16:44Z</time>
      </trkpt>
      <trkpt lat="44.43132" lon="5.79379">
        <ele>807</ele>
        <time>2019-06-15T08:16:45Z</time>
      </trkpt>
      <trkpt lat="44.43134" lon="5.79381">
        <ele>807</ele>
        <time>2019-06-15T08:16:46Z</time>
      </trkpt>
      <trkpt lat="44.43136" lon="5.79382">
        <ele>808</ele>
        <time>2019-06-15T08:16:47Z</time>
      </trkpt>
      <trkpt lat="44.43138" lon="5.79384">
        <ele>808</ele>
        <time>2019-06-15T08:16:48Z</time>
      </trkpt>
      <trkpt lat="44.4314" lon="5.79386">
        <ele>808</ele>
        <time>2019-06-15T08:16:49Z</time>
      </trkpt>
      <trkpt lat="44.43142" lon="5.79388">
        <ele>808</ele>
        <time>2019-06-15T08:16:50Z</time>
      </trkpt>
      <trkpt lat="44.43143" lon="5.7939">
        <ele>808</ele>
        <time>2019-06-15T08:16:51Z</time>
      </trkpt>
      <trkpt lat="44.43145" lon="5.79393">
        <ele>808</ele>
        <time>2019-06-15T08:16:52Z</time>
      </trkpt>
      <trkpt lat="44.43146" lon="5.79396">
        <ele>808</ele>
        <time>2019-06-15T08:16:53Z</time>
      </trkpt>
      <trkpt lat="44.43147" lon="5.79399">
        <ele>809</ele>
        <time>2019-06-15T08:16:54Z</time>
      </trkpt>
      <trkpt lat="44.43148" lon="5.79402">
        <ele>809</ele>
        <time>2019-06-15T08:16:55Z</time>
      </trkpt>
      <trkpt lat="44.43148" lon="5.79406">
        <ele>809</ele>
        <time>2019-06-15T08:16:56Z</time>
      </trkpt>
      <trkpt lat="44.43149" lon="5.79409">
        <ele>809</ele>
        <time>2019-06-15T08:16:57Z</time>
      </trkpt>
      <trkpt lat="44.4315" lon="5.79412">
        <ele>810</ele>
        <time>2019-06-15T08:16:58Z</time>
      </trkpt>
      <trkpt lat="44.4315" lon="5.79415">
        <ele>810</ele>
        <time>2019-06-15T08:16:59Z</time>
      </trkpt>
      <trkpt lat="44.4315" lon="5.79419">
        <ele>810</ele>
        <time>2019-06-15T08:17:00Z</time>
      </trkpt>
      <trkpt lat="44.4315" lon="5.79422">
        <ele>810</ele>
        <time>2019-06-15T08:17:01Z</time>
      </trkpt>
      <trkpt lat="44.4315" lon="5.79425">
        <ele>810</ele>
        <time>2019-06-15T08:17:02Z</time>
      </trkpt>
      <trkpt lat="44.4315" lon="5.79429">
        <ele>811</ele>
        <time>2019-06-15T08:17:03Z</time>
      </trkpt>
      <trkpt lat="44.4315" lon="5.79432">
        <ele>811</ele>
        <time>2019-06-15T08:17:04Z</time>
      </trkpt>
      <trkpt lat="44.4315" lon="5.79436">
        <ele>811</ele>
        <time>2019-06-15T08:17:05Z</time>
      </trkpt>
      <trkpt lat="44.43149" lon="5.79439">
        <ele>811</ele>
        <time>2019-06-15T08:17:06Z</time>
      </trkpt>
      <trkpt lat="44.43149" lon="5.79442">
        <ele>812</ele>
        <time>2019-06-15T08:17:07Z</time>
      </trkpt>
      <trkpt lat="44.43148" lon="5.79445">
        <ele>812</ele>
        <time>2019-06-15T08:17:08Z</time>
      </trkpt>
      <trkpt lat="44.43148" lon="5.79447">
        <ele>812</ele>
        <time>2019-06-15T08:17:09Z</time>
      </trkpt>
      <trkpt lat="44.43147" lon="5.7945">
        <ele>813</ele>
        <time>2019-06-15T08:17:10Z</time>
      </trkpt>
      <trkpt lat="44.43147" lon="5.79453">
        <ele>813</ele>
        <time>2019-06-15T08:17:11Z</time>
      </trkpt>
      <trkpt lat="44.43146" lon="5.79456">
        <ele>813</ele>
        <time>2019-06-15T08:17:12Z</time>
      </trkpt>
      <trkpt lat="44.43145" lon="5.79459">
        <ele>813</ele>
        <time>2019-06-15T08:17:13Z</time>
      </trkpt>
      <trkpt lat="44.43145" lon="5.79461">
        <ele>813</ele>
        <time>2019-06-15T08:17:14Z</time>
      </trkpt>
      <trkpt lat="44.43144" lon="5.79464">
        <ele>813</ele>
        <time>2019-06-15T08:17:15Z</time>
      </trkpt>
      <trkpt lat="44.43143" lon="5.79467">
        <ele>813</ele>
        <time>2019-06-15T08:17:16Z</time>
      </trkpt>
      <trkpt lat="44.43142" lon="5.7947">
        <ele>813</ele>
        <time>2019-06-15T08:17:17Z</time>
      </trkpt>
      <trkpt lat="44.43141" lon="5.79473">
        <ele>813</ele>
        <time>2019-06-15T08:17:18Z</time>
      </trkpt>
      <trkpt lat="44.43141" lon="5.79476">
        <ele>813</ele>
        <time>2019-06-15T08:17:19Z</time>
      </trkpt>
      <trkpt lat="44.4314" lon="5.79479">
        <ele>814</ele>
        <time>2019-06-15T08:17:20Z</time>
      </trkpt>
      <trkpt lat="44.4314" lon="5.79482">
        <ele>814</ele>
        <time>2019-06-15T08:17:21Z</time>
      </trkpt>
      <trkpt lat="44.4314" lon="5.79485">
        <ele>814</ele>
        <time>2019-06-15T08:17:22Z</time>
      </trkpt>
      <trkpt lat="44.4314" lon="5.79488">
        <ele>814</ele>
        <time>2019-06-15T08:17:23Z</time>
      </trkpt>
      <trkpt lat="44.4314" lon="5.79491">
        <ele>815</ele>
        <time>2019-06-15T08:17:24Z</time>
      </trkpt>
      <trkpt lat="44.4314" lon="5.79494">
        <ele>815</ele>
        <time>2019-06-15T08:17:25Z</time>
      </trkpt>
      <trkpt lat="44.43141" lon="5.79498">
        <ele>815</ele>
        <time>2019-06-15T08:17:26Z</time>
      </trkpt>
      <trkpt lat="44.43141" lon="5.79502">
        <ele>815</ele>
        <time>2019-06-15T08:17:27Z</time>
      </trkpt>
      <trkpt lat="44.43141" lon="5.79505">
        <ele>815</ele>
        <time>2019-06-15T08:17:28Z</time>
      </trkpt>
      <trkpt lat="44.43142" lon="5.79509">
        <ele>815</ele>
        <time>2019-06-15T08:17:29Z</time>
      </trkpt>
      <trkpt lat="44.43143" lon="5.79511">
        <ele>815</ele>
        <time>2019-06-15T08:17:30Z</time>
      </trkpt>
      <trkpt lat="44.43145" lon="5.79514">
        <ele>815</ele>
        <time>2019-06-15T08:17:31Z</time>
      </trkpt>
      <trkpt lat="44.43146" lon="5.79516">
        <ele>815</ele>
        <time>2019-06-15T08:17:32Z</time>
      </trkpt>
      <trkpt lat="44.43148" lon="5.79517">
        <ele>815</ele>
        <time>2019-06-15T08:17:33Z</time>
      </trkpt>
      <trkpt lat="44.4315" lon="5.79517">
        <ele>816</ele>
        <time>2019-06-15T08:17:34Z</time>
      </trkpt>
      <trkpt lat="44.43152" lon="5.79518">
        <ele>816</ele>
        <time>2019-06-15T08:17:35Z</time>
      </trkpt>
      <trkpt lat="44.43154" lon="5.79517">
        <ele>816</ele>
        <time>2019-06-15T08:17:36Z</time>
      </trkpt>
      <trkpt lat="44.43155" lon="5.79516">
        <ele>817</ele>
        <time>2019-06-15T08:17:37Z</time>
      </trkpt>
      <trkpt lat="44.43157" lon="5.79515">
        <ele>817</ele>
        <time>2019-06-15T08:17:38Z</time>
      </trkpt>
      <trkpt lat="44.43158" lon="5.79512">
        <ele>817</ele>
        <time>2019-06-15T08:17:39Z</time>
      </trkpt>
      <trkpt lat="44.43158" lon="5.79509">
        <ele>817</ele>
        <time>2019-06-15T08:17:40Z</time>
      </trkpt>
      <trkpt lat="44.43159" lon="5.79506">
        <ele>817</ele>
        <time>2019-06-15T08:17:41Z</time>
      </trkpt>
      <trkpt lat="44.43159" lon="5.79503">
        <ele>817</ele>
        <time>2019-06-15T08:17:42Z</time>
      </trkpt>
      <trkpt lat="44.43159" lon="5.795">
        <ele>818</ele>
        <time>2019-06-15T08:17:43Z</time>
      </trkpt>
      <trkpt lat="44.43159" lon="5.79497">
        <ele>818</ele>
        <time>2019-06-15T08:17:44Z</time>
      </trkpt>
      <trkpt lat="44.43158" lon="5.79494">
        <ele>818</ele>
        <time>2019-06-15T08:17:45Z</time>
      </trkpt>
      <trkpt lat="44.43158" lon="5.79491">
        <ele>818</ele>
        <time>2019-06-15T08:17:46Z</time>
      </trkpt>
      <trkpt lat="44.43158" lon="5.79488">
        <ele>819</ele>
        <time>2019-06-15T08:17:47Z</time>
      </trkpt>
      <trkpt lat="44.43157" lon="5.79484">
        <ele>819</ele>
        <time>2019-06-15T08:17:48Z</time>
      </trkpt>
      <trkpt lat="44.43157" lon="5.79481">
        <ele>819</ele>
        <time>2019-06-15T08:17:49Z</time>
      </trkpt>
      <trkpt lat="44.43158" lon="5.79478">
        <ele>819</ele>
        <time>2019-06-15T08:17:50Z</time>
      </trkpt>
      <trkpt lat="44.43158" lon="5.79475">
        <ele>819</ele>
        <time>2019-06-15T08:17:51Z</time>
      </trkpt>
      <trkpt lat="44.43159" lon="5.79472">
        <ele>819</ele>
        <time>2019-06-15T08:17:52Z</time>
      </trkpt>
      <trkpt lat="44.4316" lon="5.7947">
        <ele>819</ele>
        <time>2019-06-15T08:17:53Z</time>
      </trkpt>
      <trkpt lat="44.43161" lon="5.79467">
        <ele>819</ele>
        <time>2019-06-15T08:17:54Z</time>
      </trkpt>
      <trkpt lat="44.43162" lon="5.79464">
        <ele>820</ele>
        <time>2019-06-15T08:17:55Z</time>
      </trkpt>
      <trkpt lat="44.43163" lon="5.79462">
        <ele>820</ele>
        <time>2019-06-15T08:17:56Z</time>
      </trkpt>
      <trkpt lat="44.43165" lon="5.7946">
        <ele>820</ele>
        <time>2019-06-15T08:17:57Z</time>
      </trkpt>
      <trkpt lat="44.43166" lon="5.79458">
        <ele>821</ele>
        <time>2019-06-15T08:17:58Z</time>
      </trkpt>
      <trkpt lat="44.43168" lon="5.79456">
        <ele>821</ele>
        <time>2019-06-15T08:17:59Z</time>
      </trkpt>
      <trkpt lat="44.4317" lon="5.79455">
        <ele>821</ele>
        <time>2019-06-15T08:18:00Z</time>
      </trkpt>
      <trkpt lat="44.43172" lon="5.79453">
        <ele>822</ele>
        <time>2019-06-15T08:18:01Z</time>
      </trkpt>
      <trkpt lat="44.43174" lon="5.79452">
        <ele>822</ele>
        <time>2019-06-15T08:18:02Z</time>
      </trkpt>
      <trkpt lat="44.43176" lon="5.79451">
        <ele>822</ele>
        <time>2019-06-15T08:18:03Z</time>
      </trkpt>
      <trkpt lat="44.43178" lon="5.79451">
        <ele>822</ele>
        <time>2019-06-15T08:18:04Z</time>
      </trkpt>
      <trkpt lat="44.4318" lon="5.79451">
        <ele>823</ele>
        <time>2019-06-15T08:18:05Z</time>
      </trkpt>
      <trkpt lat="44.43182" lon="5.79451">
        <ele>823</ele>
        <time>2019-06-15T08:18:06Z</time>
      </trkpt>
      <trkpt lat="44.43184" lon="5.7945">
        <ele>823</ele>
        <time>2019-06-15T08:18:07Z</time>
      </trkpt>
      <trkpt lat="44.43186" lon="5.79449">
        <ele>823</ele>
        <time>2019-06-15T08:18:08Z</time>
      </trkpt>
      <trkpt lat="44.43189" lon="5.79448">
        <ele>823</ele>
        <time>2019-06-15T08:18:09Z</time>
      </trkpt>
      <trkpt lat="44.43191" lon="5.79448">
        <ele>824</ele>
        <time>2019-06-15T08:18:10Z</time>
      </trkpt>
      <trkpt lat="44.43193" lon="5.79447">
        <ele>824</ele>
        <time>2019-06-15T08:18:11Z</time>
      </trkpt>
      <trkpt lat="44.43195" lon="5.79445">
        <ele>824</ele>
        <time>2019-06-15T08:18:12Z</time>
      </trkpt>
      <trkpt lat="44.43198" lon="5.79444">
        <ele>825</ele>
        <time>2019-06-15T08:18:13Z</time>
      </trkpt>
      <trkpt lat="44.432" lon="5.79442">
        <ele>825</ele>
        <time>2019-06-15T08:18:14Z</time>
      </trkpt>
      <trkpt lat="44.43201" lon="5.7944">
        <ele>825</ele>
        <time>2019-06-15T08:18:15Z</time>
      </trkpt>
      <trkpt lat="44.43203" lon="5.79438">
        <ele>825</ele>
        <time>2019-06-15T08:18:16Z</time>
      </trkpt>
      <trkpt lat="44.43205" lon="5.79435">
        <ele>826</ele>
        <time>2019-06-15T08:18:17Z</time>
      </trkpt>
      <trkpt lat="44.43206" lon="5.79432">
        <ele>826</ele>
        <time>2019-06-15T08:18:18Z</time>
      </trkpt>
      <trkpt lat="44.43208" lon="5.79429">
        <ele>826</ele>
        <time>2019-06-15T08:18:19Z</time>
      </trkpt>
      <trkpt lat="44.43209" lon="5.79427">
        <ele>827</ele>
        <time>2019-06-15T08:18:20Z</time>
      </trkpt>
      <trkpt lat="44.43211" lon="5.79424">
        <ele>827</ele>
        <time>2019-06-15T08:18:21Z</time>
      </trkpt>
      <trkpt lat="44.43212" lon="5.79422">
        <ele>827</ele>
        <time>2019-06-15T08:18:22Z</time>
      </trkpt>
      <trkpt lat="44.43213" lon="5.79419">
        <ele>827</ele>
        <time>2019-06-15T08:18:23Z</time>
      </trkpt>
      <trkpt lat="44.43213" lon="5.79416">
        <ele>828</ele>
        <time>2019-06-15T08:18:24Z</time>
      </trkpt>
      <trkpt lat="44.43214" lon="5.79413">
        <ele>828</ele>
        <time>2019-06-15T08:18:25Z</time>
      </trkpt>
      <trkpt lat="44.43215" lon="5.79411">
        <ele>828</ele>
        <time>2019-06-15T08:18:26Z</time>
      </trkpt>
      <trkpt lat="44.43216" lon="5.79408">
        <ele>828</ele>
        <time>2019-06-15T08:18:27Z</time>
      </trkpt>
      <trkpt lat="44.43217" lon="5.79406">
        <ele>828</ele>
        <time>2019-06-15T08:18:28Z</time>
      </trkpt>
      <trkpt lat="44.43219" lon="5.79404">
        <ele>828</ele>
        <time>2019-06-15T08:18:29Z</time>
      </trkpt>
      <trkpt lat="44.43221" lon="5.79402">
        <ele>828</ele>
        <time>2019-06-15T08:18:30Z</time>
      </trkpt>
      <trkpt lat="44.43223" lon="5.794">
        <ele>829</ele>
        <time>2019-06-15T08:18:31Z</time>
      </trkpt>
      <trkpt lat="44.43225" lon="5.79399">
        <ele>829</ele>
        <time>2019-06-15T08:18:32Z</time>
      </trkpt>
      <trkpt lat="44.43227" lon="5.79398">
        <ele>829</ele>
        <time>2019-06-15T08:18:33Z</time>
      </trkpt>
      <trkpt lat="44.43229" lon="5.79396">
        <ele>829</ele>
        <time>2019-06-15T08:18:34Z</time>
      </trkpt>
      <trkpt lat="44.4323" lon="5.79395">
        <ele>829</ele>
        <time>2019-06-15T08:18:35Z</time>
      </trkpt>
      <trkpt lat="44.43232" lon="5.79394">
        <ele>830</ele>
        <time>2019-06-15T08:18:36Z</time>
      </trkpt>
      <trkpt lat="44.43234" lon="5.79393">
        <ele>830</ele>
        <time>2019-06-15T08:18:37Z</time>
      </trkpt>
      <trkpt lat="44.43236" lon="5.79392">
        <ele>830</ele>
        <time>2019-06-15T08:18:38Z</time>
      </trkpt>
      <trkpt lat="44.43238" lon="5.7939">
        <ele>831</ele>
        <time>2019-06-15T08:18:39Z</time>
      </trkpt>
      <trkpt lat="44.43239" lon="5.79389">
        <ele>831</ele>
        <time>2019-06-15T08:18:40Z</time>
      </trkpt>
      <trkpt lat="44.43241" lon="5.79387">
        <ele>831</ele>
        <time>2019-06-15T08:18:41Z</time>
      </trkpt>
      <trkpt lat="44.43242" lon="5.79385">
        <ele>832</ele>
        <time>2019-06-15T08:18:42Z</time>
      </trkpt>
      <trkpt lat="44.43243" lon="5.79383">
        <ele>832</ele>
        <time>2019-06-15T08:18:43Z</time>
      </trkpt>
      <trkpt lat="44.43245" lon="5.79381">
        <ele>832</ele>
        <time>2019-06-15T08:18:44Z</time>
      </trkpt>
      <trkpt lat="44.43247" lon="5.79379">
        <ele>833</ele>
        <time>2019-06-15T08:18:45Z</time>
      </trkpt>
      <trkpt lat="44.43249" lon="5.79377">
        <ele>833</ele>
        <time>2019-06-15T08:18:46Z</time>
      </trkpt>
      <trkpt lat="44.43251" lon="5.79375">
        <ele>833</ele>
        <time>2019-06-15T08:18:47Z</time>
      </trkpt>
      <trkpt lat="44.43252" lon="5.79372">
        <ele>833</ele>
        <time>2019-06-15T08:18:48Z</time>
      </trkpt>
      <trkpt lat="44.43254" lon="5.7937">
        <ele>833</ele>
        <time>2019-06-15T08:18:49Z</time>
      </trkpt>
      <trkpt lat="44.43255" lon="5.79368">
        <ele>833</ele>
        <time>2019-06-15T08:18:50Z</time>
      </trkpt>
      <trkpt lat="44.43256" lon="5.79365">
        <ele>833</ele>
        <time>2019-06-15T08:18:51Z</time>
      </trkpt>
      <trkpt lat="44.43258" lon="5.79363">
        <ele>834</ele>
        <time>2019-06-15T08:18:52Z</time>
      </trkpt>
      <trkpt lat="44.43259" lon="5.7936">
        <ele>834</ele>
        <time>2019-06-15T08:18:53Z</time>
      </trkpt>
      <trkpt lat="44.43261" lon="5.79358">
        <ele>834</ele>
        <time>2019-06-15T08:18:54Z</time>
      </trkpt>
      <trkpt lat="44.43262" lon="5.79356">
        <ele>834</ele>
        <time>2019-06-15T08:18:55Z</time>
      </trkpt>
      <trkpt lat="44.43263" lon="5.79353">
        <ele>834</ele>
        <time>2019-06-15T08:18:56Z</time>
      </trkpt>
      <trkpt lat="44.43264" lon="5.79351">
        <ele>834</ele>
        <time>2019-06-15T08:18:57Z</time>
      </trkpt>
      <trkpt lat="44.43265" lon="5.79348">
        <ele>834</ele>
        <time>2019-06-15T08:18:58Z</time>
      </trkpt>
      <trkpt lat="44.43267" lon="5.79346">
        <ele>835</ele>
        <time>2019-06-15T08:18:59Z</time>
      </trkpt>
      <trkpt lat="44.43269" lon="5.79344">
        <ele>835</ele>
        <time>2019-06-15T08:19:00Z</time>
      </trkpt>
      <trkpt lat="44.4327" lon="5.79342">
        <ele>835</ele>
        <time>2019-06-15T08:19:01Z</time>
      </trkpt>
      <trkpt lat="44.43272" lon="5.7934">
        <ele>835</ele>
        <time>2019-06-15T08:19:02Z</time>
      </trkpt>
      <trkpt lat="44.43274" lon="5.79338">
        <ele>835</ele>
        <time>2019-06-15T08:19:03Z</time>
      </trkpt>
      <trkpt lat="44.43276" lon="5.79337">
        <ele>835</ele>
        <time>2019-06-15T08:19:04Z</time>
      </trkpt>
      <trkpt lat="44.43278" lon="5.79335">
        <ele>835</ele>
        <time>2019-06-15T08:19:05Z</time>
      </trkpt>
      <trkpt lat="44.4328" lon="5.79333">
        <ele>835</ele>
        <time>2019-06-15T08:19:06Z</time>
      </trkpt>
      <trkpt lat="44.43282" lon="5.7933">
        <ele>836</ele>
        <time>2019-06-15T08:19:07Z</time>
      </trkpt>
      <trkpt lat="44.43285" lon="5.79328">
        <ele>836</ele>
        <time>2019-06-15T08:19:08Z</time>
      </trkpt>
      <trkpt lat="44.43288" lon="5.79326">
        <ele>836</ele>
        <time>2019-06-15T08:19:09Z</time>
      </trkpt>
      <trkpt lat="44.43291" lon="5.79324">
        <ele>836</ele>
        <time>2019-06-15T08:19:10Z</time>
      </trkpt>
      <trkpt lat="44.43294" lon="5.79323">
        <ele>836</ele>
        <time>2019-06-15T08:19:11Z</time>
      </trkpt>
      <trkpt lat="44.43298" lon="5.79322">
        <ele>836</ele>
        <time>2019-06-15T08:19:12Z</time>
      </trkpt>
      <trkpt lat="44.43301" lon="5.79322">
        <ele>837</ele>
        <time>2019-06-15T08:19:13Z</time>
      </trkpt>
      <trkpt lat="44.43303" lon="5.79322">
        <ele>837</ele>
        <time>2019-06-15T08:19:14Z</time>
      </trkpt>
      <trkpt lat="44.43306" lon="5.79321">
        <ele>837</ele>
        <time>2019-06-15T08:19:15Z</time>
      </trkpt>
      <trkpt lat="44.43309" lon="5.79321">
        <ele>837</ele>
        <time>2019-06-15T08:19:16Z</time>
      </trkpt>
      <trkpt lat="44.43312" lon="5.79321">
        <ele>838</ele>
        <time>2019-06-15T08:19:17Z</time>
      </trkpt>
      <trkpt lat="44.43315" lon="5.79321">
        <ele>838</ele>
        <time>2019-06-15T08:19:18Z</time>
      </trkpt>
      <trkpt lat="44.43318" lon="5.79322">
        <ele>838</ele>
        <time>2019-06-15T08:19:19Z</time>
      </trkpt>
      <trkpt lat="44.43321" lon="5.79323">
        <ele>838</ele>
        <time>2019-06-15T08:19:20Z</time>
      </trkpt>
      <trkpt lat="44.43325" lon="5.79324">
        <ele>838</ele>
        <time>2019-06-15T08:19:21Z</time>
      </trkpt>
      <trkpt lat="44.43328" lon="5.79325">
        <ele>838</ele>
        <time>2019-06-15T08:19:22Z</time>
      </trkpt>
      <trkpt lat="44.43332" lon="5.79328">
        <ele>838</ele>
        <time>2019-06-15T08:19:23Z</time>
      </trkpt>
      <trkpt lat="44.43336" lon="5.7933">
        <ele>838</ele>
        <time>2019-06-15T08:19:24Z</time>
      </trkpt>
      <trkpt lat="44.4334" lon="5.79334">
        <ele>838</ele>
        <time>2019-06-15T08:19:25Z</time>
      </trkpt>
      <trkpt lat="44.43345" lon="5.79337">
        <ele>838</ele>
        <time>2019-06-15T08:19:26Z</time>
      </trkpt>
      <trkpt lat="44.43351" lon="5.79341">
        <ele>838</ele>
        <time>2019-06-15T08:19:27Z</time>
      </trkpt>
      <trkpt lat="44.43357" lon="5.79345">
        <ele>838</ele>
        <time>2019-06-15T08:19:28Z</time>
      </trkpt>
      <trkpt lat="44.43364" lon="5.7935">
        <ele>838</ele>
        <time>2019-06-15T08:19:29Z</time>
      </trkpt>
      <trkpt lat="44.43371" lon="5.79354">
        <ele>838</ele>
        <time>2019-06-15T08:19:30Z</time>
      </trkpt>
      <trkpt lat="44.43378" lon="5.7936">
        <ele>838</ele>
        <time>2019-06-15T08:19:31Z</time>
      </trkpt>
      <trkpt lat="44.43387" lon="5.79366">
        <ele>838</ele>
        <time>2019-06-15T08:19:32Z</time>
      </trkpt>
      <trkpt lat="44.43396" lon="5.79372">
        <ele>838</ele>
        <time>2019-06-15T08:19:33Z</time>
      </trkpt>
      <trkpt lat="44.43405" lon="5.79378">
        <ele>838</ele>
        <time>2019-06-15T08:19:34Z</time>
      </trkpt>
      <trkpt lat="44.43414" lon="5.79384">
        <ele>838</ele>
        <time>2019-06-15T08:19:35Z</time>
      </trkpt>
      <trkpt lat="44.43423" lon="5.7939">
        <ele>838</ele>
        <time>2019-06-15T08:19:36Z</time>
      </trkpt>
      <trkpt lat="44.43432" lon="5.79396">
        <ele>838</ele>
        <time>2019-06-15T08:19:37Z</time>
      </trkpt>
      <trkpt lat="44.4344" lon="5.79402">
        <ele>838</ele>
        <time>2019-06-15T08:19:38Z</time>
      </trkpt>
      <trkpt lat="44.43447" lon="5.79407">
        <ele>838</ele>
        <time>2019-06-15T08:19:39Z</time>
      </trkpt>
      <trkpt lat="44.43454" lon="5.79412">
        <ele>838</ele>
        <time>2019-06-15T08:19:40Z</time>
      </trkpt>
      <trkpt lat="44.4346" lon="5.79416">
        <ele>838</ele>
        <time>2019-06-15T08:19:41Z</time>
      </trkpt>
      <trkpt lat="44.43466" lon="5.7942">
        <ele>838</ele>
        <time>2019-06-15T08:19:42Z</time>
      </trkpt>
      <trkpt lat="44.43472" lon="5.79424">
        <ele>838</ele>
        <time>2019-06-15T08:19:43Z</time>
      </trkpt>
      <trkpt lat="44.43476" lon="5.79427">
        <ele>838</ele>
        <time>2019-06-15T08:19:44Z</time>
      </trkpt>
      <trkpt lat="44.43481" lon="5.79431">
        <ele>838</ele>
        <time>2019-06-15T08:19:45Z</time>
      </trkpt>
      <trkpt lat="44.43486" lon="5.79434">
        <ele>838</ele>
        <time>2019-06-15T08:19:46Z</time>
      </trkpt>
      <trkpt lat="44.4349" lon="5.79437">
        <ele>838</ele>
        <time>2019-06-15T08:19:47Z</time>
      </trkpt>
      <trkpt lat="44.43495" lon="5.7944">
        <ele>838</ele>
        <time>2019-06-15T08:19:48Z</time>
      </trkpt>
      <trkpt lat="44.43499" lon="5.79443">
        <ele>838</ele>
        <time>2019-06-15T08:19:49Z</time>
      </trkpt>
      <trkpt lat="44.43503" lon="5.79445">
        <ele>838</ele>
        <time>2019-06-15T08:19:50Z</time>
      </trkpt>
      <trkpt lat="44.43508" lon="5.79448">
        <ele>838</ele>
        <time>2019-06-15T08:19:51Z</time>
      </trkpt>
      <trkpt lat="44.43512" lon="5.79449">
        <ele>838</ele>
        <time>2019-06-15T08:19:52Z</time>
      </trkpt>
      <trkpt lat="44.43517" lon="5.7945">
        <ele>838</ele>
        <time>2019-06-15T08:19:53Z</time>
      </trkpt>
      <trkpt lat="44.43522" lon="5.7945">
        <ele>838</ele>
        <time>2019-06-15T08:19:54Z</time>
      </trkpt>
      <trkpt lat="44.43526" lon="5.79449">
        <ele>838</ele>
        <time>2019-06-15T08:19:55Z</time>
      </trkpt>
      <trkpt lat="44.43531" lon="5.79446">
        <ele>838</ele>
        <time>2019-06-15T08:19:56Z</time>
      </trkpt>
      <trkpt lat="44.43536" lon="5.79444">
        <ele>838</ele>
        <time>2019-06-15T08:19:57Z</time>
      </trkpt>
      <trkpt lat="44.43542" lon="5.79441">
        <ele>838</ele>
        <time>2019-06-15T08:19:58Z</time>
      </trkpt>
      <trkpt lat="44.43547" lon="5.79438">
        <ele>838</ele>
        <time>2019-06-15T08:19:59Z</time>
      </trkpt>
      <trkpt lat="44.43552" lon="5.79435">
        <ele>838</ele>
        <time>2019-06-15T08:20:00Z</time>
      </trkpt>
      <trkpt lat="44.43556" lon="5.79432">
        <ele>838</ele>
        <time>2019-06-15T08:20:01Z</time>
      </trkpt>
      <trkpt lat="44.43561" lon="5.7943">
        <ele>838</ele>
        <time>2019-06-15T08:20:02Z</time>
      </trkpt>
      <trkpt lat="44.43566" lon="5.79428">
        <ele>838</ele>
        <time>2019-06-15T08:20:03Z</time>
      </trkpt>
      <trkpt lat="44.43571" lon="5.79425">
        <ele>838</ele>
        <time>2019-06-15T08:20:04Z</time>
      </trkpt>
      <trkpt lat="44.43576" lon="5.79423">
        <ele>838</ele>
        <time>2019-06-15T08:20:05Z</time>
      </trkpt>
      <trkpt lat="44.4358" lon="5.79421">
        <ele>838</ele>
        <time>2019-06-15T08:20:06Z</time>
      </trkpt>
      <trkpt lat="44.43585" lon="5.79419">
        <ele>838</ele>
        <time>2019-06-15T08:20:07Z</time>
      </trkpt>
      <trkpt lat="44.43589" lon="5.79418">
        <ele>838</ele>
        <time>2019-06-15T08:20:08Z</time>
      </trkpt>
      <trkpt lat="44.43594" lon="5.79417">
        <ele>838</ele>
        <time>2019-06-15T08:20:09Z</time>
      </trkpt>
      <trkpt lat="44.43598" lon="5.79416">
        <ele>838</ele>
        <time>2019-06-15T08:20:10Z</time>
      </trkpt>
      <trkpt lat="44.43603" lon="5.79415">
        <ele>837</ele>
        <time>2019-06-15T08:20:11Z</time>
      </trkpt>
      <trkpt lat="44.43608" lon="5.79414">
        <ele>837</ele>
        <time>2019-06-15T08:20:12Z</time>
      </trkpt>
      <trkpt lat="44.43613" lon="5.79413">
        <ele>837</ele>
        <time>2019-06-15T08:20:13Z</time>
      </trkpt>
      <trkpt lat="44.43618" lon="5.79412">
        <ele>836</ele>
        <time>2019-06-15T08:20:14Z</time>
      </trkpt>
      <trkpt lat="44.43623" lon="5.79412">
        <ele>836</ele>
        <time>2019-06-15T08:20:15Z</time>
      </trkpt>
      <trkpt lat="44.43628" lon="5.79411">
        <ele>836</ele>
        <time>2019-06-15T08:20:16Z</time>
      </trkpt>
      <trkpt lat="44.43633" lon="5.79409">
        <ele>836</ele>
        <time>2019-06-15T08:20:17Z</time>
      </trkpt>
      <trkpt lat="44.43638" lon="5.79408">
        <ele>836</ele>
        <time>2019-06-15T08:20:18Z</time>
      </trkpt>
      <trkpt lat="44.43642" lon="5.79407">
        <ele>836</ele>
        <time>2019-06-15T08:20:19Z</time>
      </trkpt>
      <trkpt lat="44.43647" lon="5.79406">
        <ele>836</ele>
        <time>2019-06-15T08:20:20Z</time>
      </trkpt>
      <trkpt lat="44.43651" lon="5.79405">
        <ele>836</ele>
        <time>2019-06-15T08:20:21Z</time>
      </trkpt>
      <trkpt lat="44.43657" lon="5.79404">
        <ele>836</ele>
        <time>2019-06-15T08:20:22Z</time>
      </trkpt>
      <trkpt lat="44.43661" lon="5.79403">
        <ele>836</ele>
        <time>2019-06-15T08:20:23Z</time>
      </trkpt>
      <trkpt lat="44.43666" lon="5.79403">
        <ele>836</ele>
        <time>2019-06-15T08:20:24Z</time>
      </trkpt>
      <trkpt lat="44.4367" lon="5.79402">
        <ele>836</ele>
        <time>2019-06-15T08:20:25Z</time>
      </trkpt>
      <trkpt lat="44.43674" lon="5.79401">
        <ele>836</ele>
        <time>2019-06-15T08:20:26Z</time>
      </trkpt>
      <trkpt lat="44.43679" lon="5.794">
        <ele>836</ele>
        <time>2019-06-15T08:20:27Z</time>
      </trkpt>
      <trkpt lat="44.43683" lon="5.79399">
        <ele>836</ele>
        <time>2019-06-15T08:20:28Z</time>
      </trkpt>
      <trkpt lat="44.43687" lon="5.79398">
        <ele>836</ele>
        <time>2019-06-15T08:20:29Z</time>
      </trkpt>
      <trkpt lat="44.43691" lon="5.79397">
        <ele>836</ele>
        <time>2019-06-15T08:20:30Z</time>
      </trkpt>
      <trkpt lat="44.43696" lon="5.79395">
        <ele>836</ele>
        <time>2019-06-15T08:20:31Z</time>
      </trkpt>
      <trkpt lat="44.437" lon="5.79393">
        <ele>836</ele>
        <time>2019-06-15T08:20:32Z</time>
      </trkpt>
      <trkpt lat="44.43705" lon="5.79392">
        <ele>836</ele>
        <time>2019-06-15T08:20:33Z</time>
      </trkpt>
      <trkpt lat="44.4371" lon="5.7939">
        <ele>836</ele>
        <time>2019-06-15T08:20:34Z</time>
      </trkpt>
      <trkpt lat="44.43714" lon="5.79389">
        <ele>836</ele>
        <time>2019-06-15T08:20:35Z</time>
      </trkpt>
      <trkpt lat="44.43719" lon="5.79388">
        <ele>836</ele>
        <time>2019-06-15T08:20:36Z</time>
      </trkpt>
      <trkpt lat="44.43723" lon="5.79385">
        <ele>836</ele>
        <time>2019-06-15T08:20:37Z</time>
      </trkpt>
      <trkpt lat="44.43728" lon="5.79383">
        <ele>836</ele>
        <time>2019-06-15T08:20:38Z</time>
      </trkpt>
      <trkpt lat="44.43733" lon="5.7938">
        <ele>836</ele>
        <time>2019-06-15T08:20:39Z</time>
      </trkpt>
      <trkpt lat="44.43739" lon="5.79378">
        <ele>836</ele>
        <time>2019-06-15T08:20:40Z</time>
      </trkpt>
      <trkpt lat="44.43744" lon="5.79375">
        <ele>836</ele>
        <time>2019-06-15T08:20:41Z</time>
      </trkpt>
      <trkpt lat="44.4375" lon="5.79372">
        <ele>836</ele>
        <time>2019-06-15T08:20:42Z</time>
      </trkpt>
      <trkpt lat="44.43755" lon="5.79369">
        <ele>836</ele>
        <time>2019-06-15T08:20:43Z</time>
      </trkpt>
      <trkpt lat="44.43761" lon="5.79366">
        <ele>836</ele>
        <time>2019-06-15T08:20:44Z</time>
      </trkpt>
      <trkpt lat="44.43767" lon="5.79363">
        <ele>836</ele>
        <time>2019-06-15T08:20:45Z</time>
      </trkpt>
      <trkpt lat="44.43773" lon="5.7936">
        <ele>836</ele>
        <time>2019-06-15T08:20:46Z</time>
      </trkpt>
      <trkpt lat="44.43779" lon="5.79357">
        <ele>836</ele>
        <time>2019-06-15T08:20:47Z</time>
      </trkpt>
      <trkpt lat="44.43785" lon="5.79353">
        <ele>836</ele>
        <time>2019-06-15T08:20:48Z</time>
      </trkpt>
      <trkpt lat="44.43791" lon="5.7935">
        <ele>836</ele>
        <time>2019-06-15T08:20:49Z</time>
      </trkpt>
      <trkpt lat="44.43798" lon="5.79347">
        <ele>836</ele>
        <time>2019-06-15T08:20:50Z</time>
      </trkpt>
      <trkpt lat="44.43804" lon="5.79344">
        <ele>836</ele>
        <time>2019-06-15T08:20:51Z</time>
      </trkpt>
      <trkpt lat="44.43811" lon="5.7934">
        <ele>836</ele>
        <time>2019-06-15T08:20:52Z</time>
      </trkpt>
      <trkpt lat="44.43817" lon="5.79337">
        <ele>836</ele>
        <time>2019-06-15T08:20:53Z</time>
      </trkpt>
      <trkpt lat="44.43824" lon="5.79334">
        <ele>836</ele>
        <time>2019-06-15T08:20:54Z</time>
      </trkpt>
      <trkpt lat="44.43831" lon="5.79331">
        <ele>836</ele>
        <time>2019-06-15T08:20:55Z</time>
      </trkpt>
      <trkpt lat="44.43838" lon="5.79328">
        <ele>836</ele>
        <time>2019-06-15T08:20:56Z</time>
      </trkpt>
      <trkpt lat="44.43845" lon="5.79325">
        <ele>836</ele>
        <time>2019-06-15T08:20:57Z</time>
      </trkpt>
      <trkpt lat="44.43851" lon="5.79322">
        <ele>836</ele>
        <time>2019-06-15T08:20:58Z</time>
      </trkpt>
      <trkpt lat="44.43858" lon="5.7932">
        <ele>836</ele>
        <time>2019-06-15T08:20:59Z</time>
      </trkpt>
      <trkpt lat="44.43865" lon="5.79317">
        <ele>836</ele>
        <time>2019-06-15T08:21:00Z</time>
      </trkpt>
      <trkpt lat="44.43872" lon="5.79314">
        <ele>836</ele>
        <time>2019-06-15T08:21:01Z</time>
      </trkpt>
      <trkpt lat="44.43879" lon="5.79312">
        <ele>836</ele>
        <time>2019-06-15T08:21:02Z</time>
      </trkpt>
      <trkpt lat="44.43886" lon="5.79309">
        <ele>836</ele>
        <time>2019-06-15T08:21:03Z</time>
      </trkpt>
      <trkpt lat="44.43893" lon="5.79307">
        <ele>836</ele>
        <time>2019-06-15T08:21:04Z</time>
      </trkpt>
      <trkpt lat="44.439" lon="5.79305">
        <ele>836</ele>
        <time>2019-06-15T08:21:05Z</time>
      </trkpt>
      <trkpt lat="44.43907" lon="5.79303">
        <ele>836</ele>
        <time>2019-06-15T08:21:06Z</time>
      </trkpt>
      <trkpt lat="44.43914" lon="5.79302">
        <ele>836</ele>
        <time>2019-06-15T08:21:07Z</time>
      </trkpt>
      <trkpt lat="44.4392" lon="5.79301">
        <ele>836</ele>
        <time>2019-06-15T08:21:08Z</time>
      </trkpt>
      <trkpt lat="44.43927" lon="5.793">
        <ele>836</ele>
        <time>2019-06-15T08:21:09Z</time>
      </trkpt>
      <trkpt lat="44.43934" lon="5.79299">
        <ele>836</ele>
        <time>2019-06-15T08:21:10Z</time>
      </trkpt>
      <trkpt lat="44.4394" lon="5.79298">
        <ele>836</ele>
        <time>2019-06-15T08:21:11Z</time>
      </trkpt>
      <trkpt lat="44.43947" lon="5.79297">
        <ele>836</ele>
        <time>2019-06-15T08:21:12Z</time>
      </trkpt>
      <trkpt lat="44.43954" lon="5.79296">
        <ele>836</ele>
        <time>2019-06-15T08:21:13Z</time>
      </trkpt>
      <trkpt lat="44.43961" lon="5.79295">
        <ele>836</ele>
        <time>2019-06-15T08:21:14Z</time>
      </trkpt>
      <trkpt lat="44.43967" lon="5.79294">
        <ele>836</ele>
        <time>2019-06-15T08:21:15Z</time>
      </trkpt>
      <trkpt lat="44.43974" lon="5.79292">
        <ele>836</ele>
        <time>2019-06-15T08:21:16Z</time>
      </trkpt>
      <trkpt lat="44.4398" lon="5.7929">
        <ele>836</ele>
        <time>2019-06-15T08:21:17Z</time>
      </trkpt>
      <trkpt lat="44.43987" lon="5.79288">
        <ele>836</ele>
        <time>2019-06-15T08:21:18Z</time>
      </trkpt>
      <trkpt lat="44.43993" lon="5.79285">
        <ele>836</ele>
        <time>2019-06-15T08:21:19Z</time>
      </trkpt>
      <trkpt lat="44.43999" lon="5.79282">
        <ele>836</ele>
        <time>2019-06-15T08:21:20Z</time>
      </trkpt>
      <trkpt lat="44.44005" lon="5.7928">
        <ele>836</ele>
        <time>2019-06-15T08:21:21Z</time>
      </trkpt>
      <trkpt lat="44.44012" lon="5.79276">
        <ele>836</ele>
        <time>2019-06-15T08:21:22Z</time>
      </trkpt>
      <trkpt lat="44.44018" lon="5.79273">
        <ele>836</ele>
        <time>2019-06-15T08:21:23Z</time>
      </trkpt>
      <trkpt lat="44.44025" lon="5.7927">
        <ele>836</ele>
        <time>2019-06-15T08:21:24Z</time>
      </trkpt>
      <trkpt lat="44.44032" lon="5.79266">
        <ele>836</ele>
        <time>2019-06-15T08:21:25Z</time>
      </trkpt>
      <trkpt lat="44.44039" lon="5.79262">
        <ele>836</ele>
        <time>2019-06-15T08:21:26Z</time>
      </trkpt>
      <trkpt lat="44.44046" lon="5.79257">
        <ele>836</ele>
        <time>2019-06-15T08:21:27Z</time>
      </trkpt>
      <trkpt lat="44.44053" lon="5.79251">
        <ele>836</ele>
        <time>2019-06-15T08:21:28Z</time>
      </trkpt>
      <trkpt lat="44.4406" lon="5.79245">
        <ele>836</ele>
        <time>2019-06-15T08:21:29Z</time>
      </trkpt>
      <trkpt lat="44.44066" lon="5.79239">
        <ele>836</ele>
        <time>2019-06-15T08:21:30Z</time>
      </trkpt>
      <trkpt lat="44.44073" lon="5.79231">
        <ele>836</ele>
        <time>2019-06-15T08:21:31Z</time>
      </trkpt>
      <trkpt lat="44.44079" lon="5.79223">
        <ele>836</ele>
        <time>2019-06-15T08:21:32Z</time>
      </trkpt>
      <trkpt lat="44.44085" lon="5.79213">
        <ele>836</ele>
        <time>2019-06-15T08:21:33Z</time>
      </trkpt>
      <trkpt lat="44.44091" lon="5.79204">
        <ele>836</ele>
        <time>2019-06-15T08:21:34Z</time>
      </trkpt>
      <trkpt lat="44.44096" lon="5.79193">
        <ele>836</ele>
        <time>2019-06-15T08:21:35Z</time>
      </trkpt>
      <trkpt lat="44.44101" lon="5.79183">
        <ele>836</ele>
        <time>2019-06-15T08:21:36Z</time>
      </trkpt>
      <trkpt lat="44.44107" lon="5.79174">
        <ele>836</ele>
        <time>2019-06-15T08:21:37Z</time>
      </trkpt>
      <trkpt lat="44.44112" lon="5.79165">
        <ele>836</ele>
        <time>2019-06-15T08:21:38Z</time>
      </trkpt>
      <trkpt lat="44.44118" lon="5.79156">
        <ele>836</ele>
        <time>2019-06-15T08:21:39Z</time>
      </trkpt>
      <trkpt lat="44.44123" lon="5.79147">
        <ele>836</ele>
        <time>2019-06-15T08:21:40Z</time>
      </trkpt>
      <trkpt lat="44.44128" lon="5.79138">
        <ele>836</ele>
        <time>2019-06-15T08:21:41Z</time>
      </trkpt>
      <trkpt lat="44.44132" lon="5.79129">
        <ele>836</ele>
        <time>2019-06-15T08:21:42Z</time>
      </trkpt>
      <trkpt lat="44.44136" lon="5.7912">
        <ele>836</ele>
        <time>2019-06-15T08:21:43Z</time>
      </trkpt>
      <trkpt lat="44.4414" lon="5.79112">
        <ele>836</ele>
        <time>2019-06-15T08:21:44Z</time>
      </trkpt>
      <trkpt lat="44.44144" lon="5.79103">
        <ele>836</ele>
        <time>2019-06-15T08:21:45Z</time>
      </trkpt>
      <trkpt lat="44.44148" lon="5.79095">
        <ele>836</ele>
        <time>2019-06-15T08:21:46Z</time>
      </trkpt>
      <trkpt lat="44.44152" lon="5.79086">
        <ele>836</ele>
        <time>2019-06-15T08:21:47Z</time>
      </trkpt>
      <trkpt lat="44.44156" lon="5.79078">
        <ele>835</ele>
        <time>2019-06-15T08:21:48Z</time>
      </trkpt>
      <trkpt lat="44.44159" lon="5.79069">
        <ele>835</ele>
        <time>2019-06-15T08:21:49Z</time>
      </trkpt>
      <trkpt lat="44.44163" lon="5.79059">
        <ele>835</ele>
        <time>2019-06-15T08:21:50Z</time>
      </trkpt>
      <trkpt lat="44.44167" lon="5.7905">
        <ele>835</ele>
        <time>2019-06-15T08:21:51Z</time>
      </trkpt>
      <trkpt lat="44.44171" lon="5.7904">
        <ele>834</ele>
        <time>2019-06-15T08:21:52Z</time>
      </trkpt>
      <trkpt lat="44.44175" lon="5.79029">
        <ele>834</ele>
        <time>2019-06-15T08:21:53Z</time>
      </trkpt>
      <trkpt lat="44.4418" lon="5.79019">
        <ele>834</ele>
        <time>2019-06-15T08:21:54Z</time>
      </trkpt>
      <trkpt lat="44.44185" lon="5.79009">
        <ele>833</ele>
        <time>2019-06-15T08:21:55Z</time>
      </trkpt>
      <trkpt lat="44.4419" lon="5.78999">
        <ele>832</ele>
        <time>2019-06-15T08:21:56Z</time>
      </trkpt>
      <trkpt lat="44.44196" lon="5.78989">
        <ele>832</ele>
        <time>2019-06-15T08:21:57Z</time>
      </trkpt>
      <trkpt lat="44.44203" lon="5.78981">
        <ele>831</ele>
        <time>2019-06-15T08:21:58Z</time>
      </trkpt>
      <trkpt lat="44.44212" lon="5.78973">
        <ele>831</ele>
        <time>2019-06-15T08:21:59Z</time>
      </trkpt>
      <trkpt lat="44.44221" lon="5.78968">
        <ele>830</ele>
        <time>2019-06-15T08:22:00Z</time>
      </trkpt>
      <trkpt lat="44.44231" lon="5.78964">
        <ele>830</ele>
        <time>2019-06-15T08:22:01Z</time>
      </trkpt>
      <trkpt lat="44.44241" lon="5.78961">
        <ele>829</ele>
        <time>2019-06-15T08:22:02Z</time>
      </trkpt>
      <trkpt lat="44.44251" lon="5.78956">
        <ele>828</ele>
        <time>2019-06-15T08:22:03Z</time>
      </trkpt>
      <trkpt lat="44.4426" lon="5.78951">
        <ele>828</ele>
        <time>2019-06-15T08:22:04Z</time>
      </trkpt>
      <trkpt lat="44.4427" lon="5.78945">
        <ele>827</ele>
        <time>2019-06-15T08:22:05Z</time>
      </trkpt>
      <trkpt lat="44.4428" lon="5.78939">
        <ele>827</ele>
        <time>2019-06-15T08:22:06Z</time>
      </trkpt>
      <trkpt lat="44.4429" lon="5.78932">
        <ele>826</ele>
        <time>2019-06-15T08:22:07Z</time>
      </trkpt>
      <trkpt lat="44.44299" lon="5.78926">
        <ele>826</ele>
        <time>2019-06-15T08:22:08Z</time>
      </trkpt>
      <trkpt lat="44.4431" lon="5.78919">
        <ele>825</ele>
        <time>2019-06-15T08:22:09Z</time>
      </trkpt>
      <trkpt lat="44.44319" lon="5.78912">
        <ele>824</ele>
        <time>2019-06-15T08:22:10Z</time>
      </trkpt>
      <trkpt lat="44.44329" lon="5.78904">
        <ele>823</ele>
        <time>2019-06-15T08:22:11Z</time>
      </trkpt>
      <trkpt lat="44.4434" lon="5.78896">
        <ele>822</ele>
        <time>2019-06-15T08:22:12Z</time>
      </trkpt>
      <trkpt lat="44.44349" lon="5.78887">
        <ele>822</ele>
        <time>2019-06-15T08:22:13Z</time>
      </trkpt>
      <trkpt lat="44.44358" lon="5.78876">
        <ele>821</ele>
        <time>2019-06-15T08:22:14Z</time>
      </trkpt>
      <trkpt lat="44.44365" lon="5.78862">
        <ele>820</ele>
        <time>2019-06-15T08:22:15Z</time>
      </trkpt>
      <trkpt lat="44.44372" lon="5.78848">
        <ele>820</ele>
        <time>2019-06-15T08:22:16Z</time>
      </trkpt>
      <trkpt lat="44.44376" lon="5.78832">
        <ele>819</ele>
        <time>2019-06-15T08:22:17Z</time>
      </trkpt>
      <trkpt lat="44.4438" lon="5.78815">
        <ele>818</ele>
        <time>2019-06-15T08:22:18Z</time>
      </trkpt>
      <trkpt lat="44.44383" lon="5.78798">
        <ele>817</ele>
        <time>2019-06-15T08:22:19Z</time>
      </trkpt>
      <trkpt lat="44.44386" lon="5.78781">
        <ele>816</ele>
        <time>2019-06-15T08:22:20Z</time>
      </trkpt>
      <trkpt lat="44.44389" lon="5.78763">
        <ele>815</ele>
        <time>2019-06-15T08:22:21Z</time>
      </trkpt>
      <trkpt lat="44.44391" lon="5.78747">
        <ele>814</ele>
        <time>2019-06-15T08:22:22Z</time>
      </trkpt>
      <trkpt lat="44.44393" lon="5.78729">
        <ele>813</ele>
        <time>2019-06-15T08:22:23Z</time>
      </trkpt>
      <trkpt lat="44.44396" lon="5.78712">
        <ele>812</ele>
        <time>2019-06-15T08:22:24Z</time>
      </trkpt>
      <trkpt lat="44.44399" lon="5.78695">
        <ele>811</ele>
        <time>2019-06-15T08:22:25Z</time>
      </trkpt>
      <trkpt lat="44.44403" lon="5.78678">
        <ele>810</ele>
        <time>2019-06-15T08:22:26Z</time>
      </trkpt>
      <trkpt lat="44.44407" lon="5.78662">
        <ele>809</ele>
        <time>2019-06-15T08:22:27Z</time>
      </trkpt>
      <trkpt lat="44.44412" lon="5.78647">
        <ele>808</ele>
        <time>2019-06-15T08:22:28Z</time>
      </trkpt>
      <trkpt lat="44.44418" lon="5.78633">
        <ele>807</ele>
        <time>2019-06-15T08:22:29Z</time>
      </trkpt>
      <trkpt lat="44.44422" lon="5.78619">
        <ele>806</ele>
        <time>2019-06-15T08:22:30Z</time>
      </trkpt>
      <trkpt lat="44.44426" lon="5.78605">
        <ele>805</ele>
        <time>2019-06-15T08:22:31Z</time>
      </trkpt>
      <trkpt lat="44.44429" lon="5.78589">
        <ele>804</ele>
        <time>2019-06-15T08:22:32Z</time>
      </trkpt>
      <trkpt lat="44.4443" lon="5.78574">
        <ele>803</ele>
        <time>2019-06-15T08:22:33Z</time>
      </trkpt>
      <trkpt lat="44.44431" lon="5.78559">
        <ele>802</ele>
        <time>2019-06-15T08:22:34Z</time>
      </trkpt>
      <trkpt lat="44.44433" lon="5.78544">
        <ele>802</ele>
        <time>2019-06-15T08:22:35Z</time>
      </trkpt>
      <trkpt lat="44.44436" lon="5.7853">
        <ele>801</ele>
        <time>2019-06-15T08:22:36Z</time>
      </trkpt>
      <trkpt lat="44.4444" lon="5.78516">
        <ele>800</ele>
        <time>2019-06-15T08:22:37Z</time>
      </trkpt>
      <trkpt lat="44.44445" lon="5.78503">
        <ele>799</ele>
        <time>2019-06-15T08:22:38Z</time>
      </trkpt>
      <trkpt lat="44.4445" lon="5.78489">
        <ele>798</ele>
        <time>2019-06-15T08:22:39Z</time>
      </trkpt>
      <trkpt lat="44.44456" lon="5.78476">
        <ele>797</ele>
        <time>2019-06-15T08:22:40Z</time>
      </trkpt>
      <trkpt lat="44.44461" lon="5.78463">
        <ele>797</ele>
        <time>2019-06-15T08:22:41Z</time>
      </trkpt>
      <trkpt lat="44.44467" lon="5.7845">
        <ele>796</ele>
        <time>2019-06-15T08:22:42Z</time>
      </trkpt>
      <trkpt lat="44.44472" lon="5.78437">
        <ele>796</ele>
        <time>2019-06-15T08:22:43Z</time>
      </trkpt>
      <trkpt lat="44.44478" lon="5.78424">
        <ele>795</ele>
        <time>2019-06-15T08:22:44Z</time>
      </trkpt>
      <trkpt lat="44.44484" lon="5.7841">
        <ele>795</ele>
        <time>2019-06-15T08:22:45Z</time>
      </trkpt>
      <trkpt lat="44.4449" lon="5.78397">
        <ele>794</ele>
        <time>2019-06-15T08:22:46Z</time>
      </trkpt>
      <trkpt lat="44.44495" lon="5.78384">
        <ele>794</ele>
        <time>2019-06-15T08:22:47Z</time>
      </trkpt>
      <trkpt lat="44.44501" lon="5.78371">
        <ele>793</ele>
        <time>2019-06-15T08:22:48Z</time>
      </trkpt>
      <trkpt lat="44.44506" lon="5.78358">
        <ele>793</ele>
        <time>2019-06-15T08:22:49Z</time>
      </trkpt>
      <trkpt lat="44.44512" lon="5.78345">
        <ele>792</ele>
        <time>2019-06-15T08:22:50Z</time>
      </trkpt>
      <trkpt lat="44.44518" lon="5.78333">
        <ele>792</ele>
        <time>2019-06-15T08:22:51Z</time>
      </trkpt>
      <trkpt lat="44.44524" lon="5.78322">
        <ele>791</ele>
        <time>2019-06-15T08:22:52Z</time>
      </trkpt>
      <trkpt lat="44.44531" lon="5.78314">
        <ele>790</ele>
        <time>2019-06-15T08:22:53Z</time>
      </trkpt>
      <trkpt lat="44.44539" lon="5.78308">
        <ele>790</ele>
        <time>2019-06-15T08:22:54Z</time>
      </trkpt>
      <trkpt lat="44.44548" lon="5.78305">
        <ele>789</ele>
        <time>2019-06-15T08:22:55Z</time>
      </trkpt>
      <trkpt lat="44.44558" lon="5.78307">
        <ele>788</ele>
        <time>2019-06-15T08:22:56Z</time>
      </trkpt>
      <trkpt lat="44.44567" lon="5.78312">
        <ele>787</ele>
        <time>2019-06-15T08:22:57Z</time>
      </trkpt>
      <trkpt lat="44.44576" lon="5.78319">
        <ele>787</ele>
        <time>2019-06-15T08:22:58Z</time>
      </trkpt>
      <trkpt lat="44.44584" lon="5.78326">
        <ele>786</ele>
        <time>2019-06-15T08:22:59Z</time>
      </trkpt>
      <trkpt lat="44.44592" lon="5.78332">
        <ele>786</ele>
        <time>2019-06-15T08:23:00Z</time>
      </trkpt>
      <trkpt lat="44.446" lon="5.78336">
        <ele>786</ele>
        <time>2019-06-15T08:23:01Z</time>
      </trkpt>
      <trkpt lat="44.44608" lon="5.78336">
        <ele>786</ele>
        <time>2019-06-15T08:23:02Z</time>
      </trkpt>
      <trkpt lat="44.44615" lon="5.78334">
        <ele>786</ele>
        <time>2019-06-15T08:23:03Z</time>
      </trkpt>
      <trkpt lat="44.44621" lon="5.78331">
        <ele>786</ele>
        <time>2019-06-15T08:23:04Z</time>
      </trkpt>
      <trkpt lat="44.44627" lon="5.78326">
        <ele>786</ele>
        <time>2019-06-15T08:23:05Z</time>
      </trkpt>
      <trkpt lat="44.44632" lon="5.78322">
        <ele>786</ele>
        <time>2019-06-15T08:23:06Z</time>
      </trkpt>
      <trkpt lat="44.44637" lon="5.78317">
        <ele>786</ele>
        <time>2019-06-15T08:23:07Z</time>
      </trkpt>
      <trkpt lat="44.44641" lon="5.78312">
        <ele>786</ele>
        <time>2019-06-15T08:23:08Z</time>
      </trkpt>
      <trkpt lat="44.44646" lon="5.78307">
        <ele>786</ele>
        <time>2019-06-15T08:23:09Z</time>
      </trkpt>
      <trkpt lat="44.44651" lon="5.78303">
        <ele>786</ele>
        <time>2019-06-15T08:23:10Z</time>
      </trkpt>
      <trkpt lat="44.44656" lon="5.78298">
        <ele>786</ele>
        <time>2019-06-15T08:23:11Z</time>
      </trkpt>
      <trkpt lat="44.44661" lon="5.78294">
        <ele>786</ele>
        <time>2019-06-15T08:23:12Z</time>
      </trkpt>
      <trkpt lat="44.44665" lon="5.78289">
        <ele>786</ele>
        <time>2019-06-15T08:23:13Z</time>
      </trkpt>
      <trkpt lat="44.4467" lon="5.78284">
        <ele>786</ele>
        <time>2019-06-15T08:23:14Z</time>
      </trkpt>
      <trkpt lat="44.44675" lon="5.78279">
        <ele>786</ele>
        <time>2019-06-15T08:23:15Z</time>
      </trkpt>
      <trkpt lat="44.4468" lon="5.78274">
        <ele>786</ele>
        <time>2019-06-15T08:23:16Z</time>
      </trkpt>
      <trkpt lat="44.44685" lon="5.78269">
        <ele>786</ele>
        <time>2019-06-15T08:23:17Z</time>
      </trkpt>
      <trkpt lat="44.44691" lon="5.78265">
        <ele>786</ele>
        <time>2019-06-15T08:23:18Z</time>
      </trkpt>
      <trkpt lat="44.44696" lon="5.7826">
        <ele>786</ele>
        <time>2019-06-15T08:23:19Z</time>
      </trkpt>
      <trkpt lat="44.44701" lon="5.78256">
        <ele>786</ele>
        <time>2019-06-15T08:23:20Z</time>
      </trkpt>
      <trkpt lat="44.44705" lon="5.78251">
        <ele>786</ele>
        <time>2019-06-15T08:23:21Z</time>
      </trkpt>
      <trkpt lat="44.4471" lon="5.78246">
        <ele>786</ele>
        <time>2019-06-15T08:23:22Z</time>
      </trkpt>
      <trkpt lat="44.44714" lon="5.78242">
        <ele>786</ele>
        <time>2019-06-15T08:23:23Z</time>
      </trkpt>
      <trkpt lat="44.44719" lon="5.78238">
        <ele>786</ele>
        <time>2019-06-15T08:23:24Z</time>
      </trkpt>
      <trkpt lat="44.44723" lon="5.78233">
        <ele>786</ele>
        <time>2019-06-15T08:23:25Z</time>
      </trkpt>
      <trkpt lat="44.44727" lon="5.78229">
        <ele>786</ele>
        <time>2019-06-15T08:23:26Z</time>
      </trkpt>
      <trkpt lat="44.44732" lon="5.78225">
        <ele>786</ele>
        <time>2019-06-15T08:23:27Z</time>
      </trkpt>
      <trkpt lat="44.44736" lon="5.78221">
        <ele>786</ele>
        <time>2019-06-15T08:23:28Z</time>
      </trkpt>
      <trkpt lat="44.44741" lon="5.78217">
        <ele>786</ele>
        <time>2019-06-15T08:23:29Z</time>
      </trkpt>
      <trkpt lat="44.44746" lon="5.78213">
        <ele>786</ele>
        <time>2019-06-15T08:23:30Z</time>
      </trkpt>
      <trkpt lat="44.4475" lon="5.78209">
        <ele>786</ele>
        <time>2019-06-15T08:23:31Z</time>
      </trkpt>
      <trkpt lat="44.44755" lon="5.78205">
        <ele>786</ele>
        <time>2019-06-15T08:23:32Z</time>
      </trkpt>
      <trkpt lat="44.4476" lon="5.78202">
        <ele>786</ele>
        <time>2019-06-15T08:23:33Z</time>
      </trkpt>
      <trkpt lat="44.44765" lon="5.782">
        <ele>786</ele>
        <time>2019-06-15T08:23:34Z</time>
      </trkpt>
      <trkpt lat="44.44771" lon="5.78198">
        <ele>786</ele>
        <time>2019-06-15T08:23:35Z</time>
      </trkpt>
      <trkpt lat="44.44776" lon="5.78196">
        <ele>786</ele>
        <time>2019-06-15T08:23:36Z</time>
      </trkpt>
      <trkpt lat="44.44781" lon="5.78195">
        <ele>786</ele>
        <time>2019-06-15T08:23:37Z</time>
      </trkpt>
      <trkpt lat="44.44787" lon="5.78194">
        <ele>786</ele>
        <time>2019-06-15T08:23:38Z</time>
      </trkpt>
      <trkpt lat="44.44793" lon="5.78193">
        <ele>786</ele>
        <time>2019-06-15T08:23:39Z</time>
      </trkpt>
      <trkpt lat="44.44798" lon="5.78193">
        <ele>786</ele>
        <time>2019-06-15T08:23:40Z</time>
      </trkpt>
      <trkpt lat="44.44803" lon="5.78193">
        <ele>786</ele>
        <time>2019-06-15T08:23:41Z</time>
      </trkpt>
      <trkpt lat="44.44809" lon="5.78194">
        <ele>786</ele>
        <time>2019-06-15T08:23:42Z</time>
      </trkpt>
      <trkpt lat="44.44814" lon="5.78195">
        <ele>786</ele>
        <time>2019-06-15T08:23:43Z</time>
      </trkpt>
      <trkpt lat="44.4482" lon="5.78196">
        <ele>786</ele>
        <time>2019-06-15T08:23:44Z</time>
      </trkpt>
      <trkpt lat="44.44825" lon="5.78196">
        <ele>786</ele>
        <time>2019-06-15T08:23:45Z</time>
      </trkpt>
      <trkpt lat="44.4483" lon="5.78197">
        <ele>786</ele>
        <time>2019-06-15T08:23:46Z</time>
      </trkpt>
      <trkpt lat="44.44836" lon="5.78198">
        <ele>786</ele>
        <time>2019-06-15T08:23:47Z</time>
      </trkpt>
      <trkpt lat="44.44841" lon="5.78199">
        <ele>786</ele>
        <time>2019-06-15T08:23:48Z</time>
      </trkpt>
      <trkpt lat="44.44847" lon="5.78201">
        <ele>786</ele>
        <time>2019-06-15T08:23:49Z</time>
      </trkpt>
      <trkpt lat="44.44853" lon="5.78202">
        <ele>786</ele>
        <time>2019-06-15T08:23:50Z</time>
      </trkpt>
      <trkpt lat="44.44859" lon="5.78203">
        <ele>786</ele>
        <time>2019-06-15T08:23:51Z</time>
      </trkpt>
      <trkpt lat="44.44865" lon="5.78203">
        <ele>786</ele>
        <time>2019-06-15T08:23:52Z</time>
      </trkpt>
      <trkpt lat="44.44871" lon="5.78205">
        <ele>786</ele>
        <time>2019-06-15T08:23:53Z</time>
      </trkpt>
      <trkpt lat="44.44876" lon="5.78206">
        <ele>786</ele>
        <time>2019-06-15T08:23:54Z</time>
      </trkpt>
      <trkpt lat="44.44882" lon="5.78208">
        <ele>786</ele>
        <time>2019-06-15T08:23:55Z</time>
      </trkpt>
      <trkpt lat="44.44888" lon="5.7821">
        <ele>786</ele>
        <time>2019-06-15T08:23:56Z</time>
      </trkpt>
      <trkpt lat="44.44893" lon="5.78213">
        <ele>786</ele>
        <time>2019-06-15T08:23:57Z</time>
      </trkpt>
      <trkpt lat="44.44898" lon="5.78216">
        <ele>786</ele>
        <time>2019-06-15T08:23:58Z</time>
      </trkpt>
      <trkpt lat="44.44902" lon="5.78219">
        <ele>786</ele>
        <time>2019-06-15T08:23:59Z</time>
      </trkpt>
      <trkpt lat="44.44907" lon="5.78223">
        <ele>787</ele>
        <time>2019-06-15T08:24:00Z</time>
      </trkpt>
      <trkpt lat="44.44911" lon="5.78226">
        <ele>787</ele>
        <time>2019-06-15T08:24:01Z</time>
      </trkpt>
      <trkpt lat="44.44915" lon="5.7823">
        <ele>787</ele>
        <time>2019-06-15T08:24:02Z</time>
      </trkpt>
      <trkpt lat="44.4492" lon="5.78234">
        <ele>788</ele>
        <time>2019-06-15T08:24:03Z</time>
      </trkpt>
      <trkpt lat="44.44923" lon="5.78238">
        <ele>788</ele>
        <time>2019-06-15T08:24:04Z</time>
      </trkpt>
      <trkpt lat="44.44928" lon="5.78242">
        <ele>789</ele>
        <time>2019-06-15T08:24:05Z</time>
      </trkpt>
      <trkpt lat="44.44932" lon="5.78246">
        <ele>789</ele>
        <time>2019-06-15T08:24:06Z</time>
      </trkpt>
      <trkpt lat="44.44936" lon="5.7825">
        <ele>789</ele>
        <time>2019-06-15T08:24:07Z</time>
      </trkpt>
      <trkpt lat="44.4494" lon="5.78254">
        <ele>789</ele>
        <time>2019-06-15T08:24:08Z</time>
      </trkpt>
      <trkpt lat="44.44944" lon="5.78258">
        <ele>790</ele>
        <time>2019-06-15T08:24:09Z</time>
      </trkpt>
      <trkpt lat="44.44948" lon="5.78262">
        <ele>790</ele>
        <time>2019-06-15T08:24:10Z</time>
      </trkpt>
      <trkpt lat="44.44952" lon="5.78265">
        <ele>790</ele>
        <time>2019-06-15T08:24:11Z</time>
      </trkpt>
      <trkpt lat="44.44956" lon="5.78269">
        <ele>790</ele>
        <time>2019-06-15T08:24:12Z</time>
      </trkpt>
      <trkpt lat="44.4496" lon="5.78273">
        <ele>791</ele>
        <time>2019-06-15T08:24:13Z</time>
      </trkpt>
      <trkpt lat="44.44964" lon="5.78277">
        <ele>791</ele>
        <time>2019-06-15T08:24:14Z</time>
      </trkpt>
      <trkpt lat="44.44968" lon="5.78281">
        <ele>791</ele>
        <time>2019-06-15T08:24:15Z</time>
      </trkpt>
      <trkpt lat="44.44972" lon="5.78285">
        <ele>791</ele>
        <time>2019-06-15T08:24:16Z</time>
      </trkpt>
      <trkpt lat="44.44976" lon="5.78289">
        <ele>791</ele>
        <time>2019-06-15T08:24:17Z</time>
      </trkpt>
      <trkpt lat="44.4498" lon="5.78292">
        <ele>791</ele>
        <time>2019-06-15T08:24:18Z</time>
      </trkpt>
      <trkpt lat="44.44984" lon="5.78296">
        <ele>792</ele>
        <time>2019-06-15T08:24:19Z</time>
      </trkpt>
      <trkpt lat="44.44989" lon="5.78299">
        <ele>792</ele>
        <time>2019-06-15T08:24:20Z</time>
      </trkpt>
      <trkpt lat="44.44993" lon="5.78303">
        <ele>792</ele>
        <time>2019-06-15T08:24:21Z</time>
      </trkpt>
      <trkpt lat="44.44997" lon="5.78307">
        <ele>792</ele>
        <time>2019-06-15T08:24:22Z</time>
      </trkpt>
      <trkpt lat="44.45" lon="5.78311">
        <ele>792</ele>
        <time>2019-06-15T08:24:23Z</time>
      </trkpt>
      <trkpt lat="44.45005" lon="5.78315">
        <ele>792</ele>
        <time>2019-06-15T08:24:24Z</time>
      </trkpt>
      <trkpt lat="44.45009" lon="5.78319">
        <ele>792</ele>
        <time>2019-06-15T08:24:25Z</time>
      </trkpt>
      <trkpt lat="44.45013" lon="5.78324">
        <ele>792</ele>
        <time>2019-06-15T08:24:26Z</time>
      </trkpt>
      <trkpt lat="44.45016" lon="5.78329">
        <ele>792</ele>
        <time>2019-06-15T08:24:27Z</time>
      </trkpt>
      <trkpt lat="44.4502" lon="5.78335">
        <ele>792</ele>
        <time>2019-06-15T08:24:28Z</time>
      </trkpt>
      <trkpt lat="44.45023" lon="5.78341">
        <ele>792</ele>
        <time>2019-06-15T08:24:29Z</time>
      </trkpt>
      <trkpt lat="44.45024" lon="5.78349">
        <ele>792</ele>
        <time>2019-06-15T08:24:30Z</time>
      </trkpt>
      <trkpt lat="44.45024" lon="5.78357">
        <ele>792</ele>
        <time>2019-06-15T08:24:31Z</time>
      </trkpt>
      <trkpt lat="44.45023" lon="5.78365">
        <ele>792</ele>
        <time>2019-06-15T08:24:32Z</time>
      </trkpt>
      <trkpt lat="44.45022" lon="5.78373">
        <ele>792</ele>
        <time>2019-06-15T08:24:33Z</time>
      </trkpt>
      <trkpt lat="44.4502" lon="5.7838">
        <ele>792</ele>
        <time>2019-06-15T08:24:34Z</time>
      </trkpt>
      <trkpt lat="44.45018" lon="5.78388">
        <ele>792</ele>
        <time>2019-06-15T08:24:35Z</time>
      </trkpt>
      <trkpt lat="44.45015" lon="5.78396">
        <ele>792</ele>
        <time>2019-06-15T08:24:36Z</time>
      </trkpt>
      <trkpt lat="44.45013" lon="5.78404">
        <ele>792</ele>
        <time>2019-06-15T08:24:37Z</time>
      </trkpt>
      <trkpt lat="44.45012" lon="5.78411">
        <ele>792</ele>
        <time>2019-06-15T08:24:38Z</time>
      </trkpt>
      <trkpt lat="44.45011" lon="5.7842">
        <ele>792</ele>
        <time>2019-06-15T08:24:39Z</time>
      </trkpt>
      <trkpt lat="44.45011" lon="5.78428">
        <ele>792</ele>
        <time>2019-06-15T08:24:40Z</time>
      </trkpt>
      <trkpt lat="44.45013" lon="5.78436">
        <ele>792</ele>
        <time>2019-06-15T08:24:41Z</time>
      </trkpt>
      <trkpt lat="44.45015" lon="5.78443">
        <ele>792</ele>
        <time>2019-06-15T08:24:42Z</time>
      </trkpt>
      <trkpt lat="44.4502" lon="5.78448">
        <ele>792</ele>
        <time>2019-06-15T08:24:43Z</time>
      </trkpt>
      <trkpt lat="44.45024" lon="5.78452">
        <ele>792</ele>
        <time>2019-06-15T08:24:44Z</time>
      </trkpt>
      <trkpt lat="44.4503" lon="5.78455">
        <ele>792</ele>
        <time>2019-06-15T08:24:45Z</time>
      </trkpt>
      <trkpt lat="44.45035" lon="5.78455">
        <ele>792</ele>
        <time>2019-06-15T08:24:46Z</time>
      </trkpt>
      <trkpt lat="44.45041" lon="5.78452">
        <ele>792</ele>
        <time>2019-06-15T08:24:47Z</time>
      </trkpt>
      <trkpt lat="44.45046" lon="5.78448">
        <ele>792</ele>
        <time>2019-06-15T08:24:48Z</time>
      </trkpt>
      <trkpt lat="44.45052" lon="5.78444">
        <ele>792</ele>
        <time>2019-06-15T08:24:49Z</time>
      </trkpt>
      <trkpt lat="44.45057" lon="5.7844">
        <ele>792</ele>
        <time>2019-06-15T08:24:50Z</time>
      </trkpt>
      <trkpt lat="44.45063" lon="5.78435">
        <ele>792</ele>
        <time>2019-06-15T08:24:51Z</time>
      </trkpt>
      <trkpt lat="44.45069" lon="5.78431">
        <ele>792</ele>
        <time>2019-06-15T08:24:52Z</time>
      </trkpt>
      <trkpt lat="44.45076" lon="5.78428">
        <ele>792</ele>
        <time>2019-06-15T08:24:53Z</time>
      </trkpt>
      <trkpt lat="44.45082" lon="5.78427">
        <ele>792</ele>
        <time>2019-06-15T08:24:54Z</time>
      </trkpt>
      <trkpt lat="44.45089" lon="5.78428">
        <ele>792</ele>
        <time>2019-06-15T08:24:55Z</time>
      </trkpt>
      <trkpt lat="44.45095" lon="5.78432">
        <ele>792</ele>
        <time>2019-06-15T08:24:56Z</time>
      </trkpt>
      <trkpt lat="44.451" lon="5.78437">
        <ele>792</ele>
        <time>2019-06-15T08:24:57Z</time>
      </trkpt>
      <trkpt lat="44.45105" lon="5.78442">
        <ele>792</ele>
        <time>2019-06-15T08:24:58Z</time>
      </trkpt>
      <trkpt lat="44.45111" lon="5.78448">
        <ele>792</ele>
        <time>2019-06-15T08:24:59Z</time>
      </trkpt>
      <trkpt lat="44.45117" lon="5.78452">
        <ele>792</ele>
        <time>2019-06-15T08:25:00Z</time>
      </trkpt>
      <trkpt lat="44.45123" lon="5.78455">
        <ele>792</ele>
        <time>2019-06-15T08:25:01Z</time>
      </trkpt>
      <trkpt lat="44.4513" lon="5.78456">
        <ele>792</ele>
        <time>2019-06-15T08:25:02Z</time>
      </trkpt>
      <trkpt lat="44.45137" lon="5.78453">
        <ele>792</ele>
        <time>2019-06-15T08:25:03Z</time>
      </trkpt>
      <trkpt lat="44.45143" lon="5.78449">
        <ele>792</ele>
        <time>2019-06-15T08:25:04Z</time>
      </trkpt>
      <trkpt lat="44.45148" lon="5.78443">
        <ele>792</ele>
        <time>2019-06-15T08:25:05Z</time>
      </trkpt>
      <trkpt lat="44.45153" lon="5.78437">
        <ele>792</ele>
        <time>2019-06-15T08:25:06Z</time>
      </trkpt>
      <trkpt lat="44.45159" lon="5.78431">
        <ele>792</ele>
        <time>2019-06-15T08:25:07Z</time>
      </trkpt>
      <trkpt lat="44.45164" lon="5.78426">
        <ele>792</ele>
        <time>2019-06-15T08:25:08Z</time>
      </trkpt>
      <trkpt lat="44.4517" lon="5.78423">
        <ele>792</ele>
        <time>2019-06-15T08:25:09Z</time>
      </trkpt>
      <trkpt lat="44.45177" lon="5.78421">
        <ele>792</ele>
        <time>2019-06-15T08:25:10Z</time>
      </trkpt>
      <trkpt lat="44.45184" lon="5.78422">
        <ele>792</ele>
        <time>2019-06-15T08:25:11Z</time>
      </trkpt>
      <trkpt lat="44.4519" lon="5.78425">
        <ele>792</ele>
        <time>2019-06-15T08:25:12Z</time>
      </trkpt>
      <trkpt lat="44.45195" lon="5.78429">
        <ele>792</ele>
        <time>2019-06-15T08:25:13Z</time>
      </trkpt>
      <trkpt lat="44.45201" lon="5.78435">
        <ele>792</ele>
        <time>2019-06-15T08:25:14Z</time>
      </trkpt>
      <trkpt lat="44.45206" lon="5.78441">
        <ele>792</ele>
        <time>2019-06-15T08:25:15Z</time>
      </trkpt>
      <trkpt lat="44.4521" lon="5.78447">
        <ele>792</ele>
        <time>2019-06-15T08:25:16Z</time>
      </trkpt>
      <trkpt lat="44.45215" lon="5.78453">
        <ele>792</ele>
        <time>2019-06-15T08:25:17Z</time>
      </trkpt>
      <trkpt lat="44.45221" lon="5.7846">
        <ele>792</ele>
        <time>2019-06-15T08:25:18Z</time>
      </trkpt>
      <trkpt lat="44.45226" lon="5.78466">
        <ele>792</ele>
        <time>2019-06-15T08:25:19Z</time>
      </trkpt>
      <trkpt lat="44.4523" lon="5.78472">
        <ele>792</ele>
        <time>2019-06-15T08:25:20Z</time>
      </trkpt>
      <trkpt lat="44.45235" lon="5.78479">
        <ele>792</ele>
        <time>2019-06-15T08:25:21Z</time>
      </trkpt>
      <trkpt lat="44.4524" lon="5.78485">
        <ele>792</ele>
        <time>2019-06-15T08:25:22Z</time>
      </trkpt>
      <trkpt lat="44.45245" lon="5.78491">
        <ele>792</ele>
        <time>2019-06-15T08:25:23Z</time>
      </trkpt>
      <trkpt lat="44.45249" lon="5.78497">
        <ele>792</ele>
        <time>2019-06-15T08:25:24Z</time>
      </trkpt>
      <trkpt lat="44.45255" lon="5.78502">
        <ele>792</ele>
        <time>2019-06-15T08:25:25Z</time>
      </trkpt>
      <trkpt lat="44.45261" lon="5.78506">
        <ele>792</ele>
        <time>2019-06-15T08:25:26Z</time>
      </trkpt>
      <trkpt lat="44.45267" lon="5.78509">
        <ele>792</ele>
        <time>2019-06-15T08:25:27Z</time>
      </trkpt>
      <trkpt lat="44.45274" lon="5.78509">
        <ele>792</ele>
        <time>2019-06-15T08:25:28Z</time>
      </trkpt>
      <trkpt lat="44.4528" lon="5.78508">
        <ele>792</ele>
        <time>2019-06-15T08:25:29Z</time>
      </trkpt>
      <trkpt lat="44.45285" lon="5.78505">
        <ele>792</ele>
        <time>2019-06-15T08:25:30Z</time>
      </trkpt>
      <trkpt lat="44.45291" lon="5.78501">
        <ele>792</ele>
        <time>2019-06-15T08:25:31Z</time>
      </trkpt>
      <trkpt lat="44.45296" lon="5.78497">
        <ele>792</ele>
        <time>2019-06-15T08:25:32Z</time>
      </trkpt>
      <trkpt lat="44.45301" lon="5.78492">
        <ele>792</ele>
        <time>2019-06-15T08:25:33Z</time>
      </trkpt>
      <trkpt lat="44.45306" lon="5.78487">
        <ele>792</ele>
        <time>2019-06-15T08:25:34Z</time>
      </trkpt>
      <trkpt lat="44.45309" lon="5.78482">
        <ele>792</ele>
        <time>2019-06-15T08:25:35Z</time>
      </trkpt>
      <trkpt lat="44.45313" lon="5.78477">
        <ele>792</ele>
        <time>2019-06-15T08:25:36Z</time>
      </trkpt>
      <trkpt lat="44.45316" lon="5.78472">
        <ele>792</ele>
        <time>2019-06-15T08:25:37Z</time>
      </trkpt>
      <trkpt lat="44.4532" lon="5.78467">
        <ele>792</ele>
        <time>2019-06-15T08:25:38Z</time>
      </trkpt>
      <trkpt lat="44.45324" lon="5.78462">
        <ele>792</ele>
        <time>2019-06-15T08:25:39Z</time>
      </trkpt>
      <trkpt lat="44.45327" lon="5.78457">
        <ele>792</ele>
        <time>2019-06-15T08:25:40Z</time>
      </trkpt>
      <trkpt lat="44.45331" lon="5.78452">
        <ele>792</ele>
        <time>2019-06-15T08:25:41Z</time>
      </trkpt>
      <trkpt lat="44.45334" lon="5.78447">
        <ele>792</ele>
        <time>2019-06-15T08:25:42Z</time>
      </trkpt>
      <trkpt lat="44.45338" lon="5.78442">
        <ele>792</ele>
        <time>2019-06-15T08:25:43Z</time>
      </trkpt>
      <trkpt lat="44.45341" lon="5.78438">
        <ele>792</ele>
        <time>2019-06-15T08:25:44Z</time>
      </trkpt>
      <trkpt lat="44.45344" lon="5.78433">
        <ele>792</ele>
        <time>2019-06-15T08:25:45Z</time>
      </trkpt>
      <trkpt lat="44.45347" lon="5.78429">
        <ele>792</ele>
        <time>2019-06-15T08:25:46Z</time>
      </trkpt>
      <trkpt lat="44.45351" lon="5.78424">
        <ele>792</ele>
        <time>2019-06-15T08:25:47Z</time>
      </trkpt>
      <trkpt lat="44.45354" lon="5.7842">
        <ele>792</ele>
        <time>2019-06-15T08:25:48Z</time>
      </trkpt>
      <trkpt lat="44.45358" lon="5.78416">
        <ele>792</ele>
        <time>2019-06-15T08:25:49Z</time>
      </trkpt>
      <trkpt lat="44.45361" lon="5.78412">
        <ele>792</ele>
        <time>2019-06-15T08:25:50Z</time>
      </trkpt>
      <trkpt lat="44.45364" lon="5.78408">
        <ele>792</ele>
        <time>2019-06-15T08:25:51Z</time>
      </trkpt>
      <trkpt lat="44.45367" lon="5.78404">
        <ele>792</ele>
        <time>2019-06-15T08:25:52Z</time>
      </trkpt>
      <trkpt lat="44.4537" lon="5.784">
        <ele>792</ele>
        <time>2019-06-15T08:25:53Z</time>
      </trkpt>
      <trkpt lat="44.45373" lon="5.78396">
        <ele>792</ele>
        <time>2019-06-15T08:25:54Z</time>
      </trkpt>
      <trkpt lat="44.45376" lon="5.78392">
        <ele>792</ele>
        <time>2019-06-15T08:25:55Z</time>
      </trkpt>
      <trkpt lat="44.45379" lon="5.78388">
        <ele>792</ele>
        <time>2019-06-15T08:25:56Z</time>
      </trkpt>
      <trkpt lat="44.45382" lon="5.78384">
        <ele>792</ele>
        <time>2019-06-15T08:25:57Z</time>
      </trkpt>
      <trkpt lat="44.45385" lon="5.7838">
        <ele>792</ele>
        <time>2019-06-15T08:25:58Z</time>
      </trkpt>
      <trkpt lat="44.45388" lon="5.78376">
        <ele>793</ele>
        <time>2019-06-15T08:25:59Z</time>
      </trkpt>
      <trkpt lat="44.45391" lon="5.78372">
        <ele>793</ele>
        <time>2019-06-15T08:26:00Z</time>
      </trkpt>
      <trkpt lat="44.45394" lon="5.78368">
        <ele>793</ele>
        <time>2019-06-15T08:26:01Z</time>
      </trkpt>
      <trkpt lat="44.45398" lon="5.78364">
        <ele>794</ele>
        <time>2019-06-15T08:26:02Z</time>
      </trkpt>
      <trkpt lat="44.45401" lon="5.7836">
        <ele>794</ele>
        <time>2019-06-15T08:26:03Z</time>
      </trkpt>
      <trkpt lat="44.45404" lon="5.78355">
        <ele>795</ele>
        <time>2019-06-15T08:26:04Z</time>
      </trkpt>
      <trkpt lat="44.45407" lon="5.78351">
        <ele>795</ele>
        <time>2019-06-15T08:26:05Z</time>
      </trkpt>
      <trkpt lat="44.4541" lon="5.78347">
        <ele>796</ele>
        <time>2019-06-15T08:26:06Z</time>
      </trkpt>
      <trkpt lat="44.45413" lon="5.78344">
        <ele>796</ele>
        <time>2019-06-15T08:26:07Z</time>
      </trkpt>
      <trkpt lat="44.45416" lon="5.7834">
        <ele>796</ele>
        <time>2019-06-15T08:26:08Z</time>
      </trkpt>
      <trkpt lat="44.45419" lon="5.78336">
        <ele>797</ele>
        <time>2019-06-15T08:26:09Z</time>
      </trkpt>
      <trkpt lat="44.45423" lon="5.78333">
        <ele>797</ele>
        <time>2019-06-15T08:26:10Z</time>
      </trkpt>
      <trkpt lat="44.45426" lon="5.7833">
        <ele>797</ele>
        <time>2019-06-15T08:26:11Z</time>
      </trkpt>
      <trkpt lat="44.4543" lon="5.78327">
        <ele>797</ele>
        <time>2019-06-15T08:26:12Z</time>
      </trkpt>
      <trkpt lat="44.45433" lon="5.78325">
        <ele>798</ele>
        <time>2019-06-15T08:26:13Z</time>
      </trkpt>
      <trkpt lat="44.45437" lon="5.78322">
        <ele>798</ele>
        <time>2019-06-15T08:26:14Z</time>
      </trkpt>
      <trkpt lat="44.45441" lon="5.7832">
        <ele>798</ele>
        <time>2019-06-15T08:26:15Z</time>
      </trkpt>
      <trkpt lat="44.45446" lon="5.78318">
        <ele>798</ele>
        <time>2019-06-15T08:26:16Z</time>
      </trkpt>
      <trkpt lat="44.4545" lon="5.78317">
        <ele>798</ele>
        <time>2019-06-15T08:26:17Z</time>
      </trkpt>
      <trkpt lat="44.45455" lon="5.78316">
        <ele>798</ele>
        <time>2019-06-15T08:26:18Z</time>
      </trkpt>
      <trkpt lat="44.4546" lon="5.78315">
        <ele>798</ele>
        <time>2019-06-15T08:26:19Z</time>
      </trkpt>
      <trkpt lat="44.45465" lon="5.78315">
        <ele>798</ele>
        <time>2019-06-15T08:26:20Z</time>
      </trkpt>
      <trkpt lat="44.4547" lon="5.78315">
        <ele>798</ele>
        <time>2019-06-15T08:26:21Z</time>
      </trkpt>
      <trkpt lat="44.45476" lon="5.78315">
        <ele>798</ele>
        <time>2019-06-15T08:26:22Z</time>
      </trkpt>
      <trkpt lat="44.45482" lon="5.78315">
        <ele>798</ele>
        <time>2019-06-15T08:26:23Z</time>
      </trkpt>
      <trkpt lat="44.45488" lon="5.78316">
        <ele>798</ele>
        <time>2019-06-15T08:26:24Z</time>
      </trkpt>
      <trkpt lat="44.45494" lon="5.78316">
        <ele>798</ele>
        <time>2019-06-15T08:26:25Z</time>
      </trkpt>
      <trkpt lat="44.45501" lon="5.78317">
        <ele>798</ele>
        <time>2019-06-15T08:26:26Z</time>
      </trkpt>
      <trkpt lat="44.45508" lon="5.78317">
        <ele>798</ele>
        <time>2019-06-15T08:26:27Z</time>
      </trkpt>
      <trkpt lat="44.45515" lon="5.78317">
        <ele>798</ele>
        <time>2019-06-15T08:26:28Z</time>
      </trkpt>
      <trkpt lat="44.45523" lon="5.78317">
        <ele>798</ele>
        <time>2019-06-15T08:26:29Z</time>
      </trkpt>
      <trkpt lat="44.4553" lon="5.78317">
        <ele>798</ele>
        <time>2019-06-15T08:26:30Z</time>
      </trkpt>
      <trkpt lat="44.45538" lon="5.78318">
        <ele>798</ele>
        <time>2019-06-15T08:26:31Z</time>
      </trkpt>
      <trkpt lat="44.45545" lon="5.78319">
        <ele>798</ele>
        <time>2019-06-15T08:26:32Z</time>
      </trkpt>
      <trkpt lat="44.45553" lon="5.7832">
        <ele>798</ele>
        <time>2019-06-15T08:26:33Z</time>
      </trkpt>
      <trkpt lat="44.4556" lon="5.78319">
        <ele>798</ele>
        <time>2019-06-15T08:26:34Z</time>
      </trkpt>
      <trkpt lat="44.45568" lon="5.78317">
        <ele>798</ele>
        <time>2019-06-15T08:26:35Z</time>
      </trkpt>
      <trkpt lat="44.45575" lon="5.78314">
        <ele>798</ele>
        <time>2019-06-15T08:26:36Z</time>
      </trkpt>
      <trkpt lat="44.45582" lon="5.7831">
        <ele>798</ele>
        <time>2019-06-15T08:26:37Z</time>
      </trkpt>
      <trkpt lat="44.45589" lon="5.78304">
        <ele>798</ele>
        <time>2019-06-15T08:26:38Z</time>
      </trkpt>
      <trkpt lat="44.45595" lon="5.78297">
        <ele>798</ele>
        <time>2019-06-15T08:26:39Z</time>
      </trkpt>
      <trkpt lat="44.456" lon="5.78289">
        <ele>798</ele>
        <time>2019-06-15T08:26:40Z</time>
      </trkpt>
      <trkpt lat="44.45605" lon="5.78279">
        <ele>798</ele>
        <time>2019-06-15T08:26:41Z</time>
      </trkpt>
      <trkpt lat="44.45612" lon="5.78271">
        <ele>798</ele>
        <time>2019-06-15T08:26:42Z</time>
      </trkpt>
      <trkpt lat="44.45619" lon="5.78265">
        <ele>798</ele>
        <time>2019-06-15T08:26:43Z</time>
      </trkpt>
      <trkpt lat="44.45628" lon="5.78262">
        <ele>798</ele>
        <time>2019-06-15T08:26:44Z</time>
      </trkpt>
      <trkpt lat="44.45637" lon="5.78263">
        <ele>798</ele>
        <time>2019-06-15T08:26:45Z</time>
      </trkpt>
      <trkpt lat="44.45644" lon="5.78268">
        <ele>797</ele>
        <time>2019-06-15T08:26:46Z</time>
      </trkpt>
      <trkpt lat="44.4565" lon="5.78276">
        <ele>797</ele>
        <time>2019-06-15T08:26:47Z</time>
      </trkpt>
      <trkpt lat="44.45655" lon="5.78286">
        <ele>796</ele>
        <time>2019-06-15T08:26:48Z</time>
      </trkpt>
      <trkpt lat="44.45659" lon="5.78297">
        <ele>796</ele>
        <time>2019-06-15T08:26:49Z</time>
      </trkpt>
      <trkpt lat="44.45663" lon="5.78308">
        <ele>796</ele>
        <time>2019-06-15T08:26:50Z</time>
      </trkpt>
      <trkpt lat="44.45666" lon="5.78319">
        <ele>795</ele>
        <time>2019-06-15T08:26:51Z</time>
      </trkpt>
      <trkpt lat="44.4567" lon="5.7833">
        <ele>795</ele>
        <time>2019-06-15T08:26:52Z</time>
      </trkpt>
      <trkpt lat="44.45673" lon="5.78341">
        <ele>794</ele>
        <time>2019-06-15T08:26:53Z</time>
      </trkpt>
      <trkpt lat="44.45677" lon="5.78352">
        <ele>794</ele>
        <time>2019-06-15T08:26:54Z</time>
      </trkpt>
      <trkpt lat="44.4568" lon="5.78363">
        <ele>793</ele>
        <time>2019-06-15T08:26:55Z</time>
      </trkpt>
      <trkpt lat="44.45684" lon="5.78373">
        <ele>793</ele>
        <time>2019-06-15T08:26:56Z</time>
      </trkpt>
      <trkpt lat="44.45689" lon="5.78383">
        <ele>792</ele>
        <time>2019-06-15T08:26:57Z</time>
      </trkpt>
      <trkpt lat="44.45695" lon="5.78392">
        <ele>792</ele>
        <time>2019-06-15T08:26:58Z</time>
      </trkpt>
      <trkpt lat="44.45703" lon="5.78398">
        <ele>792</ele>
        <time>2019-06-15T08:26:59Z</time>
      </trkpt>
      <trkpt lat="44.45711" lon="5.78403">
        <ele>791</ele>
        <time>2019-06-15T08:27:00Z</time>
      </trkpt>
      <trkpt lat="44.4572" lon="5.78406">
        <ele>791</ele>
        <time>2019-06-15T08:27:01Z</time>
      </trkpt>
      <trkpt lat="44.45729" lon="5.78409">
        <ele>791</ele>
        <time>2019-06-15T08:27:02Z</time>
      </trkpt>
      <trkpt lat="44.45737" lon="5.7841">
        <ele>791</ele>
        <time>2019-06-15T08:27:03Z</time>
      </trkpt>
      <trkpt lat="44.45746" lon="5.78409">
        <ele>791</ele>
        <time>2019-06-15T08:27:04Z</time>
      </trkpt>
      <trkpt lat="44.45754" lon="5.78407">
        <ele>791</ele>
        <time>2019-06-15T08:27:05Z</time>
      </trkpt>
      <trkpt lat="44.45762" lon="5.78403">
        <ele>791</ele>
        <time>2019-06-15T08:27:06Z</time>
      </trkpt>
      <trkpt lat="44.45769" lon="5.78397">
        <ele>791</ele>
        <time>2019-06-15T08:27:07Z</time>
      </trkpt>
      <trkpt lat="44.45776" lon="5.78391">
        <ele>791</ele>
        <time>2019-06-15T08:27:08Z</time>
      </trkpt>
      <trkpt lat="44.45782" lon="5.78384">
        <ele>790</ele>
        <time>2019-06-15T08:27:09Z</time>
      </trkpt>
      <trkpt lat="44.45788" lon="5.78377">
        <ele>790</ele>
        <time>2019-06-15T08:27:10Z</time>
      </trkpt>
      <trkpt lat="44.45794" lon="5.7837">
        <ele>790</ele>
        <time>2019-06-15T08:27:11Z</time>
      </trkpt>
      <trkpt lat="44.458" lon="5.78362">
        <ele>790</ele>
        <time>2019-06-15T08:27:12Z</time>
      </trkpt>
      <trkpt lat="44.45807" lon="5.78355">
        <ele>789</ele>
        <time>2019-06-15T08:27:13Z</time>
      </trkpt>
      <trkpt lat="44.45813" lon="5.78347">
        <ele>789</ele>
        <time>2019-06-15T08:27:14Z</time>
      </trkpt>
      <trkpt lat="44.45819" lon="5.78339">
        <ele>789</ele>
        <time>2019-06-15T08:27:15Z</time>
      </trkpt>
      <trkpt lat="44.45826" lon="5.78331">
        <ele>788</ele>
        <time>2019-06-15T08:27:16Z</time>
      </trkpt>
      <trkpt lat="44.45833" lon="5.78322">
        <ele>787</ele>
        <time>2019-06-15T08:27:17Z</time>
      </trkpt>
      <trkpt lat="44.4584" lon="5.78313">
        <ele>787</ele>
        <time>2019-06-15T08:27:18Z</time>
      </trkpt>
      <trkpt lat="44.45848" lon="5.78304">
        <ele>786</ele>
        <time>2019-06-15T08:27:19Z</time>
      </trkpt>
      <trkpt lat="44.45856" lon="5.78297">
        <ele>786</ele>
        <time>2019-06-15T08:27:20Z</time>
      </trkpt>
      <trkpt lat="44.45865" lon="5.7829">
        <ele>785</ele>
        <time>2019-06-15T08:27:21Z</time>
      </trkpt>
      <trkpt lat="44.45874" lon="5.78285">
        <ele>784</ele>
        <time>2019-06-15T08:27:22Z</time>
      </trkpt>
      <trkpt lat="44.45884" lon="5.78282">
        <ele>784</ele>
        <time>2019-06-15T08:27:23Z</time>
      </trkpt>
      <trkpt lat="44.45894" lon="5.7828">
        <ele>783</ele>
        <time>2019-06-15T08:27:24Z</time>
      </trkpt>
      <trkpt lat="44.45905" lon="5.7828">
        <ele>782</ele>
        <time>2019-06-15T08:27:25Z</time>
      </trkpt>
      <trkpt lat="44.45915" lon="5.7828">
        <ele>782</ele>
        <time>2019-06-15T08:27:26Z</time>
      </trkpt>
      <trkpt lat="44.45925" lon="5.78281">
        <ele>781</ele>
        <time>2019-06-15T08:27:27Z</time>
      </trkpt>
      <trkpt lat="44.45934" lon="5.78284">
        <ele>780</ele>
        <time>2019-06-15T08:27:28Z</time>
      </trkpt>
      <trkpt lat="44.45941" lon="5.78289">
        <ele>779</ele>
        <time>2019-06-15T08:27:29Z</time>
      </trkpt>
      <trkpt lat="44.45948" lon="5.78298">
        <ele>779</ele>
        <time>2019-06-15T08:27:30Z</time>
      </trkpt>
      <trkpt lat="44.45953" lon="5.78308">
        <ele>778</ele>
        <time>2019-06-15T08:27:31Z</time>
      </trkpt>
      <trkpt lat="44.45958" lon="5.78317">
        <ele>777</ele>
        <time>2019-06-15T08:27:32Z</time>
      </trkpt>
      <trkpt lat="44.45966" lon="5.78323">
        <ele>777</ele>
        <time>2019-06-15T08:27:33Z</time>
      </trkpt>
      <trkpt lat="44.45974" lon="5.78326">
        <ele>776</ele>
        <time>2019-06-15T08:27:34Z</time>
      </trkpt>
      <trkpt lat="44.45982" lon="5.78328">
        <ele>776</ele>
        <time>2019-06-15T08:27:35Z</time>
      </trkpt>
      <trkpt lat="44.45991" lon="5.78329">
        <ele>776</ele>
        <time>2019-06-15T08:27:36Z</time>
      </trkpt>
      <trkpt lat="44.45999" lon="5.7833">
        <ele>776</ele>
        <time>2019-06-15T08:27:37Z</time>
      </trkpt>
      <trkpt lat="44.46008" lon="5.78331">
        <ele>776</ele>
        <time>2019-06-15T08:27:38Z</time>
      </trkpt>
      <trkpt lat="44.46017" lon="5.78331">
        <ele>776</ele>
        <time>2019-06-15T08:27:39Z</time>
      </trkpt>
      <trkpt lat="44.46026" lon="5.78331">
        <ele>776</ele>
        <time>2019-06-15T08:27:40Z</time>
      </trkpt>
      <trkpt lat="44.46034" lon="5.78329">
        <ele>776</ele>
        <time>2019-06-15T08:27:41Z</time>
      </trkpt>
      <trkpt lat="44.46042" lon="5.78326">
        <ele>776</ele>
        <time>2019-06-15T08:27:42Z</time>
      </trkpt>
      <trkpt lat="44.4605" lon="5.78321">
        <ele>776</ele>
        <time>2019-06-15T08:27:43Z</time>
      </trkpt>
      <trkpt lat="44.46057" lon="5.78315">
        <ele>776</ele>
        <time>2019-06-15T08:27:44Z</time>
      </trkpt>
      <trkpt lat="44.46063" lon="5.78308">
        <ele>776</ele>
        <time>2019-06-15T08:27:45Z</time>
      </trkpt>
      <trkpt lat="44.46069" lon="5.783">
        <ele>776</ele>
        <time>2019-06-15T08:27:46Z</time>
      </trkpt>
      <trkpt lat="44.46075" lon="5.78292">
        <ele>776</ele>
        <time>2019-06-15T08:27:47Z</time>
      </trkpt>
      <trkpt lat="44.4608" lon="5.78285">
        <ele>776</ele>
        <time>2019-06-15T08:27:48Z</time>
      </trkpt>
      <trkpt lat="44.46086" lon="5.78277">
        <ele>776</ele>
        <time>2019-06-15T08:27:49Z</time>
      </trkpt>
      <trkpt lat="44.46091" lon="5.78271">
        <ele>776</ele>
        <time>2019-06-15T08:27:50Z</time>
      </trkpt>
      <trkpt lat="44.46098" lon="5.78265">
        <ele>776</ele>
        <time>2019-06-15T08:27:51Z</time>
      </trkpt>
      <trkpt lat="44.46104" lon="5.78261">
        <ele>776</ele>
        <time>2019-06-15T08:27:52Z</time>
      </trkpt>
      <trkpt lat="44.46111" lon="5.78257">
        <ele>776</ele>
        <time>2019-06-15T08:27:53Z</time>
      </trkpt>
      <trkpt lat="44.46118" lon="5.78255">
        <ele>776</ele>
        <time>2019-06-15T08:27:54Z</time>
      </trkpt>
      <trkpt lat="44.46126" lon="5.78254">
        <ele>776</ele>
        <time>2019-06-15T08:27:55Z</time>
      </trkpt>
      <trkpt lat="44.46134" lon="5.78253">
        <ele>776</ele>
        <time>2019-06-15T08:27:56Z</time>
      </trkpt>
      <trkpt lat="44.46141" lon="5.78252">
        <ele>775</ele>
        <time>2019-06-15T08:27:57Z</time>
      </trkpt>
      <trkpt lat="44.46149" lon="5.78252">
        <ele>775</ele>
        <time>2019-06-15T08:27:58Z</time>
      </trkpt>
      <trkpt lat="44.46157" lon="5.78251">
        <ele>775</ele>
        <time>2019-06-15T08:27:59Z</time>
      </trkpt>
      <trkpt lat="44.46166" lon="5.78251">
        <ele>774</ele>
        <time>2019-06-15T08:28:00Z</time>
      </trkpt>
      <trkpt lat="44.46174" lon="5.7825">
        <ele>774</ele>
        <time>2019-06-15T08:28:01Z</time>
      </trkpt>
      <trkpt lat="44.46182" lon="5.7825">
        <ele>774</ele>
        <time>2019-06-15T08:28:02Z</time>
      </trkpt>
      <trkpt lat="44.4619" lon="5.78251">
        <ele>773</ele>
        <time>2019-06-15T08:28:03Z</time>
      </trkpt>
      <trkpt lat="44.46199" lon="5.78252">
        <ele>773</ele>
        <time>2019-06-15T08:28:04Z</time>
      </trkpt>
      <trkpt lat="44.46207" lon="5.78255">
        <ele>773</ele>
        <time>2019-06-15T08:28:05Z</time>
      </trkpt>
      <trkpt lat="44.46215" lon="5.78259">
        <ele>773</ele>
        <time>2019-06-15T08:28:06Z</time>
      </trkpt>
      <trkpt lat="44.46223" lon="5.78263">
        <ele>773</ele>
        <time>2019-06-15T08:28:07Z</time>
      </trkpt>
      <trkpt lat="44.4623" lon="5.78268">
        <ele>773</ele>
        <time>2019-06-15T08:28:08Z</time>
      </trkpt>
      <trkpt lat="44.46237" lon="5.78274">
        <ele>773</ele>
        <time>2019-06-15T08:28:09Z</time>
      </trkpt>
      <trkpt lat="44.46245" lon="5.78279">
        <ele>773</ele>
        <time>2019-06-15T08:28:10Z</time>
      </trkpt>
      <trkpt lat="44.46252" lon="5.78285">
        <ele>772</ele>
        <time>2019-06-15T08:28:11Z</time>
      </trkpt>
      <trkpt lat="44.4626" lon="5.7829">
        <ele>772</ele>
        <time>2019-06-15T08:28:12Z</time>
      </trkpt>
      <trkpt lat="44.46267" lon="5.78296">
        <ele>772</ele>
        <time>2019-06-15T08:28:13Z</time>
      </trkpt>
      <trkpt lat="44.46274" lon="5.78301">
        <ele>772</ele>
        <time>2019-06-15T08:28:14Z</time>
      </trkpt>
      <trkpt lat="44.46282" lon="5.78306">
        <ele>772</ele>
        <time>2019-06-15T08:28:15Z</time>
      </trkpt>
      <trkpt lat="44.4629" lon="5.78311">
        <ele>772</ele>
        <time>2019-06-15T08:28:16Z</time>
      </trkpt>
      <trkpt lat="44.46297" lon="5.78315">
        <ele>772</ele>
        <time>2019-06-15T08:28:17Z</time>
      </trkpt>
      <trkpt lat="44.46305" lon="5.78318">
        <ele>772</ele>
        <time>2019-06-15T08:28:18Z</time>
      </trkpt>
      <trkpt lat="44.46312" lon="5.7832">
        <ele>772</ele>
        <time>2019-06-15T08:28:19Z</time>
      </trkpt>
      <trkpt lat="44.46319" lon="5.78321">
        <ele>772</ele>
        <time>2019-06-15T08:28:20Z</time>
      </trkpt>
      <trkpt lat="44.46326" lon="5.78321">
        <ele>772</ele>
        <time>2019-06-15T08:28:21Z</time>
      </trkpt>
      <trkpt lat="44.46333" lon="5.7832">
        <ele>772</ele>
        <time>2019-06-15T08:28:22Z</time>
      </trkpt>
      <trkpt lat="44.4634" lon="5.7832">
        <ele>772</ele>
        <time>2019-06-15T08:28:23Z</time>
      </trkpt>
      <trkpt lat="44.46347" lon="5.7832">
        <ele>772</ele>
        <time>2019-06-15T08:28:24Z</time>
      </trkpt>
      <trkpt lat="44.46354" lon="5.78321">
        <ele>772</ele>
        <time>2019-06-15T08:28:25Z</time>
      </trkpt>
      <trkpt lat="44.4636" lon="5.78321">
        <ele>772</ele>
        <time>2019-06-15T08:28:26Z</time>
      </trkpt>
      <trkpt lat="44.46367" lon="5.78322">
        <ele>772</ele>
        <time>2019-06-15T08:28:27Z</time>
      </trkpt>
      <trkpt lat="44.46374" lon="5.78324">
        <ele>772</ele>
        <time>2019-06-15T08:28:28Z</time>
      </trkpt>
      <trkpt lat="44.46381" lon="5.78325">
        <ele>772</ele>
        <time>2019-06-15T08:28:29Z</time>
      </trkpt>
      <trkpt lat="44.46388" lon="5.78326">
        <ele>772</ele>
        <time>2019-06-15T08:28:30Z</time>
      </trkpt>
      <trkpt lat="44.46396" lon="5.78326">
        <ele>772</ele>
        <time>2019-06-15T08:28:31Z</time>
      </trkpt>
      <trkpt lat="44.46403" lon="5.78326">
        <ele>772</ele>
        <time>2019-06-15T08:28:32Z</time>
      </trkpt>
      <trkpt lat="44.4641" lon="5.78324">
        <ele>772</ele>
        <time>2019-06-15T08:28:33Z</time>
      </trkpt>
      <trkpt lat="44.46417" lon="5.78322">
        <ele>772</ele>
        <time>2019-06-15T08:28:34Z</time>
      </trkpt>
      <trkpt lat="44.46424" lon="5.78318">
        <ele>772</ele>
        <time>2019-06-15T08:28:35Z</time>
      </trkpt>
      <trkpt lat="44.46431" lon="5.78314">
        <ele>772</ele>
        <time>2019-06-15T08:28:36Z</time>
      </trkpt>
      <trkpt lat="44.46437" lon="5.7831">
        <ele>772</ele>
        <time>2019-06-15T08:28:37Z</time>
      </trkpt>
      <trkpt lat="44.46444" lon="5.78306">
        <ele>772</ele>
        <time>2019-06-15T08:28:38Z</time>
      </trkpt>
      <trkpt lat="44.46451" lon="5.78303">
        <ele>771</ele>
        <time>2019-06-15T08:28:39Z</time>
      </trkpt>
      <trkpt lat="44.46458" lon="5.78302">
        <ele>771</ele>
        <time>2019-06-15T08:28:40Z</time>
      </trkpt>
      <trkpt lat="44.46465" lon="5.78301">
        <ele>771</ele>
        <time>2019-06-15T08:28:41Z</time>
      </trkpt>
      <trkpt lat="44.46473" lon="5.78302">
        <ele>771</ele>
        <time>2019-06-15T08:28:42Z</time>
      </trkpt>
      <trkpt lat="44.4648" lon="5.78304">
        <ele>771</ele>
        <time>2019-06-15T08:28:43Z</time>
      </trkpt>
      <trkpt lat="44.46487" lon="5.78306">
        <ele>771</ele>
        <time>2019-06-15T08:28:44Z</time>
      </trkpt>
      <trkpt lat="44.46495" lon="5.78308">
        <ele>771</ele>
        <time>2019-06-15T08:28:45Z</time>
      </trkpt>
      <trkpt lat="44.46502" lon="5.78311">
        <ele>771</ele>
        <time>2019-06-15T08:28:46Z</time>
      </trkpt>
      <trkpt lat="44.46509" lon="5.78313">
        <ele>771</ele>
        <time>2019-06-15T08:28:47Z</time>
      </trkpt>
      <trkpt lat="44.46516" lon="5.78315">
        <ele>771</ele>
        <time>2019-06-15T08:28:48Z</time>
      </trkpt>
      <trkpt lat="44.46524" lon="5.78318">
        <ele>771</ele>
        <time>2019-06-15T08:28:49Z</time>
      </trkpt>
      <trkpt lat="44.46531" lon="5.7832">
        <ele>771</ele>
        <time>2019-06-15T08:28:50Z</time>
      </trkpt>
      <trkpt lat="44.46538" lon="5.78323">
        <ele>771</ele>
        <time>2019-06-15T08:28:51Z</time>
      </trkpt>
      <trkpt lat="44.46545" lon="5.78325">
        <ele>771</ele>
        <time>2019-06-15T08:28:52Z</time>
      </trkpt>
      <trkpt lat="44.46551" lon="5.78329">
        <ele>771</ele>
        <time>2019-06-15T08:28:53Z</time>
      </trkpt>
      <trkpt lat="44.46557" lon="5.78332">
        <ele>771</ele>
        <time>2019-06-15T08:28:54Z</time>
      </trkpt>
      <trkpt lat="44.46564" lon="5.78336">
        <ele>771</ele>
        <time>2019-06-15T08:28:55Z</time>
      </trkpt>
      <trkpt lat="44.4657" lon="5.7834">
        <ele>771</ele>
        <time>2019-06-15T08:28:56Z</time>
      </trkpt>
      <trkpt lat="44.46577" lon="5.78344">
        <ele>771</ele>
        <time>2019-06-15T08:28:57Z</time>
      </trkpt>
      <trkpt lat="44.46582" lon="5.78349">
        <ele>771</ele>
        <time>2019-06-15T08:28:58Z</time>
      </trkpt>
      <trkpt lat="44.46589" lon="5.78353">
        <ele>771</ele>
        <time>2019-06-15T08:28:59Z</time>
      </trkpt>
      <trkpt lat="44.46595" lon="5.78358">
        <ele>771</ele>
        <time>2019-06-15T08:29:00Z</time>
      </trkpt>
      <trkpt lat="44.46602" lon="5.78362">
        <ele>771</ele>
        <time>2019-06-15T08:29:01Z</time>
      </trkpt>
      <trkpt lat="44.46608" lon="5.78366">
        <ele>771</ele>
        <time>2019-06-15T08:29:02Z</time>
      </trkpt>
      <trkpt lat="44.46615" lon="5.7837">
        <ele>771</ele>
        <time>2019-06-15T08:29:03Z</time>
      </trkpt>
      <trkpt lat="44.46621" lon="5.78374">
        <ele>771</ele>
        <time>2019-06-15T08:29:04Z</time>
      </trkpt>
      <trkpt lat="44.46627" lon="5.78378">
        <ele>771</ele>
        <time>2019-06-15T08:29:05Z</time>
      </trkpt>
      <trkpt lat="44.46634" lon="5.78383">
        <ele>771</ele>
        <time>2019-06-15T08:29:06Z</time>
      </trkpt>
      <trkpt lat="44.4664" lon="5.78387">
        <ele>771</ele>
        <time>2019-06-15T08:29:07Z</time>
      </trkpt>
      <trkpt lat="44.46646" lon="5.78392">
        <ele>771</ele>
        <time>2019-06-15T08:29:08Z</time>
      </trkpt>
      <trkpt lat="44.46651" lon="5.78398">
        <ele>771</ele>
        <time>2019-06-15T08:29:09Z</time>
      </trkpt>
      <trkpt lat="44.46657" lon="5.78404">
        <ele>771</ele>
        <time>2019-06-15T08:29:10Z</time>
      </trkpt>
      <trkpt lat="44.46663" lon="5.78411">
        <ele>771</ele>
        <time>2019-06-15T08:29:11Z</time>
      </trkpt>
      <trkpt lat="44.46668" lon="5.78419">
        <ele>771</ele>
        <time>2019-06-15T08:29:12Z</time>
      </trkpt>
      <trkpt lat="44.46672" lon="5.78428">
        <ele>771</ele>
        <time>2019-06-15T08:29:13Z</time>
      </trkpt>
      <trkpt lat="44.46676" lon="5.78438">
        <ele>771</ele>
        <time>2019-06-15T08:29:14Z</time>
      </trkpt>
      <trkpt lat="44.4668" lon="5.78447">
        <ele>771</ele>
        <time>2019-06-15T08:29:15Z</time>
      </trkpt>
      <trkpt lat="44.46684" lon="5.78457">
        <ele>771</ele>
        <time>2019-06-15T08:29:16Z</time>
      </trkpt>
      <trkpt lat="44.46688" lon="5.78466">
        <ele>771</ele>
        <time>2019-06-15T08:29:17Z</time>
      </trkpt>
      <trkpt lat="44.46692" lon="5.78475">
        <ele>771</ele>
        <time>2019-06-15T08:29:18Z</time>
      </trkpt>
      <trkpt lat="44.46698" lon="5.78483">
        <ele>771</ele>
        <time>2019-06-15T08:29:19Z</time>
      </trkpt>
      <trkpt lat="44.46703" lon="5.7849">
        <ele>771</ele>
        <time>2019-06-15T08:29:20Z</time>
      </trkpt>
      <trkpt lat="44.46709" lon="5.78496">
        <ele>771</ele>
        <time>2019-06-15T08:29:21Z</time>
      </trkpt>
      <trkpt lat="44.46716" lon="5.78502">
        <ele>771</ele>
        <time>2019-06-15T08:29:22Z</time>
      </trkpt>
      <trkpt lat="44.46721" lon="5.78508">
        <ele>771</ele>
        <time>2019-06-15T08:29:23Z</time>
      </trkpt>
      <trkpt lat="44.46727" lon="5.78513">
        <ele>771</ele>
        <time>2019-06-15T08:29:24Z</time>
      </trkpt>
      <trkpt lat="44.46734" lon="5.78518">
        <ele>770</ele>
        <time>2019-06-15T08:29:25Z</time>
      </trkpt>
      <trkpt lat="44.4674" lon="5.78523">
        <ele>770</ele>
        <time>2019-06-15T08:29:26Z</time>
      </trkpt>
      <trkpt lat="44.46746" lon="5.78529">
        <ele>770</ele>
        <time>2019-06-15T08:29:27Z</time>
      </trkpt>
      <trkpt lat="44.46752" lon="5.78534">
        <ele>770</ele>
        <time>2019-06-15T08:29:28Z</time>
      </trkpt>
      <trkpt lat="44.46759" lon="5.7854">
        <ele>769</ele>
        <time>2019-06-15T08:29:29Z</time>
      </trkpt>
      <trkpt lat="44.46765" lon="5.78546">
        <ele>769</ele>
        <time>2019-06-15T08:29:30Z</time>
      </trkpt>
      <trkpt lat="44.46772" lon="5.78551">
        <ele>769</ele>
        <time>2019-06-15T08:29:31Z</time>
      </trkpt>
      <trkpt lat="44.46778" lon="5.78557">
        <ele>769</ele>
        <time>2019-06-15T08:29:32Z</time>
      </trkpt>
      <trkpt lat="44.46785" lon="5.78563">
        <ele>768</ele>
        <time>2019-06-15T08:29:33Z</time>
      </trkpt>
      <trkpt lat="44.46792" lon="5.78569">
        <ele>768</ele>
        <time>2019-06-15T08:29:34Z</time>
      </trkpt>
      <trkpt lat="44.46799" lon="5.78575">
        <ele>768</ele>
        <time>2019-06-15T08:29:35Z</time>
      </trkpt>
      <trkpt lat="44.46805" lon="5.78581">
        <ele>767</ele>
        <time>2019-06-15T08:29:36Z</time>
      </trkpt>
      <trkpt lat="44.46811" lon="5.78586">
        <ele>767</ele>
        <time>2019-06-15T08:29:37Z</time>
      </trkpt>
      <trkpt lat="44.46818" lon="5.78592">
        <ele>767</ele>
        <time>2019-06-15T08:29:38Z</time>
      </trkpt>
      <trkpt lat="44.46824" lon="5.78598">
        <ele>767</ele>
        <time>2019-06-15T08:29:39Z</time>
      </trkpt>
      <trkpt lat="44.4683" lon="5.78604">
        <ele>766</ele>
        <time>2019-06-15T08:29:40Z</time>
      </trkpt>
      <trkpt lat="44.46837" lon="5.78609">
        <ele>766</ele>
        <time>2019-06-15T08:29:41Z</time>
      </trkpt>
      <trkpt lat="44.46843" lon="5.78615">
        <ele>766</ele>
        <time>2019-06-15T08:29:42Z</time>
      </trkpt>
      <trkpt lat="44.4685" lon="5.78621">
        <ele>766</ele>
        <time>2019-06-15T08:29:43Z</time>
      </trkpt>
      <trkpt lat="44.46857" lon="5.78627">
        <ele>766</ele>
        <time>2019-06-15T08:29:44Z</time>
      </trkpt>
      <trkpt lat="44.46863" lon="5.78633">
        <ele>766</ele>
        <time>2019-06-15T08:29:45Z</time>
      </trkpt>
      <trkpt lat="44.4687" lon="5.78638">
        <ele>766</ele>
        <time>2019-06-15T08:29:46Z</time>
      </trkpt>
      <trkpt lat="44.46876" lon="5.78644">
        <ele>766</ele>
        <time>2019-06-15T08:29:47Z</time>
      </trkpt>
      <trkpt lat="44.46883" lon="5.78649">
        <ele>766</ele>
        <time>2019-06-15T08:29:48Z</time>
      </trkpt>
      <trkpt lat="44.46889" lon="5.78653">
        <ele>766</ele>
        <time>2019-06-15T08:29:49Z</time>
      </trkpt>
      <trkpt lat="44.46895" lon="5.78657">
        <ele>766</ele>
        <time>2019-06-15T08:29:50Z</time>
      </trkpt>
      <trkpt lat="44.46901" lon="5.78661">
        <ele>766</ele>
        <time>2019-06-15T08:29:51Z</time>
      </trkpt>
      <trkpt lat="44.46908" lon="5.78664">
        <ele>766</ele>
        <time>2019-06-15T08:29:52Z</time>
      </trkpt>
      <trkpt lat="44.46914" lon="5.78667">
        <ele>766</ele>
        <time>2019-06-15T08:29:53Z</time>
      </trkpt>
      <trkpt lat="44.46919" lon="5.7867">
        <ele>766</ele>
        <time>2019-06-15T08:29:54Z</time>
      </trkpt>
      <trkpt lat="44.46925" lon="5.78673">
        <ele>766</ele>
        <time>2019-06-15T08:29:55Z</time>
      </trkpt>
      <trkpt lat="44.4693" lon="5.78677">
        <ele>766</ele>
        <time>2019-06-15T08:29:56Z</time>
      </trkpt>
      <trkpt lat="44.46935" lon="5.78682">
        <ele>766</ele>
        <time>2019-06-15T08:29:57Z</time>
      </trkpt>
      <trkpt lat="44.46939" lon="5.78687">
        <ele>766</ele>
        <time>2019-06-15T08:29:58Z</time>
      </trkpt>
      <trkpt lat="44.46943" lon="5.78694">
        <ele>766</ele>
        <time>2019-06-15T08:29:59Z</time>
      </trkpt>
      <trkpt lat="44.46946" lon="5.787">
        <ele>766</ele>
        <time>2019-06-15T08:30:00Z</time>
      </trkpt>
      <trkpt lat="44.4695" lon="5.78707">
        <ele>766</ele>
        <time>2019-06-15T08:30:01Z</time>
      </trkpt>
      <trkpt lat="44.46954" lon="5.78715">
        <ele>766</ele>
        <time>2019-06-15T08:30:02Z</time>
      </trkpt>
      <trkpt lat="44.46959" lon="5.78721">
        <ele>766</ele>
        <time>2019-06-15T08:30:03Z</time>
      </trkpt>
      <trkpt lat="44.46964" lon="5.78727">
        <ele>766</ele>
        <time>2019-06-15T08:30:04Z</time>
      </trkpt>
      <trkpt lat="44.4697" lon="5.78733">
        <ele>766</ele>
        <time>2019-06-15T08:30:05Z</time>
      </trkpt>
      <trkpt lat="44.46976" lon="5.78739">
        <ele>766</ele>
        <time>2019-06-15T08:30:06Z</time>
      </trkpt>
      <trkpt lat="44.46982" lon="5.78744">
        <ele>766</ele>
        <time>2019-06-15T08:30:07Z</time>
      </trkpt>
      <trkpt lat="44.46989" lon="5.78748">
        <ele>766</ele>
        <time>2019-06-15T08:30:08Z</time>
      </trkpt>
      <trkpt lat="44.46995" lon="5.78752">
        <ele>766</ele>
        <time>2019-06-15T08:30:09Z</time>
      </trkpt>
      <trkpt lat="44.47002" lon="5.78754">
        <ele>766</ele>
        <time>2019-06-15T08:30:10Z</time>
      </trkpt>
      <trkpt lat="44.47009" lon="5.78757">
        <ele>766</ele>
        <time>2019-06-15T08:30:11Z</time>
      </trkpt>
      <trkpt lat="44.47016" lon="5.78757">
        <ele>766</ele>
        <time>2019-06-15T08:30:12Z</time>
      </trkpt>
      <trkpt lat="44.47023" lon="5.78757">
        <ele>766</ele>
        <time>2019-06-15T08:30:13Z</time>
      </trkpt>
      <trkpt lat="44.4703" lon="5.78754">
        <ele>766</ele>
        <time>2019-06-15T08:30:14Z</time>
      </trkpt>
      <trkpt lat="44.47037" lon="5.78749">
        <ele>766</ele>
        <time>2019-06-15T08:30:15Z</time>
      </trkpt>
      <trkpt lat="44.47042" lon="5.78743">
        <ele>766</ele>
        <time>2019-06-15T08:30:16Z</time>
      </trkpt>
      <trkpt lat="44.47048" lon="5.78735">
        <ele>766</ele>
        <time>2019-06-15T08:30:17Z</time>
      </trkpt>
      <trkpt lat="44.47053" lon="5.78728">
        <ele>766</ele>
        <time>2019-06-15T08:30:18Z</time>
      </trkpt>
      <trkpt lat="44.47057" lon="5.7872">
        <ele>766</ele>
        <time>2019-06-15T08:30:19Z</time>
      </trkpt>
      <trkpt lat="44.47062" lon="5.78712">
        <ele>766</ele>
        <time>2019-06-15T08:30:20Z</time>
      </trkpt>
      <trkpt lat="44.47066" lon="5.78704">
        <ele>766</ele>
        <time>2019-06-15T08:30:21Z</time>
      </trkpt>
      <trkpt lat="44.47071" lon="5.78696">
        <ele>766</ele>
        <time>2019-06-15T08:30:22Z</time>
      </trkpt>
      <trkpt lat="44.47075" lon="5.78688">
        <ele>766</ele>
        <time>2019-06-15T08:30:23Z</time>
      </trkpt>
      <trkpt lat="44.47079" lon="5.78681">
        <ele>766</ele>
        <time>2019-06-15T08:30:24Z</time>
      </trkpt>
      <trkpt lat="44.47083" lon="5.78674">
        <ele>766</ele>
        <time>2019-06-15T08:30:25Z</time>
      </trkpt>
      <trkpt lat="44.47087" lon="5.78666">
        <ele>766</ele>
        <time>2019-06-15T08:30:26Z</time>
      </trkpt>
      <trkpt lat="44.47092" lon="5.78659">
        <ele>766</ele>
        <time>2019-06-15T08:30:27Z</time>
      </trkpt>
      <trkpt lat="44.47095" lon="5.78653">
        <ele>766</ele>
        <time>2019-06-15T08:30:28Z</time>
      </trkpt>
      <trkpt lat="44.47099" lon="5.78646">
        <ele>766</ele>
        <time>2019-06-15T08:30:29Z</time>
      </trkpt>
      <trkpt lat="44.47103" lon="5.7864">
        <ele>766</ele>
        <time>2019-06-15T08:30:30Z</time>
      </trkpt>
      <trkpt lat="44.47107" lon="5.78634">
        <ele>766</ele>
        <time>2019-06-15T08:30:31Z</time>
      </trkpt>
      <trkpt lat="44.4711" lon="5.78627">
        <ele>766</ele>
        <time>2019-06-15T08:30:32Z</time>
      </trkpt>
      <trkpt lat="44.47113" lon="5.78621">
        <ele>766</ele>
        <time>2019-06-15T08:30:33Z</time>
      </trkpt>
      <trkpt lat="44.47117" lon="5.78615">
        <ele>766</ele>
        <time>2019-06-15T08:30:34Z</time>
      </trkpt>
      <trkpt lat="44.4712" lon="5.78609">
        <ele>766</ele>
        <time>2019-06-15T08:30:35Z</time>
      </trkpt>
      <trkpt lat="44.47124" lon="5.78603">
        <ele>766</ele>
        <time>2019-06-15T08:30:36Z</time>
      </trkpt>
      <trkpt lat="44.47128" lon="5.78597">
        <ele>766</ele>
        <time>2019-06-15T08:30:37Z</time>
      </trkpt>
      <trkpt lat="44.47131" lon="5.78591">
        <ele>766</ele>
        <time>2019-06-15T08:30:38Z</time>
      </trkpt>
      <trkpt lat="44.47135" lon="5.78584">
        <ele>766</ele>
        <time>2019-06-15T08:30:39Z</time>
      </trkpt>
      <trkpt lat="44.47139" lon="5.78577">
        <ele>766</ele>
        <time>2019-06-15T08:30:40Z</time>
      </trkpt>
      <trkpt lat="44.47143" lon="5.7857">
        <ele>766</ele>
        <time>2019-06-15T08:30:41Z</time>
      </trkpt>
      <trkpt lat="44.47147" lon="5.78563">
        <ele>766</ele>
        <time>2019-06-15T08:30:42Z</time>
      </trkpt>
      <trkpt lat="44.47152" lon="5.78556">
        <ele>766</ele>
        <time>2019-06-15T08:30:43Z</time>
      </trkpt>
      <trkpt lat="44.47156" lon="5.78548">
        <ele>766</ele>
        <time>2019-06-15T08:30:44Z</time>
      </trkpt>
      <trkpt lat="44.4716" lon="5.78541">
        <ele>766</ele>
        <time>2019-06-15T08:30:45Z</time>
      </trkpt>
      <trkpt lat="44.47165" lon="5.78533">
        <ele>766</ele>
        <time>2019-06-15T08:30:46Z</time>
      </trkpt>
      <trkpt lat="44.47169" lon="5.78525">
        <ele>766</ele>
        <time>2019-06-15T08:30:47Z</time>
      </trkpt>
      <trkpt lat="44.47173" lon="5.78518">
        <ele>765</ele>
        <time>2019-06-15T08:30:48Z</time>
      </trkpt>
      <trkpt lat="44.47178" lon="5.7851">
        <ele>765</ele>
        <time>2019-06-15T08:30:49Z</time>
      </trkpt>
      <trkpt lat="44.47182" lon="5.78503">
        <ele>765</ele>
        <time>2019-06-15T08:30:50Z</time>
      </trkpt>
      <trkpt lat="44.47187" lon="5.78496">
        <ele>765</ele>
        <time>2019-06-15T08:30:51Z</time>
      </trkpt>
      <trkpt lat="44.47191" lon="5.78489">
        <ele>765</ele>
        <time>2019-06-15T08:30:52Z</time>
      </trkpt>
      <trkpt lat="44.47195" lon="5.78481">
        <ele>765</ele>
        <time>2019-06-15T08:30:53Z</time>
      </trkpt>
      <trkpt lat="44.47199" lon="5.78474">
        <ele>765</ele>
        <time>2019-06-15T08:30:54Z</time>
      </trkpt>
      <trkpt lat="44.47203" lon="5.78467">
        <ele>765</ele>
        <time>2019-06-15T08:30:55Z</time>
      </trkpt>
      <trkpt lat="44.47208" lon="5.7846">
        <ele>765</ele>
        <time>2019-06-15T08:30:56Z</time>
      </trkpt>
      <trkpt lat="44.47212" lon="5.78453">
        <ele>765</ele>
        <time>2019-06-15T08:30:57Z</time>
      </trkpt>
      <trkpt lat="44.47216" lon="5.78445">
        <ele>765</ele>
        <time>2019-06-15T08:30:58Z</time>
      </trkpt>
      <trkpt lat="44.4722" lon="5.78438">
        <ele>765</ele>
        <time>2019-06-15T08:30:59Z</time>
      </trkpt>
      <trkpt lat="44.47224" lon="5.78431">
        <ele>765</ele>
        <time>2019-06-15T08:31:00Z</time>
      </trkpt>
      <trkpt lat="44.47228" lon="5.78424">
        <ele>765</ele>
        <time>2019-06-15T08:31:01Z</time>
      </trkpt>
      <trkpt lat="44.47232" lon="5.78417">
        <ele>765</ele>
        <time>2019-06-15T08:31:02Z</time>
      </trkpt>
      <trkpt lat="44.47236" lon="5.7841">
        <ele>765</ele>
        <time>2019-06-15T08:31:03Z</time>
      </trkpt>
      <trkpt lat="44.4724" lon="5.78403">
        <ele>765</ele>
        <time>2019-06-15T08:31:04Z</time>
      </trkpt>
      <trkpt lat="44.47244" lon="5.78396">
        <ele>765</ele>
        <time>2019-06-15T08:31:05Z</time>
      </trkpt>
      <trkpt lat="44.47248" lon="5.78389">
        <ele>765</ele>
        <time>2019-06-15T08:31:06Z</time>
      </trkpt>
      <trkpt lat="44.47252" lon="5.78382">
        <ele>765</ele>
        <time>2019-06-15T08:31:07Z</time>
      </trkpt>
      <trkpt lat="44.47256" lon="5.78375">
        <ele>765</ele>
        <time>2019-06-15T08:31:08Z</time>
      </trkpt>
      <trkpt lat="44.4726" lon="5.78368">
        <ele>765</ele>
        <time>2019-06-15T08:31:09Z</time>
      </trkpt>
      <trkpt lat="44.47264" lon="5.78361">
        <ele>765</ele>
        <time>2019-06-15T08:31:10Z</time>
      </trkpt>
      <trkpt lat="44.47268" lon="5.78354">
        <ele>765</ele>
        <time>2019-06-15T08:31:11Z</time>
      </trkpt>
      <trkpt lat="44.47272" lon="5.78347">
        <ele>765</ele>
        <time>2019-06-15T08:31:12Z</time>
      </trkpt>
      <trkpt lat="44.47276" lon="5.7834">
        <ele>765</ele>
        <time>2019-06-15T08:31:13Z</time>
      </trkpt>
      <trkpt lat="44.4728" lon="5.78333">
        <ele>765</ele>
        <time>2019-06-15T08:31:14Z</time>
      </trkpt>
      <trkpt lat="44.47284" lon="5.78327">
        <ele>765</ele>
        <time>2019-06-15T08:31:15Z</time>
      </trkpt>
      <trkpt lat="44.47288" lon="5.7832">
        <ele>765</ele>
        <time>2019-06-15T08:31:16Z</time>
      </trkpt>
      <trkpt lat="44.47292" lon="5.78313">
        <ele>765</ele>
        <time>2019-06-15T08:31:17Z</time>
      </trkpt>
      <trkpt lat="44.47296" lon="5.78306">
        <ele>765</ele>
        <time>2019-06-15T08:31:18Z</time>
      </trkpt>
      <trkpt lat="44.473" lon="5.78299">
        <ele>765</ele>
        <time>2019-06-15T08:31:19Z</time>
      </trkpt>
      <trkpt lat="44.47304" lon="5.78293">
        <ele>765</ele>
        <time>2019-06-15T08:31:20Z</time>
      </trkpt>
      <trkpt lat="44.47308" lon="5.78286">
        <ele>765</ele>
        <time>2019-06-15T08:31:21Z</time>
      </trkpt>
      <trkpt lat="44.47311" lon="5.78279">
        <ele>765</ele>
        <time>2019-06-15T08:31:22Z</time>
      </trkpt>
      <trkpt lat="44.47316" lon="5.78272">
        <ele>765</ele>
        <time>2019-06-15T08:31:23Z</time>
      </trkpt>
      <trkpt lat="44.47319" lon="5.78265">
        <ele>765</ele>
        <time>2019-06-15T08:31:24Z</time>
      </trkpt>
      <trkpt lat="44.47323" lon="5.78259">
        <ele>765</ele>
        <time>2019-06-15T08:31:25Z</time>
      </trkpt>
      <trkpt lat="44.47327" lon="5.78252">
        <ele>765</ele>
        <time>2019-06-15T08:31:26Z</time>
      </trkpt>
      <trkpt lat="44.47331" lon="5.78246">
        <ele>765</ele>
        <time>2019-06-15T08:31:27Z</time>
      </trkpt>
      <trkpt lat="44.47335" lon="5.78239">
        <ele>765</ele>
        <time>2019-06-15T08:31:28Z</time>
      </trkpt>
      <trkpt lat="44.47338" lon="5.78233">
        <ele>765</ele>
        <time>2019-06-15T08:31:29Z</time>
      </trkpt>
      <trkpt lat="44.47342" lon="5.78226">
        <ele>765</ele>
        <time>2019-06-15T08:31:30Z</time>
      </trkpt>
      <trkpt lat="44.47345" lon="5.7822">
        <ele>765</ele>
        <time>2019-06-15T08:31:31Z</time>
      </trkpt>
      <trkpt lat="44.47349" lon="5.78214">
        <ele>765</ele>
        <time>2019-06-15T08:31:32Z</time>
      </trkpt>
      <trkpt lat="44.47353" lon="5.78207">
        <ele>765</ele>
        <time>2019-06-15T08:31:33Z</time>
      </trkpt>
      <trkpt lat="44.47356" lon="5.78201">
        <ele>765</ele>
        <time>2019-06-15T08:31:34Z</time>
      </trkpt>
      <trkpt lat="44.4736" lon="5.78195">
        <ele>765</ele>
        <time>2019-06-15T08:31:35Z</time>
      </trkpt>
      <trkpt lat="44.47363" lon="5.78189">
        <ele>765</ele>
        <time>2019-06-15T08:31:36Z</time>
      </trkpt>
      <trkpt lat="44.47367" lon="5.78184">
        <ele>765</ele>
        <time>2019-06-15T08:31:37Z</time>
      </trkpt>
      <trkpt lat="44.4737" lon="5.78178">
        <ele>765</ele>
        <time>2019-06-15T08:31:38Z</time>
      </trkpt>
      <trkpt lat="44.47373" lon="5.78173">
        <ele>765</ele>
        <time>2019-06-15T08:31:39Z</time>
      </trkpt>
      <trkpt lat="44.47376" lon="5.78168">
        <ele>765</ele>
        <time>2019-06-15T08:31:40Z</time>
      </trkpt>
      <trkpt lat="44.47379" lon="5.78163">
        <ele>765</ele>
        <time>2019-06-15T08:31:41Z</time>
      </trkpt>
      <trkpt lat="44.47382" lon="5.78159">
        <ele>765</ele>
        <time>2019-06-15T08:31:42Z</time>
      </trkpt>
      <trkpt lat="44.47387" lon="5.78155">
        <ele>765</ele>
        <time>2019-06-15T08:31:43Z</time>
      </trkpt>
      <trkpt lat="44.47391" lon="5.78154">
        <ele>765</ele>
        <time>2019-06-15T08:31:44Z</time>
      </trkpt>
      <trkpt lat="44.47395" lon="5.78155">
        <ele>765</ele>
        <time>2019-06-15T08:31:45Z</time>
      </trkpt>
      <trkpt lat="44.474" lon="5.78158">
        <ele>765</ele>
        <time>2019-06-15T08:31:46Z</time>
      </trkpt>
      <trkpt lat="44.47404" lon="5.7816">
        <ele>765</ele>
        <time>2019-06-15T08:31:47Z</time>
      </trkpt>
      <trkpt lat="44.4741" lon="5.78163">
        <ele>765</ele>
        <time>2019-06-15T08:31:48Z</time>
      </trkpt>
      <trkpt lat="44.47415" lon="5.78166">
        <ele>765</ele>
        <time>2019-06-15T08:31:49Z</time>
      </trkpt>
      <trkpt lat="44.4742" lon="5.78169">
        <ele>765</ele>
        <time>2019-06-15T08:31:50Z</time>
      </trkpt>
      <trkpt lat="44.47426" lon="5.78172">
        <ele>765</ele>
        <time>2019-06-15T08:31:51Z</time>
      </trkpt>
      <trkpt lat="44.47431" lon="5.78174">
        <ele>765</ele>
        <time>2019-06-15T08:31:52Z</time>
      </trkpt>
      <trkpt lat="44.47437" lon="5.78177">
        <ele>765</ele>
        <time>2019-06-15T08:31:53Z</time>
      </trkpt>
      <trkpt lat="44.47442" lon="5.78179">
        <ele>765</ele>
        <time>2019-06-15T08:31:54Z</time>
      </trkpt>
      <trkpt lat="44.47447" lon="5.78181">
        <ele>765</ele>
        <time>2019-06-15T08:31:55Z</time>
      </trkpt>
      <trkpt lat="44.47453" lon="5.78183">
        <ele>765</ele>
        <time>2019-06-15T08:31:56Z</time>
      </trkpt>
      <trkpt lat="44.47458" lon="5.78185">
        <ele>766</ele>
        <time>2019-06-15T08:31:57Z</time>
      </trkpt>
      <trkpt lat="44.47463" lon="5.78187">
        <ele>766</ele>
        <time>2019-06-15T08:31:58Z</time>
      </trkpt>
      <trkpt lat="44.47468" lon="5.78189">
        <ele>766</ele>
        <time>2019-06-15T08:31:59Z</time>
      </trkpt>
      <trkpt lat="44.47473" lon="5.78192">
        <ele>766</ele>
        <time>2019-06-15T08:32:00Z</time>
      </trkpt>
      <trkpt lat="44.47478" lon="5.78194">
        <ele>766</ele>
        <time>2019-06-15T08:32:01Z</time>
      </trkpt>
      <trkpt lat="44.47483" lon="5.78196">
        <ele>766</ele>
        <time>2019-06-15T08:32:02Z</time>
      </trkpt>
      <trkpt lat="44.47489" lon="5.78198">
        <ele>766</ele>
        <time>2019-06-15T08:32:03Z</time>
      </trkpt>
      <trkpt lat="44.47494" lon="5.782">
        <ele>767</ele>
        <time>2019-06-15T08:32:04Z</time>
      </trkpt>
      <trkpt lat="44.47498" lon="5.78203">
        <ele>767</ele>
        <time>2019-06-15T08:32:05Z</time>
      </trkpt>
      <trkpt lat="44.47503" lon="5.78206">
        <ele>767</ele>
        <time>2019-06-15T08:32:06Z</time>
      </trkpt>
      <trkpt lat="44.47508" lon="5.78209">
        <ele>767</ele>
        <time>2019-06-15T08:32:07Z</time>
      </trkpt>
      <trkpt lat="44.47512" lon="5.78212">
        <ele>767</ele>
        <time>2019-06-15T08:32:08Z</time>
      </trkpt>
      <trkpt lat="44.47516" lon="5.78216">
        <ele>767</ele>
        <time>2019-06-15T08:32:09Z</time>
      </trkpt>
      <trkpt lat="44.4752" lon="5.78219">
        <ele>768</ele>
        <time>2019-06-15T08:32:10Z</time>
      </trkpt>
      <trkpt lat="44.47524" lon="5.78223">
        <ele>768</ele>
        <time>2019-06-15T08:32:11Z</time>
      </trkpt>
      <trkpt lat="44.47528" lon="5.78228">
        <ele>769</ele>
        <time>2019-06-15T08:32:12Z</time>
      </trkpt>
      <trkpt lat="44.47531" lon="5.78232">
        <ele>769</ele>
        <time>2019-06-15T08:32:13Z</time>
      </trkpt>
      <trkpt lat="44.47535" lon="5.78236">
        <ele>769</ele>
        <time>2019-06-15T08:32:14Z</time>
      </trkpt>
      <trkpt lat="44.47538" lon="5.78241">
        <ele>769</ele>
        <time>2019-06-15T08:32:15Z</time>
      </trkpt>
      <trkpt lat="44.47541" lon="5.78246">
        <ele>770</ele>
        <time>2019-06-15T08:32:16Z</time>
      </trkpt>
      <trkpt lat="44.47543" lon="5.78251">
        <ele>770</ele>
        <time>2019-06-15T08:32:17Z</time>
      </trkpt>
      <trkpt lat="44.47546" lon="5.78255">
        <ele>770</ele>
        <time>2019-06-15T08:32:18Z</time>
      </trkpt>
      <trkpt lat="44.47549" lon="5.78261">
        <ele>770</ele>
        <time>2019-06-15T08:32:19Z</time>
      </trkpt>
      <trkpt lat="44.47551" lon="5.78266">
        <ele>771</ele>
        <time>2019-06-15T08:32:20Z</time>
      </trkpt>
      <trkpt lat="44.47554" lon="5.78271">
        <ele>771</ele>
        <time>2019-06-15T08:32:21Z</time>
      </trkpt>
      <trkpt lat="44.47557" lon="5.78276">
        <ele>771</ele>
        <time>2019-06-15T08:32:22Z</time>
      </trkpt>
      <trkpt lat="44.4756" lon="5.78281">
        <ele>771</ele>
        <time>2019-06-15T08:32:23Z</time>
      </trkpt>
      <trkpt lat="44.47564" lon="5.78287">
        <ele>771</ele>
        <time>2019-06-15T08:32:24Z</time>
      </trkpt>
      <trkpt lat="44.47567" lon="5.78291">
        <ele>771</ele>
        <time>2019-06-15T08:32:25Z</time>
      </trkpt>
      <trkpt lat="44.47571" lon="5.78296">
        <ele>771</ele>
        <time>2019-06-15T08:32:26Z</time>
      </trkpt>
      <trkpt lat="44.47575" lon="5.78301">
        <ele>771</ele>
        <time>2019-06-15T08:32:27Z</time>
      </trkpt>
      <trkpt lat="44.4758" lon="5.78305">
        <ele>771</ele>
        <time>2019-06-15T08:32:28Z</time>
      </trkpt>
      <trkpt lat="44.47584" lon="5.78309">
        <ele>771</ele>
        <time>2019-06-15T08:32:29Z</time>
      </trkpt>
      <trkpt lat="44.47588" lon="5.78312">
        <ele>771</ele>
        <time>2019-06-15T08:32:30Z</time>
      </trkpt>
      <trkpt lat="44.47592" lon="5.78316">
        <ele>771</ele>
        <time>2019-06-15T08:32:31Z</time>
      </trkpt>
      <trkpt lat="44.47597" lon="5.78319">
        <ele>771</ele>
        <time>2019-06-15T08:32:32Z</time>
      </trkpt>
      <trkpt lat="44.47602" lon="5.78322">
        <ele>771</ele>
        <time>2019-06-15T08:32:33Z</time>
      </trkpt>
      <trkpt lat="44.47607" lon="5.78324">
        <ele>772</ele>
        <time>2019-06-15T08:32:34Z</time>
      </trkpt>
      <trkpt lat="44.47612" lon="5.78327">
        <ele>772</ele>
        <time>2019-06-15T08:32:35Z</time>
      </trkpt>
      <trkpt lat="44.47617" lon="5.7833">
        <ele>772</ele>
        <time>2019-06-15T08:32:36Z</time>
      </trkpt>
      <trkpt lat="44.47621" lon="5.78332">
        <ele>772</ele>
        <time>2019-06-15T08:32:37Z</time>
      </trkpt>
      <trkpt lat="44.47625" lon="5.78335">
        <ele>772</ele>
        <time>2019-06-15T08:32:38Z</time>
      </trkpt>
      <trkpt lat="44.4763" lon="5.78338">
        <ele>772</ele>
        <time>2019-06-15T08:32:39Z</time>
      </trkpt>
      <trkpt lat="44.47635" lon="5.78341">
        <ele>772</ele>
        <time>2019-06-15T08:32:40Z</time>
      </trkpt>
      <trkpt lat="44.47639" lon="5.78345">
        <ele>772</ele>
        <time>2019-06-15T08:32:41Z</time>
      </trkpt>
      <trkpt lat="44.47644" lon="5.78349">
        <ele>772</ele>
        <time>2019-06-15T08:32:42Z</time>
      </trkpt>
      <trkpt lat="44.47648" lon="5.78353">
        <ele>772</ele>
        <time>2019-06-15T08:32:43Z</time>
      </trkpt>
      <trkpt lat="44.47652" lon="5.78357">
        <ele>772</ele>
        <time>2019-06-15T08:32:44Z</time>
      </trkpt>
      <trkpt lat="44.47656" lon="5.78362">
        <ele>772</ele>
        <time>2019-06-15T08:32:45Z</time>
      </trkpt>
      <trkpt lat="44.47659" lon="5.78367">
        <ele>772</ele>
        <time>2019-06-15T08:32:46Z</time>
      </trkpt>
      <trkpt lat="44.47662" lon="5.78372">
        <ele>772</ele>
        <time>2019-06-15T08:32:47Z</time>
      </trkpt>
      <trkpt lat="44.47664" lon="5.78378">
        <ele>772</ele>
        <time>2019-06-15T08:32:48Z</time>
      </trkpt>
      <trkpt lat="44.47665" lon="5.78385">
        <ele>772</ele>
        <time>2019-06-15T08:32:49Z</time>
      </trkpt>
      <trkpt lat="44.47665" lon="5.78392">
        <ele>773</ele>
        <time>2019-06-15T08:32:50Z</time>
      </trkpt>
      <trkpt lat="44.47665" lon="5.78399">
        <ele>773</ele>
        <time>2019-06-15T08:32:51Z</time>
      </trkpt>
      <trkpt lat="44.47664" lon="5.78405">
        <ele>773</ele>
        <time>2019-06-15T08:32:52Z</time>
      </trkpt>
      <trkpt lat="44.47662" lon="5.78411">
        <ele>773</ele>
        <time>2019-06-15T08:32:53Z</time>
      </trkpt>
      <trkpt lat="44.4766" lon="5.78417">
        <ele>773</ele>
        <time>2019-06-15T08:32:54Z</time>
      </trkpt>
      <trkpt lat="44.47657" lon="5.78422">
        <ele>773</ele>
        <time>2019-06-15T08:32:55Z</time>
      </trkpt>
      <trkpt lat="44.47654" lon="5.78428">
        <ele>773</ele>
        <time>2019-06-15T08:32:56Z</time>
      </trkpt>
      <trkpt lat="44.4765" lon="5.78434">
        <ele>773</ele>
        <time>2019-06-15T08:32:57Z</time>
      </trkpt>
      <trkpt lat="44.47646" lon="5.78439">
        <ele>774</ele>
        <time>2019-06-15T08:32:58Z</time>
      </trkpt>
      <trkpt lat="44.47643" lon="5.78445">
        <ele>774</ele>
        <time>2019-06-15T08:32:59Z</time>
      </trkpt>
      <trkpt lat="44.47639" lon="5.78451">
        <ele>774</ele>
        <time>2019-06-15T08:33:00Z</time>
      </trkpt>
      <trkpt lat="44.47635" lon="5.78457">
        <ele>774</ele>
        <time>2019-06-15T08:33:01Z</time>
      </trkpt>
      <trkpt lat="44.47631" lon="5.78464">
        <ele>774</ele>
        <time>2019-06-15T08:33:02Z</time>
      </trkpt>
      <trkpt lat="44.47628" lon="5.78471">
        <ele>774</ele>
        <time>2019-06-15T08:33:03Z</time>
      </trkpt>
      <trkpt lat="44.47624" lon="5.78478">
        <ele>774</ele>
        <time>2019-06-15T08:33:04Z</time>
      </trkpt>
      <trkpt lat="44.47622" lon="5.78486">
        <ele>774</ele>
        <time>2019-06-15T08:33:05Z</time>
      </trkpt>
      <trkpt lat="44.47619" lon="5.78495">
        <ele>774</ele>
        <time>2019-06-15T08:33:06Z</time>
      </trkpt>
      <trkpt lat="44.47617" lon="5.78504">
        <ele>774</ele>
        <time>2019-06-15T08:33:07Z</time>
      </trkpt>
      <trkpt lat="44.47616" lon="5.78513">
        <ele>774</ele>
        <time>2019-06-15T08:33:08Z</time>
      </trkpt>
      <trkpt lat="44.47615" lon="5.78522">
        <ele>774</ele>
        <time>2019-06-15T08:33:09Z</time>
      </trkpt>
      <trkpt lat="44.47613" lon="5.78532">
        <ele>774</ele>
        <time>2019-06-15T08:33:10Z</time>
      </trkpt>
      <trkpt lat="44.47612" lon="5.78541">
        <ele>774</ele>
        <time>2019-06-15T08:33:11Z</time>
      </trkpt>
      <trkpt lat="44.4761" lon="5.78551">
        <ele>774</ele>
        <time>2019-06-15T08:33:12Z</time>
      </trkpt>
      <trkpt lat="44.47609" lon="5.78561">
        <ele>774</ele>
        <time>2019-06-15T08:33:13Z</time>
      </trkpt>
      <trkpt lat="44.47607" lon="5.78572">
        <ele>774</ele>
        <time>2019-06-15T08:33:14Z</time>
      </trkpt>
      <trkpt lat="44.47605" lon="5.78583">
        <ele>774</ele>
        <time>2019-06-15T08:33:15Z</time>
      </trkpt>
      <trkpt lat="44.47602" lon="5.78593">
        <ele>773</ele>
        <time>2019-06-15T08:33:16Z</time>
      </trkpt>
      <trkpt lat="44.47599" lon="5.78604">
        <ele>773</ele>
        <time>2019-06-15T08:33:17Z</time>
      </trkpt>
      <trkpt lat="44.47595" lon="5.78614">
        <ele>773</ele>
        <time>2019-06-15T08:33:18Z</time>
      </trkpt>
      <trkpt lat="44.47591" lon="5.78624">
        <ele>773</ele>
        <time>2019-06-15T08:33:19Z</time>
      </trkpt>
      <trkpt lat="44.47587" lon="5.78633">
        <ele>773</ele>
        <time>2019-06-15T08:33:20Z</time>
      </trkpt>
      <trkpt lat="44.47584" lon="5.78643">
        <ele>773</ele>
        <time>2019-06-15T08:33:21Z</time>
      </trkpt>
      <trkpt lat="44.47581" lon="5.78652">
        <ele>773</ele>
        <time>2019-06-15T08:33:22Z</time>
      </trkpt>
      <trkpt lat="44.47578" lon="5.78661">
        <ele>772</ele>
        <time>2019-06-15T08:33:23Z</time>
      </trkpt>
      <trkpt lat="44.47575" lon="5.7867">
        <ele>772</ele>
        <time>2019-06-15T08:33:24Z</time>
      </trkpt>
      <trkpt lat="44.47573" lon="5.7868">
        <ele>772</ele>
        <time>2019-06-15T08:33:25Z</time>
      </trkpt>
      <trkpt lat="44.47572" lon="5.78689">
        <ele>771</ele>
        <time>2019-06-15T08:33:26Z</time>
      </trkpt>
      <trkpt lat="44.4757" lon="5.78699">
        <ele>771</ele>
        <time>2019-06-15T08:33:27Z</time>
      </trkpt>
      <trkpt lat="44.47569" lon="5.78709">
        <ele>771</ele>
        <time>2019-06-15T08:33:28Z</time>
      </trkpt>
      <trkpt lat="44.47568" lon="5.78719">
        <ele>771</ele>
        <time>2019-06-15T08:33:29Z</time>
      </trkpt>
      <trkpt lat="44.47567" lon="5.7873">
        <ele>771</ele>
        <time>2019-06-15T08:33:30Z</time>
      </trkpt>
      <trkpt lat="44.47566" lon="5.7874">
        <ele>771</ele>
        <time>2019-06-15T08:33:31Z</time>
      </trkpt>
      <trkpt lat="44.47565" lon="5.78751">
        <ele>771</ele>
        <time>2019-06-15T08:33:32Z</time>
      </trkpt>
      <trkpt lat="44.47564" lon="5.78761">
        <ele>771</ele>
        <time>2019-06-15T08:33:33Z</time>
      </trkpt>
      <trkpt lat="44.47563" lon="5.78771">
        <ele>771</ele>
        <time>2019-06-15T08:33:34Z</time>
      </trkpt>
      <trkpt lat="44.47562" lon="5.78781">
        <ele>771</ele>
        <time>2019-06-15T08:33:35Z</time>
      </trkpt>
      <trkpt lat="44.47561" lon="5.78791">
        <ele>771</ele>
        <time>2019-06-15T08:33:36Z</time>
      </trkpt>
      <trkpt lat="44.4756" lon="5.78802">
        <ele>771</ele>
        <time>2019-06-15T08:33:37Z</time>
      </trkpt>
      <trkpt lat="44.4756" lon="5.78812">
        <ele>771</ele>
        <time>2019-06-15T08:33:38Z</time>
      </trkpt>
      <trkpt lat="44.4756" lon="5.78823">
        <ele>771</ele>
        <time>2019-06-15T08:33:39Z</time>
      </trkpt>
      <trkpt lat="44.4756" lon="5.78833">
        <ele>771</ele>
        <time>2019-06-15T08:33:40Z</time>
      </trkpt>
      <trkpt lat="44.47561" lon="5.78843">
        <ele>771</ele>
        <time>2019-06-15T08:33:41Z</time>
      </trkpt>
      <trkpt lat="44.47563" lon="5.78853">
        <ele>771</ele>
        <time>2019-06-15T08:33:42Z</time>
      </trkpt>
      <trkpt lat="44.47565" lon="5.78863">
        <ele>771</ele>
        <time>2019-06-15T08:33:43Z</time>
      </trkpt>
      <trkpt lat="44.47567" lon="5.78872">
        <ele>771</ele>
        <time>2019-06-15T08:33:44Z</time>
      </trkpt>
      <trkpt lat="44.4757" lon="5.78882">
        <ele>771</ele>
        <time>2019-06-15T08:33:45Z</time>
      </trkpt>
      <trkpt lat="44.47572" lon="5.78891">
        <ele>771</ele>
        <time>2019-06-15T08:33:46Z</time>
      </trkpt>
      <trkpt lat="44.47575" lon="5.789">
        <ele>771</ele>
        <time>2019-06-15T08:33:47Z</time>
      </trkpt>
      <trkpt lat="44.47578" lon="5.78908">
        <ele>771</ele>
        <time>2019-06-15T08:33:48Z</time>
      </trkpt>
      <trkpt lat="44.4758" lon="5.78917">
        <ele>771</ele>
        <time>2019-06-15T08:33:49Z</time>
      </trkpt>
      <trkpt lat="44.47583" lon="5.78926">
        <ele>771</ele>
        <time>2019-06-15T08:33:50Z</time>
      </trkpt>
      <trkpt lat="44.47585" lon="5.78934">
        <ele>771</ele>
        <time>2019-06-15T08:33:51Z</time>
      </trkpt>
      <trkpt lat="44.47588" lon="5.78942">
        <ele>771</ele>
        <time>2019-06-15T08:33:52Z</time>
      </trkpt>
      <trkpt lat="44.4759" lon="5.7895">
        <ele>771</ele>
        <time>2019-06-15T08:33:53Z</time>
      </trkpt>
      <trkpt lat="44.47592" lon="5.78958">
        <ele>771</ele>
        <time>2019-06-15T08:33:54Z</time>
      </trkpt>
      <trkpt lat="44.47594" lon="5.78966">
        <ele>771</ele>
        <time>2019-06-15T08:33:55Z</time>
      </trkpt>
      <trkpt lat="44.47597" lon="5.78973">
        <ele>771</ele>
        <time>2019-06-15T08:33:56Z</time>
      </trkpt>
      <trkpt lat="44.47599" lon="5.78981">
        <ele>771</ele>
        <time>2019-06-15T08:33:57Z</time>
      </trkpt>
      <trkpt lat="44.47601" lon="5.78988">
        <ele>771</ele>
        <time>2019-06-15T08:33:58Z</time>
      </trkpt>
      <trkpt lat="44.47604" lon="5.78995">
        <ele>771</ele>
        <time>2019-06-15T08:33:59Z</time>
      </trkpt>
      <trkpt lat="44.47606" lon="5.79002">
        <ele>771</ele>
        <time>2019-06-15T08:34:00Z</time>
      </trkpt>
      <trkpt lat="44.47609" lon="5.79009">
        <ele>771</ele>
        <time>2019-06-15T08:34:01Z</time>
      </trkpt>
      <trkpt lat="44.47611" lon="5.79016">
        <ele>771</ele>
        <time>2019-06-15T08:34:02Z</time>
      </trkpt>
      <trkpt lat="44.47613" lon="5.79023">
        <ele>771</ele>
        <time>2019-06-15T08:34:03Z</time>
      </trkpt>
      <trkpt lat="44.47615" lon="5.79031">
        <ele>771</ele>
        <time>2019-06-15T08:34:04Z</time>
      </trkpt>
      <trkpt lat="44.47617" lon="5.79038">
        <ele>772</ele>
        <time>2019-06-15T08:34:05Z</time>
      </trkpt>
      <trkpt lat="44.47618" lon="5.79045">
        <ele>772</ele>
        <time>2019-06-15T08:34:06Z</time>
      </trkpt>
      <trkpt lat="44.47618" lon="5.79053">
        <ele>772</ele>
        <time>2019-06-15T08:34:07Z</time>
      </trkpt>
      <trkpt lat="44.47619" lon="5.79061">
        <ele>772</ele>
        <time>2019-06-15T08:34:08Z</time>
      </trkpt>
      <trkpt lat="44.47618" lon="5.79069">
        <ele>773</ele>
        <time>2019-06-15T08:34:09Z</time>
      </trkpt>
      <trkpt lat="44.47618" lon="5.79078">
        <ele>773</ele>
        <time>2019-06-15T08:34:10Z</time>
      </trkpt>
      <trkpt lat="44.47617" lon="5.79087">
        <ele>773</ele>
        <time>2019-06-15T08:34:11Z</time>
      </trkpt>
      <trkpt lat="44.47617" lon="5.79096">
        <ele>773</ele>
        <time>2019-06-15T08:34:12Z</time>
      </trkpt>
      <trkpt lat="44.47616" lon="5.79106">
        <ele>773</ele>
        <time>2019-06-15T08:34:13Z</time>
      </trkpt>
      <trkpt lat="44.47616" lon="5.79115">
        <ele>773</ele>
        <time>2019-06-15T08:34:14Z</time>
      </trkpt>
      <trkpt lat="44.47616" lon="5.79124">
        <ele>773</ele>
        <time>2019-06-15T08:34:15Z</time>
      </trkpt>
      <trkpt lat="44.47617" lon="5.79134">
        <ele>773</ele>
        <time>2019-06-15T08:34:16Z</time>
      </trkpt>
      <trkpt lat="44.47617" lon="5.79143">
        <ele>773</ele>
        <time>2019-06-15T08:34:17Z</time>
      </trkpt>
      <trkpt lat="44.47618" lon="5.79151">
        <ele>773</ele>
        <time>2019-06-15T08:34:18Z</time>
      </trkpt>
      <trkpt lat="44.4762" lon="5.7916">
        <ele>773</ele>
        <time>2019-06-15T08:34:19Z</time>
      </trkpt>
      <trkpt lat="44.47621" lon="5.79168">
        <ele>773</ele>
        <time>2019-06-15T08:34:20Z</time>
      </trkpt>
      <trkpt lat="44.47622" lon="5.79176">
        <ele>773</ele>
        <time>2019-06-15T08:34:21Z</time>
      </trkpt>
      <trkpt lat="44.47623" lon="5.79184">
        <ele>773</ele>
        <time>2019-06-15T08:34:22Z</time>
      </trkpt>
      <trkpt lat="44.47625" lon="5.79191">
        <ele>773</ele>
        <time>2019-06-15T08:34:23Z</time>
      </trkpt>
      <trkpt lat="44.47626" lon="5.79199">
        <ele>773</ele>
        <time>2019-06-15T08:34:24Z</time>
      </trkpt>
      <trkpt lat="44.47627" lon="5.79206">
        <ele>773</ele>
        <time>2019-06-15T08:34:25Z</time>
      </trkpt>
      <trkpt lat="44.47628" lon="5.79213">
        <ele>773</ele>
        <time>2019-06-15T08:34:26Z</time>
      </trkpt>
      <trkpt lat="44.47628" lon="5.79221">
        <ele>773</ele>
        <time>2019-06-15T08:34:27Z</time>
      </trkpt>
      <trkpt lat="44.47629" lon="5.79228">
        <ele>773</ele>
        <time>2019-06-15T08:34:28Z</time>
      </trkpt>
      <trkpt lat="44.4763" lon="5.79236">
        <ele>773</ele>
        <time>2019-06-15T08:34:29Z</time>
      </trkpt>
      <trkpt lat="44.47631" lon="5.79243">
        <ele>774</ele>
        <time>2019-06-15T08:34:30Z</time>
      </trkpt>
      <trkpt lat="44.47631" lon="5.7925">
        <ele>774</ele>
        <time>2019-06-15T08:34:31Z</time>
      </trkpt>
      <trkpt lat="44.47632" lon="5.79258">
        <ele>775</ele>
        <time>2019-06-15T08:34:32Z</time>
      </trkpt>
      <trkpt lat="44.47632" lon="5.79265">
        <ele>775</ele>
        <time>2019-06-15T08:34:33Z</time>
      </trkpt>
      <trkpt lat="44.47631" lon="5.79273">
        <ele>776</ele>
        <time>2019-06-15T08:34:34Z</time>
      </trkpt>
      <trkpt lat="44.4763" lon="5.7928">
        <ele>776</ele>
        <time>2019-06-15T08:34:35Z</time>
      </trkpt>
      <trkpt lat="44.4763" lon="5.79288">
        <ele>777</ele>
        <time>2019-06-15T08:34:36Z</time>
      </trkpt>
      <trkpt lat="44.47629" lon="5.79295">
        <ele>777</ele>
        <time>2019-06-15T08:34:37Z</time>
      </trkpt>
      <trkpt lat="44.47628" lon="5.79303">
        <ele>778</ele>
        <time>2019-06-15T08:34:38Z</time>
      </trkpt>
      <trkpt lat="44.47627" lon="5.7931">
        <ele>778</ele>
        <time>2019-06-15T08:34:39Z</time>
      </trkpt>
      <trkpt lat="44.47626" lon="5.79317">
        <ele>778</ele>
        <time>2019-06-15T08:34:40Z</time>
      </trkpt>
      <trkpt lat="44.47625" lon="5.79325">
        <ele>778</ele>
        <time>2019-06-15T08:34:41Z</time>
      </trkpt>
      <trkpt lat="44.47623" lon="5.79333">
        <ele>778</ele>
        <time>2019-06-15T08:34:42Z</time>
      </trkpt>
      <trkpt lat="44.47622" lon="5.79341">
        <ele>779</ele>
        <time>2019-06-15T08:34:43Z</time>
      </trkpt>
      <trkpt lat="44.47621" lon="5.79348">
        <ele>779</ele>
        <time>2019-06-15T08:34:44Z</time>
      </trkpt>
      <trkpt lat="44.47619" lon="5.79354">
        <ele>780</ele>
        <time>2019-06-15T08:34:45Z</time>
      </trkpt>
      <trkpt lat="44.47617" lon="5.7936">
        <ele>780</ele>
        <time>2019-06-15T08:34:46Z</time>
      </trkpt>
      <trkpt lat="44.47616" lon="5.79367">
        <ele>780</ele>
        <time>2019-06-15T08:34:47Z</time>
      </trkpt>
      <trkpt lat="44.47615" lon="5.79373">
        <ele>780</ele>
        <time>2019-06-15T08:34:48Z</time>
      </trkpt>
      <trkpt lat="44.47613" lon="5.79379">
        <ele>780</ele>
        <time>2019-06-15T08:34:49Z</time>
      </trkpt>
      <trkpt lat="44.47612" lon="5.79385">
        <ele>780</ele>
        <time>2019-06-15T08:34:50Z</time>
      </trkpt>
      <trkpt lat="44.4761" lon="5.79391">
        <ele>780</ele>
        <time>2019-06-15T08:34:51Z</time>
      </trkpt>
      <trkpt lat="44.47609" lon="5.79397">
        <ele>780</ele>
        <time>2019-06-15T08:34:52Z</time>
      </trkpt>
      <trkpt lat="44.47607" lon="5.79403">
        <ele>780</ele>
        <time>2019-06-15T08:34:53Z</time>
      </trkpt>
      <trkpt lat="44.47605" lon="5.79409">
        <ele>780</ele>
        <time>2019-06-15T08:34:54Z</time>
      </trkpt>
      <trkpt lat="44.47604" lon="5.79416">
        <ele>780</ele>
        <time>2019-06-15T08:34:55Z</time>
      </trkpt>
      <trkpt lat="44.47602" lon="5.79422">
        <ele>780</ele>
        <time>2019-06-15T08:34:56Z</time>
      </trkpt>
      <trkpt lat="44.476" lon="5.79428">
        <ele>780</ele>
        <time>2019-06-15T08:34:57Z</time>
      </trkpt>
      <trkpt lat="44.47599" lon="5.79435">
        <ele>780</ele>
        <time>2019-06-15T08:34:58Z</time>
      </trkpt>
      <trkpt lat="44.47598" lon="5.79441">
        <ele>780</ele>
        <time>2019-06-15T08:34:59Z</time>
      </trkpt>
      <trkpt lat="44.47596" lon="5.79448">
        <ele>780</ele>
        <time>2019-06-15T08:35:00Z</time>
      </trkpt>
      <trkpt lat="44.47594" lon="5.79454">
        <ele>780</ele>
        <time>2019-06-15T08:35:01Z</time>
      </trkpt>
      <trkpt lat="44.47593" lon="5.79461">
        <ele>780</ele>
        <time>2019-06-15T08:35:02Z</time>
      </trkpt>
      <trkpt lat="44.47592" lon="5.79468">
        <ele>780</ele>
        <time>2019-06-15T08:35:03Z</time>
      </trkpt>
      <trkpt lat="44.47591" lon="5.79475">
        <ele>780</ele>
        <time>2019-06-15T08:35:04Z</time>
      </trkpt>
      <trkpt lat="44.47591" lon="5.79483">
        <ele>780</ele>
        <time>2019-06-15T08:35:05Z</time>
      </trkpt>
      <trkpt lat="44.4759" lon="5.79491">
        <ele>780</ele>
        <time>2019-06-15T08:35:06Z</time>
      </trkpt>
      <trkpt lat="44.4759" lon="5.79499">
        <ele>780</ele>
        <time>2019-06-15T08:35:07Z</time>
      </trkpt>
      <trkpt lat="44.4759" lon="5.79507">
        <ele>780</ele>
        <time>2019-06-15T08:35:08Z</time>
      </trkpt>
      <trkpt lat="44.47591" lon="5.79516">
        <ele>780</ele>
        <time>2019-06-15T08:35:09Z</time>
      </trkpt>
      <trkpt lat="44.47591" lon="5.79525">
        <ele>780</ele>
        <time>2019-06-15T08:35:10Z</time>
      </trkpt>
      <trkpt lat="44.47592" lon="5.79534">
        <ele>780</ele>
        <time>2019-06-15T08:35:11Z</time>
      </trkpt>
      <trkpt lat="44.47592" lon="5.79544">
        <ele>780</ele>
        <time>2019-06-15T08:35:12Z</time>
      </trkpt>
      <trkpt lat="44.47593" lon="5.79555">
        <ele>780</ele>
        <time>2019-06-15T08:35:13Z</time>
      </trkpt>
      <trkpt lat="44.47593" lon="5.79566">
        <ele>780</ele>
        <time>2019-06-15T08:35:14Z</time>
      </trkpt>
      <trkpt lat="44.47593" lon="5.79576">
        <ele>780</ele>
        <time>2019-06-15T08:35:15Z</time>
      </trkpt>
      <trkpt lat="44.47594" lon="5.79587">
        <ele>779</ele>
        <time>2019-06-15T08:35:16Z</time>
      </trkpt>
      <trkpt lat="44.47594" lon="5.79598">
        <ele>779</ele>
        <time>2019-06-15T08:35:17Z</time>
      </trkpt>
      <trkpt lat="44.47593" lon="5.79609">
        <ele>779</ele>
        <time>2019-06-15T08:35:18Z</time>
      </trkpt>
      <trkpt lat="44.47593" lon="5.79619">
        <ele>778</ele>
        <time>2019-06-15T08:35:19Z</time>
      </trkpt>
      <trkpt lat="44.47593" lon="5.7963">
        <ele>778</ele>
        <time>2019-06-15T08:35:20Z</time>
      </trkpt>
      <trkpt lat="44.47593" lon="5.7964">
        <ele>778</ele>
        <time>2019-06-15T08:35:21Z</time>
      </trkpt>
      <trkpt lat="44.47593" lon="5.7965">
        <ele>778</ele>
        <time>2019-06-15T08:35:22Z</time>
      </trkpt>
      <trkpt lat="44.47592" lon="5.7966">
        <ele>778</ele>
        <time>2019-06-15T08:35:23Z</time>
      </trkpt>
      <trkpt lat="44.47591" lon="5.7967">
        <ele>778</ele>
        <time>2019-06-15T08:35:24Z</time>
      </trkpt>
      <trkpt lat="44.47591" lon="5.7968">
        <ele>778</ele>
        <time>2019-06-15T08:35:25Z</time>
      </trkpt>
      <trkpt lat="44.4759" lon="5.79689">
        <ele>778</ele>
        <time>2019-06-15T08:35:26Z</time>
      </trkpt>
      <trkpt lat="44.47589" lon="5.79699">
        <ele>778</ele>
        <time>2019-06-15T08:35:27Z</time>
      </trkpt>
      <trkpt lat="44.47588" lon="5.79708">
        <ele>778</ele>
        <time>2019-06-15T08:35:28Z</time>
      </trkpt>
      <trkpt lat="44.47588" lon="5.79717">
        <ele>778</ele>
        <time>2019-06-15T08:35:29Z</time>
      </trkpt>
      <trkpt lat="44.47586" lon="5.79726">
        <ele>778</ele>
        <time>2019-06-15T08:35:30Z</time>
      </trkpt>
      <trkpt lat="44.47585" lon="5.79734">
        <ele>778</ele>
        <time>2019-06-15T08:35:31Z</time>
      </trkpt>
      <trkpt lat="44.47584" lon="5.79742">
        <ele>778</ele>
        <time>2019-06-15T08:35:32Z</time>
      </trkpt>
      <trkpt lat="44.47583" lon="5.7975">
        <ele>778</ele>
        <time>2019-06-15T08:35:33Z</time>
      </trkpt>
      <trkpt lat="44.47583" lon="5.79758">
        <ele>778</ele>
        <time>2019-06-15T08:35:34Z</time>
      </trkpt>
      <trkpt lat="44.47582" lon="5.79765">
        <ele>778</ele>
        <time>2019-06-15T08:35:35Z</time>
      </trkpt>
      <trkpt lat="44.47581" lon="5.79772">
        <ele>778</ele>
        <time>2019-06-15T08:35:36Z</time>
      </trkpt>
      <trkpt lat="44.4758" lon="5.79779">
        <ele>778</ele>
        <time>2019-06-15T08:35:37Z</time>
      </trkpt>
      <trkpt lat="44.47579" lon="5.79786">
        <ele>778</ele>
        <time>2019-06-15T08:35:38Z</time>
      </trkpt>
      <trkpt lat="44.47579" lon="5.79793">
        <ele>778</ele>
        <time>2019-06-15T08:35:39Z</time>
      </trkpt>
      <trkpt lat="44.47578" lon="5.798">
        <ele>778</ele>
        <time>2019-06-15T08:35:40Z</time>
      </trkpt>
      <trkpt lat="44.47578" lon="5.79807">
        <ele>778</ele>
        <time>2019-06-15T08:35:41Z</time>
      </trkpt>
      <trkpt lat="44.47579" lon="5.79815">
        <ele>778</ele>
        <time>2019-06-15T08:35:42Z</time>
      </trkpt>
      <trkpt lat="44.47579" lon="5.79822">
        <ele>778</ele>
        <time>2019-06-15T08:35:43Z</time>
      </trkpt>
      <trkpt lat="44.4758" lon="5.79836">
        <ele>779</ele>
        <time>2019-06-15T08:35:45Z</time>
      </trkpt>
      <trkpt lat="44.4758" lon="5.79843">
        <ele>780</ele>
        <time>2019-06-15T08:35:46Z</time>
      </trkpt>
      <trkpt lat="44.47581" lon="5.79849">
        <ele>781</ele>
        <time>2019-06-15T08:35:47Z</time>
      </trkpt>
      <trkpt lat="44.47581" lon="5.79856">
        <ele>782</ele>
        <time>2019-06-15T08:35:48Z</time>
      </trkpt>
      <trkpt lat="44.47583" lon="5.79862">
        <ele>783</ele>
        <time>2019-06-15T08:35:49Z</time>
      </trkpt>
      <trkpt lat="44.47583" lon="5.79868">
        <ele>784</ele>
        <time>2019-06-15T08:35:50Z</time>
      </trkpt>
      <trkpt lat="44.47584" lon="5.79881">
        <ele>785</ele>
        <time>2019-06-15T08:35:52Z</time>
      </trkpt>
      <trkpt lat="44.47586" lon="5.79887">
        <ele>786</ele>
        <time>2019-06-15T08:35:53Z</time>
      </trkpt>
      <trkpt lat="44.47587" lon="5.79895">
        <ele>787</ele>
        <time>2019-06-15T08:35:54Z</time>
      </trkpt>
      <trkpt lat="44.47588" lon="5.79902">
        <ele>788</ele>
        <time>2019-06-15T08:35:55Z</time>
      </trkpt>
      <trkpt lat="44.4759" lon="5.7991">
        <ele>789</ele>
        <time>2019-06-15T08:35:56Z</time>
      </trkpt>
      <trkpt lat="44.47591" lon="5.79916">
        <ele>790</ele>
        <time>2019-06-15T08:35:57Z</time>
      </trkpt>
      <trkpt lat="44.47592" lon="5.79924">
        <ele>791</ele>
        <time>2019-06-15T08:35:58Z</time>
      </trkpt>
      <trkpt lat="44.47593" lon="5.7993">
        <ele>792</ele>
        <time>2019-06-15T08:35:59Z</time>
      </trkpt>
      <trkpt lat="44.47593" lon="5.79935">
        <ele>793</ele>
        <time>2019-06-15T08:36:00Z</time>
      </trkpt>
      <trkpt lat="44.47594" lon="5.79942">
        <ele>794</ele>
        <time>2019-06-15T08:36:01Z</time>
      </trkpt>
      <trkpt lat="44.47594" lon="5.79949">
        <ele>795</ele>
        <time>2019-06-15T08:36:02Z</time>
      </trkpt>
      <trkpt lat="44.47594" lon="5.79955">
        <ele>796</ele>
        <time>2019-06-15T08:36:03Z</time>
      </trkpt>
      <trkpt lat="44.47595" lon="5.79963">
        <ele>796</ele>
        <time>2019-06-15T08:36:04Z</time>
      </trkpt>
      <trkpt lat="44.47596" lon="5.79971">
        <ele>796</ele>
        <time>2019-06-15T08:36:05Z</time>
      </trkpt>
      <trkpt lat="44.47597" lon="5.79978">
        <ele>796</ele>
        <time>2019-06-15T08:36:06Z</time>
      </trkpt>
      <trkpt lat="44.47597" lon="5.79986">
        <ele>796</ele>
        <time>2019-06-15T08:36:07Z</time>
      </trkpt>
      <trkpt lat="44.47598" lon="5.79993">
        <ele>796</ele>
        <time>2019-06-15T08:36:08Z</time>
      </trkpt>
      <trkpt lat="44.47599" lon="5.80001">
        <ele>796</ele>
        <time>2019-06-15T08:36:09Z</time>
      </trkpt>
      <trkpt lat="44.47599" lon="5.8001">
        <ele>796</ele>
        <time>2019-06-15T08:36:10Z</time>
      </trkpt>
      <trkpt lat="44.476" lon="5.80018">
        <ele>796</ele>
        <time>2019-06-15T08:36:11Z</time>
      </trkpt>
      <trkpt lat="44.476" lon="5.80028">
        <ele>796</ele>
        <time>2019-06-15T08:36:12Z</time>
      </trkpt>
      <trkpt lat="44.47601" lon="5.80038">
        <ele>796</ele>
        <time>2019-06-15T08:36:13Z</time>
      </trkpt>
      <trkpt lat="44.47602" lon="5.80048">
        <ele>796</ele>
        <time>2019-06-15T08:36:14Z</time>
      </trkpt>
      <trkpt lat="44.47602" lon="5.80059">
        <ele>796</ele>
        <time>2019-06-15T08:36:15Z</time>
      </trkpt>
      <trkpt lat="44.47603" lon="5.8007">
        <ele>796</ele>
        <time>2019-06-15T08:36:16Z</time>
      </trkpt>
      <trkpt lat="44.47604" lon="5.80081">
        <ele>796</ele>
        <time>2019-06-15T08:36:17Z</time>
      </trkpt>
      <trkpt lat="44.47605" lon="5.80092">
        <ele>795</ele>
        <time>2019-06-15T08:36:18Z</time>
      </trkpt>
      <trkpt lat="44.47606" lon="5.80103">
        <ele>795</ele>
        <time>2019-06-15T08:36:19Z</time>
      </trkpt>
      <trkpt lat="44.47606" lon="5.80114">
        <ele>794</ele>
        <time>2019-06-15T08:36:20Z</time>
      </trkpt>
      <trkpt lat="44.47607" lon="5.80124">
        <ele>794</ele>
        <time>2019-06-15T08:36:21Z</time>
      </trkpt>
      <trkpt lat="44.47608" lon="5.80134">
        <ele>794</ele>
        <time>2019-06-15T08:36:22Z</time>
      </trkpt>
      <trkpt lat="44.47609" lon="5.80144">
        <ele>793</ele>
        <time>2019-06-15T08:36:23Z</time>
      </trkpt>
      <trkpt lat="44.47609" lon="5.80154">
        <ele>793</ele>
        <time>2019-06-15T08:36:24Z</time>
      </trkpt>
      <trkpt lat="44.4761" lon="5.80163">
        <ele>792</ele>
        <time>2019-06-15T08:36:25Z</time>
      </trkpt>
      <trkpt lat="44.4761" lon="5.80172">
        <ele>792</ele>
        <time>2019-06-15T08:36:26Z</time>
      </trkpt>
      <trkpt lat="44.4761" lon="5.80182">
        <ele>792</ele>
        <time>2019-06-15T08:36:27Z</time>
      </trkpt>
      <trkpt lat="44.4761" lon="5.80191">
        <ele>792</ele>
        <time>2019-06-15T08:36:28Z</time>
      </trkpt>
      <trkpt lat="44.4761" lon="5.80199">
        <ele>792</ele>
        <time>2019-06-15T08:36:29Z</time>
      </trkpt>
      <trkpt lat="44.4761" lon="5.80208">
        <ele>792</ele>
        <time>2019-06-15T08:36:30Z</time>
      </trkpt>
      <trkpt lat="44.4761" lon="5.80217">
        <ele>792</ele>
        <time>2019-06-15T08:36:31Z</time>
      </trkpt>
      <trkpt lat="44.4761" lon="5.80226">
        <ele>792</ele>
        <time>2019-06-15T08:36:32Z</time>
      </trkpt>
      <trkpt lat="44.47609" lon="5.80234">
        <ele>792</ele>
        <time>2019-06-15T08:36:33Z</time>
      </trkpt>
      <trkpt lat="44.47608" lon="5.80242">
        <ele>792</ele>
        <time>2019-06-15T08:36:34Z</time>
      </trkpt>
      <trkpt lat="44.47607" lon="5.80249">
        <ele>792</ele>
        <time>2019-06-15T08:36:35Z</time>
      </trkpt>
      <trkpt lat="44.47606" lon="5.80256">
        <ele>792</ele>
        <time>2019-06-15T08:36:36Z</time>
      </trkpt>
      <trkpt lat="44.47604" lon="5.80264">
        <ele>792</ele>
        <time>2019-06-15T08:36:37Z</time>
      </trkpt>
      <trkpt lat="44.47602" lon="5.8027">
        <ele>792</ele>
        <time>2019-06-15T08:36:38Z</time>
      </trkpt>
      <trkpt lat="44.476" lon="5.80277">
        <ele>792</ele>
        <time>2019-06-15T08:36:39Z</time>
      </trkpt>
      <trkpt lat="44.47598" lon="5.80285">
        <ele>792</ele>
        <time>2019-06-15T08:36:40Z</time>
      </trkpt>
      <trkpt lat="44.47595" lon="5.80292">
        <ele>792</ele>
        <time>2019-06-15T08:36:41Z</time>
      </trkpt>
      <trkpt lat="44.47593" lon="5.80298">
        <ele>792</ele>
        <time>2019-06-15T08:36:42Z</time>
      </trkpt>
      <trkpt lat="44.47591" lon="5.80305">
        <ele>792</ele>
        <time>2019-06-15T08:36:43Z</time>
      </trkpt>
      <trkpt lat="44.47588" lon="5.80313">
        <ele>792</ele>
        <time>2019-06-15T08:36:44Z</time>
      </trkpt>
      <trkpt lat="44.47586" lon="5.8032">
        <ele>792</ele>
        <time>2019-06-15T08:36:45Z</time>
      </trkpt>
      <trkpt lat="44.47584" lon="5.80327">
        <ele>792</ele>
        <time>2019-06-15T08:36:46Z</time>
      </trkpt>
      <trkpt lat="44.47583" lon="5.80335">
        <ele>792</ele>
        <time>2019-06-15T08:36:47Z</time>
      </trkpt>
      <trkpt lat="44.47581" lon="5.80343">
        <ele>792</ele>
        <time>2019-06-15T08:36:48Z</time>
      </trkpt>
      <trkpt lat="44.4758" lon="5.80351">
        <ele>792</ele>
        <time>2019-06-15T08:36:49Z</time>
      </trkpt>
      <trkpt lat="44.4758" lon="5.8036">
        <ele>792</ele>
        <time>2019-06-15T08:36:50Z</time>
      </trkpt>
      <trkpt lat="44.47579" lon="5.80368">
        <ele>792</ele>
        <time>2019-06-15T08:36:51Z</time>
      </trkpt>
      <trkpt lat="44.47578" lon="5.80376">
        <ele>792</ele>
        <time>2019-06-15T08:36:52Z</time>
      </trkpt>
      <trkpt lat="44.47578" lon="5.80384">
        <ele>791</ele>
        <time>2019-06-15T08:36:53Z</time>
      </trkpt>
      <trkpt lat="44.47578" lon="5.80392">
        <ele>791</ele>
        <time>2019-06-15T08:36:54Z</time>
      </trkpt>
      <trkpt lat="44.47579" lon="5.80401">
        <ele>791</ele>
        <time>2019-06-15T08:36:55Z</time>
      </trkpt>
      <trkpt lat="44.4758" lon="5.80408">
        <ele>791</ele>
        <time>2019-06-15T08:36:56Z</time>
      </trkpt>
      <trkpt lat="44.47582" lon="5.80416">
        <ele>791</ele>
        <time>2019-06-15T08:36:57Z</time>
      </trkpt>
      <trkpt lat="44.47583" lon="5.80423">
        <ele>791</ele>
        <time>2019-06-15T08:36:58Z</time>
      </trkpt>
      <trkpt lat="44.47583" lon="5.80431">
        <ele>791</ele>
        <time>2019-06-15T08:36:59Z</time>
      </trkpt>
      <trkpt lat="44.47584" lon="5.80439">
        <ele>791</ele>
        <time>2019-06-15T08:37:00Z</time>
      </trkpt>
      <trkpt lat="44.47585" lon="5.80447">
        <ele>791</ele>
        <time>2019-06-15T08:37:02Z</time>
      </trkpt>
      <trkpt lat="44.47585" lon="5.80455">
        <ele>791</ele>
        <time>2019-06-15T08:37:02Z</time>
      </trkpt>
      <trkpt lat="44.47585" lon="5.80464">
        <ele>791</ele>
        <time>2019-06-15T08:37:03Z</time>
      </trkpt>
      <trkpt lat="44.47586" lon="5.80473">
        <ele>791</ele>
        <time>2019-06-15T08:37:04Z</time>
      </trkpt>
      <trkpt lat="44.47586" lon="5.80481">
        <ele>791</ele>
        <time>2019-06-15T08:37:05Z</time>
      </trkpt>
      <trkpt lat="44.47588" lon="5.80491">
        <ele>791</ele>
        <time>2019-06-15T08:37:06Z</time>
      </trkpt>
      <trkpt lat="44.4759" lon="5.80499">
        <ele>791</ele>
        <time>2019-06-15T08:37:07Z</time>
      </trkpt>
      <trkpt lat="44.47593" lon="5.80508">
        <ele>791</ele>
        <time>2019-06-15T08:37:08Z</time>
      </trkpt>
      <trkpt lat="44.47597" lon="5.80516">
        <ele>791</ele>
        <time>2019-06-15T08:37:09Z</time>
      </trkpt>
      <trkpt lat="44.47601" lon="5.80523">
        <ele>791</ele>
        <time>2019-06-15T08:37:10Z</time>
      </trkpt>
      <trkpt lat="44.47607" lon="5.8053">
        <ele>791</ele>
        <time>2019-06-15T08:37:11Z</time>
      </trkpt>
      <trkpt lat="44.47612" lon="5.80535">
        <ele>791</ele>
        <time>2019-06-15T08:37:12Z</time>
      </trkpt>
      <trkpt lat="44.47618" lon="5.80539">
        <ele>791</ele>
        <time>2019-06-15T08:37:13Z</time>
      </trkpt>
      <trkpt lat="44.47625" lon="5.80542">
        <ele>791</ele>
        <time>2019-06-15T08:37:14Z</time>
      </trkpt>
      <trkpt lat="44.47632" lon="5.80545">
        <ele>791</ele>
        <time>2019-06-15T08:37:15Z</time>
      </trkpt>
      <trkpt lat="44.47639" lon="5.80547">
        <ele>791</ele>
        <time>2019-06-15T08:37:16Z</time>
      </trkpt>
      <trkpt lat="44.47647" lon="5.80549">
        <ele>791</ele>
        <time>2019-06-15T08:37:17Z</time>
      </trkpt>
      <trkpt lat="44.47654" lon="5.80553">
        <ele>791</ele>
        <time>2019-06-15T08:37:18Z</time>
      </trkpt>
      <trkpt lat="44.4766" lon="5.80558">
        <ele>791</ele>
        <time>2019-06-15T08:37:19Z</time>
      </trkpt>
      <trkpt lat="44.47666" lon="5.80564">
        <ele>791</ele>
        <time>2019-06-15T08:37:20Z</time>
      </trkpt>
      <trkpt lat="44.47671" lon="5.80573">
        <ele>791</ele>
        <time>2019-06-15T08:37:21Z</time>
      </trkpt>
      <trkpt lat="44.47674" lon="5.80582">
        <ele>791</ele>
        <time>2019-06-15T08:37:22Z</time>
      </trkpt>
      <trkpt lat="44.47676" lon="5.80592">
        <ele>791</ele>
        <time>2019-06-15T08:37:23Z</time>
      </trkpt>
      <trkpt lat="44.47678" lon="5.80601">
        <ele>791</ele>
        <time>2019-06-15T08:37:24Z</time>
      </trkpt>
      <trkpt lat="44.47679" lon="5.8061">
        <ele>791</ele>
        <time>2019-06-15T08:37:25Z</time>
      </trkpt>
      <trkpt lat="44.4768" lon="5.80619">
        <ele>791</ele>
        <time>2019-06-15T08:37:26Z</time>
      </trkpt>
      <trkpt lat="44.47679" lon="5.80629">
        <ele>791</ele>
        <time>2019-06-15T08:37:27Z</time>
      </trkpt>
      <trkpt lat="44.47678" lon="5.80638">
        <ele>791</ele>
        <time>2019-06-15T08:37:28Z</time>
      </trkpt>
      <trkpt lat="44.47677" lon="5.80647">
        <ele>791</ele>
        <time>2019-06-15T08:37:29Z</time>
      </trkpt>
      <trkpt lat="44.47676" lon="5.80656">
        <ele>791</ele>
        <time>2019-06-15T08:37:30Z</time>
      </trkpt>
      <trkpt lat="44.47674" lon="5.80665">
        <ele>791</ele>
        <time>2019-06-15T08:37:31Z</time>
      </trkpt>
      <trkpt lat="44.47673" lon="5.80674">
        <ele>791</ele>
        <time>2019-06-15T08:37:32Z</time>
      </trkpt>
      <trkpt lat="44.47673" lon="5.80683">
        <ele>791</ele>
        <time>2019-06-15T08:37:33Z</time>
      </trkpt>
      <trkpt lat="44.47672" lon="5.8069">
        <ele>791</ele>
        <time>2019-06-15T08:37:34Z</time>
      </trkpt>
      <trkpt lat="44.47672" lon="5.80698">
        <ele>791</ele>
        <time>2019-06-15T08:37:35Z</time>
      </trkpt>
      <trkpt lat="44.47672" lon="5.80706">
        <ele>791</ele>
        <time>2019-06-15T08:37:36Z</time>
      </trkpt>
      <trkpt lat="44.47672" lon="5.80714">
        <ele>791</ele>
        <time>2019-06-15T08:37:37Z</time>
      </trkpt>
      <trkpt lat="44.47671" lon="5.80722">
        <ele>791</ele>
        <time>2019-06-15T08:37:38Z</time>
      </trkpt>
      <trkpt lat="44.47671" lon="5.80729">
        <ele>791</ele>
        <time>2019-06-15T08:37:39Z</time>
      </trkpt>
      <trkpt lat="44.47671" lon="5.80737">
        <ele>791</ele>
        <time>2019-06-15T08:37:40Z</time>
      </trkpt>
      <trkpt lat="44.47672" lon="5.80745">
        <ele>791</ele>
        <time>2019-06-15T08:37:41Z</time>
      </trkpt>
      <trkpt lat="44.47673" lon="5.80752">
        <ele>791</ele>
        <time>2019-06-15T08:37:42Z</time>
      </trkpt>
      <trkpt lat="44.47673" lon="5.8076">
        <ele>791</ele>
        <time>2019-06-15T08:37:43Z</time>
      </trkpt>
      <trkpt lat="44.47673" lon="5.80768">
        <ele>791</ele>
        <time>2019-06-15T08:37:44Z</time>
      </trkpt>
      <trkpt lat="44.47674" lon="5.80775">
        <ele>791</ele>
        <time>2019-06-15T08:37:45Z</time>
      </trkpt>
      <trkpt lat="44.47674" lon="5.80783">
        <ele>791</ele>
        <time>2019-06-15T08:37:46Z</time>
      </trkpt>
      <trkpt lat="44.47674" lon="5.80791">
        <ele>791</ele>
        <time>2019-06-15T08:37:47Z</time>
      </trkpt>
      <trkpt lat="44.47674" lon="5.80798">
        <ele>791</ele>
        <time>2019-06-15T08:37:48Z</time>
      </trkpt>
      <trkpt lat="44.47675" lon="5.80807">
        <ele>791</ele>
        <time>2019-06-15T08:37:49Z</time>
      </trkpt>
      <trkpt lat="44.47675" lon="5.80815">
        <ele>791</ele>
        <time>2019-06-15T08:37:50Z</time>
      </trkpt>
      <trkpt lat="44.47676" lon="5.80824">
        <ele>791</ele>
        <time>2019-06-15T08:37:51Z</time>
      </trkpt>
      <trkpt lat="44.47676" lon="5.80833">
        <ele>791</ele>
        <time>2019-06-15T08:37:52Z</time>
      </trkpt>
      <trkpt lat="44.47677" lon="5.80842">
        <ele>791</ele>
        <time>2019-06-15T08:37:53Z</time>
      </trkpt>
      <trkpt lat="44.47677" lon="5.80851">
        <ele>791</ele>
        <time>2019-06-15T08:37:54Z</time>
      </trkpt>
      <trkpt lat="44.47676" lon="5.8086">
        <ele>791</ele>
        <time>2019-06-15T08:37:55Z</time>
      </trkpt>
      <trkpt lat="44.47676" lon="5.80869">
        <ele>791</ele>
        <time>2019-06-15T08:37:56Z</time>
      </trkpt>
      <trkpt lat="44.47676" lon="5.80879">
        <ele>791</ele>
        <time>2019-06-15T08:37:57Z</time>
      </trkpt>
      <trkpt lat="44.47675" lon="5.80888">
        <ele>791</ele>
        <time>2019-06-15T08:37:58Z</time>
      </trkpt>
      <trkpt lat="44.47674" lon="5.80898">
        <ele>791</ele>
        <time>2019-06-15T08:37:59Z</time>
      </trkpt>
      <trkpt lat="44.47674" lon="5.80907">
        <ele>791</ele>
        <time>2019-06-15T08:38:00Z</time>
      </trkpt>
      <trkpt lat="44.47673" lon="5.80916">
        <ele>791</ele>
        <time>2019-06-15T08:38:01Z</time>
      </trkpt>
      <trkpt lat="44.47672" lon="5.80925">
        <ele>791</ele>
        <time>2019-06-15T08:38:02Z</time>
      </trkpt>
      <trkpt lat="44.47672" lon="5.80934">
        <ele>791</ele>
        <time>2019-06-15T08:38:03Z</time>
      </trkpt>
      <trkpt lat="44.47671" lon="5.80942">
        <ele>791</ele>
        <time>2019-06-15T08:38:04Z</time>
      </trkpt>
      <trkpt lat="44.47671" lon="5.80951">
        <ele>791</ele>
        <time>2019-06-15T08:38:05Z</time>
      </trkpt>
      <trkpt lat="44.4767" lon="5.8096">
        <ele>791</ele>
        <time>2019-06-15T08:38:06Z</time>
      </trkpt>
      <trkpt lat="44.47669" lon="5.80969">
        <ele>791</ele>
        <time>2019-06-15T08:38:07Z</time>
      </trkpt>
      <trkpt lat="44.47669" lon="5.80977">
        <ele>791</ele>
        <time>2019-06-15T08:38:08Z</time>
      </trkpt>
      <trkpt lat="44.47668" lon="5.80986">
        <ele>791</ele>
        <time>2019-06-15T08:38:09Z</time>
      </trkpt>
      <trkpt lat="44.47667" lon="5.80994">
        <ele>791</ele>
        <time>2019-06-15T08:38:10Z</time>
      </trkpt>
      <trkpt lat="44.47667" lon="5.81003">
        <ele>791</ele>
        <time>2019-06-15T08:38:11Z</time>
      </trkpt>
      <trkpt lat="44.47667" lon="5.81011">
        <ele>791</ele>
        <time>2019-06-15T08:38:12Z</time>
      </trkpt>
      <trkpt lat="44.47667" lon="5.8102">
        <ele>791</ele>
        <time>2019-06-15T08:38:13Z</time>
      </trkpt>
      <trkpt lat="44.47666" lon="5.81028">
        <ele>791</ele>
        <time>2019-06-15T08:38:14Z</time>
      </trkpt>
      <trkpt lat="44.47666" lon="5.81037">
        <ele>791</ele>
        <time>2019-06-15T08:38:15Z</time>
      </trkpt>
      <trkpt lat="44.47665" lon="5.81046">
        <ele>791</ele>
        <time>2019-06-15T08:38:16Z</time>
      </trkpt>
      <trkpt lat="44.47664" lon="5.81054">
        <ele>791</ele>
        <time>2019-06-15T08:38:17Z</time>
      </trkpt>
      <trkpt lat="44.47664" lon="5.81063">
        <ele>791</ele>
        <time>2019-06-15T08:38:18Z</time>
      </trkpt>
      <trkpt lat="44.47663" lon="5.81072">
        <ele>791</ele>
        <time>2019-06-15T08:38:19Z</time>
      </trkpt>
      <trkpt lat="44.47663" lon="5.8108">
        <ele>791</ele>
        <time>2019-06-15T08:38:20Z</time>
      </trkpt>
      <trkpt lat="44.47662" lon="5.81089">
        <ele>791</ele>
        <time>2019-06-15T08:38:21Z</time>
      </trkpt>
      <trkpt lat="44.47662" lon="5.81097">
        <ele>791</ele>
        <time>2019-06-15T08:38:22Z</time>
      </trkpt>
      <trkpt lat="44.47662" lon="5.81105">
        <ele>791</ele>
        <time>2019-06-15T08:38:23Z</time>
      </trkpt>
      <trkpt lat="44.47661" lon="5.81113">
        <ele>791</ele>
        <time>2019-06-15T08:38:24Z</time>
      </trkpt>
      <trkpt lat="44.47661" lon="5.81121">
        <ele>791</ele>
        <time>2019-06-15T08:38:25Z</time>
      </trkpt>
      <trkpt lat="44.47661" lon="5.81129">
        <ele>791</ele>
        <time>2019-06-15T08:38:26Z</time>
      </trkpt>
      <trkpt lat="44.47661" lon="5.81136">
        <ele>791</ele>
        <time>2019-06-15T08:38:27Z</time>
      </trkpt>
      <trkpt lat="44.47661" lon="5.81144">
        <ele>791</ele>
        <time>2019-06-15T08:38:28Z</time>
      </trkpt>
      <trkpt lat="44.47661" lon="5.81151">
        <ele>791</ele>
        <time>2019-06-15T08:38:29Z</time>
      </trkpt>
      <trkpt lat="44.47662" lon="5.81159">
        <ele>791</ele>
        <time>2019-06-15T08:38:30Z</time>
      </trkpt>
      <trkpt lat="44.47662" lon="5.81167">
        <ele>791</ele>
        <time>2019-06-15T08:38:31Z</time>
      </trkpt>
      <trkpt lat="44.47662" lon="5.81174">
        <ele>791</ele>
        <time>2019-06-15T08:38:32Z</time>
      </trkpt>
      <trkpt lat="44.47662" lon="5.81182">
        <ele>792</ele>
        <time>2019-06-15T08:38:33Z</time>
      </trkpt>
      <trkpt lat="44.47663" lon="5.8119">
        <ele>792</ele>
        <time>2019-06-15T08:38:34Z</time>
      </trkpt>
      <trkpt lat="44.47663" lon="5.81198">
        <ele>792</ele>
        <time>2019-06-15T08:38:35Z</time>
      </trkpt>
      <trkpt lat="44.47664" lon="5.81205">
        <ele>793</ele>
        <time>2019-06-15T08:38:36Z</time>
      </trkpt>
      <trkpt lat="44.47664" lon="5.81213">
        <ele>793</ele>
        <time>2019-06-15T08:38:37Z</time>
      </trkpt>
      <trkpt lat="44.47665" lon="5.81221">
        <ele>793</ele>
        <time>2019-06-15T08:38:38Z</time>
      </trkpt>
      <trkpt lat="44.47665" lon="5.81229">
        <ele>794</ele>
        <time>2019-06-15T08:38:39Z</time>
      </trkpt>
      <trkpt lat="44.47665" lon="5.81237">
        <ele>794</ele>
        <time>2019-06-15T08:38:40Z</time>
      </trkpt>
      <trkpt lat="44.47666" lon="5.81244">
        <ele>794</ele>
        <time>2019-06-15T08:38:41Z</time>
      </trkpt>
      <trkpt lat="44.47666" lon="5.81252">
        <ele>795</ele>
        <time>2019-06-15T08:38:42Z</time>
      </trkpt>
      <trkpt lat="44.47666" lon="5.81259">
        <ele>795</ele>
        <time>2019-06-15T08:38:43Z</time>
      </trkpt>
      <trkpt lat="44.47667" lon="5.81267">
        <ele>795</ele>
        <time>2019-06-15T08:38:44Z</time>
      </trkpt>
      <trkpt lat="44.47667" lon="5.81274">
        <ele>795</ele>
        <time>2019-06-15T08:38:45Z</time>
      </trkpt>
      <trkpt lat="44.47668" lon="5.81282">
        <ele>796</ele>
        <time>2019-06-15T08:38:46Z</time>
      </trkpt>
      <trkpt lat="44.47667" lon="5.81289">
        <ele>796</ele>
        <time>2019-06-15T08:38:47Z</time>
      </trkpt>
      <trkpt lat="44.47667" lon="5.81296">
        <ele>796</ele>
        <time>2019-06-15T08:38:48Z</time>
      </trkpt>
      <trkpt lat="44.47668" lon="5.81303">
        <ele>796</ele>
        <time>2019-06-15T08:38:49Z</time>
      </trkpt>
      <trkpt lat="44.47667" lon="5.8131">
        <ele>796</ele>
        <time>2019-06-15T08:38:50Z</time>
      </trkpt>
      <trkpt lat="44.47668" lon="5.81317">
        <ele>796</ele>
        <time>2019-06-15T08:38:51Z</time>
      </trkpt>
      <trkpt lat="44.47668" lon="5.81323">
        <ele>797</ele>
        <time>2019-06-15T08:38:52Z</time>
      </trkpt>
      <trkpt lat="44.47668" lon="5.8133">
        <ele>797</ele>
        <time>2019-06-15T08:38:53Z</time>
      </trkpt>
      <trkpt lat="44.47667" lon="5.81337">
        <ele>797</ele>
        <time>2019-06-15T08:38:54Z</time>
      </trkpt>
      <trkpt lat="44.47667" lon="5.81344">
        <ele>797</ele>
        <time>2019-06-15T08:38:55Z</time>
      </trkpt>
      <trkpt lat="44.47667" lon="5.81351">
        <ele>797</ele>
        <time>2019-06-15T08:38:56Z</time>
      </trkpt>
      <trkpt lat="44.47667" lon="5.81359">
        <ele>797</ele>
        <time>2019-06-15T08:38:57Z</time>
      </trkpt>
      <trkpt lat="44.47666" lon="5.81367">
        <ele>797</ele>
        <time>2019-06-15T08:38:58Z</time>
      </trkpt>
      <trkpt lat="44.47665" lon="5.81375">
        <ele>797</ele>
        <time>2019-06-15T08:38:59Z</time>
      </trkpt>
      <trkpt lat="44.47664" lon="5.81384">
        <ele>797</ele>
        <time>2019-06-15T08:39:00Z</time>
      </trkpt>
      <trkpt lat="44.47663" lon="5.81393">
        <ele>797</ele>
        <time>2019-06-15T08:39:01Z</time>
      </trkpt>
      <trkpt lat="44.47661" lon="5.81401">
        <ele>797</ele>
        <time>2019-06-15T08:39:02Z</time>
      </trkpt>
      <trkpt lat="44.47659" lon="5.8141">
        <ele>797</ele>
        <time>2019-06-15T08:39:03Z</time>
      </trkpt>
      <trkpt lat="44.47656" lon="5.81419">
        <ele>797</ele>
        <time>2019-06-15T08:39:04Z</time>
      </trkpt>
      <trkpt lat="44.47653" lon="5.81427">
        <ele>797</ele>
        <time>2019-06-15T08:39:05Z</time>
      </trkpt>
      <trkpt lat="44.4765" lon="5.81435">
        <ele>797</ele>
        <time>2019-06-15T08:39:06Z</time>
      </trkpt>
      <trkpt lat="44.47646" lon="5.81442">
        <ele>797</ele>
        <time>2019-06-15T08:39:07Z</time>
      </trkpt>
      <trkpt lat="44.47643" lon="5.8145">
        <ele>797</ele>
        <time>2019-06-15T08:39:08Z</time>
      </trkpt>
      <trkpt lat="44.4764" lon="5.81458">
        <ele>797</ele>
        <time>2019-06-15T08:39:09Z</time>
      </trkpt>
      <trkpt lat="44.47637" lon="5.81467">
        <ele>797</ele>
        <time>2019-06-15T08:39:10Z</time>
      </trkpt>
      <trkpt lat="44.47635" lon="5.81475">
        <ele>797</ele>
        <time>2019-06-15T08:39:11Z</time>
      </trkpt>
      <trkpt lat="44.47633" lon="5.81484">
        <ele>797</ele>
        <time>2019-06-15T08:39:12Z</time>
      </trkpt>
      <trkpt lat="44.4763" lon="5.81493">
        <ele>797</ele>
        <time>2019-06-15T08:39:13Z</time>
      </trkpt>
      <trkpt lat="44.47629" lon="5.81502">
        <ele>796</ele>
        <time>2019-06-15T08:39:14Z</time>
      </trkpt>
      <trkpt lat="44.47627" lon="5.81511">
        <ele>796</ele>
        <time>2019-06-15T08:39:15Z</time>
      </trkpt>
      <trkpt lat="44.47625" lon="5.81519">
        <ele>796</ele>
        <time>2019-06-15T08:39:16Z</time>
      </trkpt>
      <trkpt lat="44.47623" lon="5.81528">
        <ele>796</ele>
        <time>2019-06-15T08:39:17Z</time>
      </trkpt>
      <trkpt lat="44.47622" lon="5.81536">
        <ele>796</ele>
        <time>2019-06-15T08:39:18Z</time>
      </trkpt>
      <trkpt lat="44.4762" lon="5.81544">
        <ele>796</ele>
        <time>2019-06-15T08:39:19Z</time>
      </trkpt>
      <trkpt lat="44.47618" lon="5.81552">
        <ele>796</ele>
        <time>2019-06-15T08:39:20Z</time>
      </trkpt>
      <trkpt lat="44.47616" lon="5.8156">
        <ele>796</ele>
        <time>2019-06-15T08:39:21Z</time>
      </trkpt>
      <trkpt lat="44.47614" lon="5.81568">
        <ele>796</ele>
        <time>2019-06-15T08:39:22Z</time>
      </trkpt>
      <trkpt lat="44.47613" lon="5.81576">
        <ele>796</ele>
        <time>2019-06-15T08:39:23Z</time>
      </trkpt>
      <trkpt lat="44.47611" lon="5.81585">
        <ele>796</ele>
        <time>2019-06-15T08:39:24Z</time>
      </trkpt>
      <trkpt lat="44.47609" lon="5.81593">
        <ele>796</ele>
        <time>2019-06-15T08:39:25Z</time>
      </trkpt>
      <trkpt lat="44.47608" lon="5.81601">
        <ele>796</ele>
        <time>2019-06-15T08:39:26Z</time>
      </trkpt>
      <trkpt lat="44.47607" lon="5.81609">
        <ele>796</ele>
        <time>2019-06-15T08:39:27Z</time>
      </trkpt>
      <trkpt lat="44.47605" lon="5.81618">
        <ele>795</ele>
        <time>2019-06-15T08:39:28Z</time>
      </trkpt>
      <trkpt lat="44.47604" lon="5.81626">
        <ele>795</ele>
        <time>2019-06-15T08:39:29Z</time>
      </trkpt>
      <trkpt lat="44.47602" lon="5.81634">
        <ele>795</ele>
        <time>2019-06-15T08:39:30Z</time>
      </trkpt>
      <trkpt lat="44.47601" lon="5.81642">
        <ele>795</ele>
        <time>2019-06-15T08:39:31Z</time>
      </trkpt>
      <trkpt lat="44.476" lon="5.81649">
        <ele>795</ele>
        <time>2019-06-15T08:39:32Z</time>
      </trkpt>
      <trkpt lat="44.47599" lon="5.81658">
        <ele>795</ele>
        <time>2019-06-15T08:39:33Z</time>
      </trkpt>
      <trkpt lat="44.47598" lon="5.81666">
        <ele>795</ele>
        <time>2019-06-15T08:39:34Z</time>
      </trkpt>
      <trkpt lat="44.47597" lon="5.81673">
        <ele>795</ele>
        <time>2019-06-15T08:39:35Z</time>
      </trkpt>
      <trkpt lat="44.47596" lon="5.81681">
        <ele>795</ele>
        <time>2019-06-15T08:39:36Z</time>
      </trkpt>
      <trkpt lat="44.47595" lon="5.81689">
        <ele>795</ele>
        <time>2019-06-15T08:39:37Z</time>
      </trkpt>
      <trkpt lat="44.47594" lon="5.81697">
        <ele>795</ele>
        <time>2019-06-15T08:39:38Z</time>
      </trkpt>
      <trkpt lat="44.47593" lon="5.81704">
        <ele>795</ele>
        <time>2019-06-15T08:39:39Z</time>
      </trkpt>
      <trkpt lat="44.47592" lon="5.81711">
        <ele>795</ele>
        <time>2019-06-15T08:39:40Z</time>
      </trkpt>
      <trkpt lat="44.47591" lon="5.81719">
        <ele>795</ele>
        <time>2019-06-15T08:39:41Z</time>
      </trkpt>
      <trkpt lat="44.4759" lon="5.81726">
        <ele>795</ele>
        <time>2019-06-15T08:39:42Z</time>
      </trkpt>
      <trkpt lat="44.47589" lon="5.81734">
        <ele>795</ele>
        <time>2019-06-15T08:39:43Z</time>
      </trkpt>
      <trkpt lat="44.47588" lon="5.81741">
        <ele>795</ele>
        <time>2019-06-15T08:39:44Z</time>
      </trkpt>
      <trkpt lat="44.47587" lon="5.81748">
        <ele>795</ele>
        <time>2019-06-15T08:39:45Z</time>
      </trkpt>
      <trkpt lat="44.47586" lon="5.81756">
        <ele>795</ele>
        <time>2019-06-15T08:39:46Z</time>
      </trkpt>
      <trkpt lat="44.47585" lon="5.81764">
        <ele>795</ele>
        <time>2019-06-15T08:39:47Z</time>
      </trkpt>
      <trkpt lat="44.47584" lon="5.81771">
        <ele>795</ele>
        <time>2019-06-15T08:39:48Z</time>
      </trkpt>
      <trkpt lat="44.47583" lon="5.81778">
        <ele>795</ele>
        <time>2019-06-15T08:39:49Z</time>
      </trkpt>
      <trkpt lat="44.47582" lon="5.81786">
        <ele>795</ele>
        <time>2019-06-15T08:39:50Z</time>
      </trkpt>
      <trkpt lat="44.47581" lon="5.81794">
        <ele>795</ele>
        <time>2019-06-15T08:39:51Z</time>
      </trkpt>
      <trkpt lat="44.4758" lon="5.81802">
        <ele>795</ele>
        <time>2019-06-15T08:39:52Z</time>
      </trkpt>
      <trkpt lat="44.4758" lon="5.8181">
        <ele>795</ele>
        <time>2019-06-15T08:39:53Z</time>
      </trkpt>
      <trkpt lat="44.47578" lon="5.81817">
        <ele>795</ele>
        <time>2019-06-15T08:39:54Z</time>
      </trkpt>
      <trkpt lat="44.47577" lon="5.81824">
        <ele>795</ele>
        <time>2019-06-15T08:39:55Z</time>
      </trkpt>
      <trkpt lat="44.47576" lon="5.81831">
        <ele>795</ele>
        <time>2019-06-15T08:39:56Z</time>
      </trkpt>
      <trkpt lat="44.47575" lon="5.81838">
        <ele>795</ele>
        <time>2019-06-15T08:39:57Z</time>
      </trkpt>
      <trkpt lat="44.47574" lon="5.81846">
        <ele>795</ele>
        <time>2019-06-15T08:39:58Z</time>
      </trkpt>
      <trkpt lat="44.47573" lon="5.81853">
        <ele>795</ele>
        <time>2019-06-15T08:39:59Z</time>
      </trkpt>
      <trkpt lat="44.47572" lon="5.8186">
        <ele>795</ele>
        <time>2019-06-15T08:40:00Z</time>
      </trkpt>
      <trkpt lat="44.47571" lon="5.81867">
        <ele>796</ele>
        <time>2019-06-15T08:40:01Z</time>
      </trkpt>
      <trkpt lat="44.4757" lon="5.81875">
        <ele>796</ele>
        <time>2019-06-15T08:40:02Z</time>
      </trkpt>
      <trkpt lat="44.4757" lon="5.81882">
        <ele>796</ele>
        <time>2019-06-15T08:40:03Z</time>
      </trkpt>
      <trkpt lat="44.47569" lon="5.81888">
        <ele>797</ele>
        <time>2019-06-15T08:40:04Z</time>
      </trkpt>
      <trkpt lat="44.47568" lon="5.81895">
        <ele>797</ele>
        <time>2019-06-15T08:40:05Z</time>
      </trkpt>
      <trkpt lat="44.47567" lon="5.81903">
        <ele>797</ele>
        <time>2019-06-15T08:40:06Z</time>
      </trkpt>
      <trkpt lat="44.47566" lon="5.81909">
        <ele>798</ele>
        <time>2019-06-15T08:40:07Z</time>
      </trkpt>
      <trkpt lat="44.47565" lon="5.81916">
        <ele>798</ele>
        <time>2019-06-15T08:40:08Z</time>
      </trkpt>
      <trkpt lat="44.47564" lon="5.81922">
        <ele>798</ele>
        <time>2019-06-15T08:40:09Z</time>
      </trkpt>
      <trkpt lat="44.47564" lon="5.81929">
        <ele>799</ele>
        <time>2019-06-15T08:40:10Z</time>
      </trkpt>
      <trkpt lat="44.47562" lon="5.81936">
        <ele>799</ele>
        <time>2019-06-15T08:40:11Z</time>
      </trkpt>
      <trkpt lat="44.47562" lon="5.81942">
        <ele>799</ele>
        <time>2019-06-15T08:40:12Z</time>
      </trkpt>
      <trkpt lat="44.47561" lon="5.81949">
        <ele>799</ele>
        <time>2019-06-15T08:40:13Z</time>
      </trkpt>
      <trkpt lat="44.4756" lon="5.81955">
        <ele>800</ele>
        <time>2019-06-15T08:40:14Z</time>
      </trkpt>
      <trkpt lat="44.4756" lon="5.81962">
        <ele>800</ele>
        <time>2019-06-15T08:40:15Z</time>
      </trkpt>
      <trkpt lat="44.47559" lon="5.81969">
        <ele>800</ele>
        <time>2019-06-15T08:40:16Z</time>
      </trkpt>
      <trkpt lat="44.47558" lon="5.81976">
        <ele>800</ele>
        <time>2019-06-15T08:40:17Z</time>
      </trkpt>
      <trkpt lat="44.47557" lon="5.81982">
        <ele>801</ele>
        <time>2019-06-15T08:40:18Z</time>
      </trkpt>
      <trkpt lat="44.47556" lon="5.81989">
        <ele>801</ele>
        <time>2019-06-15T08:40:19Z</time>
      </trkpt>
      <trkpt lat="44.47555" lon="5.81995">
        <ele>801</ele>
        <time>2019-06-15T08:40:20Z</time>
      </trkpt>
      <trkpt lat="44.47554" lon="5.82002">
        <ele>801</ele>
        <time>2019-06-15T08:40:21Z</time>
      </trkpt>
      <trkpt lat="44.47553" lon="5.82009">
        <ele>802</ele>
        <time>2019-06-15T08:40:22Z</time>
      </trkpt>
      <trkpt lat="44.47552" lon="5.82015">
        <ele>802</ele>
        <time>2019-06-15T08:40:23Z</time>
      </trkpt>
      <trkpt lat="44.47552" lon="5.82022">
        <ele>802</ele>
        <time>2019-06-15T08:40:24Z</time>
      </trkpt>
      <trkpt lat="44.47551" lon="5.82028">
        <ele>802</ele>
        <time>2019-06-15T08:40:25Z</time>
      </trkpt>
      <trkpt lat="44.4755" lon="5.82034">
        <ele>803</ele>
        <time>2019-06-15T08:40:26Z</time>
      </trkpt>
      <trkpt lat="44.47549" lon="5.8204">
        <ele>803</ele>
        <time>2019-06-15T08:40:27Z</time>
      </trkpt>
      <trkpt lat="44.47549" lon="5.82046">
        <ele>803</ele>
        <time>2019-06-15T08:40:28Z</time>
      </trkpt>
      <trkpt lat="44.47548" lon="5.82051">
        <ele>803</ele>
        <time>2019-06-15T08:40:29Z</time>
      </trkpt>
      <trkpt lat="44.47548" lon="5.82057">
        <ele>804</ele>
        <time>2019-06-15T08:40:30Z</time>
      </trkpt>
      <trkpt lat="44.47547" lon="5.82062">
        <ele>804</ele>
        <time>2019-06-15T08:40:31Z</time>
      </trkpt>
      <trkpt lat="44.47547" lon="5.82067">
        <ele>804</ele>
        <time>2019-06-15T08:40:32Z</time>
      </trkpt>
      <trkpt lat="44.47546" lon="5.82072">
        <ele>805</ele>
        <time>2019-06-15T08:40:33Z</time>
      </trkpt>
      <trkpt lat="44.47546" lon="5.82077">
        <ele>805</ele>
        <time>2019-06-15T08:40:34Z</time>
      </trkpt>
      <trkpt lat="44.47546" lon="5.82082">
        <ele>805</ele>
        <time>2019-06-15T08:40:35Z</time>
      </trkpt>
      <trkpt lat="44.47546" lon="5.82087">
        <ele>806</ele>
        <time>2019-06-15T08:40:36Z</time>
      </trkpt>
      <trkpt lat="44.47547" lon="5.82092">
        <ele>806</ele>
        <time>2019-06-15T08:40:37Z</time>
      </trkpt>
      <trkpt lat="44.47548" lon="5.82096">
        <ele>806</ele>
        <time>2019-06-15T08:40:38Z</time>
      </trkpt>
      <trkpt lat="44.4755" lon="5.82101">
        <ele>807</ele>
        <time>2019-06-15T08:40:39Z</time>
      </trkpt>
      <trkpt lat="44.47552" lon="5.82105">
        <ele>807</ele>
        <time>2019-06-15T08:40:40Z</time>
      </trkpt>
      <trkpt lat="44.47554" lon="5.82111">
        <ele>808</ele>
        <time>2019-06-15T08:40:41Z</time>
      </trkpt>
      <trkpt lat="44.47556" lon="5.82116">
        <ele>808</ele>
        <time>2019-06-15T08:40:42Z</time>
      </trkpt>
      <trkpt lat="44.47558" lon="5.82121">
        <ele>808</ele>
        <time>2019-06-15T08:40:43Z</time>
      </trkpt>
      <trkpt lat="44.47561" lon="5.82127">
        <ele>808</ele>
        <time>2019-06-15T08:40:44Z</time>
      </trkpt>
      <trkpt lat="44.47564" lon="5.82132">
        <ele>809</ele>
        <time>2019-06-15T08:40:45Z</time>
      </trkpt>
      <trkpt lat="44.47567" lon="5.82137">
        <ele>809</ele>
        <time>2019-06-15T08:40:46Z</time>
      </trkpt>
      <trkpt lat="44.47569" lon="5.82142">
        <ele>809</ele>
        <time>2019-06-15T08:40:47Z</time>
      </trkpt>
      <trkpt lat="44.47572" lon="5.82148">
        <ele>809</ele>
        <time>2019-06-15T08:40:48Z</time>
      </trkpt>
      <trkpt lat="44.47574" lon="5.82153">
        <ele>809</ele>
        <time>2019-06-15T08:40:49Z</time>
      </trkpt>
      <trkpt lat="44.47577" lon="5.82158">
        <ele>809</ele>
        <time>2019-06-15T08:40:50Z</time>
      </trkpt>
      <trkpt lat="44.4758" lon="5.82163">
        <ele>809</ele>
        <time>2019-06-15T08:40:51Z</time>
      </trkpt>
      <trkpt lat="44.47582" lon="5.82169">
        <ele>810</ele>
        <time>2019-06-15T08:40:52Z</time>
      </trkpt>
      <trkpt lat="44.47585" lon="5.82174">
        <ele>810</ele>
        <time>2019-06-15T08:40:53Z</time>
      </trkpt>
      <trkpt lat="44.47588" lon="5.82179">
        <ele>810</ele>
        <time>2019-06-15T08:40:54Z</time>
      </trkpt>
      <trkpt lat="44.47591" lon="5.82184">
        <ele>810</ele>
        <time>2019-06-15T08:40:55Z</time>
      </trkpt>
      <trkpt lat="44.47594" lon="5.82189">
        <ele>811</ele>
        <time>2019-06-15T08:40:56Z</time>
      </trkpt>
      <trkpt lat="44.47596" lon="5.82195">
        <ele>811</ele>
        <time>2019-06-15T08:40:57Z</time>
      </trkpt>
      <trkpt lat="44.47599" lon="5.822">
        <ele>811</ele>
        <time>2019-06-15T08:40:58Z</time>
      </trkpt>
      <trkpt lat="44.47601" lon="5.82206">
        <ele>811</ele>
        <time>2019-06-15T08:40:59Z</time>
      </trkpt>
      <trkpt lat="44.47604" lon="5.82212">
        <ele>812</ele>
        <time>2019-06-15T08:41:00Z</time>
      </trkpt>
      <trkpt lat="44.47607" lon="5.82217">
        <ele>812</ele>
        <time>2019-06-15T08:41:01Z</time>
      </trkpt>
      <trkpt lat="44.4761" lon="5.82223">
        <ele>812</ele>
        <time>2019-06-15T08:41:02Z</time>
      </trkpt>
      <trkpt lat="44.47612" lon="5.82229">
        <ele>812</ele>
        <time>2019-06-15T08:41:03Z</time>
      </trkpt>
      <trkpt lat="44.47615" lon="5.82234">
        <ele>813</ele>
        <time>2019-06-15T08:41:04Z</time>
      </trkpt>
      <trkpt lat="44.47617" lon="5.8224">
        <ele>813</ele>
        <time>2019-06-15T08:41:05Z</time>
      </trkpt>
      <trkpt lat="44.47619" lon="5.82246">
        <ele>813</ele>
        <time>2019-06-15T08:41:06Z</time>
      </trkpt>
      <trkpt lat="44.47621" lon="5.82251">
        <ele>813</ele>
        <time>2019-06-15T08:41:07Z</time>
      </trkpt>
      <trkpt lat="44.47623" lon="5.82257">
        <ele>813</ele>
        <time>2019-06-15T08:41:08Z</time>
      </trkpt>
      <trkpt lat="44.47625" lon="5.82263">
        <ele>813</ele>
        <time>2019-06-15T08:41:09Z</time>
      </trkpt>
      <trkpt lat="44.47625" lon="5.82269">
        <ele>813</ele>
        <time>2019-06-15T08:41:10Z</time>
      </trkpt>
      <trkpt lat="44.47627" lon="5.82275">
        <ele>813</ele>
        <time>2019-06-15T08:41:11Z</time>
      </trkpt>
      <trkpt lat="44.47628" lon="5.82281">
        <ele>813</ele>
        <time>2019-06-15T08:41:12Z</time>
      </trkpt>
      <trkpt lat="44.47632" lon="5.82287">
        <ele>813</ele>
        <time>2019-06-15T08:41:13Z</time>
      </trkpt>
      <trkpt lat="44.47634" lon="5.82293">
        <ele>813</ele>
        <time>2019-06-15T08:41:14Z</time>
      </trkpt>
      <trkpt lat="44.47636" lon="5.82299">
        <ele>814</ele>
        <time>2019-06-15T08:41:15Z</time>
      </trkpt>
      <trkpt lat="44.47637" lon="5.82305">
        <ele>814</ele>
        <time>2019-06-15T08:41:16Z</time>
      </trkpt>
      <trkpt lat="44.47639" lon="5.8231">
        <ele>815</ele>
        <time>2019-06-15T08:41:17Z</time>
      </trkpt>
      <trkpt lat="44.47641" lon="5.82316">
        <ele>815</ele>
        <time>2019-06-15T08:41:18Z</time>
      </trkpt>
      <trkpt lat="44.47644" lon="5.82322">
        <ele>815</ele>
        <time>2019-06-15T08:41:19Z</time>
      </trkpt>
      <trkpt lat="44.47646" lon="5.82328">
        <ele>816</ele>
        <time>2019-06-15T08:41:20Z</time>
      </trkpt>
      <trkpt lat="44.47647" lon="5.82334">
        <ele>816</ele>
        <time>2019-06-15T08:41:21Z</time>
      </trkpt>
      <trkpt lat="44.4765" lon="5.82339">
        <ele>816</ele>
        <time>2019-06-15T08:41:22Z</time>
      </trkpt>
      <trkpt lat="44.47652" lon="5.82344">
        <ele>816</ele>
        <time>2019-06-15T08:41:23Z</time>
      </trkpt>
      <trkpt lat="44.47654" lon="5.82348">
        <ele>817</ele>
        <time>2019-06-15T08:41:24Z</time>
      </trkpt>
      <trkpt lat="44.47658" lon="5.82352">
        <ele>817</ele>
        <time>2019-06-15T08:41:25Z</time>
      </trkpt>
      <trkpt lat="44.47661" lon="5.82357">
        <ele>817</ele>
        <time>2019-06-15T08:41:26Z</time>
      </trkpt>
      <trkpt lat="44.47664" lon="5.8236">
        <ele>817</ele>
        <time>2019-06-15T08:41:27Z</time>
      </trkpt>
      <trkpt lat="44.47667" lon="5.82364">
        <ele>818</ele>
        <time>2019-06-15T08:41:28Z</time>
      </trkpt>
      <trkpt lat="44.47669" lon="5.82367">
        <ele>818</ele>
        <time>2019-06-15T08:41:29Z</time>
      </trkpt>
      <trkpt lat="44.47672" lon="5.82369">
        <ele>818</ele>
        <time>2019-06-15T08:41:30Z</time>
      </trkpt>
      <trkpt lat="44.47675" lon="5.82371">
        <ele>818</ele>
        <time>2019-06-15T08:41:31Z</time>
      </trkpt>
      <trkpt lat="44.47678" lon="5.82372">
        <ele>819</ele>
        <time>2019-06-15T08:41:32Z</time>
      </trkpt>
      <trkpt lat="44.47681" lon="5.82372">
        <ele>819</ele>
        <time>2019-06-15T08:41:33Z</time>
      </trkpt>
      <trkpt lat="44.47685" lon="5.82372">
        <ele>819</ele>
        <time>2019-06-15T08:41:34Z</time>
      </trkpt>
      <trkpt lat="44.47689" lon="5.82371">
        <ele>819</ele>
        <time>2019-06-15T08:41:35Z</time>
      </trkpt>
      <trkpt lat="44.47693" lon="5.8237">
        <ele>819</ele>
        <time>2019-06-15T08:41:36Z</time>
      </trkpt>
      <trkpt lat="44.47697" lon="5.82368">
        <ele>819</ele>
        <time>2019-06-15T08:41:37Z</time>
      </trkpt>
      <trkpt lat="44.47701" lon="5.82365">
        <ele>819</ele>
        <time>2019-06-15T08:41:38Z</time>
      </trkpt>
      <trkpt lat="44.47705" lon="5.82362">
        <ele>819</ele>
        <time>2019-06-15T08:41:39Z</time>
      </trkpt>
      <trkpt lat="44.47709" lon="5.8236">
        <ele>819</ele>
        <time>2019-06-15T08:41:40Z</time>
      </trkpt>
      <trkpt lat="44.47713" lon="5.82358">
        <ele>819</ele>
        <time>2019-06-15T08:41:41Z</time>
      </trkpt>
      <trkpt lat="44.47718" lon="5.82355">
        <ele>819</ele>
        <time>2019-06-15T08:41:42Z</time>
      </trkpt>
      <trkpt lat="44.47722" lon="5.82352">
        <ele>819</ele>
        <time>2019-06-15T08:41:43Z</time>
      </trkpt>
      <trkpt lat="44.47726" lon="5.8235">
        <ele>819</ele>
        <time>2019-06-15T08:41:44Z</time>
      </trkpt>
      <trkpt lat="44.47731" lon="5.82348">
        <ele>819</ele>
        <time>2019-06-15T08:41:45Z</time>
      </trkpt>
      <trkpt lat="44.47735" lon="5.82345">
        <ele>819</ele>
        <time>2019-06-15T08:41:46Z</time>
      </trkpt>
      <trkpt lat="44.47739" lon="5.82343">
        <ele>819</ele>
        <time>2019-06-15T08:41:47Z</time>
      </trkpt>
      <trkpt lat="44.47744" lon="5.8234">
        <ele>819</ele>
        <time>2019-06-15T08:41:48Z</time>
      </trkpt>
      <trkpt lat="44.47749" lon="5.82338">
        <ele>819</ele>
        <time>2019-06-15T08:41:49Z</time>
      </trkpt>
      <trkpt lat="44.47753" lon="5.82336">
        <ele>819</ele>
        <time>2019-06-15T08:41:50Z</time>
      </trkpt>
      <trkpt lat="44.47758" lon="5.82334">
        <ele>819</ele>
        <time>2019-06-15T08:41:51Z</time>
      </trkpt>
      <trkpt lat="44.47763" lon="5.82333">
        <ele>819</ele>
        <time>2019-06-15T08:41:52Z</time>
      </trkpt>
      <trkpt lat="44.47768" lon="5.82331">
        <ele>819</ele>
        <time>2019-06-15T08:41:53Z</time>
      </trkpt>
      <trkpt lat="44.47773" lon="5.8233">
        <ele>819</ele>
        <time>2019-06-15T08:41:54Z</time>
      </trkpt>
      <trkpt lat="44.47778" lon="5.8233">
        <ele>819</ele>
        <time>2019-06-15T08:41:55Z</time>
      </trkpt>
      <trkpt lat="44.47782" lon="5.82329">
        <ele>819</ele>
        <time>2019-06-15T08:41:56Z</time>
      </trkpt>
      <trkpt lat="44.47787" lon="5.82328">
        <ele>820</ele>
        <time>2019-06-15T08:41:57Z</time>
      </trkpt>
      <trkpt lat="44.47792" lon="5.82328">
        <ele>820</ele>
        <time>2019-06-15T08:41:58Z</time>
      </trkpt>
      <trkpt lat="44.47796" lon="5.82327">
        <ele>820</ele>
        <time>2019-06-15T08:41:59Z</time>
      </trkpt>
      <trkpt lat="44.47801" lon="5.82326">
        <ele>820</ele>
        <time>2019-06-15T08:42:00Z</time>
      </trkpt>
      <trkpt lat="44.47805" lon="5.82326">
        <ele>820</ele>
        <time>2019-06-15T08:42:01Z</time>
      </trkpt>
      <trkpt lat="44.4781" lon="5.82326">
        <ele>820</ele>
        <time>2019-06-15T08:42:02Z</time>
      </trkpt>
      <trkpt lat="44.47814" lon="5.82326">
        <ele>820</ele>
        <time>2019-06-15T08:42:03Z</time>
      </trkpt>
      <trkpt lat="44.47818" lon="5.82326">
        <ele>821</ele>
        <time>2019-06-15T08:42:04Z</time>
      </trkpt>
      <trkpt lat="44.47823" lon="5.82325">
        <ele>821</ele>
        <time>2019-06-15T08:42:05Z</time>
      </trkpt>
      <trkpt lat="44.47828" lon="5.82325">
        <ele>821</ele>
        <time>2019-06-15T08:42:06Z</time>
      </trkpt>
      <trkpt lat="44.47832" lon="5.82325">
        <ele>821</ele>
        <time>2019-06-15T08:42:07Z</time>
      </trkpt>
      <trkpt lat="44.47837" lon="5.82326">
        <ele>821</ele>
        <time>2019-06-15T08:42:08Z</time>
      </trkpt>
      <trkpt lat="44.47841" lon="5.82327">
        <ele>821</ele>
        <time>2019-06-15T08:42:09Z</time>
      </trkpt>
      <trkpt lat="44.47846" lon="5.8233">
        <ele>821</ele>
        <time>2019-06-15T08:42:10Z</time>
      </trkpt>
      <trkpt lat="44.4785" lon="5.82333">
        <ele>821</ele>
        <time>2019-06-15T08:42:11Z</time>
      </trkpt>
      <trkpt lat="44.47854" lon="5.82336">
        <ele>821</ele>
        <time>2019-06-15T08:42:12Z</time>
      </trkpt>
      <trkpt lat="44.47858" lon="5.8234">
        <ele>821</ele>
        <time>2019-06-15T08:42:13Z</time>
      </trkpt>
      <trkpt lat="44.47861" lon="5.82345">
        <ele>821</ele>
        <time>2019-06-15T08:42:14Z</time>
      </trkpt>
      <trkpt lat="44.47864" lon="5.8235">
        <ele>821</ele>
        <time>2019-06-15T08:42:15Z</time>
      </trkpt>
      <trkpt lat="44.47867" lon="5.82356">
        <ele>821</ele>
        <time>2019-06-15T08:42:16Z</time>
      </trkpt>
      <trkpt lat="44.47869" lon="5.82363">
        <ele>821</ele>
        <time>2019-06-15T08:42:17Z</time>
      </trkpt>
      <trkpt lat="44.47871" lon="5.82369">
        <ele>821</ele>
        <time>2019-06-15T08:42:18Z</time>
      </trkpt>
      <trkpt lat="44.47873" lon="5.82376">
        <ele>821</ele>
        <time>2019-06-15T08:42:19Z</time>
      </trkpt>
      <trkpt lat="44.47874" lon="5.82383">
        <ele>821</ele>
        <time>2019-06-15T08:42:20Z</time>
      </trkpt>
      <trkpt lat="44.47876" lon="5.8239">
        <ele>821</ele>
        <time>2019-06-15T08:42:21Z</time>
      </trkpt>
      <trkpt lat="44.47877" lon="5.82397">
        <ele>821</ele>
        <time>2019-06-15T08:42:22Z</time>
      </trkpt>
      <trkpt lat="44.47879" lon="5.82403">
        <ele>821</ele>
        <time>2019-06-15T08:42:23Z</time>
      </trkpt>
      <trkpt lat="44.4788" lon="5.8241">
        <ele>821</ele>
        <time>2019-06-15T08:42:24Z</time>
      </trkpt>
      <trkpt lat="44.47881" lon="5.82417">
        <ele>821</ele>
        <time>2019-06-15T08:42:25Z</time>
      </trkpt>
      <trkpt lat="44.47883" lon="5.82424">
        <ele>821</ele>
        <time>2019-06-15T08:42:26Z</time>
      </trkpt>
      <trkpt lat="44.47884" lon="5.82431">
        <ele>821</ele>
        <time>2019-06-15T08:42:27Z</time>
      </trkpt>
      <trkpt lat="44.47886" lon="5.82438">
        <ele>821</ele>
        <time>2019-06-15T08:42:28Z</time>
      </trkpt>
      <trkpt lat="44.47887" lon="5.82444">
        <ele>821</ele>
        <time>2019-06-15T08:42:29Z</time>
      </trkpt>
      <trkpt lat="44.47889" lon="5.82451">
        <ele>821</ele>
        <time>2019-06-15T08:42:30Z</time>
      </trkpt>
      <trkpt lat="44.4789" lon="5.82457">
        <ele>821</ele>
        <time>2019-06-15T08:42:31Z</time>
      </trkpt>
      <trkpt lat="44.47892" lon="5.82464">
        <ele>821</ele>
        <time>2019-06-15T08:42:32Z</time>
      </trkpt>
      <trkpt lat="44.47893" lon="5.82471">
        <ele>821</ele>
        <time>2019-06-15T08:42:33Z</time>
      </trkpt>
      <trkpt lat="44.47894" lon="5.82478">
        <ele>821</ele>
        <time>2019-06-15T08:42:34Z</time>
      </trkpt>
      <trkpt lat="44.47895" lon="5.82485">
        <ele>821</ele>
        <time>2019-06-15T08:42:35Z</time>
      </trkpt>
      <trkpt lat="44.47897" lon="5.82491">
        <ele>821</ele>
        <time>2019-06-15T08:42:36Z</time>
      </trkpt>
      <trkpt lat="44.47898" lon="5.82499">
        <ele>821</ele>
        <time>2019-06-15T08:42:37Z</time>
      </trkpt>
      <trkpt lat="44.479" lon="5.82506">
        <ele>821</ele>
        <time>2019-06-15T08:42:38Z</time>
      </trkpt>
      <trkpt lat="44.47902" lon="5.82513">
        <ele>821</ele>
        <time>2019-06-15T08:42:39Z</time>
      </trkpt>
      <trkpt lat="44.47903" lon="5.82519">
        <ele>821</ele>
        <time>2019-06-15T08:42:40Z</time>
      </trkpt>
      <trkpt lat="44.47905" lon="5.82526">
        <ele>821</ele>
        <time>2019-06-15T08:42:41Z</time>
      </trkpt>
      <trkpt lat="44.47906" lon="5.82533">
        <ele>821</ele>
        <time>2019-06-15T08:42:42Z</time>
      </trkpt>
      <trkpt lat="44.47907" lon="5.8254">
        <ele>821</ele>
        <time>2019-06-15T08:42:43Z</time>
      </trkpt>
      <trkpt lat="44.47908" lon="5.82547">
        <ele>821</ele>
        <time>2019-06-15T08:42:44Z</time>
      </trkpt>
      <trkpt lat="44.4791" lon="5.82554">
        <ele>821</ele>
        <time>2019-06-15T08:42:45Z</time>
      </trkpt>
      <trkpt lat="44.47911" lon="5.8256">
        <ele>821</ele>
        <time>2019-06-15T08:42:46Z</time>
      </trkpt>
      <trkpt lat="44.47913" lon="5.82567">
        <ele>822</ele>
        <time>2019-06-15T08:42:47Z</time>
      </trkpt>
      <trkpt lat="44.47914" lon="5.82574">
        <ele>822</ele>
        <time>2019-06-15T08:42:48Z</time>
      </trkpt>
      <trkpt lat="44.47915" lon="5.82581">
        <ele>822</ele>
        <time>2019-06-15T08:42:49Z</time>
      </trkpt>
      <trkpt lat="44.47916" lon="5.82587">
        <ele>822</ele>
        <time>2019-06-15T08:42:50Z</time>
      </trkpt>
      <trkpt lat="44.47918" lon="5.82593">
        <ele>823</ele>
        <time>2019-06-15T08:42:51Z</time>
      </trkpt>
      <trkpt lat="44.47921" lon="5.82599">
        <ele>823</ele>
        <time>2019-06-15T08:42:52Z</time>
      </trkpt>
      <trkpt lat="44.47922" lon="5.82606">
        <ele>824</ele>
        <time>2019-06-15T08:42:53Z</time>
      </trkpt>
      <trkpt lat="44.47924" lon="5.82613">
        <ele>824</ele>
        <time>2019-06-15T08:42:54Z</time>
      </trkpt>
      <trkpt lat="44.47925" lon="5.8262">
        <ele>825</ele>
        <time>2019-06-15T08:42:55Z</time>
      </trkpt>
      <trkpt lat="44.47926" lon="5.82626">
        <ele>825</ele>
        <time>2019-06-15T08:42:56Z</time>
      </trkpt>
      <trkpt lat="44.47927" lon="5.82633">
        <ele>826</ele>
        <time>2019-06-15T08:42:57Z</time>
      </trkpt>
      <trkpt lat="44.47929" lon="5.8264">
        <ele>826</ele>
        <time>2019-06-15T08:42:58Z</time>
      </trkpt>
      <trkpt lat="44.4793" lon="5.82647">
        <ele>826</ele>
        <time>2019-06-15T08:42:59Z</time>
      </trkpt>
      <trkpt lat="44.47931" lon="5.82653">
        <ele>826</ele>
        <time>2019-06-15T08:43:00Z</time>
      </trkpt>
      <trkpt lat="44.47933" lon="5.82659">
        <ele>826</ele>
        <time>2019-06-15T08:43:01Z</time>
      </trkpt>
      <trkpt lat="44.47935" lon="5.82665">
        <ele>826</ele>
        <time>2019-06-15T08:43:02Z</time>
      </trkpt>
      <trkpt lat="44.47937" lon="5.82671">
        <ele>827</ele>
        <time>2019-06-15T08:43:03Z</time>
      </trkpt>
      <trkpt lat="44.4794" lon="5.82677">
        <ele>827</ele>
        <time>2019-06-15T08:43:04Z</time>
      </trkpt>
      <trkpt lat="44.47942" lon="5.82683">
        <ele>827</ele>
        <time>2019-06-15T08:43:05Z</time>
      </trkpt>
      <trkpt lat="44.47944" lon="5.82689">
        <ele>827</ele>
        <time>2019-06-15T08:43:06Z</time>
      </trkpt>
      <trkpt lat="44.47946" lon="5.82694">
        <ele>827</ele>
        <time>2019-06-15T08:43:07Z</time>
      </trkpt>
      <trkpt lat="44.47949" lon="5.827">
        <ele>828</ele>
        <time>2019-06-15T08:43:08Z</time>
      </trkpt>
      <trkpt lat="44.47952" lon="5.82705">
        <ele>828</ele>
        <time>2019-06-15T08:43:09Z</time>
      </trkpt>
      <trkpt lat="44.47955" lon="5.8271">
        <ele>828</ele>
        <time>2019-06-15T08:43:10Z</time>
      </trkpt>
      <trkpt lat="44.47958" lon="5.82715">
        <ele>828</ele>
        <time>2019-06-15T08:43:11Z</time>
      </trkpt>
      <trkpt lat="44.47962" lon="5.8272">
        <ele>829</ele>
        <time>2019-06-15T08:43:12Z</time>
      </trkpt>
      <trkpt lat="44.47965" lon="5.82724">
        <ele>829</ele>
        <time>2019-06-15T08:43:13Z</time>
      </trkpt>
      <trkpt lat="44.47968" lon="5.82729">
        <ele>829</ele>
        <time>2019-06-15T08:43:14Z</time>
      </trkpt>
      <trkpt lat="44.47971" lon="5.82733">
        <ele>830</ele>
        <time>2019-06-15T08:43:15Z</time>
      </trkpt>
      <trkpt lat="44.47974" lon="5.82738">
        <ele>830</ele>
        <time>2019-06-15T08:43:16Z</time>
      </trkpt>
      <trkpt lat="44.47978" lon="5.82743">
        <ele>830</ele>
        <time>2019-06-15T08:43:17Z</time>
      </trkpt>
      <trkpt lat="44.47981" lon="5.82748">
        <ele>831</ele>
        <time>2019-06-15T08:43:18Z</time>
      </trkpt>
      <trkpt lat="44.47984" lon="5.82753">
        <ele>831</ele>
        <time>2019-06-15T08:43:19Z</time>
      </trkpt>
      <trkpt lat="44.47987" lon="5.82758">
        <ele>831</ele>
        <time>2019-06-15T08:43:20Z</time>
      </trkpt>
      <trkpt lat="44.47991" lon="5.82763">
        <ele>831</ele>
        <time>2019-06-15T08:43:21Z</time>
      </trkpt>
      <trkpt lat="44.47994" lon="5.82769">
        <ele>832</ele>
        <time>2019-06-15T08:43:22Z</time>
      </trkpt>
      <trkpt lat="44.47997" lon="5.82774">
        <ele>832</ele>
        <time>2019-06-15T08:43:23Z</time>
      </trkpt>
      <trkpt lat="44.48001" lon="5.82779">
        <ele>832</ele>
        <time>2019-06-15T08:43:24Z</time>
      </trkpt>
      <trkpt lat="44.48004" lon="5.82784">
        <ele>832</ele>
        <time>2019-06-15T08:43:25Z</time>
      </trkpt>
      <trkpt lat="44.48007" lon="5.82789">
        <ele>832</ele>
        <time>2019-06-15T08:43:26Z</time>
      </trkpt>
      <trkpt lat="44.48011" lon="5.82794">
        <ele>833</ele>
        <time>2019-06-15T08:43:27Z</time>
      </trkpt>
      <trkpt lat="44.48014" lon="5.82799">
        <ele>833</ele>
        <time>2019-06-15T08:43:28Z</time>
      </trkpt>
      <trkpt lat="44.48018" lon="5.82805">
        <ele>833</ele>
        <time>2019-06-15T08:43:29Z</time>
      </trkpt>
      <trkpt lat="44.48021" lon="5.8281">
        <ele>834</ele>
        <time>2019-06-15T08:43:30Z</time>
      </trkpt>
      <trkpt lat="44.48024" lon="5.82816">
        <ele>834</ele>
        <time>2019-06-15T08:43:31Z</time>
      </trkpt>
      <trkpt lat="44.48027" lon="5.82821">
        <ele>834</ele>
        <time>2019-06-15T08:43:32Z</time>
      </trkpt>
      <trkpt lat="44.4803" lon="5.82826">
        <ele>834</ele>
        <time>2019-06-15T08:43:33Z</time>
      </trkpt>
      <trkpt lat="44.48034" lon="5.82831">
        <ele>835</ele>
        <time>2019-06-15T08:43:34Z</time>
      </trkpt>
      <trkpt lat="44.48037" lon="5.82837">
        <ele>835</ele>
        <time>2019-06-15T08:43:35Z</time>
      </trkpt>
      <trkpt lat="44.4804" lon="5.82842">
        <ele>835</ele>
        <time>2019-06-15T08:43:36Z</time>
      </trkpt>
      <trkpt lat="44.48043" lon="5.82847">
        <ele>835</ele>
        <time>2019-06-15T08:43:37Z</time>
      </trkpt>
      <trkpt lat="44.48046" lon="5.82852">
        <ele>836</ele>
        <time>2019-06-15T08:43:38Z</time>
      </trkpt>
      <trkpt lat="44.48049" lon="5.82856">
        <ele>836</ele>
        <time>2019-06-15T08:43:39Z</time>
      </trkpt>
      <trkpt lat="44.48052" lon="5.82861">
        <ele>836</ele>
        <time>2019-06-15T08:43:40Z</time>
      </trkpt>
      <trkpt lat="44.48055" lon="5.82866">
        <ele>836</ele>
        <time>2019-06-15T08:43:41Z</time>
      </trkpt>
      <trkpt lat="44.48058" lon="5.82871">
        <ele>836</ele>
        <time>2019-06-15T08:43:42Z</time>
      </trkpt>
      <trkpt lat="44.48061" lon="5.82877">
        <ele>836</ele>
        <time>2019-06-15T08:43:43Z</time>
      </trkpt>
      <trkpt lat="44.48064" lon="5.82882">
        <ele>836</ele>
        <time>2019-06-15T08:43:44Z</time>
      </trkpt>
      <trkpt lat="44.48067" lon="5.82888">
        <ele>836</ele>
        <time>2019-06-15T08:43:45Z</time>
      </trkpt>
      <trkpt lat="44.48071" lon="5.82893">
        <ele>836</ele>
        <time>2019-06-15T08:43:46Z</time>
      </trkpt>
      <trkpt lat="44.48075" lon="5.82898">
        <ele>836</ele>
        <time>2019-06-15T08:43:47Z</time>
      </trkpt>
      <trkpt lat="44.48079" lon="5.82903">
        <ele>836</ele>
        <time>2019-06-15T08:43:48Z</time>
      </trkpt>
      <trkpt lat="44.48082" lon="5.82908">
        <ele>836</ele>
        <time>2019-06-15T08:43:49Z</time>
      </trkpt>
      <trkpt lat="44.48086" lon="5.82914">
        <ele>836</ele>
        <time>2019-06-15T08:43:50Z</time>
      </trkpt>
      <trkpt lat="44.48089" lon="5.82919">
        <ele>836</ele>
        <time>2019-06-15T08:43:51Z</time>
      </trkpt>
      <trkpt lat="44.48093" lon="5.82923">
        <ele>836</ele>
        <time>2019-06-15T08:43:52Z</time>
      </trkpt>
      <trkpt lat="44.48098" lon="5.82928">
        <ele>836</ele>
        <time>2019-06-15T08:43:53Z</time>
      </trkpt>
      <trkpt lat="44.48103" lon="5.82933">
        <ele>836</ele>
        <time>2019-06-15T08:43:54Z</time>
      </trkpt>
      <trkpt lat="44.48107" lon="5.82936">
        <ele>836</ele>
        <time>2019-06-15T08:43:55Z</time>
      </trkpt>
      <trkpt lat="44.48111" lon="5.8294">
        <ele>836</ele>
        <time>2019-06-15T08:43:56Z</time>
      </trkpt>
      <trkpt lat="44.48115" lon="5.82943">
        <ele>836</ele>
        <time>2019-06-15T08:43:57Z</time>
      </trkpt>
      <trkpt lat="44.48127" lon="5.82951">
        <ele>836</ele>
        <time>2019-06-15T08:44:00Z</time>
      </trkpt>
      <trkpt lat="44.48133" lon="5.82954">
        <ele>836</ele>
        <time>2019-06-15T08:44:01Z</time>
      </trkpt>
      <trkpt lat="44.48138" lon="5.82957">
        <ele>836</ele>
        <time>2019-06-15T08:44:02Z</time>
      </trkpt>
      <trkpt lat="44.48141" lon="5.8296">
        <ele>836</ele>
        <time>2019-06-15T08:44:03Z</time>
      </trkpt>
      <trkpt lat="44.48145" lon="5.82963">
        <ele>836</ele>
        <time>2019-06-15T08:44:04Z</time>
      </trkpt>
      <trkpt lat="44.48148" lon="5.82965">
        <ele>836</ele>
        <time>2019-06-15T08:44:05Z</time>
      </trkpt>
      <trkpt lat="44.48152" lon="5.82967">
        <ele>836</ele>
        <time>2019-06-15T08:44:06Z</time>
      </trkpt>
      <trkpt lat="44.48156" lon="5.8297">
        <ele>837</ele>
        <time>2019-06-15T08:44:07Z</time>
      </trkpt>
      <trkpt lat="44.48161" lon="5.82973">
        <ele>838</ele>
        <time>2019-06-15T08:44:08Z</time>
      </trkpt>
      <trkpt lat="44.48165" lon="5.82975">
        <ele>839</ele>
        <time>2019-06-15T08:44:09Z</time>
      </trkpt>
      <trkpt lat="44.4817" lon="5.82977">
        <ele>840</ele>
        <time>2019-06-15T08:44:10Z</time>
      </trkpt>
      <trkpt lat="44.48174" lon="5.8298">
        <ele>841</ele>
        <time>2019-06-15T08:44:11Z</time>
      </trkpt>
      <trkpt lat="44.48179" lon="5.82982">
        <ele>842</ele>
        <time>2019-06-15T08:44:12Z</time>
      </trkpt>
      <trkpt lat="44.48183" lon="5.82985">
        <ele>843</ele>
        <time>2019-06-15T08:44:13Z</time>
      </trkpt>
      <trkpt lat="44.48188" lon="5.82987">
        <ele>844</ele>
        <time>2019-06-15T08:44:14Z</time>
      </trkpt>
      <trkpt lat="44.48191" lon="5.82989">
        <ele>845</ele>
        <time>2019-06-15T08:44:15Z</time>
      </trkpt>
      <trkpt lat="44.48195" lon="5.82992">
        <ele>845</ele>
        <time>2019-06-15T08:44:16Z</time>
      </trkpt>
      <trkpt lat="44.48199" lon="5.82994">
        <ele>845</ele>
        <time>2019-06-15T08:44:17Z</time>
      </trkpt>
      <trkpt lat="44.48203" lon="5.82996">
        <ele>845</ele>
        <time>2019-06-15T08:44:18Z</time>
      </trkpt>
      <trkpt lat="44.48207" lon="5.82998">
        <ele>845</ele>
        <time>2019-06-15T08:44:19Z</time>
      </trkpt>
      <trkpt lat="44.48225" lon="5.83001">
        <ele>848</ele>
        <time>2019-06-15T08:44:23Z</time>
      </trkpt>
      <trkpt lat="44.48229" lon="5.83002">
        <ele>849</ele>
        <time>2019-06-15T08:44:24Z</time>
      </trkpt>
      <trkpt lat="44.48242" lon="5.83004">
        <ele>851</ele>
        <time>2019-06-15T08:44:27Z</time>
      </trkpt>
      <trkpt lat="44.48246" lon="5.83005">
        <ele>852</ele>
        <time>2019-06-15T08:44:28Z</time>
      </trkpt>
      <trkpt lat="44.48251" lon="5.83006">
        <ele>853</ele>
        <time>2019-06-15T08:44:29Z</time>
      </trkpt>
      <trkpt lat="44.48256" lon="5.83008">
        <ele>854</ele>
        <time>2019-06-15T08:44:30Z</time>
      </trkpt>
      <trkpt lat="44.48261" lon="5.8301">
        <ele>854</ele>
        <time>2019-06-15T08:44:31Z</time>
      </trkpt>
      <trkpt lat="44.48266" lon="5.83012">
        <ele>854</ele>
        <time>2019-06-15T08:44:32Z</time>
      </trkpt>
      <trkpt lat="44.4827" lon="5.83014">
        <ele>854</ele>
        <time>2019-06-15T08:44:33Z</time>
      </trkpt>
      <trkpt lat="44.48274" lon="5.83018">
        <ele>854</ele>
        <time>2019-06-15T08:44:34Z</time>
      </trkpt>
      <trkpt lat="44.48279" lon="5.83022">
        <ele>854</ele>
        <time>2019-06-15T08:44:35Z</time>
      </trkpt>
      <trkpt lat="44.48283" lon="5.83026">
        <ele>854</ele>
        <time>2019-06-15T08:44:36Z</time>
      </trkpt>
      <trkpt lat="44.48287" lon="5.8303">
        <ele>854</ele>
        <time>2019-06-15T08:44:37Z</time>
      </trkpt>
      <trkpt lat="44.48292" lon="5.83034">
        <ele>854</ele>
        <time>2019-06-15T08:44:38Z</time>
      </trkpt>
      <trkpt lat="44.48297" lon="5.83039">
        <ele>854</ele>
        <time>2019-06-15T08:44:39Z</time>
      </trkpt>
      <trkpt lat="44.48302" lon="5.83043">
        <ele>854</ele>
        <time>2019-06-15T08:44:40Z</time>
      </trkpt>
      <trkpt lat="44.48306" lon="5.83046">
        <ele>854</ele>
        <time>2019-06-15T08:44:41Z</time>
      </trkpt>
      <trkpt lat="44.48309" lon="5.83049">
        <ele>854</ele>
        <time>2019-06-15T08:44:42Z</time>
      </trkpt>
      <trkpt lat="44.48314" lon="5.83051">
        <ele>853</ele>
        <time>2019-06-15T08:44:43Z</time>
      </trkpt>
      <trkpt lat="44.48317" lon="5.83054">
        <ele>852</ele>
        <time>2019-06-15T08:44:44Z</time>
      </trkpt>
      <trkpt lat="44.48321" lon="5.83057">
        <ele>852</ele>
        <time>2019-06-15T08:44:45Z</time>
      </trkpt>
      <trkpt lat="44.48325" lon="5.83059">
        <ele>851</ele>
        <time>2019-06-15T08:44:46Z</time>
      </trkpt>
      <trkpt lat="44.48329" lon="5.83062">
        <ele>850</ele>
        <time>2019-06-15T08:44:47Z</time>
      </trkpt>
      <trkpt lat="44.48334" lon="5.83064">
        <ele>850</ele>
        <time>2019-06-15T08:44:48Z</time>
      </trkpt>
      <trkpt lat="44.48338" lon="5.83066">
        <ele>849</ele>
        <time>2019-06-15T08:44:49Z</time>
      </trkpt>
      <trkpt lat="44.48343" lon="5.83068">
        <ele>848</ele>
        <time>2019-06-15T08:44:50Z</time>
      </trkpt>
      <trkpt lat="44.48348" lon="5.83069">
        <ele>848</ele>
        <time>2019-06-15T08:44:51Z</time>
      </trkpt>
      <trkpt lat="44.48352" lon="5.8307">
        <ele>848</ele>
        <time>2019-06-15T08:44:52Z</time>
      </trkpt>
      <trkpt lat="44.48357" lon="5.83072">
        <ele>848</ele>
        <time>2019-06-15T08:44:53Z</time>
      </trkpt>
      <trkpt lat="44.48361" lon="5.83073">
        <ele>848</ele>
        <time>2019-06-15T08:44:54Z</time>
      </trkpt>
      <trkpt lat="44.48364" lon="5.83073">
        <ele>848</ele>
        <time>2019-06-15T08:44:55Z</time>
      </trkpt>
      <trkpt lat="44.4837" lon="5.83074">
        <ele>848</ele>
        <time>2019-06-15T08:44:56Z</time>
      </trkpt>
      <trkpt lat="44.48373" lon="5.83075">
        <ele>848</ele>
        <time>2019-06-15T08:44:57Z</time>
      </trkpt>
      <trkpt lat="44.48377" lon="5.83075">
        <ele>848</ele>
        <time>2019-06-15T08:44:58Z</time>
      </trkpt>
      <trkpt lat="44.48382" lon="5.83074">
        <ele>848</ele>
        <time>2019-06-15T08:44:59Z</time>
      </trkpt>
      <trkpt lat="44.48387" lon="5.83074">
        <ele>847</ele>
        <time>2019-06-15T08:45:00Z</time>
      </trkpt>
      <trkpt lat="44.48391" lon="5.83074">
        <ele>847</ele>
        <time>2019-06-15T08:45:01Z</time>
      </trkpt>
      <trkpt lat="44.48397" lon="5.83074">
        <ele>847</ele>
        <time>2019-06-15T08:45:02Z</time>
      </trkpt>
      <trkpt lat="44.48402" lon="5.83075">
        <ele>847</ele>
        <time>2019-06-15T08:45:03Z</time>
      </trkpt>
      <trkpt lat="44.48407" lon="5.83076">
        <ele>847</ele>
        <time>2019-06-15T08:45:04Z</time>
      </trkpt>
      <trkpt lat="44.48412" lon="5.83077">
        <ele>847</ele>
        <time>2019-06-15T08:45:05Z</time>
      </trkpt>
      <trkpt lat="44.48417" lon="5.83078">
        <ele>847</ele>
        <time>2019-06-15T08:45:06Z</time>
      </trkpt>
      <trkpt lat="44.48431" lon="5.8308">
        <ele>847</ele>
        <time>2019-06-15T08:45:09Z</time>
      </trkpt>
      <trkpt lat="44.48436" lon="5.8308">
        <ele>847</ele>
        <time>2019-06-15T08:45:10Z</time>
      </trkpt>
      <trkpt lat="44.48441" lon="5.83081">
        <ele>847</ele>
        <time>2019-06-15T08:45:11Z</time>
      </trkpt>
      <trkpt lat="44.48446" lon="5.83082">
        <ele>847</ele>
        <time>2019-06-15T08:45:12Z</time>
      </trkpt>
      <trkpt lat="44.48451" lon="5.83082">
        <ele>847</ele>
        <time>2019-06-15T08:45:13Z</time>
      </trkpt>
      <trkpt lat="44.48456" lon="5.83082">
        <ele>847</ele>
        <time>2019-06-15T08:45:14Z</time>
      </trkpt>
      <trkpt lat="44.48461" lon="5.83081">
        <ele>847</ele>
        <time>2019-06-15T08:45:15Z</time>
      </trkpt>
      <trkpt lat="44.48466" lon="5.83081">
        <ele>847</ele>
        <time>2019-06-15T08:45:16Z</time>
      </trkpt>
      <trkpt lat="44.48471" lon="5.83081">
        <ele>847</ele>
        <time>2019-06-15T08:45:17Z</time>
      </trkpt>
      <trkpt lat="44.48476" lon="5.83081">
        <ele>847</ele>
        <time>2019-06-15T08:45:18Z</time>
      </trkpt>
      <trkpt lat="44.48481" lon="5.83081">
        <ele>847</ele>
        <time>2019-06-15T08:45:19Z</time>
      </trkpt>
      <trkpt lat="44.48485" lon="5.83081">
        <ele>847</ele>
        <time>2019-06-15T08:45:20Z</time>
      </trkpt>
      <trkpt lat="44.4849" lon="5.83081">
        <ele>847</ele>
        <time>2019-06-15T08:45:21Z</time>
      </trkpt>
      <trkpt lat="44.48495" lon="5.8308">
        <ele>847</ele>
        <time>2019-06-15T08:45:22Z</time>
      </trkpt>
      <trkpt lat="44.485" lon="5.83079">
        <ele>847</ele>
        <time>2019-06-15T08:45:23Z</time>
      </trkpt>
      <trkpt lat="44.48504" lon="5.83079">
        <ele>847</ele>
        <time>2019-06-15T08:45:24Z</time>
      </trkpt>
      <trkpt lat="44.48509" lon="5.83078">
        <ele>847</ele>
        <time>2019-06-15T08:45:25Z</time>
      </trkpt>
      <trkpt lat="44.48513" lon="5.83078">
        <ele>847</ele>
        <time>2019-06-15T08:45:26Z</time>
      </trkpt>
      <trkpt lat="44.48518" lon="5.83077">
        <ele>847</ele>
        <time>2019-06-15T08:45:27Z</time>
      </trkpt>
      <trkpt lat="44.48523" lon="5.83076">
        <ele>847</ele>
        <time>2019-06-15T08:45:28Z</time>
      </trkpt>
      <trkpt lat="44.48527" lon="5.83075">
        <ele>847</ele>
        <time>2019-06-15T08:45:29Z</time>
      </trkpt>
      <trkpt lat="44.48531" lon="5.83074">
        <ele>847</ele>
        <time>2019-06-15T08:45:30Z</time>
      </trkpt>
      <trkpt lat="44.48535" lon="5.83072">
        <ele>847</ele>
        <time>2019-06-15T08:45:31Z</time>
      </trkpt>
      <trkpt lat="44.48539" lon="5.8307">
        <ele>847</ele>
        <time>2019-06-15T08:45:32Z</time>
      </trkpt>
      <trkpt lat="44.48544" lon="5.83068">
        <ele>847</ele>
        <time>2019-06-15T08:45:33Z</time>
      </trkpt>
      <trkpt lat="44.48547" lon="5.83066">
        <ele>847</ele>
        <time>2019-06-15T08:45:34Z</time>
      </trkpt>
      <trkpt lat="44.48552" lon="5.83064">
        <ele>847</ele>
        <time>2019-06-15T08:45:35Z</time>
      </trkpt>
      <trkpt lat="44.48556" lon="5.83061">
        <ele>847</ele>
        <time>2019-06-15T08:45:36Z</time>
      </trkpt>
      <trkpt lat="44.48561" lon="5.83058">
        <ele>847</ele>
        <time>2019-06-15T08:45:37Z</time>
      </trkpt>
      <trkpt lat="44.48565" lon="5.83055">
        <ele>847</ele>
        <time>2019-06-15T08:45:38Z</time>
      </trkpt>
      <trkpt lat="44.4857" lon="5.83052">
        <ele>847</ele>
        <time>2019-06-15T08:45:39Z</time>
      </trkpt>
      <trkpt lat="44.48575" lon="5.8305">
        <ele>847</ele>
        <time>2019-06-15T08:45:40Z</time>
      </trkpt>
      <trkpt lat="44.48579" lon="5.83048">
        <ele>847</ele>
        <time>2019-06-15T08:45:41Z</time>
      </trkpt>
      <trkpt lat="44.48584" lon="5.83046">
        <ele>847</ele>
        <time>2019-06-15T08:45:42Z</time>
      </trkpt>
      <trkpt lat="44.48589" lon="5.83045">
        <ele>847</ele>
        <time>2019-06-15T08:45:43Z</time>
      </trkpt>
      <trkpt lat="44.48594" lon="5.83044">
        <ele>847</ele>
        <time>2019-06-15T08:45:44Z</time>
      </trkpt>
      <trkpt lat="44.48598" lon="5.83043">
        <ele>847</ele>
        <time>2019-06-15T08:45:45Z</time>
      </trkpt>
      <trkpt lat="44.48603" lon="5.83042">
        <ele>847</ele>
        <time>2019-06-15T08:45:46Z</time>
      </trkpt>
      <trkpt lat="44.48607" lon="5.83041">
        <ele>848</ele>
        <time>2019-06-15T08:45:47Z</time>
      </trkpt>
      <trkpt lat="44.48611" lon="5.83041">
        <ele>848</ele>
        <time>2019-06-15T08:45:48Z</time>
      </trkpt>
      <trkpt lat="44.48615" lon="5.83039">
        <ele>849</ele>
        <time>2019-06-15T08:45:49Z</time>
      </trkpt>
      <trkpt lat="44.48619" lon="5.83039">
        <ele>849</ele>
        <time>2019-06-15T08:45:50Z</time>
      </trkpt>
      <trkpt lat="44.48623" lon="5.83038">
        <ele>850</ele>
        <time>2019-06-15T08:45:51Z</time>
      </trkpt>
      <trkpt lat="44.48627" lon="5.83037">
        <ele>850</ele>
        <time>2019-06-15T08:45:52Z</time>
      </trkpt>
      <trkpt lat="44.48631" lon="5.83037">
        <ele>851</ele>
        <time>2019-06-15T08:45:53Z</time>
      </trkpt>
      <trkpt lat="44.48635" lon="5.83036">
        <ele>852</ele>
        <time>2019-06-15T08:45:54Z</time>
      </trkpt>
      <trkpt lat="44.48639" lon="5.83036">
        <ele>853</ele>
        <time>2019-06-15T08:45:55Z</time>
      </trkpt>
      <trkpt lat="44.48642" lon="5.83034">
        <ele>853</ele>
        <time>2019-06-15T08:45:56Z</time>
      </trkpt>
      <trkpt lat="44.48646" lon="5.83033">
        <ele>854</ele>
        <time>2019-06-15T08:45:57Z</time>
      </trkpt>
      <trkpt lat="44.4865" lon="5.83032">
        <ele>854</ele>
        <time>2019-06-15T08:45:58Z</time>
      </trkpt>
      <trkpt lat="44.48654" lon="5.83031">
        <ele>855</ele>
        <time>2019-06-15T08:45:59Z</time>
      </trkpt>
      <trkpt lat="44.48658" lon="5.8303">
        <ele>856</ele>
        <time>2019-06-15T08:46:00Z</time>
      </trkpt>
      <trkpt lat="44.48662" lon="5.8303">
        <ele>856</ele>
        <time>2019-06-15T08:46:01Z</time>
      </trkpt>
      <trkpt lat="44.48666" lon="5.83028">
        <ele>856</ele>
        <time>2019-06-15T08:46:02Z</time>
      </trkpt>
      <trkpt lat="44.4867" lon="5.83027">
        <ele>857</ele>
        <time>2019-06-15T08:46:03Z</time>
      </trkpt>
      <trkpt lat="44.48674" lon="5.83026">
        <ele>857</ele>
        <time>2019-06-15T08:46:04Z</time>
      </trkpt>
      <trkpt lat="44.48678" lon="5.83025">
        <ele>857</ele>
        <time>2019-06-15T08:46:05Z</time>
      </trkpt>
      <trkpt lat="44.48683" lon="5.83023">
        <ele>858</ele>
        <time>2019-06-15T08:46:06Z</time>
      </trkpt>
      <trkpt lat="44.48687" lon="5.83022">
        <ele>858</ele>
        <time>2019-06-15T08:46:07Z</time>
      </trkpt>
      <trkpt lat="44.48691" lon="5.8302">
        <ele>858</ele>
        <time>2019-06-15T08:46:08Z</time>
      </trkpt>
      <trkpt lat="44.48695" lon="5.83019">
        <ele>858</ele>
        <time>2019-06-15T08:46:09Z</time>
      </trkpt>
      <trkpt lat="44.48699" lon="5.83017">
        <ele>859</ele>
        <time>2019-06-15T08:46:10Z</time>
      </trkpt>
      <trkpt lat="44.48703" lon="5.83014">
        <ele>859</ele>
        <time>2019-06-15T08:46:11Z</time>
      </trkpt>
      <trkpt lat="44.48707" lon="5.83012">
        <ele>859</ele>
        <time>2019-06-15T08:46:12Z</time>
      </trkpt>
      <trkpt lat="44.48711" lon="5.8301">
        <ele>860</ele>
        <time>2019-06-15T08:46:13Z</time>
      </trkpt>
      <trkpt lat="44.48715" lon="5.83008">
        <ele>860</ele>
        <time>2019-06-15T08:46:14Z</time>
      </trkpt>
      <trkpt lat="44.48719" lon="5.83005">
        <ele>860</ele>
        <time>2019-06-15T08:46:15Z</time>
      </trkpt>
      <trkpt lat="44.48723" lon="5.83002">
        <ele>860</ele>
        <time>2019-06-15T08:46:16Z</time>
      </trkpt>
      <trkpt lat="44.48726" lon="5.83">
        <ele>861</ele>
        <time>2019-06-15T08:46:17Z</time>
      </trkpt>
      <trkpt lat="44.4873" lon="5.82997">
        <ele>861</ele>
        <time>2019-06-15T08:46:18Z</time>
      </trkpt>
      <trkpt lat="44.48734" lon="5.82994">
        <ele>861</ele>
        <time>2019-06-15T08:46:19Z</time>
      </trkpt>
      <trkpt lat="44.48737" lon="5.82991">
        <ele>861</ele>
        <time>2019-06-15T08:46:20Z</time>
      </trkpt>
      <trkpt lat="44.48741" lon="5.82988">
        <ele>862</ele>
        <time>2019-06-15T08:46:21Z</time>
      </trkpt>
      <trkpt lat="44.48744" lon="5.82985">
        <ele>862</ele>
        <time>2019-06-15T08:46:22Z</time>
      </trkpt>
      <trkpt lat="44.48748" lon="5.82982">
        <ele>862</ele>
        <time>2019-06-15T08:46:23Z</time>
      </trkpt>
      <trkpt lat="44.48751" lon="5.82979">
        <ele>862</ele>
        <time>2019-06-15T08:46:24Z</time>
      </trkpt>
      <trkpt lat="44.48755" lon="5.82977">
        <ele>862</ele>
        <time>2019-06-15T08:46:25Z</time>
      </trkpt>
      <trkpt lat="44.48758" lon="5.82974">
        <ele>863</ele>
        <time>2019-06-15T08:46:26Z</time>
      </trkpt>
      <trkpt lat="44.48761" lon="5.82971">
        <ele>863</ele>
        <time>2019-06-15T08:46:27Z</time>
      </trkpt>
      <trkpt lat="44.48765" lon="5.82969">
        <ele>863</ele>
        <time>2019-06-15T08:46:28Z</time>
      </trkpt>
      <trkpt lat="44.48769" lon="5.82966">
        <ele>863</ele>
        <time>2019-06-15T08:46:29Z</time>
      </trkpt>
      <trkpt lat="44.48772" lon="5.82964">
        <ele>863</ele>
        <time>2019-06-15T08:46:30Z</time>
      </trkpt>
      <trkpt lat="44.48775" lon="5.82962">
        <ele>863</ele>
        <time>2019-06-15T08:46:31Z</time>
      </trkpt>
      <trkpt lat="44.48779" lon="5.82961">
        <ele>864</ele>
        <time>2019-06-15T08:46:32Z</time>
      </trkpt>
      <trkpt lat="44.48782" lon="5.82959">
        <ele>864</ele>
        <time>2019-06-15T08:46:33Z</time>
      </trkpt>
      <trkpt lat="44.48786" lon="5.82958">
        <ele>864</ele>
        <time>2019-06-15T08:46:34Z</time>
      </trkpt>
      <trkpt lat="44.4879" lon="5.82957">
        <ele>864</ele>
        <time>2019-06-15T08:46:35Z</time>
      </trkpt>
      <trkpt lat="44.48794" lon="5.82957">
        <ele>865</ele>
        <time>2019-06-15T08:46:36Z</time>
      </trkpt>
      <trkpt lat="44.48798" lon="5.82957">
        <ele>865</ele>
        <time>2019-06-15T08:46:37Z</time>
      </trkpt>
      <trkpt lat="44.48801" lon="5.82959">
        <ele>866</ele>
        <time>2019-06-15T08:46:38Z</time>
      </trkpt>
      <trkpt lat="44.48805" lon="5.8296">
        <ele>866</ele>
        <time>2019-06-15T08:46:39Z</time>
      </trkpt>
      <trkpt lat="44.48808" lon="5.82962">
        <ele>867</ele>
        <time>2019-06-15T08:46:40Z</time>
      </trkpt>
      <trkpt lat="44.48811" lon="5.82964">
        <ele>867</ele>
        <time>2019-06-15T08:46:41Z</time>
      </trkpt>
      <trkpt lat="44.48814" lon="5.82966">
        <ele>867</ele>
        <time>2019-06-15T08:46:42Z</time>
      </trkpt>
      <trkpt lat="44.48816" lon="5.82969">
        <ele>867</ele>
        <time>2019-06-15T08:46:43Z</time>
      </trkpt>
      <trkpt lat="44.48819" lon="5.82971">
        <ele>868</ele>
        <time>2019-06-15T08:46:44Z</time>
      </trkpt>
      <trkpt lat="44.48822" lon="5.82974">
        <ele>868</ele>
        <time>2019-06-15T08:46:45Z</time>
      </trkpt>
      <trkpt lat="44.48824" lon="5.82977">
        <ele>868</ele>
        <time>2019-06-15T08:46:46Z</time>
      </trkpt>
      <trkpt lat="44.48826" lon="5.8298">
        <ele>868</ele>
        <time>2019-06-15T08:46:47Z</time>
      </trkpt>
      <trkpt lat="44.48828" lon="5.82984">
        <ele>869</ele>
        <time>2019-06-15T08:46:48Z</time>
      </trkpt>
      <trkpt lat="44.4883" lon="5.82987">
        <ele>869</ele>
        <time>2019-06-15T08:46:49Z</time>
      </trkpt>
      <trkpt lat="44.48833" lon="5.8299">
        <ele>869</ele>
        <time>2019-06-15T08:46:50Z</time>
      </trkpt>
      <trkpt lat="44.48835" lon="5.82992">
        <ele>869</ele>
        <time>2019-06-15T08:46:51Z</time>
      </trkpt>
      <trkpt lat="44.48837" lon="5.82995">
        <ele>869</ele>
        <time>2019-06-15T08:46:52Z</time>
      </trkpt>
      <trkpt lat="44.48839" lon="5.82997">
        <ele>869</ele>
        <time>2019-06-15T08:46:53Z</time>
      </trkpt>
      <trkpt lat="44.48842" lon="5.83">
        <ele>870</ele>
        <time>2019-06-15T08:46:54Z</time>
      </trkpt>
      <trkpt lat="44.48844" lon="5.83002">
        <ele>870</ele>
        <time>2019-06-15T08:46:55Z</time>
      </trkpt>
      <trkpt lat="44.48847" lon="5.83005">
        <ele>870</ele>
        <time>2019-06-15T08:46:56Z</time>
      </trkpt>
      <trkpt lat="44.48849" lon="5.83007">
        <ele>870</ele>
        <time>2019-06-15T08:46:57Z</time>
      </trkpt>
      <trkpt lat="44.48851" lon="5.8301">
        <ele>871</ele>
        <time>2019-06-15T08:46:58Z</time>
      </trkpt>
      <trkpt lat="44.48854" lon="5.83012">
        <ele>871</ele>
        <time>2019-06-15T08:46:59Z</time>
      </trkpt>
      <trkpt lat="44.48856" lon="5.83014">
        <ele>871</ele>
        <time>2019-06-15T08:47:00Z</time>
      </trkpt>
      <trkpt lat="44.4886" lon="5.83016">
        <ele>871</ele>
        <time>2019-06-15T08:47:01Z</time>
      </trkpt>
      <trkpt lat="44.48863" lon="5.83019">
        <ele>871</ele>
        <time>2019-06-15T08:47:02Z</time>
      </trkpt>
      <trkpt lat="44.48867" lon="5.83022">
        <ele>871</ele>
        <time>2019-06-15T08:47:03Z</time>
      </trkpt>
      <trkpt lat="44.4887" lon="5.83024">
        <ele>871</ele>
        <time>2019-06-15T08:47:04Z</time>
      </trkpt>
      <trkpt lat="44.48875" lon="5.83026">
        <ele>871</ele>
        <time>2019-06-15T08:47:05Z</time>
      </trkpt>
      <trkpt lat="44.48879" lon="5.83028">
        <ele>872</ele>
        <time>2019-06-15T08:47:06Z</time>
      </trkpt>
      <trkpt lat="44.48883" lon="5.8303">
        <ele>872</ele>
        <time>2019-06-15T08:47:07Z</time>
      </trkpt>
      <trkpt lat="44.48886" lon="5.83031">
        <ele>872</ele>
        <time>2019-06-15T08:47:08Z</time>
      </trkpt>
      <trkpt lat="44.48891" lon="5.83033">
        <ele>872</ele>
        <time>2019-06-15T08:47:09Z</time>
      </trkpt>
      <trkpt lat="44.48894" lon="5.83034">
        <ele>872</ele>
        <time>2019-06-15T08:47:10Z</time>
      </trkpt>
      <trkpt lat="44.48898" lon="5.83035">
        <ele>872</ele>
        <time>2019-06-15T08:47:11Z</time>
      </trkpt>
      <trkpt lat="44.48902" lon="5.83036">
        <ele>873</ele>
        <time>2019-06-15T08:47:12Z</time>
      </trkpt>
      <trkpt lat="44.48906" lon="5.83037">
        <ele>873</ele>
        <time>2019-06-15T08:47:13Z</time>
      </trkpt>
      <trkpt lat="44.48909" lon="5.83038">
        <ele>873</ele>
        <time>2019-06-15T08:47:14Z</time>
      </trkpt>
      <trkpt lat="44.48913" lon="5.83039">
        <ele>873</ele>
        <time>2019-06-15T08:47:15Z</time>
      </trkpt>
      <trkpt lat="44.48917" lon="5.83039">
        <ele>874</ele>
        <time>2019-06-15T08:47:16Z</time>
      </trkpt>
      <trkpt lat="44.48921" lon="5.8304">
        <ele>874</ele>
        <time>2019-06-15T08:47:17Z</time>
      </trkpt>
      <trkpt lat="44.48925" lon="5.83041">
        <ele>874</ele>
        <time>2019-06-15T08:47:18Z</time>
      </trkpt>
      <trkpt lat="44.48928" lon="5.83041">
        <ele>874</ele>
        <time>2019-06-15T08:47:19Z</time>
      </trkpt>
      <trkpt lat="44.48933" lon="5.83041">
        <ele>874</ele>
        <time>2019-06-15T08:47:20Z</time>
      </trkpt>
      <trkpt lat="44.48937" lon="5.83041">
        <ele>874</ele>
        <time>2019-06-15T08:47:21Z</time>
      </trkpt>
      <trkpt lat="44.48941" lon="5.83041">
        <ele>875</ele>
        <time>2019-06-15T08:47:22Z</time>
      </trkpt>
      <trkpt lat="44.48945" lon="5.83041">
        <ele>875</ele>
        <time>2019-06-15T08:47:23Z</time>
      </trkpt>
      <trkpt lat="44.48949" lon="5.8304">
        <ele>875</ele>
        <time>2019-06-15T08:47:24Z</time>
      </trkpt>
      <trkpt lat="44.48952" lon="5.83039">
        <ele>875</ele>
        <time>2019-06-15T08:47:25Z</time>
      </trkpt>
      <trkpt lat="44.48956" lon="5.83038">
        <ele>875</ele>
        <time>2019-06-15T08:47:26Z</time>
      </trkpt>
      <trkpt lat="44.4896" lon="5.83037">
        <ele>875</ele>
        <time>2019-06-15T08:47:27Z</time>
      </trkpt>
      <trkpt lat="44.48964" lon="5.83035">
        <ele>875</ele>
        <time>2019-06-15T08:47:28Z</time>
      </trkpt>
      <trkpt lat="44.48968" lon="5.83034">
        <ele>875</ele>
        <time>2019-06-15T08:47:29Z</time>
      </trkpt>
      <trkpt lat="44.48972" lon="5.83032">
        <ele>875</ele>
        <time>2019-06-15T08:47:30Z</time>
      </trkpt>
      <trkpt lat="44.48977" lon="5.83029">
        <ele>875</ele>
        <time>2019-06-15T08:47:31Z</time>
      </trkpt>
      <trkpt lat="44.4898" lon="5.83027">
        <ele>875</ele>
        <time>2019-06-15T08:47:32Z</time>
      </trkpt>
      <trkpt lat="44.48985" lon="5.83024">
        <ele>875</ele>
        <time>2019-06-15T08:47:33Z</time>
      </trkpt>
      <trkpt lat="44.48989" lon="5.83021">
        <ele>875</ele>
        <time>2019-06-15T08:47:34Z</time>
      </trkpt>
      <trkpt lat="44.48993" lon="5.83019">
        <ele>875</ele>
        <time>2019-06-15T08:47:35Z</time>
      </trkpt>
      <trkpt lat="44.48997" lon="5.83016">
        <ele>875</ele>
        <time>2019-06-15T08:47:36Z</time>
      </trkpt>
      <trkpt lat="44.49002" lon="5.83014">
        <ele>875</ele>
        <time>2019-06-15T08:47:37Z</time>
      </trkpt>
      <trkpt lat="44.49007" lon="5.83012">
        <ele>875</ele>
        <time>2019-06-15T08:47:38Z</time>
      </trkpt>
      <trkpt lat="44.49012" lon="5.8301">
        <ele>875</ele>
        <time>2019-06-15T08:47:39Z</time>
      </trkpt>
      <trkpt lat="44.49017" lon="5.83009">
        <ele>875</ele>
        <time>2019-06-15T08:47:40Z</time>
      </trkpt>
      <trkpt lat="44.49022" lon="5.83008">
        <ele>875</ele>
        <time>2019-06-15T08:47:41Z</time>
      </trkpt>
      <trkpt lat="44.49026" lon="5.83008">
        <ele>875</ele>
        <time>2019-06-15T08:47:42Z</time>
      </trkpt>
      <trkpt lat="44.49031" lon="5.83008">
        <ele>875</ele>
        <time>2019-06-15T08:47:43Z</time>
      </trkpt>
      <trkpt lat="44.49036" lon="5.83008">
        <ele>875</ele>
        <time>2019-06-15T08:47:44Z</time>
      </trkpt>
      <trkpt lat="44.49041" lon="5.83008">
        <ele>875</ele>
        <time>2019-06-15T08:47:45Z</time>
      </trkpt>
      <trkpt lat="44.49046" lon="5.83008">
        <ele>875</ele>
        <time>2019-06-15T08:47:46Z</time>
      </trkpt>
      <trkpt lat="44.4905" lon="5.83008">
        <ele>875</ele>
        <time>2019-06-15T08:47:47Z</time>
      </trkpt>
      <trkpt lat="44.49055" lon="5.83008">
        <ele>875</ele>
        <time>2019-06-15T08:47:48Z</time>
      </trkpt>
      <trkpt lat="44.49059" lon="5.83008">
        <ele>876</ele>
        <time>2019-06-15T08:47:49Z</time>
      </trkpt>
      <trkpt lat="44.49064" lon="5.83007">
        <ele>876</ele>
        <time>2019-06-15T08:47:50Z</time>
      </trkpt>
      <trkpt lat="44.49068" lon="5.83007">
        <ele>876</ele>
        <time>2019-06-15T08:47:51Z</time>
      </trkpt>
      <trkpt lat="44.49073" lon="5.83007">
        <ele>876</ele>
        <time>2019-06-15T08:47:52Z</time>
      </trkpt>
      <trkpt lat="44.49078" lon="5.83007">
        <ele>876</ele>
        <time>2019-06-15T08:47:53Z</time>
      </trkpt>
      <trkpt lat="44.49083" lon="5.83006">
        <ele>876</ele>
        <time>2019-06-15T08:47:54Z</time>
      </trkpt>
      <trkpt lat="44.49089" lon="5.83006">
        <ele>876</ele>
        <time>2019-06-15T08:47:55Z</time>
      </trkpt>
      <trkpt lat="44.49094" lon="5.83005">
        <ele>876</ele>
        <time>2019-06-15T08:47:56Z</time>
      </trkpt>
      <trkpt lat="44.491" lon="5.83004">
        <ele>876</ele>
        <time>2019-06-15T08:47:57Z</time>
      </trkpt>
      <trkpt lat="44.49105" lon="5.83001">
        <ele>876</ele>
        <time>2019-06-15T08:47:58Z</time>
      </trkpt>
      <trkpt lat="44.49111" lon="5.82999">
        <ele>876</ele>
        <time>2019-06-15T08:47:59Z</time>
      </trkpt>
      <trkpt lat="44.49117" lon="5.82997">
        <ele>876</ele>
        <time>2019-06-15T08:48:00Z</time>
      </trkpt>
      <trkpt lat="44.49122" lon="5.82995">
        <ele>876</ele>
        <time>2019-06-15T08:48:01Z</time>
      </trkpt>
      <trkpt lat="44.49128" lon="5.82993">
        <ele>876</ele>
        <time>2019-06-15T08:48:02Z</time>
      </trkpt>
      <trkpt lat="44.49134" lon="5.8299">
        <ele>876</ele>
        <time>2019-06-15T08:48:03Z</time>
      </trkpt>
      <trkpt lat="44.4914" lon="5.82986">
        <ele>876</ele>
        <time>2019-06-15T08:48:04Z</time>
      </trkpt>
      <trkpt lat="44.49146" lon="5.82983">
        <ele>876</ele>
        <time>2019-06-15T08:48:05Z</time>
      </trkpt>
      <trkpt lat="44.49152" lon="5.82979">
        <ele>876</ele>
        <time>2019-06-15T08:48:06Z</time>
      </trkpt>
      <trkpt lat="44.49159" lon="5.82977">
        <ele>876</ele>
        <time>2019-06-15T08:48:07Z</time>
      </trkpt>
      <trkpt lat="44.49165" lon="5.82977">
        <ele>876</ele>
        <time>2019-06-15T08:48:08Z</time>
      </trkpt>
      <trkpt lat="44.4917" lon="5.82981">
        <ele>876</ele>
        <time>2019-06-15T08:48:09Z</time>
      </trkpt>
      <trkpt lat="44.49174" lon="5.82987">
        <ele>876</ele>
        <time>2019-06-15T08:48:10Z</time>
      </trkpt>
      <trkpt lat="44.49175" lon="5.82994">
        <ele>876</ele>
        <time>2019-06-15T08:48:11Z</time>
      </trkpt>
      <trkpt lat="44.49174" lon="5.83001">
        <ele>876</ele>
        <time>2019-06-15T08:48:12Z</time>
      </trkpt>
      <trkpt lat="44.49173" lon="5.83008">
        <ele>876</ele>
        <time>2019-06-15T08:48:13Z</time>
      </trkpt>
      <trkpt lat="44.49171" lon="5.83014">
        <ele>876</ele>
        <time>2019-06-15T08:48:14Z</time>
      </trkpt>
      <trkpt lat="44.49168" lon="5.83021">
        <ele>876</ele>
        <time>2019-06-15T08:48:15Z</time>
      </trkpt>
      <trkpt lat="44.49166" lon="5.83028">
        <ele>876</ele>
        <time>2019-06-15T08:48:16Z</time>
      </trkpt>
      <trkpt lat="44.49164" lon="5.83034">
        <ele>876</ele>
        <time>2019-06-15T08:48:17Z</time>
      </trkpt>
      <trkpt lat="44.49162" lon="5.8304">
        <ele>876</ele>
        <time>2019-06-15T08:48:18Z</time>
      </trkpt>
      <trkpt lat="44.4916" lon="5.83046">
        <ele>876</ele>
        <time>2019-06-15T08:48:19Z</time>
      </trkpt>
      <trkpt lat="44.49157" lon="5.83052">
        <ele>876</ele>
        <time>2019-06-15T08:48:20Z</time>
      </trkpt>
      <trkpt lat="44.49156" lon="5.83059">
        <ele>876</ele>
        <time>2019-06-15T08:48:21Z</time>
      </trkpt>
      <trkpt lat="44.49154" lon="5.83065">
        <ele>876</ele>
        <time>2019-06-15T08:48:22Z</time>
      </trkpt>
      <trkpt lat="44.49152" lon="5.8307">
        <ele>876</ele>
        <time>2019-06-15T08:48:23Z</time>
      </trkpt>
      <trkpt lat="44.4915" lon="5.83076">
        <ele>876</ele>
        <time>2019-06-15T08:48:24Z</time>
      </trkpt>
      <trkpt lat="44.49148" lon="5.83081">
        <ele>876</ele>
        <time>2019-06-15T08:48:25Z</time>
      </trkpt>
      <trkpt lat="44.49147" lon="5.83086">
        <ele>876</ele>
        <time>2019-06-15T08:48:26Z</time>
      </trkpt>
      <trkpt lat="44.49145" lon="5.83091">
        <ele>876</ele>
        <time>2019-06-15T08:48:27Z</time>
      </trkpt>
      <trkpt lat="44.49144" lon="5.83097">
        <ele>876</ele>
        <time>2019-06-15T08:48:28Z</time>
      </trkpt>
      <trkpt lat="44.49144" lon="5.83102">
        <ele>876</ele>
        <time>2019-06-15T08:48:29Z</time>
      </trkpt>
      <trkpt lat="44.49143" lon="5.83107">
        <ele>876</ele>
        <time>2019-06-15T08:48:30Z</time>
      </trkpt>
      <trkpt lat="44.49143" lon="5.83112">
        <ele>877</ele>
        <time>2019-06-15T08:48:31Z</time>
      </trkpt>
      <trkpt lat="44.49143" lon="5.83117">
        <ele>877</ele>
        <time>2019-06-15T08:48:32Z</time>
      </trkpt>
      <trkpt lat="44.49143" lon="5.83122">
        <ele>878</ele>
        <time>2019-06-15T08:48:33Z</time>
      </trkpt>
      <trkpt lat="44.49144" lon="5.83127">
        <ele>878</ele>
        <time>2019-06-15T08:48:34Z</time>
      </trkpt>
      <trkpt lat="44.49146" lon="5.83132">
        <ele>879</ele>
        <time>2019-06-15T08:48:35Z</time>
      </trkpt>
      <trkpt lat="44.49147" lon="5.83137">
        <ele>879</ele>
        <time>2019-06-15T08:48:36Z</time>
      </trkpt>
      <trkpt lat="44.4915" lon="5.83142">
        <ele>879</ele>
        <time>2019-06-15T08:48:37Z</time>
      </trkpt>
      <trkpt lat="44.49152" lon="5.83147">
        <ele>880</ele>
        <time>2019-06-15T08:48:38Z</time>
      </trkpt>
      <trkpt lat="44.49154" lon="5.83152">
        <ele>880</ele>
        <time>2019-06-15T08:48:39Z</time>
      </trkpt>
      <trkpt lat="44.49157" lon="5.83156">
        <ele>880</ele>
        <time>2019-06-15T08:48:40Z</time>
      </trkpt>
      <trkpt lat="44.4916" lon="5.83161">
        <ele>880</ele>
        <time>2019-06-15T08:48:41Z</time>
      </trkpt>
      <trkpt lat="44.49163" lon="5.83165">
        <ele>881</ele>
        <time>2019-06-15T08:48:42Z</time>
      </trkpt>
      <trkpt lat="44.49165" lon="5.8317">
        <ele>881</ele>
        <time>2019-06-15T08:48:43Z</time>
      </trkpt>
      <trkpt lat="44.49168" lon="5.83174">
        <ele>881</ele>
        <time>2019-06-15T08:48:44Z</time>
      </trkpt>
      <trkpt lat="44.49171" lon="5.83178">
        <ele>882</ele>
        <time>2019-06-15T08:48:45Z</time>
      </trkpt>
      <trkpt lat="44.49174" lon="5.83182">
        <ele>882</ele>
        <time>2019-06-15T08:48:46Z</time>
      </trkpt>
      <trkpt lat="44.49176" lon="5.83187">
        <ele>883</ele>
        <time>2019-06-15T08:48:47Z</time>
      </trkpt>
      <trkpt lat="44.4918" lon="5.83191">
        <ele>883</ele>
        <time>2019-06-15T08:48:48Z</time>
      </trkpt>
      <trkpt lat="44.49182" lon="5.83196">
        <ele>883</ele>
        <time>2019-06-15T08:48:49Z</time>
      </trkpt>
      <trkpt lat="44.49185" lon="5.832">
        <ele>883</ele>
        <time>2019-06-15T08:48:50Z</time>
      </trkpt>
      <trkpt lat="44.49188" lon="5.83204">
        <ele>884</ele>
        <time>2019-06-15T08:48:51Z</time>
      </trkpt>
      <trkpt lat="44.49191" lon="5.83208">
        <ele>884</ele>
        <time>2019-06-15T08:48:52Z</time>
      </trkpt>
      <trkpt lat="44.49193" lon="5.83213">
        <ele>884</ele>
        <time>2019-06-15T08:48:53Z</time>
      </trkpt>
      <trkpt lat="44.49196" lon="5.83217">
        <ele>884</ele>
        <time>2019-06-15T08:48:54Z</time>
      </trkpt>
      <trkpt lat="44.49198" lon="5.83221">
        <ele>885</ele>
        <time>2019-06-15T08:48:55Z</time>
      </trkpt>
      <trkpt lat="44.49201" lon="5.83226">
        <ele>885</ele>
        <time>2019-06-15T08:48:56Z</time>
      </trkpt>
      <trkpt lat="44.49204" lon="5.8323">
        <ele>885</ele>
        <time>2019-06-15T08:48:57Z</time>
      </trkpt>
      <trkpt lat="44.49207" lon="5.83234">
        <ele>886</ele>
        <time>2019-06-15T08:48:58Z</time>
      </trkpt>
      <trkpt lat="44.49209" lon="5.83239">
        <ele>886</ele>
        <time>2019-06-15T08:48:59Z</time>
      </trkpt>
      <trkpt lat="44.49212" lon="5.83243">
        <ele>887</ele>
        <time>2019-06-15T08:49:00Z</time>
      </trkpt>
      <trkpt lat="44.49215" lon="5.83247">
        <ele>887</ele>
        <time>2019-06-15T08:49:01Z</time>
      </trkpt>
      <trkpt lat="44.49217" lon="5.83252">
        <ele>888</ele>
        <time>2019-06-15T08:49:02Z</time>
      </trkpt>
      <trkpt lat="44.4922" lon="5.83256">
        <ele>888</ele>
        <time>2019-06-15T08:49:03Z</time>
      </trkpt>
      <trkpt lat="44.49223" lon="5.8326">
        <ele>888</ele>
        <time>2019-06-15T08:49:04Z</time>
      </trkpt>
      <trkpt lat="44.49225" lon="5.83264">
        <ele>889</ele>
        <time>2019-06-15T08:49:05Z</time>
      </trkpt>
      <trkpt lat="44.49227" lon="5.83268">
        <ele>889</ele>
        <time>2019-06-15T08:49:06Z</time>
      </trkpt>
      <trkpt lat="44.49229" lon="5.83272">
        <ele>889</ele>
        <time>2019-06-15T08:49:07Z</time>
      </trkpt>
      <trkpt lat="44.49232" lon="5.83276">
        <ele>889</ele>
        <time>2019-06-15T08:49:08Z</time>
      </trkpt>
      <trkpt lat="44.49234" lon="5.8328">
        <ele>889</ele>
        <time>2019-06-15T08:49:09Z</time>
      </trkpt>
      <trkpt lat="44.49236" lon="5.83284">
        <ele>890</ele>
        <time>2019-06-15T08:49:10Z</time>
      </trkpt>
      <trkpt lat="44.49238" lon="5.83287">
        <ele>890</ele>
        <time>2019-06-15T08:49:11Z</time>
      </trkpt>
      <trkpt lat="44.4924" lon="5.83291">
        <ele>890</ele>
        <time>2019-06-15T08:49:12Z</time>
      </trkpt>
      <trkpt lat="44.49242" lon="5.83295">
        <ele>890</ele>
        <time>2019-06-15T08:49:13Z</time>
      </trkpt>
      <trkpt lat="44.49245" lon="5.83299">
        <ele>890</ele>
        <time>2019-06-15T08:49:14Z</time>
      </trkpt>
      <trkpt lat="44.49246" lon="5.83303">
        <ele>891</ele>
        <time>2019-06-15T08:49:15Z</time>
      </trkpt>
      <trkpt lat="44.49248" lon="5.83308">
        <ele>891</ele>
        <time>2019-06-15T08:49:16Z</time>
      </trkpt>
      <trkpt lat="44.49249" lon="5.83313">
        <ele>891</ele>
        <time>2019-06-15T08:49:17Z</time>
      </trkpt>
      <trkpt lat="44.4925" lon="5.83318">
        <ele>891</ele>
        <time>2019-06-15T08:49:18Z</time>
      </trkpt>
      <trkpt lat="44.49252" lon="5.83323">
        <ele>891</ele>
        <time>2019-06-15T08:49:19Z</time>
      </trkpt>
      <trkpt lat="44.49252" lon="5.83328">
        <ele>891</ele>
        <time>2019-06-15T08:49:20Z</time>
      </trkpt>
      <trkpt lat="44.49253" lon="5.83334">
        <ele>892</ele>
        <time>2019-06-15T08:49:21Z</time>
      </trkpt>
      <trkpt lat="44.49254" lon="5.83339">
        <ele>892</ele>
        <time>2019-06-15T08:49:22Z</time>
      </trkpt>
      <trkpt lat="44.49254" lon="5.83345">
        <ele>892</ele>
        <time>2019-06-15T08:49:23Z</time>
      </trkpt>
      <trkpt lat="44.49254" lon="5.83351">
        <ele>892</ele>
        <time>2019-06-15T08:49:24Z</time>
      </trkpt>
      <trkpt lat="44.49255" lon="5.83356">
        <ele>892</ele>
        <time>2019-06-15T08:49:25Z</time>
      </trkpt>
      <trkpt lat="44.49255" lon="5.83362">
        <ele>892</ele>
        <time>2019-06-15T08:49:26Z</time>
      </trkpt>
      <trkpt lat="44.49255" lon="5.83368">
        <ele>893</ele>
        <time>2019-06-15T08:49:27Z</time>
      </trkpt>
      <trkpt lat="44.49255" lon="5.83374">
        <ele>893</ele>
        <time>2019-06-15T08:49:28Z</time>
      </trkpt>
      <trkpt lat="44.49255" lon="5.8338">
        <ele>893</ele>
        <time>2019-06-15T08:49:29Z</time>
      </trkpt>
      <trkpt lat="44.49255" lon="5.83386">
        <ele>893</ele>
        <time>2019-06-15T08:49:30Z</time>
      </trkpt>
      <trkpt lat="44.49256" lon="5.83392">
        <ele>893</ele>
        <time>2019-06-15T08:49:31Z</time>
      </trkpt>
      <trkpt lat="44.49256" lon="5.83397">
        <ele>893</ele>
        <time>2019-06-15T08:49:32Z</time>
      </trkpt>
      <trkpt lat="44.49256" lon="5.83403">
        <ele>893</ele>
        <time>2019-06-15T08:49:33Z</time>
      </trkpt>
      <trkpt lat="44.49256" lon="5.83409">
        <ele>893</ele>
        <time>2019-06-15T08:49:34Z</time>
      </trkpt>
      <trkpt lat="44.49256" lon="5.83415">
        <ele>893</ele>
        <time>2019-06-15T08:49:35Z</time>
      </trkpt>
      <trkpt lat="44.49256" lon="5.8342">
        <ele>893</ele>
        <time>2019-06-15T08:49:36Z</time>
      </trkpt>
      <trkpt lat="44.49256" lon="5.83426">
        <ele>893</ele>
        <time>2019-06-15T08:49:37Z</time>
      </trkpt>
      <trkpt lat="44.49256" lon="5.83432">
        <ele>893</ele>
        <time>2019-06-15T08:49:38Z</time>
      </trkpt>
      <trkpt lat="44.49256" lon="5.83438">
        <ele>893</ele>
        <time>2019-06-15T08:49:39Z</time>
      </trkpt>
      <trkpt lat="44.49257" lon="5.83444">
        <ele>893</ele>
        <time>2019-06-15T08:49:40Z</time>
      </trkpt>
      <trkpt lat="44.49257" lon="5.83451">
        <ele>893</ele>
        <time>2019-06-15T08:49:41Z</time>
      </trkpt>
      <trkpt lat="44.49258" lon="5.83457">
        <ele>893</ele>
        <time>2019-06-15T08:49:42Z</time>
      </trkpt>
      <trkpt lat="44.49258" lon="5.83464">
        <ele>893</ele>
        <time>2019-06-15T08:49:43Z</time>
      </trkpt>
      <trkpt lat="44.49258" lon="5.83471">
        <ele>893</ele>
        <time>2019-06-15T08:49:44Z</time>
      </trkpt>
      <trkpt lat="44.49259" lon="5.83478">
        <ele>893</ele>
        <time>2019-06-15T08:49:45Z</time>
      </trkpt>
      <trkpt lat="44.49259" lon="5.83486">
        <ele>893</ele>
        <time>2019-06-15T08:49:46Z</time>
      </trkpt>
      <trkpt lat="44.4926" lon="5.83493">
        <ele>893</ele>
        <time>2019-06-15T08:49:47Z</time>
      </trkpt>
      <trkpt lat="44.49261" lon="5.83499">
        <ele>893</ele>
        <time>2019-06-15T08:49:48Z</time>
      </trkpt>
      <trkpt lat="44.49263" lon="5.83507">
        <ele>893</ele>
        <time>2019-06-15T08:49:49Z</time>
      </trkpt>
      <trkpt lat="44.49264" lon="5.83514">
        <ele>893</ele>
        <time>2019-06-15T08:49:50Z</time>
      </trkpt>
      <trkpt lat="44.49265" lon="5.83521">
        <ele>893</ele>
        <time>2019-06-15T08:49:51Z</time>
      </trkpt>
      <trkpt lat="44.49266" lon="5.83529">
        <ele>893</ele>
        <time>2019-06-15T08:49:52Z</time>
      </trkpt>
      <trkpt lat="44.49268" lon="5.83536">
        <ele>893</ele>
        <time>2019-06-15T08:49:53Z</time>
      </trkpt>
      <trkpt lat="44.49269" lon="5.83544">
        <ele>893</ele>
        <time>2019-06-15T08:49:54Z</time>
      </trkpt>
      <trkpt lat="44.49271" lon="5.83552">
        <ele>893</ele>
        <time>2019-06-15T08:49:55Z</time>
      </trkpt>
      <trkpt lat="44.49273" lon="5.8356">
        <ele>893</ele>
        <time>2019-06-15T08:49:56Z</time>
      </trkpt>
      <trkpt lat="44.49274" lon="5.83567">
        <ele>893</ele>
        <time>2019-06-15T08:49:57Z</time>
      </trkpt>
      <trkpt lat="44.49276" lon="5.83575">
        <ele>893</ele>
        <time>2019-06-15T08:49:58Z</time>
      </trkpt>
      <trkpt lat="44.49277" lon="5.83582">
        <ele>893</ele>
        <time>2019-06-15T08:49:59Z</time>
      </trkpt>
      <trkpt lat="44.49279" lon="5.83589">
        <ele>893</ele>
        <time>2019-06-15T08:50:00Z</time>
      </trkpt>
      <trkpt lat="44.4928" lon="5.83597">
        <ele>893</ele>
        <time>2019-06-15T08:50:01Z</time>
      </trkpt>
      <trkpt lat="44.49281" lon="5.83603">
        <ele>893</ele>
        <time>2019-06-15T08:50:02Z</time>
      </trkpt>
      <trkpt lat="44.49283" lon="5.8361">
        <ele>893</ele>
        <time>2019-06-15T08:50:03Z</time>
      </trkpt>
      <trkpt lat="44.49284" lon="5.83616">
        <ele>893</ele>
        <time>2019-06-15T08:50:04Z</time>
      </trkpt>
      <trkpt lat="44.49286" lon="5.83623">
        <ele>893</ele>
        <time>2019-06-15T08:50:05Z</time>
      </trkpt>
      <trkpt lat="44.49287" lon="5.83629">
        <ele>894</ele>
        <time>2019-06-15T08:50:06Z</time>
      </trkpt>
      <trkpt lat="44.49288" lon="5.83635">
        <ele>894</ele>
        <time>2019-06-15T08:50:07Z</time>
      </trkpt>
      <trkpt lat="44.4929" lon="5.8364">
        <ele>894</ele>
        <time>2019-06-15T08:50:08Z</time>
      </trkpt>
      <trkpt lat="44.49291" lon="5.83646">
        <ele>894</ele>
        <time>2019-06-15T08:50:09Z</time>
      </trkpt>
      <trkpt lat="44.49292" lon="5.83651">
        <ele>895</ele>
        <time>2019-06-15T08:50:10Z</time>
      </trkpt>
      <trkpt lat="44.49293" lon="5.83657">
        <ele>895</ele>
        <time>2019-06-15T08:50:11Z</time>
      </trkpt>
      <trkpt lat="44.49294" lon="5.83663">
        <ele>895</ele>
        <time>2019-06-15T08:50:12Z</time>
      </trkpt>
      <trkpt lat="44.49295" lon="5.83668">
        <ele>895</ele>
        <time>2019-06-15T08:50:13Z</time>
      </trkpt>
      <trkpt lat="44.49297" lon="5.83673">
        <ele>895</ele>
        <time>2019-06-15T08:50:14Z</time>
      </trkpt>
      <trkpt lat="44.49298" lon="5.83678">
        <ele>895</ele>
        <time>2019-06-15T08:50:15Z</time>
      </trkpt>
      <trkpt lat="44.49299" lon="5.83683">
        <ele>896</ele>
        <time>2019-06-15T08:50:16Z</time>
      </trkpt>
      <trkpt lat="44.493" lon="5.83688">
        <ele>896</ele>
        <time>2019-06-15T08:50:17Z</time>
      </trkpt>
      <trkpt lat="44.49301" lon="5.83693">
        <ele>896</ele>
        <time>2019-06-15T08:50:18Z</time>
      </trkpt>
      <trkpt lat="44.49302" lon="5.83697">
        <ele>897</ele>
        <time>2019-06-15T08:50:19Z</time>
      </trkpt>
      <trkpt lat="44.49303" lon="5.83702">
        <ele>897</ele>
        <time>2019-06-15T08:50:20Z</time>
      </trkpt>
      <trkpt lat="44.49303" lon="5.83706">
        <ele>897</ele>
        <time>2019-06-15T08:50:21Z</time>
      </trkpt>
      <trkpt lat="44.49305" lon="5.83711">
        <ele>897</ele>
        <time>2019-06-15T08:50:22Z</time>
      </trkpt>
      <trkpt lat="44.49306" lon="5.83716">
        <ele>898</ele>
        <time>2019-06-15T08:50:23Z</time>
      </trkpt>
      <trkpt lat="44.49307" lon="5.8372">
        <ele>898</ele>
        <time>2019-06-15T08:50:24Z</time>
      </trkpt>
      <trkpt lat="44.49308" lon="5.83725">
        <ele>898</ele>
        <time>2019-06-15T08:50:25Z</time>
      </trkpt>
      <trkpt lat="44.49309" lon="5.8373">
        <ele>898</ele>
        <time>2019-06-15T08:50:26Z</time>
      </trkpt>
      <trkpt lat="44.4931" lon="5.83734">
        <ele>898</ele>
        <time>2019-06-15T08:50:27Z</time>
      </trkpt>
      <trkpt lat="44.49311" lon="5.83738">
        <ele>898</ele>
        <time>2019-06-15T08:50:28Z</time>
      </trkpt>
      <trkpt lat="44.49312" lon="5.83743">
        <ele>899</ele>
        <time>2019-06-15T08:50:29Z</time>
      </trkpt>
      <trkpt lat="44.49313" lon="5.83747">
        <ele>899</ele>
        <time>2019-06-15T08:50:30Z</time>
      </trkpt>
      <trkpt lat="44.49314" lon="5.8375">
        <ele>899</ele>
        <time>2019-06-15T08:50:31Z</time>
      </trkpt>
      <trkpt lat="44.49315" lon="5.83754">
        <ele>899</ele>
        <time>2019-06-15T08:50:32Z</time>
      </trkpt>
      <trkpt lat="44.49316" lon="5.83758">
        <ele>899</ele>
        <time>2019-06-15T08:50:33Z</time>
      </trkpt>
      <trkpt lat="44.49317" lon="5.83762">
        <ele>899</ele>
        <time>2019-06-15T08:50:34Z</time>
      </trkpt>
      <trkpt lat="44.49318" lon="5.83766">
        <ele>899</ele>
        <time>2019-06-15T08:50:35Z</time>
      </trkpt>
      <trkpt lat="44.49319" lon="5.8377">
        <ele>899</ele>
        <time>2019-06-15T08:50:36Z</time>
      </trkpt>
      <trkpt lat="44.4932" lon="5.83773">
        <ele>900</ele>
        <time>2019-06-15T08:50:37Z</time>
      </trkpt>
      <trkpt lat="44.49321" lon="5.83777">
        <ele>900</ele>
        <time>2019-06-15T08:50:38Z</time>
      </trkpt>
      <trkpt lat="44.49321" lon="5.83781">
        <ele>900</ele>
        <time>2019-06-15T08:50:39Z</time>
      </trkpt>
      <trkpt lat="44.49323" lon="5.83784">
        <ele>900</ele>
        <time>2019-06-15T08:50:40Z</time>
      </trkpt>
      <trkpt lat="44.49323" lon="5.83788">
        <ele>901</ele>
        <time>2019-06-15T08:50:41Z</time>
      </trkpt>
      <trkpt lat="44.49324" lon="5.83792">
        <ele>901</ele>
        <time>2019-06-15T08:50:42Z</time>
      </trkpt>
      <trkpt lat="44.49325" lon="5.83795">
        <ele>901</ele>
        <time>2019-06-15T08:50:43Z</time>
      </trkpt>
      <trkpt lat="44.49326" lon="5.83799">
        <ele>901</ele>
        <time>2019-06-15T08:50:44Z</time>
      </trkpt>
      <trkpt lat="44.49327" lon="5.83802">
        <ele>902</ele>
        <time>2019-06-15T08:50:45Z</time>
      </trkpt>
      <trkpt lat="44.49329" lon="5.83805">
        <ele>902</ele>
        <time>2019-06-15T08:50:46Z</time>
      </trkpt>
      <trkpt lat="44.4933" lon="5.83809">
        <ele>902</ele>
        <time>2019-06-15T08:50:47Z</time>
      </trkpt>
      <trkpt lat="44.49331" lon="5.83812">
        <ele>903</ele>
        <time>2019-06-15T08:50:48Z</time>
      </trkpt>
      <trkpt lat="44.49331" lon="5.83816">
        <ele>903</ele>
        <time>2019-06-15T08:50:49Z</time>
      </trkpt>
      <trkpt lat="44.49332" lon="5.83819">
        <ele>903</ele>
        <time>2019-06-15T08:50:50Z</time>
      </trkpt>
      <trkpt lat="44.49332" lon="5.83823">
        <ele>903</ele>
        <time>2019-06-15T08:50:51Z</time>
      </trkpt>
      <trkpt lat="44.49333" lon="5.83826">
        <ele>903</ele>
        <time>2019-06-15T08:50:52Z</time>
      </trkpt>
      <trkpt lat="44.49334" lon="5.8383">
        <ele>903</ele>
        <time>2019-06-15T08:50:53Z</time>
      </trkpt>
      <trkpt lat="44.49335" lon="5.83833">
        <ele>904</ele>
        <time>2019-06-15T08:50:54Z</time>
      </trkpt>
      <trkpt lat="44.49336" lon="5.83836">
        <ele>904</ele>
        <time>2019-06-15T08:50:55Z</time>
      </trkpt>
      <trkpt lat="44.49337" lon="5.83839">
        <ele>904</ele>
        <time>2019-06-15T08:50:56Z</time>
      </trkpt>
      <trkpt lat="44.49337" lon="5.83843">
        <ele>904</ele>
        <time>2019-06-15T08:50:57Z</time>
      </trkpt>
      <trkpt lat="44.49338" lon="5.83846">
        <ele>904</ele>
        <time>2019-06-15T08:50:58Z</time>
      </trkpt>
      <trkpt lat="44.49339" lon="5.83849">
        <ele>905</ele>
        <time>2019-06-15T08:50:59Z</time>
      </trkpt>
      <trkpt lat="44.4934" lon="5.83852">
        <ele>905</ele>
        <time>2019-06-15T08:51:00Z</time>
      </trkpt>
      <trkpt lat="44.49341" lon="5.83855">
        <ele>905</ele>
        <time>2019-06-15T08:51:01Z</time>
      </trkpt>
      <trkpt lat="44.49342" lon="5.83858">
        <ele>906</ele>
        <time>2019-06-15T08:51:02Z</time>
      </trkpt>
      <trkpt lat="44.49343" lon="5.83861">
        <ele>906</ele>
        <time>2019-06-15T08:51:03Z</time>
      </trkpt>
      <trkpt lat="44.49344" lon="5.83864">
        <ele>906</ele>
        <time>2019-06-15T08:51:04Z</time>
      </trkpt>
      <trkpt lat="44.49345" lon="5.83868">
        <ele>906</ele>
        <time>2019-06-15T08:51:05Z</time>
      </trkpt>
      <trkpt lat="44.49345" lon="5.83872">
        <ele>907</ele>
        <time>2019-06-15T08:51:06Z</time>
      </trkpt>
      <trkpt lat="44.49347" lon="5.83876">
        <ele>907</ele>
        <time>2019-06-15T08:51:07Z</time>
      </trkpt>
      <trkpt lat="44.49348" lon="5.8388">
        <ele>907</ele>
        <time>2019-06-15T08:51:08Z</time>
      </trkpt>
      <trkpt lat="44.49349" lon="5.83884">
        <ele>908</ele>
        <time>2019-06-15T08:51:09Z</time>
      </trkpt>
      <trkpt lat="44.49351" lon="5.83888">
        <ele>908</ele>
        <time>2019-06-15T08:51:10Z</time>
      </trkpt>
      <trkpt lat="44.49352" lon="5.83892">
        <ele>908</ele>
        <time>2019-06-15T08:51:11Z</time>
      </trkpt>
      <trkpt lat="44.49353" lon="5.83896">
        <ele>909</ele>
        <time>2019-06-15T08:51:12Z</time>
      </trkpt>
      <trkpt lat="44.49354" lon="5.839">
        <ele>909</ele>
        <time>2019-06-15T08:51:13Z</time>
      </trkpt>
      <trkpt lat="44.49355" lon="5.83904">
        <ele>909</ele>
        <time>2019-06-15T08:51:14Z</time>
      </trkpt>
      <trkpt lat="44.49356" lon="5.83908">
        <ele>909</ele>
        <time>2019-06-15T08:51:15Z</time>
      </trkpt>
      <trkpt lat="44.49358" lon="5.83911">
        <ele>909</ele>
        <time>2019-06-15T08:51:16Z</time>
      </trkpt>
      <trkpt lat="44.49359" lon="5.83915">
        <ele>909</ele>
        <time>2019-06-15T08:51:17Z</time>
      </trkpt>
      <trkpt lat="44.4936" lon="5.83919">
        <ele>910</ele>
        <time>2019-06-15T08:51:18Z</time>
      </trkpt>
      <trkpt lat="44.49362" lon="5.83923">
        <ele>910</ele>
        <time>2019-06-15T08:51:19Z</time>
      </trkpt>
      <trkpt lat="44.49363" lon="5.83927">
        <ele>910</ele>
        <time>2019-06-15T08:51:20Z</time>
      </trkpt>
      <trkpt lat="44.49365" lon="5.83931">
        <ele>910</ele>
        <time>2019-06-15T08:51:21Z</time>
      </trkpt>
      <trkpt lat="44.49367" lon="5.83935">
        <ele>910</ele>
        <time>2019-06-15T08:51:22Z</time>
      </trkpt>
      <trkpt lat="44.49369" lon="5.8394">
        <ele>910</ele>
        <time>2019-06-15T08:51:23Z</time>
      </trkpt>
      <trkpt lat="44.4937" lon="5.83944">
        <ele>911</ele>
        <time>2019-06-15T08:51:24Z</time>
      </trkpt>
      <trkpt lat="44.49372" lon="5.83948">
        <ele>911</ele>
        <time>2019-06-15T08:51:25Z</time>
      </trkpt>
      <trkpt lat="44.49373" lon="5.83952">
        <ele>911</ele>
        <time>2019-06-15T08:51:26Z</time>
      </trkpt>
      <trkpt lat="44.49375" lon="5.83956">
        <ele>911</ele>
        <time>2019-06-15T08:51:27Z</time>
      </trkpt>
      <trkpt lat="44.49376" lon="5.8396">
        <ele>911</ele>
        <time>2019-06-15T08:51:28Z</time>
      </trkpt>
      <trkpt lat="44.49378" lon="5.83964">
        <ele>911</ele>
        <time>2019-06-15T08:51:29Z</time>
      </trkpt>
      <trkpt lat="44.4938" lon="5.83968">
        <ele>912</ele>
        <time>2019-06-15T08:51:30Z</time>
      </trkpt>
      <trkpt lat="44.49381" lon="5.83973">
        <ele>912</ele>
        <time>2019-06-15T08:51:31Z</time>
      </trkpt>
      <trkpt lat="44.49383" lon="5.83977">
        <ele>912</ele>
        <time>2019-06-15T08:51:32Z</time>
      </trkpt>
      <trkpt lat="44.49385" lon="5.83981">
        <ele>912</ele>
        <time>2019-06-15T08:51:33Z</time>
      </trkpt>
      <trkpt lat="44.49387" lon="5.83985">
        <ele>912</ele>
        <time>2019-06-15T08:51:34Z</time>
      </trkpt>
      <trkpt lat="44.49388" lon="5.83989">
        <ele>913</ele>
        <time>2019-06-15T08:51:35Z</time>
      </trkpt>
      <trkpt lat="44.4939" lon="5.83993">
        <ele>913</ele>
        <time>2019-06-15T08:51:36Z</time>
      </trkpt>
      <trkpt lat="44.49392" lon="5.83997">
        <ele>913</ele>
        <time>2019-06-15T08:51:37Z</time>
      </trkpt>
      <trkpt lat="44.49393" lon="5.84001">
        <ele>913</ele>
        <time>2019-06-15T08:51:38Z</time>
      </trkpt>
      <trkpt lat="44.49395" lon="5.84005">
        <ele>913</ele>
        <time>2019-06-15T08:51:39Z</time>
      </trkpt>
      <trkpt lat="44.49397" lon="5.8401">
        <ele>913</ele>
        <time>2019-06-15T08:51:40Z</time>
      </trkpt>
      <trkpt lat="44.49399" lon="5.84014">
        <ele>914</ele>
        <time>2019-06-15T08:51:41Z</time>
      </trkpt>
      <trkpt lat="44.494" lon="5.84018">
        <ele>914</ele>
        <time>2019-06-15T08:51:42Z</time>
      </trkpt>
      <trkpt lat="44.49402" lon="5.84022">
        <ele>914</ele>
        <time>2019-06-15T08:51:43Z</time>
      </trkpt>
      <trkpt lat="44.49404" lon="5.84026">
        <ele>914</ele>
        <time>2019-06-15T08:51:44Z</time>
      </trkpt>
      <trkpt lat="44.49406" lon="5.84031">
        <ele>914</ele>
        <time>2019-06-15T08:51:45Z</time>
      </trkpt>
      <trkpt lat="44.49408" lon="5.84036">
        <ele>914</ele>
        <time>2019-06-15T08:51:46Z</time>
      </trkpt>
      <trkpt lat="44.49409" lon="5.8404">
        <ele>914</ele>
        <time>2019-06-15T08:51:47Z</time>
      </trkpt>
      <trkpt lat="44.49411" lon="5.84045">
        <ele>914</ele>
        <time>2019-06-15T08:51:48Z</time>
      </trkpt>
      <trkpt lat="44.49413" lon="5.8405">
        <ele>914</ele>
        <time>2019-06-15T08:51:49Z</time>
      </trkpt>
      <trkpt lat="44.49415" lon="5.84054">
        <ele>914</ele>
        <time>2019-06-15T08:51:50Z</time>
      </trkpt>
      <trkpt lat="44.49417" lon="5.84058">
        <ele>915</ele>
        <time>2019-06-15T08:51:51Z</time>
      </trkpt>
      <trkpt lat="44.4942" lon="5.84063">
        <ele>915</ele>
        <time>2019-06-15T08:51:52Z</time>
      </trkpt>
      <trkpt lat="44.49422" lon="5.84067">
        <ele>915</ele>
        <time>2019-06-15T08:51:53Z</time>
      </trkpt>
      <trkpt lat="44.49424" lon="5.84071">
        <ele>915</ele>
        <time>2019-06-15T08:51:54Z</time>
      </trkpt>
      <trkpt lat="44.49427" lon="5.84076">
        <ele>915</ele>
        <time>2019-06-15T08:51:55Z</time>
      </trkpt>
      <trkpt lat="44.49429" lon="5.8408">
        <ele>915</ele>
        <time>2019-06-15T08:51:56Z</time>
      </trkpt>
      <trkpt lat="44.49431" lon="5.84085">
        <ele>915</ele>
        <time>2019-06-15T08:51:57Z</time>
      </trkpt>
      <trkpt lat="44.49434" lon="5.84089">
        <ele>916</ele>
        <time>2019-06-15T08:51:58Z</time>
      </trkpt>
      <trkpt lat="44.49436" lon="5.84094">
        <ele>916</ele>
        <time>2019-06-15T08:51:59Z</time>
      </trkpt>
      <trkpt lat="44.49439" lon="5.84098">
        <ele>916</ele>
        <time>2019-06-15T08:52:00Z</time>
      </trkpt>
      <trkpt lat="44.49441" lon="5.84102">
        <ele>916</ele>
        <time>2019-06-15T08:52:01Z</time>
      </trkpt>
      <trkpt lat="44.49443" lon="5.84107">
        <ele>916</ele>
        <time>2019-06-15T08:52:02Z</time>
      </trkpt>
      <trkpt lat="44.49446" lon="5.84112">
        <ele>916</ele>
        <time>2019-06-15T08:52:03Z</time>
      </trkpt>
      <trkpt lat="44.49448" lon="5.84117">
        <ele>916</ele>
        <time>2019-06-15T08:52:04Z</time>
      </trkpt>
      <trkpt lat="44.49451" lon="5.84122">
        <ele>916</ele>
        <time>2019-06-15T08:52:05Z</time>
      </trkpt>
      <trkpt lat="44.49453" lon="5.84127">
        <ele>916</ele>
        <time>2019-06-15T08:52:06Z</time>
      </trkpt>
      <trkpt lat="44.49455" lon="5.84132">
        <ele>916</ele>
        <time>2019-06-15T08:52:07Z</time>
      </trkpt>
      <trkpt lat="44.49457" lon="5.84137">
        <ele>916</ele>
        <time>2019-06-15T08:52:08Z</time>
      </trkpt>
      <trkpt lat="44.49459" lon="5.84143">
        <ele>916</ele>
        <time>2019-06-15T08:52:09Z</time>
      </trkpt>
      <trkpt lat="44.49461" lon="5.84148">
        <ele>917</ele>
        <time>2019-06-15T08:52:10Z</time>
      </trkpt>
      <trkpt lat="44.49463" lon="5.84153">
        <ele>917</ele>
        <time>2019-06-15T08:52:11Z</time>
      </trkpt>
      <trkpt lat="44.49465" lon="5.84158">
        <ele>917</ele>
        <time>2019-06-15T08:52:12Z</time>
      </trkpt>
      <trkpt lat="44.49467" lon="5.84163">
        <ele>917</ele>
        <time>2019-06-15T08:52:13Z</time>
      </trkpt>
      <trkpt lat="44.4947" lon="5.84168">
        <ele>917</ele>
        <time>2019-06-15T08:52:14Z</time>
      </trkpt>
      <trkpt lat="44.49472" lon="5.84173">
        <ele>917</ele>
        <time>2019-06-15T08:52:15Z</time>
      </trkpt>
      <trkpt lat="44.49474" lon="5.84178">
        <ele>917</ele>
        <time>2019-06-15T08:52:16Z</time>
      </trkpt>
      <trkpt lat="44.49476" lon="5.84183">
        <ele>917</ele>
        <time>2019-06-15T08:52:17Z</time>
      </trkpt>
      <trkpt lat="44.49478" lon="5.84188">
        <ele>917</ele>
        <time>2019-06-15T08:52:18Z</time>
      </trkpt>
      <trkpt lat="44.49481" lon="5.84193">
        <ele>918</ele>
        <time>2019-06-15T08:52:19Z</time>
      </trkpt>
      <trkpt lat="44.49483" lon="5.84198">
        <ele>918</ele>
        <time>2019-06-15T08:52:20Z</time>
      </trkpt>
      <trkpt lat="44.49485" lon="5.84203">
        <ele>918</ele>
        <time>2019-06-15T08:52:21Z</time>
      </trkpt>
      <trkpt lat="44.49488" lon="5.84208">
        <ele>918</ele>
        <time>2019-06-15T08:52:22Z</time>
      </trkpt>
      <trkpt lat="44.49491" lon="5.84213">
        <ele>918</ele>
        <time>2019-06-15T08:52:23Z</time>
      </trkpt>
      <trkpt lat="44.49493" lon="5.84218">
        <ele>918</ele>
        <time>2019-06-15T08:52:24Z</time>
      </trkpt>
      <trkpt lat="44.49496" lon="5.84223">
        <ele>919</ele>
        <time>2019-06-15T08:52:25Z</time>
      </trkpt>
      <trkpt lat="44.495" lon="5.84227">
        <ele>919</ele>
        <time>2019-06-15T08:52:26Z</time>
      </trkpt>
      <trkpt lat="44.49503" lon="5.84232">
        <ele>919</ele>
        <time>2019-06-15T08:52:27Z</time>
      </trkpt>
      <trkpt lat="44.49506" lon="5.84236">
        <ele>919</ele>
        <time>2019-06-15T08:52:28Z</time>
      </trkpt>
      <trkpt lat="44.49509" lon="5.84241">
        <ele>919</ele>
        <time>2019-06-15T08:52:29Z</time>
      </trkpt>
      <trkpt lat="44.49512" lon="5.84245">
        <ele>919</ele>
        <time>2019-06-15T08:52:30Z</time>
      </trkpt>
      <trkpt lat="44.49515" lon="5.84249">
        <ele>919</ele>
        <time>2019-06-15T08:52:31Z</time>
      </trkpt>
      <trkpt lat="44.49518" lon="5.84254">
        <ele>920</ele>
        <time>2019-06-15T08:52:32Z</time>
      </trkpt>
      <trkpt lat="44.49521" lon="5.84259">
        <ele>920</ele>
        <time>2019-06-15T08:52:33Z</time>
      </trkpt>
      <trkpt lat="44.49524" lon="5.84264">
        <ele>920</ele>
        <time>2019-06-15T08:52:34Z</time>
      </trkpt>
      <trkpt lat="44.49527" lon="5.8427">
        <ele>920</ele>
        <time>2019-06-15T08:52:35Z</time>
      </trkpt>
      <trkpt lat="44.49529" lon="5.84277">
        <ele>920</ele>
        <time>2019-06-15T08:52:36Z</time>
      </trkpt>
      <trkpt lat="44.4953" lon="5.84284">
        <ele>920</ele>
        <time>2019-06-15T08:52:37Z</time>
      </trkpt>
      <trkpt lat="44.49531" lon="5.84292">
        <ele>920</ele>
        <time>2019-06-15T08:52:38Z</time>
      </trkpt>
      <trkpt lat="44.49532" lon="5.843">
        <ele>920</ele>
        <time>2019-06-15T08:52:39Z</time>
      </trkpt>
      <trkpt lat="44.49532" lon="5.84307">
        <ele>921</ele>
        <time>2019-06-15T08:52:40Z</time>
      </trkpt>
      <trkpt lat="44.49531" lon="5.84315">
        <ele>921</ele>
        <time>2019-06-15T08:52:41Z</time>
      </trkpt>
      <trkpt lat="44.49529" lon="5.84323">
        <ele>921</ele>
        <time>2019-06-15T08:52:42Z</time>
      </trkpt>
      <trkpt lat="44.49527" lon="5.84331">
        <ele>921</ele>
        <time>2019-06-15T08:52:43Z</time>
      </trkpt>
      <trkpt lat="44.49525" lon="5.84338">
        <ele>921</ele>
        <time>2019-06-15T08:52:44Z</time>
      </trkpt>
      <trkpt lat="44.49522" lon="5.84345">
        <ele>921</ele>
        <time>2019-06-15T08:52:45Z</time>
      </trkpt>
      <trkpt lat="44.49519" lon="5.84352">
        <ele>921</ele>
        <time>2019-06-15T08:52:46Z</time>
      </trkpt>
      <trkpt lat="44.49517" lon="5.8436">
        <ele>921</ele>
        <time>2019-06-15T08:52:47Z</time>
      </trkpt>
      <trkpt lat="44.49515" lon="5.84367">
        <ele>921</ele>
        <time>2019-06-15T08:52:48Z</time>
      </trkpt>
      <trkpt lat="44.49513" lon="5.84375">
        <ele>921</ele>
        <time>2019-06-15T08:52:49Z</time>
      </trkpt>
      <trkpt lat="44.49511" lon="5.84382">
        <ele>921</ele>
        <time>2019-06-15T08:52:50Z</time>
      </trkpt>
      <trkpt lat="44.4951" lon="5.84389">
        <ele>921</ele>
        <time>2019-06-15T08:52:51Z</time>
      </trkpt>
      <trkpt lat="44.49509" lon="5.84397">
        <ele>921</ele>
        <time>2019-06-15T08:52:52Z</time>
      </trkpt>
      <trkpt lat="44.49508" lon="5.84405">
        <ele>921</ele>
        <time>2019-06-15T08:52:53Z</time>
      </trkpt>
      <trkpt lat="44.49507" lon="5.84413">
        <ele>921</ele>
        <time>2019-06-15T08:52:54Z</time>
      </trkpt>
      <trkpt lat="44.49506" lon="5.84421">
        <ele>921</ele>
        <time>2019-06-15T08:52:55Z</time>
      </trkpt>
      <trkpt lat="44.49506" lon="5.84429">
        <ele>921</ele>
        <time>2019-06-15T08:52:56Z</time>
      </trkpt>
      <trkpt lat="44.49506" lon="5.84437">
        <ele>921</ele>
        <time>2019-06-15T08:52:57Z</time>
      </trkpt>
      <trkpt lat="44.49506" lon="5.84444">
        <ele>921</ele>
        <time>2019-06-15T08:52:58Z</time>
      </trkpt>
      <trkpt lat="44.49506" lon="5.84452">
        <ele>921</ele>
        <time>2019-06-15T08:52:59Z</time>
      </trkpt>
      <trkpt lat="44.49506" lon="5.84459">
        <ele>921</ele>
        <time>2019-06-15T08:53:00Z</time>
      </trkpt>
      <trkpt lat="44.49507" lon="5.84467">
        <ele>921</ele>
        <time>2019-06-15T08:53:01Z</time>
      </trkpt>
      <trkpt lat="44.49508" lon="5.84473">
        <ele>921</ele>
        <time>2019-06-15T08:53:02Z</time>
      </trkpt>
      <trkpt lat="44.49509" lon="5.8448">
        <ele>922</ele>
        <time>2019-06-15T08:53:03Z</time>
      </trkpt>
      <trkpt lat="44.4951" lon="5.84486">
        <ele>922</ele>
        <time>2019-06-15T08:53:04Z</time>
      </trkpt>
      <trkpt lat="44.49512" lon="5.84491">
        <ele>922</ele>
        <time>2019-06-15T08:53:05Z</time>
      </trkpt>
      <trkpt lat="44.49514" lon="5.84497">
        <ele>923</ele>
        <time>2019-06-15T08:53:06Z</time>
      </trkpt>
      <trkpt lat="44.49517" lon="5.84502">
        <ele>923</ele>
        <time>2019-06-15T08:53:07Z</time>
      </trkpt>
      <trkpt lat="44.49519" lon="5.84506">
        <ele>924</ele>
        <time>2019-06-15T08:53:08Z</time>
      </trkpt>
      <trkpt lat="44.49522" lon="5.8451">
        <ele>924</ele>
        <time>2019-06-15T08:53:09Z</time>
      </trkpt>
      <trkpt lat="44.49525" lon="5.84514">
        <ele>925</ele>
        <time>2019-06-15T08:53:10Z</time>
      </trkpt>
      <trkpt lat="44.49528" lon="5.84519">
        <ele>926</ele>
        <time>2019-06-15T08:53:11Z</time>
      </trkpt>
      <trkpt lat="44.49531" lon="5.84522">
        <ele>926</ele>
        <time>2019-06-15T08:53:12Z</time>
      </trkpt>
      <trkpt lat="44.49535" lon="5.84524">
        <ele>927</ele>
        <time>2019-06-15T08:53:13Z</time>
      </trkpt>
      <trkpt lat="44.49538" lon="5.84525">
        <ele>928</ele>
        <time>2019-06-15T08:53:14Z</time>
      </trkpt>
      <trkpt lat="44.49541" lon="5.84525">
        <ele>928</ele>
        <time>2019-06-15T08:53:15Z</time>
      </trkpt>
      <trkpt lat="44.49544" lon="5.84526">
        <ele>928</ele>
        <time>2019-06-15T08:53:16Z</time>
      </trkpt>
      <trkpt lat="44.49546" lon="5.84528">
        <ele>929</ele>
        <time>2019-06-15T08:53:17Z</time>
      </trkpt>
      <trkpt lat="44.49549" lon="5.84531">
        <ele>930</ele>
        <time>2019-06-15T08:53:18Z</time>
      </trkpt>
      <trkpt lat="44.49551" lon="5.84534">
        <ele>930</ele>
        <time>2019-06-15T08:53:19Z</time>
      </trkpt>
      <trkpt lat="44.49551" lon="5.84536">
        <ele>931</ele>
        <time>2019-06-15T08:53:20Z</time>
      </trkpt>
      <trkpt lat="44.49552" lon="5.84539">
        <ele>932</ele>
        <time>2019-06-15T08:53:21Z</time>
      </trkpt>
      <trkpt lat="44.49553" lon="5.84541">
        <ele>932</ele>
        <time>2019-06-15T08:53:22Z</time>
      </trkpt>
      <trkpt lat="44.49554" lon="5.84544">
        <ele>932</ele>
        <time>2019-06-15T08:53:23Z</time>
      </trkpt>
      <trkpt lat="44.49555" lon="5.84546">
        <ele>932</ele>
        <time>2019-06-15T08:53:24Z</time>
      </trkpt>
      <trkpt lat="44.49556" lon="5.84548">
        <ele>932</ele>
        <time>2019-06-15T08:53:25Z</time>
      </trkpt>
      <trkpt lat="44.49558" lon="5.84551">
        <ele>932</ele>
        <time>2019-06-15T08:53:26Z</time>
      </trkpt>
      <trkpt lat="44.49558" lon="5.84553">
        <ele>933</ele>
        <time>2019-06-15T08:53:27Z</time>
      </trkpt>
      <trkpt lat="44.49559" lon="5.84556">
        <ele>933</ele>
        <time>2019-06-15T08:53:28Z</time>
      </trkpt>
      <trkpt lat="44.49559" lon="5.84559">
        <ele>934</ele>
        <time>2019-06-15T08:53:29Z</time>
      </trkpt>
      <trkpt lat="44.4956" lon="5.84562">
        <ele>934</ele>
        <time>2019-06-15T08:53:30Z</time>
      </trkpt>
      <trkpt lat="44.49561" lon="5.84565">
        <ele>934</ele>
        <time>2019-06-15T08:53:31Z</time>
      </trkpt>
      <trkpt lat="44.49562" lon="5.84567">
        <ele>935</ele>
        <time>2019-06-15T08:53:32Z</time>
      </trkpt>
      <trkpt lat="44.49562" lon="5.8457">
        <ele>935</ele>
        <time>2019-06-15T08:53:33Z</time>
      </trkpt>
      <trkpt lat="44.49563" lon="5.84573">
        <ele>935</ele>
        <time>2019-06-15T08:53:34Z</time>
      </trkpt>
      <trkpt lat="44.49563" lon="5.84576">
        <ele>935</ele>
        <time>2019-06-15T08:53:35Z</time>
      </trkpt>
      <trkpt lat="44.49564" lon="5.84578">
        <ele>935</ele>
        <time>2019-06-15T08:53:36Z</time>
      </trkpt>
      <trkpt lat="44.49565" lon="5.84581">
        <ele>935</ele>
        <time>2019-06-15T08:53:37Z</time>
      </trkpt>
      <trkpt lat="44.49566" lon="5.84584">
        <ele>935</ele>
        <time>2019-06-15T08:53:38Z</time>
      </trkpt>
      <trkpt lat="44.49567" lon="5.84587">
        <ele>935</ele>
        <time>2019-06-15T08:53:39Z</time>
      </trkpt>
      <trkpt lat="44.49567" lon="5.8459">
        <ele>935</ele>
        <time>2019-06-15T08:53:40Z</time>
      </trkpt>
      <trkpt lat="44.49568" lon="5.84592">
        <ele>935</ele>
        <time>2019-06-15T08:53:41Z</time>
      </trkpt>
      <trkpt lat="44.49569" lon="5.84595">
        <ele>935</ele>
        <time>2019-06-15T08:53:42Z</time>
      </trkpt>
      <trkpt lat="44.4957" lon="5.84597">
        <ele>935</ele>
        <time>2019-06-15T08:53:43Z</time>
      </trkpt>
      <trkpt lat="44.4957" lon="5.846">
        <ele>936</ele>
        <time>2019-06-15T08:53:44Z</time>
      </trkpt>
      <trkpt lat="44.49571" lon="5.84603">
        <ele>936</ele>
        <time>2019-06-15T08:53:45Z</time>
      </trkpt>
      <trkpt lat="44.49572" lon="5.84605">
        <ele>936</ele>
        <time>2019-06-15T08:53:46Z</time>
      </trkpt>
      <trkpt lat="44.49572" lon="5.84608">
        <ele>936</ele>
        <time>2019-06-15T08:53:47Z</time>
      </trkpt>
      <trkpt lat="44.49572" lon="5.8461">
        <ele>937</ele>
        <time>2019-06-15T08:53:48Z</time>
      </trkpt>
      <trkpt lat="44.49573" lon="5.84613">
        <ele>937</ele>
        <time>2019-06-15T08:53:49Z</time>
      </trkpt>
      <trkpt lat="44.49573" lon="5.84615">
        <ele>937</ele>
        <time>2019-06-15T08:53:50Z</time>
      </trkpt>
      <trkpt lat="44.49574" lon="5.84617">
        <ele>937</ele>
        <time>2019-06-15T08:53:51Z</time>
      </trkpt>
      <trkpt lat="44.49575" lon="5.8462">
        <ele>937</ele>
        <time>2019-06-15T08:53:52Z</time>
      </trkpt>
      <trkpt lat="44.49575" lon="5.84622">
        <ele>937</ele>
        <time>2019-06-15T08:53:53Z</time>
      </trkpt>
      <trkpt lat="44.49575" lon="5.84625">
        <ele>937</ele>
        <time>2019-06-15T08:53:54Z</time>
      </trkpt>
      <trkpt lat="44.49576" lon="5.84628">
        <ele>937</ele>
        <time>2019-06-15T08:53:55Z</time>
      </trkpt>
      <trkpt lat="44.49577" lon="5.8463">
        <ele>937</ele>
        <time>2019-06-15T08:53:56Z</time>
      </trkpt>
      <trkpt lat="44.49578" lon="5.84633">
        <ele>937</ele>
        <time>2019-06-15T08:53:57Z</time>
      </trkpt>
      <trkpt lat="44.49578" lon="5.84635">
        <ele>937</ele>
        <time>2019-06-15T08:53:58Z</time>
      </trkpt>
      <trkpt lat="44.49579" lon="5.84638">
        <ele>937</ele>
        <time>2019-06-15T08:53:59Z</time>
      </trkpt>
      <trkpt lat="44.4958" lon="5.8464">
        <ele>937</ele>
        <time>2019-06-15T08:54:00Z</time>
      </trkpt>
      <trkpt lat="44.49581" lon="5.84643">
        <ele>937</ele>
        <time>2019-06-15T08:54:01Z</time>
      </trkpt>
      <trkpt lat="44.49582" lon="5.84645">
        <ele>938</ele>
        <time>2019-06-15T08:54:02Z</time>
      </trkpt>
      <trkpt lat="44.49583" lon="5.84647">
        <ele>938</ele>
        <time>2019-06-15T08:54:03Z</time>
      </trkpt>
      <trkpt lat="44.49583" lon="5.84649">
        <ele>938</ele>
        <time>2019-06-15T08:54:04Z</time>
      </trkpt>
      <trkpt lat="44.49584" lon="5.84651">
        <ele>938</ele>
        <time>2019-06-15T08:54:05Z</time>
      </trkpt>
      <trkpt lat="44.49584" lon="5.84653">
        <ele>939</ele>
        <time>2019-06-15T08:54:06Z</time>
      </trkpt>
      <trkpt lat="44.49585" lon="5.84655">
        <ele>939</ele>
        <time>2019-06-15T08:54:07Z</time>
      </trkpt>
      <trkpt lat="44.49585" lon="5.84657">
        <ele>940</ele>
        <time>2019-06-15T08:54:08Z</time>
      </trkpt>
      <trkpt lat="44.49585" lon="5.84659">
        <ele>940</ele>
        <time>2019-06-15T08:54:09Z</time>
      </trkpt>
      <trkpt lat="44.49586" lon="5.8466">
        <ele>940</ele>
        <time>2019-06-15T08:54:10Z</time>
      </trkpt>
      <trkpt lat="44.49586" lon="5.84662">
        <ele>941</ele>
        <time>2019-06-15T08:54:11Z</time>
      </trkpt>
      <trkpt lat="44.49588" lon="5.84664">
        <ele>941</ele>
        <time>2019-06-15T08:54:13Z</time>
      </trkpt>
      <trkpt lat="44.4959" lon="5.84663">
        <ele>942</ele>
        <time>2019-06-15T08:54:15Z</time>
      </trkpt>
      <trkpt lat="44.49591" lon="5.84661">
        <ele>943</ele>
        <time>2019-06-15T08:54:16Z</time>
      </trkpt>
      <trkpt lat="44.49591" lon="5.84658">
        <ele>943</ele>
        <time>2019-06-15T08:54:17Z</time>
      </trkpt>
      <trkpt lat="44.4959" lon="5.84654">
        <ele>943</ele>
        <time>2019-06-15T08:54:18Z</time>
      </trkpt>
      <trkpt lat="44.49587" lon="5.8465">
        <ele>943</ele>
        <time>2019-06-15T08:54:19Z</time>
      </trkpt>
      <trkpt lat="44.49584" lon="5.84646">
        <ele>943</ele>
        <time>2019-06-15T08:54:20Z</time>
      </trkpt>
      <trkpt lat="44.49582" lon="5.84641">
        <ele>943</ele>
        <time>2019-06-15T08:54:21Z</time>
      </trkpt>
      <trkpt lat="44.4958" lon="5.84636">
        <ele>943</ele>
        <time>2019-06-15T08:54:22Z</time>
      </trkpt>
      <trkpt lat="44.49578" lon="5.84631">
        <ele>943</ele>
        <time>2019-06-15T08:54:23Z</time>
      </trkpt>
      <trkpt lat="44.49577" lon="5.84625">
        <ele>943</ele>
        <time>2019-06-15T08:54:24Z</time>
      </trkpt>
      <trkpt lat="44.49575" lon="5.8462">
        <ele>943</ele>
        <time>2019-06-15T08:54:25Z</time>
      </trkpt>
      <trkpt lat="44.49574" lon="5.84614">
        <ele>943</ele>
        <time>2019-06-15T08:54:26Z</time>
      </trkpt>
      <trkpt lat="44.49572" lon="5.84607">
        <ele>943</ele>
        <time>2019-06-15T08:54:27Z</time>
      </trkpt>
      <trkpt lat="44.4957" lon="5.846">
        <ele>943</ele>
        <time>2019-06-15T08:54:28Z</time>
      </trkpt>
      <trkpt lat="44.49568" lon="5.84592">
        <ele>943</ele>
        <time>2019-06-15T08:54:29Z</time>
      </trkpt>
      <trkpt lat="44.49566" lon="5.84584">
        <ele>943</ele>
        <time>2019-06-15T08:54:30Z</time>
      </trkpt>
      <trkpt lat="44.49564" lon="5.84577">
        <ele>943</ele>
        <time>2019-06-15T08:54:31Z</time>
      </trkpt>
      <trkpt lat="44.49561" lon="5.84569">
        <ele>942</ele>
        <time>2019-06-15T08:54:32Z</time>
      </trkpt>
      <trkpt lat="44.49558" lon="5.8456">
        <ele>941</ele>
        <time>2019-06-15T08:54:33Z</time>
      </trkpt>
      <trkpt lat="44.49556" lon="5.84553">
        <ele>940</ele>
        <time>2019-06-15T08:54:34Z</time>
      </trkpt>
      <trkpt lat="44.49554" lon="5.84547">
        <ele>939</ele>
        <time>2019-06-15T08:54:35Z</time>
      </trkpt>
      <trkpt lat="44.49553" lon="5.84541">
        <ele>938</ele>
        <time>2019-06-15T08:54:36Z</time>
      </trkpt>
      <trkpt lat="44.49554" lon="5.84536">
        <ele>937</ele>
        <time>2019-06-15T08:54:37Z</time>
      </trkpt>
      <trkpt lat="44.49556" lon="5.8453">
        <ele>937</ele>
        <time>2019-06-15T08:54:38Z</time>
      </trkpt>
      <trkpt lat="44.4956" lon="5.84526">
        <ele>936</ele>
        <time>2019-06-15T08:54:39Z</time>
      </trkpt>
      <trkpt lat="44.49565" lon="5.84523">
        <ele>936</ele>
        <time>2019-06-15T08:54:40Z</time>
      </trkpt>
      <trkpt lat="44.49572" lon="5.84519">
        <ele>935</ele>
        <time>2019-06-15T08:54:41Z</time>
      </trkpt>
      <trkpt lat="44.49577" lon="5.84515">
        <ele>935</ele>
        <time>2019-06-15T08:54:42Z</time>
      </trkpt>
      <trkpt lat="44.49584" lon="5.84512">
        <ele>934</ele>
        <time>2019-06-15T08:54:43Z</time>
      </trkpt>
      <trkpt lat="44.4959" lon="5.84508">
        <ele>933</ele>
        <time>2019-06-15T08:54:44Z</time>
      </trkpt>
      <trkpt lat="44.49595" lon="5.84503">
        <ele>933</ele>
        <time>2019-06-15T08:54:45Z</time>
      </trkpt>
      <trkpt lat="44.496" lon="5.84499">
        <ele>932</ele>
        <time>2019-06-15T08:54:46Z</time>
      </trkpt>
      <trkpt lat="44.49606" lon="5.84494">
        <ele>932</ele>
        <time>2019-06-15T08:54:47Z</time>
      </trkpt>
      <trkpt lat="44.49611" lon="5.84489">
        <ele>931</ele>
        <time>2019-06-15T08:54:48Z</time>
      </trkpt>
      <trkpt lat="44.49615" lon="5.84484">
        <ele>931</ele>
        <time>2019-06-15T08:54:49Z</time>
      </trkpt>
      <trkpt lat="44.4962" lon="5.8448">
        <ele>931</ele>
        <time>2019-06-15T08:54:50Z</time>
      </trkpt>
      <trkpt lat="44.49624" lon="5.84475">
        <ele>931</ele>
        <time>2019-06-15T08:54:51Z</time>
      </trkpt>
      <trkpt lat="44.49628" lon="5.8447">
        <ele>931</ele>
        <time>2019-06-15T08:54:52Z</time>
      </trkpt>
      <trkpt lat="44.49632" lon="5.84466">
        <ele>931</ele>
        <time>2019-06-15T08:54:53Z</time>
      </trkpt>
      <trkpt lat="44.49635" lon="5.84461">
        <ele>931</ele>
        <time>2019-06-15T08:54:54Z</time>
      </trkpt>
      <trkpt lat="44.49637" lon="5.84457">
        <ele>931</ele>
        <time>2019-06-15T08:54:55Z</time>
      </trkpt>
      <trkpt lat="44.49639" lon="5.84452">
        <ele>931</ele>
        <time>2019-06-15T08:54:56Z</time>
      </trkpt>
      <trkpt lat="44.49641" lon="5.84447">
        <ele>931</ele>
        <time>2019-06-15T08:54:57Z</time>
      </trkpt>
      <trkpt lat="44.49642" lon="5.84442">
        <ele>931</ele>
        <time>2019-06-15T08:54:58Z</time>
      </trkpt>
      <trkpt lat="44.49643" lon="5.84438">
        <ele>931</ele>
        <time>2019-06-15T08:54:59Z</time>
      </trkpt>
      <trkpt lat="44.49644" lon="5.84433">
        <ele>931</ele>
        <time>2019-06-15T08:55:00Z</time>
      </trkpt>
      <trkpt lat="44.49646" lon="5.84428">
        <ele>931</ele>
        <time>2019-06-15T08:55:01Z</time>
      </trkpt>
      <trkpt lat="44.49647" lon="5.84423">
        <ele>931</ele>
        <time>2019-06-15T08:55:02Z</time>
      </trkpt>
      <trkpt lat="44.49648" lon="5.84419">
        <ele>931</ele>
        <time>2019-06-15T08:55:03Z</time>
      </trkpt>
      <trkpt lat="44.4965" lon="5.84414">
        <ele>931</ele>
        <time>2019-06-15T08:55:04Z</time>
      </trkpt>
      <trkpt lat="44.49652" lon="5.8441">
        <ele>931</ele>
        <time>2019-06-15T08:55:05Z</time>
      </trkpt>
      <trkpt lat="44.49654" lon="5.84406">
        <ele>931</ele>
        <time>2019-06-15T08:55:06Z</time>
      </trkpt>
      <trkpt lat="44.49656" lon="5.84402">
        <ele>931</ele>
        <time>2019-06-15T08:55:07Z</time>
      </trkpt>
      <trkpt lat="44.49658" lon="5.84399">
        <ele>931</ele>
        <time>2019-06-15T08:55:08Z</time>
      </trkpt>
      <trkpt lat="44.49661" lon="5.84397">
        <ele>931</ele>
        <time>2019-06-15T08:55:09Z</time>
      </trkpt>
      <trkpt lat="44.49664" lon="5.84397">
        <ele>931</ele>
        <time>2019-06-15T08:55:10Z</time>
      </trkpt>
      <trkpt lat="44.49667" lon="5.84397">
        <ele>932</ele>
        <time>2019-06-15T08:55:11Z</time>
      </trkpt>
      <trkpt lat="44.4967" lon="5.84398">
        <ele>932</ele>
        <time>2019-06-15T08:55:12Z</time>
      </trkpt>
      <trkpt lat="44.49672" lon="5.844">
        <ele>932</ele>
        <time>2019-06-15T08:55:13Z</time>
      </trkpt>
      <trkpt lat="44.49674" lon="5.84402">
        <ele>932</ele>
        <time>2019-06-15T08:55:14Z</time>
      </trkpt>
      <trkpt lat="44.49677" lon="5.84405">
        <ele>933</ele>
        <time>2019-06-15T08:55:15Z</time>
      </trkpt>
      <trkpt lat="44.49679" lon="5.84407">
        <ele>933</ele>
        <time>2019-06-15T08:55:16Z</time>
      </trkpt>
      <trkpt lat="44.4968" lon="5.8441">
        <ele>933</ele>
        <time>2019-06-15T08:55:17Z</time>
      </trkpt>
      <trkpt lat="44.49682" lon="5.84413">
        <ele>934</ele>
        <time>2019-06-15T08:55:18Z</time>
      </trkpt>
      <trkpt lat="44.49683" lon="5.84416">
        <ele>934</ele>
        <time>2019-06-15T08:55:19Z</time>
      </trkpt>
      <trkpt lat="44.49686" lon="5.84419">
        <ele>934</ele>
        <time>2019-06-15T08:55:20Z</time>
      </trkpt>
      <trkpt lat="44.49688" lon="5.84423">
        <ele>935</ele>
        <time>2019-06-15T08:55:21Z</time>
      </trkpt>
      <trkpt lat="44.49689" lon="5.84426">
        <ele>935</ele>
        <time>2019-06-15T08:55:22Z</time>
      </trkpt>
      <trkpt lat="44.49691" lon="5.84429">
        <ele>935</ele>
        <time>2019-06-15T08:55:23Z</time>
      </trkpt>
      <trkpt lat="44.49693" lon="5.84431">
        <ele>935</ele>
        <time>2019-06-15T08:55:24Z</time>
      </trkpt>
      <trkpt lat="44.49695" lon="5.84434">
        <ele>936</ele>
        <time>2019-06-15T08:55:25Z</time>
      </trkpt>
      <trkpt lat="44.49697" lon="5.84436">
        <ele>936</ele>
        <time>2019-06-15T08:55:26Z</time>
      </trkpt>
      <trkpt lat="44.49699" lon="5.84438">
        <ele>936</ele>
        <time>2019-06-15T08:55:27Z</time>
      </trkpt>
      <trkpt lat="44.49701" lon="5.84441">
        <ele>937</ele>
        <time>2019-06-15T08:55:28Z</time>
      </trkpt>
      <trkpt lat="44.49703" lon="5.84443">
        <ele>937</ele>
        <time>2019-06-15T08:55:29Z</time>
      </trkpt>
      <trkpt lat="44.49705" lon="5.84446">
        <ele>937</ele>
        <time>2019-06-15T08:55:30Z</time>
      </trkpt>
      <trkpt lat="44.49706" lon="5.84449">
        <ele>937</ele>
        <time>2019-06-15T08:55:31Z</time>
      </trkpt>
      <trkpt lat="44.49708" lon="5.84452">
        <ele>937</ele>
        <time>2019-06-15T08:55:32Z</time>
      </trkpt>
      <trkpt lat="44.4971" lon="5.84455">
        <ele>937</ele>
        <time>2019-06-15T08:55:33Z</time>
      </trkpt>
      <trkpt lat="44.49711" lon="5.84458">
        <ele>938</ele>
        <time>2019-06-15T08:55:34Z</time>
      </trkpt>
      <trkpt lat="44.49713" lon="5.84461">
        <ele>938</ele>
        <time>2019-06-15T08:55:35Z</time>
      </trkpt>
      <trkpt lat="44.49715" lon="5.84463">
        <ele>938</ele>
        <time>2019-06-15T08:55:36Z</time>
      </trkpt>
      <trkpt lat="44.49717" lon="5.84466">
        <ele>938</ele>
        <time>2019-06-15T08:55:37Z</time>
      </trkpt>
      <trkpt lat="44.49719" lon="5.84468">
        <ele>938</ele>
        <time>2019-06-15T08:55:38Z</time>
      </trkpt>
      <trkpt lat="44.4972" lon="5.84471">
        <ele>939</ele>
        <time>2019-06-15T08:55:39Z</time>
      </trkpt>
      <trkpt lat="44.49722" lon="5.84474">
        <ele>939</ele>
        <time>2019-06-15T08:55:40Z</time>
      </trkpt>
      <trkpt lat="44.49724" lon="5.84477">
        <ele>939</ele>
        <time>2019-06-15T08:55:41Z</time>
      </trkpt>
      <trkpt lat="44.49725" lon="5.84479">
        <ele>939</ele>
        <time>2019-06-15T08:55:42Z</time>
      </trkpt>
      <trkpt lat="44.49727" lon="5.84482">
        <ele>940</ele>
        <time>2019-06-15T08:55:43Z</time>
      </trkpt>
      <trkpt lat="44.49729" lon="5.84484">
        <ele>940</ele>
        <time>2019-06-15T08:55:44Z</time>
      </trkpt>
      <trkpt lat="44.49731" lon="5.84487">
        <ele>940</ele>
        <time>2019-06-15T08:55:45Z</time>
      </trkpt>
      <trkpt lat="44.49732" lon="5.84489">
        <ele>940</ele>
        <time>2019-06-15T08:55:46Z</time>
      </trkpt>
      <trkpt lat="44.49734" lon="5.84492">
        <ele>940</ele>
        <time>2019-06-15T08:55:47Z</time>
      </trkpt>
      <trkpt lat="44.49736" lon="5.84494">
        <ele>941</ele>
        <time>2019-06-15T08:55:48Z</time>
      </trkpt>
      <trkpt lat="44.49738" lon="5.84497">
        <ele>941</ele>
        <time>2019-06-15T08:55:49Z</time>
      </trkpt>
      <trkpt lat="44.49739" lon="5.845">
        <ele>941</ele>
        <time>2019-06-15T08:55:50Z</time>
      </trkpt>
      <trkpt lat="44.49741" lon="5.84502">
        <ele>941</ele>
        <time>2019-06-15T08:55:51Z</time>
      </trkpt>
      <trkpt lat="44.49743" lon="5.84504">
        <ele>941</ele>
        <time>2019-06-15T08:55:52Z</time>
      </trkpt>
      <trkpt lat="44.49744" lon="5.84507">
        <ele>942</ele>
        <time>2019-06-15T08:55:53Z</time>
      </trkpt>
      <trkpt lat="44.49746" lon="5.84509">
        <ele>942</ele>
        <time>2019-06-15T08:55:54Z</time>
      </trkpt>
      <trkpt lat="44.49748" lon="5.84511">
        <ele>942</ele>
        <time>2019-06-15T08:55:55Z</time>
      </trkpt>
      <trkpt lat="44.4975" lon="5.84513">
        <ele>942</ele>
        <time>2019-06-15T08:55:56Z</time>
      </trkpt>
      <trkpt lat="44.49752" lon="5.84515">
        <ele>942</ele>
        <time>2019-06-15T08:55:57Z</time>
      </trkpt>
      <trkpt lat="44.49754" lon="5.84516">
        <ele>943</ele>
        <time>2019-06-15T08:55:58Z</time>
      </trkpt>
      <trkpt lat="44.49757" lon="5.84518">
        <ele>943</ele>
        <time>2019-06-15T08:55:59Z</time>
      </trkpt>
      <trkpt lat="44.49759" lon="5.8452">
        <ele>943</ele>
        <time>2019-06-15T08:56:00Z</time>
      </trkpt>
      <trkpt lat="44.49761" lon="5.84523">
        <ele>943</ele>
        <time>2019-06-15T08:56:01Z</time>
      </trkpt>
      <trkpt lat="44.49763" lon="5.84525">
        <ele>943</ele>
        <time>2019-06-15T08:56:02Z</time>
      </trkpt>
      <trkpt lat="44.49765" lon="5.84527">
        <ele>943</ele>
        <time>2019-06-15T08:56:03Z</time>
      </trkpt>
      <trkpt lat="44.49768" lon="5.84529">
        <ele>943</ele>
        <time>2019-06-15T08:56:04Z</time>
      </trkpt>
      <trkpt lat="44.4977" lon="5.84531">
        <ele>944</ele>
        <time>2019-06-15T08:56:05Z</time>
      </trkpt>
      <trkpt lat="44.49773" lon="5.84532">
        <ele>944</ele>
        <time>2019-06-15T08:56:06Z</time>
      </trkpt>
      <trkpt lat="44.49775" lon="5.84532">
        <ele>944</ele>
        <time>2019-06-15T08:56:07Z</time>
      </trkpt>
      <trkpt lat="44.49778" lon="5.84533">
        <ele>944</ele>
        <time>2019-06-15T08:56:08Z</time>
      </trkpt>
      <trkpt lat="44.4978" lon="5.84534">
        <ele>944</ele>
        <time>2019-06-15T08:56:09Z</time>
      </trkpt>
      <trkpt lat="44.49783" lon="5.84536">
        <ele>944</ele>
        <time>2019-06-15T08:56:10Z</time>
      </trkpt>
      <trkpt lat="44.49785" lon="5.84536">
        <ele>944</ele>
        <time>2019-06-15T08:56:11Z</time>
      </trkpt>
      <trkpt lat="44.49788" lon="5.84537">
        <ele>945</ele>
        <time>2019-06-15T08:56:12Z</time>
      </trkpt>
      <trkpt lat="44.4979" lon="5.84537">
        <ele>945</ele>
        <time>2019-06-15T08:56:13Z</time>
      </trkpt>
      <trkpt lat="44.49793" lon="5.84537">
        <ele>945</ele>
        <time>2019-06-15T08:56:14Z</time>
      </trkpt>
      <trkpt lat="44.49795" lon="5.84538">
        <ele>945</ele>
        <time>2019-06-15T08:56:15Z</time>
      </trkpt>
      <trkpt lat="44.49798" lon="5.84538">
        <ele>945</ele>
        <time>2019-06-15T08:56:16Z</time>
      </trkpt>
      <trkpt lat="44.498" lon="5.84538">
        <ele>945</ele>
        <time>2019-06-15T08:56:17Z</time>
      </trkpt>
      <trkpt lat="44.49803" lon="5.84538">
        <ele>946</ele>
        <time>2019-06-15T08:56:18Z</time>
      </trkpt>
      <trkpt lat="44.49806" lon="5.84539">
        <ele>946</ele>
        <time>2019-06-15T08:56:19Z</time>
      </trkpt>
      <trkpt lat="44.49808" lon="5.84539">
        <ele>946</ele>
        <time>2019-06-15T08:56:20Z</time>
      </trkpt>
      <trkpt lat="44.49811" lon="5.8454">
        <ele>946</ele>
        <time>2019-06-15T08:56:21Z</time>
      </trkpt>
      <trkpt lat="44.49814" lon="5.84541">
        <ele>947</ele>
        <time>2019-06-15T08:56:22Z</time>
      </trkpt>
      <trkpt lat="44.49816" lon="5.84541">
        <ele>947</ele>
        <time>2019-06-15T08:56:23Z</time>
      </trkpt>
      <trkpt lat="44.49819" lon="5.84542">
        <ele>947</ele>
        <time>2019-06-15T08:56:24Z</time>
      </trkpt>
      <trkpt lat="44.49821" lon="5.84543">
        <ele>947</ele>
        <time>2019-06-15T08:56:25Z</time>
      </trkpt>
      <trkpt lat="44.49823" lon="5.84544">
        <ele>947</ele>
        <time>2019-06-15T08:56:26Z</time>
      </trkpt>
      <trkpt lat="44.49826" lon="5.84546">
        <ele>948</ele>
        <time>2019-06-15T08:56:27Z</time>
      </trkpt>
      <trkpt lat="44.49828" lon="5.84548">
        <ele>948</ele>
        <time>2019-06-15T08:56:28Z</time>
      </trkpt>
      <trkpt lat="44.4983" lon="5.84549">
        <ele>948</ele>
        <time>2019-06-15T08:56:29Z</time>
      </trkpt>
      <trkpt lat="44.49832" lon="5.84551">
        <ele>948</ele>
        <time>2019-06-15T08:56:30Z</time>
      </trkpt>
      <trkpt lat="44.49834" lon="5.84553">
        <ele>949</ele>
        <time>2019-06-15T08:56:31Z</time>
      </trkpt>
      <trkpt lat="44.49836" lon="5.84555">
        <ele>949</ele>
        <time>2019-06-15T08:56:32Z</time>
      </trkpt>
      <trkpt lat="44.49838" lon="5.84558">
        <ele>949</ele>
        <time>2019-06-15T08:56:33Z</time>
      </trkpt>
      <trkpt lat="44.49839" lon="5.8456">
        <ele>949</ele>
        <time>2019-06-15T08:56:34Z</time>
      </trkpt>
      <trkpt lat="44.49841" lon="5.84562">
        <ele>949</ele>
        <time>2019-06-15T08:56:35Z</time>
      </trkpt>
      <trkpt lat="44.49842" lon="5.84565">
        <ele>950</ele>
        <time>2019-06-15T08:56:36Z</time>
      </trkpt>
      <trkpt lat="44.49843" lon="5.84568">
        <ele>950</ele>
        <time>2019-06-15T08:56:37Z</time>
      </trkpt>
      <trkpt lat="44.49844" lon="5.8457">
        <ele>950</ele>
        <time>2019-06-15T08:56:38Z</time>
      </trkpt>
      <trkpt lat="44.49846" lon="5.84573">
        <ele>950</ele>
        <time>2019-06-15T08:56:39Z</time>
      </trkpt>
      <trkpt lat="44.49847" lon="5.84576">
        <ele>950</ele>
        <time>2019-06-15T08:56:40Z</time>
      </trkpt>
      <trkpt lat="44.49849" lon="5.84578">
        <ele>951</ele>
        <time>2019-06-15T08:56:41Z</time>
      </trkpt>
      <trkpt lat="44.4985" lon="5.84581">
        <ele>951</ele>
        <time>2019-06-15T08:56:42Z</time>
      </trkpt>
      <trkpt lat="44.49851" lon="5.84583">
        <ele>951</ele>
        <time>2019-06-15T08:56:43Z</time>
      </trkpt>
      <trkpt lat="44.49853" lon="5.84586">
        <ele>952</ele>
        <time>2019-06-15T08:56:44Z</time>
      </trkpt>
      <trkpt lat="44.49854" lon="5.84588">
        <ele>952</ele>
        <time>2019-06-15T08:56:45Z</time>
      </trkpt>
      <trkpt lat="44.49855" lon="5.84591">
        <ele>952</ele>
        <time>2019-06-15T08:56:46Z</time>
      </trkpt>
      <trkpt lat="44.49857" lon="5.84594">
        <ele>953</ele>
        <time>2019-06-15T08:56:47Z</time>
      </trkpt>
      <trkpt lat="44.49858" lon="5.84596">
        <ele>953</ele>
        <time>2019-06-15T08:56:48Z</time>
      </trkpt>
      <trkpt lat="44.4986" lon="5.84598">
        <ele>953</ele>
        <time>2019-06-15T08:56:49Z</time>
      </trkpt>
      <trkpt lat="44.49861" lon="5.846">
        <ele>954</ele>
        <time>2019-06-15T08:56:50Z</time>
      </trkpt>
      <trkpt lat="44.49863" lon="5.84602">
        <ele>954</ele>
        <time>2019-06-15T08:56:51Z</time>
      </trkpt>
      <trkpt lat="44.49865" lon="5.84604">
        <ele>954</ele>
        <time>2019-06-15T08:56:52Z</time>
      </trkpt>
      <trkpt lat="44.49867" lon="5.84606">
        <ele>955</ele>
        <time>2019-06-15T08:56:53Z</time>
      </trkpt>
      <trkpt lat="44.49869" lon="5.84608">
        <ele>955</ele>
        <time>2019-06-15T08:56:54Z</time>
      </trkpt>
      <trkpt lat="44.49871" lon="5.84611">
        <ele>955</ele>
        <time>2019-06-15T08:56:55Z</time>
      </trkpt>
      <trkpt lat="44.49872" lon="5.84613">
        <ele>955</ele>
        <time>2019-06-15T08:56:56Z</time>
      </trkpt>
      <trkpt lat="44.49874" lon="5.84616">
        <ele>955</ele>
        <time>2019-06-15T08:56:57Z</time>
      </trkpt>
      <trkpt lat="44.49876" lon="5.84618">
        <ele>955</ele>
        <time>2019-06-15T08:56:58Z</time>
      </trkpt>
      <trkpt lat="44.49878" lon="5.8462">
        <ele>955</ele>
        <time>2019-06-15T08:56:59Z</time>
      </trkpt>
      <trkpt lat="44.49879" lon="5.84621">
        <ele>956</ele>
        <time>2019-06-15T08:57:00Z</time>
      </trkpt>
      <trkpt lat="44.49881" lon="5.84622">
        <ele>956</ele>
        <time>2019-06-15T08:57:01Z</time>
      </trkpt>
      <trkpt lat="44.49884" lon="5.84624">
        <ele>956</ele>
        <time>2019-06-15T08:57:02Z</time>
      </trkpt>
      <trkpt lat="44.49885" lon="5.84626">
        <ele>956</ele>
        <time>2019-06-15T08:57:03Z</time>
      </trkpt>
      <trkpt lat="44.49887" lon="5.84628">
        <ele>956</ele>
        <time>2019-06-15T08:57:04Z</time>
      </trkpt>
      <trkpt lat="44.49889" lon="5.84631">
        <ele>956</ele>
        <time>2019-06-15T08:57:05Z</time>
      </trkpt>
      <trkpt lat="44.49891" lon="5.84632">
        <ele>956</ele>
        <time>2019-06-15T08:57:06Z</time>
      </trkpt>
      <trkpt lat="44.49894" lon="5.84634">
        <ele>956</ele>
        <time>2019-06-15T08:57:07Z</time>
      </trkpt>
      <trkpt lat="44.49896" lon="5.84636">
        <ele>956</ele>
        <time>2019-06-15T08:57:08Z</time>
      </trkpt>
      <trkpt lat="44.49898" lon="5.84638">
        <ele>956</ele>
        <time>2019-06-15T08:57:09Z</time>
      </trkpt>
      <trkpt lat="44.499" lon="5.8464">
        <ele>957</ele>
        <time>2019-06-15T08:57:10Z</time>
      </trkpt>
      <trkpt lat="44.49902" lon="5.84642">
        <ele>957</ele>
        <time>2019-06-15T08:57:11Z</time>
      </trkpt>
      <trkpt lat="44.49905" lon="5.84644">
        <ele>957</ele>
        <time>2019-06-15T08:57:12Z</time>
      </trkpt>
      <trkpt lat="44.49907" lon="5.84646">
        <ele>957</ele>
        <time>2019-06-15T08:57:13Z</time>
      </trkpt>
      <trkpt lat="44.49909" lon="5.84649">
        <ele>958</ele>
        <time>2019-06-15T08:57:14Z</time>
      </trkpt>
      <trkpt lat="44.49911" lon="5.84651">
        <ele>958</ele>
        <time>2019-06-15T08:57:15Z</time>
      </trkpt>
      <trkpt lat="44.49913" lon="5.84653">
        <ele>958</ele>
        <time>2019-06-15T08:57:16Z</time>
      </trkpt>
      <trkpt lat="44.49915" lon="5.84655">
        <ele>958</ele>
        <time>2019-06-15T08:57:17Z</time>
      </trkpt>
      <trkpt lat="44.49917" lon="5.84657">
        <ele>959</ele>
        <time>2019-06-15T08:57:18Z</time>
      </trkpt>
      <trkpt lat="44.49919" lon="5.84659">
        <ele>959</ele>
        <time>2019-06-15T08:57:19Z</time>
      </trkpt>
      <trkpt lat="44.49921" lon="5.84661">
        <ele>959</ele>
        <time>2019-06-15T08:57:20Z</time>
      </trkpt>
      <trkpt lat="44.49923" lon="5.84664">
        <ele>959</ele>
        <time>2019-06-15T08:57:21Z</time>
      </trkpt>
      <trkpt lat="44.49925" lon="5.84666">
        <ele>959</ele>
        <time>2019-06-15T08:57:22Z</time>
      </trkpt>
      <trkpt lat="44.49927" lon="5.84668">
        <ele>960</ele>
        <time>2019-06-15T08:57:23Z</time>
      </trkpt>
      <trkpt lat="44.49929" lon="5.8467">
        <ele>960</ele>
        <time>2019-06-15T08:57:24Z</time>
      </trkpt>
      <trkpt lat="44.4993" lon="5.84672">
        <ele>960</ele>
        <time>2019-06-15T08:57:25Z</time>
      </trkpt>
      <trkpt lat="44.49932" lon="5.84674">
        <ele>960</ele>
        <time>2019-06-15T08:57:26Z</time>
      </trkpt>
      <trkpt lat="44.49934" lon="5.84676">
        <ele>961</ele>
        <time>2019-06-15T08:57:27Z</time>
      </trkpt>
      <trkpt lat="44.49936" lon="5.84679">
        <ele>961</ele>
        <time>2019-06-15T08:57:28Z</time>
      </trkpt>
      <trkpt lat="44.49937" lon="5.84681">
        <ele>961</ele>
        <time>2019-06-15T08:57:29Z</time>
      </trkpt>
      <trkpt lat="44.49939" lon="5.84684">
        <ele>961</ele>
        <time>2019-06-15T08:57:30Z</time>
      </trkpt>
      <trkpt lat="44.4994" lon="5.84686">
        <ele>961</ele>
        <time>2019-06-15T08:57:31Z</time>
      </trkpt>
      <trkpt lat="44.49942" lon="5.84688">
        <ele>961</ele>
        <time>2019-06-15T08:57:32Z</time>
      </trkpt>
      <trkpt lat="44.49944" lon="5.8469">
        <ele>962</ele>
        <time>2019-06-15T08:57:33Z</time>
      </trkpt>
      <trkpt lat="44.49947" lon="5.84692">
        <ele>962</ele>
        <time>2019-06-15T08:57:34Z</time>
      </trkpt>
      <trkpt lat="44.49949" lon="5.84694">
        <ele>962</ele>
        <time>2019-06-15T08:57:35Z</time>
      </trkpt>
      <trkpt lat="44.49951" lon="5.84695">
        <ele>962</ele>
        <time>2019-06-15T08:57:36Z</time>
      </trkpt>
      <trkpt lat="44.49953" lon="5.84697">
        <ele>962</ele>
        <time>2019-06-15T08:57:37Z</time>
      </trkpt>
      <trkpt lat="44.49955" lon="5.84698">
        <ele>963</ele>
        <time>2019-06-15T08:57:38Z</time>
      </trkpt>
      <trkpt lat="44.49957" lon="5.847">
        <ele>963</ele>
        <time>2019-06-15T08:57:39Z</time>
      </trkpt>
      <trkpt lat="44.49959" lon="5.84701">
        <ele>963</ele>
        <time>2019-06-15T08:57:40Z</time>
      </trkpt>
      <trkpt lat="44.49961" lon="5.84702">
        <ele>963</ele>
        <time>2019-06-15T08:57:41Z</time>
      </trkpt>
      <trkpt lat="44.49963" lon="5.84703">
        <ele>963</ele>
        <time>2019-06-15T08:57:42Z</time>
      </trkpt>
      <trkpt lat="44.49965" lon="5.84705">
        <ele>963</ele>
        <time>2019-06-15T08:57:43Z</time>
      </trkpt>
      <trkpt lat="44.49967" lon="5.84706">
        <ele>964</ele>
        <time>2019-06-15T08:57:44Z</time>
      </trkpt>
      <trkpt lat="44.49969" lon="5.84707">
        <ele>964</ele>
        <time>2019-06-15T08:57:45Z</time>
      </trkpt>
      <trkpt lat="44.49971" lon="5.84707">
        <ele>964</ele>
        <time>2019-06-15T08:57:46Z</time>
      </trkpt>
      <trkpt lat="44.49973" lon="5.84708">
        <ele>964</ele>
        <time>2019-06-15T08:57:47Z</time>
      </trkpt>
      <trkpt lat="44.49975" lon="5.84709">
        <ele>964</ele>
        <time>2019-06-15T08:57:48Z</time>
      </trkpt>
      <trkpt lat="44.49977" lon="5.8471">
        <ele>965</ele>
        <time>2019-06-15T08:57:49Z</time>
      </trkpt>
      <trkpt lat="44.49979" lon="5.8471">
        <ele>965</ele>
        <time>2019-06-15T08:57:50Z</time>
      </trkpt>
      <trkpt lat="44.49981" lon="5.8471">
        <ele>965</ele>
        <time>2019-06-15T08:57:51Z</time>
      </trkpt>
      <trkpt lat="44.49983" lon="5.84711">
        <ele>965</ele>
        <time>2019-06-15T08:57:52Z</time>
      </trkpt>
      <trkpt lat="44.49985" lon="5.84711">
        <ele>965</ele>
        <time>2019-06-15T08:57:53Z</time>
      </trkpt>
      <trkpt lat="44.49987" lon="5.84712">
        <ele>965</ele>
        <time>2019-06-15T08:57:54Z</time>
      </trkpt>
      <trkpt lat="44.49989" lon="5.84713">
        <ele>965</ele>
        <time>2019-06-15T08:57:55Z</time>
      </trkpt>
      <trkpt lat="44.49992" lon="5.84713">
        <ele>966</ele>
        <time>2019-06-15T08:57:56Z</time>
      </trkpt>
      <trkpt lat="44.49994" lon="5.84714">
        <ele>966</ele>
        <time>2019-06-15T08:57:57Z</time>
      </trkpt>
      <trkpt lat="44.49995" lon="5.84715">
        <ele>966</ele>
        <time>2019-06-15T08:57:58Z</time>
      </trkpt>
      <trkpt lat="44.49997" lon="5.84716">
        <ele>966</ele>
        <time>2019-06-15T08:57:59Z</time>
      </trkpt>
      <trkpt lat="44.49999" lon="5.84717">
        <ele>967</ele>
        <time>2019-06-15T08:58:00Z</time>
      </trkpt>
      <trkpt lat="44.50001" lon="5.84718">
        <ele>967</ele>
        <time>2019-06-15T08:58:01Z</time>
      </trkpt>
      <trkpt lat="44.50003" lon="5.84718">
        <ele>967</ele>
        <time>2019-06-15T08:58:02Z</time>
      </trkpt>
      <trkpt lat="44.50005" lon="5.84719">
        <ele>967</ele>
        <time>2019-06-15T08:58:03Z</time>
      </trkpt>
      <trkpt lat="44.50008" lon="5.8472">
        <ele>967</ele>
        <time>2019-06-15T08:58:04Z</time>
      </trkpt>
      <trkpt lat="44.5001" lon="5.8472">
        <ele>968</ele>
        <time>2019-06-15T08:58:05Z</time>
      </trkpt>
      <trkpt lat="44.50012" lon="5.84721">
        <ele>968</ele>
        <time>2019-06-15T08:58:06Z</time>
      </trkpt>
      <trkpt lat="44.50014" lon="5.84722">
        <ele>968</ele>
        <time>2019-06-15T08:58:07Z</time>
      </trkpt>
      <trkpt lat="44.50016" lon="5.84723">
        <ele>968</ele>
        <time>2019-06-15T08:58:08Z</time>
      </trkpt>
      <trkpt lat="44.50018" lon="5.84723">
        <ele>969</ele>
        <time>2019-06-15T08:58:09Z</time>
      </trkpt>
      <trkpt lat="44.5002" lon="5.84724">
        <ele>969</ele>
        <time>2019-06-15T08:58:10Z</time>
      </trkpt>
      <trkpt lat="44.50022" lon="5.84725">
        <ele>969</ele>
        <time>2019-06-15T08:58:11Z</time>
      </trkpt>
      <trkpt lat="44.50024" lon="5.84726">
        <ele>969</ele>
        <time>2019-06-15T08:58:12Z</time>
      </trkpt>
      <trkpt lat="44.50026" lon="5.84727">
        <ele>969</ele>
        <time>2019-06-15T08:58:13Z</time>
      </trkpt>
      <trkpt lat="44.50028" lon="5.84728">
        <ele>970</ele>
        <time>2019-06-15T08:58:14Z</time>
      </trkpt>
      <trkpt lat="44.5003" lon="5.84729">
        <ele>970</ele>
        <time>2019-06-15T08:58:15Z</time>
      </trkpt>
      <trkpt lat="44.50032" lon="5.8473">
        <ele>970</ele>
        <time>2019-06-15T08:58:16Z</time>
      </trkpt>
      <trkpt lat="44.50034" lon="5.8473">
        <ele>970</ele>
        <time>2019-06-15T08:58:17Z</time>
      </trkpt>
      <trkpt lat="44.50037" lon="5.84732">
        <ele>970</ele>
        <time>2019-06-15T08:58:18Z</time>
      </trkpt>
      <trkpt lat="44.50039" lon="5.84733">
        <ele>971</ele>
        <time>2019-06-15T08:58:19Z</time>
      </trkpt>
      <trkpt lat="44.50041" lon="5.84734">
        <ele>971</ele>
        <time>2019-06-15T08:58:20Z</time>
      </trkpt>
      <trkpt lat="44.50043" lon="5.84735">
        <ele>971</ele>
        <time>2019-06-15T08:58:21Z</time>
      </trkpt>
      <trkpt lat="44.50045" lon="5.84736">
        <ele>971</ele>
        <time>2019-06-15T08:58:22Z</time>
      </trkpt>
      <trkpt lat="44.50048" lon="5.84737">
        <ele>972</ele>
        <time>2019-06-15T08:58:23Z</time>
      </trkpt>
      <trkpt lat="44.5005" lon="5.84738">
        <ele>972</ele>
        <time>2019-06-15T08:58:24Z</time>
      </trkpt>
      <trkpt lat="44.50052" lon="5.84739">
        <ele>972</ele>
        <time>2019-06-15T08:58:25Z</time>
      </trkpt>
      <trkpt lat="44.50055" lon="5.84741">
        <ele>972</ele>
        <time>2019-06-15T08:58:26Z</time>
      </trkpt>
      <trkpt lat="44.50057" lon="5.84742">
        <ele>973</ele>
        <time>2019-06-15T08:58:27Z</time>
      </trkpt>
      <trkpt lat="44.50059" lon="5.84744">
        <ele>973</ele>
        <time>2019-06-15T08:58:28Z</time>
      </trkpt>
      <trkpt lat="44.50062" lon="5.84746">
        <ele>973</ele>
        <time>2019-06-15T08:58:29Z</time>
      </trkpt>
      <trkpt lat="44.50065" lon="5.84748">
        <ele>973</ele>
        <time>2019-06-15T08:58:30Z</time>
      </trkpt>
      <trkpt lat="44.50068" lon="5.84749">
        <ele>973</ele>
        <time>2019-06-15T08:58:31Z</time>
      </trkpt>
      <trkpt lat="44.50071" lon="5.84751">
        <ele>974</ele>
        <time>2019-06-15T08:58:32Z</time>
      </trkpt>
      <trkpt lat="44.50073" lon="5.84753">
        <ele>974</ele>
        <time>2019-06-15T08:58:33Z</time>
      </trkpt>
      <trkpt lat="44.50076" lon="5.84756">
        <ele>974</ele>
        <time>2019-06-15T08:58:34Z</time>
      </trkpt>
      <trkpt lat="44.50078" lon="5.84758">
        <ele>974</ele>
        <time>2019-06-15T08:58:35Z</time>
      </trkpt>
      <trkpt lat="44.50081" lon="5.84761">
        <ele>974</ele>
        <time>2019-06-15T08:58:36Z</time>
      </trkpt>
      <trkpt lat="44.50084" lon="5.84764">
        <ele>974</ele>
        <time>2019-06-15T08:58:37Z</time>
      </trkpt>
      <trkpt lat="44.50086" lon="5.84767">
        <ele>975</ele>
        <time>2019-06-15T08:58:38Z</time>
      </trkpt>
      <trkpt lat="44.50088" lon="5.8477">
        <ele>975</ele>
        <time>2019-06-15T08:58:39Z</time>
      </trkpt>
      <trkpt lat="44.50091" lon="5.84773">
        <ele>975</ele>
        <time>2019-06-15T08:58:40Z</time>
      </trkpt>
      <trkpt lat="44.50093" lon="5.84776">
        <ele>975</ele>
        <time>2019-06-15T08:58:41Z</time>
      </trkpt>
      <trkpt lat="44.50095" lon="5.84779">
        <ele>976</ele>
        <time>2019-06-15T08:58:42Z</time>
      </trkpt>
      <trkpt lat="44.50097" lon="5.84782">
        <ele>976</ele>
        <time>2019-06-15T08:58:43Z</time>
      </trkpt>
      <trkpt lat="44.501" lon="5.84786">
        <ele>976</ele>
        <time>2019-06-15T08:58:44Z</time>
      </trkpt>
      <trkpt lat="44.50102" lon="5.84789">
        <ele>976</ele>
        <time>2019-06-15T08:58:45Z</time>
      </trkpt>
      <trkpt lat="44.50104" lon="5.84793">
        <ele>976</ele>
        <time>2019-06-15T08:58:46Z</time>
      </trkpt>
      <trkpt lat="44.50107" lon="5.84797">
        <ele>977</ele>
        <time>2019-06-15T08:58:47Z</time>
      </trkpt>
      <trkpt lat="44.50109" lon="5.848">
        <ele>977</ele>
        <time>2019-06-15T08:58:48Z</time>
      </trkpt>
      <trkpt lat="44.50112" lon="5.84804">
        <ele>977</ele>
        <time>2019-06-15T08:58:49Z</time>
      </trkpt>
      <trkpt lat="44.50114" lon="5.84807">
        <ele>978</ele>
        <time>2019-06-15T08:58:50Z</time>
      </trkpt>
      <trkpt lat="44.50116" lon="5.84811">
        <ele>978</ele>
        <time>2019-06-15T08:58:51Z</time>
      </trkpt>
      <trkpt lat="44.50119" lon="5.84814">
        <ele>978</ele>
        <time>2019-06-15T08:58:52Z</time>
      </trkpt>
      <trkpt lat="44.50121" lon="5.84818">
        <ele>978</ele>
        <time>2019-06-15T08:58:53Z</time>
      </trkpt>
      <trkpt lat="44.50124" lon="5.84821">
        <ele>978</ele>
        <time>2019-06-15T08:58:54Z</time>
      </trkpt>
      <trkpt lat="44.50126" lon="5.84824">
        <ele>978</ele>
        <time>2019-06-15T08:58:55Z</time>
      </trkpt>
      <trkpt lat="44.50129" lon="5.84828">
        <ele>978</ele>
        <time>2019-06-15T08:58:56Z</time>
      </trkpt>
      <trkpt lat="44.50131" lon="5.84831">
        <ele>979</ele>
        <time>2019-06-15T08:58:57Z</time>
      </trkpt>
      <trkpt lat="44.50133" lon="5.84834">
        <ele>979</ele>
        <time>2019-06-15T08:58:58Z</time>
      </trkpt>
      <trkpt lat="44.50135" lon="5.84837">
        <ele>979</ele>
        <time>2019-06-15T08:58:59Z</time>
      </trkpt>
      <trkpt lat="44.50138" lon="5.8484">
        <ele>979</ele>
        <time>2019-06-15T08:59:00Z</time>
      </trkpt>
      <trkpt lat="44.5014" lon="5.84842">
        <ele>980</ele>
        <time>2019-06-15T08:59:01Z</time>
      </trkpt>
      <trkpt lat="44.50143" lon="5.84844">
        <ele>980</ele>
        <time>2019-06-15T08:59:02Z</time>
      </trkpt>
      <trkpt lat="44.50145" lon="5.84846">
        <ele>980</ele>
        <time>2019-06-15T08:59:03Z</time>
      </trkpt>
      <trkpt lat="44.50147" lon="5.84847">
        <ele>980</ele>
        <time>2019-06-15T08:59:04Z</time>
      </trkpt>
      <trkpt lat="44.50148" lon="5.84848">
        <ele>980</ele>
        <time>2019-06-15T08:59:05Z</time>
      </trkpt>
      <trkpt lat="44.5015" lon="5.84848">
        <ele>980</ele>
        <time>2019-06-15T08:59:07Z</time>
      </trkpt>
      <trkpt lat="44.50151" lon="5.8485">
        <ele>980</ele>
        <time>2019-06-15T08:59:35Z</time>
      </trkpt>
      <trkpt lat="44.50153" lon="5.84851">
        <ele>980</ele>
        <time>2019-06-15T08:59:47Z</time>
      </trkpt>
      <trkpt lat="44.50155" lon="5.8485">
        <ele>980</ele>
        <time>2019-06-15T08:59:49Z</time>
      </trkpt>
      <trkpt lat="44.50156" lon="5.84851">
        <ele>980</ele>
        <time>2019-06-15T08:59:50Z</time>
      </trkpt>
      <trkpt lat="44.50158" lon="5.84852">
        <ele>980</ele>
        <time>2019-06-15T08:59:52Z</time>
      </trkpt>
      <trkpt lat="44.50159" lon="5.84854">
        <ele>980</ele>
        <time>2019-06-15T08:59:54Z</time>
      </trkpt>
      <trkpt lat="44.5016" lon="5.84854">
        <ele>980</ele>
        <time>2019-06-15T08:59:56Z</time>
      </trkpt>
      <trkpt lat="44.50162" lon="5.84854">
        <ele>980</ele>
        <time>2019-06-15T08:59:57Z</time>
      </trkpt>
      <trkpt lat="44.50164" lon="5.84854">
        <ele>981</ele>
        <time>2019-06-15T08:59:58Z</time>
      </trkpt>
      <trkpt lat="44.50166" lon="5.84855">
        <ele>981</ele>
        <time>2019-06-15T08:59:59Z</time>
      </trkpt>
      <trkpt lat="44.50167" lon="5.84857">
        <ele>981</ele>
        <time>2019-06-15T09:00:00Z</time>
      </trkpt>
      <trkpt lat="44.50169" lon="5.84858">
        <ele>982</ele>
        <time>2019-06-15T09:00:01Z</time>
      </trkpt>
      <trkpt lat="44.50171" lon="5.84859">
        <ele>982</ele>
        <time>2019-06-15T09:00:02Z</time>
      </trkpt>
      <trkpt lat="44.50172" lon="5.84859">
        <ele>982</ele>
        <time>2019-06-15T09:00:03Z</time>
      </trkpt>
      <trkpt lat="44.50173" lon="5.84858">
        <ele>982</ele>
        <time>2019-06-15T09:00:04Z</time>
      </trkpt>
      <trkpt lat="44.50175" lon="5.84859">
        <ele>982</ele>
        <time>2019-06-15T09:00:05Z</time>
      </trkpt>
      <trkpt lat="44.50177" lon="5.84859">
        <ele>983</ele>
        <time>2019-06-15T09:00:06Z</time>
      </trkpt>
      <trkpt lat="44.50178" lon="5.8486">
        <ele>983</ele>
        <time>2019-06-15T09:00:07Z</time>
      </trkpt>
      <trkpt lat="44.5018" lon="5.84862">
        <ele>983</ele>
        <time>2019-06-15T09:00:08Z</time>
      </trkpt>
      <trkpt lat="44.50182" lon="5.84863">
        <ele>983</ele>
        <time>2019-06-15T09:00:09Z</time>
      </trkpt>
      <trkpt lat="44.50183" lon="5.84864">
        <ele>983</ele>
        <time>2019-06-15T09:00:10Z</time>
      </trkpt>
      <trkpt lat="44.50186" lon="5.84864">
        <ele>983</ele>
        <time>2019-06-15T09:00:11Z</time>
      </trkpt>
      <trkpt lat="44.50188" lon="5.84865">
        <ele>983</ele>
        <time>2019-06-15T09:00:12Z</time>
      </trkpt>
      <trkpt lat="44.50191" lon="5.84866">
        <ele>983</ele>
        <time>2019-06-15T09:00:13Z</time>
      </trkpt>
      <trkpt lat="44.50194" lon="5.84867">
        <ele>984</ele>
        <time>2019-06-15T09:00:14Z</time>
      </trkpt>
      <trkpt lat="44.50196" lon="5.84869">
        <ele>984</ele>
        <time>2019-06-15T09:00:15Z</time>
      </trkpt>
      <trkpt lat="44.502" lon="5.8487">
        <ele>984</ele>
        <time>2019-06-15T09:00:16Z</time>
      </trkpt>
      <trkpt lat="44.50203" lon="5.84872">
        <ele>984</ele>
        <time>2019-06-15T09:00:17Z</time>
      </trkpt>
      <trkpt lat="44.50205" lon="5.84873">
        <ele>984</ele>
        <time>2019-06-15T09:00:18Z</time>
      </trkpt>
      <trkpt lat="44.50209" lon="5.84875">
        <ele>985</ele>
        <time>2019-06-15T09:00:19Z</time>
      </trkpt>
      <trkpt lat="44.50211" lon="5.84876">
        <ele>985</ele>
        <time>2019-06-15T09:00:20Z</time>
      </trkpt>
      <trkpt lat="44.50214" lon="5.84877">
        <ele>985</ele>
        <time>2019-06-15T09:00:21Z</time>
      </trkpt>
      <trkpt lat="44.50218" lon="5.84878">
        <ele>985</ele>
        <time>2019-06-15T09:00:22Z</time>
      </trkpt>
      <trkpt lat="44.50221" lon="5.84879">
        <ele>985</ele>
        <time>2019-06-15T09:00:23Z</time>
      </trkpt>
      <trkpt lat="44.50224" lon="5.8488">
        <ele>986</ele>
        <time>2019-06-15T09:00:24Z</time>
      </trkpt>
      <trkpt lat="44.50227" lon="5.84881">
        <ele>986</ele>
        <time>2019-06-15T09:00:25Z</time>
      </trkpt>
      <trkpt lat="44.5023" lon="5.84882">
        <ele>986</ele>
        <time>2019-06-15T09:00:26Z</time>
      </trkpt>
      <trkpt lat="44.50233" lon="5.84883">
        <ele>986</ele>
        <time>2019-06-15T09:00:27Z</time>
      </trkpt>
      <trkpt lat="44.50236" lon="5.84885">
        <ele>986</ele>
        <time>2019-06-15T09:00:28Z</time>
      </trkpt>
      <trkpt lat="44.50239" lon="5.84887">
        <ele>986</ele>
        <time>2019-06-15T09:00:29Z</time>
      </trkpt>
      <trkpt lat="44.50242" lon="5.84889">
        <ele>986</ele>
        <time>2019-06-15T09:00:30Z</time>
      </trkpt>
      <trkpt lat="44.50245" lon="5.8489">
        <ele>987</ele>
        <time>2019-06-15T09:00:31Z</time>
      </trkpt>
      <trkpt lat="44.50248" lon="5.84891">
        <ele>987</ele>
        <time>2019-06-15T09:00:32Z</time>
      </trkpt>
      <trkpt lat="44.50252" lon="5.84892">
        <ele>987</ele>
        <time>2019-06-15T09:00:33Z</time>
      </trkpt>
      <trkpt lat="44.50255" lon="5.84892">
        <ele>987</ele>
        <time>2019-06-15T09:00:34Z</time>
      </trkpt>
      <trkpt lat="44.50258" lon="5.84892">
        <ele>987</ele>
        <time>2019-06-15T09:00:35Z</time>
      </trkpt>
      <trkpt lat="44.50262" lon="5.84892">
        <ele>988</ele>
        <time>2019-06-15T09:00:36Z</time>
      </trkpt>
      <trkpt lat="44.50265" lon="5.84892">
        <ele>988</ele>
        <time>2019-06-15T09:00:37Z</time>
      </trkpt>
      <trkpt lat="44.50268" lon="5.84892">
        <ele>989</ele>
        <time>2019-06-15T09:00:38Z</time>
      </trkpt>
      <trkpt lat="44.50271" lon="5.84891">
        <ele>989</ele>
        <time>2019-06-15T09:00:39Z</time>
      </trkpt>
      <trkpt lat="44.50274" lon="5.84891">
        <ele>990</ele>
        <time>2019-06-15T09:00:40Z</time>
      </trkpt>
      <trkpt lat="44.50277" lon="5.84891">
        <ele>990</ele>
        <time>2019-06-15T09:00:41Z</time>
      </trkpt>
      <trkpt lat="44.5028" lon="5.84891">
        <ele>990</ele>
        <time>2019-06-15T09:00:42Z</time>
      </trkpt>
      <trkpt lat="44.50283" lon="5.8489">
        <ele>991</ele>
        <time>2019-06-15T09:00:43Z</time>
      </trkpt>
      <trkpt lat="44.50286" lon="5.84889">
        <ele>991</ele>
        <time>2019-06-15T09:00:44Z</time>
      </trkpt>
      <trkpt lat="44.5029" lon="5.84889">
        <ele>991</ele>
        <time>2019-06-15T09:00:45Z</time>
      </trkpt>
      <trkpt lat="44.50293" lon="5.84888">
        <ele>991</ele>
        <time>2019-06-15T09:00:46Z</time>
      </trkpt>
      <trkpt lat="44.50296" lon="5.84887">
        <ele>992</ele>
        <time>2019-06-15T09:00:47Z</time>
      </trkpt>
      <trkpt lat="44.50298" lon="5.84886">
        <ele>992</ele>
        <time>2019-06-15T09:00:48Z</time>
      </trkpt>
      <trkpt lat="44.50301" lon="5.84886">
        <ele>992</ele>
        <time>2019-06-15T09:00:49Z</time>
      </trkpt>
      <trkpt lat="44.50303" lon="5.84885">
        <ele>992</ele>
        <time>2019-06-15T09:00:50Z</time>
      </trkpt>
      <trkpt lat="44.50306" lon="5.84884">
        <ele>992</ele>
        <time>2019-06-15T09:00:51Z</time>
      </trkpt>
      <trkpt lat="44.50308" lon="5.84884">
        <ele>993</ele>
        <time>2019-06-15T09:00:52Z</time>
      </trkpt>
      <trkpt lat="44.50311" lon="5.84883">
        <ele>993</ele>
        <time>2019-06-15T09:00:53Z</time>
      </trkpt>
      <trkpt lat="44.50313" lon="5.84883">
        <ele>993</ele>
        <time>2019-06-15T09:00:54Z</time>
      </trkpt>
      <trkpt lat="44.50316" lon="5.84883">
        <ele>993</ele>
        <time>2019-06-15T09:00:55Z</time>
      </trkpt>
      <trkpt lat="44.50318" lon="5.84883">
        <ele>993</ele>
        <time>2019-06-15T09:00:56Z</time>
      </trkpt>
      <trkpt lat="44.50321" lon="5.84883">
        <ele>993</ele>
        <time>2019-06-15T09:00:57Z</time>
      </trkpt>
      <trkpt lat="44.50323" lon="5.84882">
        <ele>994</ele>
        <time>2019-06-15T09:00:58Z</time>
      </trkpt>
      <trkpt lat="44.50327" lon="5.84882">
        <ele>994</ele>
        <time>2019-06-15T09:00:59Z</time>
      </trkpt>
      <trkpt lat="44.50329" lon="5.84882">
        <ele>994</ele>
        <time>2019-06-15T09:01:00Z</time>
      </trkpt>
      <trkpt lat="44.50331" lon="5.84882">
        <ele>995</ele>
        <time>2019-06-15T09:01:01Z</time>
      </trkpt>
      <trkpt lat="44.50333" lon="5.84882">
        <ele>996</ele>
        <time>2019-06-15T09:01:02Z</time>
      </trkpt>
      <trkpt lat="44.50335" lon="5.84882">
        <ele>997</ele>
        <time>2019-06-15T09:01:03Z</time>
      </trkpt>
      <trkpt lat="44.50338" lon="5.84881">
        <ele>997</ele>
        <time>2019-06-15T09:01:04Z</time>
      </trkpt>
      <trkpt lat="44.50341" lon="5.8488">
        <ele>998</ele>
        <time>2019-06-15T09:01:05Z</time>
      </trkpt>
      <trkpt lat="44.50343" lon="5.8488">
        <ele>998</ele>
        <time>2019-06-15T09:01:06Z</time>
      </trkpt>
      <trkpt lat="44.50346" lon="5.8488">
        <ele>998</ele>
        <time>2019-06-15T09:01:07Z</time>
      </trkpt>
      <trkpt lat="44.50349" lon="5.84879">
        <ele>998</ele>
        <time>2019-06-15T09:01:08Z</time>
      </trkpt>
      <trkpt lat="44.50352" lon="5.84879">
        <ele>998</ele>
        <time>2019-06-15T09:01:09Z</time>
      </trkpt>
      <trkpt lat="44.50354" lon="5.84879">
        <ele>998</ele>
        <time>2019-06-15T09:01:10Z</time>
      </trkpt>
      <trkpt lat="44.50357" lon="5.84879">
        <ele>998</ele>
        <time>2019-06-15T09:01:11Z</time>
      </trkpt>
      <trkpt lat="44.5036" lon="5.84879">
        <ele>998</ele>
        <time>2019-06-15T09:01:12Z</time>
      </trkpt>
      <trkpt lat="44.50362" lon="5.84879">
        <ele>998</ele>
        <time>2019-06-15T09:01:13Z</time>
      </trkpt>
      <trkpt lat="44.50364" lon="5.8488">
        <ele>998</ele>
        <time>2019-06-15T09:01:14Z</time>
      </trkpt>
      <trkpt lat="44.50367" lon="5.8488">
        <ele>998</ele>
        <time>2019-06-15T09:01:15Z</time>
      </trkpt>
      <trkpt lat="44.5037" lon="5.8488">
        <ele>998</ele>
        <time>2019-06-15T09:01:16Z</time>
      </trkpt>
      <trkpt lat="44.50373" lon="5.84881">
        <ele>998</ele>
        <time>2019-06-15T09:01:17Z</time>
      </trkpt>
      <trkpt lat="44.50376" lon="5.84882">
        <ele>998</ele>
        <time>2019-06-15T09:01:18Z</time>
      </trkpt>
      <trkpt lat="44.50379" lon="5.84883">
        <ele>998</ele>
        <time>2019-06-15T09:01:19Z</time>
      </trkpt>
      <trkpt lat="44.50382" lon="5.84885">
        <ele>998</ele>
        <time>2019-06-15T09:01:20Z</time>
      </trkpt>
      <trkpt lat="44.50385" lon="5.84887">
        <ele>998</ele>
        <time>2019-06-15T09:01:21Z</time>
      </trkpt>
      <trkpt lat="44.50388" lon="5.8489">
        <ele>998</ele>
        <time>2019-06-15T09:01:22Z</time>
      </trkpt>
      <trkpt lat="44.50391" lon="5.84892">
        <ele>998</ele>
        <time>2019-06-15T09:01:23Z</time>
      </trkpt>
      <trkpt lat="44.50394" lon="5.84895">
        <ele>998</ele>
        <time>2019-06-15T09:01:24Z</time>
      </trkpt>
      <trkpt lat="44.50396" lon="5.84898">
        <ele>998</ele>
        <time>2019-06-15T09:01:25Z</time>
      </trkpt>
      <trkpt lat="44.50398" lon="5.84901">
        <ele>998</ele>
        <time>2019-06-15T09:01:26Z</time>
      </trkpt>
      <trkpt lat="44.504" lon="5.84905">
        <ele>998</ele>
        <time>2019-06-15T09:01:27Z</time>
      </trkpt>
      <trkpt lat="44.50402" lon="5.84909">
        <ele>998</ele>
        <time>2019-06-15T09:01:28Z</time>
      </trkpt>
      <trkpt lat="44.50403" lon="5.84913">
        <ele>998</ele>
        <time>2019-06-15T09:01:29Z</time>
      </trkpt>
      <trkpt lat="44.50404" lon="5.84918">
        <ele>998</ele>
        <time>2019-06-15T09:01:30Z</time>
      </trkpt>
      <trkpt lat="44.50406" lon="5.84922">
        <ele>998</ele>
        <time>2019-06-15T09:01:31Z</time>
      </trkpt>
      <trkpt lat="44.50407" lon="5.84926">
        <ele>998</ele>
        <time>2019-06-15T09:01:32Z</time>
      </trkpt>
      <trkpt lat="44.50409" lon="5.84931">
        <ele>998</ele>
        <time>2019-06-15T09:01:33Z</time>
      </trkpt>
      <trkpt lat="44.5041" lon="5.84936">
        <ele>999</ele>
        <time>2019-06-15T09:01:34Z</time>
      </trkpt>
      <trkpt lat="44.50411" lon="5.84941">
        <ele>999</ele>
        <time>2019-06-15T09:01:35Z</time>
      </trkpt>
      <trkpt lat="44.50413" lon="5.84945">
        <ele>999</ele>
        <time>2019-06-15T09:01:36Z</time>
      </trkpt>
      <trkpt lat="44.50414" lon="5.84949">
        <ele>999</ele>
        <time>2019-06-15T09:01:37Z</time>
      </trkpt>
      <trkpt lat="44.50416" lon="5.84953">
        <ele>999</ele>
        <time>2019-06-15T09:01:38Z</time>
      </trkpt>
      <trkpt lat="44.50418" lon="5.84956">
        <ele>1000</ele>
        <time>2019-06-15T09:01:39Z</time>
      </trkpt>
      <trkpt lat="44.5042" lon="5.84958">
        <ele>1000</ele>
        <time>2019-06-15T09:01:40Z</time>
      </trkpt>
      <trkpt lat="44.50423" lon="5.8496">
        <ele>1001</ele>
        <time>2019-06-15T09:01:41Z</time>
      </trkpt>
      <trkpt lat="44.50425" lon="5.8496">
        <ele>1001</ele>
        <time>2019-06-15T09:01:42Z</time>
      </trkpt>
      <trkpt lat="44.50428" lon="5.84959">
        <ele>1002</ele>
        <time>2019-06-15T09:01:43Z</time>
      </trkpt>
      <trkpt lat="44.5043" lon="5.84958">
        <ele>1002</ele>
        <time>2019-06-15T09:01:44Z</time>
      </trkpt>
      <trkpt lat="44.50433" lon="5.84958">
        <ele>1002</ele>
        <time>2019-06-15T09:01:45Z</time>
      </trkpt>
      <trkpt lat="44.50435" lon="5.84958">
        <ele>1003</ele>
        <time>2019-06-15T09:01:46Z</time>
      </trkpt>
      <trkpt lat="44.50437" lon="5.84959">
        <ele>1003</ele>
        <time>2019-06-15T09:01:47Z</time>
      </trkpt>
      <trkpt lat="44.5044" lon="5.84959">
        <ele>1003</ele>
        <time>2019-06-15T09:01:48Z</time>
      </trkpt>
      <trkpt lat="44.50442" lon="5.8496">
        <ele>1004</ele>
        <time>2019-06-15T09:01:49Z</time>
      </trkpt>
      <trkpt lat="44.50444" lon="5.8496">
        <ele>1004</ele>
        <time>2019-06-15T09:01:50Z</time>
      </trkpt>
      <trkpt lat="44.50447" lon="5.84959">
        <ele>1004</ele>
        <time>2019-06-15T09:01:51Z</time>
      </trkpt>
      <trkpt lat="44.50449" lon="5.84958">
        <ele>1005</ele>
        <time>2019-06-15T09:01:52Z</time>
      </trkpt>
      <trkpt lat="44.50451" lon="5.84957">
        <ele>1005</ele>
        <time>2019-06-15T09:01:53Z</time>
      </trkpt>
      <trkpt lat="44.50453" lon="5.84956">
        <ele>1005</ele>
        <time>2019-06-15T09:01:54Z</time>
      </trkpt>
      <trkpt lat="44.50454" lon="5.84955">
        <ele>1005</ele>
        <time>2019-06-15T09:01:55Z</time>
      </trkpt>
      <trkpt lat="44.50456" lon="5.84956">
        <ele>1005</ele>
        <time>2019-06-15T09:01:56Z</time>
      </trkpt>
      <trkpt lat="44.50458" lon="5.84957">
        <ele>1006</ele>
        <time>2019-06-15T09:01:57Z</time>
      </trkpt>
      <trkpt lat="44.5046" lon="5.84957">
        <ele>1006</ele>
        <time>2019-06-15T09:01:58Z</time>
      </trkpt>
      <trkpt lat="44.50462" lon="5.84957">
        <ele>1006</ele>
        <time>2019-06-15T09:01:59Z</time>
      </trkpt>
      <trkpt lat="44.50463" lon="5.84957">
        <ele>1006</ele>
        <time>2019-06-15T09:02:00Z</time>
      </trkpt>
      <trkpt lat="44.50465" lon="5.84957">
        <ele>1006</ele>
        <time>2019-06-15T09:02:01Z</time>
      </trkpt>
      <trkpt lat="44.50467" lon="5.84956">
        <ele>1006</ele>
        <time>2019-06-15T09:02:02Z</time>
      </trkpt>
      <trkpt lat="44.50468" lon="5.84956">
        <ele>1007</ele>
        <time>2019-06-15T09:02:03Z</time>
      </trkpt>
      <trkpt lat="44.5047" lon="5.84956">
        <ele>1007</ele>
        <time>2019-06-15T09:02:04Z</time>
      </trkpt>
      <trkpt lat="44.50471" lon="5.84956">
        <ele>1007</ele>
        <time>2019-06-15T09:02:05Z</time>
      </trkpt>
      <trkpt lat="44.50473" lon="5.84956">
        <ele>1007</ele>
        <time>2019-06-15T09:02:06Z</time>
      </trkpt>
      <trkpt lat="44.50475" lon="5.84956">
        <ele>1007</ele>
        <time>2019-06-15T09:02:07Z</time>
      </trkpt>
      <trkpt lat="44.50477" lon="5.84956">
        <ele>1007</ele>
        <time>2019-06-15T09:02:08Z</time>
      </trkpt>
      <trkpt lat="44.50478" lon="5.84956">
        <ele>1007</ele>
        <time>2019-06-15T09:02:09Z</time>
      </trkpt>
      <trkpt lat="44.5048" lon="5.84957">
        <ele>1007</ele>
        <time>2019-06-15T09:02:10Z</time>
      </trkpt>
      <trkpt lat="44.50481" lon="5.84957">
        <ele>1008</ele>
        <time>2019-06-15T09:02:11Z</time>
      </trkpt>
      <trkpt lat="44.50483" lon="5.84958">
        <ele>1008</ele>
        <time>2019-06-15T09:02:12Z</time>
      </trkpt>
      <trkpt lat="44.50484" lon="5.84959">
        <ele>1008</ele>
        <time>2019-06-15T09:02:13Z</time>
      </trkpt>
      <trkpt lat="44.50486" lon="5.84959">
        <ele>1009</ele>
        <time>2019-06-15T09:02:14Z</time>
      </trkpt>
      <trkpt lat="44.50488" lon="5.8496">
        <ele>1009</ele>
        <time>2019-06-15T09:02:15Z</time>
      </trkpt>
      <trkpt lat="44.50489" lon="5.84961">
        <ele>1009</ele>
        <time>2019-06-15T09:02:16Z</time>
      </trkpt>
      <trkpt lat="44.50491" lon="5.84962">
        <ele>1009</ele>
        <time>2019-06-15T09:02:17Z</time>
      </trkpt>
      <trkpt lat="44.50493" lon="5.84963">
        <ele>1010</ele>
        <time>2019-06-15T09:02:18Z</time>
      </trkpt>
      <trkpt lat="44.50494" lon="5.84963">
        <ele>1010</ele>
        <time>2019-06-15T09:02:19Z</time>
      </trkpt>
      <trkpt lat="44.50496" lon="5.84963">
        <ele>1010</ele>
        <time>2019-06-15T09:02:20Z</time>
      </trkpt>
      <trkpt lat="44.50498" lon="5.84964">
        <ele>1010</ele>
        <time>2019-06-15T09:02:21Z</time>
      </trkpt>
      <trkpt lat="44.50499" lon="5.84964">
        <ele>1011</ele>
        <time>2019-06-15T09:02:22Z</time>
      </trkpt>
      <trkpt lat="44.50501" lon="5.84965">
        <ele>1011</ele>
        <time>2019-06-15T09:02:23Z</time>
      </trkpt>
      <trkpt lat="44.50503" lon="5.84967">
        <ele>1011</ele>
        <time>2019-06-15T09:02:25Z</time>
      </trkpt>
      <trkpt lat="44.50505" lon="5.84968">
        <ele>1012</ele>
        <time>2019-06-15T09:02:26Z</time>
      </trkpt>
      <trkpt lat="44.50506" lon="5.84969">
        <ele>1012</ele>
        <time>2019-06-15T09:02:27Z</time>
      </trkpt>
      <trkpt lat="44.50508" lon="5.8497">
        <ele>1012</ele>
        <time>2019-06-15T09:02:28Z</time>
      </trkpt>
      <trkpt lat="44.5051" lon="5.84971">
        <ele>1012</ele>
        <time>2019-06-15T09:02:29Z</time>
      </trkpt>
      <trkpt lat="44.50511" lon="5.84972">
        <ele>1012</ele>
        <time>2019-06-15T09:02:30Z</time>
      </trkpt>
      <trkpt lat="44.50513" lon="5.84973">
        <ele>1012</ele>
        <time>2019-06-15T09:02:31Z</time>
      </trkpt>
      <trkpt lat="44.50515" lon="5.84975">
        <ele>1012</ele>
        <time>2019-06-15T09:02:32Z</time>
      </trkpt>
      <trkpt lat="44.50516" lon="5.84976">
        <ele>1012</ele>
        <time>2019-06-15T09:02:33Z</time>
      </trkpt>
      <trkpt lat="44.50518" lon="5.84978">
        <ele>1012</ele>
        <time>2019-06-15T09:02:34Z</time>
      </trkpt>
      <trkpt lat="44.5052" lon="5.84979">
        <ele>1013</ele>
        <time>2019-06-15T09:02:35Z</time>
      </trkpt>
      <trkpt lat="44.50521" lon="5.8498">
        <ele>1013</ele>
        <time>2019-06-15T09:02:36Z</time>
      </trkpt>
      <trkpt lat="44.50523" lon="5.84981">
        <ele>1013</ele>
        <time>2019-06-15T09:02:37Z</time>
      </trkpt>
      <trkpt lat="44.50525" lon="5.84983">
        <ele>1013</ele>
        <time>2019-06-15T09:02:38Z</time>
      </trkpt>
      <trkpt lat="44.50526" lon="5.84984">
        <ele>1013</ele>
        <time>2019-06-15T09:02:39Z</time>
      </trkpt>
      <trkpt lat="44.50528" lon="5.84985">
        <ele>1013</ele>
        <time>2019-06-15T09:02:40Z</time>
      </trkpt>
      <trkpt lat="44.50529" lon="5.84986">
        <ele>1014</ele>
        <time>2019-06-15T09:02:41Z</time>
      </trkpt>
      <trkpt lat="44.50531" lon="5.84988">
        <ele>1014</ele>
        <time>2019-06-15T09:02:42Z</time>
      </trkpt>
      <trkpt lat="44.50533" lon="5.84989">
        <ele>1014</ele>
        <time>2019-06-15T09:02:43Z</time>
      </trkpt>
      <trkpt lat="44.50534" lon="5.8499">
        <ele>1014</ele>
        <time>2019-06-15T09:02:44Z</time>
      </trkpt>
      <trkpt lat="44.50536" lon="5.84991">
        <ele>1014</ele>
        <time>2019-06-15T09:02:45Z</time>
      </trkpt>
      <trkpt lat="44.50537" lon="5.84993">
        <ele>1014</ele>
        <time>2019-06-15T09:02:46Z</time>
      </trkpt>
      <trkpt lat="44.50538" lon="5.84994">
        <ele>1015</ele>
        <time>2019-06-15T09:02:47Z</time>
      </trkpt>
      <trkpt lat="44.5054" lon="5.84996">
        <ele>1015</ele>
        <time>2019-06-15T09:02:48Z</time>
      </trkpt>
      <trkpt lat="44.50542" lon="5.84998">
        <ele>1015</ele>
        <time>2019-06-15T09:02:49Z</time>
      </trkpt>
      <trkpt lat="44.50543" lon="5.84999">
        <ele>1016</ele>
        <time>2019-06-15T09:02:50Z</time>
      </trkpt>
      <trkpt lat="44.50544" lon="5.85">
        <ele>1016</ele>
        <time>2019-06-15T09:02:51Z</time>
      </trkpt>
      <trkpt lat="44.50546" lon="5.85002">
        <ele>1016</ele>
        <time>2019-06-15T09:02:52Z</time>
      </trkpt>
      <trkpt lat="44.50547" lon="5.85004">
        <ele>1016</ele>
        <time>2019-06-15T09:02:53Z</time>
      </trkpt>
      <trkpt lat="44.50548" lon="5.85005">
        <ele>1017</ele>
        <time>2019-06-15T09:02:54Z</time>
      </trkpt>
      <trkpt lat="44.5055" lon="5.85007">
        <ele>1017</ele>
        <time>2019-06-15T09:02:55Z</time>
      </trkpt>
      <trkpt lat="44.50551" lon="5.85009">
        <ele>1017</ele>
        <time>2019-06-15T09:02:56Z</time>
      </trkpt>
      <trkpt lat="44.50552" lon="5.85011">
        <ele>1017</ele>
        <time>2019-06-15T09:02:57Z</time>
      </trkpt>
      <trkpt lat="44.50554" lon="5.85013">
        <ele>1018</ele>
        <time>2019-06-15T09:02:58Z</time>
      </trkpt>
      <trkpt lat="44.50555" lon="5.85015">
        <ele>1018</ele>
        <time>2019-06-15T09:02:59Z</time>
      </trkpt>
      <trkpt lat="44.50557" lon="5.85017">
        <ele>1018</ele>
        <time>2019-06-15T09:03:00Z</time>
      </trkpt>
      <trkpt lat="44.50558" lon="5.85018">
        <ele>1019</ele>
        <time>2019-06-15T09:03:01Z</time>
      </trkpt>
      <trkpt lat="44.5056" lon="5.8502">
        <ele>1019</ele>
        <time>2019-06-15T09:03:02Z</time>
      </trkpt>
      <trkpt lat="44.50561" lon="5.85022">
        <ele>1019</ele>
        <time>2019-06-15T09:03:03Z</time>
      </trkpt>
      <trkpt lat="44.50563" lon="5.85025">
        <ele>1019</ele>
        <time>2019-06-15T09:03:04Z</time>
      </trkpt>
      <trkpt lat="44.50564" lon="5.85027">
        <ele>1020</ele>
        <time>2019-06-15T09:03:05Z</time>
      </trkpt>
      <trkpt lat="44.50565" lon="5.8503">
        <ele>1020</ele>
        <time>2019-06-15T09:03:06Z</time>
      </trkpt>
      <trkpt lat="44.50566" lon="5.85032">
        <ele>1020</ele>
        <time>2019-06-15T09:03:07Z</time>
      </trkpt>
      <trkpt lat="44.50568" lon="5.85033">
        <ele>1020</ele>
        <time>2019-06-15T09:03:08Z</time>
      </trkpt>
      <trkpt lat="44.50569" lon="5.85035">
        <ele>1020</ele>
        <time>2019-06-15T09:03:09Z</time>
      </trkpt>
      <trkpt lat="44.50569" lon="5.85038">
        <ele>1020</ele>
        <time>2019-06-15T09:03:10Z</time>
      </trkpt>
      <trkpt lat="44.5057" lon="5.8504">
        <ele>1020</ele>
        <time>2019-06-15T09:03:11Z</time>
      </trkpt>
      <trkpt lat="44.50571" lon="5.85042">
        <ele>1020</ele>
        <time>2019-06-15T09:03:12Z</time>
      </trkpt>
      <trkpt lat="44.50572" lon="5.85043">
        <ele>1020</ele>
        <time>2019-06-15T09:03:13Z</time>
      </trkpt>
      <trkpt lat="44.50573" lon="5.85045">
        <ele>1020</ele>
        <time>2019-06-15T09:03:14Z</time>
      </trkpt>
      <trkpt lat="44.50573" lon="5.85047">
        <ele>1021</ele>
        <time>2019-06-15T09:03:15Z</time>
      </trkpt>
      <trkpt lat="44.50574" lon="5.85049">
        <ele>1021</ele>
        <time>2019-06-15T09:03:16Z</time>
      </trkpt>
      <trkpt lat="44.50574" lon="5.8505">
        <ele>1021</ele>
        <time>2019-06-15T09:03:17Z</time>
      </trkpt>
      <trkpt lat="44.50574" lon="5.85052">
        <ele>1021</ele>
        <time>2019-06-15T09:03:18Z</time>
      </trkpt>
      <trkpt lat="44.50575" lon="5.85054">
        <ele>1021</ele>
        <time>2019-06-15T09:03:19Z</time>
      </trkpt>
      <trkpt lat="44.50576" lon="5.85056">
        <ele>1021</ele>
        <time>2019-06-15T09:03:20Z</time>
      </trkpt>
      <trkpt lat="44.50576" lon="5.85058">
        <ele>1021</ele>
        <time>2019-06-15T09:03:21Z</time>
      </trkpt>
      <trkpt lat="44.50576" lon="5.8506">
        <ele>1021</ele>
        <time>2019-06-15T09:03:22Z</time>
      </trkpt>
      <trkpt lat="44.50577" lon="5.85063">
        <ele>1021</ele>
        <time>2019-06-15T09:03:23Z</time>
      </trkpt>
      <trkpt lat="44.50577" lon="5.85065">
        <ele>1021</ele>
        <time>2019-06-15T09:03:24Z</time>
      </trkpt>
      <trkpt lat="44.50578" lon="5.85067">
        <ele>1022</ele>
        <time>2019-06-15T09:03:25Z</time>
      </trkpt>
      <trkpt lat="44.50578" lon="5.85069">
        <ele>1022</ele>
        <time>2019-06-15T09:03:26Z</time>
      </trkpt>
      <trkpt lat="44.50579" lon="5.85071">
        <ele>1022</ele>
        <time>2019-06-15T09:03:27Z</time>
      </trkpt>
      <trkpt lat="44.50579" lon="5.85073">
        <ele>1022</ele>
        <time>2019-06-15T09:03:28Z</time>
      </trkpt>
      <trkpt lat="44.50579" lon="5.85075">
        <ele>1022</ele>
        <time>2019-06-15T09:03:29Z</time>
      </trkpt>
      <trkpt lat="44.5058" lon="5.85077">
        <ele>1023</ele>
        <time>2019-06-15T09:03:30Z</time>
      </trkpt>
      <trkpt lat="44.5058" lon="5.85079">
        <ele>1023</ele>
        <time>2019-06-15T09:03:31Z</time>
      </trkpt>
      <trkpt lat="44.5058" lon="5.85082">
        <ele>1023</ele>
        <time>2019-06-15T09:03:32Z</time>
      </trkpt>
      <trkpt lat="44.5058" lon="5.85084">
        <ele>1023</ele>
        <time>2019-06-15T09:03:33Z</time>
      </trkpt>
      <trkpt lat="44.5058" lon="5.85087">
        <ele>1024</ele>
        <time>2019-06-15T09:03:34Z</time>
      </trkpt>
      <trkpt lat="44.5058" lon="5.85089">
        <ele>1024</ele>
        <time>2019-06-15T09:03:35Z</time>
      </trkpt>
      <trkpt lat="44.50579" lon="5.85092">
        <ele>1024</ele>
        <time>2019-06-15T09:03:36Z</time>
      </trkpt>
      <trkpt lat="44.50579" lon="5.85094">
        <ele>1024</ele>
        <time>2019-06-15T09:03:37Z</time>
      </trkpt>
      <trkpt lat="44.50579" lon="5.85097">
        <ele>1025</ele>
        <time>2019-06-15T09:03:38Z</time>
      </trkpt>
      <trkpt lat="44.50578" lon="5.85099">
        <ele>1025</ele>
        <time>2019-06-15T09:03:39Z</time>
      </trkpt>
      <trkpt lat="44.50578" lon="5.85101">
        <ele>1025</ele>
        <time>2019-06-15T09:03:40Z</time>
      </trkpt>
      <trkpt lat="44.50577" lon="5.85103">
        <ele>1025</ele>
        <time>2019-06-15T09:03:41Z</time>
      </trkpt>
      <trkpt lat="44.50577" lon="5.85105">
        <ele>1026</ele>
        <time>2019-06-15T09:03:42Z</time>
      </trkpt>
      <trkpt lat="44.50576" lon="5.85108">
        <ele>1026</ele>
        <time>2019-06-15T09:03:43Z</time>
      </trkpt>
      <trkpt lat="44.50576" lon="5.8511">
        <ele>1026</ele>
        <time>2019-06-15T09:03:44Z</time>
      </trkpt>
      <trkpt lat="44.50576" lon="5.85112">
        <ele>1026</ele>
        <time>2019-06-15T09:03:45Z</time>
      </trkpt>
      <trkpt lat="44.50576" lon="5.85115">
        <ele>1026</ele>
        <time>2019-06-15T09:03:46Z</time>
      </trkpt>
      <trkpt lat="44.50575" lon="5.85118">
        <ele>1026</ele>
        <time>2019-06-15T09:03:47Z</time>
      </trkpt>
      <trkpt lat="44.50575" lon="5.85121">
        <ele>1026</ele>
        <time>2019-06-15T09:03:48Z</time>
      </trkpt>
      <trkpt lat="44.50574" lon="5.85124">
        <ele>1026</ele>
        <time>2019-06-15T09:03:49Z</time>
      </trkpt>
      <trkpt lat="44.50574" lon="5.85127">
        <ele>1026</ele>
        <time>2019-06-15T09:03:50Z</time>
      </trkpt>
      <trkpt lat="44.50573" lon="5.85129">
        <ele>1026</ele>
        <time>2019-06-15T09:03:51Z</time>
      </trkpt>
      <trkpt lat="44.50573" lon="5.85132">
        <ele>1026</ele>
        <time>2019-06-15T09:03:52Z</time>
      </trkpt>
      <trkpt lat="44.50573" lon="5.85134">
        <ele>1026</ele>
        <time>2019-06-15T09:03:53Z</time>
      </trkpt>
      <trkpt lat="44.50572" lon="5.85137">
        <ele>1026</ele>
        <time>2019-06-15T09:03:54Z</time>
      </trkpt>
      <trkpt lat="44.50572" lon="5.8514">
        <ele>1026</ele>
        <time>2019-06-15T09:03:55Z</time>
      </trkpt>
      <trkpt lat="44.50572" lon="5.85143">
        <ele>1027</ele>
        <time>2019-06-15T09:03:56Z</time>
      </trkpt>
      <trkpt lat="44.50572" lon="5.85146">
        <ele>1027</ele>
        <time>2019-06-15T09:03:57Z</time>
      </trkpt>
      <trkpt lat="44.50572" lon="5.85148">
        <ele>1027</ele>
        <time>2019-06-15T09:03:58Z</time>
      </trkpt>
      <trkpt lat="44.50572" lon="5.85151">
        <ele>1027</ele>
        <time>2019-06-15T09:03:59Z</time>
      </trkpt>
      <trkpt lat="44.50572" lon="5.85153">
        <ele>1027</ele>
        <time>2019-06-15T09:04:00Z</time>
      </trkpt>
      <trkpt lat="44.50572" lon="5.85155">
        <ele>1027</ele>
        <time>2019-06-15T09:04:01Z</time>
      </trkpt>
      <trkpt lat="44.50572" lon="5.85158">
        <ele>1027</ele>
        <time>2019-06-15T09:04:02Z</time>
      </trkpt>
      <trkpt lat="44.50573" lon="5.8516">
        <ele>1027</ele>
        <time>2019-06-15T09:04:03Z</time>
      </trkpt>
      <trkpt lat="44.50573" lon="5.85163">
        <ele>1027</ele>
        <time>2019-06-15T09:04:04Z</time>
      </trkpt>
      <trkpt lat="44.50573" lon="5.85165">
        <ele>1027</ele>
        <time>2019-06-15T09:04:05Z</time>
      </trkpt>
      <trkpt lat="44.50572" lon="5.85168">
        <ele>1027</ele>
        <time>2019-06-15T09:04:06Z</time>
      </trkpt>
      <trkpt lat="44.50571" lon="5.8517">
        <ele>1027</ele>
        <time>2019-06-15T09:04:07Z</time>
      </trkpt>
      <trkpt lat="44.50571" lon="5.85173">
        <ele>1027</ele>
        <time>2019-06-15T09:04:08Z</time>
      </trkpt>
      <trkpt lat="44.50572" lon="5.85175">
        <ele>1027</ele>
        <time>2019-06-15T09:04:09Z</time>
      </trkpt>
      <trkpt lat="44.50572" lon="5.85177">
        <ele>1027</ele>
        <time>2019-06-15T09:04:10Z</time>
      </trkpt>
      <trkpt lat="44.50573" lon="5.8518">
        <ele>1027</ele>
        <time>2019-06-15T09:04:11Z</time>
      </trkpt>
      <trkpt lat="44.50573" lon="5.85183">
        <ele>1027</ele>
        <time>2019-06-15T09:04:12Z</time>
      </trkpt>
      <trkpt lat="44.50573" lon="5.85185">
        <ele>1027</ele>
        <time>2019-06-15T09:04:13Z</time>
      </trkpt>
      <trkpt lat="44.50573" lon="5.85188">
        <ele>1027</ele>
        <time>2019-06-15T09:04:14Z</time>
      </trkpt>
      <trkpt lat="44.50573" lon="5.8519">
        <ele>1028</ele>
        <time>2019-06-15T09:04:15Z</time>
      </trkpt>
      <trkpt lat="44.50574" lon="5.85193">
        <ele>1028</ele>
        <time>2019-06-15T09:04:16Z</time>
      </trkpt>
      <trkpt lat="44.50574" lon="5.85196">
        <ele>1028</ele>
        <time>2019-06-15T09:04:17Z</time>
      </trkpt>
      <trkpt lat="44.50574" lon="5.85198">
        <ele>1028</ele>
        <time>2019-06-15T09:04:18Z</time>
      </trkpt>
      <trkpt lat="44.50574" lon="5.85201">
        <ele>1029</ele>
        <time>2019-06-15T09:04:19Z</time>
      </trkpt>
      <trkpt lat="44.50574" lon="5.85204">
        <ele>1029</ele>
        <time>2019-06-15T09:04:20Z</time>
      </trkpt>
      <trkpt lat="44.50575" lon="5.85207">
        <ele>1029</ele>
        <time>2019-06-15T09:04:21Z</time>
      </trkpt>
      <trkpt lat="44.50575" lon="5.8521">
        <ele>1029</ele>
        <time>2019-06-15T09:04:22Z</time>
      </trkpt>
      <trkpt lat="44.50575" lon="5.85213">
        <ele>1030</ele>
        <time>2019-06-15T09:04:23Z</time>
      </trkpt>
      <trkpt lat="44.50575" lon="5.85215">
        <ele>1030</ele>
        <time>2019-06-15T09:04:24Z</time>
      </trkpt>
      <trkpt lat="44.50575" lon="5.85217">
        <ele>1030</ele>
        <time>2019-06-15T09:04:25Z</time>
      </trkpt>
      <trkpt lat="44.50576" lon="5.85219">
        <ele>1030</ele>
        <time>2019-06-15T09:04:26Z</time>
      </trkpt>
      <trkpt lat="44.50576" lon="5.85221">
        <ele>1031</ele>
        <time>2019-06-15T09:04:27Z</time>
      </trkpt>
      <trkpt lat="44.50576" lon="5.85223">
        <ele>1031</ele>
        <time>2019-06-15T09:04:28Z</time>
      </trkpt>
      <trkpt lat="44.50577" lon="5.85226">
        <ele>1031</ele>
        <time>2019-06-15T09:04:29Z</time>
      </trkpt>
      <trkpt lat="44.50577" lon="5.85228">
        <ele>1031</ele>
        <time>2019-06-15T09:04:30Z</time>
      </trkpt>
      <trkpt lat="44.50578" lon="5.8523">
        <ele>1031</ele>
        <time>2019-06-15T09:04:31Z</time>
      </trkpt>
      <trkpt lat="44.50578" lon="5.85233">
        <ele>1032</ele>
        <time>2019-06-15T09:04:32Z</time>
      </trkpt>
      <trkpt lat="44.50578" lon="5.85236">
        <ele>1032</ele>
        <time>2019-06-15T09:04:33Z</time>
      </trkpt>
      <trkpt lat="44.50579" lon="5.85238">
        <ele>1032</ele>
        <time>2019-06-15T09:04:34Z</time>
      </trkpt>
      <trkpt lat="44.50579" lon="5.85241">
        <ele>1032</ele>
        <time>2019-06-15T09:04:35Z</time>
      </trkpt>
      <trkpt lat="44.50581" lon="5.85243">
        <ele>1033</ele>
        <time>2019-06-15T09:04:36Z</time>
      </trkpt>
      <trkpt lat="44.50581" lon="5.85246">
        <ele>1033</ele>
        <time>2019-06-15T09:04:37Z</time>
      </trkpt>
      <trkpt lat="44.50583" lon="5.85248">
        <ele>1033</ele>
        <time>2019-06-15T09:04:38Z</time>
      </trkpt>
      <trkpt lat="44.50584" lon="5.85251">
        <ele>1033</ele>
        <time>2019-06-15T09:04:39Z</time>
      </trkpt>
      <trkpt lat="44.50585" lon="5.85253">
        <ele>1033</ele>
        <time>2019-06-15T09:04:40Z</time>
      </trkpt>
      <trkpt lat="44.50587" lon="5.85256">
        <ele>1033</ele>
        <time>2019-06-15T09:04:41Z</time>
      </trkpt>
      <trkpt lat="44.50588" lon="5.85258">
        <ele>1033</ele>
        <time>2019-06-15T09:04:42Z</time>
      </trkpt>
      <trkpt lat="44.5059" lon="5.8526">
        <ele>1033</ele>
        <time>2019-06-15T09:04:43Z</time>
      </trkpt>
      <trkpt lat="44.50591" lon="5.85262">
        <ele>1034</ele>
        <time>2019-06-15T09:04:44Z</time>
      </trkpt>
      <trkpt lat="44.50593" lon="5.85264">
        <ele>1034</ele>
        <time>2019-06-15T09:04:45Z</time>
      </trkpt>
      <trkpt lat="44.50594" lon="5.85266">
        <ele>1034</ele>
        <time>2019-06-15T09:04:46Z</time>
      </trkpt>
      <trkpt lat="44.50595" lon="5.85268">
        <ele>1034</ele>
        <time>2019-06-15T09:04:47Z</time>
      </trkpt>
      <trkpt lat="44.50597" lon="5.8527">
        <ele>1035</ele>
        <time>2019-06-15T09:04:48Z</time>
      </trkpt>
      <trkpt lat="44.50598" lon="5.85272">
        <ele>1035</ele>
        <time>2019-06-15T09:04:49Z</time>
      </trkpt>
      <trkpt lat="44.50599" lon="5.85273">
        <ele>1035</ele>
        <time>2019-06-15T09:04:50Z</time>
      </trkpt>
      <trkpt lat="44.50601" lon="5.85275">
        <ele>1035</ele>
        <time>2019-06-15T09:04:51Z</time>
      </trkpt>
      <trkpt lat="44.50603" lon="5.85277">
        <ele>1035</ele>
        <time>2019-06-15T09:04:52Z</time>
      </trkpt>
      <trkpt lat="44.50604" lon="5.85279">
        <ele>1036</ele>
        <time>2019-06-15T09:04:53Z</time>
      </trkpt>
      <trkpt lat="44.50606" lon="5.85281">
        <ele>1036</ele>
        <time>2019-06-15T09:04:54Z</time>
      </trkpt>
      <trkpt lat="44.50607" lon="5.85284">
        <ele>1036</ele>
        <time>2019-06-15T09:04:55Z</time>
      </trkpt>
      <trkpt lat="44.50608" lon="5.85286">
        <ele>1036</ele>
        <time>2019-06-15T09:04:56Z</time>
      </trkpt>
      <trkpt lat="44.50609" lon="5.85289">
        <ele>1036</ele>
        <time>2019-06-15T09:04:57Z</time>
      </trkpt>
      <trkpt lat="44.5061" lon="5.85291">
        <ele>1036</ele>
        <time>2019-06-15T09:04:58Z</time>
      </trkpt>
      <trkpt lat="44.50612" lon="5.85294">
        <ele>1036</ele>
        <time>2019-06-15T09:04:59Z</time>
      </trkpt>
      <trkpt lat="44.50613" lon="5.85296">
        <ele>1037</ele>
        <time>2019-06-15T09:05:00Z</time>
      </trkpt>
      <trkpt lat="44.50615" lon="5.85298">
        <ele>1037</ele>
        <time>2019-06-15T09:05:01Z</time>
      </trkpt>
      <trkpt lat="44.50616" lon="5.853">
        <ele>1037</ele>
        <time>2019-06-15T09:05:02Z</time>
      </trkpt>
      <trkpt lat="44.50618" lon="5.85302">
        <ele>1037</ele>
        <time>2019-06-15T09:05:03Z</time>
      </trkpt>
      <trkpt lat="44.50619" lon="5.85304">
        <ele>1037</ele>
        <time>2019-06-15T09:05:04Z</time>
      </trkpt>
      <trkpt lat="44.50621" lon="5.85306">
        <ele>1037</ele>
        <time>2019-06-15T09:05:05Z</time>
      </trkpt>
      <trkpt lat="44.50622" lon="5.85308">
        <ele>1038</ele>
        <time>2019-06-15T09:05:06Z</time>
      </trkpt>
      <trkpt lat="44.50624" lon="5.8531">
        <ele>1038</ele>
        <time>2019-06-15T09:05:07Z</time>
      </trkpt>
      <trkpt lat="44.50625" lon="5.85311">
        <ele>1038</ele>
        <time>2019-06-15T09:05:08Z</time>
      </trkpt>
      <trkpt lat="44.50627" lon="5.85313">
        <ele>1039</ele>
        <time>2019-06-15T09:05:10Z</time>
      </trkpt>
      <trkpt lat="44.50626" lon="5.85314">
        <ele>1040</ele>
        <time>2019-06-15T09:05:59Z</time>
      </trkpt>
      <trkpt lat="44.50627" lon="5.85313">
        <ele>1043</ele>
        <time>2019-06-15T09:06:43Z</time>
      </trkpt>
      <trkpt lat="44.50627" lon="5.85314">
        <ele>1043</ele>
        <time>2019-06-15T09:06:55Z</time>
      </trkpt>
      <trkpt lat="44.50627" lon="5.85316">
        <ele>1045</ele>
        <time>2019-06-15T09:07:04Z</time>
      </trkpt>
      <trkpt lat="44.50628" lon="5.85316">
        <ele>1046</ele>
        <time>2019-06-15T09:07:18Z</time>
      </trkpt>
      <trkpt lat="44.50629" lon="5.85316">
        <ele>1046</ele>
        <time>2019-06-15T09:07:33Z</time>
      </trkpt>
      <trkpt lat="44.50631" lon="5.85317">
        <ele>1046</ele>
        <time>2019-06-15T09:07:34Z</time>
      </trkpt>
      <trkpt lat="44.50633" lon="5.85318">
        <ele>1046</ele>
        <time>2019-06-15T09:07:36Z</time>
      </trkpt>
      <trkpt lat="44.50634" lon="5.85319">
        <ele>1046</ele>
        <time>2019-06-15T09:07:38Z</time>
      </trkpt>
      <trkpt lat="44.50636" lon="5.85321">
        <ele>1046</ele>
        <time>2019-06-15T09:07:40Z</time>
      </trkpt>
      <trkpt lat="44.50637" lon="5.85323">
        <ele>1046</ele>
        <time>2019-06-15T09:07:41Z</time>
      </trkpt>
      <trkpt lat="44.50638" lon="5.85324">
        <ele>1046</ele>
        <time>2019-06-15T09:07:42Z</time>
      </trkpt>
      <trkpt lat="44.5064" lon="5.85326">
        <ele>1046</ele>
        <time>2019-06-15T09:07:43Z</time>
      </trkpt>
      <trkpt lat="44.50641" lon="5.85328">
        <ele>1046</ele>
        <time>2019-06-15T09:07:44Z</time>
      </trkpt>
      <trkpt lat="44.50643" lon="5.8533">
        <ele>1046</ele>
        <time>2019-06-15T09:07:45Z</time>
      </trkpt>
      <trkpt lat="44.50645" lon="5.85332">
        <ele>1046</ele>
        <time>2019-06-15T09:07:46Z</time>
      </trkpt>
      <trkpt lat="44.50647" lon="5.85334">
        <ele>1046</ele>
        <time>2019-06-15T09:07:47Z</time>
      </trkpt>
      <trkpt lat="44.50649" lon="5.85337">
        <ele>1046</ele>
        <time>2019-06-15T09:07:48Z</time>
      </trkpt>
      <trkpt lat="44.50652" lon="5.85339">
        <ele>1046</ele>
        <time>2019-06-15T09:07:49Z</time>
      </trkpt>
      <trkpt lat="44.50655" lon="5.85343">
        <ele>1046</ele>
        <time>2019-06-15T09:07:50Z</time>
      </trkpt>
      <trkpt lat="44.50657" lon="5.85347">
        <ele>1046</ele>
        <time>2019-06-15T09:07:51Z</time>
      </trkpt>
      <trkpt lat="44.50659" lon="5.85351">
        <ele>1045</ele>
        <time>2019-06-15T09:07:52Z</time>
      </trkpt>
      <trkpt lat="44.50661" lon="5.85356">
        <ele>1045</ele>
        <time>2019-06-15T09:07:53Z</time>
      </trkpt>
      <trkpt lat="44.50662" lon="5.85362">
        <ele>1044</ele>
        <time>2019-06-15T09:07:54Z</time>
      </trkpt>
      <trkpt lat="44.50663" lon="5.8537">
        <ele>1044</ele>
        <time>2019-06-15T09:07:55Z</time>
      </trkpt>
      <trkpt lat="44.50663" lon="5.85378">
        <ele>1043</ele>
        <time>2019-06-15T09:07:56Z</time>
      </trkpt>
      <trkpt lat="44.50662" lon="5.85386">
        <ele>1043</ele>
        <time>2019-06-15T09:07:57Z</time>
      </trkpt>
      <trkpt lat="44.5066" lon="5.85393">
        <ele>1042</ele>
        <time>2019-06-15T09:07:58Z</time>
      </trkpt>
      <trkpt lat="44.50657" lon="5.85401">
        <ele>1041</ele>
        <time>2019-06-15T09:07:59Z</time>
      </trkpt>
      <trkpt lat="44.50652" lon="5.85407">
        <ele>1041</ele>
        <time>2019-06-15T09:08:00Z</time>
      </trkpt>
      <trkpt lat="44.50647" lon="5.85413">
        <ele>1040</ele>
        <time>2019-06-15T09:08:01Z</time>
      </trkpt>
      <trkpt lat="44.50643" lon="5.8542">
        <ele>1039</ele>
        <time>2019-06-15T09:08:02Z</time>
      </trkpt>
      <trkpt lat="44.50638" lon="5.85427">
        <ele>1038</ele>
        <time>2019-06-15T09:08:03Z</time>
      </trkpt>
      <trkpt lat="44.50634" lon="5.85435">
        <ele>1037</ele>
        <time>2019-06-15T09:08:04Z</time>
      </trkpt>
      <trkpt lat="44.50631" lon="5.85444">
        <ele>1036</ele>
        <time>2019-06-15T09:08:05Z</time>
      </trkpt>
      <trkpt lat="44.50626" lon="5.85453">
        <ele>1035</ele>
        <time>2019-06-15T09:08:06Z</time>
      </trkpt>
      <trkpt lat="44.50623" lon="5.85463">
        <ele>1034</ele>
        <time>2019-06-15T09:08:07Z</time>
      </trkpt>
      <trkpt lat="44.5062" lon="5.85473">
        <ele>1033</ele>
        <time>2019-06-15T09:08:08Z</time>
      </trkpt>
      <trkpt lat="44.50618" lon="5.85483">
        <ele>1032</ele>
        <time>2019-06-15T09:08:09Z</time>
      </trkpt>
      <trkpt lat="44.50619" lon="5.85493">
        <ele>1031</ele>
        <time>2019-06-15T09:08:10Z</time>
      </trkpt>
      <trkpt lat="44.50621" lon="5.85503">
        <ele>1030</ele>
        <time>2019-06-15T09:08:11Z</time>
      </trkpt>
      <trkpt lat="44.50623" lon="5.85514">
        <ele>1029</ele>
        <time>2019-06-15T09:08:12Z</time>
      </trkpt>
      <trkpt lat="44.50626" lon="5.85525">
        <ele>1028</ele>
        <time>2019-06-15T09:08:13Z</time>
      </trkpt>
      <trkpt lat="44.50629" lon="5.85536">
        <ele>1027</ele>
        <time>2019-06-15T09:08:14Z</time>
      </trkpt>
      <trkpt lat="44.50633" lon="5.85546">
        <ele>1026</ele>
        <time>2019-06-15T09:08:15Z</time>
      </trkpt>
      <trkpt lat="44.50637" lon="5.85558">
        <ele>1025</ele>
        <time>2019-06-15T09:08:16Z</time>
      </trkpt>
      <trkpt lat="44.50641" lon="5.85569">
        <ele>1024</ele>
        <time>2019-06-15T09:08:17Z</time>
      </trkpt>
      <trkpt lat="44.50645" lon="5.85579">
        <ele>1023</ele>
        <time>2019-06-15T09:08:18Z</time>
      </trkpt>
      <trkpt lat="44.5065" lon="5.85591">
        <ele>1022</ele>
        <time>2019-06-15T09:08:19Z</time>
      </trkpt>
      <trkpt lat="44.50655" lon="5.85601">
        <ele>1021</ele>
        <time>2019-06-15T09:08:20Z</time>
      </trkpt>
      <trkpt lat="44.50661" lon="5.85611">
        <ele>1020</ele>
        <time>2019-06-15T09:08:21Z</time>
      </trkpt>
      <trkpt lat="44.50668" lon="5.85619">
        <ele>1019</ele>
        <time>2019-06-15T09:08:22Z</time>
      </trkpt>
      <trkpt lat="44.50675" lon="5.85629">
        <ele>1018</ele>
        <time>2019-06-15T09:08:23Z</time>
      </trkpt>
      <trkpt lat="44.50682" lon="5.85638">
        <ele>1017</ele>
        <time>2019-06-15T09:08:24Z</time>
      </trkpt>
      <trkpt lat="44.5069" lon="5.85648">
        <ele>1016</ele>
        <time>2019-06-15T09:08:25Z</time>
      </trkpt>
      <trkpt lat="44.50697" lon="5.85658">
        <ele>1015</ele>
        <time>2019-06-15T09:08:26Z</time>
      </trkpt>
      <trkpt lat="44.50705" lon="5.8567">
        <ele>1014</ele>
        <time>2019-06-15T09:08:27Z</time>
      </trkpt>
      <trkpt lat="44.50713" lon="5.85683">
        <ele>1013</ele>
        <time>2019-06-15T09:08:28Z</time>
      </trkpt>
      <trkpt lat="44.5072" lon="5.85697">
        <ele>1012</ele>
        <time>2019-06-15T09:08:29Z</time>
      </trkpt>
      <trkpt lat="44.50727" lon="5.85711">
        <ele>1011</ele>
        <time>2019-06-15T09:08:30Z</time>
      </trkpt>
      <trkpt lat="44.50733" lon="5.85726">
        <ele>1009</ele>
        <time>2019-06-15T09:08:31Z</time>
      </trkpt>
      <trkpt lat="44.50738" lon="5.85741">
        <ele>1008</ele>
        <time>2019-06-15T09:08:32Z</time>
      </trkpt>
      <trkpt lat="44.50742" lon="5.85756">
        <ele>1007</ele>
        <time>2019-06-15T09:08:33Z</time>
      </trkpt>
      <trkpt lat="44.50747" lon="5.85771">
        <ele>1006</ele>
        <time>2019-06-15T09:08:34Z</time>
      </trkpt>
      <trkpt lat="44.50752" lon="5.85785">
        <ele>1005</ele>
        <time>2019-06-15T09:08:35Z</time>
      </trkpt>
      <trkpt lat="44.50758" lon="5.85798">
        <ele>1004</ele>
        <time>2019-06-15T09:08:36Z</time>
      </trkpt>
      <trkpt lat="44.50766" lon="5.85809">
        <ele>1003</ele>
        <time>2019-06-15T09:08:37Z</time>
      </trkpt>
      <trkpt lat="44.50774" lon="5.8582">
        <ele>1002</ele>
        <time>2019-06-15T09:08:38Z</time>
      </trkpt>
      <trkpt lat="44.50781" lon="5.85832">
        <ele>1001</ele>
        <time>2019-06-15T09:08:39Z</time>
      </trkpt>
      <trkpt lat="44.50787" lon="5.85844">
        <ele>1000</ele>
        <time>2019-06-15T09:08:40Z</time>
      </trkpt>
      <trkpt lat="44.50792" lon="5.85857">
        <ele>999</ele>
        <time>2019-06-15T09:08:41Z</time>
      </trkpt>
      <trkpt lat="44.50796" lon="5.85871">
        <ele>998</ele>
        <time>2019-06-15T09:08:42Z</time>
      </trkpt>
      <trkpt lat="44.50798" lon="5.85885">
        <ele>998</ele>
        <time>2019-06-15T09:08:43Z</time>
      </trkpt>
      <trkpt lat="44.508" lon="5.85899">
        <ele>997</ele>
        <time>2019-06-15T09:08:44Z</time>
      </trkpt>
      <trkpt lat="44.508" lon="5.85913">
        <ele>997</ele>
        <time>2019-06-15T09:08:45Z</time>
      </trkpt>
      <trkpt lat="44.50801" lon="5.85928">
        <ele>997</ele>
        <time>2019-06-15T09:08:46Z</time>
      </trkpt>
      <trkpt lat="44.50801" lon="5.85943">
        <ele>996</ele>
        <time>2019-06-15T09:08:47Z</time>
      </trkpt>
      <trkpt lat="44.50801" lon="5.85959">
        <ele>996</ele>
        <time>2019-06-15T09:08:48Z</time>
      </trkpt>
      <trkpt lat="44.50802" lon="5.85976">
        <ele>995</ele>
        <time>2019-06-15T09:08:49Z</time>
      </trkpt>
      <trkpt lat="44.50805" lon="5.85991">
        <ele>995</ele>
        <time>2019-06-15T09:08:50Z</time>
      </trkpt>
      <trkpt lat="44.50808" lon="5.86006">
        <ele>994</ele>
        <time>2019-06-15T09:08:51Z</time>
      </trkpt>
      <trkpt lat="44.50814" lon="5.8602">
        <ele>993</ele>
        <time>2019-06-15T09:08:52Z</time>
      </trkpt>
      <trkpt lat="44.50819" lon="5.86031">
        <ele>993</ele>
        <time>2019-06-15T09:08:53Z</time>
      </trkpt>
      <trkpt lat="44.50827" lon="5.8604">
        <ele>992</ele>
        <time>2019-06-15T09:08:54Z</time>
      </trkpt>
      <trkpt lat="44.50835" lon="5.86047">
        <ele>992</ele>
        <time>2019-06-15T09:08:55Z</time>
      </trkpt>
      <trkpt lat="44.50843" lon="5.86053">
        <ele>991</ele>
        <time>2019-06-15T09:08:56Z</time>
      </trkpt>
      <trkpt lat="44.50853" lon="5.86059">
        <ele>990</ele>
        <time>2019-06-15T09:08:57Z</time>
      </trkpt>
      <trkpt lat="44.50861" lon="5.86066">
        <ele>990</ele>
        <time>2019-06-15T09:08:58Z</time>
      </trkpt>
      <trkpt lat="44.50869" lon="5.86076">
        <ele>989</ele>
        <time>2019-06-15T09:08:59Z</time>
      </trkpt>
      <trkpt lat="44.50876" lon="5.86087">
        <ele>988</ele>
        <time>2019-06-15T09:09:00Z</time>
      </trkpt>
      <trkpt lat="44.50882" lon="5.86099">
        <ele>987</ele>
        <time>2019-06-15T09:09:01Z</time>
      </trkpt>
      <trkpt lat="44.50888" lon="5.86111">
        <ele>986</ele>
        <time>2019-06-15T09:09:02Z</time>
      </trkpt>
      <trkpt lat="44.50894" lon="5.86123">
        <ele>985</ele>
        <time>2019-06-15T09:09:03Z</time>
      </trkpt>
      <trkpt lat="44.50901" lon="5.86133">
        <ele>984</ele>
        <time>2019-06-15T09:09:04Z</time>
      </trkpt>
      <trkpt lat="44.50909" lon="5.86141">
        <ele>984</ele>
        <time>2019-06-15T09:09:05Z</time>
      </trkpt>
      <trkpt lat="44.50917" lon="5.86147">
        <ele>983</ele>
        <time>2019-06-15T09:09:06Z</time>
      </trkpt>
      <trkpt lat="44.50926" lon="5.86153">
        <ele>983</ele>
        <time>2019-06-15T09:09:07Z</time>
      </trkpt>
      <trkpt lat="44.50935" lon="5.8616">
        <ele>982</ele>
        <time>2019-06-15T09:09:08Z</time>
      </trkpt>
      <trkpt lat="44.50944" lon="5.86168">
        <ele>982</ele>
        <time>2019-06-15T09:09:09Z</time>
      </trkpt>
      <trkpt lat="44.50952" lon="5.86176">
        <ele>981</ele>
        <time>2019-06-15T09:09:10Z</time>
      </trkpt>
      <trkpt lat="44.5096" lon="5.86185">
        <ele>981</ele>
        <time>2019-06-15T09:09:11Z</time>
      </trkpt>
      <trkpt lat="44.50969" lon="5.86194">
        <ele>980</ele>
        <time>2019-06-15T09:09:12Z</time>
      </trkpt>
      <trkpt lat="44.50977" lon="5.86203">
        <ele>980</ele>
        <time>2019-06-15T09:09:13Z</time>
      </trkpt>
      <trkpt lat="44.50986" lon="5.86211">
        <ele>979</ele>
        <time>2019-06-15T09:09:14Z</time>
      </trkpt>
      <trkpt lat="44.50995" lon="5.86219">
        <ele>979</ele>
        <time>2019-06-15T09:09:15Z</time>
      </trkpt>
      <trkpt lat="44.51004" lon="5.86228">
        <ele>978</ele>
        <time>2019-06-15T09:09:16Z</time>
      </trkpt>
      <trkpt lat="44.51014" lon="5.86236">
        <ele>978</ele>
        <time>2019-06-15T09:09:17Z</time>
      </trkpt>
      <trkpt lat="44.51024" lon="5.86244">
        <ele>977</ele>
        <time>2019-06-15T09:09:18Z</time>
      </trkpt>
      <trkpt lat="44.51035" lon="5.86251">
        <ele>976</ele>
        <time>2019-06-15T09:09:19Z</time>
      </trkpt>
      <trkpt lat="44.51045" lon="5.86258">
        <ele>976</ele>
        <time>2019-06-15T09:09:20Z</time>
      </trkpt>
      <trkpt lat="44.51056" lon="5.86265">
        <ele>975</ele>
        <time>2019-06-15T09:09:21Z</time>
      </trkpt>
      <trkpt lat="44.51067" lon="5.86271">
        <ele>974</ele>
        <time>2019-06-15T09:09:22Z</time>
      </trkpt>
      <trkpt lat="44.51077" lon="5.86278">
        <ele>973</ele>
        <time>2019-06-15T09:09:23Z</time>
      </trkpt>
      <trkpt lat="44.51085" lon="5.86287">
        <ele>973</ele>
        <time>2019-06-15T09:09:24Z</time>
      </trkpt>
      <trkpt lat="44.5109" lon="5.86298">
        <ele>972</ele>
        <time>2019-06-15T09:09:25Z</time>
      </trkpt>
      <trkpt lat="44.51094" lon="5.86309">
        <ele>972</ele>
        <time>2019-06-15T09:09:26Z</time>
      </trkpt>
      <trkpt lat="44.51098" lon="5.8632">
        <ele>972</ele>
        <time>2019-06-15T09:09:27Z</time>
      </trkpt>
      <trkpt lat="44.51102" lon="5.8633">
        <ele>972</ele>
        <time>2019-06-15T09:09:28Z</time>
      </trkpt>
      <trkpt lat="44.51105" lon="5.86339">
        <ele>972</ele>
        <time>2019-06-15T09:09:29Z</time>
      </trkpt>
      <trkpt lat="44.51108" lon="5.86349">
        <ele>972</ele>
        <time>2019-06-15T09:09:30Z</time>
      </trkpt>
      <trkpt lat="44.51111" lon="5.86358">
        <ele>972</ele>
        <time>2019-06-15T09:09:31Z</time>
      </trkpt>
      <trkpt lat="44.51114" lon="5.86367">
        <ele>972</ele>
        <time>2019-06-15T09:09:32Z</time>
      </trkpt>
      <trkpt lat="44.51118" lon="5.86375">
        <ele>972</ele>
        <time>2019-06-15T09:09:33Z</time>
      </trkpt>
      <trkpt lat="44.51121" lon="5.86383">
        <ele>972</ele>
        <time>2019-06-15T09:09:34Z</time>
      </trkpt>
      <trkpt lat="44.51125" lon="5.86391">
        <ele>972</ele>
        <time>2019-06-15T09:09:35Z</time>
      </trkpt>
      <trkpt lat="44.51128" lon="5.86398">
        <ele>972</ele>
        <time>2019-06-15T09:09:36Z</time>
      </trkpt>
      <trkpt lat="44.51131" lon="5.86405">
        <ele>972</ele>
        <time>2019-06-15T09:09:37Z</time>
      </trkpt>
      <trkpt lat="44.51136" lon="5.86412">
        <ele>972</ele>
        <time>2019-06-15T09:09:38Z</time>
      </trkpt>
      <trkpt lat="44.51141" lon="5.86417">
        <ele>972</ele>
        <time>2019-06-15T09:09:39Z</time>
      </trkpt>
      <trkpt lat="44.51146" lon="5.86422">
        <ele>972</ele>
        <time>2019-06-15T09:09:40Z</time>
      </trkpt>
      <trkpt lat="44.5115" lon="5.86426">
        <ele>972</ele>
        <time>2019-06-15T09:09:41Z</time>
      </trkpt>
      <trkpt lat="44.51155" lon="5.8643">
        <ele>972</ele>
        <time>2019-06-15T09:09:42Z</time>
      </trkpt>
      <trkpt lat="44.51159" lon="5.86434">
        <ele>972</ele>
        <time>2019-06-15T09:09:43Z</time>
      </trkpt>
      <trkpt lat="44.51163" lon="5.86437">
        <ele>972</ele>
        <time>2019-06-15T09:09:44Z</time>
      </trkpt>
      <trkpt lat="44.51168" lon="5.8644">
        <ele>972</ele>
        <time>2019-06-15T09:09:45Z</time>
      </trkpt>
      <trkpt lat="44.51172" lon="5.86444">
        <ele>972</ele>
        <time>2019-06-15T09:09:46Z</time>
      </trkpt>
      <trkpt lat="44.51175" lon="5.86447">
        <ele>972</ele>
        <time>2019-06-15T09:09:47Z</time>
      </trkpt>
      <trkpt lat="44.51179" lon="5.86452">
        <ele>972</ele>
        <time>2019-06-15T09:09:48Z</time>
      </trkpt>
      <trkpt lat="44.51181" lon="5.86457">
        <ele>972</ele>
        <time>2019-06-15T09:09:49Z</time>
      </trkpt>
      <trkpt lat="44.51184" lon="5.86463">
        <ele>972</ele>
        <time>2019-06-15T09:09:50Z</time>
      </trkpt>
      <trkpt lat="44.51184" lon="5.8647">
        <ele>972</ele>
        <time>2019-06-15T09:09:51Z</time>
      </trkpt>
      <trkpt lat="44.51183" lon="5.86479">
        <ele>972</ele>
        <time>2019-06-15T09:09:52Z</time>
      </trkpt>
      <trkpt lat="44.51182" lon="5.86488">
        <ele>972</ele>
        <time>2019-06-15T09:09:53Z</time>
      </trkpt>
      <trkpt lat="44.51178" lon="5.86499">
        <ele>972</ele>
        <time>2019-06-15T09:09:54Z</time>
      </trkpt>
      <trkpt lat="44.51175" lon="5.86511">
        <ele>972</ele>
        <time>2019-06-15T09:09:55Z</time>
      </trkpt>
      <trkpt lat="44.51171" lon="5.86522">
        <ele>972</ele>
        <time>2019-06-15T09:09:56Z</time>
      </trkpt>
      <trkpt lat="44.51167" lon="5.86535">
        <ele>972</ele>
        <time>2019-06-15T09:09:57Z</time>
      </trkpt>
      <trkpt lat="44.51162" lon="5.86547">
        <ele>972</ele>
        <time>2019-06-15T09:09:58Z</time>
      </trkpt>
      <trkpt lat="44.51158" lon="5.86559">
        <ele>971</ele>
        <time>2019-06-15T09:09:59Z</time>
      </trkpt>
      <trkpt lat="44.51153" lon="5.86572">
        <ele>971</ele>
        <time>2019-06-15T09:10:00Z</time>
      </trkpt>
      <trkpt lat="44.51149" lon="5.86585">
        <ele>970</ele>
        <time>2019-06-15T09:10:01Z</time>
      </trkpt>
      <trkpt lat="44.51144" lon="5.86597">
        <ele>969</ele>
        <time>2019-06-15T09:10:02Z</time>
      </trkpt>
      <trkpt lat="44.51138" lon="5.86608">
        <ele>968</ele>
        <time>2019-06-15T09:10:03Z</time>
      </trkpt>
      <trkpt lat="44.51133" lon="5.86619">
        <ele>967</ele>
        <time>2019-06-15T09:10:04Z</time>
      </trkpt>
      <trkpt lat="44.51128" lon="5.86629">
        <ele>966</ele>
        <time>2019-06-15T09:10:05Z</time>
      </trkpt>
      <trkpt lat="44.51125" lon="5.86639">
        <ele>965</ele>
        <time>2019-06-15T09:10:06Z</time>
      </trkpt>
      <trkpt lat="44.51123" lon="5.8665">
        <ele>964</ele>
        <time>2019-06-15T09:10:07Z</time>
      </trkpt>
      <trkpt lat="44.51122" lon="5.86661">
        <ele>964</ele>
        <time>2019-06-15T09:10:08Z</time>
      </trkpt>
      <trkpt lat="44.5112" lon="5.86672">
        <ele>963</ele>
        <time>2019-06-15T09:10:09Z</time>
      </trkpt>
      <trkpt lat="44.51117" lon="5.86684">
        <ele>962</ele>
        <time>2019-06-15T09:10:10Z</time>
      </trkpt>
      <trkpt lat="44.51114" lon="5.86696">
        <ele>961</ele>
        <time>2019-06-15T09:10:11Z</time>
      </trkpt>
      <trkpt lat="44.5111" lon="5.86709">
        <ele>960</ele>
        <time>2019-06-15T09:10:12Z</time>
      </trkpt>
      <trkpt lat="44.51107" lon="5.86722">
        <ele>960</ele>
        <time>2019-06-15T09:10:13Z</time>
      </trkpt>
      <trkpt lat="44.51103" lon="5.86736">
        <ele>959</ele>
        <time>2019-06-15T09:10:14Z</time>
      </trkpt>
      <trkpt lat="44.51099" lon="5.8675">
        <ele>958</ele>
        <time>2019-06-15T09:10:15Z</time>
      </trkpt>
      <trkpt lat="44.51095" lon="5.86764">
        <ele>957</ele>
        <time>2019-06-15T09:10:16Z</time>
      </trkpt>
      <trkpt lat="44.51091" lon="5.86778">
        <ele>956</ele>
        <time>2019-06-15T09:10:17Z</time>
      </trkpt>
      <trkpt lat="44.51087" lon="5.86793">
        <ele>956</ele>
        <time>2019-06-15T09:10:18Z</time>
      </trkpt>
      <trkpt lat="44.51083" lon="5.86807">
        <ele>955</ele>
        <time>2019-06-15T09:10:19Z</time>
      </trkpt>
      <trkpt lat="44.51078" lon="5.86821">
        <ele>954</ele>
        <time>2019-06-15T09:10:20Z</time>
      </trkpt>
      <trkpt lat="44.51072" lon="5.86832">
        <ele>954</ele>
        <time>2019-06-15T09:10:21Z</time>
      </trkpt>
      <trkpt lat="44.51066" lon="5.86842">
        <ele>953</ele>
        <time>2019-06-15T09:10:22Z</time>
      </trkpt>
      <trkpt lat="44.5106" lon="5.86852">
        <ele>953</ele>
        <time>2019-06-15T09:10:23Z</time>
      </trkpt>
      <trkpt lat="44.51056" lon="5.86863">
        <ele>952</ele>
        <time>2019-06-15T09:10:24Z</time>
      </trkpt>
      <trkpt lat="44.51055" lon="5.86874">
        <ele>952</ele>
        <time>2019-06-15T09:10:25Z</time>
      </trkpt>
      <trkpt lat="44.51056" lon="5.86885">
        <ele>951</ele>
        <time>2019-06-15T09:10:26Z</time>
      </trkpt>
      <trkpt lat="44.5106" lon="5.86893">
        <ele>951</ele>
        <time>2019-06-15T09:10:27Z</time>
      </trkpt>
      <trkpt lat="44.51067" lon="5.86901">
        <ele>950</ele>
        <time>2019-06-15T09:10:28Z</time>
      </trkpt>
      <trkpt lat="44.51073" lon="5.86908">
        <ele>950</ele>
        <time>2019-06-15T09:10:29Z</time>
      </trkpt>
      <trkpt lat="44.51079" lon="5.86914">
        <ele>950</ele>
        <time>2019-06-15T09:10:30Z</time>
      </trkpt>
      <trkpt lat="44.51085" lon="5.86921">
        <ele>949</ele>
        <time>2019-06-15T09:10:31Z</time>
      </trkpt>
      <trkpt lat="44.51091" lon="5.86927">
        <ele>949</ele>
        <time>2019-06-15T09:10:32Z</time>
      </trkpt>
      <trkpt lat="44.51098" lon="5.86933">
        <ele>949</ele>
        <time>2019-06-15T09:10:33Z</time>
      </trkpt>
      <trkpt lat="44.51103" lon="5.8694">
        <ele>949</ele>
        <time>2019-06-15T09:10:34Z</time>
      </trkpt>
      <trkpt lat="44.51108" lon="5.86947">
        <ele>949</ele>
        <time>2019-06-15T09:10:35Z</time>
      </trkpt>
      <trkpt lat="44.51111" lon="5.86956">
        <ele>949</ele>
        <time>2019-06-15T09:10:36Z</time>
      </trkpt>
      <trkpt lat="44.51112" lon="5.86965">
        <ele>948</ele>
        <time>2019-06-15T09:10:37Z</time>
      </trkpt>
      <trkpt lat="44.51112" lon="5.86975">
        <ele>948</ele>
        <time>2019-06-15T09:10:38Z</time>
      </trkpt>
      <trkpt lat="44.51111" lon="5.86985">
        <ele>948</ele>
        <time>2019-06-15T09:10:39Z</time>
      </trkpt>
      <trkpt lat="44.51109" lon="5.86996">
        <ele>948</ele>
        <time>2019-06-15T09:10:40Z</time>
      </trkpt>
      <trkpt lat="44.51108" lon="5.87007">
        <ele>947</ele>
        <time>2019-06-15T09:10:41Z</time>
      </trkpt>
      <trkpt lat="44.51107" lon="5.87018">
        <ele>947</ele>
        <time>2019-06-15T09:10:42Z</time>
      </trkpt>
      <trkpt lat="44.51106" lon="5.8703">
        <ele>947</ele>
        <time>2019-06-15T09:10:43Z</time>
      </trkpt>
      <trkpt lat="44.51106" lon="5.87042">
        <ele>947</ele>
        <time>2019-06-15T09:10:44Z</time>
      </trkpt>
      <trkpt lat="44.51106" lon="5.87054">
        <ele>946</ele>
        <time>2019-06-15T09:10:45Z</time>
      </trkpt>
      <trkpt lat="44.51105" lon="5.87067">
        <ele>946</ele>
        <time>2019-06-15T09:10:46Z</time>
      </trkpt>
      <trkpt lat="44.51105" lon="5.87079">
        <ele>946</ele>
        <time>2019-06-15T09:10:47Z</time>
      </trkpt>
      <trkpt lat="44.51104" lon="5.8709">
        <ele>945</ele>
        <time>2019-06-15T09:10:48Z</time>
      </trkpt>
      <trkpt lat="44.51104" lon="5.87101">
        <ele>945</ele>
        <time>2019-06-15T09:10:49Z</time>
      </trkpt>
      <trkpt lat="44.51106" lon="5.87111">
        <ele>944</ele>
        <time>2019-06-15T09:10:50Z</time>
      </trkpt>
      <trkpt lat="44.5111" lon="5.8712">
        <ele>944</ele>
        <time>2019-06-15T09:10:51Z</time>
      </trkpt>
      <trkpt lat="44.51115" lon="5.87128">
        <ele>943</ele>
        <time>2019-06-15T09:10:52Z</time>
      </trkpt>
      <trkpt lat="44.5112" lon="5.87135">
        <ele>943</ele>
        <time>2019-06-15T09:10:53Z</time>
      </trkpt>
      <trkpt lat="44.51124" lon="5.87144">
        <ele>943</ele>
        <time>2019-06-15T09:10:54Z</time>
      </trkpt>
      <trkpt lat="44.51126" lon="5.87154">
        <ele>943</ele>
        <time>2019-06-15T09:10:55Z</time>
      </trkpt>
      <trkpt lat="44.51126" lon="5.87164">
        <ele>943</ele>
        <time>2019-06-15T09:10:56Z</time>
      </trkpt>
      <trkpt lat="44.51125" lon="5.87175">
        <ele>943</ele>
        <time>2019-06-15T09:10:57Z</time>
      </trkpt>
      <trkpt lat="44.51123" lon="5.87184">
        <ele>943</ele>
        <time>2019-06-15T09:10:58Z</time>
      </trkpt>
      <trkpt lat="44.51122" lon="5.87194">
        <ele>943</ele>
        <time>2019-06-15T09:10:59Z</time>
      </trkpt>
      <trkpt lat="44.51121" lon="5.87204">
        <ele>942</ele>
        <time>2019-06-15T09:11:00Z</time>
      </trkpt>
      <trkpt lat="44.5112" lon="5.87214">
        <ele>942</ele>
        <time>2019-06-15T09:11:01Z</time>
      </trkpt>
      <trkpt lat="44.51119" lon="5.87223">
        <ele>942</ele>
        <time>2019-06-15T09:11:02Z</time>
      </trkpt>
      <trkpt lat="44.51118" lon="5.87233">
        <ele>942</ele>
        <time>2019-06-15T09:11:03Z</time>
      </trkpt>
      <trkpt lat="44.51117" lon="5.87242">
        <ele>941</ele>
        <time>2019-06-15T09:11:04Z</time>
      </trkpt>
      <trkpt lat="44.51116" lon="5.87252">
        <ele>941</ele>
        <time>2019-06-15T09:11:05Z</time>
      </trkpt>
      <trkpt lat="44.51115" lon="5.87261">
        <ele>941</ele>
        <time>2019-06-15T09:11:06Z</time>
      </trkpt>
      <trkpt lat="44.51115" lon="5.87271">
        <ele>941</ele>
        <time>2019-06-15T09:11:07Z</time>
      </trkpt>
      <trkpt lat="44.51114" lon="5.87281">
        <ele>941</ele>
        <time>2019-06-15T09:11:08Z</time>
      </trkpt>
      <trkpt lat="44.51113" lon="5.87291">
        <ele>940</ele>
        <time>2019-06-15T09:11:09Z</time>
      </trkpt>
      <trkpt lat="44.51112" lon="5.87301">
        <ele>940</ele>
        <time>2019-06-15T09:11:10Z</time>
      </trkpt>
      <trkpt lat="44.51111" lon="5.87311">
        <ele>940</ele>
        <time>2019-06-15T09:11:11Z</time>
      </trkpt>
      <trkpt lat="44.5111" lon="5.87322">
        <ele>940</ele>
        <time>2019-06-15T09:11:12Z</time>
      </trkpt>
      <trkpt lat="44.51109" lon="5.87333">
        <ele>939</ele>
        <time>2019-06-15T09:11:13Z</time>
      </trkpt>
      <trkpt lat="44.51109" lon="5.87344">
        <ele>939</ele>
        <time>2019-06-15T09:11:14Z</time>
      </trkpt>
      <trkpt lat="44.51109" lon="5.87355">
        <ele>939</ele>
        <time>2019-06-15T09:11:15Z</time>
      </trkpt>
      <trkpt lat="44.51108" lon="5.87367">
        <ele>939</ele>
        <time>2019-06-15T09:11:16Z</time>
      </trkpt>
      <trkpt lat="44.51108" lon="5.87379">
        <ele>938</ele>
        <time>2019-06-15T09:11:17Z</time>
      </trkpt>
      <trkpt lat="44.51108" lon="5.87392">
        <ele>938</ele>
        <time>2019-06-15T09:11:18Z</time>
      </trkpt>
      <trkpt lat="44.51108" lon="5.87405">
        <ele>938</ele>
        <time>2019-06-15T09:11:19Z</time>
      </trkpt>
      <trkpt lat="44.51108" lon="5.87418">
        <ele>937</ele>
        <time>2019-06-15T09:11:20Z</time>
      </trkpt>
      <trkpt lat="44.51109" lon="5.87431">
        <ele>937</ele>
        <time>2019-06-15T09:11:21Z</time>
      </trkpt>
      <trkpt lat="44.51109" lon="5.87445">
        <ele>936</ele>
        <time>2019-06-15T09:11:22Z</time>
      </trkpt>
      <trkpt lat="44.5111" lon="5.87459">
        <ele>936</ele>
        <time>2019-06-15T09:11:23Z</time>
      </trkpt>
      <trkpt lat="44.5111" lon="5.87473">
        <ele>935</ele>
        <time>2019-06-15T09:11:24Z</time>
      </trkpt>
      <trkpt lat="44.5111" lon="5.87486">
        <ele>935</ele>
        <time>2019-06-15T09:11:25Z</time>
      </trkpt>
      <trkpt lat="44.5111" lon="5.87499">
        <ele>935</ele>
        <time>2019-06-15T09:11:26Z</time>
      </trkpt>
      <trkpt lat="44.51111" lon="5.87513">
        <ele>934</ele>
        <time>2019-06-15T09:11:27Z</time>
      </trkpt>
      <trkpt lat="44.51111" lon="5.87527">
        <ele>933</ele>
        <time>2019-06-15T09:11:28Z</time>
      </trkpt>
      <trkpt lat="44.51112" lon="5.8754">
        <ele>933</ele>
        <time>2019-06-15T09:11:29Z</time>
      </trkpt>
      <trkpt lat="44.51112" lon="5.87554">
        <ele>932</ele>
        <time>2019-06-15T09:11:30Z</time>
      </trkpt>
      <trkpt lat="44.51113" lon="5.87568">
        <ele>931</ele>
        <time>2019-06-15T09:11:31Z</time>
      </trkpt>
      <trkpt lat="44.51114" lon="5.87582">
        <ele>931</ele>
        <time>2019-06-15T09:11:32Z</time>
      </trkpt>
      <trkpt lat="44.51115" lon="5.87597">
        <ele>930</ele>
        <time>2019-06-15T09:11:33Z</time>
      </trkpt>
      <trkpt lat="44.51115" lon="5.87612">
        <ele>930</ele>
        <time>2019-06-15T09:11:34Z</time>
      </trkpt>
      <trkpt lat="44.51115" lon="5.87628">
        <ele>929</ele>
        <time>2019-06-15T09:11:35Z</time>
      </trkpt>
      <trkpt lat="44.51115" lon="5.87644">
        <ele>928</ele>
        <time>2019-06-15T09:11:36Z</time>
      </trkpt>
      <trkpt lat="44.51115" lon="5.87661">
        <ele>927</ele>
        <time>2019-06-15T09:11:37Z</time>
      </trkpt>
      <trkpt lat="44.51115" lon="5.87677">
        <ele>926</ele>
        <time>2019-06-15T09:11:38Z</time>
      </trkpt>
      <trkpt lat="44.51116" lon="5.87691">
        <ele>925</ele>
        <time>2019-06-15T09:11:39Z</time>
      </trkpt>
      <trkpt lat="44.51116" lon="5.87707">
        <ele>924</ele>
        <time>2019-06-15T09:11:40Z</time>
      </trkpt>
      <trkpt lat="44.51117" lon="5.87721">
        <ele>923</ele>
        <time>2019-06-15T09:11:41Z</time>
      </trkpt>
      <trkpt lat="44.51117" lon="5.87735">
        <ele>922</ele>
        <time>2019-06-15T09:11:42Z</time>
      </trkpt>
      <trkpt lat="44.51117" lon="5.87749">
        <ele>922</ele>
        <time>2019-06-15T09:11:43Z</time>
      </trkpt>
      <trkpt lat="44.51117" lon="5.87762">
        <ele>922</ele>
        <time>2019-06-15T09:11:44Z</time>
      </trkpt>
      <trkpt lat="44.51118" lon="5.87775">
        <ele>922</ele>
        <time>2019-06-15T09:11:45Z</time>
      </trkpt>
      <trkpt lat="44.51118" lon="5.87788">
        <ele>922</ele>
        <time>2019-06-15T09:11:46Z</time>
      </trkpt>
      <trkpt lat="44.5112" lon="5.878">
        <ele>922</ele>
        <time>2019-06-15T09:11:47Z</time>
      </trkpt>
      <trkpt lat="44.51122" lon="5.87812">
        <ele>922</ele>
        <time>2019-06-15T09:11:48Z</time>
      </trkpt>
      <trkpt lat="44.51124" lon="5.87822">
        <ele>922</ele>
        <time>2019-06-15T09:11:49Z</time>
      </trkpt>
      <trkpt lat="44.51127" lon="5.87831">
        <ele>922</ele>
        <time>2019-06-15T09:11:50Z</time>
      </trkpt>
      <trkpt lat="44.5113" lon="5.87839">
        <ele>922</ele>
        <time>2019-06-15T09:11:51Z</time>
      </trkpt>
      <trkpt lat="44.51133" lon="5.87846">
        <ele>922</ele>
        <time>2019-06-15T09:11:52Z</time>
      </trkpt>
      <trkpt lat="44.51137" lon="5.87851">
        <ele>922</ele>
        <time>2019-06-15T09:11:53Z</time>
      </trkpt>
      <trkpt lat="44.5114" lon="5.87856">
        <ele>922</ele>
        <time>2019-06-15T09:11:54Z</time>
      </trkpt>
      <trkpt lat="44.51142" lon="5.87861">
        <ele>922</ele>
        <time>2019-06-15T09:11:55Z</time>
      </trkpt>
      <trkpt lat="44.51143" lon="5.87866">
        <ele>922</ele>
        <time>2019-06-15T09:11:56Z</time>
      </trkpt>
      <trkpt lat="44.51143" lon="5.8787">
        <ele>922</ele>
        <time>2019-06-15T09:11:57Z</time>
      </trkpt>
      <trkpt lat="44.51141" lon="5.87874">
        <ele>922</ele>
        <time>2019-06-15T09:11:58Z</time>
      </trkpt>
      <trkpt lat="44.51139" lon="5.87877">
        <ele>922</ele>
        <time>2019-06-15T09:11:59Z</time>
      </trkpt>
      <trkpt lat="44.51136" lon="5.8788">
        <ele>922</ele>
        <time>2019-06-15T09:12:00Z</time>
      </trkpt>
      <trkpt lat="44.51132" lon="5.87883">
        <ele>922</ele>
        <time>2019-06-15T09:12:01Z</time>
      </trkpt>
      <trkpt lat="44.51128" lon="5.87886">
        <ele>922</ele>
        <time>2019-06-15T09:12:02Z</time>
      </trkpt>
      <trkpt lat="44.51124" lon="5.87889">
        <ele>922</ele>
        <time>2019-06-15T09:12:03Z</time>
      </trkpt>
      <trkpt lat="44.51119" lon="5.87893">
        <ele>922</ele>
        <time>2019-06-15T09:12:04Z</time>
      </trkpt>
      <trkpt lat="44.51114" lon="5.87896">
        <ele>922</ele>
        <time>2019-06-15T09:12:05Z</time>
      </trkpt>
      <trkpt lat="44.5111" lon="5.879">
        <ele>922</ele>
        <time>2019-06-15T09:12:06Z</time>
      </trkpt>
      <trkpt lat="44.51105" lon="5.87903">
        <ele>922</ele>
        <time>2019-06-15T09:12:07Z</time>
      </trkpt>
      <trkpt lat="44.511" lon="5.87908">
        <ele>922</ele>
        <time>2019-06-15T09:12:08Z</time>
      </trkpt>
      <trkpt lat="44.51095" lon="5.87911">
        <ele>922</ele>
        <time>2019-06-15T09:12:09Z</time>
      </trkpt>
      <trkpt lat="44.5109" lon="5.87915">
        <ele>922</ele>
        <time>2019-06-15T09:12:10Z</time>
      </trkpt>
      <trkpt lat="44.51085" lon="5.87919">
        <ele>922</ele>
        <time>2019-06-15T09:12:11Z</time>
      </trkpt>
      <trkpt lat="44.5108" lon="5.87923">
        <ele>921</ele>
        <time>2019-06-15T09:12:12Z</time>
      </trkpt>
      <trkpt lat="44.51074" lon="5.87927">
        <ele>921</ele>
        <time>2019-06-15T09:12:13Z</time>
      </trkpt>
      <trkpt lat="44.51069" lon="5.87931">
        <ele>921</ele>
        <time>2019-06-15T09:12:14Z</time>
      </trkpt>
      <trkpt lat="44.51064" lon="5.87935">
        <ele>921</ele>
        <time>2019-06-15T09:12:15Z</time>
      </trkpt>
      <trkpt lat="44.51059" lon="5.8794">
        <ele>921</ele>
        <time>2019-06-15T09:12:16Z</time>
      </trkpt>
      <trkpt lat="44.51053" lon="5.87944">
        <ele>921</ele>
        <time>2019-06-15T09:12:17Z</time>
      </trkpt>
      <trkpt lat="44.51048" lon="5.87948">
        <ele>921</ele>
        <time>2019-06-15T09:12:18Z</time>
      </trkpt>
      <trkpt lat="44.51042" lon="5.87953">
        <ele>921</ele>
        <time>2019-06-15T09:12:19Z</time>
      </trkpt>
      <trkpt lat="44.51037" lon="5.87957">
        <ele>921</ele>
        <time>2019-06-15T09:12:20Z</time>
      </trkpt>
      <trkpt lat="44.51031" lon="5.87962">
        <ele>921</ele>
        <time>2019-06-15T09:12:21Z</time>
      </trkpt>
      <trkpt lat="44.51025" lon="5.87966">
        <ele>921</ele>
        <time>2019-06-15T09:12:22Z</time>
      </trkpt>
      <trkpt lat="44.5102" lon="5.87971">
        <ele>921</ele>
        <time>2019-06-15T09:12:23Z</time>
      </trkpt>
      <trkpt lat="44.51014" lon="5.87975">
        <ele>921</ele>
        <time>2019-06-15T09:12:24Z</time>
      </trkpt>
      <trkpt lat="44.51009" lon="5.87979">
        <ele>921</ele>
        <time>2019-06-15T09:12:25Z</time>
      </trkpt>
      <trkpt lat="44.51003" lon="5.87984">
        <ele>921</ele>
        <time>2019-06-15T09:12:26Z</time>
      </trkpt>
      <trkpt lat="44.50998" lon="5.87988">
        <ele>921</ele>
        <time>2019-06-15T09:12:27Z</time>
      </trkpt>
      <trkpt lat="44.50992" lon="5.87992">
        <ele>921</ele>
        <time>2019-06-15T09:12:28Z</time>
      </trkpt>
      <trkpt lat="44.50987" lon="5.87997">
        <ele>921</ele>
        <time>2019-06-15T09:12:29Z</time>
      </trkpt>
      <trkpt lat="44.50981" lon="5.88001">
        <ele>921</ele>
        <time>2019-06-15T09:12:30Z</time>
      </trkpt>
      <trkpt lat="44.50976" lon="5.88005">
        <ele>921</ele>
        <time>2019-06-15T09:12:31Z</time>
      </trkpt>
      <trkpt lat="44.50971" lon="5.88009">
        <ele>921</ele>
        <time>2019-06-15T09:12:32Z</time>
      </trkpt>
      <trkpt lat="44.50966" lon="5.88013">
        <ele>921</ele>
        <time>2019-06-15T09:12:33Z</time>
      </trkpt>
      <trkpt lat="44.50961" lon="5.88017">
        <ele>921</ele>
        <time>2019-06-15T09:12:34Z</time>
      </trkpt>
      <trkpt lat="44.50957" lon="5.88021">
        <ele>921</ele>
        <time>2019-06-15T09:12:35Z</time>
      </trkpt>
      <trkpt lat="44.50952" lon="5.88025">
        <ele>921</ele>
        <time>2019-06-15T09:12:36Z</time>
      </trkpt>
      <trkpt lat="44.50948" lon="5.88029">
        <ele>921</ele>
        <time>2019-06-15T09:12:37Z</time>
      </trkpt>
      <trkpt lat="44.50943" lon="5.88032">
        <ele>921</ele>
        <time>2019-06-15T09:12:38Z</time>
      </trkpt>
      <trkpt lat="44.50939" lon="5.88036">
        <ele>921</ele>
        <time>2019-06-15T09:12:39Z</time>
      </trkpt>
      <trkpt lat="44.50934" lon="5.88039">
        <ele>921</ele>
        <time>2019-06-15T09:12:40Z</time>
      </trkpt>
      <trkpt lat="44.5093" lon="5.88043">
        <ele>921</ele>
        <time>2019-06-15T09:12:41Z</time>
      </trkpt>
      <trkpt lat="44.50926" lon="5.88047">
        <ele>921</ele>
        <time>2019-06-15T09:12:42Z</time>
      </trkpt>
      <trkpt lat="44.50921" lon="5.88051">
        <ele>921</ele>
        <time>2019-06-15T09:12:43Z</time>
      </trkpt>
      <trkpt lat="44.50917" lon="5.88054">
        <ele>921</ele>
        <time>2019-06-15T09:12:44Z</time>
      </trkpt>
      <trkpt lat="44.50913" lon="5.88057">
        <ele>921</ele>
        <time>2019-06-15T09:12:45Z</time>
      </trkpt>
      <trkpt lat="44.50908" lon="5.88061">
        <ele>921</ele>
        <time>2019-06-15T09:12:46Z</time>
      </trkpt>
      <trkpt lat="44.50904" lon="5.88064">
        <ele>921</ele>
        <time>2019-06-15T09:12:47Z</time>
      </trkpt>
      <trkpt lat="44.509" lon="5.88068">
        <ele>921</ele>
        <time>2019-06-15T09:12:48Z</time>
      </trkpt>
      <trkpt lat="44.50895" lon="5.88071">
        <ele>921</ele>
        <time>2019-06-15T09:12:49Z</time>
      </trkpt>
      <trkpt lat="44.50891" lon="5.88075">
        <ele>921</ele>
        <time>2019-06-15T09:12:50Z</time>
      </trkpt>
      <trkpt lat="44.50887" lon="5.88078">
        <ele>921</ele>
        <time>2019-06-15T09:12:51Z</time>
      </trkpt>
      <trkpt lat="44.50882" lon="5.88081">
        <ele>921</ele>
        <time>2019-06-15T09:12:52Z</time>
      </trkpt>
      <trkpt lat="44.50878" lon="5.88085">
        <ele>921</ele>
        <time>2019-06-15T09:12:53Z</time>
      </trkpt>
      <trkpt lat="44.50874" lon="5.88088">
        <ele>921</ele>
        <time>2019-06-15T09:12:54Z</time>
      </trkpt>
      <trkpt lat="44.5087" lon="5.88092">
        <ele>921</ele>
        <time>2019-06-15T09:12:55Z</time>
      </trkpt>
      <trkpt lat="44.50866" lon="5.88095">
        <ele>921</ele>
        <time>2019-06-15T09:12:56Z</time>
      </trkpt>
      <trkpt lat="44.50861" lon="5.88099">
        <ele>921</ele>
        <time>2019-06-15T09:12:57Z</time>
      </trkpt>
      <trkpt lat="44.50857" lon="5.88102">
        <ele>921</ele>
        <time>2019-06-15T09:12:58Z</time>
      </trkpt>
      <trkpt lat="44.50853" lon="5.88105">
        <ele>921</ele>
        <time>2019-06-15T09:12:59Z</time>
      </trkpt>
      <trkpt lat="44.50848" lon="5.88109">
        <ele>921</ele>
        <time>2019-06-15T09:13:00Z</time>
      </trkpt>
      <trkpt lat="44.50844" lon="5.88113">
        <ele>921</ele>
        <time>2019-06-15T09:13:01Z</time>
      </trkpt>
      <trkpt lat="44.5084" lon="5.88116">
        <ele>921</ele>
        <time>2019-06-15T09:13:02Z</time>
      </trkpt>
      <trkpt lat="44.50835" lon="5.8812">
        <ele>921</ele>
        <time>2019-06-15T09:13:03Z</time>
      </trkpt>
      <trkpt lat="44.50831" lon="5.88123">
        <ele>921</ele>
        <time>2019-06-15T09:13:04Z</time>
      </trkpt>
      <trkpt lat="44.50827" lon="5.88127">
        <ele>921</ele>
        <time>2019-06-15T09:13:05Z</time>
      </trkpt>
      <trkpt lat="44.50822" lon="5.8813">
        <ele>921</ele>
        <time>2019-06-15T09:13:06Z</time>
      </trkpt>
      <trkpt lat="44.50818" lon="5.88134">
        <ele>921</ele>
        <time>2019-06-15T09:13:07Z</time>
      </trkpt>
      <trkpt lat="44.50813" lon="5.88138">
        <ele>921</ele>
        <time>2019-06-15T09:13:08Z</time>
      </trkpt>
      <trkpt lat="44.50809" lon="5.88141">
        <ele>921</ele>
        <time>2019-06-15T09:13:09Z</time>
      </trkpt>
      <trkpt lat="44.50805" lon="5.88145">
        <ele>921</ele>
        <time>2019-06-15T09:13:10Z</time>
      </trkpt>
      <trkpt lat="44.508" lon="5.88149">
        <ele>921</ele>
        <time>2019-06-15T09:13:11Z</time>
      </trkpt>
      <trkpt lat="44.50796" lon="5.88152">
        <ele>921</ele>
        <time>2019-06-15T09:13:12Z</time>
      </trkpt>
      <trkpt lat="44.50792" lon="5.88155">
        <ele>921</ele>
        <time>2019-06-15T09:13:13Z</time>
      </trkpt>
      <trkpt lat="44.50788" lon="5.88159">
        <ele>921</ele>
        <time>2019-06-15T09:13:14Z</time>
      </trkpt>
      <trkpt lat="44.50784" lon="5.88162">
        <ele>921</ele>
        <time>2019-06-15T09:13:15Z</time>
      </trkpt>
      <trkpt lat="44.5078" lon="5.88166">
        <ele>921</ele>
        <time>2019-06-15T09:13:16Z</time>
      </trkpt>
      <trkpt lat="44.50776" lon="5.88169">
        <ele>921</ele>
        <time>2019-06-15T09:13:17Z</time>
      </trkpt>
      <trkpt lat="44.50771" lon="5.88172">
        <ele>921</ele>
        <time>2019-06-15T09:13:18Z</time>
      </trkpt>
      <trkpt lat="44.50767" lon="5.88175">
        <ele>921</ele>
        <time>2019-06-15T09:13:19Z</time>
      </trkpt>
      <trkpt lat="44.50763" lon="5.88179">
        <ele>921</ele>
        <time>2019-06-15T09:13:20Z</time>
      </trkpt>
      <trkpt lat="44.50759" lon="5.88182">
        <ele>921</ele>
        <time>2019-06-15T09:13:21Z</time>
      </trkpt>
      <trkpt lat="44.50755" lon="5.88185">
        <ele>921</ele>
        <time>2019-06-15T09:13:22Z</time>
      </trkpt>
      <trkpt lat="44.50751" lon="5.88188">
        <ele>921</ele>
        <time>2019-06-15T09:13:23Z</time>
      </trkpt>
      <trkpt lat="44.50748" lon="5.88192">
        <ele>922</ele>
        <time>2019-06-15T09:13:24Z</time>
      </trkpt>
      <trkpt lat="44.50744" lon="5.88195">
        <ele>922</ele>
        <time>2019-06-15T09:13:25Z</time>
      </trkpt>
      <trkpt lat="44.5074" lon="5.88198">
        <ele>922</ele>
        <time>2019-06-15T09:13:26Z</time>
      </trkpt>
      <trkpt lat="44.50736" lon="5.88202">
        <ele>922</ele>
        <time>2019-06-15T09:13:27Z</time>
      </trkpt>
      <trkpt lat="44.50732" lon="5.88205">
        <ele>922</ele>
        <time>2019-06-15T09:13:28Z</time>
      </trkpt>
      <trkpt lat="44.50727" lon="5.88208">
        <ele>922</ele>
        <time>2019-06-15T09:13:29Z</time>
      </trkpt>
      <trkpt lat="44.50723" lon="5.88211">
        <ele>922</ele>
        <time>2019-06-15T09:13:30Z</time>
      </trkpt>
      <trkpt lat="44.50719" lon="5.88214">
        <ele>922</ele>
        <time>2019-06-15T09:13:31Z</time>
      </trkpt>
      <trkpt lat="44.50715" lon="5.88217">
        <ele>922</ele>
        <time>2019-06-15T09:13:32Z</time>
      </trkpt>
      <trkpt lat="44.50711" lon="5.88221">
        <ele>922</ele>
        <time>2019-06-15T09:13:33Z</time>
      </trkpt>
      <trkpt lat="44.50707" lon="5.88225">
        <ele>922</ele>
        <time>2019-06-15T09:13:34Z</time>
      </trkpt>
      <trkpt lat="44.50703" lon="5.88228">
        <ele>923</ele>
        <time>2019-06-15T09:13:35Z</time>
      </trkpt>
      <trkpt lat="44.50698" lon="5.88231">
        <ele>923</ele>
        <time>2019-06-15T09:13:36Z</time>
      </trkpt>
      <trkpt lat="44.50694" lon="5.88235">
        <ele>923</ele>
        <time>2019-06-15T09:13:37Z</time>
      </trkpt>
      <trkpt lat="44.5069" lon="5.88238">
        <ele>923</ele>
        <time>2019-06-15T09:13:38Z</time>
      </trkpt>
      <trkpt lat="44.50686" lon="5.88241">
        <ele>923</ele>
        <time>2019-06-15T09:13:39Z</time>
      </trkpt>
      <trkpt lat="44.50682" lon="5.88245">
        <ele>923</ele>
        <time>2019-06-15T09:13:40Z</time>
      </trkpt>
      <trkpt lat="44.50679" lon="5.88248">
        <ele>923</ele>
        <time>2019-06-15T09:13:41Z</time>
      </trkpt>
      <trkpt lat="44.50675" lon="5.88251">
        <ele>923</ele>
        <time>2019-06-15T09:13:42Z</time>
      </trkpt>
      <trkpt lat="44.50671" lon="5.88255">
        <ele>923</ele>
        <time>2019-06-15T09:13:43Z</time>
      </trkpt>
      <trkpt lat="44.50667" lon="5.88258">
        <ele>923</ele>
        <time>2019-06-15T09:13:44Z</time>
      </trkpt>
      <trkpt lat="44.50663" lon="5.88261">
        <ele>923</ele>
        <time>2019-06-15T09:13:45Z</time>
      </trkpt>
      <trkpt lat="44.50659" lon="5.88264">
        <ele>924</ele>
        <time>2019-06-15T09:13:46Z</time>
      </trkpt>
      <trkpt lat="44.50655" lon="5.88267">
        <ele>924</ele>
        <time>2019-06-15T09:13:47Z</time>
      </trkpt>
      <trkpt lat="44.50651" lon="5.8827">
        <ele>924</ele>
        <time>2019-06-15T09:13:48Z</time>
      </trkpt>
      <trkpt lat="44.50648" lon="5.88273">
        <ele>924</ele>
        <time>2019-06-15T09:13:49Z</time>
      </trkpt>
      <trkpt lat="44.50644" lon="5.88276">
        <ele>924</ele>
        <time>2019-06-15T09:13:50Z</time>
      </trkpt>
      <trkpt lat="44.50641" lon="5.88279">
        <ele>924</ele>
        <time>2019-06-15T09:13:51Z</time>
      </trkpt>
      <trkpt lat="44.50637" lon="5.88282">
        <ele>924</ele>
        <time>2019-06-15T09:13:52Z</time>
      </trkpt>
      <trkpt lat="44.50633" lon="5.88284">
        <ele>924</ele>
        <time>2019-06-15T09:13:53Z</time>
      </trkpt>
      <trkpt lat="44.5063" lon="5.88287">
        <ele>924</ele>
        <time>2019-06-15T09:13:54Z</time>
      </trkpt>
      <trkpt lat="44.50626" lon="5.8829">
        <ele>924</ele>
        <time>2019-06-15T09:13:55Z</time>
      </trkpt>
      <trkpt lat="44.50623" lon="5.88293">
        <ele>924</ele>
        <time>2019-06-15T09:13:56Z</time>
      </trkpt>
      <trkpt lat="44.50619" lon="5.88296">
        <ele>924</ele>
        <time>2019-06-15T09:13:57Z</time>
      </trkpt>
      <trkpt lat="44.50616" lon="5.88299">
        <ele>924</ele>
        <time>2019-06-15T09:13:58Z</time>
      </trkpt>
      <trkpt lat="44.50612" lon="5.88302">
        <ele>924</ele>
        <time>2019-06-15T09:13:59Z</time>
      </trkpt>
      <trkpt lat="44.50609" lon="5.88304">
        <ele>924</ele>
        <time>2019-06-15T09:14:00Z</time>
      </trkpt>
      <trkpt lat="44.50606" lon="5.88307">
        <ele>924</ele>
        <time>2019-06-15T09:14:01Z</time>
      </trkpt>
      <trkpt lat="44.50603" lon="5.88309">
        <ele>924</ele>
        <time>2019-06-15T09:14:02Z</time>
      </trkpt>
      <trkpt lat="44.50599" lon="5.88313">
        <ele>924</ele>
        <time>2019-06-15T09:14:03Z</time>
      </trkpt>
      <trkpt lat="44.50596" lon="5.88316">
        <ele>924</ele>
        <time>2019-06-15T09:14:04Z</time>
      </trkpt>
      <trkpt lat="44.50593" lon="5.88318">
        <ele>925</ele>
        <time>2019-06-15T09:14:05Z</time>
      </trkpt>
      <trkpt lat="44.50589" lon="5.88321">
        <ele>925</ele>
        <time>2019-06-15T09:14:06Z</time>
      </trkpt>
      <trkpt lat="44.50586" lon="5.88324">
        <ele>925</ele>
        <time>2019-06-15T09:14:07Z</time>
      </trkpt>
      <trkpt lat="44.50583" lon="5.88326">
        <ele>926</ele>
        <time>2019-06-15T09:14:08Z</time>
      </trkpt>
      <trkpt lat="44.50579" lon="5.88328">
        <ele>926</ele>
        <time>2019-06-15T09:14:09Z</time>
      </trkpt>
      <trkpt lat="44.50576" lon="5.88331">
        <ele>926</ele>
        <time>2019-06-15T09:14:10Z</time>
      </trkpt>
      <trkpt lat="44.50573" lon="5.88334">
        <ele>926</ele>
        <time>2019-06-15T09:14:11Z</time>
      </trkpt>
      <trkpt lat="44.50569" lon="5.88337">
        <ele>926</ele>
        <time>2019-06-15T09:14:12Z</time>
      </trkpt>
      <trkpt lat="44.50566" lon="5.8834">
        <ele>926</ele>
        <time>2019-06-15T09:14:13Z</time>
      </trkpt>
      <trkpt lat="44.50563" lon="5.88343">
        <ele>926</ele>
        <time>2019-06-15T09:14:14Z</time>
      </trkpt>
      <trkpt lat="44.5056" lon="5.88347">
        <ele>926</ele>
        <time>2019-06-15T09:14:15Z</time>
      </trkpt>
      <trkpt lat="44.50558" lon="5.88351">
        <ele>926</ele>
        <time>2019-06-15T09:14:16Z</time>
      </trkpt>
      <trkpt lat="44.50557" lon="5.88356">
        <ele>927</ele>
        <time>2019-06-15T09:14:17Z</time>
      </trkpt>
      <trkpt lat="44.50557" lon="5.88362">
        <ele>927</ele>
        <time>2019-06-15T09:14:18Z</time>
      </trkpt>
      <trkpt lat="44.50556" lon="5.88367">
        <ele>927</ele>
        <time>2019-06-15T09:14:19Z</time>
      </trkpt>
      <trkpt lat="44.50557" lon="5.88373">
        <ele>927</ele>
        <time>2019-06-15T09:14:20Z</time>
      </trkpt>
      <trkpt lat="44.50558" lon="5.88379">
        <ele>927</ele>
        <time>2019-06-15T09:14:21Z</time>
      </trkpt>
      <trkpt lat="44.5056" lon="5.88384">
        <ele>927</ele>
        <time>2019-06-15T09:14:22Z</time>
      </trkpt>
      <trkpt lat="44.50561" lon="5.8839">
        <ele>927</ele>
        <time>2019-06-15T09:14:23Z</time>
      </trkpt>
      <trkpt lat="44.50563" lon="5.88395">
        <ele>927</ele>
        <time>2019-06-15T09:14:24Z</time>
      </trkpt>
      <trkpt lat="44.50564" lon="5.88401">
        <ele>927</ele>
        <time>2019-06-15T09:14:25Z</time>
      </trkpt>
      <trkpt lat="44.50566" lon="5.88407">
        <ele>927</ele>
        <time>2019-06-15T09:14:26Z</time>
      </trkpt>
      <trkpt lat="44.50567" lon="5.88413">
        <ele>927</ele>
        <time>2019-06-15T09:14:27Z</time>
      </trkpt>
      <trkpt lat="44.50569" lon="5.88419">
        <ele>927</ele>
        <time>2019-06-15T09:14:28Z</time>
      </trkpt>
      <trkpt lat="44.50571" lon="5.88425">
        <ele>927</ele>
        <time>2019-06-15T09:14:29Z</time>
      </trkpt>
      <trkpt lat="44.50572" lon="5.88432">
        <ele>927</ele>
        <time>2019-06-15T09:14:30Z</time>
      </trkpt>
      <trkpt lat="44.50574" lon="5.88438">
        <ele>927</ele>
        <time>2019-06-15T09:14:31Z</time>
      </trkpt>
      <trkpt lat="44.50576" lon="5.88445">
        <ele>927</ele>
        <time>2019-06-15T09:14:32Z</time>
      </trkpt>
      <trkpt lat="44.50577" lon="5.88451">
        <ele>927</ele>
        <time>2019-06-15T09:14:33Z</time>
      </trkpt>
      <trkpt lat="44.50578" lon="5.88458">
        <ele>927</ele>
        <time>2019-06-15T09:14:34Z</time>
      </trkpt>
      <trkpt lat="44.50578" lon="5.88465">
        <ele>927</ele>
        <time>2019-06-15T09:14:35Z</time>
      </trkpt>
      <trkpt lat="44.50578" lon="5.88471">
        <ele>927</ele>
        <time>2019-06-15T09:14:36Z</time>
      </trkpt>
      <trkpt lat="44.50578" lon="5.88478">
        <ele>927</ele>
        <time>2019-06-15T09:14:37Z</time>
      </trkpt>
      <trkpt lat="44.50577" lon="5.88484">
        <ele>927</ele>
        <time>2019-06-15T09:14:38Z</time>
      </trkpt>
      <trkpt lat="44.50576" lon="5.8849">
        <ele>927</ele>
        <time>2019-06-15T09:14:39Z</time>
      </trkpt>
      <trkpt lat="44.50574" lon="5.88496">
        <ele>927</ele>
        <time>2019-06-15T09:14:40Z</time>
      </trkpt>
      <trkpt lat="44.50573" lon="5.88502">
        <ele>927</ele>
        <time>2019-06-15T09:14:41Z</time>
      </trkpt>
      <trkpt lat="44.50571" lon="5.88507">
        <ele>927</ele>
        <time>2019-06-15T09:14:42Z</time>
      </trkpt>
      <trkpt lat="44.5057" lon="5.88512">
        <ele>928</ele>
        <time>2019-06-15T09:14:43Z</time>
      </trkpt>
      <trkpt lat="44.50568" lon="5.88516">
        <ele>928</ele>
        <time>2019-06-15T09:14:44Z</time>
      </trkpt>
      <trkpt lat="44.50565" lon="5.8852">
        <ele>928</ele>
        <time>2019-06-15T09:14:45Z</time>
      </trkpt>
      <trkpt lat="44.50563" lon="5.88524">
        <ele>929</ele>
        <time>2019-06-15T09:14:46Z</time>
      </trkpt>
      <trkpt lat="44.50562" lon="5.88528">
        <ele>929</ele>
        <time>2019-06-15T09:14:47Z</time>
      </trkpt>
      <trkpt lat="44.5056" lon="5.88532">
        <ele>929</ele>
        <time>2019-06-15T09:14:48Z</time>
      </trkpt>
      <trkpt lat="44.50557" lon="5.88536">
        <ele>930</ele>
        <time>2019-06-15T09:14:49Z</time>
      </trkpt>
      <trkpt lat="44.50555" lon="5.8854">
        <ele>930</ele>
        <time>2019-06-15T09:14:50Z</time>
      </trkpt>
      <trkpt lat="44.50552" lon="5.88544">
        <ele>930</ele>
        <time>2019-06-15T09:14:51Z</time>
      </trkpt>
      <trkpt lat="44.50549" lon="5.88547">
        <ele>930</ele>
        <time>2019-06-15T09:14:52Z</time>
      </trkpt>
      <trkpt lat="44.50545" lon="5.8855">
        <ele>931</ele>
        <time>2019-06-15T09:14:53Z</time>
      </trkpt>
      <trkpt lat="44.50541" lon="5.88552">
        <ele>931</ele>
        <time>2019-06-15T09:14:54Z</time>
      </trkpt>
      <trkpt lat="44.50537" lon="5.88553">
        <ele>931</ele>
        <time>2019-06-15T09:14:55Z</time>
      </trkpt>
      <trkpt lat="44.50534" lon="5.88554">
        <ele>932</ele>
        <time>2019-06-15T09:14:56Z</time>
      </trkpt>
      <trkpt lat="44.5053" lon="5.88554">
        <ele>932</ele>
        <time>2019-06-15T09:14:57Z</time>
      </trkpt>
      <trkpt lat="44.50527" lon="5.88554">
        <ele>932</ele>
        <time>2019-06-15T09:14:58Z</time>
      </trkpt>
      <trkpt lat="44.50523" lon="5.88554">
        <ele>933</ele>
        <time>2019-06-15T09:14:59Z</time>
      </trkpt>
      <trkpt lat="44.5052" lon="5.88554">
        <ele>933</ele>
        <time>2019-06-15T09:15:00Z</time>
      </trkpt>
      <trkpt lat="44.50516" lon="5.88554">
        <ele>933</ele>
        <time>2019-06-15T09:15:01Z</time>
      </trkpt>
      <trkpt lat="44.50512" lon="5.88554">
        <ele>934</ele>
        <time>2019-06-15T09:15:02Z</time>
      </trkpt>
      <trkpt lat="44.50508" lon="5.88555">
        <ele>934</ele>
        <time>2019-06-15T09:15:03Z</time>
      </trkpt>
      <trkpt lat="44.50505" lon="5.88557">
        <ele>934</ele>
        <time>2019-06-15T09:15:04Z</time>
      </trkpt>
      <trkpt lat="44.50502" lon="5.88561">
        <ele>934</ele>
        <time>2019-06-15T09:15:05Z</time>
      </trkpt>
      <trkpt lat="44.505" lon="5.88565">
        <ele>935</ele>
        <time>2019-06-15T09:15:06Z</time>
      </trkpt>
      <trkpt lat="44.50498" lon="5.88569">
        <ele>935</ele>
        <time>2019-06-15T09:15:07Z</time>
      </trkpt>
      <trkpt lat="44.50497" lon="5.88575">
        <ele>935</ele>
        <time>2019-06-15T09:15:08Z</time>
      </trkpt>
      <trkpt lat="44.50496" lon="5.8858">
        <ele>936</ele>
        <time>2019-06-15T09:15:09Z</time>
      </trkpt>
      <trkpt lat="44.50494" lon="5.88585">
        <ele>936</ele>
        <time>2019-06-15T09:15:10Z</time>
      </trkpt>
      <trkpt lat="44.50493" lon="5.88591">
        <ele>936</ele>
        <time>2019-06-15T09:15:11Z</time>
      </trkpt>
      <trkpt lat="44.50491" lon="5.88596">
        <ele>937</ele>
        <time>2019-06-15T09:15:12Z</time>
      </trkpt>
      <trkpt lat="44.50489" lon="5.88602">
        <ele>937</ele>
        <time>2019-06-15T09:15:13Z</time>
      </trkpt>
      <trkpt lat="44.50488" lon="5.88608">
        <ele>937</ele>
        <time>2019-06-15T09:15:14Z</time>
      </trkpt>
      <trkpt lat="44.50485" lon="5.88614">
        <ele>937</ele>
        <time>2019-06-15T09:15:15Z</time>
      </trkpt>
      <trkpt lat="44.50483" lon="5.88619">
        <ele>937</ele>
        <time>2019-06-15T09:15:16Z</time>
      </trkpt>
      <trkpt lat="44.5048" lon="5.88625">
        <ele>937</ele>
        <time>2019-06-15T09:15:17Z</time>
      </trkpt>
      <trkpt lat="44.50477" lon="5.8863">
        <ele>937</ele>
        <time>2019-06-15T09:15:18Z</time>
      </trkpt>
      <trkpt lat="44.50475" lon="5.88635">
        <ele>937</ele>
        <time>2019-06-15T09:15:19Z</time>
      </trkpt>
      <trkpt lat="44.50471" lon="5.8864">
        <ele>937</ele>
        <time>2019-06-15T09:15:20Z</time>
      </trkpt>
      <trkpt lat="44.50468" lon="5.88645">
        <ele>937</ele>
        <time>2019-06-15T09:15:21Z</time>
      </trkpt>
      <trkpt lat="44.50465" lon="5.8865">
        <ele>937</ele>
        <time>2019-06-15T09:15:22Z</time>
      </trkpt>
      <trkpt lat="44.50461" lon="5.88654">
        <ele>937</ele>
        <time>2019-06-15T09:15:23Z</time>
      </trkpt>
      <trkpt lat="44.50458" lon="5.88659">
        <ele>937</ele>
        <time>2019-06-15T09:15:24Z</time>
      </trkpt>
      <trkpt lat="44.50455" lon="5.88664">
        <ele>938</ele>
        <time>2019-06-15T09:15:25Z</time>
      </trkpt>
      <trkpt lat="44.50452" lon="5.88668">
        <ele>938</ele>
        <time>2019-06-15T09:15:26Z</time>
      </trkpt>
      <trkpt lat="44.50449" lon="5.88673">
        <ele>938</ele>
        <time>2019-06-15T09:15:27Z</time>
      </trkpt>
      <trkpt lat="44.50446" lon="5.88677">
        <ele>938</ele>
        <time>2019-06-15T09:15:28Z</time>
      </trkpt>
      <trkpt lat="44.50443" lon="5.88681">
        <ele>938</ele>
        <time>2019-06-15T09:15:29Z</time>
      </trkpt>
      <trkpt lat="44.5044" lon="5.88684">
        <ele>938</ele>
        <time>2019-06-15T09:15:30Z</time>
      </trkpt>
      <trkpt lat="44.50436" lon="5.88687">
        <ele>938</ele>
        <time>2019-06-15T09:15:31Z</time>
      </trkpt>
      <trkpt lat="44.50433" lon="5.88691">
        <ele>939</ele>
        <time>2019-06-15T09:15:32Z</time>
      </trkpt>
      <trkpt lat="44.50429" lon="5.88694">
        <ele>939</ele>
        <time>2019-06-15T09:15:33Z</time>
      </trkpt>
      <trkpt lat="44.50425" lon="5.88697">
        <ele>939</ele>
        <time>2019-06-15T09:15:34Z</time>
      </trkpt>
      <trkpt lat="44.50422" lon="5.887">
        <ele>939</ele>
        <time>2019-06-15T09:15:35Z</time>
      </trkpt>
      <trkpt lat="44.50418" lon="5.88703">
        <ele>939</ele>
        <time>2019-06-15T09:15:36Z</time>
      </trkpt>
      <trkpt lat="44.50414" lon="5.88705">
        <ele>939</ele>
        <time>2019-06-15T09:15:37Z</time>
      </trkpt>
      <trkpt lat="44.5041" lon="5.88708">
        <ele>939</ele>
        <time>2019-06-15T09:15:38Z</time>
      </trkpt>
      <trkpt lat="44.50407" lon="5.8871">
        <ele>939</ele>
        <time>2019-06-15T09:15:39Z</time>
      </trkpt>
      <trkpt lat="44.50403" lon="5.88714">
        <ele>939</ele>
        <time>2019-06-15T09:15:40Z</time>
      </trkpt>
      <trkpt lat="44.50399" lon="5.88716">
        <ele>939</ele>
        <time>2019-06-15T09:15:41Z</time>
      </trkpt>
      <trkpt lat="44.50396" lon="5.88719">
        <ele>939</ele>
        <time>2019-06-15T09:15:42Z</time>
      </trkpt>
      <trkpt lat="44.50391" lon="5.88722">
        <ele>939</ele>
        <time>2019-06-15T09:15:43Z</time>
      </trkpt>
      <trkpt lat="44.50388" lon="5.88725">
        <ele>940</ele>
        <time>2019-06-15T09:15:44Z</time>
      </trkpt>
      <trkpt lat="44.50384" lon="5.88728">
        <ele>940</ele>
        <time>2019-06-15T09:15:45Z</time>
      </trkpt>
      <trkpt lat="44.5038" lon="5.88731">
        <ele>940</ele>
        <time>2019-06-15T09:15:46Z</time>
      </trkpt>
      <trkpt lat="44.50376" lon="5.88734">
        <ele>940</ele>
        <time>2019-06-15T09:15:47Z</time>
      </trkpt>
      <trkpt lat="44.50372" lon="5.88736">
        <ele>940</ele>
        <time>2019-06-15T09:15:48Z</time>
      </trkpt>
      <trkpt lat="44.50369" lon="5.88739">
        <ele>940</ele>
        <time>2019-06-15T09:15:49Z</time>
      </trkpt>
      <trkpt lat="44.50365" lon="5.88742">
        <ele>940</ele>
        <time>2019-06-15T09:15:50Z</time>
      </trkpt>
      <trkpt lat="44.50361" lon="5.88745">
        <ele>941</ele>
        <time>2019-06-15T09:15:51Z</time>
      </trkpt>
      <trkpt lat="44.50357" lon="5.88748">
        <ele>941</ele>
        <time>2019-06-15T09:15:52Z</time>
      </trkpt>
      <trkpt lat="44.50354" lon="5.88751">
        <ele>941</ele>
        <time>2019-06-15T09:15:53Z</time>
      </trkpt>
      <trkpt lat="44.5035" lon="5.88754">
        <ele>941</ele>
        <time>2019-06-15T09:15:54Z</time>
      </trkpt>
      <trkpt lat="44.50346" lon="5.88757">
        <ele>941</ele>
        <time>2019-06-15T09:15:55Z</time>
      </trkpt>
      <trkpt lat="44.50343" lon="5.8876">
        <ele>941</ele>
        <time>2019-06-15T09:15:56Z</time>
      </trkpt>
      <trkpt lat="44.50339" lon="5.88762">
        <ele>941</ele>
        <time>2019-06-15T09:15:57Z</time>
      </trkpt>
      <trkpt lat="44.50335" lon="5.88765">
        <ele>942</ele>
        <time>2019-06-15T09:15:58Z</time>
      </trkpt>
      <trkpt lat="44.50331" lon="5.88768">
        <ele>942</ele>
        <time>2019-06-15T09:15:59Z</time>
      </trkpt>
      <trkpt lat="44.50328" lon="5.8877">
        <ele>942</ele>
        <time>2019-06-15T09:16:00Z</time>
      </trkpt>
      <trkpt lat="44.50324" lon="5.88773">
        <ele>942</ele>
        <time>2019-06-15T09:16:01Z</time>
      </trkpt>
      <trkpt lat="44.50321" lon="5.88776">
        <ele>942</ele>
        <time>2019-06-15T09:16:02Z</time>
      </trkpt>
      <trkpt lat="44.50317" lon="5.88779">
        <ele>942</ele>
        <time>2019-06-15T09:16:03Z</time>
      </trkpt>
      <trkpt lat="44.50314" lon="5.88782">
        <ele>942</ele>
        <time>2019-06-15T09:16:04Z</time>
      </trkpt>
      <trkpt lat="44.5031" lon="5.88785">
        <ele>943</ele>
        <time>2019-06-15T09:16:05Z</time>
      </trkpt>
      <trkpt lat="44.50307" lon="5.88788">
        <ele>943</ele>
        <time>2019-06-15T09:16:06Z</time>
      </trkpt>
      <trkpt lat="44.50304" lon="5.88791">
        <ele>943</ele>
        <time>2019-06-15T09:16:07Z</time>
      </trkpt>
      <trkpt lat="44.503" lon="5.88793">
        <ele>943</ele>
        <time>2019-06-15T09:16:08Z</time>
      </trkpt>
      <trkpt lat="44.50297" lon="5.88796">
        <ele>944</ele>
        <time>2019-06-15T09:16:09Z</time>
      </trkpt>
      <trkpt lat="44.50293" lon="5.88799">
        <ele>944</ele>
        <time>2019-06-15T09:16:10Z</time>
      </trkpt>
      <trkpt lat="44.5029" lon="5.88802">
        <ele>944</ele>
        <time>2019-06-15T09:16:11Z</time>
      </trkpt>
      <trkpt lat="44.50287" lon="5.88805">
        <ele>944</ele>
        <time>2019-06-15T09:16:12Z</time>
      </trkpt>
      <trkpt lat="44.50284" lon="5.88809">
        <ele>944</ele>
        <time>2019-06-15T09:16:13Z</time>
      </trkpt>
      <trkpt lat="44.50281" lon="5.88813">
        <ele>944</ele>
        <time>2019-06-15T09:16:14Z</time>
      </trkpt>
      <trkpt lat="44.50278" lon="5.88817">
        <ele>944</ele>
        <time>2019-06-15T09:16:15Z</time>
      </trkpt>
      <trkpt lat="44.50275" lon="5.88821">
        <ele>944</ele>
        <time>2019-06-15T09:16:16Z</time>
      </trkpt>
      <trkpt lat="44.50272" lon="5.88826">
        <ele>945</ele>
        <time>2019-06-15T09:16:17Z</time>
      </trkpt>
      <trkpt lat="44.50269" lon="5.8883">
        <ele>945</ele>
        <time>2019-06-15T09:16:18Z</time>
      </trkpt>
      <trkpt lat="44.50266" lon="5.88835">
        <ele>945</ele>
        <time>2019-06-15T09:16:19Z</time>
      </trkpt>
      <trkpt lat="44.50264" lon="5.88839">
        <ele>945</ele>
        <time>2019-06-15T09:16:20Z</time>
      </trkpt>
      <trkpt lat="44.50261" lon="5.88844">
        <ele>945</ele>
        <time>2019-06-15T09:16:21Z</time>
      </trkpt>
      <trkpt lat="44.50257" lon="5.88848">
        <ele>945</ele>
        <time>2019-06-15T09:16:22Z</time>
      </trkpt>
      <trkpt lat="44.50254" lon="5.88852">
        <ele>945</ele>
        <time>2019-06-15T09:16:23Z</time>
      </trkpt>
      <trkpt lat="44.50251" lon="5.88855">
        <ele>945</ele>
        <time>2019-06-15T09:16:24Z</time>
      </trkpt>
      <trkpt lat="44.50247" lon="5.88859">
        <ele>945</ele>
        <time>2019-06-15T09:16:25Z</time>
      </trkpt>
      <trkpt lat="44.50244" lon="5.88862">
        <ele>945</ele>
        <time>2019-06-15T09:16:26Z</time>
      </trkpt>
      <trkpt lat="44.5024" lon="5.88866">
        <ele>945</ele>
        <time>2019-06-15T09:16:27Z</time>
      </trkpt>
      <trkpt lat="44.50237" lon="5.88869">
        <ele>945</ele>
        <time>2019-06-15T09:16:28Z</time>
      </trkpt>
      <trkpt lat="44.50233" lon="5.88872">
        <ele>945</ele>
        <time>2019-06-15T09:16:29Z</time>
      </trkpt>
      <trkpt lat="44.5023" lon="5.88875">
        <ele>945</ele>
        <time>2019-06-15T09:16:30Z</time>
      </trkpt>
      <trkpt lat="44.50226" lon="5.88878">
        <ele>946</ele>
        <time>2019-06-15T09:16:31Z</time>
      </trkpt>
      <trkpt lat="44.50222" lon="5.88881">
        <ele>946</ele>
        <time>2019-06-15T09:16:32Z</time>
      </trkpt>
      <trkpt lat="44.50219" lon="5.88884">
        <ele>946</ele>
        <time>2019-06-15T09:16:33Z</time>
      </trkpt>
      <trkpt lat="44.50215" lon="5.88887">
        <ele>946</ele>
        <time>2019-06-15T09:16:34Z</time>
      </trkpt>
      <trkpt lat="44.50212" lon="5.88891">
        <ele>946</ele>
        <time>2019-06-15T09:16:35Z</time>
      </trkpt>
      <trkpt lat="44.50209" lon="5.88894">
        <ele>946</ele>
        <time>2019-06-15T09:16:36Z</time>
      </trkpt>
      <trkpt lat="44.50205" lon="5.88897">
        <ele>946</ele>
        <time>2019-06-15T09:16:37Z</time>
      </trkpt>
      <trkpt lat="44.50201" lon="5.88899">
        <ele>946</ele>
        <time>2019-06-15T09:16:38Z</time>
      </trkpt>
      <trkpt lat="44.50197" lon="5.88902">
        <ele>947</ele>
        <time>2019-06-15T09:16:39Z</time>
      </trkpt>
      <trkpt lat="44.50194" lon="5.88905">
        <ele>947</ele>
        <time>2019-06-15T09:16:40Z</time>
      </trkpt>
      <trkpt lat="44.5019" lon="5.88908">
        <ele>947</ele>
        <time>2019-06-15T09:16:41Z</time>
      </trkpt>
      <trkpt lat="44.50187" lon="5.88911">
        <ele>947</ele>
        <time>2019-06-15T09:16:42Z</time>
      </trkpt>
      <trkpt lat="44.50183" lon="5.88914">
        <ele>947</ele>
        <time>2019-06-15T09:16:43Z</time>
      </trkpt>
      <trkpt lat="44.5018" lon="5.88917">
        <ele>947</ele>
        <time>2019-06-15T09:16:44Z</time>
      </trkpt>
      <trkpt lat="44.50176" lon="5.88921">
        <ele>947</ele>
        <time>2019-06-15T09:16:45Z</time>
      </trkpt>
      <trkpt lat="44.50173" lon="5.88925">
        <ele>948</ele>
        <time>2019-06-15T09:16:46Z</time>
      </trkpt>
      <trkpt lat="44.5017" lon="5.88929">
        <ele>948</ele>
        <time>2019-06-15T09:16:47Z</time>
      </trkpt>
      <trkpt lat="44.50167" lon="5.88934">
        <ele>948</ele>
        <time>2019-06-15T09:16:48Z</time>
      </trkpt>
      <trkpt lat="44.50164" lon="5.88939">
        <ele>948</ele>
        <time>2019-06-15T09:16:49Z</time>
      </trkpt>
      <trkpt lat="44.50162" lon="5.88943">
        <ele>948</ele>
        <time>2019-06-15T09:16:50Z</time>
      </trkpt>
      <trkpt lat="44.50159" lon="5.88949">
        <ele>949</ele>
        <time>2019-06-15T09:16:51Z</time>
      </trkpt>
      <trkpt lat="44.50157" lon="5.88954">
        <ele>949</ele>
        <time>2019-06-15T09:16:52Z</time>
      </trkpt>
      <trkpt lat="44.50154" lon="5.88959">
        <ele>949</ele>
        <time>2019-06-15T09:16:53Z</time>
      </trkpt>
      <trkpt lat="44.50152" lon="5.88964">
        <ele>949</ele>
        <time>2019-06-15T09:16:54Z</time>
      </trkpt>
      <trkpt lat="44.5015" lon="5.88969">
        <ele>949</ele>
        <time>2019-06-15T09:16:55Z</time>
      </trkpt>
      <trkpt lat="44.50147" lon="5.88973">
        <ele>949</ele>
        <time>2019-06-15T09:16:56Z</time>
      </trkpt>
      <trkpt lat="44.50145" lon="5.88978">
        <ele>949</ele>
        <time>2019-06-15T09:16:57Z</time>
      </trkpt>
      <trkpt lat="44.50142" lon="5.88982">
        <ele>950</ele>
        <time>2019-06-15T09:16:58Z</time>
      </trkpt>
      <trkpt lat="44.50139" lon="5.88987">
        <ele>950</ele>
        <time>2019-06-15T09:16:59Z</time>
      </trkpt>
      <trkpt lat="44.50137" lon="5.88992">
        <ele>950</ele>
        <time>2019-06-15T09:17:00Z</time>
      </trkpt>
      <trkpt lat="44.50135" lon="5.88996">
        <ele>950</ele>
        <time>2019-06-15T09:17:01Z</time>
      </trkpt>
      <trkpt lat="44.50132" lon="5.89001">
        <ele>950</ele>
        <time>2019-06-15T09:17:02Z</time>
      </trkpt>
      <trkpt lat="44.5013" lon="5.89006">
        <ele>950</ele>
        <time>2019-06-15T09:17:03Z</time>
      </trkpt>
      <trkpt lat="44.50128" lon="5.89011">
        <ele>950</ele>
        <time>2019-06-15T09:17:04Z</time>
      </trkpt>
      <trkpt lat="44.50126" lon="5.89016">
        <ele>951</ele>
        <time>2019-06-15T09:17:05Z</time>
      </trkpt>
      <trkpt lat="44.50124" lon="5.89021">
        <ele>951</ele>
        <time>2019-06-15T09:17:06Z</time>
      </trkpt>
      <trkpt lat="44.50122" lon="5.89027">
        <ele>951</ele>
        <time>2019-06-15T09:17:07Z</time>
      </trkpt>
      <trkpt lat="44.50121" lon="5.89033">
        <ele>951</ele>
        <time>2019-06-15T09:17:08Z</time>
      </trkpt>
      <trkpt lat="44.50119" lon="5.89038">
        <ele>952</ele>
        <time>2019-06-15T09:17:09Z</time>
      </trkpt>
      <trkpt lat="44.50118" lon="5.89044">
        <ele>952</ele>
        <time>2019-06-15T09:17:10Z</time>
      </trkpt>
      <trkpt lat="44.50118" lon="5.89049">
        <ele>952</ele>
        <time>2019-06-15T09:17:11Z</time>
      </trkpt>
      <trkpt lat="44.50117" lon="5.89055">
        <ele>952</ele>
        <time>2019-06-15T09:17:12Z</time>
      </trkpt>
      <trkpt lat="44.50117" lon="5.89061">
        <ele>953</ele>
        <time>2019-06-15T09:17:13Z</time>
      </trkpt>
      <trkpt lat="44.50116" lon="5.89067">
        <ele>953</ele>
        <time>2019-06-15T09:17:14Z</time>
      </trkpt>
      <trkpt lat="44.50117" lon="5.89073">
        <ele>953</ele>
        <time>2019-06-15T09:17:15Z</time>
      </trkpt>
      <trkpt lat="44.50117" lon="5.89079">
        <ele>953</ele>
        <time>2019-06-15T09:17:16Z</time>
      </trkpt>
      <trkpt lat="44.50117" lon="5.89085">
        <ele>953</ele>
        <time>2019-06-15T09:17:17Z</time>
      </trkpt>
      <trkpt lat="44.50117" lon="5.89091">
        <ele>953</ele>
        <time>2019-06-15T09:17:18Z</time>
      </trkpt>
      <trkpt lat="44.50116" lon="5.89097">
        <ele>953</ele>
        <time>2019-06-15T09:17:19Z</time>
      </trkpt>
      <trkpt lat="44.50116" lon="5.89103">
        <ele>953</ele>
        <time>2019-06-15T09:17:20Z</time>
      </trkpt>
      <trkpt lat="44.50116" lon="5.89109">
        <ele>953</ele>
        <time>2019-06-15T09:17:21Z</time>
      </trkpt>
      <trkpt lat="44.50116" lon="5.89114">
        <ele>953</ele>
        <time>2019-06-15T09:17:22Z</time>
      </trkpt>
      <trkpt lat="44.50115" lon="5.8912">
        <ele>953</ele>
        <time>2019-06-15T09:17:23Z</time>
      </trkpt>
      <trkpt lat="44.50115" lon="5.89126">
        <ele>953</ele>
        <time>2019-06-15T09:17:24Z</time>
      </trkpt>
      <trkpt lat="44.50114" lon="5.89132">
        <ele>953</ele>
        <time>2019-06-15T09:17:25Z</time>
      </trkpt>
      <trkpt lat="44.50113" lon="5.89137">
        <ele>953</ele>
        <time>2019-06-15T09:17:26Z</time>
      </trkpt>
      <trkpt lat="44.50112" lon="5.89143">
        <ele>953</ele>
        <time>2019-06-15T09:17:27Z</time>
      </trkpt>
      <trkpt lat="44.50111" lon="5.89149">
        <ele>953</ele>
        <time>2019-06-15T09:17:28Z</time>
      </trkpt>
      <trkpt lat="44.5011" lon="5.89154">
        <ele>953</ele>
        <time>2019-06-15T09:17:29Z</time>
      </trkpt>
      <trkpt lat="44.50108" lon="5.89159">
        <ele>953</ele>
        <time>2019-06-15T09:17:30Z</time>
      </trkpt>
      <trkpt lat="44.50107" lon="5.89164">
        <ele>953</ele>
        <time>2019-06-15T09:17:31Z</time>
      </trkpt>
      <trkpt lat="44.50105" lon="5.8917">
        <ele>953</ele>
        <time>2019-06-15T09:17:32Z</time>
      </trkpt>
      <trkpt lat="44.50104" lon="5.89175">
        <ele>953</ele>
        <time>2019-06-15T09:17:33Z</time>
      </trkpt>
      <trkpt lat="44.50102" lon="5.8918">
        <ele>954</ele>
        <time>2019-06-15T09:17:34Z</time>
      </trkpt>
      <trkpt lat="44.501" lon="5.89186">
        <ele>954</ele>
        <time>2019-06-15T09:17:35Z</time>
      </trkpt>
      <trkpt lat="44.50099" lon="5.89191">
        <ele>954</ele>
        <time>2019-06-15T09:17:36Z</time>
      </trkpt>
      <trkpt lat="44.50098" lon="5.89196">
        <ele>954</ele>
        <time>2019-06-15T09:17:37Z</time>
      </trkpt>
      <trkpt lat="44.50097" lon="5.89202">
        <ele>954</ele>
        <time>2019-06-15T09:17:38Z</time>
      </trkpt>
      <trkpt lat="44.50096" lon="5.89207">
        <ele>954</ele>
        <time>2019-06-15T09:17:39Z</time>
      </trkpt>
      <trkpt lat="44.50095" lon="5.89213">
        <ele>955</ele>
        <time>2019-06-15T09:17:40Z</time>
      </trkpt>
      <trkpt lat="44.50095" lon="5.89219">
        <ele>955</ele>
        <time>2019-06-15T09:17:41Z</time>
      </trkpt>
      <trkpt lat="44.50094" lon="5.89225">
        <ele>955</ele>
        <time>2019-06-15T09:17:42Z</time>
      </trkpt>
      <trkpt lat="44.50093" lon="5.89231">
        <ele>955</ele>
        <time>2019-06-15T09:17:43Z</time>
      </trkpt>
      <trkpt lat="44.50093" lon="5.89237">
        <ele>955</ele>
        <time>2019-06-15T09:17:44Z</time>
      </trkpt>
      <trkpt lat="44.50092" lon="5.89243">
        <ele>955</ele>
        <time>2019-06-15T09:17:45Z</time>
      </trkpt>
      <trkpt lat="44.50092" lon="5.89249">
        <ele>955</ele>
        <time>2019-06-15T09:17:46Z</time>
      </trkpt>
      <trkpt lat="44.50091" lon="5.89255">
        <ele>955</ele>
        <time>2019-06-15T09:17:47Z</time>
      </trkpt>
      <trkpt lat="44.5009" lon="5.89262">
        <ele>955</ele>
        <time>2019-06-15T09:17:48Z</time>
      </trkpt>
      <trkpt lat="44.5009" lon="5.89267">
        <ele>955</ele>
        <time>2019-06-15T09:17:49Z</time>
      </trkpt>
      <trkpt lat="44.50089" lon="5.89273">
        <ele>955</ele>
        <time>2019-06-15T09:17:50Z</time>
      </trkpt>
      <trkpt lat="44.50087" lon="5.89279">
        <ele>956</ele>
        <time>2019-06-15T09:17:51Z</time>
      </trkpt>
      <trkpt lat="44.50086" lon="5.89285">
        <ele>956</ele>
        <time>2019-06-15T09:17:52Z</time>
      </trkpt>
      <trkpt lat="44.50085" lon="5.89291">
        <ele>956</ele>
        <time>2019-06-15T09:17:53Z</time>
      </trkpt>
      <trkpt lat="44.50083" lon="5.89296">
        <ele>956</ele>
        <time>2019-06-15T09:17:54Z</time>
      </trkpt>
      <trkpt lat="44.50081" lon="5.89302">
        <ele>957</ele>
        <time>2019-06-15T09:17:55Z</time>
      </trkpt>
      <trkpt lat="44.50079" lon="5.89308">
        <ele>957</ele>
        <time>2019-06-15T09:17:56Z</time>
      </trkpt>
      <trkpt lat="44.50077" lon="5.89314">
        <ele>957</ele>
        <time>2019-06-15T09:17:57Z</time>
      </trkpt>
      <trkpt lat="44.50074" lon="5.89319">
        <ele>957</ele>
        <time>2019-06-15T09:17:58Z</time>
      </trkpt>
      <trkpt lat="44.50071" lon="5.89323">
        <ele>957</ele>
        <time>2019-06-15T09:17:59Z</time>
      </trkpt>
      <trkpt lat="44.50067" lon="5.89327">
        <ele>957</ele>
        <time>2019-06-15T09:18:00Z</time>
      </trkpt>
      <trkpt lat="44.50064" lon="5.89331">
        <ele>957</ele>
        <time>2019-06-15T09:18:01Z</time>
      </trkpt>
      <trkpt lat="44.5006" lon="5.89335">
        <ele>957</ele>
        <time>2019-06-15T09:18:02Z</time>
      </trkpt>
      <trkpt lat="44.50056" lon="5.89339">
        <ele>958</ele>
        <time>2019-06-15T09:18:03Z</time>
      </trkpt>
      <trkpt lat="44.50053" lon="5.89344">
        <ele>958</ele>
        <time>2019-06-15T09:18:04Z</time>
      </trkpt>
      <trkpt lat="44.50049" lon="5.89348">
        <ele>958</ele>
        <time>2019-06-15T09:18:05Z</time>
      </trkpt>
      <trkpt lat="44.50045" lon="5.89352">
        <ele>958</ele>
        <time>2019-06-15T09:18:06Z</time>
      </trkpt>
      <trkpt lat="44.50041" lon="5.89356">
        <ele>958</ele>
        <time>2019-06-15T09:18:07Z</time>
      </trkpt>
      <trkpt lat="44.50037" lon="5.89359">
        <ele>958</ele>
        <time>2019-06-15T09:18:08Z</time>
      </trkpt>
      <trkpt lat="44.50033" lon="5.89363">
        <ele>958</ele>
        <time>2019-06-15T09:18:09Z</time>
      </trkpt>
      <trkpt lat="44.50029" lon="5.89368">
        <ele>958</ele>
        <time>2019-06-15T09:18:10Z</time>
      </trkpt>
      <trkpt lat="44.50025" lon="5.89372">
        <ele>958</ele>
        <time>2019-06-15T09:18:11Z</time>
      </trkpt>
      <trkpt lat="44.50021" lon="5.89375">
        <ele>958</ele>
        <time>2019-06-15T09:18:12Z</time>
      </trkpt>
      <trkpt lat="44.50017" lon="5.89379">
        <ele>959</ele>
        <time>2019-06-15T09:18:13Z</time>
      </trkpt>
      <trkpt lat="44.50014" lon="5.89383">
        <ele>959</ele>
        <time>2019-06-15T09:18:14Z</time>
      </trkpt>
      <trkpt lat="44.5001" lon="5.89387">
        <ele>959</ele>
        <time>2019-06-15T09:18:15Z</time>
      </trkpt>
      <trkpt lat="44.50006" lon="5.8939">
        <ele>959</ele>
        <time>2019-06-15T09:18:16Z</time>
      </trkpt>
      <trkpt lat="44.50003" lon="5.89394">
        <ele>959</ele>
        <time>2019-06-15T09:18:17Z</time>
      </trkpt>
      <trkpt lat="44.49999" lon="5.89397">
        <ele>959</ele>
        <time>2019-06-15T09:18:18Z</time>
      </trkpt>
      <trkpt lat="44.49996" lon="5.894">
        <ele>959</ele>
        <time>2019-06-15T09:18:19Z</time>
      </trkpt>
      <trkpt lat="44.49992" lon="5.89403">
        <ele>959</ele>
        <time>2019-06-15T09:18:20Z</time>
      </trkpt>
      <trkpt lat="44.49989" lon="5.89407">
        <ele>959</ele>
        <time>2019-06-15T09:18:21Z</time>
      </trkpt>
      <trkpt lat="44.49986" lon="5.89411">
        <ele>959</ele>
        <time>2019-06-15T09:18:22Z</time>
      </trkpt>
      <trkpt lat="44.49983" lon="5.89415">
        <ele>959</ele>
        <time>2019-06-15T09:18:23Z</time>
      </trkpt>
      <trkpt lat="44.49979" lon="5.89419">
        <ele>959</ele>
        <time>2019-06-15T09:18:24Z</time>
      </trkpt>
      <trkpt lat="44.49976" lon="5.89423">
        <ele>959</ele>
        <time>2019-06-15T09:18:25Z</time>
      </trkpt>
      <trkpt lat="44.49973" lon="5.89427">
        <ele>959</ele>
        <time>2019-06-15T09:18:26Z</time>
      </trkpt>
      <trkpt lat="44.4997" lon="5.89432">
        <ele>960</ele>
        <time>2019-06-15T09:18:27Z</time>
      </trkpt>
      <trkpt lat="44.49967" lon="5.89436">
        <ele>960</ele>
        <time>2019-06-15T09:18:28Z</time>
      </trkpt>
      <trkpt lat="44.49965" lon="5.89441">
        <ele>960</ele>
        <time>2019-06-15T09:18:29Z</time>
      </trkpt>
      <trkpt lat="44.49962" lon="5.89446">
        <ele>960</ele>
        <time>2019-06-15T09:18:30Z</time>
      </trkpt>
      <trkpt lat="44.4996" lon="5.89452">
        <ele>960</ele>
        <time>2019-06-15T09:18:31Z</time>
      </trkpt>
      <trkpt lat="44.49957" lon="5.89457">
        <ele>960</ele>
        <time>2019-06-15T09:18:32Z</time>
      </trkpt>
      <trkpt lat="44.49954" lon="5.89462">
        <ele>961</ele>
        <time>2019-06-15T09:18:33Z</time>
      </trkpt>
      <trkpt lat="44.49952" lon="5.89466">
        <ele>961</ele>
        <time>2019-06-15T09:18:34Z</time>
      </trkpt>
      <trkpt lat="44.49949" lon="5.89471">
        <ele>961</ele>
        <time>2019-06-15T09:18:35Z</time>
      </trkpt>
      <trkpt lat="44.49946" lon="5.89475">
        <ele>961</ele>
        <time>2019-06-15T09:18:36Z</time>
      </trkpt>
      <trkpt lat="44.49944" lon="5.8948">
        <ele>962</ele>
        <time>2019-06-15T09:18:37Z</time>
      </trkpt>
      <trkpt lat="44.49941" lon="5.89484">
        <ele>962</ele>
        <time>2019-06-15T09:18:38Z</time>
      </trkpt>
      <trkpt lat="44.49938" lon="5.89488">
        <ele>962</ele>
        <time>2019-06-15T09:18:39Z</time>
      </trkpt>
      <trkpt lat="44.49935" lon="5.89492">
        <ele>962</ele>
        <time>2019-06-15T09:18:40Z</time>
      </trkpt>
      <trkpt lat="44.49933" lon="5.89496">
        <ele>963</ele>
        <time>2019-06-15T09:18:41Z</time>
      </trkpt>
      <trkpt lat="44.4993" lon="5.895">
        <ele>963</ele>
        <time>2019-06-15T09:18:42Z</time>
      </trkpt>
      <trkpt lat="44.49928" lon="5.89504">
        <ele>963</ele>
        <time>2019-06-15T09:18:43Z</time>
      </trkpt>
      <trkpt lat="44.49925" lon="5.89509">
        <ele>963</ele>
        <time>2019-06-15T09:18:44Z</time>
      </trkpt>
      <trkpt lat="44.49923" lon="5.89513">
        <ele>963</ele>
        <time>2019-06-15T09:18:45Z</time>
      </trkpt>
      <trkpt lat="44.49921" lon="5.89519">
        <ele>963</ele>
        <time>2019-06-15T09:18:46Z</time>
      </trkpt>
      <trkpt lat="44.49919" lon="5.89524">
        <ele>964</ele>
        <time>2019-06-15T09:18:47Z</time>
      </trkpt>
      <trkpt lat="44.49918" lon="5.8953">
        <ele>964</ele>
        <time>2019-06-15T09:18:48Z</time>
      </trkpt>
      <trkpt lat="44.49916" lon="5.89536">
        <ele>964</ele>
        <time>2019-06-15T09:18:49Z</time>
      </trkpt>
      <trkpt lat="44.49914" lon="5.89542">
        <ele>964</ele>
        <time>2019-06-15T09:18:50Z</time>
      </trkpt>
      <trkpt lat="44.49912" lon="5.89547">
        <ele>964</ele>
        <time>2019-06-15T09:18:51Z</time>
      </trkpt>
      <trkpt lat="44.4991" lon="5.89553">
        <ele>964</ele>
        <time>2019-06-15T09:18:52Z</time>
      </trkpt>
      <trkpt lat="44.49908" lon="5.89559">
        <ele>964</ele>
        <time>2019-06-15T09:18:53Z</time>
      </trkpt>
      <trkpt lat="44.49905" lon="5.89564">
        <ele>964</ele>
        <time>2019-06-15T09:18:54Z</time>
      </trkpt>
      <trkpt lat="44.49902" lon="5.89569">
        <ele>964</ele>
        <time>2019-06-15T09:18:55Z</time>
      </trkpt>
      <trkpt lat="44.49899" lon="5.89573">
        <ele>964</ele>
        <time>2019-06-15T09:18:56Z</time>
      </trkpt>
      <trkpt lat="44.49895" lon="5.89577">
        <ele>964</ele>
        <time>2019-06-15T09:18:57Z</time>
      </trkpt>
      <trkpt lat="44.49892" lon="5.89581">
        <ele>964</ele>
        <time>2019-06-15T09:18:58Z</time>
      </trkpt>
      <trkpt lat="44.49888" lon="5.89583">
        <ele>964</ele>
        <time>2019-06-15T09:18:59Z</time>
      </trkpt>
      <trkpt lat="44.49884" lon="5.89586">
        <ele>964</ele>
        <time>2019-06-15T09:19:00Z</time>
      </trkpt>
      <trkpt lat="44.4988" lon="5.89588">
        <ele>964</ele>
        <time>2019-06-15T09:19:01Z</time>
      </trkpt>
      <trkpt lat="44.49875" lon="5.8959">
        <ele>964</ele>
        <time>2019-06-15T09:19:02Z</time>
      </trkpt>
      <trkpt lat="44.49871" lon="5.89591">
        <ele>964</ele>
        <time>2019-06-15T09:19:03Z</time>
      </trkpt>
      <trkpt lat="44.49867" lon="5.89593">
        <ele>965</ele>
        <time>2019-06-15T09:19:04Z</time>
      </trkpt>
      <trkpt lat="44.49863" lon="5.89594">
        <ele>965</ele>
        <time>2019-06-15T09:19:05Z</time>
      </trkpt>
      <trkpt lat="44.49859" lon="5.89595">
        <ele>965</ele>
        <time>2019-06-15T09:19:06Z</time>
      </trkpt>
      <trkpt lat="44.49855" lon="5.89596">
        <ele>966</ele>
        <time>2019-06-15T09:19:07Z</time>
      </trkpt>
      <trkpt lat="44.49851" lon="5.89597">
        <ele>966</ele>
        <time>2019-06-15T09:19:08Z</time>
      </trkpt>
      <trkpt lat="44.49847" lon="5.896">
        <ele>967</ele>
        <time>2019-06-15T09:19:09Z</time>
      </trkpt>
      <trkpt lat="44.49844" lon="5.89601">
        <ele>967</ele>
        <time>2019-06-15T09:19:10Z</time>
      </trkpt>
      <trkpt lat="44.49839" lon="5.89603">
        <ele>968</ele>
        <time>2019-06-15T09:19:11Z</time>
      </trkpt>
      <trkpt lat="44.49835" lon="5.89605">
        <ele>968</ele>
        <time>2019-06-15T09:19:12Z</time>
      </trkpt>
      <trkpt lat="44.49831" lon="5.89606">
        <ele>968</ele>
        <time>2019-06-15T09:19:13Z</time>
      </trkpt>
      <trkpt lat="44.49826" lon="5.89607">
        <ele>969</ele>
        <time>2019-06-15T09:19:14Z</time>
      </trkpt>
      <trkpt lat="44.49822" lon="5.89609">
        <ele>969</ele>
        <time>2019-06-15T09:19:15Z</time>
      </trkpt>
      <trkpt lat="44.49818" lon="5.89611">
        <ele>969</ele>
        <time>2019-06-15T09:19:16Z</time>
      </trkpt>
      <trkpt lat="44.49813" lon="5.89613">
        <ele>969</ele>
        <time>2019-06-15T09:19:17Z</time>
      </trkpt>
      <trkpt lat="44.49809" lon="5.89614">
        <ele>969</ele>
        <time>2019-06-15T09:19:18Z</time>
      </trkpt>
      <trkpt lat="44.49805" lon="5.89615">
        <ele>969</ele>
        <time>2019-06-15T09:19:19Z</time>
      </trkpt>
      <trkpt lat="44.498" lon="5.89616">
        <ele>969</ele>
        <time>2019-06-15T09:19:20Z</time>
      </trkpt>
      <trkpt lat="44.49796" lon="5.89616">
        <ele>970</ele>
        <time>2019-06-15T09:19:21Z</time>
      </trkpt>
      <trkpt lat="44.49791" lon="5.89616">
        <ele>970</ele>
        <time>2019-06-15T09:19:22Z</time>
      </trkpt>
      <trkpt lat="44.49787" lon="5.89615">
        <ele>970</ele>
        <time>2019-06-15T09:19:23Z</time>
      </trkpt>
      <trkpt lat="44.49783" lon="5.89615">
        <ele>971</ele>
        <time>2019-06-15T09:19:24Z</time>
      </trkpt>
      <trkpt lat="44.49779" lon="5.89614">
        <ele>971</ele>
        <time>2019-06-15T09:19:25Z</time>
      </trkpt>
      <trkpt lat="44.49775" lon="5.89612">
        <ele>972</ele>
        <time>2019-06-15T09:19:26Z</time>
      </trkpt>
      <trkpt lat="44.49771" lon="5.8961">
        <ele>972</ele>
        <time>2019-06-15T09:19:27Z</time>
      </trkpt>
      <trkpt lat="44.49767" lon="5.89608">
        <ele>973</ele>
        <time>2019-06-15T09:19:28Z</time>
      </trkpt>
      <trkpt lat="44.49762" lon="5.89607">
        <ele>973</ele>
        <time>2019-06-15T09:19:29Z</time>
      </trkpt>
      <trkpt lat="44.49759" lon="5.89605">
        <ele>974</ele>
        <time>2019-06-15T09:19:30Z</time>
      </trkpt>
      <trkpt lat="44.49754" lon="5.89603">
        <ele>975</ele>
        <time>2019-06-15T09:19:31Z</time>
      </trkpt>
      <trkpt lat="44.49751" lon="5.89601">
        <ele>976</ele>
        <time>2019-06-15T09:19:32Z</time>
      </trkpt>
      <trkpt lat="44.49747" lon="5.89597">
        <ele>977</ele>
        <time>2019-06-15T09:19:33Z</time>
      </trkpt>
      <trkpt lat="44.49744" lon="5.89593">
        <ele>978</ele>
        <time>2019-06-15T09:19:34Z</time>
      </trkpt>
      <trkpt lat="44.49739" lon="5.8959">
        <ele>979</ele>
        <time>2019-06-15T09:19:35Z</time>
      </trkpt>
      <trkpt lat="44.49736" lon="5.89586">
        <ele>980</ele>
        <time>2019-06-15T09:19:36Z</time>
      </trkpt>
      <trkpt lat="44.49732" lon="5.89582">
        <ele>981</ele>
        <time>2019-06-15T09:19:37Z</time>
      </trkpt>
      <trkpt lat="44.49729" lon="5.89577">
        <ele>982</ele>
        <time>2019-06-15T09:19:38Z</time>
      </trkpt>
      <trkpt lat="44.49727" lon="5.89572">
        <ele>983</ele>
        <time>2019-06-15T09:19:39Z</time>
      </trkpt>
      <trkpt lat="44.49725" lon="5.89566">
        <ele>983</ele>
        <time>2019-06-15T09:19:40Z</time>
      </trkpt>
      <trkpt lat="44.49723" lon="5.8956">
        <ele>983</ele>
        <time>2019-06-15T09:19:41Z</time>
      </trkpt>
      <trkpt lat="44.49721" lon="5.89554">
        <ele>983</ele>
        <time>2019-06-15T09:19:42Z</time>
      </trkpt>
      <trkpt lat="44.49719" lon="5.89548">
        <ele>983</ele>
        <time>2019-06-15T09:19:43Z</time>
      </trkpt>
      <trkpt lat="44.49716" lon="5.89544">
        <ele>983</ele>
        <time>2019-06-15T09:19:44Z</time>
      </trkpt>
      <trkpt lat="44.49712" lon="5.89543">
        <ele>983</ele>
        <time>2019-06-15T09:19:45Z</time>
      </trkpt>
      <trkpt lat="44.49707" lon="5.89544">
        <ele>983</ele>
        <time>2019-06-15T09:19:46Z</time>
      </trkpt>
      <trkpt lat="44.49703" lon="5.89546">
        <ele>983</ele>
        <time>2019-06-15T09:19:47Z</time>
      </trkpt>
      <trkpt lat="44.49699" lon="5.89548">
        <ele>983</ele>
        <time>2019-06-15T09:19:48Z</time>
      </trkpt>
      <trkpt lat="44.49695" lon="5.89549">
        <ele>983</ele>
        <time>2019-06-15T09:19:49Z</time>
      </trkpt>
      <trkpt lat="44.49692" lon="5.89551">
        <ele>983</ele>
        <time>2019-06-15T09:19:50Z</time>
      </trkpt>
      <trkpt lat="44.49688" lon="5.89554">
        <ele>983</ele>
        <time>2019-06-15T09:19:51Z</time>
      </trkpt>
      <trkpt lat="44.49686" lon="5.89555">
        <ele>982</ele>
        <time>2019-06-15T09:19:52Z</time>
      </trkpt>
      <trkpt lat="44.49682" lon="5.89558">
        <ele>982</ele>
        <time>2019-06-15T09:19:53Z</time>
      </trkpt>
      <trkpt lat="44.49679" lon="5.89559">
        <ele>982</ele>
        <time>2019-06-15T09:19:54Z</time>
      </trkpt>
      <trkpt lat="44.49676" lon="5.89561">
        <ele>982</ele>
        <time>2019-06-15T09:19:55Z</time>
      </trkpt>
      <trkpt lat="44.49672" lon="5.89562">
        <ele>982</ele>
        <time>2019-06-15T09:19:56Z</time>
      </trkpt>
      <trkpt lat="44.49669" lon="5.89562">
        <ele>982</ele>
        <time>2019-06-15T09:19:57Z</time>
      </trkpt>
      <trkpt lat="44.49666" lon="5.89563">
        <ele>982</ele>
        <time>2019-06-15T09:19:58Z</time>
      </trkpt>
      <trkpt lat="44.49663" lon="5.89563">
        <ele>982</ele>
        <time>2019-06-15T09:19:59Z</time>
      </trkpt>
      <trkpt lat="44.49661" lon="5.89564">
        <ele>982</ele>
        <time>2019-06-15T09:20:00Z</time>
      </trkpt>
      <trkpt lat="44.49658" lon="5.89565">
        <ele>982</ele>
        <time>2019-06-15T09:20:01Z</time>
      </trkpt>
      <trkpt lat="44.49656" lon="5.89566">
        <ele>982</ele>
        <time>2019-06-15T09:20:02Z</time>
      </trkpt>
      <trkpt lat="44.49653" lon="5.89568">
        <ele>983</ele>
        <time>2019-06-15T09:20:03Z</time>
      </trkpt>
      <trkpt lat="44.4965" lon="5.8957">
        <ele>984</ele>
        <time>2019-06-15T09:20:04Z</time>
      </trkpt>
      <trkpt lat="44.49647" lon="5.89572">
        <ele>985</ele>
        <time>2019-06-15T09:20:05Z</time>
      </trkpt>
      <trkpt lat="44.49644" lon="5.89574">
        <ele>985</ele>
        <time>2019-06-15T09:20:06Z</time>
      </trkpt>
      <trkpt lat="44.49641" lon="5.89576">
        <ele>986</ele>
        <time>2019-06-15T09:20:07Z</time>
      </trkpt>
      <trkpt lat="44.4964" lon="5.89577">
        <ele>986</ele>
        <time>2019-06-15T09:20:08Z</time>
      </trkpt>
      <trkpt lat="44.49638" lon="5.89578">
        <ele>986</ele>
        <time>2019-06-15T09:20:09Z</time>
      </trkpt>
      <trkpt lat="44.49635" lon="5.8958">
        <ele>986</ele>
        <time>2019-06-15T09:20:10Z</time>
      </trkpt>
      <trkpt lat="44.49633" lon="5.89582">
        <ele>986</ele>
        <time>2019-06-15T09:20:11Z</time>
      </trkpt>
      <trkpt lat="44.49631" lon="5.89584">
        <ele>986</ele>
        <time>2019-06-15T09:20:12Z</time>
      </trkpt>
      <trkpt lat="44.49629" lon="5.89586">
        <ele>986</ele>
        <time>2019-06-15T09:20:13Z</time>
      </trkpt>
      <trkpt lat="44.49627" lon="5.89588">
        <ele>986</ele>
        <time>2019-06-15T09:20:14Z</time>
      </trkpt>
      <trkpt lat="44.49625" lon="5.8959">
        <ele>986</ele>
        <time>2019-06-15T09:20:15Z</time>
      </trkpt>
      <trkpt lat="44.49623" lon="5.89593">
        <ele>986</ele>
        <time>2019-06-15T09:20:16Z</time>
      </trkpt>
      <trkpt lat="44.49621" lon="5.89596">
        <ele>986</ele>
        <time>2019-06-15T09:20:17Z</time>
      </trkpt>
      <trkpt lat="44.49619" lon="5.89599">
        <ele>986</ele>
        <time>2019-06-15T09:20:18Z</time>
      </trkpt>
      <trkpt lat="44.49617" lon="5.89601">
        <ele>986</ele>
        <time>2019-06-15T09:20:19Z</time>
      </trkpt>
      <trkpt lat="44.49615" lon="5.89603">
        <ele>986</ele>
        <time>2019-06-15T09:20:20Z</time>
      </trkpt>
      <trkpt lat="44.49613" lon="5.89606">
        <ele>986</ele>
        <time>2019-06-15T09:20:21Z</time>
      </trkpt>
      <trkpt lat="44.49611" lon="5.89608">
        <ele>986</ele>
        <time>2019-06-15T09:20:22Z</time>
      </trkpt>
      <trkpt lat="44.49609" lon="5.89611">
        <ele>986</ele>
        <time>2019-06-15T09:20:23Z</time>
      </trkpt>
      <trkpt lat="44.49606" lon="5.89614">
        <ele>986</ele>
        <time>2019-06-15T09:20:24Z</time>
      </trkpt>
      <trkpt lat="44.49604" lon="5.89615">
        <ele>986</ele>
        <time>2019-06-15T09:20:25Z</time>
      </trkpt>
      <trkpt lat="44.49601" lon="5.89618">
        <ele>986</ele>
        <time>2019-06-15T09:20:26Z</time>
      </trkpt>
      <trkpt lat="44.49598" lon="5.8962">
        <ele>986</ele>
        <time>2019-06-15T09:20:27Z</time>
      </trkpt>
      <trkpt lat="44.49595" lon="5.89622">
        <ele>986</ele>
        <time>2019-06-15T09:20:28Z</time>
      </trkpt>
      <trkpt lat="44.49592" lon="5.89624">
        <ele>986</ele>
        <time>2019-06-15T09:20:29Z</time>
      </trkpt>
      <trkpt lat="44.4959" lon="5.89626">
        <ele>986</ele>
        <time>2019-06-15T09:20:30Z</time>
      </trkpt>
      <trkpt lat="44.49587" lon="5.89628">
        <ele>986</ele>
        <time>2019-06-15T09:20:31Z</time>
      </trkpt>
      <trkpt lat="44.49584" lon="5.89629">
        <ele>986</ele>
        <time>2019-06-15T09:20:32Z</time>
      </trkpt>
      <trkpt lat="44.49582" lon="5.89631">
        <ele>986</ele>
        <time>2019-06-15T09:20:33Z</time>
      </trkpt>
      <trkpt lat="44.49579" lon="5.89632">
        <ele>986</ele>
        <time>2019-06-15T09:20:34Z</time>
      </trkpt>
      <trkpt lat="44.49577" lon="5.89634">
        <ele>986</ele>
        <time>2019-06-15T09:20:35Z</time>
      </trkpt>
      <trkpt lat="44.49575" lon="5.89635">
        <ele>986</ele>
        <time>2019-06-15T09:20:36Z</time>
      </trkpt>
      <trkpt lat="44.49573" lon="5.89637">
        <ele>986</ele>
        <time>2019-06-15T09:20:37Z</time>
      </trkpt>
      <trkpt lat="44.49571" lon="5.89638">
        <ele>986</ele>
        <time>2019-06-15T09:20:38Z</time>
      </trkpt>
      <trkpt lat="44.49569" lon="5.8964">
        <ele>986</ele>
        <time>2019-06-15T09:20:39Z</time>
      </trkpt>
      <trkpt lat="44.49567" lon="5.8964">
        <ele>986</ele>
        <time>2019-06-15T09:20:40Z</time>
      </trkpt>
      <trkpt lat="44.49565" lon="5.89642">
        <ele>986</ele>
        <time>2019-06-15T09:20:41Z</time>
      </trkpt>
      <trkpt lat="44.49564" lon="5.89644">
        <ele>986</ele>
        <time>2019-06-15T09:20:42Z</time>
      </trkpt>
      <trkpt lat="44.49562" lon="5.89646">
        <ele>986</ele>
        <time>2019-06-15T09:20:43Z</time>
      </trkpt>
      <trkpt lat="44.4956" lon="5.89647">
        <ele>986</ele>
        <time>2019-06-15T09:20:44Z</time>
      </trkpt>
      <trkpt lat="44.49559" lon="5.89648">
        <ele>986</ele>
        <time>2019-06-15T09:20:45Z</time>
      </trkpt>
      <trkpt lat="44.49556" lon="5.8965">
        <ele>986</ele>
        <time>2019-06-15T09:20:46Z</time>
      </trkpt>
      <trkpt lat="44.49554" lon="5.89651">
        <ele>986</ele>
        <time>2019-06-15T09:20:47Z</time>
      </trkpt>
      <trkpt lat="44.49553" lon="5.89653">
        <ele>986</ele>
        <time>2019-06-15T09:20:48Z</time>
      </trkpt>
      <trkpt lat="44.4955" lon="5.89655">
        <ele>986</ele>
        <time>2019-06-15T09:20:49Z</time>
      </trkpt>
      <trkpt lat="44.49548" lon="5.89657">
        <ele>986</ele>
        <time>2019-06-15T09:20:50Z</time>
      </trkpt>
      <trkpt lat="44.49546" lon="5.8966">
        <ele>986</ele>
        <time>2019-06-15T09:20:51Z</time>
      </trkpt>
      <trkpt lat="44.49544" lon="5.89662">
        <ele>986</ele>
        <time>2019-06-15T09:20:52Z</time>
      </trkpt>
      <trkpt lat="44.49541" lon="5.89663">
        <ele>986</ele>
        <time>2019-06-15T09:20:53Z</time>
      </trkpt>
      <trkpt lat="44.49539" lon="5.89665">
        <ele>986</ele>
        <time>2019-06-15T09:20:54Z</time>
      </trkpt>
      <trkpt lat="44.49537" lon="5.89666">
        <ele>986</ele>
        <time>2019-06-15T09:20:55Z</time>
      </trkpt>
      <trkpt lat="44.49534" lon="5.89668">
        <ele>986</ele>
        <time>2019-06-15T09:20:56Z</time>
      </trkpt>
      <trkpt lat="44.49532" lon="5.89669">
        <ele>986</ele>
        <time>2019-06-15T09:20:57Z</time>
      </trkpt>
      <trkpt lat="44.49529" lon="5.89671">
        <ele>986</ele>
        <time>2019-06-15T09:20:58Z</time>
      </trkpt>
      <trkpt lat="44.49527" lon="5.89672">
        <ele>986</ele>
        <time>2019-06-15T09:20:59Z</time>
      </trkpt>
      <trkpt lat="44.49525" lon="5.89673">
        <ele>986</ele>
        <time>2019-06-15T09:21:00Z</time>
      </trkpt>
      <trkpt lat="44.49522" lon="5.89675">
        <ele>986</ele>
        <time>2019-06-15T09:21:01Z</time>
      </trkpt>
      <trkpt lat="44.4952" lon="5.89676">
        <ele>986</ele>
        <time>2019-06-15T09:21:02Z</time>
      </trkpt>
      <trkpt lat="44.49517" lon="5.89678">
        <ele>986</ele>
        <time>2019-06-15T09:21:03Z</time>
      </trkpt>
      <trkpt lat="44.49515" lon="5.8968">
        <ele>986</ele>
        <time>2019-06-15T09:21:04Z</time>
      </trkpt>
      <trkpt lat="44.49513" lon="5.89682">
        <ele>986</ele>
        <time>2019-06-15T09:21:05Z</time>
      </trkpt>
      <trkpt lat="44.4951" lon="5.89684">
        <ele>986</ele>
        <time>2019-06-15T09:21:06Z</time>
      </trkpt>
      <trkpt lat="44.49508" lon="5.89686">
        <ele>986</ele>
        <time>2019-06-15T09:21:07Z</time>
      </trkpt>
      <trkpt lat="44.49506" lon="5.89689">
        <ele>987</ele>
        <time>2019-06-15T09:21:08Z</time>
      </trkpt>
      <trkpt lat="44.49504" lon="5.89692">
        <ele>987</ele>
        <time>2019-06-15T09:21:09Z</time>
      </trkpt>
      <trkpt lat="44.49502" lon="5.89694">
        <ele>987</ele>
        <time>2019-06-15T09:21:10Z</time>
      </trkpt>
      <trkpt lat="44.495" lon="5.89697">
        <ele>987</ele>
        <time>2019-06-15T09:21:11Z</time>
      </trkpt>
      <trkpt lat="44.49498" lon="5.897">
        <ele>988</ele>
        <time>2019-06-15T09:21:12Z</time>
      </trkpt>
      <trkpt lat="44.49496" lon="5.89703">
        <ele>988</ele>
        <time>2019-06-15T09:21:13Z</time>
      </trkpt>
      <trkpt lat="44.49494" lon="5.89706">
        <ele>988</ele>
        <time>2019-06-15T09:21:14Z</time>
      </trkpt>
      <trkpt lat="44.49492" lon="5.89708">
        <ele>989</ele>
        <time>2019-06-15T09:21:15Z</time>
      </trkpt>
      <trkpt lat="44.4949" lon="5.89711">
        <ele>989</ele>
        <time>2019-06-15T09:21:16Z</time>
      </trkpt>
      <trkpt lat="44.49488" lon="5.89714">
        <ele>989</ele>
        <time>2019-06-15T09:21:17Z</time>
      </trkpt>
      <trkpt lat="44.49487" lon="5.89716">
        <ele>989</ele>
        <time>2019-06-15T09:21:18Z</time>
      </trkpt>
      <trkpt lat="44.49485" lon="5.89719">
        <ele>990</ele>
        <time>2019-06-15T09:21:19Z</time>
      </trkpt>
      <trkpt lat="44.49483" lon="5.89721">
        <ele>990</ele>
        <time>2019-06-15T09:21:20Z</time>
      </trkpt>
      <trkpt lat="44.49481" lon="5.89724">
        <ele>990</ele>
        <time>2019-06-15T09:21:21Z</time>
      </trkpt>
      <trkpt lat="44.49479" lon="5.89727">
        <ele>990</ele>
        <time>2019-06-15T09:21:22Z</time>
      </trkpt>
      <trkpt lat="44.49477" lon="5.89729">
        <ele>990</ele>
        <time>2019-06-15T09:21:23Z</time>
      </trkpt>
      <trkpt lat="44.49475" lon="5.89731">
        <ele>990</ele>
        <time>2019-06-15T09:21:24Z</time>
      </trkpt>
      <trkpt lat="44.49472" lon="5.89733">
        <ele>990</ele>
        <time>2019-06-15T09:21:25Z</time>
      </trkpt>
      <trkpt lat="44.4947" lon="5.89735">
        <ele>990</ele>
        <time>2019-06-15T09:21:26Z</time>
      </trkpt>
      <trkpt lat="44.49468" lon="5.89737">
        <ele>990</ele>
        <time>2019-06-15T09:21:27Z</time>
      </trkpt>
      <trkpt lat="44.49466" lon="5.89739">
        <ele>990</ele>
        <time>2019-06-15T09:21:28Z</time>
      </trkpt>
      <trkpt lat="44.49463" lon="5.89741">
        <ele>991</ele>
        <time>2019-06-15T09:21:29Z</time>
      </trkpt>
      <trkpt lat="44.49461" lon="5.89744">
        <ele>991</ele>
        <time>2019-06-15T09:21:30Z</time>
      </trkpt>
      <trkpt lat="44.49459" lon="5.89746">
        <ele>991</ele>
        <time>2019-06-15T09:21:31Z</time>
      </trkpt>
      <trkpt lat="44.49457" lon="5.89748">
        <ele>991</ele>
        <time>2019-06-15T09:21:32Z</time>
      </trkpt>
      <trkpt lat="44.49455" lon="5.8975">
        <ele>991</ele>
        <time>2019-06-15T09:21:33Z</time>
      </trkpt>
      <trkpt lat="44.49453" lon="5.89752">
        <ele>991</ele>
        <time>2019-06-15T09:21:34Z</time>
      </trkpt>
      <trkpt lat="44.49451" lon="5.89754">
        <ele>991</ele>
        <time>2019-06-15T09:21:35Z</time>
      </trkpt>
      <trkpt lat="44.49449" lon="5.89756">
        <ele>992</ele>
        <time>2019-06-15T09:21:36Z</time>
      </trkpt>
      <trkpt lat="44.49447" lon="5.89757">
        <ele>992</ele>
        <time>2019-06-15T09:21:37Z</time>
      </trkpt>
      <trkpt lat="44.49444" lon="5.89758">
        <ele>992</ele>
        <time>2019-06-15T09:21:38Z</time>
      </trkpt>
      <trkpt lat="44.49442" lon="5.89759">
        <ele>992</ele>
        <time>2019-06-15T09:21:39Z</time>
      </trkpt>
      <trkpt lat="44.4944" lon="5.89761">
        <ele>993</ele>
        <time>2019-06-15T09:21:40Z</time>
      </trkpt>
      <trkpt lat="44.49437" lon="5.89762">
        <ele>993</ele>
        <time>2019-06-15T09:21:41Z</time>
      </trkpt>
      <trkpt lat="44.49434" lon="5.89763">
        <ele>993</ele>
        <time>2019-06-15T09:21:42Z</time>
      </trkpt>
      <trkpt lat="44.49432" lon="5.89764">
        <ele>994</ele>
        <time>2019-06-15T09:21:43Z</time>
      </trkpt>
      <trkpt lat="44.49429" lon="5.89765">
        <ele>994</ele>
        <time>2019-06-15T09:21:44Z</time>
      </trkpt>
      <trkpt lat="44.49426" lon="5.89765">
        <ele>995</ele>
        <time>2019-06-15T09:21:45Z</time>
      </trkpt>
      <trkpt lat="44.49423" lon="5.89767">
        <ele>996</ele>
        <time>2019-06-15T09:21:46Z</time>
      </trkpt>
      <trkpt lat="44.4942" lon="5.89768">
        <ele>997</ele>
        <time>2019-06-15T09:21:47Z</time>
      </trkpt>
      <trkpt lat="44.49417" lon="5.89768">
        <ele>998</ele>
        <time>2019-06-15T09:21:48Z</time>
      </trkpt>
      <trkpt lat="44.49415" lon="5.89768">
        <ele>998</ele>
        <time>2019-06-15T09:21:49Z</time>
      </trkpt>
      <trkpt lat="44.49412" lon="5.89768">
        <ele>999</ele>
        <time>2019-06-15T09:21:50Z</time>
      </trkpt>
      <trkpt lat="44.4941" lon="5.89768">
        <ele>1000</ele>
        <time>2019-06-15T09:21:51Z</time>
      </trkpt>
      <trkpt lat="44.49407" lon="5.89768">
        <ele>1000</ele>
        <time>2019-06-15T09:21:52Z</time>
      </trkpt>
      <trkpt lat="44.49404" lon="5.89769">
        <ele>1000</ele>
        <time>2019-06-15T09:21:53Z</time>
      </trkpt>
      <trkpt lat="44.49401" lon="5.8977">
        <ele>1001</ele>
        <time>2019-06-15T09:21:54Z</time>
      </trkpt>
      <trkpt lat="44.49399" lon="5.8977">
        <ele>1001</ele>
        <time>2019-06-15T09:21:55Z</time>
      </trkpt>
      <trkpt lat="44.49397" lon="5.8977">
        <ele>1001</ele>
        <time>2019-06-15T09:21:56Z</time>
      </trkpt>
      <trkpt lat="44.49395" lon="5.89769">
        <ele>1002</ele>
        <time>2019-06-15T09:21:57Z</time>
      </trkpt>
      <trkpt lat="44.49392" lon="5.89769">
        <ele>1002</ele>
        <time>2019-06-15T09:21:58Z</time>
      </trkpt>
      <trkpt lat="44.4939" lon="5.89769">
        <ele>1002</ele>
        <time>2019-06-15T09:21:59Z</time>
      </trkpt>
      <trkpt lat="44.49387" lon="5.89769">
        <ele>1002</ele>
        <time>2019-06-15T09:22:00Z</time>
      </trkpt>
      <trkpt lat="44.49384" lon="5.89769">
        <ele>1002</ele>
        <time>2019-06-15T09:22:01Z</time>
      </trkpt>
      <trkpt lat="44.49382" lon="5.89769">
        <ele>1002</ele>
        <time>2019-06-15T09:22:02Z</time>
      </trkpt>
      <trkpt lat="44.49379" lon="5.89769">
        <ele>1003</ele>
        <time>2019-06-15T09:22:03Z</time>
      </trkpt>
      <trkpt lat="44.49377" lon="5.89769">
        <ele>1003</ele>
        <time>2019-06-15T09:22:04Z</time>
      </trkpt>
      <trkpt lat="44.49375" lon="5.89768">
        <ele>1003</ele>
        <time>2019-06-15T09:22:05Z</time>
      </trkpt>
      <trkpt lat="44.49372" lon="5.89768">
        <ele>1003</ele>
        <time>2019-06-15T09:22:06Z</time>
      </trkpt>
      <trkpt lat="44.4937" lon="5.89767">
        <ele>1003</ele>
        <time>2019-06-15T09:22:07Z</time>
      </trkpt>
      <trkpt lat="44.49368" lon="5.89767">
        <ele>1003</ele>
        <time>2019-06-15T09:22:08Z</time>
      </trkpt>
      <trkpt lat="44.49365" lon="5.89766">
        <ele>1003</ele>
        <time>2019-06-15T09:22:09Z</time>
      </trkpt>
      <trkpt lat="44.49363" lon="5.89766">
        <ele>1003</ele>
        <time>2019-06-15T09:22:10Z</time>
      </trkpt>
      <trkpt lat="44.49361" lon="5.89765">
        <ele>1003</ele>
        <time>2019-06-15T09:22:11Z</time>
      </trkpt>
      <trkpt lat="44.49358" lon="5.89764">
        <ele>1003</ele>
        <time>2019-06-15T09:22:12Z</time>
      </trkpt>
      <trkpt lat="44.49356" lon="5.89763">
        <ele>1003</ele>
        <time>2019-06-15T09:22:13Z</time>
      </trkpt>
      <trkpt lat="44.49354" lon="5.89762">
        <ele>1003</ele>
        <time>2019-06-15T09:22:14Z</time>
      </trkpt>
      <trkpt lat="44.49352" lon="5.89761">
        <ele>1003</ele>
        <time>2019-06-15T09:22:15Z</time>
      </trkpt>
      <trkpt lat="44.4935" lon="5.89759">
        <ele>1003</ele>
        <time>2019-06-15T09:22:16Z</time>
      </trkpt>
      <trkpt lat="44.49347" lon="5.89758">
        <ele>1003</ele>
        <time>2019-06-15T09:22:17Z</time>
      </trkpt>
      <trkpt lat="44.49345" lon="5.89756">
        <ele>1003</ele>
        <time>2019-06-15T09:22:18Z</time>
      </trkpt>
      <trkpt lat="44.49343" lon="5.89755">
        <ele>1003</ele>
        <time>2019-06-15T09:22:19Z</time>
      </trkpt>
      <trkpt lat="44.4934" lon="5.89753">
        <ele>1003</ele>
        <time>2019-06-15T09:22:20Z</time>
      </trkpt>
      <trkpt lat="44.49338" lon="5.89752">
        <ele>1003</ele>
        <time>2019-06-15T09:22:21Z</time>
      </trkpt>
      <trkpt lat="44.49336" lon="5.8975">
        <ele>1003</ele>
        <time>2019-06-15T09:22:22Z</time>
      </trkpt>
      <trkpt lat="44.49334" lon="5.89748">
        <ele>1003</ele>
        <time>2019-06-15T09:22:23Z</time>
      </trkpt>
      <trkpt lat="44.49332" lon="5.89747">
        <ele>1003</ele>
        <time>2019-06-15T09:22:24Z</time>
      </trkpt>
      <trkpt lat="44.4933" lon="5.89744">
        <ele>1003</ele>
        <time>2019-06-15T09:22:25Z</time>
      </trkpt>
      <trkpt lat="44.49329" lon="5.89742">
        <ele>1003</ele>
        <time>2019-06-15T09:22:26Z</time>
      </trkpt>
      <trkpt lat="44.49326" lon="5.89742">
        <ele>1003</ele>
        <time>2019-06-15T09:22:27Z</time>
      </trkpt>
      <trkpt lat="44.49323" lon="5.89742">
        <ele>1004</ele>
        <time>2019-06-15T09:22:28Z</time>
      </trkpt>
      <trkpt lat="44.49322" lon="5.89739">
        <ele>1005</ele>
        <time>2019-06-15T09:22:29Z</time>
      </trkpt>
      <trkpt lat="44.49319" lon="5.89738">
        <ele>1006</ele>
        <time>2019-06-15T09:22:30Z</time>
      </trkpt>
      <trkpt lat="44.49317" lon="5.89737">
        <ele>1007</ele>
        <time>2019-06-15T09:22:31Z</time>
      </trkpt>
      <trkpt lat="44.49315" lon="5.89736">
        <ele>1008</ele>
        <time>2019-06-15T09:22:32Z</time>
      </trkpt>
      <trkpt lat="44.49313" lon="5.89733">
        <ele>1009</ele>
        <time>2019-06-15T09:22:33Z</time>
      </trkpt>
      <trkpt lat="44.4931" lon="5.89732">
        <ele>1010</ele>
        <time>2019-06-15T09:22:34Z</time>
      </trkpt>
      <trkpt lat="44.49308" lon="5.89729">
        <ele>1011</ele>
        <time>2019-06-15T09:22:35Z</time>
      </trkpt>
      <trkpt lat="44.49306" lon="5.89726">
        <ele>1012</ele>
        <time>2019-06-15T09:22:36Z</time>
      </trkpt>
      <trkpt lat="44.49304" lon="5.89724">
        <ele>1013</ele>
        <time>2019-06-15T09:22:37Z</time>
      </trkpt>
      <trkpt lat="44.49302" lon="5.89721">
        <ele>1013</ele>
        <time>2019-06-15T09:22:38Z</time>
      </trkpt>
      <trkpt lat="44.493" lon="5.89719">
        <ele>1013</ele>
        <time>2019-06-15T09:22:39Z</time>
      </trkpt>
      <trkpt lat="44.49298" lon="5.89717">
        <ele>1013</ele>
        <time>2019-06-15T09:22:40Z</time>
      </trkpt>
      <trkpt lat="44.49296" lon="5.89714">
        <ele>1013</ele>
        <time>2019-06-15T09:22:41Z</time>
      </trkpt>
      <trkpt lat="44.49295" lon="5.89712">
        <ele>1013</ele>
        <time>2019-06-15T09:22:42Z</time>
      </trkpt>
      <trkpt lat="44.49293" lon="5.89709">
        <ele>1013</ele>
        <time>2019-06-15T09:22:43Z</time>
      </trkpt>
      <trkpt lat="44.49291" lon="5.89706">
        <ele>1013</ele>
        <time>2019-06-15T09:22:44Z</time>
      </trkpt>
      <trkpt lat="44.4929" lon="5.89703">
        <ele>1013</ele>
        <time>2019-06-15T09:22:45Z</time>
      </trkpt>
      <trkpt lat="44.49289" lon="5.89699">
        <ele>1013</ele>
        <time>2019-06-15T09:22:46Z</time>
      </trkpt>
      <trkpt lat="44.49288" lon="5.89697">
        <ele>1013</ele>
        <time>2019-06-15T09:22:47Z</time>
      </trkpt>
      <trkpt lat="44.49287" lon="5.89694">
        <ele>1013</ele>
        <time>2019-06-15T09:22:48Z</time>
      </trkpt>
      <trkpt lat="44.49286" lon="5.89691">
        <ele>1013</ele>
        <time>2019-06-15T09:22:49Z</time>
      </trkpt>
      <trkpt lat="44.49285" lon="5.89688">
        <ele>1014</ele>
        <time>2019-06-15T09:22:50Z</time>
      </trkpt>
      <trkpt lat="44.49283" lon="5.89686">
        <ele>1015</ele>
        <time>2019-06-15T09:22:51Z</time>
      </trkpt>
      <trkpt lat="44.49282" lon="5.89683">
        <ele>1016</ele>
        <time>2019-06-15T09:22:52Z</time>
      </trkpt>
      <trkpt lat="44.49282" lon="5.89679">
        <ele>1017</ele>
        <time>2019-06-15T09:22:53Z</time>
      </trkpt>
      <trkpt lat="44.49281" lon="5.89677">
        <ele>1018</ele>
        <time>2019-06-15T09:22:54Z</time>
      </trkpt>
      <trkpt lat="44.49279" lon="5.89674">
        <ele>1019</ele>
        <time>2019-06-15T09:22:55Z</time>
      </trkpt>
      <trkpt lat="44.49278" lon="5.89671">
        <ele>1019</ele>
        <time>2019-06-15T09:22:56Z</time>
      </trkpt>
      <trkpt lat="44.49276" lon="5.8967">
        <ele>1020</ele>
        <time>2019-06-15T09:22:57Z</time>
      </trkpt>
      <trkpt lat="44.49274" lon="5.89669">
        <ele>1021</ele>
        <time>2019-06-15T09:22:58Z</time>
      </trkpt>
      <trkpt lat="44.49272" lon="5.89667">
        <ele>1022</ele>
        <time>2019-06-15T09:22:59Z</time>
      </trkpt>
      <trkpt lat="44.4927" lon="5.89665">
        <ele>1022</ele>
        <time>2019-06-15T09:23:00Z</time>
      </trkpt>
      <trkpt lat="44.49268" lon="5.89663">
        <ele>1023</ele>
        <time>2019-06-15T09:23:01Z</time>
      </trkpt>
      <trkpt lat="44.49266" lon="5.89662">
        <ele>1024</ele>
        <time>2019-06-15T09:23:02Z</time>
      </trkpt>
      <trkpt lat="44.49264" lon="5.8966">
        <ele>1024</ele>
        <time>2019-06-15T09:23:03Z</time>
      </trkpt>
      <trkpt lat="44.49262" lon="5.89657">
        <ele>1024</ele>
        <time>2019-06-15T09:23:04Z</time>
      </trkpt>
      <trkpt lat="44.4926" lon="5.89655">
        <ele>1025</ele>
        <time>2019-06-15T09:23:05Z</time>
      </trkpt>
      <trkpt lat="44.49258" lon="5.89652">
        <ele>1025</ele>
        <time>2019-06-15T09:23:06Z</time>
      </trkpt>
      <trkpt lat="44.49257" lon="5.8965">
        <ele>1025</ele>
        <time>2019-06-15T09:23:07Z</time>
      </trkpt>
      <trkpt lat="44.49255" lon="5.89648">
        <ele>1025</ele>
        <time>2019-06-15T09:23:08Z</time>
      </trkpt>
      <trkpt lat="44.49253" lon="5.89646">
        <ele>1025</ele>
        <time>2019-06-15T09:23:09Z</time>
      </trkpt>
      <trkpt lat="44.49251" lon="5.89644">
        <ele>1025</ele>
        <time>2019-06-15T09:23:10Z</time>
      </trkpt>
      <trkpt lat="44.49249" lon="5.89642">
        <ele>1025</ele>
        <time>2019-06-15T09:23:11Z</time>
      </trkpt>
      <trkpt lat="44.49247" lon="5.89641">
        <ele>1025</ele>
        <time>2019-06-15T09:23:12Z</time>
      </trkpt>
      <trkpt lat="44.49245" lon="5.89639">
        <ele>1025</ele>
        <time>2019-06-15T09:23:13Z</time>
      </trkpt>
      <trkpt lat="44.49242" lon="5.89637">
        <ele>1025</ele>
        <time>2019-06-15T09:23:14Z</time>
      </trkpt>
      <trkpt lat="44.4924" lon="5.89635">
        <ele>1025</ele>
        <time>2019-06-15T09:23:15Z</time>
      </trkpt>
      <trkpt lat="44.49238" lon="5.89633">
        <ele>1025</ele>
        <time>2019-06-15T09:23:16Z</time>
      </trkpt>
      <trkpt lat="44.49237" lon="5.89631">
        <ele>1025</ele>
        <time>2019-06-15T09:23:17Z</time>
      </trkpt>
      <trkpt lat="44.49234" lon="5.89628">
        <ele>1025</ele>
        <time>2019-06-15T09:23:18Z</time>
      </trkpt>
      <trkpt lat="44.49233" lon="5.89626">
        <ele>1025</ele>
        <time>2019-06-15T09:23:19Z</time>
      </trkpt>
      <trkpt lat="44.49231" lon="5.89625">
        <ele>1025</ele>
        <time>2019-06-15T09:23:20Z</time>
      </trkpt>
      <trkpt lat="44.49229" lon="5.89622">
        <ele>1025</ele>
        <time>2019-06-15T09:23:21Z</time>
      </trkpt>
      <trkpt lat="44.49227" lon="5.89619">
        <ele>1025</ele>
        <time>2019-06-15T09:23:22Z</time>
      </trkpt>
      <trkpt lat="44.49225" lon="5.89617">
        <ele>1025</ele>
        <time>2019-06-15T09:23:23Z</time>
      </trkpt>
      <trkpt lat="44.49223" lon="5.89613">
        <ele>1025</ele>
        <time>2019-06-15T09:23:24Z</time>
      </trkpt>
      <trkpt lat="44.49221" lon="5.89611">
        <ele>1025</ele>
        <time>2019-06-15T09:23:25Z</time>
      </trkpt>
      <trkpt lat="44.49219" lon="5.89608">
        <ele>1025</ele>
        <time>2019-06-15T09:23:26Z</time>
      </trkpt>
      <trkpt lat="44.49217" lon="5.89605">
        <ele>1025</ele>
        <time>2019-06-15T09:23:27Z</time>
      </trkpt>
      <trkpt lat="44.49216" lon="5.89603">
        <ele>1025</ele>
        <time>2019-06-15T09:23:28Z</time>
      </trkpt>
      <trkpt lat="44.49215" lon="5.89599">
        <ele>1025</ele>
        <time>2019-06-15T09:23:29Z</time>
      </trkpt>
      <trkpt lat="44.49214" lon="5.89596">
        <ele>1025</ele>
        <time>2019-06-15T09:23:30Z</time>
      </trkpt>
      <trkpt lat="44.49213" lon="5.89593">
        <ele>1024</ele>
        <time>2019-06-15T09:23:31Z</time>
      </trkpt>
      <trkpt lat="44.49213" lon="5.89589">
        <ele>1024</ele>
        <time>2019-06-15T09:23:32Z</time>
      </trkpt>
      <trkpt lat="44.49211" lon="5.89586">
        <ele>1024</ele>
        <time>2019-06-15T09:23:33Z</time>
      </trkpt>
      <trkpt lat="44.49211" lon="5.89584">
        <ele>1024</ele>
        <time>2019-06-15T09:23:34Z</time>
      </trkpt>
      <trkpt lat="44.4921" lon="5.8958">
        <ele>1024</ele>
        <time>2019-06-15T09:23:35Z</time>
      </trkpt>
      <trkpt lat="44.4921" lon="5.89577">
        <ele>1024</ele>
        <time>2019-06-15T09:23:36Z</time>
      </trkpt>
      <trkpt lat="44.4921" lon="5.89573">
        <ele>1024</ele>
        <time>2019-06-15T09:23:37Z</time>
      </trkpt>
      <trkpt lat="44.49211" lon="5.8957">
        <ele>1023</ele>
        <time>2019-06-15T09:23:38Z</time>
      </trkpt>
      <trkpt lat="44.49212" lon="5.89567">
        <ele>1023</ele>
        <time>2019-06-15T09:23:39Z</time>
      </trkpt>
      <trkpt lat="44.49212" lon="5.89564">
        <ele>1023</ele>
        <time>2019-06-15T09:23:40Z</time>
      </trkpt>
      <trkpt lat="44.49212" lon="5.89561">
        <ele>1023</ele>
        <time>2019-06-15T09:23:41Z</time>
      </trkpt>
      <trkpt lat="44.49212" lon="5.89558">
        <ele>1023</ele>
        <time>2019-06-15T09:23:42Z</time>
      </trkpt>
      <trkpt lat="44.49212" lon="5.89555">
        <ele>1023</ele>
        <time>2019-06-15T09:23:43Z</time>
      </trkpt>
      <trkpt lat="44.49211" lon="5.89552">
        <ele>1023</ele>
        <time>2019-06-15T09:23:44Z</time>
      </trkpt>
      <trkpt lat="44.49211" lon="5.89549">
        <ele>1023</ele>
        <time>2019-06-15T09:23:45Z</time>
      </trkpt>
      <trkpt lat="44.49211" lon="5.89546">
        <ele>1023</ele>
        <time>2019-06-15T09:23:46Z</time>
      </trkpt>
      <trkpt lat="44.4921" lon="5.89542">
        <ele>1023</ele>
        <time>2019-06-15T09:23:47Z</time>
      </trkpt>
      <trkpt lat="44.49209" lon="5.89539">
        <ele>1023</ele>
        <time>2019-06-15T09:23:48Z</time>
      </trkpt>
      <trkpt lat="44.49207" lon="5.89536">
        <ele>1023</ele>
        <time>2019-06-15T09:23:49Z</time>
      </trkpt>
      <trkpt lat="44.49205" lon="5.89534">
        <ele>1024</ele>
        <time>2019-06-15T09:23:50Z</time>
      </trkpt>
      <trkpt lat="44.49203" lon="5.89532">
        <ele>1024</ele>
        <time>2019-06-15T09:23:51Z</time>
      </trkpt>
      <trkpt lat="44.49201" lon="5.89531">
        <ele>1024</ele>
        <time>2019-06-15T09:23:52Z</time>
      </trkpt>
      <trkpt lat="44.49199" lon="5.89529">
        <ele>1025</ele>
        <time>2019-06-15T09:23:53Z</time>
      </trkpt>
      <trkpt lat="44.49197" lon="5.89529">
        <ele>1025</ele>
        <time>2019-06-15T09:23:54Z</time>
      </trkpt>
      <trkpt lat="44.49195" lon="5.89528">
        <ele>1025</ele>
        <time>2019-06-15T09:23:55Z</time>
      </trkpt>
      <trkpt lat="44.49194" lon="5.89527">
        <ele>1025</ele>
        <time>2019-06-15T09:23:56Z</time>
      </trkpt>
      <trkpt lat="44.49192" lon="5.89526">
        <ele>1025</ele>
        <time>2019-06-15T09:23:57Z</time>
      </trkpt>
      <trkpt lat="44.4919" lon="5.89525">
        <ele>1025</ele>
        <time>2019-06-15T09:23:58Z</time>
      </trkpt>
      <trkpt lat="44.49188" lon="5.89524">
        <ele>1025</ele>
        <time>2019-06-15T09:23:59Z</time>
      </trkpt>
      <trkpt lat="44.49187" lon="5.89524">
        <ele>1025</ele>
        <time>2019-06-15T09:24:00Z</time>
      </trkpt>
      <trkpt lat="44.49184" lon="5.89523">
        <ele>1025</ele>
        <time>2019-06-15T09:24:01Z</time>
      </trkpt>
      <trkpt lat="44.49183" lon="5.89522">
        <ele>1025</ele>
        <time>2019-06-15T09:24:02Z</time>
      </trkpt>
      <trkpt lat="44.49181" lon="5.89521">
        <ele>1026</ele>
        <time>2019-06-15T09:24:03Z</time>
      </trkpt>
      <trkpt lat="44.49179" lon="5.8952">
        <ele>1026</ele>
        <time>2019-06-15T09:24:04Z</time>
      </trkpt>
      <trkpt lat="44.49177" lon="5.89519">
        <ele>1027</ele>
        <time>2019-06-15T09:24:05Z</time>
      </trkpt>
      <trkpt lat="44.49176" lon="5.89518">
        <ele>1027</ele>
        <time>2019-06-15T09:24:06Z</time>
      </trkpt>
      <trkpt lat="44.49174" lon="5.89517">
        <ele>1027</ele>
        <time>2019-06-15T09:24:07Z</time>
      </trkpt>
      <trkpt lat="44.49172" lon="5.89515">
        <ele>1028</ele>
        <time>2019-06-15T09:24:08Z</time>
      </trkpt>
      <trkpt lat="44.4917" lon="5.89514">
        <ele>1028</ele>
        <time>2019-06-15T09:24:09Z</time>
      </trkpt>
      <trkpt lat="44.49169" lon="5.89512">
        <ele>1029</ele>
        <time>2019-06-15T09:24:10Z</time>
      </trkpt>
      <trkpt lat="44.49167" lon="5.8951">
        <ele>1029</ele>
        <time>2019-06-15T09:24:11Z</time>
      </trkpt>
      <trkpt lat="44.49165" lon="5.89508">
        <ele>1029</ele>
        <time>2019-06-15T09:24:12Z</time>
      </trkpt>
      <trkpt lat="44.49164" lon="5.89506">
        <ele>1029</ele>
        <time>2019-06-15T09:24:13Z</time>
      </trkpt>
      <trkpt lat="44.49161" lon="5.89505">
        <ele>1029</ele>
        <time>2019-06-15T09:24:14Z</time>
      </trkpt>
      <trkpt lat="44.49159" lon="5.89504">
        <ele>1029</ele>
        <time>2019-06-15T09:24:15Z</time>
      </trkpt>
      <trkpt lat="44.49157" lon="5.89503">
        <ele>1030</ele>
        <time>2019-06-15T09:24:16Z</time>
      </trkpt>
      <trkpt lat="44.49155" lon="5.89501">
        <ele>1030</ele>
        <time>2019-06-15T09:24:17Z</time>
      </trkpt>
      <trkpt lat="44.49153" lon="5.89499">
        <ele>1030</ele>
        <time>2019-06-15T09:24:18Z</time>
      </trkpt>
      <trkpt lat="44.49151" lon="5.89498">
        <ele>1031</ele>
        <time>2019-06-15T09:24:19Z</time>
      </trkpt>
      <trkpt lat="44.49148" lon="5.89498">
        <ele>1031</ele>
        <time>2019-06-15T09:24:20Z</time>
      </trkpt>
      <trkpt lat="44.49146" lon="5.89498">
        <ele>1031</ele>
        <time>2019-06-15T09:24:21Z</time>
      </trkpt>
      <trkpt lat="44.49143" lon="5.89497">
        <ele>1032</ele>
        <time>2019-06-15T09:24:22Z</time>
      </trkpt>
      <trkpt lat="44.49141" lon="5.89496">
        <ele>1033</ele>
        <time>2019-06-15T09:24:23Z</time>
      </trkpt>
      <trkpt lat="44.49139" lon="5.89496">
        <ele>1034</ele>
        <time>2019-06-15T09:24:24Z</time>
      </trkpt>
      <trkpt lat="44.49136" lon="5.89496">
        <ele>1034</ele>
        <time>2019-06-15T09:24:25Z</time>
      </trkpt>
      <trkpt lat="44.49134" lon="5.89496">
        <ele>1035</ele>
        <time>2019-06-15T09:24:26Z</time>
      </trkpt>
      <trkpt lat="44.49132" lon="5.89497">
        <ele>1036</ele>
        <time>2019-06-15T09:24:27Z</time>
      </trkpt>
      <trkpt lat="44.4913" lon="5.89498">
        <ele>1036</ele>
        <time>2019-06-15T09:24:28Z</time>
      </trkpt>
      <trkpt lat="44.49128" lon="5.89499">
        <ele>1037</ele>
        <time>2019-06-15T09:24:29Z</time>
      </trkpt>
      <trkpt lat="44.49126" lon="5.89499">
        <ele>1038</ele>
        <time>2019-06-15T09:24:30Z</time>
      </trkpt>
      <trkpt lat="44.49124" lon="5.89499">
        <ele>1038</ele>
        <time>2019-06-15T09:24:31Z</time>
      </trkpt>
      <trkpt lat="44.49122" lon="5.89498">
        <ele>1038</ele>
        <time>2019-06-15T09:24:32Z</time>
      </trkpt>
      <trkpt lat="44.4912" lon="5.89499">
        <ele>1038</ele>
        <time>2019-06-15T09:24:33Z</time>
      </trkpt>
      <trkpt lat="44.49118" lon="5.89499">
        <ele>1038</ele>
        <time>2019-06-15T09:24:34Z</time>
      </trkpt>
      <trkpt lat="44.49116" lon="5.89499">
        <ele>1038</ele>
        <time>2019-06-15T09:24:35Z</time>
      </trkpt>
      <trkpt lat="44.49114" lon="5.89499">
        <ele>1039</ele>
        <time>2019-06-15T09:24:36Z</time>
      </trkpt>
      <trkpt lat="44.49112" lon="5.89498">
        <ele>1039</ele>
        <time>2019-06-15T09:24:37Z</time>
      </trkpt>
      <trkpt lat="44.4911" lon="5.89497">
        <ele>1040</ele>
        <time>2019-06-15T09:24:38Z</time>
      </trkpt>
      <trkpt lat="44.49109" lon="5.89497">
        <ele>1040</ele>
        <time>2019-06-15T09:24:39Z</time>
      </trkpt>
      <trkpt lat="44.49107" lon="5.89496">
        <ele>1041</ele>
        <time>2019-06-15T09:24:40Z</time>
      </trkpt>
      <trkpt lat="44.49105" lon="5.89495">
        <ele>1042</ele>
        <time>2019-06-15T09:24:41Z</time>
      </trkpt>
      <trkpt lat="44.49104" lon="5.89494">
        <ele>1042</ele>
        <time>2019-06-15T09:24:42Z</time>
      </trkpt>
      <trkpt lat="44.49103" lon="5.89493">
        <ele>1043</ele>
        <time>2019-06-15T09:24:43Z</time>
      </trkpt>
      <trkpt lat="44.49102" lon="5.89491">
        <ele>1044</ele>
        <time>2019-06-15T09:24:44Z</time>
      </trkpt>
      <trkpt lat="44.491" lon="5.89489">
        <ele>1045</ele>
        <time>2019-06-15T09:24:45Z</time>
      </trkpt>
      <trkpt lat="44.49099" lon="5.89485">
        <ele>1046</ele>
        <time>2019-06-15T09:24:46Z</time>
      </trkpt>
      <trkpt lat="44.49099" lon="5.89482">
        <ele>1046</ele>
        <time>2019-06-15T09:24:47Z</time>
      </trkpt>
      <trkpt lat="44.49098" lon="5.89478">
        <ele>1046</ele>
        <time>2019-06-15T09:24:48Z</time>
      </trkpt>
      <trkpt lat="44.49097" lon="5.89474">
        <ele>1046</ele>
        <time>2019-06-15T09:24:49Z</time>
      </trkpt>
      <trkpt lat="44.49096" lon="5.89471">
        <ele>1046</ele>
        <time>2019-06-15T09:24:50Z</time>
      </trkpt>
      <trkpt lat="44.49096" lon="5.89467">
        <ele>1046</ele>
        <time>2019-06-15T09:24:51Z</time>
      </trkpt>
      <trkpt lat="44.49096" lon="5.89464">
        <ele>1046</ele>
        <time>2019-06-15T09:24:52Z</time>
      </trkpt>
      <trkpt lat="44.49096" lon="5.8946">
        <ele>1046</ele>
        <time>2019-06-15T09:24:53Z</time>
      </trkpt>
      <trkpt lat="44.49095" lon="5.89457">
        <ele>1046</ele>
        <time>2019-06-15T09:24:54Z</time>
      </trkpt>
      <trkpt lat="44.49094" lon="5.89453">
        <ele>1046</ele>
        <time>2019-06-15T09:24:55Z</time>
      </trkpt>
      <trkpt lat="44.49094" lon="5.8945">
        <ele>1046</ele>
        <time>2019-06-15T09:24:56Z</time>
      </trkpt>
      <trkpt lat="44.49094" lon="5.89446">
        <ele>1046</ele>
        <time>2019-06-15T09:24:57Z</time>
      </trkpt>
      <trkpt lat="44.49094" lon="5.89442">
        <ele>1046</ele>
        <time>2019-06-15T09:24:58Z</time>
      </trkpt>
      <trkpt lat="44.49094" lon="5.89439">
        <ele>1046</ele>
        <time>2019-06-15T09:24:59Z</time>
      </trkpt>
      <trkpt lat="44.49093" lon="5.89436">
        <ele>1046</ele>
        <time>2019-06-15T09:25:00Z</time>
      </trkpt>
      <trkpt lat="44.49093" lon="5.89432">
        <ele>1046</ele>
        <time>2019-06-15T09:25:01Z</time>
      </trkpt>
      <trkpt lat="44.49092" lon="5.89429">
        <ele>1046</ele>
        <time>2019-06-15T09:25:02Z</time>
      </trkpt>
      <trkpt lat="44.49092" lon="5.89426">
        <ele>1046</ele>
        <time>2019-06-15T09:25:03Z</time>
      </trkpt>
      <trkpt lat="44.49091" lon="5.89423">
        <ele>1046</ele>
        <time>2019-06-15T09:25:04Z</time>
      </trkpt>
      <trkpt lat="44.4909" lon="5.89421">
        <ele>1046</ele>
        <time>2019-06-15T09:25:05Z</time>
      </trkpt>
      <trkpt lat="44.49089" lon="5.89417">
        <ele>1046</ele>
        <time>2019-06-15T09:25:06Z</time>
      </trkpt>
      <trkpt lat="44.49089" lon="5.89413">
        <ele>1046</ele>
        <time>2019-06-15T09:25:07Z</time>
      </trkpt>
      <trkpt lat="44.49087" lon="5.89409">
        <ele>1046</ele>
        <time>2019-06-15T09:25:08Z</time>
      </trkpt>
      <trkpt lat="44.49086" lon="5.89407">
        <ele>1046</ele>
        <time>2019-06-15T09:25:09Z</time>
      </trkpt>
      <trkpt lat="44.49084" lon="5.89404">
        <ele>1046</ele>
        <time>2019-06-15T09:25:10Z</time>
      </trkpt>
      <trkpt lat="44.49083" lon="5.89401">
        <ele>1046</ele>
        <time>2019-06-15T09:25:11Z</time>
      </trkpt>
      <trkpt lat="44.49082" lon="5.89398">
        <ele>1046</ele>
        <time>2019-06-15T09:25:12Z</time>
      </trkpt>
      <trkpt lat="44.4908" lon="5.89397">
        <ele>1046</ele>
        <time>2019-06-15T09:25:13Z</time>
      </trkpt>
      <trkpt lat="44.49077" lon="5.89396">
        <ele>1046</ele>
        <time>2019-06-15T09:25:14Z</time>
      </trkpt>
      <trkpt lat="44.49076" lon="5.89394">
        <ele>1046</ele>
        <time>2019-06-15T09:25:15Z</time>
      </trkpt>
      <trkpt lat="44.49075" lon="5.8939">
        <ele>1046</ele>
        <time>2019-06-15T09:25:16Z</time>
      </trkpt>
      <trkpt lat="44.49075" lon="5.89386">
        <ele>1046</ele>
        <time>2019-06-15T09:25:17Z</time>
      </trkpt>
      <trkpt lat="44.49073" lon="5.89383">
        <ele>1046</ele>
        <time>2019-06-15T09:25:18Z</time>
      </trkpt>
      <trkpt lat="44.49071" lon="5.89381">
        <ele>1046</ele>
        <time>2019-06-15T09:25:19Z</time>
      </trkpt>
      <trkpt lat="44.4907" lon="5.89378">
        <ele>1046</ele>
        <time>2019-06-15T09:25:20Z</time>
      </trkpt>
      <trkpt lat="44.49068" lon="5.89376">
        <ele>1046</ele>
        <time>2019-06-15T09:25:21Z</time>
      </trkpt>
      <trkpt lat="44.49067" lon="5.89372">
        <ele>1046</ele>
        <time>2019-06-15T09:25:22Z</time>
      </trkpt>
      <trkpt lat="44.49065" lon="5.8937">
        <ele>1046</ele>
        <time>2019-06-15T09:25:23Z</time>
      </trkpt>
      <trkpt lat="44.49063" lon="5.89368">
        <ele>1046</ele>
        <time>2019-06-15T09:25:24Z</time>
      </trkpt>
      <trkpt lat="44.4906" lon="5.89367">
        <ele>1046</ele>
        <time>2019-06-15T09:25:25Z</time>
      </trkpt>
      <trkpt lat="44.49058" lon="5.89365">
        <ele>1046</ele>
        <time>2019-06-15T09:25:26Z</time>
      </trkpt>
      <trkpt lat="44.49056" lon="5.89364">
        <ele>1046</ele>
        <time>2019-06-15T09:25:27Z</time>
      </trkpt>
      <trkpt lat="44.49054" lon="5.89362">
        <ele>1046</ele>
        <time>2019-06-15T09:25:28Z</time>
      </trkpt>
      <trkpt lat="44.49051" lon="5.89362">
        <ele>1046</ele>
        <time>2019-06-15T09:25:29Z</time>
      </trkpt>
      <trkpt lat="44.49049" lon="5.89361">
        <ele>1046</ele>
        <time>2019-06-15T09:25:30Z</time>
      </trkpt>
      <trkpt lat="44.49046" lon="5.8936">
        <ele>1046</ele>
        <time>2019-06-15T09:25:31Z</time>
      </trkpt>
      <trkpt lat="44.49043" lon="5.8936">
        <ele>1046</ele>
        <time>2019-06-15T09:25:32Z</time>
      </trkpt>
      <trkpt lat="44.49041" lon="5.89359">
        <ele>1046</ele>
        <time>2019-06-15T09:25:33Z</time>
      </trkpt>
      <trkpt lat="44.49038" lon="5.89359">
        <ele>1046</ele>
        <time>2019-06-15T09:25:34Z</time>
      </trkpt>
      <trkpt lat="44.49036" lon="5.89358">
        <ele>1047</ele>
        <time>2019-06-15T09:25:35Z</time>
      </trkpt>
      <trkpt lat="44.49034" lon="5.89358">
        <ele>1047</ele>
        <time>2019-06-15T09:25:36Z</time>
      </trkpt>
      <trkpt lat="44.49031" lon="5.89357">
        <ele>1047</ele>
        <time>2019-06-15T09:25:37Z</time>
      </trkpt>
      <trkpt lat="44.49029" lon="5.89355">
        <ele>1047</ele>
        <time>2019-06-15T09:25:38Z</time>
      </trkpt>
      <trkpt lat="44.49027" lon="5.89354">
        <ele>1047</ele>
        <time>2019-06-15T09:25:39Z</time>
      </trkpt>
      <trkpt lat="44.49025" lon="5.89353">
        <ele>1047</ele>
        <time>2019-06-15T09:25:40Z</time>
      </trkpt>
      <trkpt lat="44.49022" lon="5.89354">
        <ele>1047</ele>
        <time>2019-06-15T09:25:41Z</time>
      </trkpt>
      <trkpt lat="44.4902" lon="5.89353">
        <ele>1047</ele>
        <time>2019-06-15T09:25:42Z</time>
      </trkpt>
      <trkpt lat="44.49016" lon="5.89354">
        <ele>1047</ele>
        <time>2019-06-15T09:25:43Z</time>
      </trkpt>
      <trkpt lat="44.49013" lon="5.89355">
        <ele>1048</ele>
        <time>2019-06-15T09:25:44Z</time>
      </trkpt>
      <trkpt lat="44.49011" lon="5.89355">
        <ele>1049</ele>
        <time>2019-06-15T09:25:45Z</time>
      </trkpt>
      <trkpt lat="44.49009" lon="5.89354">
        <ele>1050</ele>
        <time>2019-06-15T09:25:46Z</time>
      </trkpt>
      <trkpt lat="44.49006" lon="5.89354">
        <ele>1051</ele>
        <time>2019-06-15T09:25:47Z</time>
      </trkpt>
      <trkpt lat="44.49004" lon="5.89354">
        <ele>1052</ele>
        <time>2019-06-15T09:25:48Z</time>
      </trkpt>
      <trkpt lat="44.49002" lon="5.89353">
        <ele>1052</ele>
        <time>2019-06-15T09:25:49Z</time>
      </trkpt>
      <trkpt lat="44.49" lon="5.89353">
        <ele>1052</ele>
        <time>2019-06-15T09:25:50Z</time>
      </trkpt>
      <trkpt lat="44.48998" lon="5.89352">
        <ele>1052</ele>
        <time>2019-06-15T09:25:51Z</time>
      </trkpt>
      <trkpt lat="44.48994" lon="5.89351">
        <ele>1052</ele>
        <time>2019-06-15T09:25:53Z</time>
      </trkpt>
      <trkpt lat="44.48992" lon="5.89351">
        <ele>1052</ele>
        <time>2019-06-15T09:25:54Z</time>
      </trkpt>
      <trkpt lat="44.48989" lon="5.89352">
        <ele>1052</ele>
        <time>2019-06-15T09:25:55Z</time>
      </trkpt>
      <trkpt lat="44.48987" lon="5.89352">
        <ele>1052</ele>
        <time>2019-06-15T09:25:56Z</time>
      </trkpt>
      <trkpt lat="44.48985" lon="5.89353">
        <ele>1052</ele>
        <time>2019-06-15T09:25:57Z</time>
      </trkpt>
      <trkpt lat="44.48983" lon="5.89353">
        <ele>1052</ele>
        <time>2019-06-15T09:25:58Z</time>
      </trkpt>
      <trkpt lat="44.48979" lon="5.89357">
        <ele>1052</ele>
        <time>2019-06-15T09:25:59Z</time>
      </trkpt>
      <trkpt lat="44.48978" lon="5.89355">
        <ele>1052</ele>
        <time>2019-06-15T09:26:00Z</time>
      </trkpt>
      <trkpt lat="44.48976" lon="5.89354">
        <ele>1052</ele>
        <time>2019-06-15T09:26:01Z</time>
      </trkpt>
      <trkpt lat="44.48974" lon="5.89353">
        <ele>1052</ele>
        <time>2019-06-15T09:26:02Z</time>
      </trkpt>
      <trkpt lat="44.48972" lon="5.89353">
        <ele>1052</ele>
        <time>2019-06-15T09:26:03Z</time>
      </trkpt>
      <trkpt lat="44.48969" lon="5.89352">
        <ele>1052</ele>
        <time>2019-06-15T09:26:04Z</time>
      </trkpt>
      <trkpt lat="44.48967" lon="5.8935">
        <ele>1052</ele>
        <time>2019-06-15T09:26:05Z</time>
      </trkpt>
      <trkpt lat="44.48965" lon="5.89347">
        <ele>1052</ele>
        <time>2019-06-15T09:26:06Z</time>
      </trkpt>
      <trkpt lat="44.48963" lon="5.89345">
        <ele>1052</ele>
        <time>2019-06-15T09:26:07Z</time>
      </trkpt>
      <trkpt lat="44.48962" lon="5.89342">
        <ele>1052</ele>
        <time>2019-06-15T09:26:08Z</time>
      </trkpt>
      <trkpt lat="44.4896" lon="5.89339">
        <ele>1052</ele>
        <time>2019-06-15T09:26:09Z</time>
      </trkpt>
      <trkpt lat="44.48959" lon="5.89336">
        <ele>1052</ele>
        <time>2019-06-15T09:26:10Z</time>
      </trkpt>
      <trkpt lat="44.48958" lon="5.89333">
        <ele>1051</ele>
        <time>2019-06-15T09:26:11Z</time>
      </trkpt>
      <trkpt lat="44.48957" lon="5.8933">
        <ele>1051</ele>
        <time>2019-06-15T09:26:12Z</time>
      </trkpt>
      <trkpt lat="44.48957" lon="5.89327">
        <ele>1050</ele>
        <time>2019-06-15T09:26:13Z</time>
      </trkpt>
      <trkpt lat="44.48956" lon="5.89323">
        <ele>1050</ele>
        <time>2019-06-15T09:26:14Z</time>
      </trkpt>
      <trkpt lat="44.48955" lon="5.8932">
        <ele>1050</ele>
        <time>2019-06-15T09:26:15Z</time>
      </trkpt>
      <trkpt lat="44.48955" lon="5.89317">
        <ele>1049</ele>
        <time>2019-06-15T09:26:16Z</time>
      </trkpt>
      <trkpt lat="44.48954" lon="5.89314">
        <ele>1049</ele>
        <time>2019-06-15T09:26:17Z</time>
      </trkpt>
      <trkpt lat="44.48954" lon="5.8931">
        <ele>1049</ele>
        <time>2019-06-15T09:26:18Z</time>
      </trkpt>
      <trkpt lat="44.48954" lon="5.89306">
        <ele>1049</ele>
        <time>2019-06-15T09:26:19Z</time>
      </trkpt>
      <trkpt lat="44.48953" lon="5.89303">
        <ele>1049</ele>
        <time>2019-06-15T09:26:20Z</time>
      </trkpt>
      <trkpt lat="44.48953" lon="5.89299">
        <ele>1049</ele>
        <time>2019-06-15T09:26:21Z</time>
      </trkpt>
      <trkpt lat="44.48952" lon="5.89296">
        <ele>1049</ele>
        <time>2019-06-15T09:26:22Z</time>
      </trkpt>
      <trkpt lat="44.48952" lon="5.89292">
        <ele>1049</ele>
        <time>2019-06-15T09:26:23Z</time>
      </trkpt>
      <trkpt lat="44.48951" lon="5.89289">
        <ele>1049</ele>
        <time>2019-06-15T09:26:24Z</time>
      </trkpt>
      <trkpt lat="44.48951" lon="5.89286">
        <ele>1049</ele>
        <time>2019-06-15T09:26:25Z</time>
      </trkpt>
      <trkpt lat="44.4895" lon="5.89283">
        <ele>1049</ele>
        <time>2019-06-15T09:26:26Z</time>
      </trkpt>
      <trkpt lat="44.4895" lon="5.8928">
        <ele>1049</ele>
        <time>2019-06-15T09:26:27Z</time>
      </trkpt>
      <trkpt lat="44.48949" lon="5.89276">
        <ele>1049</ele>
        <time>2019-06-15T09:26:28Z</time>
      </trkpt>
      <trkpt lat="44.48949" lon="5.89273">
        <ele>1049</ele>
        <time>2019-06-15T09:26:29Z</time>
      </trkpt>
      <trkpt lat="44.48949" lon="5.8927">
        <ele>1049</ele>
        <time>2019-06-15T09:26:30Z</time>
      </trkpt>
      <trkpt lat="44.48949" lon="5.89267">
        <ele>1049</ele>
        <time>2019-06-15T09:26:31Z</time>
      </trkpt>
      <trkpt lat="44.48949" lon="5.89263">
        <ele>1049</ele>
        <time>2019-06-15T09:26:32Z</time>
      </trkpt>
      <trkpt lat="44.48948" lon="5.8926">
        <ele>1049</ele>
        <time>2019-06-15T09:26:33Z</time>
      </trkpt>
      <trkpt lat="44.48948" lon="5.89257">
        <ele>1049</ele>
        <time>2019-06-15T09:26:34Z</time>
      </trkpt>
      <trkpt lat="44.48948" lon="5.89254">
        <ele>1049</ele>
        <time>2019-06-15T09:26:35Z</time>
      </trkpt>
      <trkpt lat="44.48946" lon="5.89251">
        <ele>1049</ele>
        <time>2019-06-15T09:26:36Z</time>
      </trkpt>
      <trkpt lat="44.48945" lon="5.89249">
        <ele>1049</ele>
        <time>2019-06-15T09:26:37Z</time>
      </trkpt>
      <trkpt lat="44.48944" lon="5.89246">
        <ele>1049</ele>
        <time>2019-06-15T09:26:38Z</time>
      </trkpt>
      <trkpt lat="44.48943" lon="5.89243">
        <ele>1049</ele>
        <time>2019-06-15T09:26:39Z</time>
      </trkpt>
      <trkpt lat="44.48942" lon="5.8924">
        <ele>1049</ele>
        <time>2019-06-15T09:26:40Z</time>
      </trkpt>
      <trkpt lat="44.4894" lon="5.89237">
        <ele>1049</ele>
        <time>2019-06-15T09:26:41Z</time>
      </trkpt>
      <trkpt lat="44.48938" lon="5.89235">
        <ele>1049</ele>
        <time>2019-06-15T09:26:42Z</time>
      </trkpt>
      <trkpt lat="44.48937" lon="5.89233">
        <ele>1049</ele>
        <time>2019-06-15T09:26:43Z</time>
      </trkpt>
      <trkpt lat="44.48935" lon="5.89231">
        <ele>1049</ele>
        <time>2019-06-15T09:26:44Z</time>
      </trkpt>
      <trkpt lat="44.48934" lon="5.89228">
        <ele>1049</ele>
        <time>2019-06-15T09:26:45Z</time>
      </trkpt>
      <trkpt lat="44.48932" lon="5.89225">
        <ele>1049</ele>
        <time>2019-06-15T09:26:46Z</time>
      </trkpt>
      <trkpt lat="44.4893" lon="5.89223">
        <ele>1049</ele>
        <time>2019-06-15T09:26:47Z</time>
      </trkpt>
      <trkpt lat="44.48928" lon="5.89221">
        <ele>1049</ele>
        <time>2019-06-15T09:26:48Z</time>
      </trkpt>
      <trkpt lat="44.48927" lon="5.89219">
        <ele>1049</ele>
        <time>2019-06-15T09:26:49Z</time>
      </trkpt>
      <trkpt lat="44.48925" lon="5.89216">
        <ele>1049</ele>
        <time>2019-06-15T09:26:50Z</time>
      </trkpt>
      <trkpt lat="44.48924" lon="5.89213">
        <ele>1049</ele>
        <time>2019-06-15T09:26:51Z</time>
      </trkpt>
      <trkpt lat="44.48923" lon="5.8921">
        <ele>1049</ele>
        <time>2019-06-15T09:26:52Z</time>
      </trkpt>
      <trkpt lat="44.48922" lon="5.89207">
        <ele>1050</ele>
        <time>2019-06-15T09:26:53Z</time>
      </trkpt>
      <trkpt lat="44.4892" lon="5.89204">
        <ele>1050</ele>
        <time>2019-06-15T09:26:54Z</time>
      </trkpt>
      <trkpt lat="44.48919" lon="5.89202">
        <ele>1050</ele>
        <time>2019-06-15T09:26:55Z</time>
      </trkpt>
      <trkpt lat="44.48919" lon="5.89198">
        <ele>1050</ele>
        <time>2019-06-15T09:26:56Z</time>
      </trkpt>
      <trkpt lat="44.48918" lon="5.89195">
        <ele>1050</ele>
        <time>2019-06-15T09:26:57Z</time>
      </trkpt>
      <trkpt lat="44.48917" lon="5.89191">
        <ele>1050</ele>
        <time>2019-06-15T09:26:58Z</time>
      </trkpt>
      <trkpt lat="44.48916" lon="5.89189">
        <ele>1051</ele>
        <time>2019-06-15T09:26:59Z</time>
      </trkpt>
      <trkpt lat="44.48915" lon="5.89186">
        <ele>1051</ele>
        <time>2019-06-15T09:27:00Z</time>
      </trkpt>
      <trkpt lat="44.48914" lon="5.89184">
        <ele>1052</ele>
        <time>2019-06-15T09:27:01Z</time>
      </trkpt>
      <trkpt lat="44.48913" lon="5.89181">
        <ele>1052</ele>
        <time>2019-06-15T09:27:02Z</time>
      </trkpt>
      <trkpt lat="44.48912" lon="5.89178">
        <ele>1052</ele>
        <time>2019-06-15T09:27:03Z</time>
      </trkpt>
      <trkpt lat="44.48912" lon="5.89175">
        <ele>1053</ele>
        <time>2019-06-15T09:27:04Z</time>
      </trkpt>
      <trkpt lat="44.48911" lon="5.89172">
        <ele>1053</ele>
        <time>2019-06-15T09:27:05Z</time>
      </trkpt>
      <trkpt lat="44.48911" lon="5.89169">
        <ele>1053</ele>
        <time>2019-06-15T09:27:06Z</time>
      </trkpt>
      <trkpt lat="44.48911" lon="5.89165">
        <ele>1054</ele>
        <time>2019-06-15T09:27:07Z</time>
      </trkpt>
      <trkpt lat="44.48911" lon="5.89162">
        <ele>1054</ele>
        <time>2019-06-15T09:27:08Z</time>
      </trkpt>
      <trkpt lat="44.4891" lon="5.89159">
        <ele>1054</ele>
        <time>2019-06-15T09:27:09Z</time>
      </trkpt>
      <trkpt lat="44.4891" lon="5.89156">
        <ele>1054</ele>
        <time>2019-06-15T09:27:10Z</time>
      </trkpt>
      <trkpt lat="44.4891" lon="5.89152">
        <ele>1054</ele>
        <time>2019-06-15T09:27:11Z</time>
      </trkpt>
      <trkpt lat="44.48911" lon="5.89149">
        <ele>1054</ele>
        <time>2019-06-15T09:27:12Z</time>
      </trkpt>
      <trkpt lat="44.48912" lon="5.89145">
        <ele>1054</ele>
        <time>2019-06-15T09:27:13Z</time>
      </trkpt>
      <trkpt lat="44.48913" lon="5.89142">
        <ele>1054</ele>
        <time>2019-06-15T09:27:14Z</time>
      </trkpt>
      <trkpt lat="44.48915" lon="5.89139">
        <ele>1054</ele>
        <time>2019-06-15T09:27:15Z</time>
      </trkpt>
      <trkpt lat="44.48917" lon="5.89136">
        <ele>1054</ele>
        <time>2019-06-15T09:27:16Z</time>
      </trkpt>
      <trkpt lat="44.48919" lon="5.89134">
        <ele>1054</ele>
        <time>2019-06-15T09:27:17Z</time>
      </trkpt>
      <trkpt lat="44.48922" lon="5.89131">
        <ele>1054</ele>
        <time>2019-06-15T09:27:18Z</time>
      </trkpt>
      <trkpt lat="44.48925" lon="5.8913">
        <ele>1054</ele>
        <time>2019-06-15T09:27:19Z</time>
      </trkpt>
      <trkpt lat="44.48928" lon="5.89127">
        <ele>1054</ele>
        <time>2019-06-15T09:27:20Z</time>
      </trkpt>
      <trkpt lat="44.4893" lon="5.89125">
        <ele>1054</ele>
        <time>2019-06-15T09:27:21Z</time>
      </trkpt>
      <trkpt lat="44.48932" lon="5.89122">
        <ele>1054</ele>
        <time>2019-06-15T09:27:22Z</time>
      </trkpt>
      <trkpt lat="44.48934" lon="5.89119">
        <ele>1055</ele>
        <time>2019-06-15T09:27:23Z</time>
      </trkpt>
      <trkpt lat="44.48936" lon="5.89116">
        <ele>1055</ele>
        <time>2019-06-15T09:27:24Z</time>
      </trkpt>
      <trkpt lat="44.48937" lon="5.89113">
        <ele>1055</ele>
        <time>2019-06-15T09:27:25Z</time>
      </trkpt>
      <trkpt lat="44.48939" lon="5.8911">
        <ele>1055</ele>
        <time>2019-06-15T09:27:26Z</time>
      </trkpt>
      <trkpt lat="44.4894" lon="5.89107">
        <ele>1055</ele>
        <time>2019-06-15T09:27:27Z</time>
      </trkpt>
      <trkpt lat="44.48941" lon="5.89104">
        <ele>1055</ele>
        <time>2019-06-15T09:27:28Z</time>
      </trkpt>
      <trkpt lat="44.48942" lon="5.891">
        <ele>1055</ele>
        <time>2019-06-15T09:27:29Z</time>
      </trkpt>
      <trkpt lat="44.48943" lon="5.89097">
        <ele>1055</ele>
        <time>2019-06-15T09:27:30Z</time>
      </trkpt>
      <trkpt lat="44.48944" lon="5.89094">
        <ele>1055</ele>
        <time>2019-06-15T09:27:31Z</time>
      </trkpt>
      <trkpt lat="44.48945" lon="5.89091">
        <ele>1055</ele>
        <time>2019-06-15T09:27:32Z</time>
      </trkpt>
      <trkpt lat="44.48946" lon="5.89088">
        <ele>1055</ele>
        <time>2019-06-15T09:27:33Z</time>
      </trkpt>
      <trkpt lat="44.48948" lon="5.89085">
        <ele>1055</ele>
        <time>2019-06-15T09:27:34Z</time>
      </trkpt>
      <trkpt lat="44.48949" lon="5.89083">
        <ele>1055</ele>
        <time>2019-06-15T09:27:35Z</time>
      </trkpt>
      <trkpt lat="44.48951" lon="5.8908">
        <ele>1055</ele>
        <time>2019-06-15T09:27:36Z</time>
      </trkpt>
      <trkpt lat="44.48952" lon="5.89078">
        <ele>1055</ele>
        <time>2019-06-15T09:27:37Z</time>
      </trkpt>
      <trkpt lat="44.48954" lon="5.89076">
        <ele>1055</ele>
        <time>2019-06-15T09:27:38Z</time>
      </trkpt>
      <trkpt lat="44.48955" lon="5.89073">
        <ele>1055</ele>
        <time>2019-06-15T09:27:39Z</time>
      </trkpt>
      <trkpt lat="44.48956" lon="5.8907">
        <ele>1055</ele>
        <time>2019-06-15T09:27:40Z</time>
      </trkpt>
      <trkpt lat="44.48957" lon="5.89068">
        <ele>1055</ele>
        <time>2019-06-15T09:27:41Z</time>
      </trkpt>
      <trkpt lat="44.48959" lon="5.89065">
        <ele>1055</ele>
        <time>2019-06-15T09:27:42Z</time>
      </trkpt>
      <trkpt lat="44.48961" lon="5.89063">
        <ele>1055</ele>
        <time>2019-06-15T09:27:43Z</time>
      </trkpt>
      <trkpt lat="44.48963" lon="5.8906">
        <ele>1055</ele>
        <time>2019-06-15T09:27:44Z</time>
      </trkpt>
      <trkpt lat="44.48964" lon="5.89058">
        <ele>1056</ele>
        <time>2019-06-15T09:27:45Z</time>
      </trkpt>
      <trkpt lat="44.48965" lon="5.89055">
        <ele>1056</ele>
        <time>2019-06-15T09:27:46Z</time>
      </trkpt>
      <trkpt lat="44.48966" lon="5.89052">
        <ele>1057</ele>
        <time>2019-06-15T09:27:47Z</time>
      </trkpt>
      <trkpt lat="44.48967" lon="5.8905">
        <ele>1057</ele>
        <time>2019-06-15T09:27:48Z</time>
      </trkpt>
      <trkpt lat="44.48967" lon="5.89046">
        <ele>1058</ele>
        <time>2019-06-15T09:27:49Z</time>
      </trkpt>
      <trkpt lat="44.48967" lon="5.89042">
        <ele>1058</ele>
        <time>2019-06-15T09:27:50Z</time>
      </trkpt>
      <trkpt lat="44.48966" lon="5.89039">
        <ele>1059</ele>
        <time>2019-06-15T09:27:51Z</time>
      </trkpt>
      <trkpt lat="44.48964" lon="5.89036">
        <ele>1060</ele>
        <time>2019-06-15T09:27:52Z</time>
      </trkpt>
      <trkpt lat="44.48962" lon="5.89034">
        <ele>1061</ele>
        <time>2019-06-15T09:27:53Z</time>
      </trkpt>
      <trkpt lat="44.48959" lon="5.89033">
        <ele>1062</ele>
        <time>2019-06-15T09:27:54Z</time>
      </trkpt>
      <trkpt lat="44.48956" lon="5.89034">
        <ele>1063</ele>
        <time>2019-06-15T09:27:55Z</time>
      </trkpt>
      <trkpt lat="44.48952" lon="5.89035">
        <ele>1064</ele>
        <time>2019-06-15T09:27:56Z</time>
      </trkpt>
      <trkpt lat="44.48949" lon="5.89037">
        <ele>1064</ele>
        <time>2019-06-15T09:27:57Z</time>
      </trkpt>
      <trkpt lat="44.48946" lon="5.89039">
        <ele>1065</ele>
        <time>2019-06-15T09:27:58Z</time>
      </trkpt>
      <trkpt lat="44.48943" lon="5.89041">
        <ele>1065</ele>
        <time>2019-06-15T09:27:59Z</time>
      </trkpt>
      <trkpt lat="44.4894" lon="5.89042">
        <ele>1065</ele>
        <time>2019-06-15T09:28:00Z</time>
      </trkpt>
      <trkpt lat="44.48937" lon="5.89044">
        <ele>1065</ele>
        <time>2019-06-15T09:28:01Z</time>
      </trkpt>
      <trkpt lat="44.48934" lon="5.89047">
        <ele>1065</ele>
        <time>2019-06-15T09:28:02Z</time>
      </trkpt>
      <trkpt lat="44.48931" lon="5.8905">
        <ele>1065</ele>
        <time>2019-06-15T09:28:03Z</time>
      </trkpt>
      <trkpt lat="44.48928" lon="5.89052">
        <ele>1065</ele>
        <time>2019-06-15T09:28:04Z</time>
      </trkpt>
      <trkpt lat="44.48925" lon="5.89053">
        <ele>1065</ele>
        <time>2019-06-15T09:28:05Z</time>
      </trkpt>
      <trkpt lat="44.48922" lon="5.89054">
        <ele>1065</ele>
        <time>2019-06-15T09:28:06Z</time>
      </trkpt>
      <trkpt lat="44.48919" lon="5.89056">
        <ele>1066</ele>
        <time>2019-06-15T09:28:07Z</time>
      </trkpt>
      <trkpt lat="44.48916" lon="5.89057">
        <ele>1066</ele>
        <time>2019-06-15T09:28:08Z</time>
      </trkpt>
      <trkpt lat="44.48913" lon="5.89058">
        <ele>1066</ele>
        <time>2019-06-15T09:28:09Z</time>
      </trkpt>
      <trkpt lat="44.4891" lon="5.8906">
        <ele>1066</ele>
        <time>2019-06-15T09:28:10Z</time>
      </trkpt>
      <trkpt lat="44.48907" lon="5.89061">
        <ele>1066</ele>
        <time>2019-06-15T09:28:11Z</time>
      </trkpt>
      <trkpt lat="44.48905" lon="5.89061">
        <ele>1066</ele>
        <time>2019-06-15T09:28:12Z</time>
      </trkpt>
      <trkpt lat="44.48902" lon="5.89063">
        <ele>1066</ele>
        <time>2019-06-15T09:28:13Z</time>
      </trkpt>
      <trkpt lat="44.48898" lon="5.89065">
        <ele>1067</ele>
        <time>2019-06-15T09:28:14Z</time>
      </trkpt>
      <trkpt lat="44.48896" lon="5.89066">
        <ele>1067</ele>
        <time>2019-06-15T09:28:15Z</time>
      </trkpt>
      <trkpt lat="44.48893" lon="5.89068">
        <ele>1067</ele>
        <time>2019-06-15T09:28:16Z</time>
      </trkpt>
      <trkpt lat="44.48891" lon="5.89068">
        <ele>1067</ele>
        <time>2019-06-15T09:28:17Z</time>
      </trkpt>
      <trkpt lat="44.48888" lon="5.89069">
        <ele>1067</ele>
        <time>2019-06-15T09:28:18Z</time>
      </trkpt>
      <trkpt lat="44.48886" lon="5.89069">
        <ele>1067</ele>
        <time>2019-06-15T09:28:19Z</time>
      </trkpt>
      <trkpt lat="44.48883" lon="5.89069">
        <ele>1067</ele>
        <time>2019-06-15T09:28:20Z</time>
      </trkpt>
      <trkpt lat="44.4888" lon="5.89068">
        <ele>1067</ele>
        <time>2019-06-15T09:28:21Z</time>
      </trkpt>
      <trkpt lat="44.48878" lon="5.89067">
        <ele>1067</ele>
        <time>2019-06-15T09:28:22Z</time>
      </trkpt>
      <trkpt lat="44.48876" lon="5.89066">
        <ele>1067</ele>
        <time>2019-06-15T09:28:23Z</time>
      </trkpt>
      <trkpt lat="44.48873" lon="5.89065">
        <ele>1067</ele>
        <time>2019-06-15T09:28:24Z</time>
      </trkpt>
      <trkpt lat="44.48871" lon="5.89064">
        <ele>1067</ele>
        <time>2019-06-15T09:28:25Z</time>
      </trkpt>
      <trkpt lat="44.48869" lon="5.89061">
        <ele>1068</ele>
        <time>2019-06-15T09:28:26Z</time>
      </trkpt>
      <trkpt lat="44.48868" lon="5.89058">
        <ele>1068</ele>
        <time>2019-06-15T09:28:27Z</time>
      </trkpt>
      <trkpt lat="44.48867" lon="5.89056">
        <ele>1069</ele>
        <time>2019-06-15T09:28:28Z</time>
      </trkpt>
      <trkpt lat="44.48867" lon="5.89053">
        <ele>1069</ele>
        <time>2019-06-15T09:28:29Z</time>
      </trkpt>
      <trkpt lat="44.48866" lon="5.89049">
        <ele>1069</ele>
        <time>2019-06-15T09:28:30Z</time>
      </trkpt>
      <trkpt lat="44.48866" lon="5.89045">
        <ele>1069</ele>
        <time>2019-06-15T09:28:31Z</time>
      </trkpt>
      <trkpt lat="44.48865" lon="5.89042">
        <ele>1069</ele>
        <time>2019-06-15T09:28:32Z</time>
      </trkpt>
      <trkpt lat="44.48864" lon="5.8904">
        <ele>1069</ele>
        <time>2019-06-15T09:28:33Z</time>
      </trkpt>
      <trkpt lat="44.48862" lon="5.89038">
        <ele>1069</ele>
        <time>2019-06-15T09:28:34Z</time>
      </trkpt>
      <trkpt lat="44.48861" lon="5.89035">
        <ele>1069</ele>
        <time>2019-06-15T09:28:35Z</time>
      </trkpt>
      <trkpt lat="44.4886" lon="5.89032">
        <ele>1069</ele>
        <time>2019-06-15T09:28:36Z</time>
      </trkpt>
      <trkpt lat="44.48859" lon="5.8903">
        <ele>1070</ele>
        <time>2019-06-15T09:28:37Z</time>
      </trkpt>
      <trkpt lat="44.48857" lon="5.89027">
        <ele>1070</ele>
        <time>2019-06-15T09:28:38Z</time>
      </trkpt>
      <trkpt lat="44.48856" lon="5.89024">
        <ele>1070</ele>
        <time>2019-06-15T09:28:39Z</time>
      </trkpt>
      <trkpt lat="44.48854" lon="5.89022">
        <ele>1070</ele>
        <time>2019-06-15T09:28:40Z</time>
      </trkpt>
      <trkpt lat="44.48852" lon="5.89019">
        <ele>1071</ele>
        <time>2019-06-15T09:28:41Z</time>
      </trkpt>
      <trkpt lat="44.48851" lon="5.89017">
        <ele>1071</ele>
        <time>2019-06-15T09:28:42Z</time>
      </trkpt>
      <trkpt lat="44.48849" lon="5.89014">
        <ele>1071</ele>
        <time>2019-06-15T09:28:43Z</time>
      </trkpt>
      <trkpt lat="44.48847" lon="5.89012">
        <ele>1072</ele>
        <time>2019-06-15T09:28:44Z</time>
      </trkpt>
      <trkpt lat="44.48846" lon="5.89009">
        <ele>1072</ele>
        <time>2019-06-15T09:28:45Z</time>
      </trkpt>
      <trkpt lat="44.48843" lon="5.89007">
        <ele>1072</ele>
        <time>2019-06-15T09:28:46Z</time>
      </trkpt>
      <trkpt lat="44.48841" lon="5.89006">
        <ele>1072</ele>
        <time>2019-06-15T09:28:47Z</time>
      </trkpt>
      <trkpt lat="44.48839" lon="5.89006">
        <ele>1072</ele>
        <time>2019-06-15T09:28:48Z</time>
      </trkpt>
      <trkpt lat="44.48836" lon="5.89005">
        <ele>1072</ele>
        <time>2019-06-15T09:28:49Z</time>
      </trkpt>
      <trkpt lat="44.48833" lon="5.89005">
        <ele>1072</ele>
        <time>2019-06-15T09:28:50Z</time>
      </trkpt>
      <trkpt lat="44.48831" lon="5.89004">
        <ele>1072</ele>
        <time>2019-06-15T09:28:51Z</time>
      </trkpt>
      <trkpt lat="44.48829" lon="5.89004">
        <ele>1072</ele>
        <time>2019-06-15T09:28:52Z</time>
      </trkpt>
      <trkpt lat="44.48826" lon="5.89003">
        <ele>1072</ele>
        <time>2019-06-15T09:28:53Z</time>
      </trkpt>
      <trkpt lat="44.48824" lon="5.89003">
        <ele>1072</ele>
        <time>2019-06-15T09:28:54Z</time>
      </trkpt>
      <trkpt lat="44.48821" lon="5.89003">
        <ele>1072</ele>
        <time>2019-06-15T09:28:55Z</time>
      </trkpt>
      <trkpt lat="44.48819" lon="5.89002">
        <ele>1073</ele>
        <time>2019-06-15T09:28:56Z</time>
      </trkpt>
      <trkpt lat="44.48817" lon="5.89001">
        <ele>1073</ele>
        <time>2019-06-15T09:28:57Z</time>
      </trkpt>
      <trkpt lat="44.48815" lon="5.89001">
        <ele>1074</ele>
        <time>2019-06-15T09:28:58Z</time>
      </trkpt>
      <trkpt lat="44.48812" lon="5.89">
        <ele>1075</ele>
        <time>2019-06-15T09:28:59Z</time>
      </trkpt>
      <trkpt lat="44.48811" lon="5.88998">
        <ele>1075</ele>
        <time>2019-06-15T09:29:00Z</time>
      </trkpt>
      <trkpt lat="44.48809" lon="5.88997">
        <ele>1076</ele>
        <time>2019-06-15T09:29:01Z</time>
      </trkpt>
      <trkpt lat="44.48806" lon="5.88997">
        <ele>1076</ele>
        <time>2019-06-15T09:29:02Z</time>
      </trkpt>
      <trkpt lat="44.48804" lon="5.88997">
        <ele>1077</ele>
        <time>2019-06-15T09:29:03Z</time>
      </trkpt>
      <trkpt lat="44.48802" lon="5.88996">
        <ele>1078</ele>
        <time>2019-06-15T09:29:04Z</time>
      </trkpt>
      <trkpt lat="44.488" lon="5.88997">
        <ele>1079</ele>
        <time>2019-06-15T09:29:05Z</time>
      </trkpt>
      <trkpt lat="44.48798" lon="5.88997">
        <ele>1080</ele>
        <time>2019-06-15T09:29:06Z</time>
      </trkpt>
      <trkpt lat="44.48796" lon="5.88997">
        <ele>1080</ele>
        <time>2019-06-15T09:29:07Z</time>
      </trkpt>
      <trkpt lat="44.48794" lon="5.88997">
        <ele>1081</ele>
        <time>2019-06-15T09:29:08Z</time>
      </trkpt>
      <trkpt lat="44.48792" lon="5.88997">
        <ele>1081</ele>
        <time>2019-06-15T09:29:09Z</time>
      </trkpt>
      <trkpt lat="44.4879" lon="5.88997">
        <ele>1081</ele>
        <time>2019-06-15T09:29:10Z</time>
      </trkpt>
      <trkpt lat="44.48788" lon="5.88997">
        <ele>1082</ele>
        <time>2019-06-15T09:29:11Z</time>
      </trkpt>
      <trkpt lat="44.48786" lon="5.88996">
        <ele>1082</ele>
        <time>2019-06-15T09:29:12Z</time>
      </trkpt>
      <trkpt lat="44.48784" lon="5.88996">
        <ele>1082</ele>
        <time>2019-06-15T09:29:13Z</time>
      </trkpt>
      <trkpt lat="44.48782" lon="5.88996">
        <ele>1082</ele>
        <time>2019-06-15T09:29:14Z</time>
      </trkpt>
      <trkpt lat="44.4878" lon="5.88995">
        <ele>1083</ele>
        <time>2019-06-15T09:29:15Z</time>
      </trkpt>
      <trkpt lat="44.48778" lon="5.88995">
        <ele>1083</ele>
        <time>2019-06-15T09:29:16Z</time>
      </trkpt>
      <trkpt lat="44.48775" lon="5.88994">
        <ele>1083</ele>
        <time>2019-06-15T09:29:17Z</time>
      </trkpt>
      <trkpt lat="44.48774" lon="5.88993">
        <ele>1083</ele>
        <time>2019-06-15T09:29:18Z</time>
      </trkpt>
      <trkpt lat="44.48772" lon="5.88991">
        <ele>1083</ele>
        <time>2019-06-15T09:29:19Z</time>
      </trkpt>
      <trkpt lat="44.4877" lon="5.88989">
        <ele>1083</ele>
        <time>2019-06-15T09:29:20Z</time>
      </trkpt>
      <trkpt lat="44.48768" lon="5.88987">
        <ele>1083</ele>
        <time>2019-06-15T09:29:21Z</time>
      </trkpt>
      <trkpt lat="44.48766" lon="5.88986">
        <ele>1083</ele>
        <time>2019-06-15T09:29:22Z</time>
      </trkpt>
      <trkpt lat="44.48764" lon="5.88984">
        <ele>1083</ele>
        <time>2019-06-15T09:29:23Z</time>
      </trkpt>
      <trkpt lat="44.48762" lon="5.88982">
        <ele>1083</ele>
        <time>2019-06-15T09:29:24Z</time>
      </trkpt>
      <trkpt lat="44.4876" lon="5.88981">
        <ele>1083</ele>
        <time>2019-06-15T09:29:25Z</time>
      </trkpt>
      <trkpt lat="44.48758" lon="5.88979">
        <ele>1083</ele>
        <time>2019-06-15T09:29:26Z</time>
      </trkpt>
      <trkpt lat="44.48756" lon="5.88977">
        <ele>1083</ele>
        <time>2019-06-15T09:29:27Z</time>
      </trkpt>
      <trkpt lat="44.48754" lon="5.88975">
        <ele>1084</ele>
        <time>2019-06-15T09:29:28Z</time>
      </trkpt>
      <trkpt lat="44.48753" lon="5.88973">
        <ele>1084</ele>
        <time>2019-06-15T09:29:29Z</time>
      </trkpt>
      <trkpt lat="44.48751" lon="5.8897">
        <ele>1085</ele>
        <time>2019-06-15T09:29:30Z</time>
      </trkpt>
      <trkpt lat="44.4875" lon="5.88967">
        <ele>1085</ele>
        <time>2019-06-15T09:29:31Z</time>
      </trkpt>
      <trkpt lat="44.48748" lon="5.88965">
        <ele>1085</ele>
        <time>2019-06-15T09:29:32Z</time>
      </trkpt>
      <trkpt lat="44.48746" lon="5.88963">
        <ele>1085</ele>
        <time>2019-06-15T09:29:33Z</time>
      </trkpt>
      <trkpt lat="44.48744" lon="5.88961">
        <ele>1085</ele>
        <time>2019-06-15T09:29:34Z</time>
      </trkpt>
      <trkpt lat="44.48743" lon="5.88958">
        <ele>1085</ele>
        <time>2019-06-15T09:29:35Z</time>
      </trkpt>
      <trkpt lat="44.4874" lon="5.88958">
        <ele>1086</ele>
        <time>2019-06-15T09:29:36Z</time>
      </trkpt>
      <trkpt lat="44.48738" lon="5.88956">
        <ele>1086</ele>
        <time>2019-06-15T09:29:37Z</time>
      </trkpt>
      <trkpt lat="44.48735" lon="5.88956">
        <ele>1087</ele>
        <time>2019-06-15T09:29:38Z</time>
      </trkpt>
      <trkpt lat="44.48733" lon="5.88956">
        <ele>1088</ele>
        <time>2019-06-15T09:29:39Z</time>
      </trkpt>
      <trkpt lat="44.4873" lon="5.88956">
        <ele>1089</ele>
        <time>2019-06-15T09:29:40Z</time>
      </trkpt>
      <trkpt lat="44.48728" lon="5.88955">
        <ele>1090</ele>
        <time>2019-06-15T09:29:41Z</time>
      </trkpt>
      <trkpt lat="44.48726" lon="5.88954">
        <ele>1091</ele>
        <time>2019-06-15T09:29:42Z</time>
      </trkpt>
      <trkpt lat="44.48724" lon="5.88953">
        <ele>1092</ele>
        <time>2019-06-15T09:29:43Z</time>
      </trkpt>
      <trkpt lat="44.48722" lon="5.88951">
        <ele>1093</ele>
        <time>2019-06-15T09:29:44Z</time>
      </trkpt>
      <trkpt lat="44.48721" lon="5.8895">
        <ele>1094</ele>
        <time>2019-06-15T09:29:45Z</time>
      </trkpt>
      <trkpt lat="44.48719" lon="5.88949">
        <ele>1095</ele>
        <time>2019-06-15T09:29:46Z</time>
      </trkpt>
      <trkpt lat="44.48716" lon="5.88948">
        <ele>1096</ele>
        <time>2019-06-15T09:29:47Z</time>
      </trkpt>
      <trkpt lat="44.48714" lon="5.88947">
        <ele>1097</ele>
        <time>2019-06-15T09:29:48Z</time>
      </trkpt>
      <trkpt lat="44.48711" lon="5.88948">
        <ele>1097</ele>
        <time>2019-06-15T09:29:49Z</time>
      </trkpt>
      <trkpt lat="44.48709" lon="5.88946">
        <ele>1098</ele>
        <time>2019-06-15T09:29:50Z</time>
      </trkpt>
      <trkpt lat="44.48708" lon="5.88945">
        <ele>1098</ele>
        <time>2019-06-15T09:29:51Z</time>
      </trkpt>
      <trkpt lat="44.48705" lon="5.88944">
        <ele>1098</ele>
        <time>2019-06-15T09:29:52Z</time>
      </trkpt>
      <trkpt lat="44.48703" lon="5.88943">
        <ele>1098</ele>
        <time>2019-06-15T09:29:53Z</time>
      </trkpt>
      <trkpt lat="44.48701" lon="5.88942">
        <ele>1098</ele>
        <time>2019-06-15T09:29:54Z</time>
      </trkpt>
      <trkpt lat="44.48699" lon="5.88942">
        <ele>1098</ele>
        <time>2019-06-15T09:29:55Z</time>
      </trkpt>
      <trkpt lat="44.48697" lon="5.88942">
        <ele>1098</ele>
        <time>2019-06-15T09:29:56Z</time>
      </trkpt>
      <trkpt lat="44.48695" lon="5.88941">
        <ele>1099</ele>
        <time>2019-06-15T09:29:57Z</time>
      </trkpt>
      <trkpt lat="44.48693" lon="5.8894">
        <ele>1099</ele>
        <time>2019-06-15T09:29:58Z</time>
      </trkpt>
      <trkpt lat="44.4869" lon="5.8894">
        <ele>1100</ele>
        <time>2019-06-15T09:29:59Z</time>
      </trkpt>
      <trkpt lat="44.48688" lon="5.8894">
        <ele>1100</ele>
        <time>2019-06-15T09:30:00Z</time>
      </trkpt>
      <trkpt lat="44.48686" lon="5.88939">
        <ele>1101</ele>
        <time>2019-06-15T09:30:01Z</time>
      </trkpt>
      <trkpt lat="44.48684" lon="5.88937">
        <ele>1101</ele>
        <time>2019-06-15T09:30:02Z</time>
      </trkpt>
      <trkpt lat="44.48682" lon="5.88936">
        <ele>1101</ele>
        <time>2019-06-15T09:30:03Z</time>
      </trkpt>
      <trkpt lat="44.4868" lon="5.88934">
        <ele>1102</ele>
        <time>2019-06-15T09:30:04Z</time>
      </trkpt>
      <trkpt lat="44.48679" lon="5.88933">
        <ele>1102</ele>
        <time>2019-06-15T09:30:05Z</time>
      </trkpt>
      <trkpt lat="44.48677" lon="5.88932">
        <ele>1102</ele>
        <time>2019-06-15T09:30:06Z</time>
      </trkpt>
      <trkpt lat="44.48675" lon="5.88931">
        <ele>1102</ele>
        <time>2019-06-15T09:30:07Z</time>
      </trkpt>
      <trkpt lat="44.48672" lon="5.8893">
        <ele>1102</ele>
        <time>2019-06-15T09:30:08Z</time>
      </trkpt>
      <trkpt lat="44.4867" lon="5.8893">
        <ele>1102</ele>
        <time>2019-06-15T09:30:09Z</time>
      </trkpt>
      <trkpt lat="44.48667" lon="5.88929">
        <ele>1102</ele>
        <time>2019-06-15T09:30:10Z</time>
      </trkpt>
      <trkpt lat="44.48665" lon="5.88928">
        <ele>1102</ele>
        <time>2019-06-15T09:30:11Z</time>
      </trkpt>
      <trkpt lat="44.48663" lon="5.88928">
        <ele>1102</ele>
        <time>2019-06-15T09:30:12Z</time>
      </trkpt>
      <trkpt lat="44.48661" lon="5.88927">
        <ele>1101</ele>
        <time>2019-06-15T09:30:13Z</time>
      </trkpt>
      <trkpt lat="44.48659" lon="5.88926">
        <ele>1100</ele>
        <time>2019-06-15T09:30:14Z</time>
      </trkpt>
      <trkpt lat="44.48656" lon="5.88926">
        <ele>1099</ele>
        <time>2019-06-15T09:30:15Z</time>
      </trkpt>
      <trkpt lat="44.48654" lon="5.88925">
        <ele>1098</ele>
        <time>2019-06-15T09:30:16Z</time>
      </trkpt>
      <trkpt lat="44.48653" lon="5.88925">
        <ele>1097</ele>
        <time>2019-06-15T09:30:17Z</time>
      </trkpt>
      <trkpt lat="44.48651" lon="5.88924">
        <ele>1096</ele>
        <time>2019-06-15T09:30:18Z</time>
      </trkpt>
      <trkpt lat="44.4865" lon="5.88925">
        <ele>1095</ele>
        <time>2019-06-15T09:30:19Z</time>
      </trkpt>
      <trkpt lat="44.48648" lon="5.88926">
        <ele>1094</ele>
        <time>2019-06-15T09:30:20Z</time>
      </trkpt>
      <trkpt lat="44.48644" lon="5.88933">
        <ele>1094</ele>
        <time>2019-06-15T09:30:21Z</time>
      </trkpt>
      <trkpt lat="44.48642" lon="5.88937">
        <ele>1094</ele>
        <time>2019-06-15T09:30:22Z</time>
      </trkpt>
      <trkpt lat="44.4864" lon="5.88936">
        <ele>1095</ele>
        <time>2019-06-15T09:30:23Z</time>
      </trkpt>
      <trkpt lat="44.48638" lon="5.88936">
        <ele>1096</ele>
        <time>2019-06-15T09:30:24Z</time>
      </trkpt>
      <trkpt lat="44.48635" lon="5.88935">
        <ele>1097</ele>
        <time>2019-06-15T09:30:25Z</time>
      </trkpt>
      <trkpt lat="44.48631" lon="5.88935">
        <ele>1098</ele>
        <time>2019-06-15T09:30:26Z</time>
      </trkpt>
      <trkpt lat="44.48629" lon="5.88935">
        <ele>1098</ele>
        <time>2019-06-15T09:30:27Z</time>
      </trkpt>
      <trkpt lat="44.48628" lon="5.88936">
        <ele>1098</ele>
        <time>2019-06-15T09:30:29Z</time>
      </trkpt>
      <trkpt lat="44.48629" lon="5.88935">
        <ele>1098</ele>
        <time>2019-06-15T09:30:31Z</time>
      </trkpt>
      <trkpt lat="44.48628" lon="5.88935">
        <ele>1098</ele>
        <time>2019-06-15T09:30:32Z</time>
      </trkpt>
      <trkpt lat="44.48626" lon="5.88935">
        <ele>1098</ele>
        <time>2019-06-15T09:30:33Z</time>
      </trkpt>
      <trkpt lat="44.48624" lon="5.88939">
        <ele>1098</ele>
        <time>2019-06-15T09:30:35Z</time>
      </trkpt>
      <trkpt lat="44.48623" lon="5.88942">
        <ele>1098</ele>
        <time>2019-06-15T09:30:36Z</time>
      </trkpt>
      <trkpt lat="44.48621" lon="5.88944">
        <ele>1098</ele>
        <time>2019-06-15T09:30:37Z</time>
      </trkpt>
      <trkpt lat="44.4862" lon="5.88945">
        <ele>1099</ele>
        <time>2019-06-15T09:30:38Z</time>
      </trkpt>
      <trkpt lat="44.48619" lon="5.88946">
        <ele>1100</ele>
        <time>2019-06-15T09:30:39Z</time>
      </trkpt>
      <trkpt lat="44.48615" lon="5.88946">
        <ele>1101</ele>
        <time>2019-06-15T09:30:40Z</time>
      </trkpt>
      <trkpt lat="44.48612" lon="5.88945">
        <ele>1101</ele>
        <time>2019-06-15T09:30:41Z</time>
      </trkpt>
      <trkpt lat="44.48608" lon="5.88945">
        <ele>1101</ele>
        <time>2019-06-15T09:30:42Z</time>
      </trkpt>
      <trkpt lat="44.48607" lon="5.88946">
        <ele>1101</ele>
        <time>2019-06-15T09:30:43Z</time>
      </trkpt>
      <trkpt lat="44.48605" lon="5.88948">
        <ele>1101</ele>
        <time>2019-06-15T09:30:44Z</time>
      </trkpt>
      <trkpt lat="44.48601" lon="5.88948">
        <ele>1101</ele>
        <time>2019-06-15T09:30:45Z</time>
      </trkpt>
      <trkpt lat="44.48598" lon="5.88947">
        <ele>1101</ele>
        <time>2019-06-15T09:30:46Z</time>
      </trkpt>
      <trkpt lat="44.48595" lon="5.88945">
        <ele>1101</ele>
        <time>2019-06-15T09:30:47Z</time>
      </trkpt>
      <trkpt lat="44.48592" lon="5.88943">
        <ele>1101</ele>
        <time>2019-06-15T09:30:48Z</time>
      </trkpt>
      <trkpt lat="44.4859" lon="5.88941">
        <ele>1100</ele>
        <time>2019-06-15T09:30:49Z</time>
      </trkpt>
      <trkpt lat="44.48586" lon="5.88939">
        <ele>1099</ele>
        <time>2019-06-15T09:30:50Z</time>
      </trkpt>
      <trkpt lat="44.48583" lon="5.88937">
        <ele>1099</ele>
        <time>2019-06-15T09:30:51Z</time>
      </trkpt>
      <trkpt lat="44.48579" lon="5.88935">
        <ele>1099</ele>
        <time>2019-06-15T09:30:52Z</time>
      </trkpt>
      <trkpt lat="44.48575" lon="5.88932">
        <ele>1098</ele>
        <time>2019-06-15T09:30:53Z</time>
      </trkpt>
      <trkpt lat="44.48573" lon="5.88929">
        <ele>1098</ele>
        <time>2019-06-15T09:30:54Z</time>
      </trkpt>
      <trkpt lat="44.4857" lon="5.88927">
        <ele>1098</ele>
        <time>2019-06-15T09:30:55Z</time>
      </trkpt>
      <trkpt lat="44.48568" lon="5.88924">
        <ele>1098</ele>
        <time>2019-06-15T09:30:56Z</time>
      </trkpt>
      <trkpt lat="44.48566" lon="5.88919">
        <ele>1098</ele>
        <time>2019-06-15T09:30:57Z</time>
      </trkpt>
      <trkpt lat="44.48564" lon="5.88915">
        <ele>1098</ele>
        <time>2019-06-15T09:30:58Z</time>
      </trkpt>
      <trkpt lat="44.48561" lon="5.88912">
        <ele>1098</ele>
        <time>2019-06-15T09:30:59Z</time>
      </trkpt>
      <trkpt lat="44.4856" lon="5.88909">
        <ele>1098</ele>
        <time>2019-06-15T09:31:00Z</time>
      </trkpt>
      <trkpt lat="44.48558" lon="5.88905">
        <ele>1098</ele>
        <time>2019-06-15T09:31:01Z</time>
      </trkpt>
      <trkpt lat="44.48556" lon="5.88903">
        <ele>1098</ele>
        <time>2019-06-15T09:31:02Z</time>
      </trkpt>
      <trkpt lat="44.48553" lon="5.889">
        <ele>1098</ele>
        <time>2019-06-15T09:31:03Z</time>
      </trkpt>
      <trkpt lat="44.48551" lon="5.88898">
        <ele>1098</ele>
        <time>2019-06-15T09:31:04Z</time>
      </trkpt>
      <trkpt lat="44.48549" lon="5.88895">
        <ele>1098</ele>
        <time>2019-06-15T09:31:05Z</time>
      </trkpt>
      <trkpt lat="44.48546" lon="5.88894">
        <ele>1098</ele>
        <time>2019-06-15T09:31:06Z</time>
      </trkpt>
      <trkpt lat="44.48543" lon="5.88892">
        <ele>1098</ele>
        <time>2019-06-15T09:31:07Z</time>
      </trkpt>
      <trkpt lat="44.4854" lon="5.8889">
        <ele>1098</ele>
        <time>2019-06-15T09:31:08Z</time>
      </trkpt>
      <trkpt lat="44.48538" lon="5.88888">
        <ele>1098</ele>
        <time>2019-06-15T09:31:09Z</time>
      </trkpt>
      <trkpt lat="44.48536" lon="5.88886">
        <ele>1098</ele>
        <time>2019-06-15T09:31:10Z</time>
      </trkpt>
      <trkpt lat="44.48534" lon="5.88884">
        <ele>1098</ele>
        <time>2019-06-15T09:31:11Z</time>
      </trkpt>
      <trkpt lat="44.48531" lon="5.88882">
        <ele>1098</ele>
        <time>2019-06-15T09:31:12Z</time>
      </trkpt>
      <trkpt lat="44.4853" lon="5.8888">
        <ele>1098</ele>
        <time>2019-06-15T09:31:13Z</time>
      </trkpt>
      <trkpt lat="44.48528" lon="5.88878">
        <ele>1098</ele>
        <time>2019-06-15T09:31:14Z</time>
      </trkpt>
      <trkpt lat="44.48526" lon="5.88875">
        <ele>1098</ele>
        <time>2019-06-15T09:31:15Z</time>
      </trkpt>
      <trkpt lat="44.48524" lon="5.88873">
        <ele>1098</ele>
        <time>2019-06-15T09:31:16Z</time>
      </trkpt>
      <trkpt lat="44.48521" lon="5.88871">
        <ele>1098</ele>
        <time>2019-06-15T09:31:17Z</time>
      </trkpt>
      <trkpt lat="44.48519" lon="5.88869">
        <ele>1098</ele>
        <time>2019-06-15T09:31:18Z</time>
      </trkpt>
      <trkpt lat="44.48517" lon="5.88867">
        <ele>1098</ele>
        <time>2019-06-15T09:31:19Z</time>
      </trkpt>
      <trkpt lat="44.48515" lon="5.88865">
        <ele>1098</ele>
        <time>2019-06-15T09:31:20Z</time>
      </trkpt>
      <trkpt lat="44.48513" lon="5.88864">
        <ele>1098</ele>
        <time>2019-06-15T09:31:21Z</time>
      </trkpt>
      <trkpt lat="44.4851" lon="5.88862">
        <ele>1098</ele>
        <time>2019-06-15T09:31:22Z</time>
      </trkpt>
      <trkpt lat="44.48508" lon="5.88861">
        <ele>1098</ele>
        <time>2019-06-15T09:31:23Z</time>
      </trkpt>
      <trkpt lat="44.48505" lon="5.8886">
        <ele>1098</ele>
        <time>2019-06-15T09:31:24Z</time>
      </trkpt>
      <trkpt lat="44.48503" lon="5.88858">
        <ele>1098</ele>
        <time>2019-06-15T09:31:25Z</time>
      </trkpt>
      <trkpt lat="44.48501" lon="5.88857">
        <ele>1098</ele>
        <time>2019-06-15T09:31:26Z</time>
      </trkpt>
      <trkpt lat="44.48499" lon="5.88855">
        <ele>1098</ele>
        <time>2019-06-15T09:31:27Z</time>
      </trkpt>
      <trkpt lat="44.48497" lon="5.88852">
        <ele>1098</ele>
        <time>2019-06-15T09:31:28Z</time>
      </trkpt>
      <trkpt lat="44.48496" lon="5.8885">
        <ele>1098</ele>
        <time>2019-06-15T09:31:29Z</time>
      </trkpt>
      <trkpt lat="44.48494" lon="5.88848">
        <ele>1098</ele>
        <time>2019-06-15T09:31:30Z</time>
      </trkpt>
      <trkpt lat="44.48492" lon="5.88847">
        <ele>1098</ele>
        <time>2019-06-15T09:31:31Z</time>
      </trkpt>
      <trkpt lat="44.4849" lon="5.88846">
        <ele>1098</ele>
        <time>2019-06-15T09:31:32Z</time>
      </trkpt>
      <trkpt lat="44.48489" lon="5.88844">
        <ele>1098</ele>
        <time>2019-06-15T09:31:33Z</time>
      </trkpt>
      <trkpt lat="44.48486" lon="5.88842">
        <ele>1098</ele>
        <time>2019-06-15T09:31:34Z</time>
      </trkpt>
      <trkpt lat="44.48484" lon="5.88843">
        <ele>1098</ele>
        <time>2019-06-15T09:31:35Z</time>
      </trkpt>
      <trkpt lat="44.48481" lon="5.88842">
        <ele>1098</ele>
        <time>2019-06-15T09:31:36Z</time>
      </trkpt>
      <trkpt lat="44.48479" lon="5.8884">
        <ele>1098</ele>
        <time>2019-06-15T09:31:37Z</time>
      </trkpt>
      <trkpt lat="44.48477" lon="5.88838">
        <ele>1098</ele>
        <time>2019-06-15T09:31:38Z</time>
      </trkpt>
      <trkpt lat="44.48476" lon="5.88836">
        <ele>1098</ele>
        <time>2019-06-15T09:31:39Z</time>
      </trkpt>
      <trkpt lat="44.48474" lon="5.88835">
        <ele>1099</ele>
        <time>2019-06-15T09:31:40Z</time>
      </trkpt>
      <trkpt lat="44.48472" lon="5.88833">
        <ele>1099</ele>
        <time>2019-06-15T09:31:41Z</time>
      </trkpt>
      <trkpt lat="44.4847" lon="5.88831">
        <ele>1099</ele>
        <time>2019-06-15T09:31:42Z</time>
      </trkpt>
      <trkpt lat="44.48468" lon="5.88829">
        <ele>1099</ele>
        <time>2019-06-15T09:31:43Z</time>
      </trkpt>
      <trkpt lat="44.48467" lon="5.88826">
        <ele>1099</ele>
        <time>2019-06-15T09:31:44Z</time>
      </trkpt>
      <trkpt lat="44.48465" lon="5.88825">
        <ele>1099</ele>
        <time>2019-06-15T09:31:45Z</time>
      </trkpt>
      <trkpt lat="44.48463" lon="5.88823">
        <ele>1099</ele>
        <time>2019-06-15T09:31:46Z</time>
      </trkpt>
      <trkpt lat="44.4846" lon="5.88821">
        <ele>1100</ele>
        <time>2019-06-15T09:31:47Z</time>
      </trkpt>
      <trkpt lat="44.48458" lon="5.8882">
        <ele>1101</ele>
        <time>2019-06-15T09:31:48Z</time>
      </trkpt>
      <trkpt lat="44.48455" lon="5.88821">
        <ele>1102</ele>
        <time>2019-06-15T09:31:49Z</time>
      </trkpt>
      <trkpt lat="44.48452" lon="5.88819">
        <ele>1103</ele>
        <time>2019-06-15T09:31:50Z</time>
      </trkpt>
      <trkpt lat="44.4845" lon="5.88816">
        <ele>1104</ele>
        <time>2019-06-15T09:31:51Z</time>
      </trkpt>
      <trkpt lat="44.48448" lon="5.88814">
        <ele>1104</ele>
        <time>2019-06-15T09:31:52Z</time>
      </trkpt>
      <trkpt lat="44.48446" lon="5.88812">
        <ele>1104</ele>
        <time>2019-06-15T09:31:53Z</time>
      </trkpt>
      <trkpt lat="44.48444" lon="5.8881">
        <ele>1104</ele>
        <time>2019-06-15T09:31:54Z</time>
      </trkpt>
      <trkpt lat="44.48442" lon="5.88809">
        <ele>1104</ele>
        <time>2019-06-15T09:31:55Z</time>
      </trkpt>
      <trkpt lat="44.4844" lon="5.88807">
        <ele>1104</ele>
        <time>2019-06-15T09:31:56Z</time>
      </trkpt>
      <trkpt lat="44.48438" lon="5.88806">
        <ele>1104</ele>
        <time>2019-06-15T09:31:57Z</time>
      </trkpt>
      <trkpt lat="44.48435" lon="5.88805">
        <ele>1104</ele>
        <time>2019-06-15T09:31:58Z</time>
      </trkpt>
      <trkpt lat="44.48433" lon="5.88804">
        <ele>1104</ele>
        <time>2019-06-15T09:31:59Z</time>
      </trkpt>
      <trkpt lat="44.4843" lon="5.88804">
        <ele>1104</ele>
        <time>2019-06-15T09:32:00Z</time>
      </trkpt>
      <trkpt lat="44.48428" lon="5.88804">
        <ele>1104</ele>
        <time>2019-06-15T09:32:01Z</time>
      </trkpt>
      <trkpt lat="44.48426" lon="5.88803">
        <ele>1104</ele>
        <time>2019-06-15T09:32:02Z</time>
      </trkpt>
      <trkpt lat="44.48424" lon="5.88803">
        <ele>1104</ele>
        <time>2019-06-15T09:32:03Z</time>
      </trkpt>
      <trkpt lat="44.48421" lon="5.88803">
        <ele>1104</ele>
        <time>2019-06-15T09:32:04Z</time>
      </trkpt>
      <trkpt lat="44.48419" lon="5.88803">
        <ele>1104</ele>
        <time>2019-06-15T09:32:05Z</time>
      </trkpt>
      <trkpt lat="44.48417" lon="5.88804">
        <ele>1104</ele>
        <time>2019-06-15T09:32:06Z</time>
      </trkpt>
      <trkpt lat="44.48414" lon="5.88804">
        <ele>1104</ele>
        <time>2019-06-15T09:32:07Z</time>
      </trkpt>
      <trkpt lat="44.48412" lon="5.88805">
        <ele>1104</ele>
        <time>2019-06-15T09:32:08Z</time>
      </trkpt>
      <trkpt lat="44.4841" lon="5.88806">
        <ele>1105</ele>
        <time>2019-06-15T09:32:09Z</time>
      </trkpt>
      <trkpt lat="44.48407" lon="5.88806">
        <ele>1105</ele>
        <time>2019-06-15T09:32:10Z</time>
      </trkpt>
      <trkpt lat="44.48404" lon="5.88807">
        <ele>1106</ele>
        <time>2019-06-15T09:32:11Z</time>
      </trkpt>
      <trkpt lat="44.48402" lon="5.88807">
        <ele>1107</ele>
        <time>2019-06-15T09:32:12Z</time>
      </trkpt>
      <trkpt lat="44.484" lon="5.88808">
        <ele>1107</ele>
        <time>2019-06-15T09:32:13Z</time>
      </trkpt>
      <trkpt lat="44.48398" lon="5.88808">
        <ele>1108</ele>
        <time>2019-06-15T09:32:14Z</time>
      </trkpt>
      <trkpt lat="44.48396" lon="5.88809">
        <ele>1109</ele>
        <time>2019-06-15T09:32:15Z</time>
      </trkpt>
      <trkpt lat="44.48394" lon="5.88809">
        <ele>1110</ele>
        <time>2019-06-15T09:32:16Z</time>
      </trkpt>
      <trkpt lat="44.48391" lon="5.88809">
        <ele>1110</ele>
        <time>2019-06-15T09:32:17Z</time>
      </trkpt>
      <trkpt lat="44.48389" lon="5.8881">
        <ele>1111</ele>
        <time>2019-06-15T09:32:18Z</time>
      </trkpt>
      <trkpt lat="44.48386" lon="5.88811">
        <ele>1111</ele>
        <time>2019-06-15T09:32:19Z</time>
      </trkpt>
      <trkpt lat="44.48384" lon="5.88811">
        <ele>1111</ele>
        <time>2019-06-15T09:32:20Z</time>
      </trkpt>
      <trkpt lat="44.48381" lon="5.88811">
        <ele>1112</ele>
        <time>2019-06-15T09:32:21Z</time>
      </trkpt>
      <trkpt lat="44.48379" lon="5.88813">
        <ele>1112</ele>
        <time>2019-06-15T09:32:22Z</time>
      </trkpt>
      <trkpt lat="44.48376" lon="5.88813">
        <ele>1112</ele>
        <time>2019-06-15T09:32:23Z</time>
      </trkpt>
      <trkpt lat="44.48373" lon="5.88814">
        <ele>1112</ele>
        <time>2019-06-15T09:32:24Z</time>
      </trkpt>
      <trkpt lat="44.48371" lon="5.88815">
        <ele>1112</ele>
        <time>2019-06-15T09:32:25Z</time>
      </trkpt>
      <trkpt lat="44.48369" lon="5.88815">
        <ele>1112</ele>
        <time>2019-06-15T09:32:26Z</time>
      </trkpt>
      <trkpt lat="44.48367" lon="5.88816">
        <ele>1112</ele>
        <time>2019-06-15T09:32:27Z</time>
      </trkpt>
      <trkpt lat="44.48364" lon="5.88817">
        <ele>1112</ele>
        <time>2019-06-15T09:32:28Z</time>
      </trkpt>
      <trkpt lat="44.48361" lon="5.88817">
        <ele>1112</ele>
        <time>2019-06-15T09:32:29Z</time>
      </trkpt>
      <trkpt lat="44.48359" lon="5.88818">
        <ele>1112</ele>
        <time>2019-06-15T09:32:30Z</time>
      </trkpt>
      <trkpt lat="44.48356" lon="5.88819">
        <ele>1112</ele>
        <time>2019-06-15T09:32:31Z</time>
      </trkpt>
      <trkpt lat="44.48354" lon="5.88821">
        <ele>1113</ele>
        <time>2019-06-15T09:32:32Z</time>
      </trkpt>
      <trkpt lat="44.48351" lon="5.88822">
        <ele>1113</ele>
        <time>2019-06-15T09:32:33Z</time>
      </trkpt>
      <trkpt lat="44.48348" lon="5.88823">
        <ele>1113</ele>
        <time>2019-06-15T09:32:34Z</time>
      </trkpt>
      <trkpt lat="44.48346" lon="5.88825">
        <ele>1114</ele>
        <time>2019-06-15T09:32:35Z</time>
      </trkpt>
      <trkpt lat="44.48343" lon="5.88826">
        <ele>1115</ele>
        <time>2019-06-15T09:32:36Z</time>
      </trkpt>
      <trkpt lat="44.4834" lon="5.88828">
        <ele>1115</ele>
        <time>2019-06-15T09:32:37Z</time>
      </trkpt>
      <trkpt lat="44.48337" lon="5.88829">
        <ele>1115</ele>
        <time>2019-06-15T09:32:38Z</time>
      </trkpt>
      <trkpt lat="44.48335" lon="5.8883">
        <ele>1116</ele>
        <time>2019-06-15T09:32:39Z</time>
      </trkpt>
      <trkpt lat="44.48333" lon="5.88831">
        <ele>1116</ele>
        <time>2019-06-15T09:32:40Z</time>
      </trkpt>
      <trkpt lat="44.4833" lon="5.88832">
        <ele>1116</ele>
        <time>2019-06-15T09:32:41Z</time>
      </trkpt>
      <trkpt lat="44.48327" lon="5.88833">
        <ele>1116</ele>
        <time>2019-06-15T09:32:42Z</time>
      </trkpt>
      <trkpt lat="44.48325" lon="5.88834">
        <ele>1116</ele>
        <time>2019-06-15T09:32:43Z</time>
      </trkpt>
      <trkpt lat="44.48322" lon="5.88835">
        <ele>1117</ele>
        <time>2019-06-15T09:32:44Z</time>
      </trkpt>
      <trkpt lat="44.48319" lon="5.88835">
        <ele>1117</ele>
        <time>2019-06-15T09:32:45Z</time>
      </trkpt>
      <trkpt lat="44.48315" lon="5.88835">
        <ele>1118</ele>
        <time>2019-06-15T09:32:46Z</time>
      </trkpt>
      <trkpt lat="44.48312" lon="5.88835">
        <ele>1118</ele>
        <time>2019-06-15T09:32:47Z</time>
      </trkpt>
      <trkpt lat="44.48309" lon="5.88836">
        <ele>1118</ele>
        <time>2019-06-15T09:32:48Z</time>
      </trkpt>
      <trkpt lat="44.48306" lon="5.88836">
        <ele>1118</ele>
        <time>2019-06-15T09:32:49Z</time>
      </trkpt>
      <trkpt lat="44.48303" lon="5.88837">
        <ele>1118</ele>
        <time>2019-06-15T09:32:50Z</time>
      </trkpt>
      <trkpt lat="44.48299" lon="5.88837">
        <ele>1119</ele>
        <time>2019-06-15T09:32:51Z</time>
      </trkpt>
      <trkpt lat="44.48296" lon="5.88836">
        <ele>1119</ele>
        <time>2019-06-15T09:32:52Z</time>
      </trkpt>
      <trkpt lat="44.48293" lon="5.88835">
        <ele>1119</ele>
        <time>2019-06-15T09:32:53Z</time>
      </trkpt>
      <trkpt lat="44.48289" lon="5.88835">
        <ele>1119</ele>
        <time>2019-06-15T09:32:54Z</time>
      </trkpt>
      <trkpt lat="44.48286" lon="5.88834">
        <ele>1119</ele>
        <time>2019-06-15T09:32:55Z</time>
      </trkpt>
      <trkpt lat="44.48283" lon="5.88834">
        <ele>1119</ele>
        <time>2019-06-15T09:32:56Z</time>
      </trkpt>
      <trkpt lat="44.4828" lon="5.88833">
        <ele>1119</ele>
        <time>2019-06-15T09:32:57Z</time>
      </trkpt>
      <trkpt lat="44.48277" lon="5.88832">
        <ele>1119</ele>
        <time>2019-06-15T09:32:58Z</time>
      </trkpt>
      <trkpt lat="44.48274" lon="5.88832">
        <ele>1119</ele>
        <time>2019-06-15T09:32:59Z</time>
      </trkpt>
      <trkpt lat="44.4827" lon="5.88832">
        <ele>1119</ele>
        <time>2019-06-15T09:33:00Z</time>
      </trkpt>
      <trkpt lat="44.48267" lon="5.88833">
        <ele>1119</ele>
        <time>2019-06-15T09:33:01Z</time>
      </trkpt>
      <trkpt lat="44.48265" lon="5.88833">
        <ele>1120</ele>
        <time>2019-06-15T09:33:02Z</time>
      </trkpt>
      <trkpt lat="44.48262" lon="5.88834">
        <ele>1121</ele>
        <time>2019-06-15T09:33:03Z</time>
      </trkpt>
      <trkpt lat="44.4826" lon="5.88833">
        <ele>1122</ele>
        <time>2019-06-15T09:33:04Z</time>
      </trkpt>
      <trkpt lat="44.48258" lon="5.88834">
        <ele>1122</ele>
        <time>2019-06-15T09:33:05Z</time>
      </trkpt>
      <trkpt lat="44.48256" lon="5.88834">
        <ele>1123</ele>
        <time>2019-06-15T09:33:06Z</time>
      </trkpt>
      <trkpt lat="44.48254" lon="5.88834">
        <ele>1124</ele>
        <time>2019-06-15T09:33:07Z</time>
      </trkpt>
      <trkpt lat="44.48251" lon="5.88834">
        <ele>1125</ele>
        <time>2019-06-15T09:33:08Z</time>
      </trkpt>
      <trkpt lat="44.48248" lon="5.88835">
        <ele>1125</ele>
        <time>2019-06-15T09:33:09Z</time>
      </trkpt>
      <trkpt lat="44.48245" lon="5.88835">
        <ele>1125</ele>
        <time>2019-06-15T09:33:10Z</time>
      </trkpt>
      <trkpt lat="44.48242" lon="5.88835">
        <ele>1125</ele>
        <time>2019-06-15T09:33:11Z</time>
      </trkpt>
      <trkpt lat="44.48239" lon="5.88834">
        <ele>1125</ele>
        <time>2019-06-15T09:33:12Z</time>
      </trkpt>
      <trkpt lat="44.48237" lon="5.88834">
        <ele>1125</ele>
        <time>2019-06-15T09:33:13Z</time>
      </trkpt>
      <trkpt lat="44.48234" lon="5.88834">
        <ele>1125</ele>
        <time>2019-06-15T09:33:14Z</time>
      </trkpt>
      <trkpt lat="44.48231" lon="5.88834">
        <ele>1125</ele>
        <time>2019-06-15T09:33:15Z</time>
      </trkpt>
      <trkpt lat="44.48228" lon="5.88834">
        <ele>1125</ele>
        <time>2019-06-15T09:33:16Z</time>
      </trkpt>
      <trkpt lat="44.48225" lon="5.88833">
        <ele>1125</ele>
        <time>2019-06-15T09:33:17Z</time>
      </trkpt>
      <trkpt lat="44.48222" lon="5.88832">
        <ele>1125</ele>
        <time>2019-06-15T09:33:18Z</time>
      </trkpt>
      <trkpt lat="44.48219" lon="5.88831">
        <ele>1125</ele>
        <time>2019-06-15T09:33:19Z</time>
      </trkpt>
      <trkpt lat="44.48216" lon="5.88831">
        <ele>1125</ele>
        <time>2019-06-15T09:33:20Z</time>
      </trkpt>
      <trkpt lat="44.48214" lon="5.88831">
        <ele>1125</ele>
        <time>2019-06-15T09:33:21Z</time>
      </trkpt>
      <trkpt lat="44.48211" lon="5.8883">
        <ele>1125</ele>
        <time>2019-06-15T09:33:22Z</time>
      </trkpt>
      <trkpt lat="44.48208" lon="5.8883">
        <ele>1125</ele>
        <time>2019-06-15T09:33:23Z</time>
      </trkpt>
      <trkpt lat="44.48206" lon="5.8883">
        <ele>1125</ele>
        <time>2019-06-15T09:33:24Z</time>
      </trkpt>
      <trkpt lat="44.48203" lon="5.88829">
        <ele>1125</ele>
        <time>2019-06-15T09:33:25Z</time>
      </trkpt>
      <trkpt lat="44.48201" lon="5.88829">
        <ele>1125</ele>
        <time>2019-06-15T09:33:26Z</time>
      </trkpt>
      <trkpt lat="44.48198" lon="5.88829">
        <ele>1125</ele>
        <time>2019-06-15T09:33:27Z</time>
      </trkpt>
      <trkpt lat="44.48195" lon="5.88829">
        <ele>1125</ele>
        <time>2019-06-15T09:33:28Z</time>
      </trkpt>
      <trkpt lat="44.48192" lon="5.8883">
        <ele>1125</ele>
        <time>2019-06-15T09:33:29Z</time>
      </trkpt>
      <trkpt lat="44.48188" lon="5.88831">
        <ele>1125</ele>
        <time>2019-06-15T09:33:30Z</time>
      </trkpt>
      <trkpt lat="44.48185" lon="5.88831">
        <ele>1125</ele>
        <time>2019-06-15T09:33:31Z</time>
      </trkpt>
      <trkpt lat="44.48182" lon="5.88831">
        <ele>1125</ele>
        <time>2019-06-15T09:33:32Z</time>
      </trkpt>
      <trkpt lat="44.48179" lon="5.88832">
        <ele>1125</ele>
        <time>2019-06-15T09:33:33Z</time>
      </trkpt>
      <trkpt lat="44.48177" lon="5.88832">
        <ele>1125</ele>
        <time>2019-06-15T09:33:34Z</time>
      </trkpt>
      <trkpt lat="44.48174" lon="5.88833">
        <ele>1125</ele>
        <time>2019-06-15T09:33:35Z</time>
      </trkpt>
      <trkpt lat="44.48171" lon="5.88833">
        <ele>1125</ele>
        <time>2019-06-15T09:33:36Z</time>
      </trkpt>
      <trkpt lat="44.48168" lon="5.88834">
        <ele>1125</ele>
        <time>2019-06-15T09:33:37Z</time>
      </trkpt>
      <trkpt lat="44.48166" lon="5.88835">
        <ele>1125</ele>
        <time>2019-06-15T09:33:38Z</time>
      </trkpt>
      <trkpt lat="44.48164" lon="5.88836">
        <ele>1125</ele>
        <time>2019-06-15T09:33:39Z</time>
      </trkpt>
      <trkpt lat="44.48161" lon="5.88836">
        <ele>1125</ele>
        <time>2019-06-15T09:33:40Z</time>
      </trkpt>
      <trkpt lat="44.48159" lon="5.88837">
        <ele>1125</ele>
        <time>2019-06-15T09:33:41Z</time>
      </trkpt>
      <trkpt lat="44.48156" lon="5.88837">
        <ele>1125</ele>
        <time>2019-06-15T09:33:42Z</time>
      </trkpt>
      <trkpt lat="44.48153" lon="5.88839">
        <ele>1125</ele>
        <time>2019-06-15T09:33:43Z</time>
      </trkpt>
      <trkpt lat="44.4815" lon="5.8884">
        <ele>1125</ele>
        <time>2019-06-15T09:33:44Z</time>
      </trkpt>
      <trkpt lat="44.48148" lon="5.88841">
        <ele>1125</ele>
        <time>2019-06-15T09:33:45Z</time>
      </trkpt>
      <trkpt lat="44.48145" lon="5.88842">
        <ele>1125</ele>
        <time>2019-06-15T09:33:46Z</time>
      </trkpt>
      <trkpt lat="44.48142" lon="5.88844">
        <ele>1125</ele>
        <time>2019-06-15T09:33:47Z</time>
      </trkpt>
      <trkpt lat="44.4814" lon="5.88845">
        <ele>1125</ele>
        <time>2019-06-15T09:33:48Z</time>
      </trkpt>
      <trkpt lat="44.48137" lon="5.88848">
        <ele>1125</ele>
        <time>2019-06-15T09:33:49Z</time>
      </trkpt>
      <trkpt lat="44.48134" lon="5.88849">
        <ele>1125</ele>
        <time>2019-06-15T09:33:50Z</time>
      </trkpt>
      <trkpt lat="44.48132" lon="5.88851">
        <ele>1125</ele>
        <time>2019-06-15T09:33:51Z</time>
      </trkpt>
      <trkpt lat="44.48129" lon="5.88853">
        <ele>1125</ele>
        <time>2019-06-15T09:33:52Z</time>
      </trkpt>
      <trkpt lat="44.48127" lon="5.88854">
        <ele>1125</ele>
        <time>2019-06-15T09:33:53Z</time>
      </trkpt>
      <trkpt lat="44.48124" lon="5.88856">
        <ele>1125</ele>
        <time>2019-06-15T09:33:54Z</time>
      </trkpt>
      <trkpt lat="44.48121" lon="5.88858">
        <ele>1125</ele>
        <time>2019-06-15T09:33:55Z</time>
      </trkpt>
      <trkpt lat="44.48119" lon="5.8886">
        <ele>1126</ele>
        <time>2019-06-15T09:33:56Z</time>
      </trkpt>
      <trkpt lat="44.48115" lon="5.88861">
        <ele>1126</ele>
        <time>2019-06-15T09:33:57Z</time>
      </trkpt>
      <trkpt lat="44.48112" lon="5.88863">
        <ele>1126</ele>
        <time>2019-06-15T09:33:58Z</time>
      </trkpt>
      <trkpt lat="44.48109" lon="5.88864">
        <ele>1126</ele>
        <time>2019-06-15T09:33:59Z</time>
      </trkpt>
      <trkpt lat="44.48106" lon="5.88865">
        <ele>1127</ele>
        <time>2019-06-15T09:34:00Z</time>
      </trkpt>
      <trkpt lat="44.48103" lon="5.88865">
        <ele>1127</ele>
        <time>2019-06-15T09:34:01Z</time>
      </trkpt>
      <trkpt lat="44.48099" lon="5.88866">
        <ele>1127</ele>
        <time>2019-06-15T09:34:02Z</time>
      </trkpt>
      <trkpt lat="44.48096" lon="5.88867">
        <ele>1127</ele>
        <time>2019-06-15T09:34:03Z</time>
      </trkpt>
      <trkpt lat="44.48093" lon="5.88867">
        <ele>1127</ele>
        <time>2019-06-15T09:34:04Z</time>
      </trkpt>
      <trkpt lat="44.4809" lon="5.88867">
        <ele>1127</ele>
        <time>2019-06-15T09:34:05Z</time>
      </trkpt>
      <trkpt lat="44.48087" lon="5.88868">
        <ele>1128</ele>
        <time>2019-06-15T09:34:06Z</time>
      </trkpt>
      <trkpt lat="44.48083" lon="5.88869">
        <ele>1128</ele>
        <time>2019-06-15T09:34:07Z</time>
      </trkpt>
      <trkpt lat="44.4808" lon="5.8887">
        <ele>1128</ele>
        <time>2019-06-15T09:34:08Z</time>
      </trkpt>
      <trkpt lat="44.48076" lon="5.88871">
        <ele>1128</ele>
        <time>2019-06-15T09:34:09Z</time>
      </trkpt>
      <trkpt lat="44.48073" lon="5.88872">
        <ele>1128</ele>
        <time>2019-06-15T09:34:10Z</time>
      </trkpt>
      <trkpt lat="44.48069" lon="5.88874">
        <ele>1128</ele>
        <time>2019-06-15T09:34:11Z</time>
      </trkpt>
      <trkpt lat="44.48066" lon="5.88875">
        <ele>1129</ele>
        <time>2019-06-15T09:34:12Z</time>
      </trkpt>
      <trkpt lat="44.48063" lon="5.88876">
        <ele>1129</ele>
        <time>2019-06-15T09:34:13Z</time>
      </trkpt>
      <trkpt lat="44.4806" lon="5.88878">
        <ele>1129</ele>
        <time>2019-06-15T09:34:14Z</time>
      </trkpt>
      <trkpt lat="44.48057" lon="5.88879">
        <ele>1129</ele>
        <time>2019-06-15T09:34:15Z</time>
      </trkpt>
      <trkpt lat="44.48055" lon="5.8888">
        <ele>1130</ele>
        <time>2019-06-15T09:34:16Z</time>
      </trkpt>
      <trkpt lat="44.48051" lon="5.88881">
        <ele>1130</ele>
        <time>2019-06-15T09:34:17Z</time>
      </trkpt>
      <trkpt lat="44.48048" lon="5.88882">
        <ele>1130</ele>
        <time>2019-06-15T09:34:18Z</time>
      </trkpt>
      <trkpt lat="44.48045" lon="5.88884">
        <ele>1130</ele>
        <time>2019-06-15T09:34:19Z</time>
      </trkpt>
      <trkpt lat="44.48043" lon="5.88885">
        <ele>1130</ele>
        <time>2019-06-15T09:34:20Z</time>
      </trkpt>
      <trkpt lat="44.4804" lon="5.88887">
        <ele>1130</ele>
        <time>2019-06-15T09:34:21Z</time>
      </trkpt>
      <trkpt lat="44.48037" lon="5.88888">
        <ele>1131</ele>
        <time>2019-06-15T09:34:22Z</time>
      </trkpt>
      <trkpt lat="44.48034" lon="5.8889">
        <ele>1131</ele>
        <time>2019-06-15T09:34:23Z</time>
      </trkpt>
      <trkpt lat="44.48031" lon="5.8889">
        <ele>1131</ele>
        <time>2019-06-15T09:34:24Z</time>
      </trkpt>
      <trkpt lat="44.48028" lon="5.88891">
        <ele>1131</ele>
        <time>2019-06-15T09:34:25Z</time>
      </trkpt>
      <trkpt lat="44.48025" lon="5.88893">
        <ele>1131</ele>
        <time>2019-06-15T09:34:26Z</time>
      </trkpt>
      <trkpt lat="44.48022" lon="5.88894">
        <ele>1131</ele>
        <time>2019-06-15T09:34:27Z</time>
      </trkpt>
      <trkpt lat="44.48019" lon="5.88895">
        <ele>1131</ele>
        <time>2019-06-15T09:34:28Z</time>
      </trkpt>
      <trkpt lat="44.48016" lon="5.88896">
        <ele>1131</ele>
        <time>2019-06-15T09:34:29Z</time>
      </trkpt>
      <trkpt lat="44.48013" lon="5.88897">
        <ele>1131</ele>
        <time>2019-06-15T09:34:30Z</time>
      </trkpt>
      <trkpt lat="44.4801" lon="5.88899">
        <ele>1131</ele>
        <time>2019-06-15T09:34:31Z</time>
      </trkpt>
      <trkpt lat="44.48006" lon="5.88899">
        <ele>1131</ele>
        <time>2019-06-15T09:34:32Z</time>
      </trkpt>
      <trkpt lat="44.48003" lon="5.88901">
        <ele>1131</ele>
        <time>2019-06-15T09:34:33Z</time>
      </trkpt>
      <trkpt lat="44.48" lon="5.88902">
        <ele>1131</ele>
        <time>2019-06-15T09:34:34Z</time>
      </trkpt>
      <trkpt lat="44.47997" lon="5.88903">
        <ele>1132</ele>
        <time>2019-06-15T09:34:35Z</time>
      </trkpt>
      <trkpt lat="44.47994" lon="5.88904">
        <ele>1132</ele>
        <time>2019-06-15T09:34:36Z</time>
      </trkpt>
      <trkpt lat="44.4799" lon="5.88904">
        <ele>1133</ele>
        <time>2019-06-15T09:34:37Z</time>
      </trkpt>
      <trkpt lat="44.47987" lon="5.88904">
        <ele>1133</ele>
        <time>2019-06-15T09:34:38Z</time>
      </trkpt>
      <trkpt lat="44.47984" lon="5.88904">
        <ele>1133</ele>
        <time>2019-06-15T09:34:39Z</time>
      </trkpt>
      <trkpt lat="44.4798" lon="5.88904">
        <ele>1133</ele>
        <time>2019-06-15T09:34:40Z</time>
      </trkpt>
      <trkpt lat="44.47977" lon="5.88904">
        <ele>1133</ele>
        <time>2019-06-15T09:34:41Z</time>
      </trkpt>
      <trkpt lat="44.47974" lon="5.88903">
        <ele>1134</ele>
        <time>2019-06-15T09:34:42Z</time>
      </trkpt>
      <trkpt lat="44.47971" lon="5.88901">
        <ele>1134</ele>
        <time>2019-06-15T09:34:43Z</time>
      </trkpt>
      <trkpt lat="44.47968" lon="5.88899">
        <ele>1134</ele>
        <time>2019-06-15T09:34:44Z</time>
      </trkpt>
      <trkpt lat="44.47965" lon="5.88897">
        <ele>1135</ele>
        <time>2019-06-15T09:34:45Z</time>
      </trkpt>
      <trkpt lat="44.47963" lon="5.88895">
        <ele>1135</ele>
        <time>2019-06-15T09:34:46Z</time>
      </trkpt>
      <trkpt lat="44.4796" lon="5.88893">
        <ele>1135</ele>
        <time>2019-06-15T09:34:47Z</time>
      </trkpt>
      <trkpt lat="44.47957" lon="5.8889">
        <ele>1135</ele>
        <time>2019-06-15T09:34:48Z</time>
      </trkpt>
      <trkpt lat="44.47955" lon="5.88888">
        <ele>1135</ele>
        <time>2019-06-15T09:34:49Z</time>
      </trkpt>
      <trkpt lat="44.47952" lon="5.88885">
        <ele>1135</ele>
        <time>2019-06-15T09:34:50Z</time>
      </trkpt>
      <trkpt lat="44.47949" lon="5.88883">
        <ele>1135</ele>
        <time>2019-06-15T09:34:51Z</time>
      </trkpt>
      <trkpt lat="44.47947" lon="5.8888">
        <ele>1135</ele>
        <time>2019-06-15T09:34:52Z</time>
      </trkpt>
      <trkpt lat="44.47944" lon="5.88878">
        <ele>1135</ele>
        <time>2019-06-15T09:34:53Z</time>
      </trkpt>
      <trkpt lat="44.47941" lon="5.88875">
        <ele>1135</ele>
        <time>2019-06-15T09:34:54Z</time>
      </trkpt>
      <trkpt lat="44.47938" lon="5.88873">
        <ele>1135</ele>
        <time>2019-06-15T09:34:55Z</time>
      </trkpt>
      <trkpt lat="44.47935" lon="5.88871">
        <ele>1135</ele>
        <time>2019-06-15T09:34:56Z</time>
      </trkpt>
      <trkpt lat="44.47932" lon="5.88869">
        <ele>1136</ele>
        <time>2019-06-15T09:34:57Z</time>
      </trkpt>
      <trkpt lat="44.47929" lon="5.88867">
        <ele>1136</ele>
        <time>2019-06-15T09:34:58Z</time>
      </trkpt>
      <trkpt lat="44.47926" lon="5.88866">
        <ele>1136</ele>
        <time>2019-06-15T09:34:59Z</time>
      </trkpt>
      <trkpt lat="44.47922" lon="5.88865">
        <ele>1136</ele>
        <time>2019-06-15T09:35:00Z</time>
      </trkpt>
      <trkpt lat="44.47919" lon="5.88864">
        <ele>1136</ele>
        <time>2019-06-15T09:35:01Z</time>
      </trkpt>
      <trkpt lat="44.47916" lon="5.88863">
        <ele>1136</ele>
        <time>2019-06-15T09:35:02Z</time>
      </trkpt>
      <trkpt lat="44.47912" lon="5.88862">
        <ele>1136</ele>
        <time>2019-06-15T09:35:03Z</time>
      </trkpt>
      <trkpt lat="44.47909" lon="5.88862">
        <ele>1136</ele>
        <time>2019-06-15T09:35:04Z</time>
      </trkpt>
      <trkpt lat="44.47906" lon="5.88862">
        <ele>1136</ele>
        <time>2019-06-15T09:35:05Z</time>
      </trkpt>
      <trkpt lat="44.47902" lon="5.88861">
        <ele>1136</ele>
        <time>2019-06-15T09:35:06Z</time>
      </trkpt>
      <trkpt lat="44.47899" lon="5.88861">
        <ele>1136</ele>
        <time>2019-06-15T09:35:07Z</time>
      </trkpt>
      <trkpt lat="44.47895" lon="5.88861">
        <ele>1136</ele>
        <time>2019-06-15T09:35:08Z</time>
      </trkpt>
      <trkpt lat="44.47892" lon="5.8886">
        <ele>1136</ele>
        <time>2019-06-15T09:35:09Z</time>
      </trkpt>
      <trkpt lat="44.47889" lon="5.8886">
        <ele>1136</ele>
        <time>2019-06-15T09:35:10Z</time>
      </trkpt>
      <trkpt lat="44.47886" lon="5.88859">
        <ele>1137</ele>
        <time>2019-06-15T09:35:11Z</time>
      </trkpt>
      <trkpt lat="44.47882" lon="5.88859">
        <ele>1137</ele>
        <time>2019-06-15T09:35:12Z</time>
      </trkpt>
      <trkpt lat="44.47879" lon="5.88859">
        <ele>1137</ele>
        <time>2019-06-15T09:35:13Z</time>
      </trkpt>
      <trkpt lat="44.47876" lon="5.88858">
        <ele>1137</ele>
        <time>2019-06-15T09:35:14Z</time>
      </trkpt>
      <trkpt lat="44.47873" lon="5.88858">
        <ele>1137</ele>
        <time>2019-06-15T09:35:15Z</time>
      </trkpt>
      <trkpt lat="44.47869" lon="5.88858">
        <ele>1137</ele>
        <time>2019-06-15T09:35:16Z</time>
      </trkpt>
      <trkpt lat="44.47866" lon="5.88858">
        <ele>1138</ele>
        <time>2019-06-15T09:35:17Z</time>
      </trkpt>
      <trkpt lat="44.47863" lon="5.88857">
        <ele>1138</ele>
        <time>2019-06-15T09:35:18Z</time>
      </trkpt>
      <trkpt lat="44.4786" lon="5.88857">
        <ele>1138</ele>
        <time>2019-06-15T09:35:19Z</time>
      </trkpt>
      <trkpt lat="44.47857" lon="5.88857">
        <ele>1138</ele>
        <time>2019-06-15T09:35:20Z</time>
      </trkpt>
      <trkpt lat="44.47853" lon="5.88856">
        <ele>1138</ele>
        <time>2019-06-15T09:35:21Z</time>
      </trkpt>
      <trkpt lat="44.4785" lon="5.88855">
        <ele>1138</ele>
        <time>2019-06-15T09:35:22Z</time>
      </trkpt>
      <trkpt lat="44.47847" lon="5.88855">
        <ele>1139</ele>
        <time>2019-06-15T09:35:23Z</time>
      </trkpt>
      <trkpt lat="44.47844" lon="5.88854">
        <ele>1139</ele>
        <time>2019-06-15T09:35:24Z</time>
      </trkpt>
      <trkpt lat="44.4784" lon="5.88853">
        <ele>1139</ele>
        <time>2019-06-15T09:35:25Z</time>
      </trkpt>
      <trkpt lat="44.47837" lon="5.88853">
        <ele>1139</ele>
        <time>2019-06-15T09:35:26Z</time>
      </trkpt>
      <trkpt lat="44.47833" lon="5.88852">
        <ele>1139</ele>
        <time>2019-06-15T09:35:27Z</time>
      </trkpt>
      <trkpt lat="44.4783" lon="5.8885">
        <ele>1139</ele>
        <time>2019-06-15T09:35:28Z</time>
      </trkpt>
      <trkpt lat="44.47827" lon="5.88849">
        <ele>1139</ele>
        <time>2019-06-15T09:35:29Z</time>
      </trkpt>
      <trkpt lat="44.47824" lon="5.88847">
        <ele>1139</ele>
        <time>2019-06-15T09:35:30Z</time>
      </trkpt>
      <trkpt lat="44.47821" lon="5.88845">
        <ele>1139</ele>
        <time>2019-06-15T09:35:31Z</time>
      </trkpt>
      <trkpt lat="44.47818" lon="5.88842">
        <ele>1139</ele>
        <time>2019-06-15T09:35:32Z</time>
      </trkpt>
      <trkpt lat="44.47816" lon="5.88839">
        <ele>1140</ele>
        <time>2019-06-15T09:35:33Z</time>
      </trkpt>
      <trkpt lat="44.47815" lon="5.88836">
        <ele>1140</ele>
        <time>2019-06-15T09:35:34Z</time>
      </trkpt>
      <trkpt lat="44.47813" lon="5.88832">
        <ele>1140</ele>
        <time>2019-06-15T09:35:35Z</time>
      </trkpt>
      <trkpt lat="44.47812" lon="5.88828">
        <ele>1140</ele>
        <time>2019-06-15T09:35:36Z</time>
      </trkpt>
      <trkpt lat="44.47812" lon="5.88824">
        <ele>1141</ele>
        <time>2019-06-15T09:35:37Z</time>
      </trkpt>
      <trkpt lat="44.47811" lon="5.8882">
        <ele>1141</ele>
        <time>2019-06-15T09:35:38Z</time>
      </trkpt>
      <trkpt lat="44.4781" lon="5.88815">
        <ele>1141</ele>
        <time>2019-06-15T09:35:39Z</time>
      </trkpt>
      <trkpt lat="44.4781" lon="5.88811">
        <ele>1142</ele>
        <time>2019-06-15T09:35:40Z</time>
      </trkpt>
      <trkpt lat="44.47809" lon="5.88806">
        <ele>1142</ele>
        <time>2019-06-15T09:35:41Z</time>
      </trkpt>
      <trkpt lat="44.47808" lon="5.88801">
        <ele>1142</ele>
        <time>2019-06-15T09:35:42Z</time>
      </trkpt>
      <trkpt lat="44.47806" lon="5.88797">
        <ele>1142</ele>
        <time>2019-06-15T09:35:43Z</time>
      </trkpt>
      <trkpt lat="44.47805" lon="5.88792">
        <ele>1143</ele>
        <time>2019-06-15T09:35:44Z</time>
      </trkpt>
      <trkpt lat="44.47804" lon="5.88787">
        <ele>1143</ele>
        <time>2019-06-15T09:35:45Z</time>
      </trkpt>
      <trkpt lat="44.47803" lon="5.88783">
        <ele>1143</ele>
        <time>2019-06-15T09:35:46Z</time>
      </trkpt>
      <trkpt lat="44.47802" lon="5.88778">
        <ele>1143</ele>
        <time>2019-06-15T09:35:47Z</time>
      </trkpt>
      <trkpt lat="44.478" lon="5.88773">
        <ele>1143</ele>
        <time>2019-06-15T09:35:48Z</time>
      </trkpt>
      <trkpt lat="44.47799" lon="5.88769">
        <ele>1143</ele>
        <time>2019-06-15T09:35:49Z</time>
      </trkpt>
      <trkpt lat="44.47797" lon="5.88764">
        <ele>1143</ele>
        <time>2019-06-15T09:35:50Z</time>
      </trkpt>
      <trkpt lat="44.47795" lon="5.8876">
        <ele>1143</ele>
        <time>2019-06-15T09:35:51Z</time>
      </trkpt>
      <trkpt lat="44.47793" lon="5.88755">
        <ele>1143</ele>
        <time>2019-06-15T09:35:52Z</time>
      </trkpt>
      <trkpt lat="44.47789" lon="5.88752">
        <ele>1143</ele>
        <time>2019-06-15T09:35:53Z</time>
      </trkpt>
      <trkpt lat="44.47786" lon="5.88749">
        <ele>1143</ele>
        <time>2019-06-15T09:35:54Z</time>
      </trkpt>
      <trkpt lat="44.47781" lon="5.88747">
        <ele>1143</ele>
        <time>2019-06-15T09:35:55Z</time>
      </trkpt>
      <trkpt lat="44.47777" lon="5.88745">
        <ele>1143</ele>
        <time>2019-06-15T09:35:56Z</time>
      </trkpt>
      <trkpt lat="44.47773" lon="5.88743">
        <ele>1143</ele>
        <time>2019-06-15T09:35:57Z</time>
      </trkpt>
      <trkpt lat="44.47769" lon="5.88743">
        <ele>1143</ele>
        <time>2019-06-15T09:35:58Z</time>
      </trkpt>
      <trkpt lat="44.47764" lon="5.88743">
        <ele>1143</ele>
        <time>2019-06-15T09:35:59Z</time>
      </trkpt>
      <trkpt lat="44.47759" lon="5.88744">
        <ele>1143</ele>
        <time>2019-06-15T09:36:00Z</time>
      </trkpt>
      <trkpt lat="44.47755" lon="5.88744">
        <ele>1143</ele>
        <time>2019-06-15T09:36:01Z</time>
      </trkpt>
      <trkpt lat="44.47749" lon="5.88745">
        <ele>1143</ele>
        <time>2019-06-15T09:36:02Z</time>
      </trkpt>
      <trkpt lat="44.47745" lon="5.88747">
        <ele>1143</ele>
        <time>2019-06-15T09:36:03Z</time>
      </trkpt>
      <trkpt lat="44.4774" lon="5.88749">
        <ele>1143</ele>
        <time>2019-06-15T09:36:04Z</time>
      </trkpt>
      <trkpt lat="44.47736" lon="5.88752">
        <ele>1143</ele>
        <time>2019-06-15T09:36:05Z</time>
      </trkpt>
      <trkpt lat="44.47733" lon="5.88756">
        <ele>1143</ele>
        <time>2019-06-15T09:36:06Z</time>
      </trkpt>
      <trkpt lat="44.47729" lon="5.8876">
        <ele>1143</ele>
        <time>2019-06-15T09:36:07Z</time>
      </trkpt>
      <trkpt lat="44.47727" lon="5.88764">
        <ele>1143</ele>
        <time>2019-06-15T09:36:08Z</time>
      </trkpt>
      <trkpt lat="44.47725" lon="5.88769">
        <ele>1143</ele>
        <time>2019-06-15T09:36:09Z</time>
      </trkpt>
      <trkpt lat="44.47723" lon="5.88775">
        <ele>1143</ele>
        <time>2019-06-15T09:36:10Z</time>
      </trkpt>
      <trkpt lat="44.47723" lon="5.88781">
        <ele>1143</ele>
        <time>2019-06-15T09:36:11Z</time>
      </trkpt>
      <trkpt lat="44.47723" lon="5.88787">
        <ele>1143</ele>
        <time>2019-06-15T09:36:12Z</time>
      </trkpt>
      <trkpt lat="44.47722" lon="5.88792">
        <ele>1143</ele>
        <time>2019-06-15T09:36:13Z</time>
      </trkpt>
      <trkpt lat="44.47721" lon="5.88798">
        <ele>1143</ele>
        <time>2019-06-15T09:36:14Z</time>
      </trkpt>
      <trkpt lat="44.47721" lon="5.88804">
        <ele>1143</ele>
        <time>2019-06-15T09:36:15Z</time>
      </trkpt>
      <trkpt lat="44.47721" lon="5.8881">
        <ele>1143</ele>
        <time>2019-06-15T09:36:16Z</time>
      </trkpt>
      <trkpt lat="44.47721" lon="5.88816">
        <ele>1143</ele>
        <time>2019-06-15T09:36:17Z</time>
      </trkpt>
      <trkpt lat="44.47722" lon="5.88822">
        <ele>1143</ele>
        <time>2019-06-15T09:36:18Z</time>
      </trkpt>
      <trkpt lat="44.47723" lon="5.88827">
        <ele>1143</ele>
        <time>2019-06-15T09:36:19Z</time>
      </trkpt>
      <trkpt lat="44.47725" lon="5.88832">
        <ele>1143</ele>
        <time>2019-06-15T09:36:20Z</time>
      </trkpt>
      <trkpt lat="44.47727" lon="5.88836">
        <ele>1143</ele>
        <time>2019-06-15T09:36:21Z</time>
      </trkpt>
      <trkpt lat="44.47729" lon="5.88841">
        <ele>1143</ele>
        <time>2019-06-15T09:36:22Z</time>
      </trkpt>
      <trkpt lat="44.47732" lon="5.88845">
        <ele>1143</ele>
        <time>2019-06-15T09:36:23Z</time>
      </trkpt>
      <trkpt lat="44.47734" lon="5.8885">
        <ele>1143</ele>
        <time>2019-06-15T09:36:24Z</time>
      </trkpt>
      <trkpt lat="44.47736" lon="5.88855">
        <ele>1143</ele>
        <time>2019-06-15T09:36:25Z</time>
      </trkpt>
      <trkpt lat="44.47736" lon="5.8886">
        <ele>1143</ele>
        <time>2019-06-15T09:36:26Z</time>
      </trkpt>
      <trkpt lat="44.47737" lon="5.88866">
        <ele>1143</ele>
        <time>2019-06-15T09:36:27Z</time>
      </trkpt>
      <trkpt lat="44.47737" lon="5.88871">
        <ele>1143</ele>
        <time>2019-06-15T09:36:28Z</time>
      </trkpt>
      <trkpt lat="44.47737" lon="5.88877">
        <ele>1143</ele>
        <time>2019-06-15T09:36:29Z</time>
      </trkpt>
      <trkpt lat="44.47737" lon="5.88882">
        <ele>1143</ele>
        <time>2019-06-15T09:36:30Z</time>
      </trkpt>
      <trkpt lat="44.47738" lon="5.88887">
        <ele>1143</ele>
        <time>2019-06-15T09:36:31Z</time>
      </trkpt>
      <trkpt lat="44.47738" lon="5.88893">
        <ele>1143</ele>
        <time>2019-06-15T09:36:32Z</time>
      </trkpt>
      <trkpt lat="44.47738" lon="5.88898">
        <ele>1143</ele>
        <time>2019-06-15T09:36:33Z</time>
      </trkpt>
      <trkpt lat="44.47738" lon="5.88904">
        <ele>1143</ele>
        <time>2019-06-15T09:36:34Z</time>
      </trkpt>
      <trkpt lat="44.47737" lon="5.88909">
        <ele>1143</ele>
        <time>2019-06-15T09:36:35Z</time>
      </trkpt>
      <trkpt lat="44.47737" lon="5.88915">
        <ele>1143</ele>
        <time>2019-06-15T09:36:36Z</time>
      </trkpt>
      <trkpt lat="44.47737" lon="5.88921">
        <ele>1143</ele>
        <time>2019-06-15T09:36:37Z</time>
      </trkpt>
      <trkpt lat="44.47736" lon="5.88926">
        <ele>1143</ele>
        <time>2019-06-15T09:36:38Z</time>
      </trkpt>
      <trkpt lat="44.47736" lon="5.88932">
        <ele>1143</ele>
        <time>2019-06-15T09:36:39Z</time>
      </trkpt>
      <trkpt lat="44.47734" lon="5.88938">
        <ele>1143</ele>
        <time>2019-06-15T09:36:40Z</time>
      </trkpt>
      <trkpt lat="44.47733" lon="5.88943">
        <ele>1143</ele>
        <time>2019-06-15T09:36:41Z</time>
      </trkpt>
      <trkpt lat="44.47731" lon="5.88948">
        <ele>1143</ele>
        <time>2019-06-15T09:36:42Z</time>
      </trkpt>
      <trkpt lat="44.47729" lon="5.88953">
        <ele>1143</ele>
        <time>2019-06-15T09:36:43Z</time>
      </trkpt>
      <trkpt lat="44.47728" lon="5.88957">
        <ele>1143</ele>
        <time>2019-06-15T09:36:44Z</time>
      </trkpt>
      <trkpt lat="44.47725" lon="5.88961">
        <ele>1143</ele>
        <time>2019-06-15T09:36:45Z</time>
      </trkpt>
      <trkpt lat="44.47723" lon="5.88965">
        <ele>1143</ele>
        <time>2019-06-15T09:36:46Z</time>
      </trkpt>
      <trkpt lat="44.4772" lon="5.88968">
        <ele>1143</ele>
        <time>2019-06-15T09:36:47Z</time>
      </trkpt>
      <trkpt lat="44.47716" lon="5.8897">
        <ele>1143</ele>
        <time>2019-06-15T09:36:48Z</time>
      </trkpt>
      <trkpt lat="44.47713" lon="5.88971">
        <ele>1144</ele>
        <time>2019-06-15T09:36:49Z</time>
      </trkpt>
      <trkpt lat="44.47709" lon="5.88971">
        <ele>1144</ele>
        <time>2019-06-15T09:36:50Z</time>
      </trkpt>
      <trkpt lat="44.47705" lon="5.8897">
        <ele>1144</ele>
        <time>2019-06-15T09:36:51Z</time>
      </trkpt>
      <trkpt lat="44.47702" lon="5.88969">
        <ele>1145</ele>
        <time>2019-06-15T09:36:52Z</time>
      </trkpt>
      <trkpt lat="44.47698" lon="5.88967">
        <ele>1145</ele>
        <time>2019-06-15T09:36:53Z</time>
      </trkpt>
      <trkpt lat="44.47694" lon="5.88965">
        <ele>1145</ele>
        <time>2019-06-15T09:36:54Z</time>
      </trkpt>
      <trkpt lat="44.47691" lon="5.88963">
        <ele>1145</ele>
        <time>2019-06-15T09:36:55Z</time>
      </trkpt>
      <trkpt lat="44.47688" lon="5.88961">
        <ele>1146</ele>
        <time>2019-06-15T09:36:56Z</time>
      </trkpt>
      <trkpt lat="44.47685" lon="5.88958">
        <ele>1146</ele>
        <time>2019-06-15T09:36:57Z</time>
      </trkpt>
      <trkpt lat="44.47682" lon="5.88956">
        <ele>1146</ele>
        <time>2019-06-15T09:36:58Z</time>
      </trkpt>
      <trkpt lat="44.47678" lon="5.88954">
        <ele>1146</ele>
        <time>2019-06-15T09:36:59Z</time>
      </trkpt>
      <trkpt lat="44.47675" lon="5.88952">
        <ele>1147</ele>
        <time>2019-06-15T09:37:00Z</time>
      </trkpt>
      <trkpt lat="44.47671" lon="5.88951">
        <ele>1147</ele>
        <time>2019-06-15T09:37:01Z</time>
      </trkpt>
      <trkpt lat="44.47667" lon="5.88949">
        <ele>1147</ele>
        <time>2019-06-15T09:37:02Z</time>
      </trkpt>
      <trkpt lat="44.47664" lon="5.88948">
        <ele>1147</ele>
        <time>2019-06-15T09:37:03Z</time>
      </trkpt>
      <trkpt lat="44.4766" lon="5.88946">
        <ele>1148</ele>
        <time>2019-06-15T09:37:04Z</time>
      </trkpt>
      <trkpt lat="44.47657" lon="5.88945">
        <ele>1148</ele>
        <time>2019-06-15T09:37:05Z</time>
      </trkpt>
      <trkpt lat="44.47653" lon="5.88942">
        <ele>1148</ele>
        <time>2019-06-15T09:37:06Z</time>
      </trkpt>
      <trkpt lat="44.4765" lon="5.8894">
        <ele>1148</ele>
        <time>2019-06-15T09:37:07Z</time>
      </trkpt>
      <trkpt lat="44.47647" lon="5.88938">
        <ele>1149</ele>
        <time>2019-06-15T09:37:08Z</time>
      </trkpt>
      <trkpt lat="44.47644" lon="5.88935">
        <ele>1149</ele>
        <time>2019-06-15T09:37:09Z</time>
      </trkpt>
      <trkpt lat="44.4764" lon="5.88933">
        <ele>1149</ele>
        <time>2019-06-15T09:37:10Z</time>
      </trkpt>
      <trkpt lat="44.47637" lon="5.8893">
        <ele>1149</ele>
        <time>2019-06-15T09:37:11Z</time>
      </trkpt>
      <trkpt lat="44.47633" lon="5.88927">
        <ele>1150</ele>
        <time>2019-06-15T09:37:12Z</time>
      </trkpt>
      <trkpt lat="44.4763" lon="5.88923">
        <ele>1150</ele>
        <time>2019-06-15T09:37:13Z</time>
      </trkpt>
      <trkpt lat="44.47627" lon="5.8892">
        <ele>1150</ele>
        <time>2019-06-15T09:37:14Z</time>
      </trkpt>
      <trkpt lat="44.47623" lon="5.88917">
        <ele>1150</ele>
        <time>2019-06-15T09:37:15Z</time>
      </trkpt>
      <trkpt lat="44.4762" lon="5.88914">
        <ele>1150</ele>
        <time>2019-06-15T09:37:16Z</time>
      </trkpt>
      <trkpt lat="44.47617" lon="5.88911">
        <ele>1150</ele>
        <time>2019-06-15T09:37:17Z</time>
      </trkpt>
      <trkpt lat="44.47613" lon="5.88908">
        <ele>1150</ele>
        <time>2019-06-15T09:37:18Z</time>
      </trkpt>
      <trkpt lat="44.47609" lon="5.88906">
        <ele>1150</ele>
        <time>2019-06-15T09:37:19Z</time>
      </trkpt>
      <trkpt lat="44.47606" lon="5.88904">
        <ele>1150</ele>
        <time>2019-06-15T09:37:20Z</time>
      </trkpt>
      <trkpt lat="44.47602" lon="5.88904">
        <ele>1150</ele>
        <time>2019-06-15T09:37:21Z</time>
      </trkpt>
      <trkpt lat="44.47598" lon="5.88904">
        <ele>1150</ele>
        <time>2019-06-15T09:37:22Z</time>
      </trkpt>
      <trkpt lat="44.47594" lon="5.88906">
        <ele>1150</ele>
        <time>2019-06-15T09:37:23Z</time>
      </trkpt>
      <trkpt lat="44.4759" lon="5.88909">
        <ele>1150</ele>
        <time>2019-06-15T09:37:24Z</time>
      </trkpt>
      <trkpt lat="44.47586" lon="5.88912">
        <ele>1150</ele>
        <time>2019-06-15T09:37:25Z</time>
      </trkpt>
      <trkpt lat="44.47583" lon="5.88915">
        <ele>1150</ele>
        <time>2019-06-15T09:37:26Z</time>
      </trkpt>
      <trkpt lat="44.47579" lon="5.88919">
        <ele>1151</ele>
        <time>2019-06-15T09:37:27Z</time>
      </trkpt>
      <trkpt lat="44.47575" lon="5.88922">
        <ele>1151</ele>
        <time>2019-06-15T09:37:28Z</time>
      </trkpt>
      <trkpt lat="44.47572" lon="5.88925">
        <ele>1151</ele>
        <time>2019-06-15T09:37:29Z</time>
      </trkpt>
      <trkpt lat="44.47568" lon="5.88929">
        <ele>1151</ele>
        <time>2019-06-15T09:37:30Z</time>
      </trkpt>
      <trkpt lat="44.47565" lon="5.88932">
        <ele>1151</ele>
        <time>2019-06-15T09:37:31Z</time>
      </trkpt>
      <trkpt lat="44.47561" lon="5.88935">
        <ele>1151</ele>
        <time>2019-06-15T09:37:32Z</time>
      </trkpt>
      <trkpt lat="44.47558" lon="5.88937">
        <ele>1151</ele>
        <time>2019-06-15T09:37:33Z</time>
      </trkpt>
      <trkpt lat="44.47554" lon="5.8894">
        <ele>1152</ele>
        <time>2019-06-15T09:37:34Z</time>
      </trkpt>
      <trkpt lat="44.47551" lon="5.88943">
        <ele>1152</ele>
        <time>2019-06-15T09:37:35Z</time>
      </trkpt>
      <trkpt lat="44.47548" lon="5.88945">
        <ele>1152</ele>
        <time>2019-06-15T09:37:36Z</time>
      </trkpt>
      <trkpt lat="44.47544" lon="5.88948">
        <ele>1152</ele>
        <time>2019-06-15T09:37:37Z</time>
      </trkpt>
      <trkpt lat="44.47541" lon="5.8895">
        <ele>1152</ele>
        <time>2019-06-15T09:37:38Z</time>
      </trkpt>
      <trkpt lat="44.47537" lon="5.88952">
        <ele>1152</ele>
        <time>2019-06-15T09:37:39Z</time>
      </trkpt>
      <trkpt lat="44.47533" lon="5.88953">
        <ele>1152</ele>
        <time>2019-06-15T09:37:40Z</time>
      </trkpt>
      <trkpt lat="44.4753" lon="5.88954">
        <ele>1153</ele>
        <time>2019-06-15T09:37:41Z</time>
      </trkpt>
      <trkpt lat="44.47526" lon="5.88953">
        <ele>1153</ele>
        <time>2019-06-15T09:37:42Z</time>
      </trkpt>
      <trkpt lat="44.47522" lon="5.88951">
        <ele>1153</ele>
        <time>2019-06-15T09:37:43Z</time>
      </trkpt>
      <trkpt lat="44.47519" lon="5.88948">
        <ele>1153</ele>
        <time>2019-06-15T09:37:44Z</time>
      </trkpt>
      <trkpt lat="44.47515" lon="5.88944">
        <ele>1153</ele>
        <time>2019-06-15T09:37:45Z</time>
      </trkpt>
      <trkpt lat="44.47513" lon="5.8894">
        <ele>1154</ele>
        <time>2019-06-15T09:37:46Z</time>
      </trkpt>
      <trkpt lat="44.4751" lon="5.88936">
        <ele>1154</ele>
        <time>2019-06-15T09:37:47Z</time>
      </trkpt>
      <trkpt lat="44.47508" lon="5.88931">
        <ele>1154</ele>
        <time>2019-06-15T09:37:48Z</time>
      </trkpt>
      <trkpt lat="44.47506" lon="5.88926">
        <ele>1154</ele>
        <time>2019-06-15T09:37:49Z</time>
      </trkpt>
      <trkpt lat="44.47504" lon="5.88921">
        <ele>1154</ele>
        <time>2019-06-15T09:37:50Z</time>
      </trkpt>
      <trkpt lat="44.47501" lon="5.88916">
        <ele>1154</ele>
        <time>2019-06-15T09:37:51Z</time>
      </trkpt>
      <trkpt lat="44.47498" lon="5.88911">
        <ele>1154</ele>
        <time>2019-06-15T09:37:52Z</time>
      </trkpt>
      <trkpt lat="44.47495" lon="5.88907">
        <ele>1154</ele>
        <time>2019-06-15T09:37:53Z</time>
      </trkpt>
      <trkpt lat="44.47491" lon="5.88903">
        <ele>1154</ele>
        <time>2019-06-15T09:37:54Z</time>
      </trkpt>
      <trkpt lat="44.47487" lon="5.889">
        <ele>1154</ele>
        <time>2019-06-15T09:37:55Z</time>
      </trkpt>
      <trkpt lat="44.47483" lon="5.88897">
        <ele>1154</ele>
        <time>2019-06-15T09:37:56Z</time>
      </trkpt>
      <trkpt lat="44.47479" lon="5.88895">
        <ele>1154</ele>
        <time>2019-06-15T09:37:57Z</time>
      </trkpt>
      <trkpt lat="44.47475" lon="5.88893">
        <ele>1154</ele>
        <time>2019-06-15T09:37:58Z</time>
      </trkpt>
      <trkpt lat="44.47471" lon="5.88891">
        <ele>1154</ele>
        <time>2019-06-15T09:37:59Z</time>
      </trkpt>
      <trkpt lat="44.47467" lon="5.8889">
        <ele>1154</ele>
        <time>2019-06-15T09:38:00Z</time>
      </trkpt>
      <trkpt lat="44.47462" lon="5.88888">
        <ele>1154</ele>
        <time>2019-06-15T09:38:01Z</time>
      </trkpt>
      <trkpt lat="44.47457" lon="5.88887">
        <ele>1154</ele>
        <time>2019-06-15T09:38:02Z</time>
      </trkpt>
      <trkpt lat="44.47453" lon="5.88887">
        <ele>1154</ele>
        <time>2019-06-15T09:38:03Z</time>
      </trkpt>
      <trkpt lat="44.47448" lon="5.88887">
        <ele>1154</ele>
        <time>2019-06-15T09:38:04Z</time>
      </trkpt>
      <trkpt lat="44.47443" lon="5.88887">
        <ele>1154</ele>
        <time>2019-06-15T09:38:05Z</time>
      </trkpt>
      <trkpt lat="44.47437" lon="5.88885">
        <ele>1154</ele>
        <time>2019-06-15T09:38:06Z</time>
      </trkpt>
      <trkpt lat="44.47433" lon="5.88882">
        <ele>1154</ele>
        <time>2019-06-15T09:38:07Z</time>
      </trkpt>
      <trkpt lat="44.47428" lon="5.88878">
        <ele>1154</ele>
        <time>2019-06-15T09:38:08Z</time>
      </trkpt>
      <trkpt lat="44.47423" lon="5.88875">
        <ele>1154</ele>
        <time>2019-06-15T09:38:09Z</time>
      </trkpt>
      <trkpt lat="44.47417" lon="5.88872">
        <ele>1154</ele>
        <time>2019-06-15T09:38:10Z</time>
      </trkpt>
      <trkpt lat="44.47412" lon="5.88871">
        <ele>1154</ele>
        <time>2019-06-15T09:38:11Z</time>
      </trkpt>
      <trkpt lat="44.47406" lon="5.8887">
        <ele>1154</ele>
        <time>2019-06-15T09:38:12Z</time>
      </trkpt>
      <trkpt lat="44.47401" lon="5.88869">
        <ele>1154</ele>
        <time>2019-06-15T09:38:13Z</time>
      </trkpt>
      <trkpt lat="44.47395" lon="5.88868">
        <ele>1154</ele>
        <time>2019-06-15T09:38:14Z</time>
      </trkpt>
      <trkpt lat="44.4739" lon="5.88866">
        <ele>1154</ele>
        <time>2019-06-15T09:38:15Z</time>
      </trkpt>
      <trkpt lat="44.47385" lon="5.88864">
        <ele>1155</ele>
        <time>2019-06-15T09:38:16Z</time>
      </trkpt>
      <trkpt lat="44.4738" lon="5.88861">
        <ele>1155</ele>
        <time>2019-06-15T09:38:17Z</time>
      </trkpt>
      <trkpt lat="44.47375" lon="5.88859">
        <ele>1155</ele>
        <time>2019-06-15T09:38:18Z</time>
      </trkpt>
      <trkpt lat="44.47371" lon="5.88859">
        <ele>1155</ele>
        <time>2019-06-15T09:38:19Z</time>
      </trkpt>
      <trkpt lat="44.47365" lon="5.88859">
        <ele>1155</ele>
        <time>2019-06-15T09:38:20Z</time>
      </trkpt>
      <trkpt lat="44.4736" lon="5.8886">
        <ele>1155</ele>
        <time>2019-06-15T09:38:21Z</time>
      </trkpt>
      <trkpt lat="44.47356" lon="5.88861">
        <ele>1155</ele>
        <time>2019-06-15T09:38:22Z</time>
      </trkpt>
      <trkpt lat="44.47351" lon="5.88861">
        <ele>1155</ele>
        <time>2019-06-15T09:38:23Z</time>
      </trkpt>
      <trkpt lat="44.47348" lon="5.88861">
        <ele>1155</ele>
        <time>2019-06-15T09:38:24Z</time>
      </trkpt>
      <trkpt lat="44.47346" lon="5.88862">
        <ele>1155</ele>
        <time>2019-06-15T09:38:25Z</time>
      </trkpt>
      <trkpt lat="44.47346" lon="5.88863">
        <ele>1157</ele>
        <time>2019-06-15T09:38:33Z</time>
      </trkpt>
      <trkpt lat="44.47347" lon="5.88863">
        <ele>1159</ele>
        <time>2019-06-15T09:38:38Z</time>
      </trkpt>
      <trkpt lat="44.47348" lon="5.88862">
        <ele>1159</ele>
        <time>2019-06-15T09:38:46Z</time>
      </trkpt>
      <trkpt lat="44.47349" lon="5.88861">
        <ele>1159</ele>
        <time>2019-06-15T09:38:51Z</time>
      </trkpt>
      <trkpt lat="44.4735" lon="5.88861">
        <ele>1159</ele>
        <time>2019-06-15T09:39:54Z</time>
      </trkpt>
      <trkpt lat="44.47349" lon="5.88861">
        <ele>1159</ele>
        <time>2019-06-15T09:40:04Z</time>
      </trkpt>
      <trkpt lat="44.4735" lon="5.8886">
        <ele>1159</ele>
        <time>2019-06-15T09:40:47Z</time>
      </trkpt>
      <trkpt lat="44.47352" lon="5.8886">
        <ele>1159</ele>
        <time>2019-06-15T09:40:54Z</time>
      </trkpt>
      <trkpt lat="44.4735" lon="5.8886">
        <ele>1161</ele>
        <time>2019-06-15T09:41:53Z</time>
      </trkpt>
      <trkpt lat="44.47348" lon="5.88858">
        <ele>1161</ele>
        <time>2019-06-15T09:42:12Z</time>
      </trkpt>
      <trkpt lat="44.47347" lon="5.88858">
        <ele>1161</ele>
        <time>2019-06-15T09:42:13Z</time>
      </trkpt>
      <trkpt lat="44.47345" lon="5.88857">
        <ele>1161</ele>
        <time>2019-06-15T09:42:14Z</time>
      </trkpt>
      <trkpt lat="44.47343" lon="5.88855">
        <ele>1161</ele>
        <time>2019-06-15T09:42:15Z</time>
      </trkpt>
      <trkpt lat="44.47342" lon="5.88853">
        <ele>1161</ele>
        <time>2019-06-15T09:42:16Z</time>
      </trkpt>
      <trkpt lat="44.4734" lon="5.88851">
        <ele>1161</ele>
        <time>2019-06-15T09:42:17Z</time>
      </trkpt>
      <trkpt lat="44.47337" lon="5.88848">
        <ele>1161</ele>
        <time>2019-06-15T09:42:18Z</time>
      </trkpt>
      <trkpt lat="44.47335" lon="5.88845">
        <ele>1161</ele>
        <time>2019-06-15T09:42:19Z</time>
      </trkpt>
      <trkpt lat="44.47332" lon="5.88842">
        <ele>1161</ele>
        <time>2019-06-15T09:42:20Z</time>
      </trkpt>
      <trkpt lat="44.47329" lon="5.88839">
        <ele>1161</ele>
        <time>2019-06-15T09:42:21Z</time>
      </trkpt>
      <trkpt lat="44.47327" lon="5.88835">
        <ele>1161</ele>
        <time>2019-06-15T09:42:22Z</time>
      </trkpt>
      <trkpt lat="44.47324" lon="5.88831">
        <ele>1161</ele>
        <time>2019-06-15T09:42:23Z</time>
      </trkpt>
      <trkpt lat="44.47322" lon="5.88826">
        <ele>1161</ele>
        <time>2019-06-15T09:42:24Z</time>
      </trkpt>
      <trkpt lat="44.47319" lon="5.88822">
        <ele>1161</ele>
        <time>2019-06-15T09:42:25Z</time>
      </trkpt>
      <trkpt lat="44.47317" lon="5.88817">
        <ele>1161</ele>
        <time>2019-06-15T09:42:26Z</time>
      </trkpt>
      <trkpt lat="44.47315" lon="5.88812">
        <ele>1161</ele>
        <time>2019-06-15T09:42:27Z</time>
      </trkpt>
      <trkpt lat="44.47315" lon="5.88806">
        <ele>1161</ele>
        <time>2019-06-15T09:42:28Z</time>
      </trkpt>
      <trkpt lat="44.47315" lon="5.888">
        <ele>1161</ele>
        <time>2019-06-15T09:42:29Z</time>
      </trkpt>
      <trkpt lat="44.47316" lon="5.88795">
        <ele>1161</ele>
        <time>2019-06-15T09:42:30Z</time>
      </trkpt>
      <trkpt lat="44.47319" lon="5.8879">
        <ele>1161</ele>
        <time>2019-06-15T09:42:31Z</time>
      </trkpt>
      <trkpt lat="44.47322" lon="5.88786">
        <ele>1161</ele>
        <time>2019-06-15T09:42:32Z</time>
      </trkpt>
      <trkpt lat="44.47325" lon="5.88782">
        <ele>1161</ele>
        <time>2019-06-15T09:42:33Z</time>
      </trkpt>
      <trkpt lat="44.47326" lon="5.88776">
        <ele>1161</ele>
        <time>2019-06-15T09:42:34Z</time>
      </trkpt>
      <trkpt lat="44.47326" lon="5.88771">
        <ele>1161</ele>
        <time>2019-06-15T09:42:35Z</time>
      </trkpt>
      <trkpt lat="44.47324" lon="5.88765">
        <ele>1161</ele>
        <time>2019-06-15T09:42:36Z</time>
      </trkpt>
      <trkpt lat="44.47321" lon="5.8876">
        <ele>1161</ele>
        <time>2019-06-15T09:42:37Z</time>
      </trkpt>
      <trkpt lat="44.47318" lon="5.88755">
        <ele>1160</ele>
        <time>2019-06-15T09:42:38Z</time>
      </trkpt>
      <trkpt lat="44.47314" lon="5.88751">
        <ele>1160</ele>
        <time>2019-06-15T09:42:39Z</time>
      </trkpt>
      <trkpt lat="44.4731" lon="5.88748">
        <ele>1160</ele>
        <time>2019-06-15T09:42:40Z</time>
      </trkpt>
      <trkpt lat="44.47306" lon="5.88745">
        <ele>1160</ele>
        <time>2019-06-15T09:42:41Z</time>
      </trkpt>
      <trkpt lat="44.47303" lon="5.88741">
        <ele>1160</ele>
        <time>2019-06-15T09:42:42Z</time>
      </trkpt>
      <trkpt lat="44.47298" lon="5.88738">
        <ele>1160</ele>
        <time>2019-06-15T09:42:43Z</time>
      </trkpt>
      <trkpt lat="44.47294" lon="5.88735">
        <ele>1160</ele>
        <time>2019-06-15T09:42:44Z</time>
      </trkpt>
      <trkpt lat="44.4729" lon="5.88732">
        <ele>1160</ele>
        <time>2019-06-15T09:42:45Z</time>
      </trkpt>
      <trkpt lat="44.47286" lon="5.8873">
        <ele>1160</ele>
        <time>2019-06-15T09:42:46Z</time>
      </trkpt>
      <trkpt lat="44.47281" lon="5.88727">
        <ele>1160</ele>
        <time>2019-06-15T09:42:47Z</time>
      </trkpt>
      <trkpt lat="44.47277" lon="5.88724">
        <ele>1160</ele>
        <time>2019-06-15T09:42:48Z</time>
      </trkpt>
      <trkpt lat="44.47272" lon="5.88721">
        <ele>1160</ele>
        <time>2019-06-15T09:42:49Z</time>
      </trkpt>
      <trkpt lat="44.47269" lon="5.88716">
        <ele>1160</ele>
        <time>2019-06-15T09:42:50Z</time>
      </trkpt>
      <trkpt lat="44.47266" lon="5.8871">
        <ele>1160</ele>
        <time>2019-06-15T09:42:51Z</time>
      </trkpt>
      <trkpt lat="44.47264" lon="5.88703">
        <ele>1160</ele>
        <time>2019-06-15T09:42:52Z</time>
      </trkpt>
      <trkpt lat="44.47263" lon="5.88696">
        <ele>1160</ele>
        <time>2019-06-15T09:42:53Z</time>
      </trkpt>
      <trkpt lat="44.47263" lon="5.8869">
        <ele>1160</ele>
        <time>2019-06-15T09:42:54Z</time>
      </trkpt>
      <trkpt lat="44.47263" lon="5.88683">
        <ele>1160</ele>
        <time>2019-06-15T09:42:55Z</time>
      </trkpt>
      <trkpt lat="44.47264" lon="5.88677">
        <ele>1160</ele>
        <time>2019-06-15T09:42:56Z</time>
      </trkpt>
      <trkpt lat="44.47266" lon="5.8867">
        <ele>1160</ele>
        <time>2019-06-15T09:42:57Z</time>
      </trkpt>
      <trkpt lat="44.47267" lon="5.88664">
        <ele>1160</ele>
        <time>2019-06-15T09:42:58Z</time>
      </trkpt>
      <trkpt lat="44.47269" lon="5.88659">
        <ele>1160</ele>
        <time>2019-06-15T09:42:59Z</time>
      </trkpt>
      <trkpt lat="44.47271" lon="5.88652">
        <ele>1160</ele>
        <time>2019-06-15T09:43:00Z</time>
      </trkpt>
      <trkpt lat="44.47272" lon="5.88646">
        <ele>1160</ele>
        <time>2019-06-15T09:43:01Z</time>
      </trkpt>
      <trkpt lat="44.47273" lon="5.8864">
        <ele>1160</ele>
        <time>2019-06-15T09:43:02Z</time>
      </trkpt>
      <trkpt lat="44.47274" lon="5.88634">
        <ele>1160</ele>
        <time>2019-06-15T09:43:03Z</time>
      </trkpt>
      <trkpt lat="44.47273" lon="5.88628">
        <ele>1160</ele>
        <time>2019-06-15T09:43:04Z</time>
      </trkpt>
      <trkpt lat="44.47272" lon="5.88623">
        <ele>1160</ele>
        <time>2019-06-15T09:43:05Z</time>
      </trkpt>
      <trkpt lat="44.4727" lon="5.8862">
        <ele>1160</ele>
        <time>2019-06-15T09:43:06Z</time>
      </trkpt>
      <trkpt lat="44.47267" lon="5.88618">
        <ele>1160</ele>
        <time>2019-06-15T09:43:07Z</time>
      </trkpt>
      <trkpt lat="44.47264" lon="5.88618">
        <ele>1160</ele>
        <time>2019-06-15T09:43:08Z</time>
      </trkpt>
      <trkpt lat="44.47259" lon="5.8862">
        <ele>1160</ele>
        <time>2019-06-15T09:43:09Z</time>
      </trkpt>
      <trkpt lat="44.47253" lon="5.88625">
        <ele>1160</ele>
        <time>2019-06-15T09:43:10Z</time>
      </trkpt>
      <trkpt lat="44.47246" lon="5.8863">
        <ele>1160</ele>
        <time>2019-06-15T09:43:11Z</time>
      </trkpt>
      <trkpt lat="44.4724" lon="5.88636">
        <ele>1160</ele>
        <time>2019-06-15T09:43:12Z</time>
      </trkpt>
      <trkpt lat="44.47234" lon="5.88643">
        <ele>1160</ele>
        <time>2019-06-15T09:43:13Z</time>
      </trkpt>
      <trkpt lat="44.47229" lon="5.88649">
        <ele>1160</ele>
        <time>2019-06-15T09:43:14Z</time>
      </trkpt>
      <trkpt lat="44.47225" lon="5.88656">
        <ele>1161</ele>
        <time>2019-06-15T09:43:15Z</time>
      </trkpt>
      <trkpt lat="44.47221" lon="5.88663">
        <ele>1161</ele>
        <time>2019-06-15T09:43:16Z</time>
      </trkpt>
      <trkpt lat="44.47217" lon="5.88669">
        <ele>1161</ele>
        <time>2019-06-15T09:43:17Z</time>
      </trkpt>
      <trkpt lat="44.47212" lon="5.88675">
        <ele>1161</ele>
        <time>2019-06-15T09:43:18Z</time>
      </trkpt>
      <trkpt lat="44.47207" lon="5.88679">
        <ele>1161</ele>
        <time>2019-06-15T09:43:19Z</time>
      </trkpt>
      <trkpt lat="44.472" lon="5.88681">
        <ele>1161</ele>
        <time>2019-06-15T09:43:20Z</time>
      </trkpt>
      <trkpt lat="44.47194" lon="5.88681">
        <ele>1161</ele>
        <time>2019-06-15T09:43:21Z</time>
      </trkpt>
      <trkpt lat="44.47188" lon="5.88678">
        <ele>1161</ele>
        <time>2019-06-15T09:43:22Z</time>
      </trkpt>
      <trkpt lat="44.47182" lon="5.88674">
        <ele>1161</ele>
        <time>2019-06-15T09:43:23Z</time>
      </trkpt>
      <trkpt lat="44.47177" lon="5.88669">
        <ele>1161</ele>
        <time>2019-06-15T09:43:24Z</time>
      </trkpt>
      <trkpt lat="44.47171" lon="5.88663">
        <ele>1161</ele>
        <time>2019-06-15T09:43:25Z</time>
      </trkpt>
      <trkpt lat="44.47166" lon="5.88658">
        <ele>1161</ele>
        <time>2019-06-15T09:43:26Z</time>
      </trkpt>
      <trkpt lat="44.4716" lon="5.88655">
        <ele>1161</ele>
        <time>2019-06-15T09:43:27Z</time>
      </trkpt>
      <trkpt lat="44.47155" lon="5.88654">
        <ele>1161</ele>
        <time>2019-06-15T09:43:28Z</time>
      </trkpt>
      <trkpt lat="44.47149" lon="5.88657">
        <ele>1161</ele>
        <time>2019-06-15T09:43:29Z</time>
      </trkpt>
      <trkpt lat="44.47144" lon="5.88661">
        <ele>1161</ele>
        <time>2019-06-15T09:43:30Z</time>
      </trkpt>
      <trkpt lat="44.47139" lon="5.88666">
        <ele>1160</ele>
        <time>2019-06-15T09:43:31Z</time>
      </trkpt>
      <trkpt lat="44.47134" lon="5.88669">
        <ele>1160</ele>
        <time>2019-06-15T09:43:32Z</time>
      </trkpt>
      <trkpt lat="44.47128" lon="5.88671">
        <ele>1159</ele>
        <time>2019-06-15T09:43:33Z</time>
      </trkpt>
      <trkpt lat="44.47122" lon="5.88671">
        <ele>1159</ele>
        <time>2019-06-15T09:43:34Z</time>
      </trkpt>
      <trkpt lat="44.47116" lon="5.88668">
        <ele>1159</ele>
        <time>2019-06-15T09:43:35Z</time>
      </trkpt>
      <trkpt lat="44.47112" lon="5.88664">
        <ele>1158</ele>
        <time>2019-06-15T09:43:36Z</time>
      </trkpt>
      <trkpt lat="44.4711" lon="5.88658">
        <ele>1158</ele>
        <time>2019-06-15T09:43:37Z</time>
      </trkpt>
      <trkpt lat="44.4711" lon="5.8865">
        <ele>1158</ele>
        <time>2019-06-15T09:43:38Z</time>
      </trkpt>
      <trkpt lat="44.47112" lon="5.88642">
        <ele>1157</ele>
        <time>2019-06-15T09:43:39Z</time>
      </trkpt>
      <trkpt lat="44.47113" lon="5.88635">
        <ele>1156</ele>
        <time>2019-06-15T09:43:40Z</time>
      </trkpt>
      <trkpt lat="44.47115" lon="5.88627">
        <ele>1156</ele>
        <time>2019-06-15T09:43:41Z</time>
      </trkpt>
      <trkpt lat="44.47116" lon="5.88619">
        <ele>1156</ele>
        <time>2019-06-15T09:43:42Z</time>
      </trkpt>
      <trkpt lat="44.47115" lon="5.88612">
        <ele>1155</ele>
        <time>2019-06-15T09:43:43Z</time>
      </trkpt>
      <trkpt lat="44.47113" lon="5.88604">
        <ele>1155</ele>
        <time>2019-06-15T09:43:44Z</time>
      </trkpt>
      <trkpt lat="44.4711" lon="5.88599">
        <ele>1155</ele>
        <time>2019-06-15T09:43:45Z</time>
      </trkpt>
      <trkpt lat="44.47105" lon="5.88597">
        <ele>1155</ele>
        <time>2019-06-15T09:43:46Z</time>
      </trkpt>
      <trkpt lat="44.47099" lon="5.88598">
        <ele>1155</ele>
        <time>2019-06-15T09:43:47Z</time>
      </trkpt>
      <trkpt lat="44.47092" lon="5.88599">
        <ele>1155</ele>
        <time>2019-06-15T09:43:48Z</time>
      </trkpt>
      <trkpt lat="44.47086" lon="5.88598">
        <ele>1155</ele>
        <time>2019-06-15T09:43:49Z</time>
      </trkpt>
      <trkpt lat="44.47081" lon="5.88596">
        <ele>1155</ele>
        <time>2019-06-15T09:43:50Z</time>
      </trkpt>
      <trkpt lat="44.47077" lon="5.88591">
        <ele>1155</ele>
        <time>2019-06-15T09:43:51Z</time>
      </trkpt>
      <trkpt lat="44.47075" lon="5.88585">
        <ele>1155</ele>
        <time>2019-06-15T09:43:52Z</time>
      </trkpt>
      <trkpt lat="44.47074" lon="5.88578">
        <ele>1155</ele>
        <time>2019-06-15T09:43:53Z</time>
      </trkpt>
      <trkpt lat="44.47073" lon="5.88571">
        <ele>1155</ele>
        <time>2019-06-15T09:43:54Z</time>
      </trkpt>
      <trkpt lat="44.47071" lon="5.88564">
        <ele>1155</ele>
        <time>2019-06-15T09:43:55Z</time>
      </trkpt>
      <trkpt lat="44.4707" lon="5.88559">
        <ele>1155</ele>
        <time>2019-06-15T09:43:56Z</time>
      </trkpt>
      <trkpt lat="44.47067" lon="5.88556">
        <ele>1155</ele>
        <time>2019-06-15T09:43:57Z</time>
      </trkpt>
      <trkpt lat="44.47062" lon="5.88559">
        <ele>1155</ele>
        <time>2019-06-15T09:43:58Z</time>
      </trkpt>
      <trkpt lat="44.47055" lon="5.88567">
        <ele>1155</ele>
        <time>2019-06-15T09:43:59Z</time>
      </trkpt>
      <trkpt lat="44.4705" lon="5.88573">
        <ele>1155</ele>
        <time>2019-06-15T09:44:00Z</time>
      </trkpt>
      <trkpt lat="44.47044" lon="5.8858">
        <ele>1155</ele>
        <time>2019-06-15T09:44:01Z</time>
      </trkpt>
      <trkpt lat="44.47039" lon="5.88586">
        <ele>1155</ele>
        <time>2019-06-15T09:44:02Z</time>
      </trkpt>
      <trkpt lat="44.47032" lon="5.88591">
        <ele>1154</ele>
        <time>2019-06-15T09:44:03Z</time>
      </trkpt>
      <trkpt lat="44.47026" lon="5.88597">
        <ele>1154</ele>
        <time>2019-06-15T09:44:04Z</time>
      </trkpt>
      <trkpt lat="44.4702" lon="5.88603">
        <ele>1153</ele>
        <time>2019-06-15T09:44:05Z</time>
      </trkpt>
      <trkpt lat="44.47013" lon="5.88609">
        <ele>1153</ele>
        <time>2019-06-15T09:44:06Z</time>
      </trkpt>
      <trkpt lat="44.47007" lon="5.88615">
        <ele>1152</ele>
        <time>2019-06-15T09:44:07Z</time>
      </trkpt>
      <trkpt lat="44.47002" lon="5.8862">
        <ele>1152</ele>
        <time>2019-06-15T09:44:08Z</time>
      </trkpt>
      <trkpt lat="44.46997" lon="5.88626">
        <ele>1152</ele>
        <time>2019-06-15T09:44:09Z</time>
      </trkpt>
      <trkpt lat="44.46991" lon="5.8863">
        <ele>1152</ele>
        <time>2019-06-15T09:44:10Z</time>
      </trkpt>
      <trkpt lat="44.46985" lon="5.88633">
        <ele>1152</ele>
        <time>2019-06-15T09:44:11Z</time>
      </trkpt>
      <trkpt lat="44.46978" lon="5.88635">
        <ele>1152</ele>
        <time>2019-06-15T09:44:12Z</time>
      </trkpt>
      <trkpt lat="44.46972" lon="5.88636">
        <ele>1152</ele>
        <time>2019-06-15T09:44:13Z</time>
      </trkpt>
      <trkpt lat="44.46965" lon="5.88636">
        <ele>1152</ele>
        <time>2019-06-15T09:44:14Z</time>
      </trkpt>
      <trkpt lat="44.46958" lon="5.88636">
        <ele>1152</ele>
        <time>2019-06-15T09:44:15Z</time>
      </trkpt>
      <trkpt lat="44.46951" lon="5.88635">
        <ele>1152</ele>
        <time>2019-06-15T09:44:16Z</time>
      </trkpt>
      <trkpt lat="44.46944" lon="5.88634">
        <ele>1152</ele>
        <time>2019-06-15T09:44:17Z</time>
      </trkpt>
      <trkpt lat="44.46938" lon="5.88632">
        <ele>1152</ele>
        <time>2019-06-15T09:44:18Z</time>
      </trkpt>
      <trkpt lat="44.46932" lon="5.88627">
        <ele>1152</ele>
        <time>2019-06-15T09:44:19Z</time>
      </trkpt>
      <trkpt lat="44.46927" lon="5.88621">
        <ele>1152</ele>
        <time>2019-06-15T09:44:20Z</time>
      </trkpt>
      <trkpt lat="44.46923" lon="5.88614">
        <ele>1152</ele>
        <time>2019-06-15T09:44:21Z</time>
      </trkpt>
      <trkpt lat="44.46918" lon="5.88608">
        <ele>1152</ele>
        <time>2019-06-15T09:44:22Z</time>
      </trkpt>
      <trkpt lat="44.46914" lon="5.88601">
        <ele>1152</ele>
        <time>2019-06-15T09:44:23Z</time>
      </trkpt>
      <trkpt lat="44.4691" lon="5.88594">
        <ele>1152</ele>
        <time>2019-06-15T09:44:24Z</time>
      </trkpt>
      <trkpt lat="44.46906" lon="5.88587">
        <ele>1152</ele>
        <time>2019-06-15T09:44:25Z</time>
      </trkpt>
      <trkpt lat="44.46903" lon="5.88579">
        <ele>1152</ele>
        <time>2019-06-15T09:44:26Z</time>
      </trkpt>
      <trkpt lat="44.46899" lon="5.88571">
        <ele>1152</ele>
        <time>2019-06-15T09:44:27Z</time>
      </trkpt>
      <trkpt lat="44.46895" lon="5.88563">
        <ele>1151</ele>
        <time>2019-06-15T09:44:28Z</time>
      </trkpt>
      <trkpt lat="44.4689" lon="5.88558">
        <ele>1151</ele>
        <time>2019-06-15T09:44:29Z</time>
      </trkpt>
      <trkpt lat="44.46885" lon="5.88555">
        <ele>1151</ele>
        <time>2019-06-15T09:44:30Z</time>
      </trkpt>
      <trkpt lat="44.4688" lon="5.88554">
        <ele>1151</ele>
        <time>2019-06-15T09:44:31Z</time>
      </trkpt>
      <trkpt lat="44.46874" lon="5.88556">
        <ele>1150</ele>
        <time>2019-06-15T09:44:32Z</time>
      </trkpt>
      <trkpt lat="44.46867" lon="5.88559">
        <ele>1150</ele>
        <time>2019-06-15T09:44:33Z</time>
      </trkpt>
      <trkpt lat="44.4686" lon="5.88561">
        <ele>1150</ele>
        <time>2019-06-15T09:44:34Z</time>
      </trkpt>
      <trkpt lat="44.46852" lon="5.88562">
        <ele>1150</ele>
        <time>2019-06-15T09:44:35Z</time>
      </trkpt>
      <trkpt lat="44.46846" lon="5.88562">
        <ele>1149</ele>
        <time>2019-06-15T09:44:36Z</time>
      </trkpt>
      <trkpt lat="44.4684" lon="5.88563">
        <ele>1149</ele>
        <time>2019-06-15T09:44:37Z</time>
      </trkpt>
      <trkpt lat="44.46835" lon="5.88566">
        <ele>1149</ele>
        <time>2019-06-15T09:44:38Z</time>
      </trkpt>
      <trkpt lat="44.46829" lon="5.88572">
        <ele>1149</ele>
        <time>2019-06-15T09:44:39Z</time>
      </trkpt>
      <trkpt lat="44.46823" lon="5.88577">
        <ele>1149</ele>
        <time>2019-06-15T09:44:40Z</time>
      </trkpt>
      <trkpt lat="44.46819" lon="5.8858">
        <ele>1149</ele>
        <time>2019-06-15T09:44:41Z</time>
      </trkpt>
      <trkpt lat="44.46814" lon="5.88581">
        <ele>1149</ele>
        <time>2019-06-15T09:44:42Z</time>
      </trkpt>
      <trkpt lat="44.46811" lon="5.88576">
        <ele>1149</ele>
        <time>2019-06-15T09:44:43Z</time>
      </trkpt>
      <trkpt lat="44.46809" lon="5.88569">
        <ele>1149</ele>
        <time>2019-06-15T09:44:44Z</time>
      </trkpt>
      <trkpt lat="44.46808" lon="5.88561">
        <ele>1149</ele>
        <time>2019-06-15T09:44:45Z</time>
      </trkpt>
      <trkpt lat="44.46808" lon="5.88553">
        <ele>1149</ele>
        <time>2019-06-15T09:44:46Z</time>
      </trkpt>
      <trkpt lat="44.46809" lon="5.88545">
        <ele>1149</ele>
        <time>2019-06-15T09:44:47Z</time>
      </trkpt>
      <trkpt lat="44.4681" lon="5.88537">
        <ele>1149</ele>
        <time>2019-06-15T09:44:48Z</time>
      </trkpt>
      <trkpt lat="44.46811" lon="5.88528">
        <ele>1149</ele>
        <time>2019-06-15T09:44:49Z</time>
      </trkpt>
      <trkpt lat="44.46811" lon="5.8852">
        <ele>1149</ele>
        <time>2019-06-15T09:44:50Z</time>
      </trkpt>
      <trkpt lat="44.4681" lon="5.88511">
        <ele>1149</ele>
        <time>2019-06-15T09:44:51Z</time>
      </trkpt>
      <trkpt lat="44.46809" lon="5.88503">
        <ele>1149</ele>
        <time>2019-06-15T09:44:52Z</time>
      </trkpt>
      <trkpt lat="44.46808" lon="5.88494">
        <ele>1149</ele>
        <time>2019-06-15T09:44:53Z</time>
      </trkpt>
      <trkpt lat="44.46807" lon="5.88485">
        <ele>1149</ele>
        <time>2019-06-15T09:44:54Z</time>
      </trkpt>
      <trkpt lat="44.46806" lon="5.88477">
        <ele>1149</ele>
        <time>2019-06-15T09:44:55Z</time>
      </trkpt>
      <trkpt lat="44.46804" lon="5.88469">
        <ele>1149</ele>
        <time>2019-06-15T09:44:56Z</time>
      </trkpt>
      <trkpt lat="44.46801" lon="5.8846">
        <ele>1149</ele>
        <time>2019-06-15T09:44:57Z</time>
      </trkpt>
      <trkpt lat="44.46798" lon="5.88453">
        <ele>1149</ele>
        <time>2019-06-15T09:44:58Z</time>
      </trkpt>
      <trkpt lat="44.46794" lon="5.88447">
        <ele>1149</ele>
        <time>2019-06-15T09:44:59Z</time>
      </trkpt>
      <trkpt lat="44.46789" lon="5.88441">
        <ele>1149</ele>
        <time>2019-06-15T09:45:00Z</time>
      </trkpt>
      <trkpt lat="44.46785" lon="5.88435">
        <ele>1149</ele>
        <time>2019-06-15T09:45:01Z</time>
      </trkpt>
      <trkpt lat="44.4678" lon="5.88429">
        <ele>1149</ele>
        <time>2019-06-15T09:45:02Z</time>
      </trkpt>
      <trkpt lat="44.46775" lon="5.88423">
        <ele>1149</ele>
        <time>2019-06-15T09:45:03Z</time>
      </trkpt>
      <trkpt lat="44.46769" lon="5.88418">
        <ele>1149</ele>
        <time>2019-06-15T09:45:04Z</time>
      </trkpt>
      <trkpt lat="44.46763" lon="5.88414">
        <ele>1149</ele>
        <time>2019-06-15T09:45:05Z</time>
      </trkpt>
      <trkpt lat="44.46758" lon="5.8841">
        <ele>1149</ele>
        <time>2019-06-15T09:45:06Z</time>
      </trkpt>
      <trkpt lat="44.46753" lon="5.88406">
        <ele>1149</ele>
        <time>2019-06-15T09:45:07Z</time>
      </trkpt>
      <trkpt lat="44.46746" lon="5.88403">
        <ele>1149</ele>
        <time>2019-06-15T09:45:08Z</time>
      </trkpt>
      <trkpt lat="44.4674" lon="5.884">
        <ele>1149</ele>
        <time>2019-06-15T09:45:09Z</time>
      </trkpt>
      <trkpt lat="44.46733" lon="5.88398">
        <ele>1149</ele>
        <time>2019-06-15T09:45:10Z</time>
      </trkpt>
      <trkpt lat="44.46727" lon="5.88396">
        <ele>1149</ele>
        <time>2019-06-15T09:45:11Z</time>
      </trkpt>
      <trkpt lat="44.4672" lon="5.88392">
        <ele>1149</ele>
        <time>2019-06-15T09:45:12Z</time>
      </trkpt>
      <trkpt lat="44.46714" lon="5.88387">
        <ele>1149</ele>
        <time>2019-06-15T09:45:13Z</time>
      </trkpt>
      <trkpt lat="44.46707" lon="5.8838">
        <ele>1149</ele>
        <time>2019-06-15T09:45:14Z</time>
      </trkpt>
      <trkpt lat="44.46701" lon="5.88372">
        <ele>1149</ele>
        <time>2019-06-15T09:45:15Z</time>
      </trkpt>
      <trkpt lat="44.46695" lon="5.88363">
        <ele>1149</ele>
        <time>2019-06-15T09:45:16Z</time>
      </trkpt>
      <trkpt lat="44.4669" lon="5.88353">
        <ele>1149</ele>
        <time>2019-06-15T09:45:17Z</time>
      </trkpt>
      <trkpt lat="44.46685" lon="5.88343">
        <ele>1149</ele>
        <time>2019-06-15T09:45:18Z</time>
      </trkpt>
      <trkpt lat="44.46679" lon="5.88333">
        <ele>1149</ele>
        <time>2019-06-15T09:45:19Z</time>
      </trkpt>
      <trkpt lat="44.46673" lon="5.88323">
        <ele>1148</ele>
        <time>2019-06-15T09:45:20Z</time>
      </trkpt>
      <trkpt lat="44.46667" lon="5.88313">
        <ele>1147</ele>
        <time>2019-06-15T09:45:21Z</time>
      </trkpt>
      <trkpt lat="44.46663" lon="5.88304">
        <ele>1147</ele>
        <time>2019-06-15T09:45:22Z</time>
      </trkpt>
      <trkpt lat="44.46658" lon="5.88296">
        <ele>1146</ele>
        <time>2019-06-15T09:45:23Z</time>
      </trkpt>
      <trkpt lat="44.46653" lon="5.88289">
        <ele>1146</ele>
        <time>2019-06-15T09:45:24Z</time>
      </trkpt>
      <trkpt lat="44.46648" lon="5.88283">
        <ele>1145</ele>
        <time>2019-06-15T09:45:25Z</time>
      </trkpt>
      <trkpt lat="44.46641" lon="5.8828">
        <ele>1145</ele>
        <time>2019-06-15T09:45:26Z</time>
      </trkpt>
      <trkpt lat="44.46635" lon="5.88278">
        <ele>1145</ele>
        <time>2019-06-15T09:45:27Z</time>
      </trkpt>
      <trkpt lat="44.46627" lon="5.88279">
        <ele>1144</ele>
        <time>2019-06-15T09:45:28Z</time>
      </trkpt>
      <trkpt lat="44.46619" lon="5.8828">
        <ele>1144</ele>
        <time>2019-06-15T09:45:29Z</time>
      </trkpt>
      <trkpt lat="44.46612" lon="5.88283">
        <ele>1143</ele>
        <time>2019-06-15T09:45:30Z</time>
      </trkpt>
      <trkpt lat="44.46606" lon="5.88289">
        <ele>1143</ele>
        <time>2019-06-15T09:45:31Z</time>
      </trkpt>
      <trkpt lat="44.46601" lon="5.88296">
        <ele>1142</ele>
        <time>2019-06-15T09:45:32Z</time>
      </trkpt>
      <trkpt lat="44.46598" lon="5.88306">
        <ele>1141</ele>
        <time>2019-06-15T09:45:33Z</time>
      </trkpt>
      <trkpt lat="44.46597" lon="5.88315">
        <ele>1141</ele>
        <time>2019-06-15T09:45:34Z</time>
      </trkpt>
      <trkpt lat="44.46593" lon="5.88325">
        <ele>1140</ele>
        <time>2019-06-15T09:45:35Z</time>
      </trkpt>
      <trkpt lat="44.4659" lon="5.88334">
        <ele>1139</ele>
        <time>2019-06-15T09:45:36Z</time>
      </trkpt>
      <trkpt lat="44.46586" lon="5.88344">
        <ele>1139</ele>
        <time>2019-06-15T09:45:37Z</time>
      </trkpt>
      <trkpt lat="44.46582" lon="5.88355">
        <ele>1138</ele>
        <time>2019-06-15T09:45:38Z</time>
      </trkpt>
      <trkpt lat="44.46579" lon="5.88366">
        <ele>1138</ele>
        <time>2019-06-15T09:45:39Z</time>
      </trkpt>
      <trkpt lat="44.46578" lon="5.88377">
        <ele>1137</ele>
        <time>2019-06-15T09:45:40Z</time>
      </trkpt>
      <trkpt lat="44.46578" lon="5.88388">
        <ele>1137</ele>
        <time>2019-06-15T09:45:41Z</time>
      </trkpt>
      <trkpt lat="44.46577" lon="5.88398">
        <ele>1136</ele>
        <time>2019-06-15T09:45:42Z</time>
      </trkpt>
      <trkpt lat="44.46575" lon="5.88407">
        <ele>1136</ele>
        <time>2019-06-15T09:45:43Z</time>
      </trkpt>
      <trkpt lat="44.46571" lon="5.88415">
        <ele>1135</ele>
        <time>2019-06-15T09:45:44Z</time>
      </trkpt>
      <trkpt lat="44.46566" lon="5.88422">
        <ele>1135</ele>
        <time>2019-06-15T09:45:45Z</time>
      </trkpt>
      <trkpt lat="44.4656" lon="5.88424">
        <ele>1134</ele>
        <time>2019-06-15T09:45:46Z</time>
      </trkpt>
      <trkpt lat="44.46551" lon="5.88423">
        <ele>1134</ele>
        <time>2019-06-15T09:45:47Z</time>
      </trkpt>
      <trkpt lat="44.46545" lon="5.88424">
        <ele>1133</ele>
        <time>2019-06-15T09:45:48Z</time>
      </trkpt>
      <trkpt lat="44.46538" lon="5.88426">
        <ele>1132</ele>
        <time>2019-06-15T09:45:49Z</time>
      </trkpt>
      <trkpt lat="44.46532" lon="5.8843">
        <ele>1132</ele>
        <time>2019-06-15T09:45:50Z</time>
      </trkpt>
      <trkpt lat="44.46528" lon="5.88436">
        <ele>1131</ele>
        <time>2019-06-15T09:45:51Z</time>
      </trkpt>
      <trkpt lat="44.46526" lon="5.88444">
        <ele>1131</ele>
        <time>2019-06-15T09:45:52Z</time>
      </trkpt>
      <trkpt lat="44.46526" lon="5.88451">
        <ele>1130</ele>
        <time>2019-06-15T09:45:53Z</time>
      </trkpt>
      <trkpt lat="44.46532" lon="5.8846">
        <ele>1129</ele>
        <time>2019-06-15T09:45:54Z</time>
      </trkpt>
      <trkpt lat="44.46536" lon="5.8847">
        <ele>1129</ele>
        <time>2019-06-15T09:45:55Z</time>
      </trkpt>
      <trkpt lat="44.4654" lon="5.8848">
        <ele>1128</ele>
        <time>2019-06-15T09:45:56Z</time>
      </trkpt>
      <trkpt lat="44.46544" lon="5.88489">
        <ele>1128</ele>
        <time>2019-06-15T09:45:57Z</time>
      </trkpt>
      <trkpt lat="44.46548" lon="5.88498">
        <ele>1128</ele>
        <time>2019-06-15T09:45:58Z</time>
      </trkpt>
      <trkpt lat="44.46554" lon="5.88508">
        <ele>1128</ele>
        <time>2019-06-15T09:45:59Z</time>
      </trkpt>
      <trkpt lat="44.46558" lon="5.88518">
        <ele>1128</ele>
        <time>2019-06-15T09:46:00Z</time>
      </trkpt>
      <trkpt lat="44.46562" lon="5.88528">
        <ele>1128</ele>
        <time>2019-06-15T09:46:01Z</time>
      </trkpt>
      <trkpt lat="44.46565" lon="5.88539">
        <ele>1128</ele>
        <time>2019-06-15T09:46:02Z</time>
      </trkpt>
      <trkpt lat="44.46568" lon="5.8855">
        <ele>1128</ele>
        <time>2019-06-15T09:46:03Z</time>
      </trkpt>
      <trkpt lat="44.46569" lon="5.88561">
        <ele>1128</ele>
        <time>2019-06-15T09:46:04Z</time>
      </trkpt>
      <trkpt lat="44.46568" lon="5.88571">
        <ele>1127</ele>
        <time>2019-06-15T09:46:05Z</time>
      </trkpt>
      <trkpt lat="44.46567" lon="5.88579">
        <ele>1126</ele>
        <time>2019-06-15T09:46:06Z</time>
      </trkpt>
      <trkpt lat="44.46565" lon="5.88584">
        <ele>1126</ele>
        <time>2019-06-15T09:46:07Z</time>
      </trkpt>
      <trkpt lat="44.46561" lon="5.88586">
        <ele>1125</ele>
        <time>2019-06-15T09:46:08Z</time>
      </trkpt>
      <trkpt lat="44.46556" lon="5.88586">
        <ele>1125</ele>
        <time>2019-06-15T09:46:09Z</time>
      </trkpt>
      <trkpt lat="44.4655" lon="5.88584">
        <ele>1124</ele>
        <time>2019-06-15T09:46:10Z</time>
      </trkpt>
      <trkpt lat="44.46544" lon="5.88582">
        <ele>1124</ele>
        <time>2019-06-15T09:46:11Z</time>
      </trkpt>
      <trkpt lat="44.46537" lon="5.88581">
        <ele>1124</ele>
        <time>2019-06-15T09:46:12Z</time>
      </trkpt>
      <trkpt lat="44.46531" lon="5.88581">
        <ele>1124</ele>
        <time>2019-06-15T09:46:13Z</time>
      </trkpt>
      <trkpt lat="44.46523" lon="5.88583">
        <ele>1123</ele>
        <time>2019-06-15T09:46:14Z</time>
      </trkpt>
      <trkpt lat="44.46515" lon="5.88585">
        <ele>1123</ele>
        <time>2019-06-15T09:46:15Z</time>
      </trkpt>
      <trkpt lat="44.46507" lon="5.88587">
        <ele>1123</ele>
        <time>2019-06-15T09:46:16Z</time>
      </trkpt>
      <trkpt lat="44.46498" lon="5.88588">
        <ele>1122</ele>
        <time>2019-06-15T09:46:17Z</time>
      </trkpt>
      <trkpt lat="44.4649" lon="5.88589">
        <ele>1122</ele>
        <time>2019-06-15T09:46:18Z</time>
      </trkpt>
      <trkpt lat="44.46483" lon="5.88591">
        <ele>1121</ele>
        <time>2019-06-15T09:46:19Z</time>
      </trkpt>
      <trkpt lat="44.46477" lon="5.88596">
        <ele>1121</ele>
        <time>2019-06-15T09:46:20Z</time>
      </trkpt>
      <trkpt lat="44.46472" lon="5.88602">
        <ele>1120</ele>
        <time>2019-06-15T09:46:21Z</time>
      </trkpt>
      <trkpt lat="44.46467" lon="5.88611">
        <ele>1119</ele>
        <time>2019-06-15T09:46:22Z</time>
      </trkpt>
      <trkpt lat="44.46465" lon="5.88622">
        <ele>1119</ele>
        <time>2019-06-15T09:46:23Z</time>
      </trkpt>
      <trkpt lat="44.46464" lon="5.88633">
        <ele>1118</ele>
        <time>2019-06-15T09:46:24Z</time>
      </trkpt>
      <trkpt lat="44.46464" lon="5.88644">
        <ele>1117</ele>
        <time>2019-06-15T09:46:25Z</time>
      </trkpt>
      <trkpt lat="44.46463" lon="5.88655">
        <ele>1116</ele>
        <time>2019-06-15T09:46:26Z</time>
      </trkpt>
      <trkpt lat="44.46462" lon="5.88664">
        <ele>1115</ele>
        <time>2019-06-15T09:46:27Z</time>
      </trkpt>
      <trkpt lat="44.46459" lon="5.88672">
        <ele>1115</ele>
        <time>2019-06-15T09:46:28Z</time>
      </trkpt>
      <trkpt lat="44.46455" lon="5.88679">
        <ele>1114</ele>
        <time>2019-06-15T09:46:29Z</time>
      </trkpt>
      <trkpt lat="44.46451" lon="5.88687">
        <ele>1113</ele>
        <time>2019-06-15T09:46:30Z</time>
      </trkpt>
      <trkpt lat="44.46447" lon="5.88697">
        <ele>1112</ele>
        <time>2019-06-15T09:46:31Z</time>
      </trkpt>
      <trkpt lat="44.46445" lon="5.88708">
        <ele>1111</ele>
        <time>2019-06-15T09:46:32Z</time>
      </trkpt>
      <trkpt lat="44.46444" lon="5.8872">
        <ele>1110</ele>
        <time>2019-06-15T09:46:33Z</time>
      </trkpt>
      <trkpt lat="44.46446" lon="5.88732">
        <ele>1109</ele>
        <time>2019-06-15T09:46:34Z</time>
      </trkpt>
      <trkpt lat="44.46449" lon="5.88744">
        <ele>1108</ele>
        <time>2019-06-15T09:46:35Z</time>
      </trkpt>
      <trkpt lat="44.4645" lon="5.88756">
        <ele>1108</ele>
        <time>2019-06-15T09:46:36Z</time>
      </trkpt>
      <trkpt lat="44.46451" lon="5.88768">
        <ele>1107</ele>
        <time>2019-06-15T09:46:37Z</time>
      </trkpt>
      <trkpt lat="44.46451" lon="5.88781">
        <ele>1107</ele>
        <time>2019-06-15T09:46:38Z</time>
      </trkpt>
      <trkpt lat="44.4645" lon="5.88794">
        <ele>1106</ele>
        <time>2019-06-15T09:46:39Z</time>
      </trkpt>
      <trkpt lat="44.4645" lon="5.88807">
        <ele>1106</ele>
        <time>2019-06-15T09:46:40Z</time>
      </trkpt>
      <trkpt lat="44.4645" lon="5.88821">
        <ele>1105</ele>
        <time>2019-06-15T09:46:41Z</time>
      </trkpt>
      <trkpt lat="44.46449" lon="5.88834">
        <ele>1105</ele>
        <time>2019-06-15T09:46:42Z</time>
      </trkpt>
      <trkpt lat="44.46447" lon="5.88845">
        <ele>1104</ele>
        <time>2019-06-15T09:46:43Z</time>
      </trkpt>
      <trkpt lat="44.46444" lon="5.88855">
        <ele>1104</ele>
        <time>2019-06-15T09:46:44Z</time>
      </trkpt>
      <trkpt lat="44.4644" lon="5.88862">
        <ele>1103</ele>
        <time>2019-06-15T09:46:45Z</time>
      </trkpt>
      <trkpt lat="44.46435" lon="5.88866">
        <ele>1102</ele>
        <time>2019-06-15T09:46:46Z</time>
      </trkpt>
      <trkpt lat="44.46428" lon="5.88869">
        <ele>1102</ele>
        <time>2019-06-15T09:46:47Z</time>
      </trkpt>
      <trkpt lat="44.46421" lon="5.88873">
        <ele>1101</ele>
        <time>2019-06-15T09:46:48Z</time>
      </trkpt>
      <trkpt lat="44.46414" lon="5.88876">
        <ele>1101</ele>
        <time>2019-06-15T09:46:49Z</time>
      </trkpt>
      <trkpt lat="44.46407" lon="5.88879">
        <ele>1100</ele>
        <time>2019-06-15T09:46:50Z</time>
      </trkpt>
      <trkpt lat="44.464" lon="5.8888">
        <ele>1100</ele>
        <time>2019-06-15T09:46:51Z</time>
      </trkpt>
      <trkpt lat="44.46392" lon="5.88883">
        <ele>1099</ele>
        <time>2019-06-15T09:46:52Z</time>
      </trkpt>
      <trkpt lat="44.46386" lon="5.88888">
        <ele>1098</ele>
        <time>2019-06-15T09:46:53Z</time>
      </trkpt>
      <trkpt lat="44.46381" lon="5.88896">
        <ele>1098</ele>
        <time>2019-06-15T09:46:54Z</time>
      </trkpt>
      <trkpt lat="44.46379" lon="5.88905">
        <ele>1098</ele>
        <time>2019-06-15T09:46:55Z</time>
      </trkpt>
      <trkpt lat="44.46381" lon="5.88913">
        <ele>1097</ele>
        <time>2019-06-15T09:46:56Z</time>
      </trkpt>
      <trkpt lat="44.46387" lon="5.88922">
        <ele>1097</ele>
        <time>2019-06-15T09:46:57Z</time>
      </trkpt>
      <trkpt lat="44.4639" lon="5.88931">
        <ele>1097</ele>
        <time>2019-06-15T09:46:58Z</time>
      </trkpt>
      <trkpt lat="44.46393" lon="5.88941">
        <ele>1097</ele>
        <time>2019-06-15T09:46:59Z</time>
      </trkpt>
      <trkpt lat="44.46396" lon="5.88951">
        <ele>1097</ele>
        <time>2019-06-15T09:47:00Z</time>
      </trkpt>
      <trkpt lat="44.46399" lon="5.88961">
        <ele>1097</ele>
        <time>2019-06-15T09:47:01Z</time>
      </trkpt>
      <trkpt lat="44.464" lon="5.88971">
        <ele>1097</ele>
        <time>2019-06-15T09:47:02Z</time>
      </trkpt>
      <trkpt lat="44.464" lon="5.88982">
        <ele>1097</ele>
        <time>2019-06-15T09:47:03Z</time>
      </trkpt>
      <trkpt lat="44.46399" lon="5.88993">
        <ele>1097</ele>
        <time>2019-06-15T09:47:04Z</time>
      </trkpt>
      <trkpt lat="44.46396" lon="5.89002">
        <ele>1097</ele>
        <time>2019-06-15T09:47:05Z</time>
      </trkpt>
      <trkpt lat="44.46392" lon="5.89009">
        <ele>1097</ele>
        <time>2019-06-15T09:47:06Z</time>
      </trkpt>
      <trkpt lat="44.46388" lon="5.89013">
        <ele>1097</ele>
        <time>2019-06-15T09:47:07Z</time>
      </trkpt>
      <trkpt lat="44.46382" lon="5.89015">
        <ele>1097</ele>
        <time>2019-06-15T09:47:08Z</time>
      </trkpt>
      <trkpt lat="44.46374" lon="5.89016">
        <ele>1097</ele>
        <time>2019-06-15T09:47:09Z</time>
      </trkpt>
      <trkpt lat="44.46366" lon="5.89016">
        <ele>1096</ele>
        <time>2019-06-15T09:47:10Z</time>
      </trkpt>
      <trkpt lat="44.46358" lon="5.89015">
        <ele>1096</ele>
        <time>2019-06-15T09:47:11Z</time>
      </trkpt>
      <trkpt lat="44.4635" lon="5.89013">
        <ele>1096</ele>
        <time>2019-06-15T09:47:12Z</time>
      </trkpt>
      <trkpt lat="44.46341" lon="5.89011">
        <ele>1095</ele>
        <time>2019-06-15T09:47:13Z</time>
      </trkpt>
      <trkpt lat="44.46332" lon="5.89009">
        <ele>1095</ele>
        <time>2019-06-15T09:47:14Z</time>
      </trkpt>
      <trkpt lat="44.46324" lon="5.89006">
        <ele>1095</ele>
        <time>2019-06-15T09:47:15Z</time>
      </trkpt>
      <trkpt lat="44.46316" lon="5.89006">
        <ele>1094</ele>
        <time>2019-06-15T09:47:16Z</time>
      </trkpt>
      <trkpt lat="44.46309" lon="5.89005">
        <ele>1093</ele>
        <time>2019-06-15T09:47:17Z</time>
      </trkpt>
      <trkpt lat="44.46301" lon="5.89003">
        <ele>1092</ele>
        <time>2019-06-15T09:47:18Z</time>
      </trkpt>
      <trkpt lat="44.46294" lon="5.88998">
        <ele>1091</ele>
        <time>2019-06-15T09:47:19Z</time>
      </trkpt>
      <trkpt lat="44.4629" lon="5.88992">
        <ele>1090</ele>
        <time>2019-06-15T09:47:20Z</time>
      </trkpt>
      <trkpt lat="44.46288" lon="5.88984">
        <ele>1089</ele>
        <time>2019-06-15T09:47:21Z</time>
      </trkpt>
      <trkpt lat="44.46286" lon="5.88976">
        <ele>1088</ele>
        <time>2019-06-15T09:47:22Z</time>
      </trkpt>
      <trkpt lat="44.46284" lon="5.88969">
        <ele>1087</ele>
        <time>2019-06-15T09:47:23Z</time>
      </trkpt>
      <trkpt lat="44.4628" lon="5.88966">
        <ele>1086</ele>
        <time>2019-06-15T09:47:24Z</time>
      </trkpt>
      <trkpt lat="44.46275" lon="5.88969">
        <ele>1085</ele>
        <time>2019-06-15T09:47:25Z</time>
      </trkpt>
      <trkpt lat="44.46268" lon="5.88974">
        <ele>1085</ele>
        <time>2019-06-15T09:47:26Z</time>
      </trkpt>
      <trkpt lat="44.46262" lon="5.88979">
        <ele>1085</ele>
        <time>2019-06-15T09:47:27Z</time>
      </trkpt>
      <trkpt lat="44.46256" lon="5.88985">
        <ele>1084</ele>
        <time>2019-06-15T09:47:28Z</time>
      </trkpt>
      <trkpt lat="44.46249" lon="5.88991">
        <ele>1084</ele>
        <time>2019-06-15T09:47:29Z</time>
      </trkpt>
      <trkpt lat="44.46242" lon="5.88997">
        <ele>1084</ele>
        <time>2019-06-15T09:47:30Z</time>
      </trkpt>
      <trkpt lat="44.46237" lon="5.89005">
        <ele>1083</ele>
        <time>2019-06-15T09:47:31Z</time>
      </trkpt>
      <trkpt lat="44.46232" lon="5.89012">
        <ele>1083</ele>
        <time>2019-06-15T09:47:32Z</time>
      </trkpt>
      <trkpt lat="44.46227" lon="5.89018">
        <ele>1082</ele>
        <time>2019-06-15T09:47:33Z</time>
      </trkpt>
      <trkpt lat="44.46222" lon="5.89023">
        <ele>1081</ele>
        <time>2019-06-15T09:47:34Z</time>
      </trkpt>
      <trkpt lat="44.46216" lon="5.89025">
        <ele>1081</ele>
        <time>2019-06-15T09:47:35Z</time>
      </trkpt>
      <trkpt lat="44.46209" lon="5.89022">
        <ele>1080</ele>
        <time>2019-06-15T09:47:36Z</time>
      </trkpt>
      <trkpt lat="44.46204" lon="5.89017">
        <ele>1079</ele>
        <time>2019-06-15T09:47:37Z</time>
      </trkpt>
      <trkpt lat="44.46201" lon="5.8901">
        <ele>1079</ele>
        <time>2019-06-15T09:47:38Z</time>
      </trkpt>
      <trkpt lat="44.46198" lon="5.89001">
        <ele>1078</ele>
        <time>2019-06-15T09:47:39Z</time>
      </trkpt>
      <trkpt lat="44.46195" lon="5.88993">
        <ele>1078</ele>
        <time>2019-06-15T09:47:40Z</time>
      </trkpt>
      <trkpt lat="44.46191" lon="5.88985">
        <ele>1077</ele>
        <time>2019-06-15T09:47:41Z</time>
      </trkpt>
      <trkpt lat="44.46186" lon="5.8898">
        <ele>1077</ele>
        <time>2019-06-15T09:47:42Z</time>
      </trkpt>
      <trkpt lat="44.46181" lon="5.88976">
        <ele>1076</ele>
        <time>2019-06-15T09:47:43Z</time>
      </trkpt>
      <trkpt lat="44.46174" lon="5.88977">
        <ele>1076</ele>
        <time>2019-06-15T09:47:44Z</time>
      </trkpt>
      <trkpt lat="44.46165" lon="5.88982">
        <ele>1075</ele>
        <time>2019-06-15T09:47:45Z</time>
      </trkpt>
      <trkpt lat="44.46158" lon="5.88988">
        <ele>1075</ele>
        <time>2019-06-15T09:47:46Z</time>
      </trkpt>
      <trkpt lat="44.4615" lon="5.88995">
        <ele>1075</ele>
        <time>2019-06-15T09:47:47Z</time>
      </trkpt>
      <trkpt lat="44.46141" lon="5.89001">
        <ele>1075</ele>
        <time>2019-06-15T09:47:48Z</time>
      </trkpt>
      <trkpt lat="44.46133" lon="5.89005">
        <ele>1075</ele>
        <time>2019-06-15T09:47:49Z</time>
      </trkpt>
      <trkpt lat="44.46125" lon="5.89008">
        <ele>1074</ele>
        <time>2019-06-15T09:47:50Z</time>
      </trkpt>
      <trkpt lat="44.46117" lon="5.89011">
        <ele>1074</ele>
        <time>2019-06-15T09:47:51Z</time>
      </trkpt>
      <trkpt lat="44.46109" lon="5.89016">
        <ele>1074</ele>
        <time>2019-06-15T09:47:52Z</time>
      </trkpt>
      <trkpt lat="44.46101" lon="5.89022">
        <ele>1073</ele>
        <time>2019-06-15T09:47:53Z</time>
      </trkpt>
      <trkpt lat="44.46092" lon="5.89028">
        <ele>1073</ele>
        <time>2019-06-15T09:47:54Z</time>
      </trkpt>
      <trkpt lat="44.46085" lon="5.89031">
        <ele>1072</ele>
        <time>2019-06-15T09:47:55Z</time>
      </trkpt>
      <trkpt lat="44.46077" lon="5.89031">
        <ele>1072</ele>
        <time>2019-06-15T09:47:56Z</time>
      </trkpt>
      <trkpt lat="44.46069" lon="5.89031">
        <ele>1072</ele>
        <time>2019-06-15T09:47:57Z</time>
      </trkpt>
      <trkpt lat="44.46063" lon="5.89029">
        <ele>1072</ele>
        <time>2019-06-15T09:47:58Z</time>
      </trkpt>
      <trkpt lat="44.46056" lon="5.89025">
        <ele>1072</ele>
        <time>2019-06-15T09:47:59Z</time>
      </trkpt>
      <trkpt lat="44.46049" lon="5.89019">
        <ele>1072</ele>
        <time>2019-06-15T09:48:00Z</time>
      </trkpt>
      <trkpt lat="44.46042" lon="5.89013">
        <ele>1072</ele>
        <time>2019-06-15T09:48:01Z</time>
      </trkpt>
      <trkpt lat="44.46035" lon="5.89008">
        <ele>1072</ele>
        <time>2019-06-15T09:48:02Z</time>
      </trkpt>
      <trkpt lat="44.46028" lon="5.89005">
        <ele>1071</ele>
        <time>2019-06-15T09:48:03Z</time>
      </trkpt>
      <trkpt lat="44.46022" lon="5.89005">
        <ele>1070</ele>
        <time>2019-06-15T09:48:04Z</time>
      </trkpt>
      <trkpt lat="44.46016" lon="5.89008">
        <ele>1070</ele>
        <time>2019-06-15T09:48:05Z</time>
      </trkpt>
      <trkpt lat="44.46008" lon="5.89017">
        <ele>1069</ele>
        <time>2019-06-15T09:48:06Z</time>
      </trkpt>
      <trkpt lat="44.46003" lon="5.89027">
        <ele>1069</ele>
        <time>2019-06-15T09:48:07Z</time>
      </trkpt>
      <trkpt lat="44.46002" lon="5.89038">
        <ele>1068</ele>
        <time>2019-06-15T09:48:08Z</time>
      </trkpt>
      <trkpt lat="44.46003" lon="5.8905">
        <ele>1067</ele>
        <time>2019-06-15T09:48:09Z</time>
      </trkpt>
      <trkpt lat="44.46003" lon="5.89061">
        <ele>1067</ele>
        <time>2019-06-15T09:48:10Z</time>
      </trkpt>
      <trkpt lat="44.46003" lon="5.89073">
        <ele>1067</ele>
        <time>2019-06-15T09:48:11Z</time>
      </trkpt>
      <trkpt lat="44.46005" lon="5.89085">
        <ele>1066</ele>
        <time>2019-06-15T09:48:12Z</time>
      </trkpt>
      <trkpt lat="44.46005" lon="5.89096">
        <ele>1066</ele>
        <time>2019-06-15T09:48:13Z</time>
      </trkpt>
      <trkpt lat="44.46005" lon="5.89108">
        <ele>1065</ele>
        <time>2019-06-15T09:48:14Z</time>
      </trkpt>
      <trkpt lat="44.46004" lon="5.89119">
        <ele>1065</ele>
        <time>2019-06-15T09:48:15Z</time>
      </trkpt>
      <trkpt lat="44.46002" lon="5.8913">
        <ele>1064</ele>
        <time>2019-06-15T09:48:16Z</time>
      </trkpt>
      <trkpt lat="44.45999" lon="5.89141">
        <ele>1063</ele>
        <time>2019-06-15T09:48:17Z</time>
      </trkpt>
      <trkpt lat="44.45996" lon="5.89152">
        <ele>1063</ele>
        <time>2019-06-15T09:48:18Z</time>
      </trkpt>
      <trkpt lat="44.45993" lon="5.89163">
        <ele>1062</ele>
        <time>2019-06-15T09:48:19Z</time>
      </trkpt>
      <trkpt lat="44.4599" lon="5.89175">
        <ele>1062</ele>
        <time>2019-06-15T09:48:20Z</time>
      </trkpt>
      <trkpt lat="44.45987" lon="5.89186">
        <ele>1061</ele>
        <time>2019-06-15T09:48:21Z</time>
      </trkpt>
      <trkpt lat="44.45984" lon="5.89198">
        <ele>1060</ele>
        <time>2019-06-15T09:48:22Z</time>
      </trkpt>
      <trkpt lat="44.45981" lon="5.8921">
        <ele>1060</ele>
        <time>2019-06-15T09:48:23Z</time>
      </trkpt>
      <trkpt lat="44.45978" lon="5.89221">
        <ele>1059</ele>
        <time>2019-06-15T09:48:24Z</time>
      </trkpt>
      <trkpt lat="44.45974" lon="5.89232">
        <ele>1059</ele>
        <time>2019-06-15T09:48:25Z</time>
      </trkpt>
      <trkpt lat="44.45971" lon="5.89244">
        <ele>1058</ele>
        <time>2019-06-15T09:48:26Z</time>
      </trkpt>
      <trkpt lat="44.45967" lon="5.89256">
        <ele>1058</ele>
        <time>2019-06-15T09:48:27Z</time>
      </trkpt>
      <trkpt lat="44.45963" lon="5.89268">
        <ele>1057</ele>
        <time>2019-06-15T09:48:28Z</time>
      </trkpt>
      <trkpt lat="44.45959" lon="5.89281">
        <ele>1056</ele>
        <time>2019-06-15T09:48:29Z</time>
      </trkpt>
      <trkpt lat="44.45955" lon="5.89294">
        <ele>1055</ele>
        <time>2019-06-15T09:48:30Z</time>
      </trkpt>
      <trkpt lat="44.45951" lon="5.89307">
        <ele>1055</ele>
        <time>2019-06-15T09:48:31Z</time>
      </trkpt>
      <trkpt lat="44.45948" lon="5.89321">
        <ele>1054</ele>
        <time>2019-06-15T09:48:32Z</time>
      </trkpt>
      <trkpt lat="44.45944" lon="5.89336">
        <ele>1053</ele>
        <time>2019-06-15T09:48:33Z</time>
      </trkpt>
      <trkpt lat="44.45942" lon="5.89351">
        <ele>1052</ele>
        <time>2019-06-15T09:48:34Z</time>
      </trkpt>
      <trkpt lat="44.4594" lon="5.89366">
        <ele>1051</ele>
        <time>2019-06-15T09:48:35Z</time>
      </trkpt>
      <trkpt lat="44.45938" lon="5.89381">
        <ele>1050</ele>
        <time>2019-06-15T09:48:36Z</time>
      </trkpt>
      <trkpt lat="44.45936" lon="5.89396">
        <ele>1050</ele>
        <time>2019-06-15T09:48:37Z</time>
      </trkpt>
      <trkpt lat="44.45933" lon="5.89411">
        <ele>1049</ele>
        <time>2019-06-15T09:48:38Z</time>
      </trkpt>
      <trkpt lat="44.45929" lon="5.89426">
        <ele>1048</ele>
        <time>2019-06-15T09:48:39Z</time>
      </trkpt>
      <trkpt lat="44.45925" lon="5.8944">
        <ele>1047</ele>
        <time>2019-06-15T09:48:40Z</time>
      </trkpt>
      <trkpt lat="44.45921" lon="5.89454">
        <ele>1046</ele>
        <time>2019-06-15T09:48:41Z</time>
      </trkpt>
      <trkpt lat="44.45917" lon="5.89468">
        <ele>1045</ele>
        <time>2019-06-15T09:48:42Z</time>
      </trkpt>
      <trkpt lat="44.45914" lon="5.89483">
        <ele>1044</ele>
        <time>2019-06-15T09:48:43Z</time>
      </trkpt>
      <trkpt lat="44.45911" lon="5.89499">
        <ele>1043</ele>
        <time>2019-06-15T09:48:44Z</time>
      </trkpt>
      <trkpt lat="44.45908" lon="5.89513">
        <ele>1042</ele>
        <time>2019-06-15T09:48:45Z</time>
      </trkpt>
      <trkpt lat="44.45905" lon="5.89529">
        <ele>1041</ele>
        <time>2019-06-15T09:48:46Z</time>
      </trkpt>
      <trkpt lat="44.45903" lon="5.89545">
        <ele>1040</ele>
        <time>2019-06-15T09:48:47Z</time>
      </trkpt>
      <trkpt lat="44.45899" lon="5.8956">
        <ele>1039</ele>
        <time>2019-06-15T09:48:48Z</time>
      </trkpt>
      <trkpt lat="44.45898" lon="5.89575">
        <ele>1038</ele>
        <time>2019-06-15T09:48:49Z</time>
      </trkpt>
      <trkpt lat="44.45897" lon="5.89591">
        <ele>1037</ele>
        <time>2019-06-15T09:48:50Z</time>
      </trkpt>
      <trkpt lat="44.45895" lon="5.89605">
        <ele>1036</ele>
        <time>2019-06-15T09:48:51Z</time>
      </trkpt>
      <trkpt lat="44.45893" lon="5.89618">
        <ele>1035</ele>
        <time>2019-06-15T09:48:52Z</time>
      </trkpt>
      <trkpt lat="44.4589" lon="5.8963">
        <ele>1034</ele>
        <time>2019-06-15T09:48:53Z</time>
      </trkpt>
      <trkpt lat="44.45887" lon="5.8964">
        <ele>1034</ele>
        <time>2019-06-15T09:48:54Z</time>
      </trkpt>
      <trkpt lat="44.45882" lon="5.89649">
        <ele>1033</ele>
        <time>2019-06-15T09:48:55Z</time>
      </trkpt>
      <trkpt lat="44.45875" lon="5.89657">
        <ele>1032</ele>
        <time>2019-06-15T09:48:56Z</time>
      </trkpt>
      <trkpt lat="44.45868" lon="5.89664">
        <ele>1032</ele>
        <time>2019-06-15T09:48:57Z</time>
      </trkpt>
      <trkpt lat="44.4586" lon="5.89668">
        <ele>1031</ele>
        <time>2019-06-15T09:48:58Z</time>
      </trkpt>
      <trkpt lat="44.45851" lon="5.8967">
        <ele>1031</ele>
        <time>2019-06-15T09:48:59Z</time>
      </trkpt>
      <trkpt lat="44.45842" lon="5.8967">
        <ele>1030</ele>
        <time>2019-06-15T09:49:00Z</time>
      </trkpt>
      <trkpt lat="44.45831" lon="5.89669">
        <ele>1029</ele>
        <time>2019-06-15T09:49:01Z</time>
      </trkpt>
      <trkpt lat="44.45822" lon="5.89669">
        <ele>1028</ele>
        <time>2019-06-15T09:49:02Z</time>
      </trkpt>
      <trkpt lat="44.45813" lon="5.89668">
        <ele>1027</ele>
        <time>2019-06-15T09:49:03Z</time>
      </trkpt>
      <trkpt lat="44.45804" lon="5.89668">
        <ele>1026</ele>
        <time>2019-06-15T09:49:04Z</time>
      </trkpt>
      <trkpt lat="44.45795" lon="5.8967">
        <ele>1025</ele>
        <time>2019-06-15T09:49:05Z</time>
      </trkpt>
      <trkpt lat="44.45787" lon="5.89672">
        <ele>1024</ele>
        <time>2019-06-15T09:49:06Z</time>
      </trkpt>
      <trkpt lat="44.45779" lon="5.89672">
        <ele>1024</ele>
        <time>2019-06-15T09:49:07Z</time>
      </trkpt>
      <trkpt lat="44.45771" lon="5.8967">
        <ele>1023</ele>
        <time>2019-06-15T09:49:08Z</time>
      </trkpt>
      <trkpt lat="44.45765" lon="5.89667">
        <ele>1022</ele>
        <time>2019-06-15T09:49:09Z</time>
      </trkpt>
      <trkpt lat="44.45758" lon="5.89666">
        <ele>1022</ele>
        <time>2019-06-15T09:49:10Z</time>
      </trkpt>
      <trkpt lat="44.45753" lon="5.89669">
        <ele>1021</ele>
        <time>2019-06-15T09:49:11Z</time>
      </trkpt>
      <trkpt lat="44.45747" lon="5.89675">
        <ele>1021</ele>
        <time>2019-06-15T09:49:12Z</time>
      </trkpt>
      <trkpt lat="44.45741" lon="5.89682">
        <ele>1020</ele>
        <time>2019-06-15T09:49:13Z</time>
      </trkpt>
      <trkpt lat="44.45733" lon="5.89688">
        <ele>1019</ele>
        <time>2019-06-15T09:49:14Z</time>
      </trkpt>
      <trkpt lat="44.45725" lon="5.89694">
        <ele>1019</ele>
        <time>2019-06-15T09:49:15Z</time>
      </trkpt>
      <trkpt lat="44.45718" lon="5.89701">
        <ele>1018</ele>
        <time>2019-06-15T09:49:16Z</time>
      </trkpt>
      <trkpt lat="44.45712" lon="5.8971">
        <ele>1017</ele>
        <time>2019-06-15T09:49:17Z</time>
      </trkpt>
      <trkpt lat="44.45706" lon="5.8972">
        <ele>1017</ele>
        <time>2019-06-15T09:49:18Z</time>
      </trkpt>
      <trkpt lat="44.45699" lon="5.89729">
        <ele>1016</ele>
        <time>2019-06-15T09:49:19Z</time>
      </trkpt>
      <trkpt lat="44.45692" lon="5.89736">
        <ele>1015</ele>
        <time>2019-06-15T09:49:20Z</time>
      </trkpt>
      <trkpt lat="44.45686" lon="5.8974">
        <ele>1015</ele>
        <time>2019-06-15T09:49:21Z</time>
      </trkpt>
      <trkpt lat="44.45679" lon="5.89742">
        <ele>1014</ele>
        <time>2019-06-15T09:49:22Z</time>
      </trkpt>
      <trkpt lat="44.45673" lon="5.89741">
        <ele>1014</ele>
        <time>2019-06-15T09:49:23Z</time>
      </trkpt>
      <trkpt lat="44.45666" lon="5.89738">
        <ele>1013</ele>
        <time>2019-06-15T09:49:24Z</time>
      </trkpt>
      <trkpt lat="44.4566" lon="5.89735">
        <ele>1013</ele>
        <time>2019-06-15T09:49:25Z</time>
      </trkpt>
      <trkpt lat="44.45654" lon="5.89735">
        <ele>1012</ele>
        <time>2019-06-15T09:49:26Z</time>
      </trkpt>
      <trkpt lat="44.45648" lon="5.89739">
        <ele>1012</ele>
        <time>2019-06-15T09:49:27Z</time>
      </trkpt>
      <trkpt lat="44.45644" lon="5.89746">
        <ele>1011</ele>
        <time>2019-06-15T09:49:28Z</time>
      </trkpt>
      <trkpt lat="44.45638" lon="5.89754">
        <ele>1011</ele>
        <time>2019-06-15T09:49:29Z</time>
      </trkpt>
      <trkpt lat="44.45632" lon="5.89761">
        <ele>1010</ele>
        <time>2019-06-15T09:49:30Z</time>
      </trkpt>
      <trkpt lat="44.45625" lon="5.89767">
        <ele>1010</ele>
        <time>2019-06-15T09:49:31Z</time>
      </trkpt>
      <trkpt lat="44.45618" lon="5.89773">
        <ele>1010</ele>
        <time>2019-06-15T09:49:32Z</time>
      </trkpt>
      <trkpt lat="44.45612" lon="5.89778">
        <ele>1009</ele>
        <time>2019-06-15T09:49:33Z</time>
      </trkpt>
      <trkpt lat="44.45606" lon="5.89781">
        <ele>1009</ele>
        <time>2019-06-15T09:49:34Z</time>
      </trkpt>
      <trkpt lat="44.45599" lon="5.8978">
        <ele>1008</ele>
        <time>2019-06-15T09:49:35Z</time>
      </trkpt>
      <trkpt lat="44.45594" lon="5.89777">
        <ele>1008</ele>
        <time>2019-06-15T09:49:36Z</time>
      </trkpt>
      <trkpt lat="44.45589" lon="5.89771">
        <ele>1007</ele>
        <time>2019-06-15T09:49:37Z</time>
      </trkpt>
      <trkpt lat="44.45584" lon="5.89766">
        <ele>1007</ele>
        <time>2019-06-15T09:49:38Z</time>
      </trkpt>
      <trkpt lat="44.4558" lon="5.89765">
        <ele>1007</ele>
        <time>2019-06-15T09:49:39Z</time>
      </trkpt>
      <trkpt lat="44.45575" lon="5.89767">
        <ele>1007</ele>
        <time>2019-06-15T09:49:40Z</time>
      </trkpt>
      <trkpt lat="44.4557" lon="5.89774">
        <ele>1006</ele>
        <time>2019-06-15T09:49:41Z</time>
      </trkpt>
      <trkpt lat="44.45565" lon="5.89782">
        <ele>1006</ele>
        <time>2019-06-15T09:49:42Z</time>
      </trkpt>
      <trkpt lat="44.4556" lon="5.89789">
        <ele>1006</ele>
        <time>2019-06-15T09:49:43Z</time>
      </trkpt>
      <trkpt lat="44.45555" lon="5.89794">
        <ele>1005</ele>
        <time>2019-06-15T09:49:44Z</time>
      </trkpt>
      <trkpt lat="44.45549" lon="5.89799">
        <ele>1005</ele>
        <time>2019-06-15T09:49:45Z</time>
      </trkpt>
      <trkpt lat="44.45542" lon="5.89801">
        <ele>1005</ele>
        <time>2019-06-15T09:49:46Z</time>
      </trkpt>
      <trkpt lat="44.45535" lon="5.89804">
        <ele>1005</ele>
        <time>2019-06-15T09:49:47Z</time>
      </trkpt>
      <trkpt lat="44.45527" lon="5.89807">
        <ele>1005</ele>
        <time>2019-06-15T09:49:48Z</time>
      </trkpt>
      <trkpt lat="44.4552" lon="5.8981">
        <ele>1005</ele>
        <time>2019-06-15T09:49:49Z</time>
      </trkpt>
      <trkpt lat="44.45513" lon="5.89815">
        <ele>1005</ele>
        <time>2019-06-15T09:49:50Z</time>
      </trkpt>
      <trkpt lat="44.45507" lon="5.89821">
        <ele>1005</ele>
        <time>2019-06-15T09:49:51Z</time>
      </trkpt>
      <trkpt lat="44.45502" lon="5.89828">
        <ele>1005</ele>
        <time>2019-06-15T09:49:52Z</time>
      </trkpt>
      <trkpt lat="44.455" lon="5.89837">
        <ele>1005</ele>
        <time>2019-06-15T09:49:53Z</time>
      </trkpt>
      <trkpt lat="44.45499" lon="5.89847">
        <ele>1005</ele>
        <time>2019-06-15T09:49:54Z</time>
      </trkpt>
      <trkpt lat="44.45501" lon="5.89856">
        <ele>1005</ele>
        <time>2019-06-15T09:49:55Z</time>
      </trkpt>
      <trkpt lat="44.45503" lon="5.89866">
        <ele>1005</ele>
        <time>2019-06-15T09:49:56Z</time>
      </trkpt>
      <trkpt lat="44.45506" lon="5.89876">
        <ele>1005</ele>
        <time>2019-06-15T09:49:57Z</time>
      </trkpt>
      <trkpt lat="44.45509" lon="5.89886">
        <ele>1005</ele>
        <time>2019-06-15T09:49:58Z</time>
      </trkpt>
      <trkpt lat="44.45512" lon="5.89896">
        <ele>1005</ele>
        <time>2019-06-15T09:49:59Z</time>
      </trkpt>
      <trkpt lat="44.45515" lon="5.89907">
        <ele>1005</ele>
        <time>2019-06-15T09:50:00Z</time>
      </trkpt>
      <trkpt lat="44.45518" lon="5.89918">
        <ele>1005</ele>
        <time>2019-06-15T09:50:01Z</time>
      </trkpt>
      <trkpt lat="44.4552" lon="5.8993">
        <ele>1005</ele>
        <time>2019-06-15T09:50:02Z</time>
      </trkpt>
      <trkpt lat="44.45521" lon="5.89942">
        <ele>1005</ele>
        <time>2019-06-15T09:50:03Z</time>
      </trkpt>
      <trkpt lat="44.45522" lon="5.89954">
        <ele>1004</ele>
        <time>2019-06-15T09:50:04Z</time>
      </trkpt>
      <trkpt lat="44.45521" lon="5.89966">
        <ele>1004</ele>
        <time>2019-06-15T09:50:05Z</time>
      </trkpt>
      <trkpt lat="44.4552" lon="5.89978">
        <ele>1003</ele>
        <time>2019-06-15T09:50:06Z</time>
      </trkpt>
      <trkpt lat="44.45517" lon="5.8999">
        <ele>1003</ele>
        <time>2019-06-15T09:50:07Z</time>
      </trkpt>
      <trkpt lat="44.45515" lon="5.90001">
        <ele>1002</ele>
        <time>2019-06-15T09:50:08Z</time>
      </trkpt>
      <trkpt lat="44.45512" lon="5.90013">
        <ele>1001</ele>
        <time>2019-06-15T09:50:09Z</time>
      </trkpt>
      <trkpt lat="44.45508" lon="5.90024">
        <ele>1000</ele>
        <time>2019-06-15T09:50:10Z</time>
      </trkpt>
      <trkpt lat="44.45504" lon="5.90035">
        <ele>1000</ele>
        <time>2019-06-15T09:50:11Z</time>
      </trkpt>
      <trkpt lat="44.45499" lon="5.90048">
        <ele>999</ele>
        <time>2019-06-15T09:50:12Z</time>
      </trkpt>
      <trkpt lat="44.45495" lon="5.9006">
        <ele>998</ele>
        <time>2019-06-15T09:50:13Z</time>
      </trkpt>
      <trkpt lat="44.45491" lon="5.90072">
        <ele>998</ele>
        <time>2019-06-15T09:50:14Z</time>
      </trkpt>
      <trkpt lat="44.45487" lon="5.90084">
        <ele>997</ele>
        <time>2019-06-15T09:50:15Z</time>
      </trkpt>
      <trkpt lat="44.45482" lon="5.90096">
        <ele>996</ele>
        <time>2019-06-15T09:50:16Z</time>
      </trkpt>
      <trkpt lat="44.45478" lon="5.90108">
        <ele>995</ele>
        <time>2019-06-15T09:50:17Z</time>
      </trkpt>
      <trkpt lat="44.45473" lon="5.90121">
        <ele>994</ele>
        <time>2019-06-15T09:50:18Z</time>
      </trkpt>
      <trkpt lat="44.45469" lon="5.90134">
        <ele>993</ele>
        <time>2019-06-15T09:50:19Z</time>
      </trkpt>
      <trkpt lat="44.45465" lon="5.90148">
        <ele>992</ele>
        <time>2019-06-15T09:50:20Z</time>
      </trkpt>
      <trkpt lat="44.4546" lon="5.90161">
        <ele>991</ele>
        <time>2019-06-15T09:50:21Z</time>
      </trkpt>
      <trkpt lat="44.45455" lon="5.90174">
        <ele>990</ele>
        <time>2019-06-15T09:50:22Z</time>
      </trkpt>
      <trkpt lat="44.45449" lon="5.90185">
        <ele>990</ele>
        <time>2019-06-15T09:50:23Z</time>
      </trkpt>
      <trkpt lat="44.45444" lon="5.90196">
        <ele>989</ele>
        <time>2019-06-15T09:50:24Z</time>
      </trkpt>
      <trkpt lat="44.45439" lon="5.90207">
        <ele>988</ele>
        <time>2019-06-15T09:50:25Z</time>
      </trkpt>
      <trkpt lat="44.45436" lon="5.90217">
        <ele>988</ele>
        <time>2019-06-15T09:50:26Z</time>
      </trkpt>
      <trkpt lat="44.45434" lon="5.90228">
        <ele>987</ele>
        <time>2019-06-15T09:50:27Z</time>
      </trkpt>
      <trkpt lat="44.45433" lon="5.90239">
        <ele>986</ele>
        <time>2019-06-15T09:50:28Z</time>
      </trkpt>
      <trkpt lat="44.45433" lon="5.9025">
        <ele>985</ele>
        <time>2019-06-15T09:50:29Z</time>
      </trkpt>
      <trkpt lat="44.45432" lon="5.9026">
        <ele>985</ele>
        <time>2019-06-15T09:50:30Z</time>
      </trkpt>
      <trkpt lat="44.4543" lon="5.9027">
        <ele>984</ele>
        <time>2019-06-15T09:50:31Z</time>
      </trkpt>
      <trkpt lat="44.45427" lon="5.90279">
        <ele>983</ele>
        <time>2019-06-15T09:50:32Z</time>
      </trkpt>
      <trkpt lat="44.45422" lon="5.90287">
        <ele>983</ele>
        <time>2019-06-15T09:50:33Z</time>
      </trkpt>
      <trkpt lat="44.45416" lon="5.90295">
        <ele>982</ele>
        <time>2019-06-15T09:50:34Z</time>
      </trkpt>
      <trkpt lat="44.45408" lon="5.90301">
        <ele>981</ele>
        <time>2019-06-15T09:50:35Z</time>
      </trkpt>
      <trkpt lat="44.454" lon="5.90307">
        <ele>981</ele>
        <time>2019-06-15T09:50:36Z</time>
      </trkpt>
      <trkpt lat="44.4539" lon="5.90312">
        <ele>980</ele>
        <time>2019-06-15T09:50:37Z</time>
      </trkpt>
      <trkpt lat="44.45381" lon="5.90317">
        <ele>979</ele>
        <time>2019-06-15T09:50:38Z</time>
      </trkpt>
      <trkpt lat="44.45372" lon="5.90322">
        <ele>978</ele>
        <time>2019-06-15T09:50:39Z</time>
      </trkpt>
      <trkpt lat="44.45361" lon="5.90327">
        <ele>977</ele>
        <time>2019-06-15T09:50:40Z</time>
      </trkpt>
      <trkpt lat="44.45352" lon="5.90332">
        <ele>977</ele>
        <time>2019-06-15T09:50:41Z</time>
      </trkpt>
      <trkpt lat="44.45343" lon="5.90335">
        <ele>976</ele>
        <time>2019-06-15T09:50:42Z</time>
      </trkpt>
      <trkpt lat="44.45334" lon="5.90337">
        <ele>976</ele>
        <time>2019-06-15T09:50:43Z</time>
      </trkpt>
      <trkpt lat="44.45325" lon="5.90338">
        <ele>975</ele>
        <time>2019-06-15T09:50:44Z</time>
      </trkpt>
      <trkpt lat="44.45317" lon="5.90336">
        <ele>974</ele>
        <time>2019-06-15T09:50:45Z</time>
      </trkpt>
      <trkpt lat="44.45309" lon="5.90333">
        <ele>973</ele>
        <time>2019-06-15T09:50:46Z</time>
      </trkpt>
      <trkpt lat="44.45302" lon="5.90328">
        <ele>973</ele>
        <time>2019-06-15T09:50:47Z</time>
      </trkpt>
      <trkpt lat="44.45294" lon="5.90323">
        <ele>972</ele>
        <time>2019-06-15T09:50:48Z</time>
      </trkpt>
      <trkpt lat="44.45287" lon="5.90318">
        <ele>972</ele>
        <time>2019-06-15T09:50:49Z</time>
      </trkpt>
      <trkpt lat="44.4528" lon="5.90314">
        <ele>971</ele>
        <time>2019-06-15T09:50:50Z</time>
      </trkpt>
      <trkpt lat="44.45272" lon="5.90311">
        <ele>971</ele>
        <time>2019-06-15T09:50:51Z</time>
      </trkpt>
      <trkpt lat="44.45264" lon="5.90308">
        <ele>971</ele>
        <time>2019-06-15T09:50:52Z</time>
      </trkpt>
      <trkpt lat="44.45256" lon="5.90306">
        <ele>970</ele>
        <time>2019-06-15T09:50:53Z</time>
      </trkpt>
      <trkpt lat="44.45248" lon="5.90304">
        <ele>970</ele>
        <time>2019-06-15T09:50:54Z</time>
      </trkpt>
      <trkpt lat="44.4524" lon="5.90302">
        <ele>970</ele>
        <time>2019-06-15T09:50:55Z</time>
      </trkpt>
      <trkpt lat="44.45232" lon="5.90301">
        <ele>970</ele>
        <time>2019-06-15T09:50:56Z</time>
      </trkpt>
      <trkpt lat="44.45225" lon="5.903">
        <ele>970</ele>
        <time>2019-06-15T09:50:57Z</time>
      </trkpt>
      <trkpt lat="44.45218" lon="5.90301">
        <ele>970</ele>
        <time>2019-06-15T09:50:58Z</time>
      </trkpt>
      <trkpt lat="44.45211" lon="5.90303">
        <ele>970</ele>
        <time>2019-06-15T09:50:59Z</time>
      </trkpt>
      <trkpt lat="44.45204" lon="5.90308">
        <ele>970</ele>
        <time>2019-06-15T09:51:00Z</time>
      </trkpt>
      <trkpt lat="44.45199" lon="5.90315">
        <ele>970</ele>
        <time>2019-06-15T09:51:01Z</time>
      </trkpt>
      <trkpt lat="44.45194" lon="5.90322">
        <ele>970</ele>
        <time>2019-06-15T09:51:02Z</time>
      </trkpt>
      <trkpt lat="44.45189" lon="5.90331">
        <ele>970</ele>
        <time>2019-06-15T09:51:03Z</time>
      </trkpt>
      <trkpt lat="44.45185" lon="5.9034">
        <ele>970</ele>
        <time>2019-06-15T09:51:04Z</time>
      </trkpt>
      <trkpt lat="44.45181" lon="5.90349">
        <ele>970</ele>
        <time>2019-06-15T09:51:05Z</time>
      </trkpt>
      <trkpt lat="44.45177" lon="5.9036">
        <ele>970</ele>
        <time>2019-06-15T09:51:06Z</time>
      </trkpt>
      <trkpt lat="44.45173" lon="5.9037">
        <ele>970</ele>
        <time>2019-06-15T09:51:07Z</time>
      </trkpt>
      <trkpt lat="44.45169" lon="5.9038">
        <ele>970</ele>
        <time>2019-06-15T09:51:08Z</time>
      </trkpt>
      <trkpt lat="44.45164" lon="5.90391">
        <ele>969</ele>
        <time>2019-06-15T09:51:09Z</time>
      </trkpt>
      <trkpt lat="44.45159" lon="5.90401">
        <ele>969</ele>
        <time>2019-06-15T09:51:10Z</time>
      </trkpt>
      <trkpt lat="44.45155" lon="5.90412">
        <ele>968</ele>
        <time>2019-06-15T09:51:11Z</time>
      </trkpt>
      <trkpt lat="44.4515" lon="5.90423">
        <ele>967</ele>
        <time>2019-06-15T09:51:12Z</time>
      </trkpt>
      <trkpt lat="44.45145" lon="5.90434">
        <ele>967</ele>
        <time>2019-06-15T09:51:13Z</time>
      </trkpt>
      <trkpt lat="44.45139" lon="5.90444">
        <ele>966</ele>
        <time>2019-06-15T09:51:14Z</time>
      </trkpt>
      <trkpt lat="44.45133" lon="5.90453">
        <ele>965</ele>
        <time>2019-06-15T09:51:15Z</time>
      </trkpt>
      <trkpt lat="44.45126" lon="5.90462">
        <ele>964</ele>
        <time>2019-06-15T09:51:16Z</time>
      </trkpt>
      <trkpt lat="44.45118" lon="5.90469">
        <ele>964</ele>
        <time>2019-06-15T09:51:17Z</time>
      </trkpt>
      <trkpt lat="44.45109" lon="5.90476">
        <ele>963</ele>
        <time>2019-06-15T09:51:18Z</time>
      </trkpt>
      <trkpt lat="44.451" lon="5.90482">
        <ele>962</ele>
        <time>2019-06-15T09:51:19Z</time>
      </trkpt>
      <trkpt lat="44.4509" lon="5.90487">
        <ele>961</ele>
        <time>2019-06-15T09:51:20Z</time>
      </trkpt>
      <trkpt lat="44.45079" lon="5.90491">
        <ele>960</ele>
        <time>2019-06-15T09:51:21Z</time>
      </trkpt>
      <trkpt lat="44.45069" lon="5.90494">
        <ele>959</ele>
        <time>2019-06-15T09:51:22Z</time>
      </trkpt>
      <trkpt lat="44.45059" lon="5.90498">
        <ele>958</ele>
        <time>2019-06-15T09:51:23Z</time>
      </trkpt>
      <trkpt lat="44.4505" lon="5.90502">
        <ele>957</ele>
        <time>2019-06-15T09:51:24Z</time>
      </trkpt>
      <trkpt lat="44.45042" lon="5.90508">
        <ele>956</ele>
        <time>2019-06-15T09:51:25Z</time>
      </trkpt>
      <trkpt lat="44.45035" lon="5.90516">
        <ele>955</ele>
        <time>2019-06-15T09:51:26Z</time>
      </trkpt>
      <trkpt lat="44.45029" lon="5.90525">
        <ele>954</ele>
        <time>2019-06-15T09:51:27Z</time>
      </trkpt>
      <trkpt lat="44.45022" lon="5.90535">
        <ele>954</ele>
        <time>2019-06-15T09:51:28Z</time>
      </trkpt>
      <trkpt lat="44.45015" lon="5.90545">
        <ele>953</ele>
        <time>2019-06-15T09:51:29Z</time>
      </trkpt>
      <trkpt lat="44.45009" lon="5.90556">
        <ele>952</ele>
        <time>2019-06-15T09:51:30Z</time>
      </trkpt>
      <trkpt lat="44.45002" lon="5.90566">
        <ele>952</ele>
        <time>2019-06-15T09:51:31Z</time>
      </trkpt>
      <trkpt lat="44.44995" lon="5.90577">
        <ele>951</ele>
        <time>2019-06-15T09:51:32Z</time>
      </trkpt>
      <trkpt lat="44.44988" lon="5.90589">
        <ele>950</ele>
        <time>2019-06-15T09:51:33Z</time>
      </trkpt>
      <trkpt lat="44.44981" lon="5.906">
        <ele>950</ele>
        <time>2019-06-15T09:51:34Z</time>
      </trkpt>
      <trkpt lat="44.44973" lon="5.90611">
        <ele>949</ele>
        <time>2019-06-15T09:51:35Z</time>
      </trkpt>
      <trkpt lat="44.44966" lon="5.90622">
        <ele>949</ele>
        <time>2019-06-15T09:51:36Z</time>
      </trkpt>
      <trkpt lat="44.44958" lon="5.90633">
        <ele>948</ele>
        <time>2019-06-15T09:51:37Z</time>
      </trkpt>
      <trkpt lat="44.44951" lon="5.90644">
        <ele>947</ele>
        <time>2019-06-15T09:51:38Z</time>
      </trkpt>
      <trkpt lat="44.44944" lon="5.90655">
        <ele>947</ele>
        <time>2019-06-15T09:51:39Z</time>
      </trkpt>
      <trkpt lat="44.44938" lon="5.90665">
        <ele>947</ele>
        <time>2019-06-15T09:51:40Z</time>
      </trkpt>
      <trkpt lat="44.44932" lon="5.90675">
        <ele>947</ele>
        <time>2019-06-15T09:51:41Z</time>
      </trkpt>
      <trkpt lat="44.44926" lon="5.90684">
        <ele>947</ele>
        <time>2019-06-15T09:51:42Z</time>
      </trkpt>
      <trkpt lat="44.44921" lon="5.90693">
        <ele>947</ele>
        <time>2019-06-15T09:51:43Z</time>
      </trkpt>
      <trkpt lat="44.44916" lon="5.90702">
        <ele>947</ele>
        <time>2019-06-15T09:51:44Z</time>
      </trkpt>
      <trkpt lat="44.44911" lon="5.9071">
        <ele>947</ele>
        <time>2019-06-15T09:51:45Z</time>
      </trkpt>
      <trkpt lat="44.44906" lon="5.90719">
        <ele>947</ele>
        <time>2019-06-15T09:51:46Z</time>
      </trkpt>
      <trkpt lat="44.44901" lon="5.90726">
        <ele>947</ele>
        <time>2019-06-15T09:51:47Z</time>
      </trkpt>
      <trkpt lat="44.44896" lon="5.90734">
        <ele>947</ele>
        <time>2019-06-15T09:51:48Z</time>
      </trkpt>
      <trkpt lat="44.4489" lon="5.90739">
        <ele>947</ele>
        <time>2019-06-15T09:51:49Z</time>
      </trkpt>
      <trkpt lat="44.44884" lon="5.90743">
        <ele>947</ele>
        <time>2019-06-15T09:51:50Z</time>
      </trkpt>
      <trkpt lat="44.44878" lon="5.90743">
        <ele>947</ele>
        <time>2019-06-15T09:51:51Z</time>
      </trkpt>
      <trkpt lat="44.44872" lon="5.90742">
        <ele>947</ele>
        <time>2019-06-15T09:51:52Z</time>
      </trkpt>
      <trkpt lat="44.44866" lon="5.9074">
        <ele>947</ele>
        <time>2019-06-15T09:51:53Z</time>
      </trkpt>
      <trkpt lat="44.44859" lon="5.90738">
        <ele>947</ele>
        <time>2019-06-15T09:51:54Z</time>
      </trkpt>
      <trkpt lat="44.44852" lon="5.90735">
        <ele>947</ele>
        <time>2019-06-15T09:51:55Z</time>
      </trkpt>
      <trkpt lat="44.44844" lon="5.90732">
        <ele>947</ele>
        <time>2019-06-15T09:51:56Z</time>
      </trkpt>
      <trkpt lat="44.44836" lon="5.90728">
        <ele>947</ele>
        <time>2019-06-15T09:51:57Z</time>
      </trkpt>
      <trkpt lat="44.44828" lon="5.90723">
        <ele>947</ele>
        <time>2019-06-15T09:51:58Z</time>
      </trkpt>
      <trkpt lat="44.4482" lon="5.90718">
        <ele>947</ele>
        <time>2019-06-15T09:51:59Z</time>
      </trkpt>
      <trkpt lat="44.44812" lon="5.90714">
        <ele>947</ele>
        <time>2019-06-15T09:52:00Z</time>
      </trkpt>
      <trkpt lat="44.44805" lon="5.90712">
        <ele>947</ele>
        <time>2019-06-15T09:52:01Z</time>
      </trkpt>
      <trkpt lat="44.44799" lon="5.90714">
        <ele>947</ele>
        <time>2019-06-15T09:52:02Z</time>
      </trkpt>
      <trkpt lat="44.44792" lon="5.9072">
        <ele>947</ele>
        <time>2019-06-15T09:52:03Z</time>
      </trkpt>
      <trkpt lat="44.44786" lon="5.90728">
        <ele>947</ele>
        <time>2019-06-15T09:52:04Z</time>
      </trkpt>
      <trkpt lat="44.44781" lon="5.90737">
        <ele>947</ele>
        <time>2019-06-15T09:52:05Z</time>
      </trkpt>
      <trkpt lat="44.44779" lon="5.90746">
        <ele>947</ele>
        <time>2019-06-15T09:52:06Z</time>
      </trkpt>
      <trkpt lat="44.44779" lon="5.90756">
        <ele>946</ele>
        <time>2019-06-15T09:52:07Z</time>
      </trkpt>
      <trkpt lat="44.44781" lon="5.90764">
        <ele>945</ele>
        <time>2019-06-15T09:52:08Z</time>
      </trkpt>
      <trkpt lat="44.44784" lon="5.90772">
        <ele>945</ele>
        <time>2019-06-15T09:52:09Z</time>
      </trkpt>
      <trkpt lat="44.44789" lon="5.9078">
        <ele>944</ele>
        <time>2019-06-15T09:52:10Z</time>
      </trkpt>
      <trkpt lat="44.44794" lon="5.90788">
        <ele>944</ele>
        <time>2019-06-15T09:52:11Z</time>
      </trkpt>
      <trkpt lat="44.44801" lon="5.90795">
        <ele>944</ele>
        <time>2019-06-15T09:52:12Z</time>
      </trkpt>
      <trkpt lat="44.44807" lon="5.908">
        <ele>944</ele>
        <time>2019-06-15T09:52:13Z</time>
      </trkpt>
      <trkpt lat="44.44813" lon="5.90806">
        <ele>944</ele>
        <time>2019-06-15T09:52:14Z</time>
      </trkpt>
      <trkpt lat="44.44819" lon="5.90813">
        <ele>944</ele>
        <time>2019-06-15T09:52:15Z</time>
      </trkpt>
      <trkpt lat="44.44825" lon="5.90821">
        <ele>944</ele>
        <time>2019-06-15T09:52:16Z</time>
      </trkpt>
      <trkpt lat="44.44829" lon="5.90829">
        <ele>944</ele>
        <time>2019-06-15T09:52:17Z</time>
      </trkpt>
      <trkpt lat="44.44832" lon="5.90838">
        <ele>944</ele>
        <time>2019-06-15T09:52:18Z</time>
      </trkpt>
      <trkpt lat="44.44835" lon="5.90848">
        <ele>944</ele>
        <time>2019-06-15T09:52:19Z</time>
      </trkpt>
      <trkpt lat="44.44836" lon="5.90859">
        <ele>944</ele>
        <time>2019-06-15T09:52:20Z</time>
      </trkpt>
      <trkpt lat="44.44838" lon="5.9087">
        <ele>944</ele>
        <time>2019-06-15T09:52:21Z</time>
      </trkpt>
      <trkpt lat="44.44839" lon="5.90881">
        <ele>944</ele>
        <time>2019-06-15T09:52:22Z</time>
      </trkpt>
      <trkpt lat="44.44839" lon="5.90892">
        <ele>944</ele>
        <time>2019-06-15T09:52:23Z</time>
      </trkpt>
      <trkpt lat="44.4484" lon="5.90904">
        <ele>944</ele>
        <time>2019-06-15T09:52:24Z</time>
      </trkpt>
      <trkpt lat="44.44841" lon="5.90915">
        <ele>944</ele>
        <time>2019-06-15T09:52:25Z</time>
      </trkpt>
      <trkpt lat="44.44842" lon="5.90927">
        <ele>944</ele>
        <time>2019-06-15T09:52:26Z</time>
      </trkpt>
      <trkpt lat="44.44842" lon="5.90938">
        <ele>944</ele>
        <time>2019-06-15T09:52:27Z</time>
      </trkpt>
      <trkpt lat="44.44841" lon="5.9095">
        <ele>943</ele>
        <time>2019-06-15T09:52:28Z</time>
      </trkpt>
      <trkpt lat="44.44838" lon="5.90962">
        <ele>942</ele>
        <time>2019-06-15T09:52:29Z</time>
      </trkpt>
      <trkpt lat="44.44833" lon="5.90973">
        <ele>941</ele>
        <time>2019-06-15T09:52:30Z</time>
      </trkpt>
      <trkpt lat="44.44828" lon="5.90983">
        <ele>941</ele>
        <time>2019-06-15T09:52:31Z</time>
      </trkpt>
      <trkpt lat="44.44822" lon="5.90994">
        <ele>940</ele>
        <time>2019-06-15T09:52:32Z</time>
      </trkpt>
      <trkpt lat="44.44816" lon="5.91006">
        <ele>939</ele>
        <time>2019-06-15T09:52:33Z</time>
      </trkpt>
      <trkpt lat="44.4481" lon="5.91019">
        <ele>938</ele>
        <time>2019-06-15T09:52:34Z</time>
      </trkpt>
      <trkpt lat="44.44804" lon="5.91032">
        <ele>937</ele>
        <time>2019-06-15T09:52:35Z</time>
      </trkpt>
      <trkpt lat="44.44799" lon="5.91046">
        <ele>936</ele>
        <time>2019-06-15T09:52:36Z</time>
      </trkpt>
      <trkpt lat="44.44794" lon="5.9106">
        <ele>935</ele>
        <time>2019-06-15T09:52:37Z</time>
      </trkpt>
      <trkpt lat="44.44788" lon="5.91075">
        <ele>934</ele>
        <time>2019-06-15T09:52:38Z</time>
      </trkpt>
      <trkpt lat="44.44783" lon="5.9109">
        <ele>933</ele>
        <time>2019-06-15T09:52:39Z</time>
      </trkpt>
      <trkpt lat="44.44778" lon="5.91105">
        <ele>932</ele>
        <time>2019-06-15T09:52:40Z</time>
      </trkpt>
      <trkpt lat="44.44772" lon="5.9112">
        <ele>931</ele>
        <time>2019-06-15T09:52:41Z</time>
      </trkpt>
      <trkpt lat="44.44766" lon="5.91135">
        <ele>930</ele>
        <time>2019-06-15T09:52:42Z</time>
      </trkpt>
      <trkpt lat="44.44761" lon="5.9115">
        <ele>929</ele>
        <time>2019-06-15T09:52:43Z</time>
      </trkpt>
      <trkpt lat="44.44755" lon="5.91165">
        <ele>928</ele>
        <time>2019-06-15T09:52:44Z</time>
      </trkpt>
      <trkpt lat="44.4475" lon="5.9118">
        <ele>927</ele>
        <time>2019-06-15T09:52:45Z</time>
      </trkpt>
      <trkpt lat="44.44744" lon="5.91196">
        <ele>926</ele>
        <time>2019-06-15T09:52:46Z</time>
      </trkpt>
      <trkpt lat="44.44739" lon="5.91211">
        <ele>925</ele>
        <time>2019-06-15T09:52:47Z</time>
      </trkpt>
      <trkpt lat="44.44733" lon="5.91227">
        <ele>924</ele>
        <time>2019-06-15T09:52:48Z</time>
      </trkpt>
      <trkpt lat="44.44728" lon="5.91242">
        <ele>923</ele>
        <time>2019-06-15T09:52:49Z</time>
      </trkpt>
      <trkpt lat="44.44723" lon="5.91257">
        <ele>922</ele>
        <time>2019-06-15T09:52:50Z</time>
      </trkpt>
      <trkpt lat="44.44718" lon="5.91271">
        <ele>921</ele>
        <time>2019-06-15T09:52:51Z</time>
      </trkpt>
      <trkpt lat="44.44713" lon="5.91284">
        <ele>920</ele>
        <time>2019-06-15T09:52:52Z</time>
      </trkpt>
      <trkpt lat="44.44707" lon="5.91296">
        <ele>919</ele>
        <time>2019-06-15T09:52:53Z</time>
      </trkpt>
      <trkpt lat="44.44701" lon="5.91308">
        <ele>918</ele>
        <time>2019-06-15T09:52:54Z</time>
      </trkpt>
      <trkpt lat="44.44694" lon="5.91319">
        <ele>917</ele>
        <time>2019-06-15T09:52:55Z</time>
      </trkpt>
      <trkpt lat="44.44685" lon="5.91328">
        <ele>916</ele>
        <time>2019-06-15T09:52:56Z</time>
      </trkpt>
      <trkpt lat="44.44676" lon="5.91337">
        <ele>915</ele>
        <time>2019-06-15T09:52:57Z</time>
      </trkpt>
      <trkpt lat="44.44666" lon="5.91343">
        <ele>914</ele>
        <time>2019-06-15T09:52:58Z</time>
      </trkpt>
      <trkpt lat="44.44655" lon="5.91349">
        <ele>913</ele>
        <time>2019-06-15T09:52:59Z</time>
      </trkpt>
      <trkpt lat="44.44644" lon="5.91354">
        <ele>912</ele>
        <time>2019-06-15T09:53:00Z</time>
      </trkpt>
      <trkpt lat="44.44632" lon="5.91358">
        <ele>912</ele>
        <time>2019-06-15T09:53:01Z</time>
      </trkpt>
      <trkpt lat="44.44621" lon="5.91362">
        <ele>911</ele>
        <time>2019-06-15T09:53:02Z</time>
      </trkpt>
      <trkpt lat="44.44609" lon="5.91365">
        <ele>910</ele>
        <time>2019-06-15T09:53:03Z</time>
      </trkpt>
      <trkpt lat="44.44598" lon="5.91369">
        <ele>909</ele>
        <time>2019-06-15T09:53:04Z</time>
      </trkpt>
      <trkpt lat="44.44587" lon="5.91373">
        <ele>909</ele>
        <time>2019-06-15T09:53:05Z</time>
      </trkpt>
      <trkpt lat="44.44576" lon="5.91377">
        <ele>908</ele>
        <time>2019-06-15T09:53:06Z</time>
      </trkpt>
      <trkpt lat="44.44565" lon="5.91382">
        <ele>907</ele>
        <time>2019-06-15T09:53:07Z</time>
      </trkpt>
      <trkpt lat="44.44554" lon="5.91386">
        <ele>906</ele>
        <time>2019-06-15T09:53:08Z</time>
      </trkpt>
      <trkpt lat="44.44543" lon="5.91391">
        <ele>905</ele>
        <time>2019-06-15T09:53:09Z</time>
      </trkpt>
      <trkpt lat="44.44532" lon="5.91395">
        <ele>904</ele>
        <time>2019-06-15T09:53:10Z</time>
      </trkpt>
      <trkpt lat="44.44521" lon="5.91399">
        <ele>904</ele>
        <time>2019-06-15T09:53:11Z</time>
      </trkpt>
      <trkpt lat="44.4451" lon="5.91403">
        <ele>903</ele>
        <time>2019-06-15T09:53:12Z</time>
      </trkpt>
      <trkpt lat="44.44499" lon="5.91407">
        <ele>902</ele>
        <time>2019-06-15T09:53:13Z</time>
      </trkpt>
      <trkpt lat="44.44488" lon="5.9141">
        <ele>901</ele>
        <time>2019-06-15T09:53:14Z</time>
      </trkpt>
      <trkpt lat="44.44477" lon="5.91415">
        <ele>901</ele>
        <time>2019-06-15T09:53:15Z</time>
      </trkpt>
      <trkpt lat="44.44466" lon="5.91419">
        <ele>900</ele>
        <time>2019-06-15T09:53:16Z</time>
      </trkpt>
      <trkpt lat="44.44456" lon="5.91423">
        <ele>899</ele>
        <time>2019-06-15T09:53:17Z</time>
      </trkpt>
      <trkpt lat="44.44446" lon="5.91426">
        <ele>898</ele>
        <time>2019-06-15T09:53:18Z</time>
      </trkpt>
      <trkpt lat="44.44435" lon="5.91428">
        <ele>898</ele>
        <time>2019-06-15T09:53:19Z</time>
      </trkpt>
      <trkpt lat="44.44424" lon="5.91428">
        <ele>897</ele>
        <time>2019-06-15T09:53:20Z</time>
      </trkpt>
      <trkpt lat="44.44414" lon="5.91426">
        <ele>897</ele>
        <time>2019-06-15T09:53:21Z</time>
      </trkpt>
      <trkpt lat="44.44404" lon="5.91423">
        <ele>896</ele>
        <time>2019-06-15T09:53:22Z</time>
      </trkpt>
      <trkpt lat="44.44394" lon="5.91419">
        <ele>895</ele>
        <time>2019-06-15T09:53:23Z</time>
      </trkpt>
      <trkpt lat="44.44384" lon="5.91416">
        <ele>895</ele>
        <time>2019-06-15T09:53:24Z</time>
      </trkpt>
      <trkpt lat="44.44373" lon="5.91412">
        <ele>894</ele>
        <time>2019-06-15T09:53:25Z</time>
      </trkpt>
      <trkpt lat="44.44362" lon="5.91408">
        <ele>893</ele>
        <time>2019-06-15T09:53:26Z</time>
      </trkpt>
      <trkpt lat="44.44351" lon="5.91404">
        <ele>892</ele>
        <time>2019-06-15T09:53:27Z</time>
      </trkpt>
      <trkpt lat="44.4434" lon="5.914">
        <ele>892</ele>
        <time>2019-06-15T09:53:28Z</time>
      </trkpt>
      <trkpt lat="44.44329" lon="5.91396">
        <ele>891</ele>
        <time>2019-06-15T09:53:29Z</time>
      </trkpt>
      <trkpt lat="44.44318" lon="5.91392">
        <ele>890</ele>
        <time>2019-06-15T09:53:30Z</time>
      </trkpt>
      <trkpt lat="44.44307" lon="5.91388">
        <ele>889</ele>
        <time>2019-06-15T09:53:31Z</time>
      </trkpt>
      <trkpt lat="44.44295" lon="5.91383">
        <ele>888</ele>
        <time>2019-06-15T09:53:32Z</time>
      </trkpt>
      <trkpt lat="44.44283" lon="5.91379">
        <ele>887</ele>
        <time>2019-06-15T09:53:33Z</time>
      </trkpt>
      <trkpt lat="44.44271" lon="5.91376">
        <ele>886</ele>
        <time>2019-06-15T09:53:34Z</time>
      </trkpt>
      <trkpt lat="44.44259" lon="5.91371">
        <ele>885</ele>
        <time>2019-06-15T09:53:35Z</time>
      </trkpt>
      <trkpt lat="44.44247" lon="5.91367">
        <ele>884</ele>
        <time>2019-06-15T09:53:36Z</time>
      </trkpt>
      <trkpt lat="44.44236" lon="5.91363">
        <ele>884</ele>
        <time>2019-06-15T09:53:37Z</time>
      </trkpt>
      <trkpt lat="44.44225" lon="5.91359">
        <ele>883</ele>
        <time>2019-06-15T09:53:38Z</time>
      </trkpt>
      <trkpt lat="44.44214" lon="5.91356">
        <ele>882</ele>
        <time>2019-06-15T09:53:39Z</time>
      </trkpt>
      <trkpt lat="44.44203" lon="5.91353">
        <ele>881</ele>
        <time>2019-06-15T09:53:40Z</time>
      </trkpt>
      <trkpt lat="44.44191" lon="5.9135">
        <ele>880</ele>
        <time>2019-06-15T09:53:41Z</time>
      </trkpt>
      <trkpt lat="44.4418" lon="5.91348">
        <ele>879</ele>
        <time>2019-06-15T09:53:42Z</time>
      </trkpt>
      <trkpt lat="44.44169" lon="5.91347">
        <ele>878</ele>
        <time>2019-06-15T09:53:43Z</time>
      </trkpt>
      <trkpt lat="44.44159" lon="5.91345">
        <ele>877</ele>
        <time>2019-06-15T09:53:44Z</time>
      </trkpt>
      <trkpt lat="44.44148" lon="5.91343">
        <ele>877</ele>
        <time>2019-06-15T09:53:45Z</time>
      </trkpt>
      <trkpt lat="44.44138" lon="5.91342">
        <ele>876</ele>
        <time>2019-06-15T09:53:46Z</time>
      </trkpt>
      <trkpt lat="44.44128" lon="5.9134">
        <ele>876</ele>
        <time>2019-06-15T09:53:47Z</time>
      </trkpt>
      <trkpt lat="44.44117" lon="5.9134">
        <ele>875</ele>
        <time>2019-06-15T09:53:48Z</time>
      </trkpt>
      <trkpt lat="44.44106" lon="5.9134">
        <ele>875</ele>
        <time>2019-06-15T09:53:49Z</time>
      </trkpt>
      <trkpt lat="44.44095" lon="5.91341">
        <ele>875</ele>
        <time>2019-06-15T09:53:50Z</time>
      </trkpt>
      <trkpt lat="44.44086" lon="5.91342">
        <ele>875</ele>
        <time>2019-06-15T09:53:51Z</time>
      </trkpt>
      <trkpt lat="44.44077" lon="5.91345">
        <ele>875</ele>
        <time>2019-06-15T09:53:52Z</time>
      </trkpt>
      <trkpt lat="44.44071" lon="5.91352">
        <ele>875</ele>
        <time>2019-06-15T09:53:53Z</time>
      </trkpt>
      <trkpt lat="44.44064" lon="5.91361">
        <ele>875</ele>
        <time>2019-06-15T09:53:54Z</time>
      </trkpt>
      <trkpt lat="44.44059" lon="5.9137">
        <ele>875</ele>
        <time>2019-06-15T09:53:55Z</time>
      </trkpt>
      <trkpt lat="44.44054" lon="5.9138">
        <ele>875</ele>
        <time>2019-06-15T09:53:56Z</time>
      </trkpt>
      <trkpt lat="44.44048" lon="5.9139">
        <ele>874</ele>
        <time>2019-06-15T09:53:57Z</time>
      </trkpt>
      <trkpt lat="44.44042" lon="5.91399">
        <ele>874</ele>
        <time>2019-06-15T09:53:58Z</time>
      </trkpt>
      <trkpt lat="44.44036" lon="5.91408">
        <ele>873</ele>
        <time>2019-06-15T09:53:59Z</time>
      </trkpt>
      <trkpt lat="44.44029" lon="5.91416">
        <ele>872</ele>
        <time>2019-06-15T09:54:00Z</time>
      </trkpt>
      <trkpt lat="44.44022" lon="5.91424">
        <ele>872</ele>
        <time>2019-06-15T09:54:01Z</time>
      </trkpt>
      <trkpt lat="44.44014" lon="5.91432">
        <ele>871</ele>
        <time>2019-06-15T09:54:02Z</time>
      </trkpt>
      <trkpt lat="44.44006" lon="5.91439">
        <ele>871</ele>
        <time>2019-06-15T09:54:03Z</time>
      </trkpt>
      <trkpt lat="44.43998" lon="5.91447">
        <ele>870</ele>
        <time>2019-06-15T09:54:04Z</time>
      </trkpt>
      <trkpt lat="44.43991" lon="5.91456">
        <ele>870</ele>
        <time>2019-06-15T09:54:05Z</time>
      </trkpt>
      <trkpt lat="44.43985" lon="5.91466">
        <ele>869</ele>
        <time>2019-06-15T09:54:06Z</time>
      </trkpt>
      <trkpt lat="44.43978" lon="5.91478">
        <ele>869</ele>
        <time>2019-06-15T09:54:07Z</time>
      </trkpt>
      <trkpt lat="44.43972" lon="5.9149">
        <ele>868</ele>
        <time>2019-06-15T09:54:08Z</time>
      </trkpt>
      <trkpt lat="44.43966" lon="5.91502">
        <ele>868</ele>
        <time>2019-06-15T09:54:09Z</time>
      </trkpt>
      <trkpt lat="44.43961" lon="5.91514">
        <ele>867</ele>
        <time>2019-06-15T09:54:10Z</time>
      </trkpt>
      <trkpt lat="44.43955" lon="5.91527">
        <ele>867</ele>
        <time>2019-06-15T09:54:11Z</time>
      </trkpt>
      <trkpt lat="44.43949" lon="5.9154">
        <ele>866</ele>
        <time>2019-06-15T09:54:12Z</time>
      </trkpt>
      <trkpt lat="44.43943" lon="5.91553">
        <ele>866</ele>
        <time>2019-06-15T09:54:13Z</time>
      </trkpt>
      <trkpt lat="44.43938" lon="5.91565">
        <ele>865</ele>
        <time>2019-06-15T09:54:14Z</time>
      </trkpt>
      <trkpt lat="44.43932" lon="5.91578">
        <ele>865</ele>
        <time>2019-06-15T09:54:15Z</time>
      </trkpt>
      <trkpt lat="44.43925" lon="5.9159">
        <ele>864</ele>
        <time>2019-06-15T09:54:16Z</time>
      </trkpt>
      <trkpt lat="44.43919" lon="5.91603">
        <ele>863</ele>
        <time>2019-06-15T09:54:17Z</time>
      </trkpt>
      <trkpt lat="44.43912" lon="5.91614">
        <ele>863</ele>
        <time>2019-06-15T09:54:18Z</time>
      </trkpt>
      <trkpt lat="44.43905" lon="5.91625">
        <ele>862</ele>
        <time>2019-06-15T09:54:19Z</time>
      </trkpt>
      <trkpt lat="44.43897" lon="5.91634">
        <ele>861</ele>
        <time>2019-06-15T09:54:20Z</time>
      </trkpt>
      <trkpt lat="44.43889" lon="5.91643">
        <ele>860</ele>
        <time>2019-06-15T09:54:21Z</time>
      </trkpt>
      <trkpt lat="44.4388" lon="5.91651">
        <ele>859</ele>
        <time>2019-06-15T09:54:22Z</time>
      </trkpt>
      <trkpt lat="44.43871" lon="5.91659">
        <ele>858</ele>
        <time>2019-06-15T09:54:23Z</time>
      </trkpt>
      <trkpt lat="44.43862" lon="5.91667">
        <ele>857</ele>
        <time>2019-06-15T09:54:24Z</time>
      </trkpt>
      <trkpt lat="44.43853" lon="5.91675">
        <ele>856</ele>
        <time>2019-06-15T09:54:25Z</time>
      </trkpt>
      <trkpt lat="44.43844" lon="5.91683">
        <ele>856</ele>
        <time>2019-06-15T09:54:26Z</time>
      </trkpt>
      <trkpt lat="44.43835" lon="5.91691">
        <ele>855</ele>
        <time>2019-06-15T09:54:27Z</time>
      </trkpt>
      <trkpt lat="44.43826" lon="5.91699">
        <ele>854</ele>
        <time>2019-06-15T09:54:28Z</time>
      </trkpt>
      <trkpt lat="44.43817" lon="5.91707">
        <ele>854</ele>
        <time>2019-06-15T09:54:29Z</time>
      </trkpt>
      <trkpt lat="44.43809" lon="5.91714">
        <ele>853</ele>
        <time>2019-06-15T09:54:30Z</time>
      </trkpt>
      <trkpt lat="44.438" lon="5.91722">
        <ele>853</ele>
        <time>2019-06-15T09:54:31Z</time>
      </trkpt>
      <trkpt lat="44.43792" lon="5.9173">
        <ele>852</ele>
        <time>2019-06-15T09:54:32Z</time>
      </trkpt>
      <trkpt lat="44.43783" lon="5.91738">
        <ele>852</ele>
        <time>2019-06-15T09:54:33Z</time>
      </trkpt>
      <trkpt lat="44.43774" lon="5.91745">
        <ele>851</ele>
        <time>2019-06-15T09:54:34Z</time>
      </trkpt>
      <trkpt lat="44.43765" lon="5.91751">
        <ele>851</ele>
        <time>2019-06-15T09:54:35Z</time>
      </trkpt>
      <trkpt lat="44.43756" lon="5.91756">
        <ele>851</ele>
        <time>2019-06-15T09:54:36Z</time>
      </trkpt>
      <trkpt lat="44.43748" lon="5.9176">
        <ele>850</ele>
        <time>2019-06-15T09:54:37Z</time>
      </trkpt>
      <trkpt lat="44.43739" lon="5.91763">
        <ele>850</ele>
        <time>2019-06-15T09:54:38Z</time>
      </trkpt>
      <trkpt lat="44.43732" lon="5.91766">
        <ele>849</ele>
        <time>2019-06-15T09:54:39Z</time>
      </trkpt>
      <trkpt lat="44.43725" lon="5.91768">
        <ele>849</ele>
        <time>2019-06-15T09:54:40Z</time>
      </trkpt>
      <trkpt lat="44.43719" lon="5.91767">
        <ele>849</ele>
        <time>2019-06-15T09:54:41Z</time>
      </trkpt>
      <trkpt lat="44.43714" lon="5.91763">
        <ele>848</ele>
        <time>2019-06-15T09:54:42Z</time>
      </trkpt>
      <trkpt lat="44.43709" lon="5.91757">
        <ele>848</ele>
        <time>2019-06-15T09:54:43Z</time>
      </trkpt>
      <trkpt lat="44.43709" lon="5.91746">
        <ele>848</ele>
        <time>2019-06-15T09:54:44Z</time>
      </trkpt>
      <trkpt lat="44.43708" lon="5.91737">
        <ele>848</ele>
        <time>2019-06-15T09:54:45Z</time>
      </trkpt>
      <trkpt lat="44.43707" lon="5.91728">
        <ele>848</ele>
        <time>2019-06-15T09:54:46Z</time>
      </trkpt>
      <trkpt lat="44.43705" lon="5.91719">
        <ele>848</ele>
        <time>2019-06-15T09:54:47Z</time>
      </trkpt>
      <trkpt lat="44.43703" lon="5.91711">
        <ele>848</ele>
        <time>2019-06-15T09:54:48Z</time>
      </trkpt>
      <trkpt lat="44.43699" lon="5.91707">
        <ele>848</ele>
        <time>2019-06-15T09:54:49Z</time>
      </trkpt>
      <trkpt lat="44.43693" lon="5.91706">
        <ele>847</ele>
        <time>2019-06-15T09:54:50Z</time>
      </trkpt>
      <trkpt lat="44.43688" lon="5.91711">
        <ele>847</ele>
        <time>2019-06-15T09:54:51Z</time>
      </trkpt>
      <trkpt lat="44.43682" lon="5.91718">
        <ele>847</ele>
        <time>2019-06-15T09:54:52Z</time>
      </trkpt>
      <trkpt lat="44.43676" lon="5.91726">
        <ele>847</ele>
        <time>2019-06-15T09:54:53Z</time>
      </trkpt>
      <trkpt lat="44.43671" lon="5.91734">
        <ele>847</ele>
        <time>2019-06-15T09:54:54Z</time>
      </trkpt>
      <trkpt lat="44.43666" lon="5.91743">
        <ele>847</ele>
        <time>2019-06-15T09:54:55Z</time>
      </trkpt>
      <trkpt lat="44.43662" lon="5.91752">
        <ele>846</ele>
        <time>2019-06-15T09:54:56Z</time>
      </trkpt>
      <trkpt lat="44.43658" lon="5.91761">
        <ele>845</ele>
        <time>2019-06-15T09:54:57Z</time>
      </trkpt>
      <trkpt lat="44.43655" lon="5.91771">
        <ele>845</ele>
        <time>2019-06-15T09:54:58Z</time>
      </trkpt>
      <trkpt lat="44.43652" lon="5.9178">
        <ele>845</ele>
        <time>2019-06-15T09:54:59Z</time>
      </trkpt>
      <trkpt lat="44.4365" lon="5.91789">
        <ele>845</ele>
        <time>2019-06-15T09:55:00Z</time>
      </trkpt>
      <trkpt lat="44.43648" lon="5.91797">
        <ele>845</ele>
        <time>2019-06-15T09:55:01Z</time>
      </trkpt>
      <trkpt lat="44.43646" lon="5.91804">
        <ele>845</ele>
        <time>2019-06-15T09:55:02Z</time>
      </trkpt>
      <trkpt lat="44.43645" lon="5.91809">
        <ele>844</ele>
        <time>2019-06-15T09:55:03Z</time>
      </trkpt>
      <trkpt lat="44.43642" lon="5.91811">
        <ele>844</ele>
        <time>2019-06-15T09:55:04Z</time>
      </trkpt>
      <trkpt lat="44.43639" lon="5.9181">
        <ele>844</ele>
        <time>2019-06-15T09:55:05Z</time>
      </trkpt>
      <trkpt lat="44.43634" lon="5.91811">
        <ele>843</ele>
        <time>2019-06-15T09:55:06Z</time>
      </trkpt>
      <trkpt lat="44.43626" lon="5.91812">
        <ele>843</ele>
        <time>2019-06-15T09:55:07Z</time>
      </trkpt>
      <trkpt lat="44.43617" lon="5.91817">
        <ele>843</ele>
        <time>2019-06-15T09:55:08Z</time>
      </trkpt>
      <trkpt lat="44.43609" lon="5.91819">
        <ele>843</ele>
        <time>2019-06-15T09:55:09Z</time>
      </trkpt>
      <trkpt lat="44.43601" lon="5.91819">
        <ele>843</ele>
        <time>2019-06-15T09:55:10Z</time>
      </trkpt>
      <trkpt lat="44.43594" lon="5.91818">
        <ele>843</ele>
        <time>2019-06-15T09:55:11Z</time>
      </trkpt>
      <trkpt lat="44.43586" lon="5.91817">
        <ele>842</ele>
        <time>2019-06-15T09:55:12Z</time>
      </trkpt>
      <trkpt lat="44.43579" lon="5.91815">
        <ele>842</ele>
        <time>2019-06-15T09:55:13Z</time>
      </trkpt>
      <trkpt lat="44.43572" lon="5.91813">
        <ele>842</ele>
        <time>2019-06-15T09:55:14Z</time>
      </trkpt>
      <trkpt lat="44.43565" lon="5.9181">
        <ele>842</ele>
        <time>2019-06-15T09:55:15Z</time>
      </trkpt>
      <trkpt lat="44.43559" lon="5.91804">
        <ele>842</ele>
        <time>2019-06-15T09:55:16Z</time>
      </trkpt>
      <trkpt lat="44.43552" lon="5.91802">
        <ele>842</ele>
        <time>2019-06-15T09:55:17Z</time>
      </trkpt>
      <trkpt lat="44.43547" lon="5.91797">
        <ele>842</ele>
        <time>2019-06-15T09:55:18Z</time>
      </trkpt>
      <trkpt lat="44.43543" lon="5.91793">
        <ele>842</ele>
        <time>2019-06-15T09:55:19Z</time>
      </trkpt>
      <trkpt lat="44.43539" lon="5.9179">
        <ele>842</ele>
        <time>2019-06-15T09:55:20Z</time>
      </trkpt>
      <trkpt lat="44.43533" lon="5.91789">
        <ele>841</ele>
        <time>2019-06-15T09:55:21Z</time>
      </trkpt>
      <trkpt lat="44.43529" lon="5.91788">
        <ele>841</ele>
        <time>2019-06-15T09:55:22Z</time>
      </trkpt>
      <trkpt lat="44.43525" lon="5.91791">
        <ele>841</ele>
        <time>2019-06-15T09:55:23Z</time>
      </trkpt>
      <trkpt lat="44.43523" lon="5.918">
        <ele>841</ele>
        <time>2019-06-15T09:55:24Z</time>
      </trkpt>
      <trkpt lat="44.43522" lon="5.91811">
        <ele>841</ele>
        <time>2019-06-15T09:55:25Z</time>
      </trkpt>
      <trkpt lat="44.43522" lon="5.9182">
        <ele>840</ele>
        <time>2019-06-15T09:55:26Z</time>
      </trkpt>
      <trkpt lat="44.43522" lon="5.91829">
        <ele>840</ele>
        <time>2019-06-15T09:55:27Z</time>
      </trkpt>
      <trkpt lat="44.43522" lon="5.91838">
        <ele>840</ele>
        <time>2019-06-15T09:55:28Z</time>
      </trkpt>
      <trkpt lat="44.43522" lon="5.91845">
        <ele>839</ele>
        <time>2019-06-15T09:55:29Z</time>
      </trkpt>
      <trkpt lat="44.43524" lon="5.91852">
        <ele>839</ele>
        <time>2019-06-15T09:55:30Z</time>
      </trkpt>
      <trkpt lat="44.43524" lon="5.91858">
        <ele>839</ele>
        <time>2019-06-15T09:55:31Z</time>
      </trkpt>
      <trkpt lat="44.43522" lon="5.91861">
        <ele>839</ele>
        <time>2019-06-15T09:55:32Z</time>
      </trkpt>
      <trkpt lat="44.43515" lon="5.91861">
        <ele>839</ele>
        <time>2019-06-15T09:55:34Z</time>
      </trkpt>
      <trkpt lat="44.43511" lon="5.91859">
        <ele>839</ele>
        <time>2019-06-15T09:55:35Z</time>
      </trkpt>
      <trkpt lat="44.43507" lon="5.9186">
        <ele>839</ele>
        <time>2019-06-15T09:55:36Z</time>
      </trkpt>
      <trkpt lat="44.43501" lon="5.91863">
        <ele>839</ele>
        <time>2019-06-15T09:55:37Z</time>
      </trkpt>
      <trkpt lat="44.43496" lon="5.91865">
        <ele>839</ele>
        <time>2019-06-15T09:55:38Z</time>
      </trkpt>
      <trkpt lat="44.43491" lon="5.91868">
        <ele>840</ele>
        <time>2019-06-15T09:55:39Z</time>
      </trkpt>
      <trkpt lat="44.43485" lon="5.91871">
        <ele>840</ele>
        <time>2019-06-15T09:55:40Z</time>
      </trkpt>
      <trkpt lat="44.43479" lon="5.91877">
        <ele>840</ele>
        <time>2019-06-15T09:55:41Z</time>
      </trkpt>
      <trkpt lat="44.43473" lon="5.91885">
        <ele>840</ele>
        <time>2019-06-15T09:55:42Z</time>
      </trkpt>
      <trkpt lat="44.43468" lon="5.91895">
        <ele>840</ele>
        <time>2019-06-15T09:55:43Z</time>
      </trkpt>
      <trkpt lat="44.43465" lon="5.91906">
        <ele>840</ele>
        <time>2019-06-15T09:55:44Z</time>
      </trkpt>
      <trkpt lat="44.43462" lon="5.91916">
        <ele>840</ele>
        <time>2019-06-15T09:55:45Z</time>
      </trkpt>
      <trkpt lat="44.43459" lon="5.91923">
        <ele>840</ele>
        <time>2019-06-15T09:55:46Z</time>
      </trkpt>
      <trkpt lat="44.43455" lon="5.9193">
        <ele>840</ele>
        <time>2019-06-15T09:55:47Z</time>
      </trkpt>
      <trkpt lat="44.4345" lon="5.91936">
        <ele>839</ele>
        <time>2019-06-15T09:55:48Z</time>
      </trkpt>
      <trkpt lat="44.43443" lon="5.9194">
        <ele>838</ele>
        <time>2019-06-15T09:55:49Z</time>
      </trkpt>
      <trkpt lat="44.43436" lon="5.91942">
        <ele>837</ele>
        <time>2019-06-15T09:55:50Z</time>
      </trkpt>
      <trkpt lat="44.43429" lon="5.91944">
        <ele>836</ele>
        <time>2019-06-15T09:55:51Z</time>
      </trkpt>
      <trkpt lat="44.43421" lon="5.91947">
        <ele>835</ele>
        <time>2019-06-15T09:55:52Z</time>
      </trkpt>
      <trkpt lat="44.43413" lon="5.91952">
        <ele>834</ele>
        <time>2019-06-15T09:55:53Z</time>
      </trkpt>
      <trkpt lat="44.43405" lon="5.91956">
        <ele>833</ele>
        <time>2019-06-15T09:55:54Z</time>
      </trkpt>
      <trkpt lat="44.43397" lon="5.91961">
        <ele>832</ele>
        <time>2019-06-15T09:55:55Z</time>
      </trkpt>
      <trkpt lat="44.43389" lon="5.91965">
        <ele>831</ele>
        <time>2019-06-15T09:55:56Z</time>
      </trkpt>
      <trkpt lat="44.43383" lon="5.91969">
        <ele>830</ele>
        <time>2019-06-15T09:55:57Z</time>
      </trkpt>
      <trkpt lat="44.43376" lon="5.91971">
        <ele>829</ele>
        <time>2019-06-15T09:55:58Z</time>
      </trkpt>
      <trkpt lat="44.43369" lon="5.91971">
        <ele>828</ele>
        <time>2019-06-15T09:55:59Z</time>
      </trkpt>
      <trkpt lat="44.43362" lon="5.91969">
        <ele>827</ele>
        <time>2019-06-15T09:56:00Z</time>
      </trkpt>
      <trkpt lat="44.43355" lon="5.91964">
        <ele>826</ele>
        <time>2019-06-15T09:56:01Z</time>
      </trkpt>
      <trkpt lat="44.4335" lon="5.91959">
        <ele>826</ele>
        <time>2019-06-15T09:56:02Z</time>
      </trkpt>
      <trkpt lat="44.43343" lon="5.91953">
        <ele>826</ele>
        <time>2019-06-15T09:56:03Z</time>
      </trkpt>
      <trkpt lat="44.43337" lon="5.91948">
        <ele>825</ele>
        <time>2019-06-15T09:56:04Z</time>
      </trkpt>
      <trkpt lat="44.43331" lon="5.91945">
        <ele>825</ele>
        <time>2019-06-15T09:56:05Z</time>
      </trkpt>
      <trkpt lat="44.43325" lon="5.91945">
        <ele>825</ele>
        <time>2019-06-15T09:56:06Z</time>
      </trkpt>
      <trkpt lat="44.43318" lon="5.91949">
        <ele>824</ele>
        <time>2019-06-15T09:56:07Z</time>
      </trkpt>
      <trkpt lat="44.43311" lon="5.91956">
        <ele>824</ele>
        <time>2019-06-15T09:56:08Z</time>
      </trkpt>
      <trkpt lat="44.43305" lon="5.91963">
        <ele>824</ele>
        <time>2019-06-15T09:56:09Z</time>
      </trkpt>
      <trkpt lat="44.433" lon="5.91971">
        <ele>824</ele>
        <time>2019-06-15T09:56:10Z</time>
      </trkpt>
      <trkpt lat="44.43295" lon="5.91979">
        <ele>824</ele>
        <time>2019-06-15T09:56:11Z</time>
      </trkpt>
      <trkpt lat="44.4329" lon="5.91986">
        <ele>824</ele>
        <time>2019-06-15T09:56:12Z</time>
      </trkpt>
      <trkpt lat="44.43286" lon="5.91993">
        <ele>823</ele>
        <time>2019-06-15T09:56:13Z</time>
      </trkpt>
      <trkpt lat="44.43282" lon="5.92">
        <ele>823</ele>
        <time>2019-06-15T09:56:14Z</time>
      </trkpt>
      <trkpt lat="44.43279" lon="5.92008">
        <ele>823</ele>
        <time>2019-06-15T09:56:15Z</time>
      </trkpt>
      <trkpt lat="44.43275" lon="5.92015">
        <ele>823</ele>
        <time>2019-06-15T09:56:16Z</time>
      </trkpt>
      <trkpt lat="44.43271" lon="5.92023">
        <ele>823</ele>
        <time>2019-06-15T09:56:17Z</time>
      </trkpt>
      <trkpt lat="44.43266" lon="5.9203">
        <ele>823</ele>
        <time>2019-06-15T09:56:18Z</time>
      </trkpt>
      <trkpt lat="44.43262" lon="5.92037">
        <ele>822</ele>
        <time>2019-06-15T09:56:19Z</time>
      </trkpt>
      <trkpt lat="44.43256" lon="5.92044">
        <ele>822</ele>
        <time>2019-06-15T09:56:20Z</time>
      </trkpt>
      <trkpt lat="44.43251" lon="5.92051">
        <ele>821</ele>
        <time>2019-06-15T09:56:21Z</time>
      </trkpt>
      <trkpt lat="44.43245" lon="5.92058">
        <ele>820</ele>
        <time>2019-06-15T09:56:22Z</time>
      </trkpt>
      <trkpt lat="44.43241" lon="5.92066">
        <ele>819</ele>
        <time>2019-06-15T09:56:23Z</time>
      </trkpt>
      <trkpt lat="44.43235" lon="5.92073">
        <ele>818</ele>
        <time>2019-06-15T09:56:24Z</time>
      </trkpt>
      <trkpt lat="44.4323" lon="5.92081">
        <ele>817</ele>
        <time>2019-06-15T09:56:25Z</time>
      </trkpt>
      <trkpt lat="44.43225" lon="5.92089">
        <ele>816</ele>
        <time>2019-06-15T09:56:26Z</time>
      </trkpt>
      <trkpt lat="44.43221" lon="5.92097">
        <ele>815</ele>
        <time>2019-06-15T09:56:27Z</time>
      </trkpt>
      <trkpt lat="44.43216" lon="5.92105">
        <ele>815</ele>
        <time>2019-06-15T09:56:28Z</time>
      </trkpt>
      <trkpt lat="44.43211" lon="5.92113">
        <ele>815</ele>
        <time>2019-06-15T09:56:29Z</time>
      </trkpt>
      <trkpt lat="44.43205" lon="5.92119">
        <ele>815</ele>
        <time>2019-06-15T09:56:30Z</time>
      </trkpt>
      <trkpt lat="44.432" lon="5.92126">
        <ele>815</ele>
        <time>2019-06-15T09:56:31Z</time>
      </trkpt>
      <trkpt lat="44.43195" lon="5.92131">
        <ele>815</ele>
        <time>2019-06-15T09:56:32Z</time>
      </trkpt>
      <trkpt lat="44.43189" lon="5.92137">
        <ele>815</ele>
        <time>2019-06-15T09:56:33Z</time>
      </trkpt>
      <trkpt lat="44.43183" lon="5.92141">
        <ele>815</ele>
        <time>2019-06-15T09:56:34Z</time>
      </trkpt>
      <trkpt lat="44.43177" lon="5.92146">
        <ele>815</ele>
        <time>2019-06-15T09:56:35Z</time>
      </trkpt>
      <trkpt lat="44.43171" lon="5.92149">
        <ele>815</ele>
        <time>2019-06-15T09:56:36Z</time>
      </trkpt>
      <trkpt lat="44.43165" lon="5.92151">
        <ele>815</ele>
        <time>2019-06-15T09:56:37Z</time>
      </trkpt>
      <trkpt lat="44.43158" lon="5.92153">
        <ele>815</ele>
        <time>2019-06-15T09:56:38Z</time>
      </trkpt>
      <trkpt lat="44.43151" lon="5.92155">
        <ele>815</ele>
        <time>2019-06-15T09:56:39Z</time>
      </trkpt>
      <trkpt lat="44.43145" lon="5.92156">
        <ele>815</ele>
        <time>2019-06-15T09:56:40Z</time>
      </trkpt>
      <trkpt lat="44.43138" lon="5.92156">
        <ele>815</ele>
        <time>2019-06-15T09:56:41Z</time>
      </trkpt>
      <trkpt lat="44.43131" lon="5.92154">
        <ele>815</ele>
        <time>2019-06-15T09:56:42Z</time>
      </trkpt>
      <trkpt lat="44.43124" lon="5.92151">
        <ele>815</ele>
        <time>2019-06-15T09:56:43Z</time>
      </trkpt>
      <trkpt lat="44.43118" lon="5.92147">
        <ele>815</ele>
        <time>2019-06-15T09:56:44Z</time>
      </trkpt>
      <trkpt lat="44.43111" lon="5.92143">
        <ele>815</ele>
        <time>2019-06-15T09:56:45Z</time>
      </trkpt>
      <trkpt lat="44.43104" lon="5.9214">
        <ele>815</ele>
        <time>2019-06-15T09:56:46Z</time>
      </trkpt>
      <trkpt lat="44.43097" lon="5.92137">
        <ele>815</ele>
        <time>2019-06-15T09:56:47Z</time>
      </trkpt>
      <trkpt lat="44.4309" lon="5.92135">
        <ele>815</ele>
        <time>2019-06-15T09:56:48Z</time>
      </trkpt>
      <trkpt lat="44.43083" lon="5.92134">
        <ele>815</ele>
        <time>2019-06-15T09:56:49Z</time>
      </trkpt>
      <trkpt lat="44.43076" lon="5.92134">
        <ele>815</ele>
        <time>2019-06-15T09:56:50Z</time>
      </trkpt>
      <trkpt lat="44.43069" lon="5.92134">
        <ele>814</ele>
        <time>2019-06-15T09:56:51Z</time>
      </trkpt>
      <trkpt lat="44.43061" lon="5.92135">
        <ele>814</ele>
        <time>2019-06-15T09:56:52Z</time>
      </trkpt>
      <trkpt lat="44.43053" lon="5.92137">
        <ele>813</ele>
        <time>2019-06-15T09:56:53Z</time>
      </trkpt>
      <trkpt lat="44.43046" lon="5.92139">
        <ele>813</ele>
        <time>2019-06-15T09:56:54Z</time>
      </trkpt>
      <trkpt lat="44.43039" lon="5.92141">
        <ele>813</ele>
        <time>2019-06-15T09:56:55Z</time>
      </trkpt>
      <trkpt lat="44.43032" lon="5.92143">
        <ele>812</ele>
        <time>2019-06-15T09:56:56Z</time>
      </trkpt>
      <trkpt lat="44.43024" lon="5.92144">
        <ele>812</ele>
        <time>2019-06-15T09:56:57Z</time>
      </trkpt>
      <trkpt lat="44.43017" lon="5.92145">
        <ele>811</ele>
        <time>2019-06-15T09:56:58Z</time>
      </trkpt>
      <trkpt lat="44.43009" lon="5.92146">
        <ele>811</ele>
        <time>2019-06-15T09:56:59Z</time>
      </trkpt>
      <trkpt lat="44.43002" lon="5.92147">
        <ele>810</ele>
        <time>2019-06-15T09:57:00Z</time>
      </trkpt>
      <trkpt lat="44.42994" lon="5.92148">
        <ele>809</ele>
        <time>2019-06-15T09:57:01Z</time>
      </trkpt>
      <trkpt lat="44.42987" lon="5.92149">
        <ele>808</ele>
        <time>2019-06-15T09:57:02Z</time>
      </trkpt>
      <trkpt lat="44.42979" lon="5.92151">
        <ele>808</ele>
        <time>2019-06-15T09:57:03Z</time>
      </trkpt>
      <trkpt lat="44.42972" lon="5.92151">
        <ele>808</ele>
        <time>2019-06-15T09:57:04Z</time>
      </trkpt>
      <trkpt lat="44.42965" lon="5.92152">
        <ele>808</ele>
        <time>2019-06-15T09:57:05Z</time>
      </trkpt>
      <trkpt lat="44.42956" lon="5.92152">
        <ele>808</ele>
        <time>2019-06-15T09:57:06Z</time>
      </trkpt>
      <trkpt lat="44.42947" lon="5.92154">
        <ele>808</ele>
        <time>2019-06-15T09:57:07Z</time>
      </trkpt>
      <trkpt lat="44.42939" lon="5.92156">
        <ele>808</ele>
        <time>2019-06-15T09:57:08Z</time>
      </trkpt>
      <trkpt lat="44.42931" lon="5.92159">
        <ele>808</ele>
        <time>2019-06-15T09:57:09Z</time>
      </trkpt>
      <trkpt lat="44.42924" lon="5.92164">
        <ele>808</ele>
        <time>2019-06-15T09:57:10Z</time>
      </trkpt>
      <trkpt lat="44.42916" lon="5.92167">
        <ele>807</ele>
        <time>2019-06-15T09:57:11Z</time>
      </trkpt>
      <trkpt lat="44.4291" lon="5.92171">
        <ele>806</ele>
        <time>2019-06-15T09:57:12Z</time>
      </trkpt>
      <trkpt lat="44.42901" lon="5.92174">
        <ele>805</ele>
        <time>2019-06-15T09:57:13Z</time>
      </trkpt>
      <trkpt lat="44.42894" lon="5.92179">
        <ele>804</ele>
        <time>2019-06-15T09:57:14Z</time>
      </trkpt>
      <trkpt lat="44.42889" lon="5.92186">
        <ele>803</ele>
        <time>2019-06-15T09:57:15Z</time>
      </trkpt>
      <trkpt lat="44.42884" lon="5.92194">
        <ele>803</ele>
        <time>2019-06-15T09:57:16Z</time>
      </trkpt>
      <trkpt lat="44.42879" lon="5.92201">
        <ele>803</ele>
        <time>2019-06-15T09:57:17Z</time>
      </trkpt>
      <trkpt lat="44.42874" lon="5.92209">
        <ele>803</ele>
        <time>2019-06-15T09:57:18Z</time>
      </trkpt>
      <trkpt lat="44.42869" lon="5.92217">
        <ele>802</ele>
        <time>2019-06-15T09:57:19Z</time>
      </trkpt>
      <trkpt lat="44.42863" lon="5.92225">
        <ele>801</ele>
        <time>2019-06-15T09:57:20Z</time>
      </trkpt>
      <trkpt lat="44.42856" lon="5.92233">
        <ele>800</ele>
        <time>2019-06-15T09:57:21Z</time>
      </trkpt>
      <trkpt lat="44.42849" lon="5.92241">
        <ele>799</ele>
        <time>2019-06-15T09:57:22Z</time>
      </trkpt>
      <trkpt lat="44.42842" lon="5.9225">
        <ele>798</ele>
        <time>2019-06-15T09:57:23Z</time>
      </trkpt>
      <trkpt lat="44.42836" lon="5.92259">
        <ele>797</ele>
        <time>2019-06-15T09:57:24Z</time>
      </trkpt>
      <trkpt lat="44.42829" lon="5.92268">
        <ele>796</ele>
        <time>2019-06-15T09:57:25Z</time>
      </trkpt>
      <trkpt lat="44.42823" lon="5.92277">
        <ele>795</ele>
        <time>2019-06-15T09:57:26Z</time>
      </trkpt>
      <trkpt lat="44.42817" lon="5.92287">
        <ele>795</ele>
        <time>2019-06-15T09:57:27Z</time>
      </trkpt>
      <trkpt lat="44.42809" lon="5.92297">
        <ele>794</ele>
        <time>2019-06-15T09:57:28Z</time>
      </trkpt>
      <trkpt lat="44.42802" lon="5.92308">
        <ele>793</ele>
        <time>2019-06-15T09:57:29Z</time>
      </trkpt>
      <trkpt lat="44.42795" lon="5.92318">
        <ele>792</ele>
        <time>2019-06-15T09:57:30Z</time>
      </trkpt>
      <trkpt lat="44.42788" lon="5.92329">
        <ele>791</ele>
        <time>2019-06-15T09:57:31Z</time>
      </trkpt>
      <trkpt lat="44.4278" lon="5.92339">
        <ele>791</ele>
        <time>2019-06-15T09:57:32Z</time>
      </trkpt>
      <trkpt lat="44.42773" lon="5.9235">
        <ele>790</ele>
        <time>2019-06-15T09:57:33Z</time>
      </trkpt>
      <trkpt lat="44.42765" lon="5.92361">
        <ele>790</ele>
        <time>2019-06-15T09:57:34Z</time>
      </trkpt>
      <trkpt lat="44.42758" lon="5.92372">
        <ele>790</ele>
        <time>2019-06-15T09:57:35Z</time>
      </trkpt>
      <trkpt lat="44.42751" lon="5.92383">
        <ele>789</ele>
        <time>2019-06-15T09:57:36Z</time>
      </trkpt>
      <trkpt lat="44.42744" lon="5.92394">
        <ele>789</ele>
        <time>2019-06-15T09:57:37Z</time>
      </trkpt>
      <trkpt lat="44.42737" lon="5.92406">
        <ele>788</ele>
        <time>2019-06-15T09:57:38Z</time>
      </trkpt>
      <trkpt lat="44.42731" lon="5.92417">
        <ele>788</ele>
        <time>2019-06-15T09:57:39Z</time>
      </trkpt>
      <trkpt lat="44.42725" lon="5.92428">
        <ele>787</ele>
        <time>2019-06-15T09:57:40Z</time>
      </trkpt>
      <trkpt lat="44.42719" lon="5.9244">
        <ele>787</ele>
        <time>2019-06-15T09:57:41Z</time>
      </trkpt>
      <trkpt lat="44.42713" lon="5.92453">
        <ele>786</ele>
        <time>2019-06-15T09:57:42Z</time>
      </trkpt>
      <trkpt lat="44.42708" lon="5.92466">
        <ele>786</ele>
        <time>2019-06-15T09:57:43Z</time>
      </trkpt>
      <trkpt lat="44.42704" lon="5.92481">
        <ele>785</ele>
        <time>2019-06-15T09:57:44Z</time>
      </trkpt>
      <trkpt lat="44.42699" lon="5.92495">
        <ele>785</ele>
        <time>2019-06-15T09:57:45Z</time>
      </trkpt>
      <trkpt lat="44.42696" lon="5.92511">
        <ele>784</ele>
        <time>2019-06-15T09:57:46Z</time>
      </trkpt>
      <trkpt lat="44.42691" lon="5.92526">
        <ele>783</ele>
        <time>2019-06-15T09:57:47Z</time>
      </trkpt>
      <trkpt lat="44.42687" lon="5.92542">
        <ele>782</ele>
        <time>2019-06-15T09:57:48Z</time>
      </trkpt>
      <trkpt lat="44.42683" lon="5.92559">
        <ele>782</ele>
        <time>2019-06-15T09:57:49Z</time>
      </trkpt>
      <trkpt lat="44.42678" lon="5.92575">
        <ele>781</ele>
        <time>2019-06-15T09:57:50Z</time>
      </trkpt>
      <trkpt lat="44.42673" lon="5.9259">
        <ele>781</ele>
        <time>2019-06-15T09:57:51Z</time>
      </trkpt>
      <trkpt lat="44.42667" lon="5.92605">
        <ele>780</ele>
        <time>2019-06-15T09:57:52Z</time>
      </trkpt>
      <trkpt lat="44.42661" lon="5.92619">
        <ele>780</ele>
        <time>2019-06-15T09:57:53Z</time>
      </trkpt>
      <trkpt lat="44.42654" lon="5.92632">
        <ele>780</ele>
        <time>2019-06-15T09:57:54Z</time>
      </trkpt>
      <trkpt lat="44.42647" lon="5.92645">
        <ele>779</ele>
        <time>2019-06-15T09:57:55Z</time>
      </trkpt>
      <trkpt lat="44.42641" lon="5.92659">
        <ele>779</ele>
        <time>2019-06-15T09:57:56Z</time>
      </trkpt>
      <trkpt lat="44.42636" lon="5.92673">
        <ele>778</ele>
        <time>2019-06-15T09:57:57Z</time>
      </trkpt>
      <trkpt lat="44.42631" lon="5.92688">
        <ele>777</ele>
        <time>2019-06-15T09:57:58Z</time>
      </trkpt>
      <trkpt lat="44.42627" lon="5.92703">
        <ele>777</ele>
        <time>2019-06-15T09:57:59Z</time>
      </trkpt>
      <trkpt lat="44.42624" lon="5.92719">
        <ele>776</ele>
        <time>2019-06-15T09:58:00Z</time>
      </trkpt>
      <trkpt lat="44.42621" lon="5.92736">
        <ele>776</ele>
        <time>2019-06-15T09:58:01Z</time>
      </trkpt>
      <trkpt lat="44.42617" lon="5.92752">
        <ele>776</ele>
        <time>2019-06-15T09:58:02Z</time>
      </trkpt>
      <trkpt lat="44.42614" lon="5.92767">
        <ele>775</ele>
        <time>2019-06-15T09:58:03Z</time>
      </trkpt>
      <trkpt lat="44.42612" lon="5.92783">
        <ele>775</ele>
        <time>2019-06-15T09:58:04Z</time>
      </trkpt>
      <trkpt lat="44.42609" lon="5.92799">
        <ele>774</ele>
        <time>2019-06-15T09:58:05Z</time>
      </trkpt>
      <trkpt lat="44.42606" lon="5.92815">
        <ele>774</ele>
        <time>2019-06-15T09:58:06Z</time>
      </trkpt>
      <trkpt lat="44.42604" lon="5.92832">
        <ele>773</ele>
        <time>2019-06-15T09:58:07Z</time>
      </trkpt>
      <trkpt lat="44.42601" lon="5.92849">
        <ele>772</ele>
        <time>2019-06-15T09:58:08Z</time>
      </trkpt>
      <trkpt lat="44.42599" lon="5.92865">
        <ele>771</ele>
        <time>2019-06-15T09:58:09Z</time>
      </trkpt>
      <trkpt lat="44.42597" lon="5.92881">
        <ele>770</ele>
        <time>2019-06-15T09:58:10Z</time>
      </trkpt>
      <trkpt lat="44.42595" lon="5.92897">
        <ele>769</ele>
        <time>2019-06-15T09:58:11Z</time>
      </trkpt>
      <trkpt lat="44.42592" lon="5.92912">
        <ele>768</ele>
        <time>2019-06-15T09:58:12Z</time>
      </trkpt>
      <trkpt lat="44.42589" lon="5.92929">
        <ele>768</ele>
        <time>2019-06-15T09:58:13Z</time>
      </trkpt>
      <trkpt lat="44.42586" lon="5.92946">
        <ele>767</ele>
        <time>2019-06-15T09:58:14Z</time>
      </trkpt>
      <trkpt lat="44.42583" lon="5.92963">
        <ele>766</ele>
        <time>2019-06-15T09:58:15Z</time>
      </trkpt>
      <trkpt lat="44.42581" lon="5.9298">
        <ele>765</ele>
        <time>2019-06-15T09:58:16Z</time>
      </trkpt>
      <trkpt lat="44.42577" lon="5.92998">
        <ele>765</ele>
        <time>2019-06-15T09:58:17Z</time>
      </trkpt>
      <trkpt lat="44.42573" lon="5.93015">
        <ele>764</ele>
        <time>2019-06-15T09:58:18Z</time>
      </trkpt>
      <trkpt lat="44.42568" lon="5.93032">
        <ele>764</ele>
        <time>2019-06-15T09:58:19Z</time>
      </trkpt>
      <trkpt lat="44.42564" lon="5.93049">
        <ele>763</ele>
        <time>2019-06-15T09:58:20Z</time>
      </trkpt>
      <trkpt lat="44.42558" lon="5.93066">
        <ele>763</ele>
        <time>2019-06-15T09:58:21Z</time>
      </trkpt>
      <trkpt lat="44.42554" lon="5.93083">
        <ele>762</ele>
        <time>2019-06-15T09:58:22Z</time>
      </trkpt>
      <trkpt lat="44.42549" lon="5.93098">
        <ele>761</ele>
        <time>2019-06-15T09:58:23Z</time>
      </trkpt>
      <trkpt lat="44.42543" lon="5.93112">
        <ele>761</ele>
        <time>2019-06-15T09:58:24Z</time>
      </trkpt>
      <trkpt lat="44.42539" lon="5.93127">
        <ele>760</ele>
        <time>2019-06-15T09:58:25Z</time>
      </trkpt>
      <trkpt lat="44.42534" lon="5.93141">
        <ele>759</ele>
        <time>2019-06-15T09:58:26Z</time>
      </trkpt>
      <trkpt lat="44.4253" lon="5.93156">
        <ele>758</ele>
        <time>2019-06-15T09:58:27Z</time>
      </trkpt>
      <trkpt lat="44.42527" lon="5.93172">
        <ele>757</ele>
        <time>2019-06-15T09:58:28Z</time>
      </trkpt>
      <trkpt lat="44.42525" lon="5.93187">
        <ele>756</ele>
        <time>2019-06-15T09:58:29Z</time>
      </trkpt>
      <trkpt lat="44.42525" lon="5.93203">
        <ele>755</ele>
        <time>2019-06-15T09:58:30Z</time>
      </trkpt>
      <trkpt lat="44.42525" lon="5.9322">
        <ele>754</ele>
        <time>2019-06-15T09:58:31Z</time>
      </trkpt>
      <trkpt lat="44.42524" lon="5.93236">
        <ele>753</ele>
        <time>2019-06-15T09:58:32Z</time>
      </trkpt>
      <trkpt lat="44.42522" lon="5.93252">
        <ele>752</ele>
        <time>2019-06-15T09:58:33Z</time>
      </trkpt>
      <trkpt lat="44.42519" lon="5.93268">
        <ele>751</ele>
        <time>2019-06-15T09:58:34Z</time>
      </trkpt>
      <trkpt lat="44.42515" lon="5.93284">
        <ele>750</ele>
        <time>2019-06-15T09:58:35Z</time>
      </trkpt>
      <trkpt lat="44.42512" lon="5.93301">
        <ele>749</ele>
        <time>2019-06-15T09:58:36Z</time>
      </trkpt>
      <trkpt lat="44.4251" lon="5.93318">
        <ele>748</ele>
        <time>2019-06-15T09:58:37Z</time>
      </trkpt>
      <trkpt lat="44.42508" lon="5.93333">
        <ele>747</ele>
        <time>2019-06-15T09:58:38Z</time>
      </trkpt>
      <trkpt lat="44.42508" lon="5.93348">
        <ele>746</ele>
        <time>2019-06-15T09:58:39Z</time>
      </trkpt>
      <trkpt lat="44.42508" lon="5.93361">
        <ele>745</ele>
        <time>2019-06-15T09:58:40Z</time>
      </trkpt>
      <trkpt lat="44.42509" lon="5.93375">
        <ele>744</ele>
        <time>2019-06-15T09:58:41Z</time>
      </trkpt>
      <trkpt lat="44.42509" lon="5.93388">
        <ele>743</ele>
        <time>2019-06-15T09:58:42Z</time>
      </trkpt>
      <trkpt lat="44.42508" lon="5.934">
        <ele>742</ele>
        <time>2019-06-15T09:58:43Z</time>
      </trkpt>
      <trkpt lat="44.42505" lon="5.93411">
        <ele>741</ele>
        <time>2019-06-15T09:58:44Z</time>
      </trkpt>
      <trkpt lat="44.42501" lon="5.93423">
        <ele>740</ele>
        <time>2019-06-15T09:58:45Z</time>
      </trkpt>
      <trkpt lat="44.42497" lon="5.93433">
        <ele>739</ele>
        <time>2019-06-15T09:58:46Z</time>
      </trkpt>
      <trkpt lat="44.42492" lon="5.93442">
        <ele>738</ele>
        <time>2019-06-15T09:58:47Z</time>
      </trkpt>
      <trkpt lat="44.42483" lon="5.93448">
        <ele>737</ele>
        <time>2019-06-15T09:58:48Z</time>
      </trkpt>
      <trkpt lat="44.42472" lon="5.93452">
        <ele>736</ele>
        <time>2019-06-15T09:58:49Z</time>
      </trkpt>
      <trkpt lat="44.42459" lon="5.93455">
        <ele>735</ele>
        <time>2019-06-15T09:58:50Z</time>
      </trkpt>
      <trkpt lat="44.42447" lon="5.9346">
        <ele>734</ele>
        <time>2019-06-15T09:58:51Z</time>
      </trkpt>
      <trkpt lat="44.42437" lon="5.93466">
        <ele>733</ele>
        <time>2019-06-15T09:58:52Z</time>
      </trkpt>
      <trkpt lat="44.42427" lon="5.93472">
        <ele>732</ele>
        <time>2019-06-15T09:58:53Z</time>
      </trkpt>
      <trkpt lat="44.42416" lon="5.93477">
        <ele>731</ele>
        <time>2019-06-15T09:58:54Z</time>
      </trkpt>
      <trkpt lat="44.42406" lon="5.93483">
        <ele>730</ele>
        <time>2019-06-15T09:58:55Z</time>
      </trkpt>
      <trkpt lat="44.42397" lon="5.93488">
        <ele>729</ele>
        <time>2019-06-15T09:58:56Z</time>
      </trkpt>
      <trkpt lat="44.42388" lon="5.93492">
        <ele>728</ele>
        <time>2019-06-15T09:58:57Z</time>
      </trkpt>
      <trkpt lat="44.42379" lon="5.93495">
        <ele>727</ele>
        <time>2019-06-15T09:58:58Z</time>
      </trkpt>
      <trkpt lat="44.42371" lon="5.93494">
        <ele>726</ele>
        <time>2019-06-15T09:58:59Z</time>
      </trkpt>
      <trkpt lat="44.42364" lon="5.93489">
        <ele>725</ele>
        <time>2019-06-15T09:59:00Z</time>
      </trkpt>
      <trkpt lat="44.42361" lon="5.93479">
        <ele>724</ele>
        <time>2019-06-15T09:59:01Z</time>
      </trkpt>
      <trkpt lat="44.42358" lon="5.93468">
        <ele>723</ele>
        <time>2019-06-15T09:59:02Z</time>
      </trkpt>
      <trkpt lat="44.42354" lon="5.93459">
        <ele>722</ele>
        <time>2019-06-15T09:59:03Z</time>
      </trkpt>
      <trkpt lat="44.4235" lon="5.93449">
        <ele>721</ele>
        <time>2019-06-15T09:59:04Z</time>
      </trkpt>
      <trkpt lat="44.42346" lon="5.93438">
        <ele>721</ele>
        <time>2019-06-15T09:59:05Z</time>
      </trkpt>
      <trkpt lat="44.42343" lon="5.93431">
        <ele>721</ele>
        <time>2019-06-15T09:59:06Z</time>
      </trkpt>
      <trkpt lat="44.4234" lon="5.93423">
        <ele>721</ele>
        <time>2019-06-15T09:59:07Z</time>
      </trkpt>
      <trkpt lat="44.42338" lon="5.93419">
        <ele>721</ele>
        <time>2019-06-15T09:59:08Z</time>
      </trkpt>
      <trkpt lat="44.4233" lon="5.93417">
        <ele>721</ele>
        <time>2019-06-15T09:59:09Z</time>
      </trkpt>
      <trkpt lat="44.4232" lon="5.93422">
        <ele>721</ele>
        <time>2019-06-15T09:59:10Z</time>
      </trkpt>
      <trkpt lat="44.42312" lon="5.93426">
        <ele>721</ele>
        <time>2019-06-15T09:59:11Z</time>
      </trkpt>
      <trkpt lat="44.42304" lon="5.93432">
        <ele>721</ele>
        <time>2019-06-15T09:59:12Z</time>
      </trkpt>
      <trkpt lat="44.42297" lon="5.93439">
        <ele>721</ele>
        <time>2019-06-15T09:59:13Z</time>
      </trkpt>
      <trkpt lat="44.42291" lon="5.93448">
        <ele>721</ele>
        <time>2019-06-15T09:59:14Z</time>
      </trkpt>
      <trkpt lat="44.42287" lon="5.93458">
        <ele>721</ele>
        <time>2019-06-15T09:59:15Z</time>
      </trkpt>
      <trkpt lat="44.42285" lon="5.93468">
        <ele>721</ele>
        <time>2019-06-15T09:59:16Z</time>
      </trkpt>
      <trkpt lat="44.42281" lon="5.93477">
        <ele>721</ele>
        <time>2019-06-15T09:59:17Z</time>
      </trkpt>
      <trkpt lat="44.42278" lon="5.93484">
        <ele>721</ele>
        <time>2019-06-15T09:59:18Z</time>
      </trkpt>
      <trkpt lat="44.42273" lon="5.93489">
        <ele>721</ele>
        <time>2019-06-15T09:59:19Z</time>
      </trkpt>
      <trkpt lat="44.42267" lon="5.93492">
        <ele>721</ele>
        <time>2019-06-15T09:59:20Z</time>
      </trkpt>
      <trkpt lat="44.42262" lon="5.93492">
        <ele>721</ele>
        <time>2019-06-15T09:59:21Z</time>
      </trkpt>
      <trkpt lat="44.42253" lon="5.9349">
        <ele>721</ele>
        <time>2019-06-15T09:59:22Z</time>
      </trkpt>
      <trkpt lat="44.42247" lon="5.93486">
        <ele>721</ele>
        <time>2019-06-15T09:59:23Z</time>
      </trkpt>
      <trkpt lat="44.42241" lon="5.93484">
        <ele>721</ele>
        <time>2019-06-15T09:59:24Z</time>
      </trkpt>
      <trkpt lat="44.4223" lon="5.9348">
        <ele>721</ele>
        <time>2019-06-15T09:59:25Z</time>
      </trkpt>
      <trkpt lat="44.42221" lon="5.93481">
        <ele>720</ele>
        <time>2019-06-15T09:59:26Z</time>
      </trkpt>
      <trkpt lat="44.42215" lon="5.93488">
        <ele>719</ele>
        <time>2019-06-15T09:59:27Z</time>
      </trkpt>
      <trkpt lat="44.4221" lon="5.93497">
        <ele>718</ele>
        <time>2019-06-15T09:59:28Z</time>
      </trkpt>
      <trkpt lat="44.42209" lon="5.93508">
        <ele>717</ele>
        <time>2019-06-15T09:59:29Z</time>
      </trkpt>
      <trkpt lat="44.42209" lon="5.93518">
        <ele>717</ele>
        <time>2019-06-15T09:59:30Z</time>
      </trkpt>
      <trkpt lat="44.4221" lon="5.93527">
        <ele>717</ele>
        <time>2019-06-15T09:59:31Z</time>
      </trkpt>
      <trkpt lat="44.42211" lon="5.93536">
        <ele>717</ele>
        <time>2019-06-15T09:59:32Z</time>
      </trkpt>
      <trkpt lat="44.42212" lon="5.93544">
        <ele>717</ele>
        <time>2019-06-15T09:59:33Z</time>
      </trkpt>
      <trkpt lat="44.42213" lon="5.93553">
        <ele>717</ele>
        <time>2019-06-15T09:59:34Z</time>
      </trkpt>
      <trkpt lat="44.42214" lon="5.93561">
        <ele>717</ele>
        <time>2019-06-15T09:59:35Z</time>
      </trkpt>
      <trkpt lat="44.42215" lon="5.9357">
        <ele>717</ele>
        <time>2019-06-15T09:59:36Z</time>
      </trkpt>
      <trkpt lat="44.42215" lon="5.93579">
        <ele>717</ele>
        <time>2019-06-15T09:59:37Z</time>
      </trkpt>
      <trkpt lat="44.42216" lon="5.93588">
        <ele>717</ele>
        <time>2019-06-15T09:59:38Z</time>
      </trkpt>
      <trkpt lat="44.42216" lon="5.93597">
        <ele>717</ele>
        <time>2019-06-15T09:59:39Z</time>
      </trkpt>
      <trkpt lat="44.42215" lon="5.93606">
        <ele>717</ele>
        <time>2019-06-15T09:59:40Z</time>
      </trkpt>
      <trkpt lat="44.42214" lon="5.93615">
        <ele>717</ele>
        <time>2019-06-15T09:59:41Z</time>
      </trkpt>
      <trkpt lat="44.42212" lon="5.93625">
        <ele>717</ele>
        <time>2019-06-15T09:59:42Z</time>
      </trkpt>
      <trkpt lat="44.4221" lon="5.93635">
        <ele>717</ele>
        <time>2019-06-15T09:59:43Z</time>
      </trkpt>
      <trkpt lat="44.42207" lon="5.93644">
        <ele>717</ele>
        <time>2019-06-15T09:59:44Z</time>
      </trkpt>
      <trkpt lat="44.42205" lon="5.93653">
        <ele>717</ele>
        <time>2019-06-15T09:59:45Z</time>
      </trkpt>
      <trkpt lat="44.42202" lon="5.93663">
        <ele>717</ele>
        <time>2019-06-15T09:59:46Z</time>
      </trkpt>
      <trkpt lat="44.42199" lon="5.93673">
        <ele>717</ele>
        <time>2019-06-15T09:59:47Z</time>
      </trkpt>
      <trkpt lat="44.42196" lon="5.93683">
        <ele>717</ele>
        <time>2019-06-15T09:59:48Z</time>
      </trkpt>
      <trkpt lat="44.42193" lon="5.93692">
        <ele>717</ele>
        <time>2019-06-15T09:59:49Z</time>
      </trkpt>
      <trkpt lat="44.4219" lon="5.93703">
        <ele>717</ele>
        <time>2019-06-15T09:59:50Z</time>
      </trkpt>
      <trkpt lat="44.42188" lon="5.93713">
        <ele>717</ele>
        <time>2019-06-15T09:59:51Z</time>
      </trkpt>
      <trkpt lat="44.42185" lon="5.93723">
        <ele>717</ele>
        <time>2019-06-15T09:59:52Z</time>
      </trkpt>
      <trkpt lat="44.42181" lon="5.93734">
        <ele>717</ele>
        <time>2019-06-15T09:59:53Z</time>
      </trkpt>
      <trkpt lat="44.42178" lon="5.93745">
        <ele>717</ele>
        <time>2019-06-15T09:59:54Z</time>
      </trkpt>
      <trkpt lat="44.42175" lon="5.93756">
        <ele>717</ele>
        <time>2019-06-15T09:59:55Z</time>
      </trkpt>
      <trkpt lat="44.42171" lon="5.93767">
        <ele>717</ele>
        <time>2019-06-15T09:59:56Z</time>
      </trkpt>
      <trkpt lat="44.42168" lon="5.93778">
        <ele>717</ele>
        <time>2019-06-15T09:59:57Z</time>
      </trkpt>
      <trkpt lat="44.42165" lon="5.9379">
        <ele>717</ele>
        <time>2019-06-15T09:59:58Z</time>
      </trkpt>
      <trkpt lat="44.42162" lon="5.93801">
        <ele>717</ele>
        <time>2019-06-15T09:59:59Z</time>
      </trkpt>
      <trkpt lat="44.4216" lon="5.93813">
        <ele>717</ele>
        <time>2019-06-15T10:00:00Z</time>
      </trkpt>
      <trkpt lat="44.42155" lon="5.93825">
        <ele>716</ele>
        <time>2019-06-15T10:00:01Z</time>
      </trkpt>
      <trkpt lat="44.42151" lon="5.93836">
        <ele>716</ele>
        <time>2019-06-15T10:00:02Z</time>
      </trkpt>
      <trkpt lat="44.42147" lon="5.93848">
        <ele>716</ele>
        <time>2019-06-15T10:00:03Z</time>
      </trkpt>
      <trkpt lat="44.42143" lon="5.93859">
        <ele>715</ele>
        <time>2019-06-15T10:00:04Z</time>
      </trkpt>
      <trkpt lat="44.42141" lon="5.93871">
        <ele>715</ele>
        <time>2019-06-15T10:00:05Z</time>
      </trkpt>
      <trkpt lat="44.42138" lon="5.93882">
        <ele>715</ele>
        <time>2019-06-15T10:00:06Z</time>
      </trkpt>
      <trkpt lat="44.42134" lon="5.93894">
        <ele>715</ele>
        <time>2019-06-15T10:00:07Z</time>
      </trkpt>
      <trkpt lat="44.4213" lon="5.93905">
        <ele>714</ele>
        <time>2019-06-15T10:00:08Z</time>
      </trkpt>
      <trkpt lat="44.42127" lon="5.93918">
        <ele>714</ele>
        <time>2019-06-15T10:00:09Z</time>
      </trkpt>
      <trkpt lat="44.42125" lon="5.9393">
        <ele>713</ele>
        <time>2019-06-15T10:00:10Z</time>
      </trkpt>
      <trkpt lat="44.42122" lon="5.93942">
        <ele>712</ele>
        <time>2019-06-15T10:00:11Z</time>
      </trkpt>
      <trkpt lat="44.4212" lon="5.93955">
        <ele>712</ele>
        <time>2019-06-15T10:00:12Z</time>
      </trkpt>
      <trkpt lat="44.42118" lon="5.93968">
        <ele>712</ele>
        <time>2019-06-15T10:00:13Z</time>
      </trkpt>
      <trkpt lat="44.42116" lon="5.93981">
        <ele>712</ele>
        <time>2019-06-15T10:00:14Z</time>
      </trkpt>
      <trkpt lat="44.42113" lon="5.93993">
        <ele>712</ele>
        <time>2019-06-15T10:00:15Z</time>
      </trkpt>
      <trkpt lat="44.42112" lon="5.94005">
        <ele>712</ele>
        <time>2019-06-15T10:00:16Z</time>
      </trkpt>
      <trkpt lat="44.4211" lon="5.94018">
        <ele>712</ele>
        <time>2019-06-15T10:00:17Z</time>
      </trkpt>
      <trkpt lat="44.42108" lon="5.94031">
        <ele>712</ele>
        <time>2019-06-15T10:00:18Z</time>
      </trkpt>
      <trkpt lat="44.42107" lon="5.94044">
        <ele>712</ele>
        <time>2019-06-15T10:00:19Z</time>
      </trkpt>
      <trkpt lat="44.42104" lon="5.94057">
        <ele>711</ele>
        <time>2019-06-15T10:00:20Z</time>
      </trkpt>
      <trkpt lat="44.42102" lon="5.9407">
        <ele>710</ele>
        <time>2019-06-15T10:00:21Z</time>
      </trkpt>
      <trkpt lat="44.421" lon="5.94082">
        <ele>710</ele>
        <time>2019-06-15T10:00:22Z</time>
      </trkpt>
      <trkpt lat="44.42099" lon="5.94094">
        <ele>709</ele>
        <time>2019-06-15T10:00:23Z</time>
      </trkpt>
      <trkpt lat="44.42098" lon="5.94106">
        <ele>708</ele>
        <time>2019-06-15T10:00:24Z</time>
      </trkpt>
      <trkpt lat="44.42097" lon="5.94118">
        <ele>707</ele>
        <time>2019-06-15T10:00:25Z</time>
      </trkpt>
      <trkpt lat="44.42094" lon="5.9413">
        <ele>707</ele>
        <time>2019-06-15T10:00:26Z</time>
      </trkpt>
      <trkpt lat="44.42091" lon="5.94141">
        <ele>706</ele>
        <time>2019-06-15T10:00:27Z</time>
      </trkpt>
      <trkpt lat="44.42089" lon="5.94154">
        <ele>705</ele>
        <time>2019-06-15T10:00:28Z</time>
      </trkpt>
      <trkpt lat="44.42086" lon="5.94166">
        <ele>704</ele>
        <time>2019-06-15T10:00:29Z</time>
      </trkpt>
      <trkpt lat="44.42083" lon="5.94178">
        <ele>703</ele>
        <time>2019-06-15T10:00:30Z</time>
      </trkpt>
      <trkpt lat="44.42079" lon="5.9419">
        <ele>702</ele>
        <time>2019-06-15T10:00:31Z</time>
      </trkpt>
      <trkpt lat="44.42075" lon="5.94202">
        <ele>701</ele>
        <time>2019-06-15T10:00:32Z</time>
      </trkpt>
      <trkpt lat="44.4207" lon="5.94212">
        <ele>700</ele>
        <time>2019-06-15T10:00:33Z</time>
      </trkpt>
      <trkpt lat="44.42066" lon="5.94222">
        <ele>699</ele>
        <time>2019-06-15T10:00:34Z</time>
      </trkpt>
      <trkpt lat="44.42059" lon="5.9423">
        <ele>699</ele>
        <time>2019-06-15T10:00:35Z</time>
      </trkpt>
      <trkpt lat="44.42051" lon="5.94236">
        <ele>698</ele>
        <time>2019-06-15T10:00:36Z</time>
      </trkpt>
      <trkpt lat="44.42042" lon="5.94241">
        <ele>698</ele>
        <time>2019-06-15T10:00:37Z</time>
      </trkpt>
      <trkpt lat="44.4203" lon="5.94246">
        <ele>697</ele>
        <time>2019-06-15T10:00:38Z</time>
      </trkpt>
      <trkpt lat="44.42019" lon="5.94251">
        <ele>697</ele>
        <time>2019-06-15T10:00:39Z</time>
      </trkpt>
      <trkpt lat="44.42011" lon="5.94259">
        <ele>696</ele>
        <time>2019-06-15T10:00:40Z</time>
      </trkpt>
      <trkpt lat="44.42003" lon="5.94267">
        <ele>695</ele>
        <time>2019-06-15T10:00:41Z</time>
      </trkpt>
      <trkpt lat="44.41998" lon="5.94277">
        <ele>695</ele>
        <time>2019-06-15T10:00:42Z</time>
      </trkpt>
      <trkpt lat="44.41998" lon="5.94287">
        <ele>694</ele>
        <time>2019-06-15T10:00:43Z</time>
      </trkpt>
      <trkpt lat="44.41995" lon="5.94295">
        <ele>693</ele>
        <time>2019-06-15T10:00:44Z</time>
      </trkpt>
      <trkpt lat="44.4199" lon="5.94301">
        <ele>693</ele>
        <time>2019-06-15T10:00:45Z</time>
      </trkpt>
      <trkpt lat="44.41983" lon="5.94303">
        <ele>692</ele>
        <time>2019-06-15T10:00:46Z</time>
      </trkpt>
      <trkpt lat="44.41977" lon="5.943">
        <ele>691</ele>
        <time>2019-06-15T10:00:47Z</time>
      </trkpt>
      <trkpt lat="44.41969" lon="5.94298">
        <ele>691</ele>
        <time>2019-06-15T10:00:48Z</time>
      </trkpt>
      <trkpt lat="44.41962" lon="5.94298">
        <ele>690</ele>
        <time>2019-06-15T10:00:49Z</time>
      </trkpt>
      <trkpt lat="44.41954" lon="5.94304">
        <ele>690</ele>
        <time>2019-06-15T10:00:50Z</time>
      </trkpt>
      <trkpt lat="44.41948" lon="5.94312">
        <ele>690</ele>
        <time>2019-06-15T10:00:51Z</time>
      </trkpt>
      <trkpt lat="44.41944" lon="5.94322">
        <ele>690</ele>
        <time>2019-06-15T10:00:52Z</time>
      </trkpt>
      <trkpt lat="44.41941" lon="5.94333">
        <ele>690</ele>
        <time>2019-06-15T10:00:53Z</time>
      </trkpt>
      <trkpt lat="44.41941" lon="5.94345">
        <ele>690</ele>
        <time>2019-06-15T10:00:54Z</time>
      </trkpt>
      <trkpt lat="44.41939" lon="5.94356">
        <ele>690</ele>
        <time>2019-06-15T10:00:55Z</time>
      </trkpt>
      <trkpt lat="44.41937" lon="5.94368">
        <ele>690</ele>
        <time>2019-06-15T10:00:56Z</time>
      </trkpt>
      <trkpt lat="44.41935" lon="5.94381">
        <ele>689</ele>
        <time>2019-06-15T10:00:57Z</time>
      </trkpt>
      <trkpt lat="44.41933" lon="5.94394">
        <ele>689</ele>
        <time>2019-06-15T10:00:58Z</time>
      </trkpt>
      <trkpt lat="44.41931" lon="5.94408">
        <ele>688</ele>
        <time>2019-06-15T10:00:59Z</time>
      </trkpt>
      <trkpt lat="44.41928" lon="5.9442">
        <ele>688</ele>
        <time>2019-06-15T10:01:00Z</time>
      </trkpt>
      <trkpt lat="44.41925" lon="5.94432">
        <ele>687</ele>
        <time>2019-06-15T10:01:01Z</time>
      </trkpt>
      <trkpt lat="44.41922" lon="5.94444">
        <ele>687</ele>
        <time>2019-06-15T10:01:02Z</time>
      </trkpt>
      <trkpt lat="44.41917" lon="5.94453">
        <ele>686</ele>
        <time>2019-06-15T10:01:03Z</time>
      </trkpt>
      <trkpt lat="44.41912" lon="5.94461">
        <ele>685</ele>
        <time>2019-06-15T10:01:04Z</time>
      </trkpt>
      <trkpt lat="44.41908" lon="5.94468">
        <ele>684</ele>
        <time>2019-06-15T10:01:05Z</time>
      </trkpt>
      <trkpt lat="44.41902" lon="5.94472">
        <ele>683</ele>
        <time>2019-06-15T10:01:06Z</time>
      </trkpt>
      <trkpt lat="44.41896" lon="5.94473">
        <ele>682</ele>
        <time>2019-06-15T10:01:07Z</time>
      </trkpt>
      <trkpt lat="44.41889" lon="5.94471">
        <ele>681</ele>
        <time>2019-06-15T10:01:08Z</time>
      </trkpt>
      <trkpt lat="44.41883" lon="5.94465">
        <ele>681</ele>
        <time>2019-06-15T10:01:09Z</time>
      </trkpt>
      <trkpt lat="44.41875" lon="5.94461">
        <ele>680</ele>
        <time>2019-06-15T10:01:10Z</time>
      </trkpt>
      <trkpt lat="44.41868" lon="5.94461">
        <ele>679</ele>
        <time>2019-06-15T10:01:11Z</time>
      </trkpt>
      <trkpt lat="44.41861" lon="5.94465">
        <ele>679</ele>
        <time>2019-06-15T10:01:12Z</time>
      </trkpt>
      <trkpt lat="44.41855" lon="5.94474">
        <ele>679</ele>
        <time>2019-06-15T10:01:13Z</time>
      </trkpt>
      <trkpt lat="44.4185" lon="5.94483">
        <ele>679</ele>
        <time>2019-06-15T10:01:14Z</time>
      </trkpt>
      <trkpt lat="44.41845" lon="5.94493">
        <ele>679</ele>
        <time>2019-06-15T10:01:15Z</time>
      </trkpt>
      <trkpt lat="44.4184" lon="5.94501">
        <ele>679</ele>
        <time>2019-06-15T10:01:16Z</time>
      </trkpt>
      <trkpt lat="44.41833" lon="5.94507">
        <ele>679</ele>
        <time>2019-06-15T10:01:17Z</time>
      </trkpt>
      <trkpt lat="44.41826" lon="5.94511">
        <ele>678</ele>
        <time>2019-06-15T10:01:18Z</time>
      </trkpt>
      <trkpt lat="44.41817" lon="5.94512">
        <ele>678</ele>
        <time>2019-06-15T10:01:19Z</time>
      </trkpt>
      <trkpt lat="44.41807" lon="5.94512">
        <ele>677</ele>
        <time>2019-06-15T10:01:20Z</time>
      </trkpt>
      <trkpt lat="44.41797" lon="5.94511">
        <ele>677</ele>
        <time>2019-06-15T10:01:21Z</time>
      </trkpt>
      <trkpt lat="44.41787" lon="5.94511">
        <ele>676</ele>
        <time>2019-06-15T10:01:22Z</time>
      </trkpt>
      <trkpt lat="44.41777" lon="5.94511">
        <ele>675</ele>
        <time>2019-06-15T10:01:23Z</time>
      </trkpt>
      <trkpt lat="44.41767" lon="5.94511">
        <ele>674</ele>
        <time>2019-06-15T10:01:24Z</time>
      </trkpt>
      <trkpt lat="44.41758" lon="5.94512">
        <ele>674</ele>
        <time>2019-06-15T10:01:25Z</time>
      </trkpt>
      <trkpt lat="44.41748" lon="5.94514">
        <ele>673</ele>
        <time>2019-06-15T10:01:26Z</time>
      </trkpt>
      <trkpt lat="44.41739" lon="5.94517">
        <ele>673</ele>
        <time>2019-06-15T10:01:27Z</time>
      </trkpt>
      <trkpt lat="44.4173" lon="5.94522">
        <ele>672</ele>
        <time>2019-06-15T10:01:28Z</time>
      </trkpt>
      <trkpt lat="44.41722" lon="5.9453">
        <ele>672</ele>
        <time>2019-06-15T10:01:29Z</time>
      </trkpt>
      <trkpt lat="44.41716" lon="5.94539">
        <ele>671</ele>
        <time>2019-06-15T10:01:30Z</time>
      </trkpt>
      <trkpt lat="44.41711" lon="5.94549">
        <ele>671</ele>
        <time>2019-06-15T10:01:31Z</time>
      </trkpt>
      <trkpt lat="44.41708" lon="5.9456">
        <ele>670</ele>
        <time>2019-06-15T10:01:32Z</time>
      </trkpt>
      <trkpt lat="44.41709" lon="5.94572">
        <ele>670</ele>
        <time>2019-06-15T10:01:33Z</time>
      </trkpt>
      <trkpt lat="44.41712" lon="5.94584">
        <ele>669</ele>
        <time>2019-06-15T10:01:34Z</time>
      </trkpt>
      <trkpt lat="44.41713" lon="5.94595">
        <ele>669</ele>
        <time>2019-06-15T10:01:35Z</time>
      </trkpt>
      <trkpt lat="44.41714" lon="5.94607">
        <ele>669</ele>
        <time>2019-06-15T10:01:36Z</time>
      </trkpt>
      <trkpt lat="44.41714" lon="5.94618">
        <ele>668</ele>
        <time>2019-06-15T10:01:37Z</time>
      </trkpt>
      <trkpt lat="44.41714" lon="5.94628">
        <ele>667</ele>
        <time>2019-06-15T10:01:38Z</time>
      </trkpt>
      <trkpt lat="44.41714" lon="5.94639">
        <ele>666</ele>
        <time>2019-06-15T10:01:39Z</time>
      </trkpt>
      <trkpt lat="44.41713" lon="5.94651">
        <ele>665</ele>
        <time>2019-06-15T10:01:40Z</time>
      </trkpt>
      <trkpt lat="44.41711" lon="5.94662">
        <ele>664</ele>
        <time>2019-06-15T10:01:41Z</time>
      </trkpt>
      <trkpt lat="44.41707" lon="5.94672">
        <ele>663</ele>
        <time>2019-06-15T10:01:42Z</time>
      </trkpt>
      <trkpt lat="44.417" lon="5.94679">
        <ele>662</ele>
        <time>2019-06-15T10:01:43Z</time>
      </trkpt>
      <trkpt lat="44.4169" lon="5.94684">
        <ele>661</ele>
        <time>2019-06-15T10:01:44Z</time>
      </trkpt>
      <trkpt lat="44.4168" lon="5.94689">
        <ele>660</ele>
        <time>2019-06-15T10:01:45Z</time>
      </trkpt>
      <trkpt lat="44.41671" lon="5.94695">
        <ele>659</ele>
        <time>2019-06-15T10:01:46Z</time>
      </trkpt>
      <trkpt lat="44.41663" lon="5.94702">
        <ele>658</ele>
        <time>2019-06-15T10:01:47Z</time>
      </trkpt>
      <trkpt lat="44.41655" lon="5.9471">
        <ele>658</ele>
        <time>2019-06-15T10:01:48Z</time>
      </trkpt>
      <trkpt lat="44.41648" lon="5.94719">
        <ele>658</ele>
        <time>2019-06-15T10:01:49Z</time>
      </trkpt>
      <trkpt lat="44.41641" lon="5.94727">
        <ele>657</ele>
        <time>2019-06-15T10:01:50Z</time>
      </trkpt>
      <trkpt lat="44.41634" lon="5.94735">
        <ele>657</ele>
        <time>2019-06-15T10:01:51Z</time>
      </trkpt>
      <trkpt lat="44.41626" lon="5.9474">
        <ele>657</ele>
        <time>2019-06-15T10:01:52Z</time>
      </trkpt>
      <trkpt lat="44.41616" lon="5.94745">
        <ele>656</ele>
        <time>2019-06-15T10:01:53Z</time>
      </trkpt>
      <trkpt lat="44.41607" lon="5.94749">
        <ele>655</ele>
        <time>2019-06-15T10:01:54Z</time>
      </trkpt>
      <trkpt lat="44.41597" lon="5.94753">
        <ele>655</ele>
        <time>2019-06-15T10:01:55Z</time>
      </trkpt>
      <trkpt lat="44.41587" lon="5.94759">
        <ele>654</ele>
        <time>2019-06-15T10:01:56Z</time>
      </trkpt>
      <trkpt lat="44.41578" lon="5.94766">
        <ele>653</ele>
        <time>2019-06-15T10:01:57Z</time>
      </trkpt>
      <trkpt lat="44.41569" lon="5.94773">
        <ele>652</ele>
        <time>2019-06-15T10:01:58Z</time>
      </trkpt>
      <trkpt lat="44.4156" lon="5.94779">
        <ele>652</ele>
        <time>2019-06-15T10:01:59Z</time>
      </trkpt>
      <trkpt lat="44.4155" lon="5.94786">
        <ele>651</ele>
        <time>2019-06-15T10:02:00Z</time>
      </trkpt>
      <trkpt lat="44.41541" lon="5.94792">
        <ele>650</ele>
        <time>2019-06-15T10:02:01Z</time>
      </trkpt>
      <trkpt lat="44.41533" lon="5.94797">
        <ele>649</ele>
        <time>2019-06-15T10:02:02Z</time>
      </trkpt>
      <trkpt lat="44.41523" lon="5.94802">
        <ele>648</ele>
        <time>2019-06-15T10:02:03Z</time>
      </trkpt>
      <trkpt lat="44.41515" lon="5.94803">
        <ele>647</ele>
        <time>2019-06-15T10:02:04Z</time>
      </trkpt>
      <trkpt lat="44.41505" lon="5.94803">
        <ele>646</ele>
        <time>2019-06-15T10:02:05Z</time>
      </trkpt>
      <trkpt lat="44.41496" lon="5.94801">
        <ele>645</ele>
        <time>2019-06-15T10:02:06Z</time>
      </trkpt>
      <trkpt lat="44.41486" lon="5.948">
        <ele>645</ele>
        <time>2019-06-15T10:02:07Z</time>
      </trkpt>
      <trkpt lat="44.41477" lon="5.94801">
        <ele>644</ele>
        <time>2019-06-15T10:02:08Z</time>
      </trkpt>
      <trkpt lat="44.41468" lon="5.94804">
        <ele>643</ele>
        <time>2019-06-15T10:02:09Z</time>
      </trkpt>
      <trkpt lat="44.4146" lon="5.9481">
        <ele>642</ele>
        <time>2019-06-15T10:02:10Z</time>
      </trkpt>
      <trkpt lat="44.41456" lon="5.94818">
        <ele>641</ele>
        <time>2019-06-15T10:02:11Z</time>
      </trkpt>
      <trkpt lat="44.41455" lon="5.94827">
        <ele>641</ele>
        <time>2019-06-15T10:02:12Z</time>
      </trkpt>
      <trkpt lat="44.41456" lon="5.94837">
        <ele>640</ele>
        <time>2019-06-15T10:02:13Z</time>
      </trkpt>
      <trkpt lat="44.41459" lon="5.94845">
        <ele>639</ele>
        <time>2019-06-15T10:02:14Z</time>
      </trkpt>
      <trkpt lat="44.41463" lon="5.94852">
        <ele>638</ele>
        <time>2019-06-15T10:02:15Z</time>
      </trkpt>
      <trkpt lat="44.41468" lon="5.9486">
        <ele>637</ele>
        <time>2019-06-15T10:02:16Z</time>
      </trkpt>
      <trkpt lat="44.41473" lon="5.94869">
        <ele>636</ele>
        <time>2019-06-15T10:02:17Z</time>
      </trkpt>
      <trkpt lat="44.41476" lon="5.94879">
        <ele>635</ele>
        <time>2019-06-15T10:02:18Z</time>
      </trkpt>
      <trkpt lat="44.41479" lon="5.94889">
        <ele>635</ele>
        <time>2019-06-15T10:02:19Z</time>
      </trkpt>
      <trkpt lat="44.41481" lon="5.949">
        <ele>634</ele>
        <time>2019-06-15T10:02:20Z</time>
      </trkpt>
      <trkpt lat="44.41481" lon="5.94911">
        <ele>633</ele>
        <time>2019-06-15T10:02:21Z</time>
      </trkpt>
      <trkpt lat="44.4148" lon="5.94922">
        <ele>633</ele>
        <time>2019-06-15T10:02:22Z</time>
      </trkpt>
      <trkpt lat="44.41478" lon="5.94933">
        <ele>632</ele>
        <time>2019-06-15T10:02:23Z</time>
      </trkpt>
      <trkpt lat="44.41478" lon="5.94944">
        <ele>631</ele>
        <time>2019-06-15T10:02:24Z</time>
      </trkpt>
      <trkpt lat="44.41476" lon="5.94955">
        <ele>631</ele>
        <time>2019-06-15T10:02:25Z</time>
      </trkpt>
      <trkpt lat="44.41475" lon="5.94966">
        <ele>631</ele>
        <time>2019-06-15T10:02:26Z</time>
      </trkpt>
      <trkpt lat="44.41473" lon="5.94976">
        <ele>631</ele>
        <time>2019-06-15T10:02:27Z</time>
      </trkpt>
      <trkpt lat="44.41471" lon="5.94986">
        <ele>630</ele>
        <time>2019-06-15T10:02:28Z</time>
      </trkpt>
      <trkpt lat="44.41468" lon="5.94996">
        <ele>630</ele>
        <time>2019-06-15T10:02:29Z</time>
      </trkpt>
      <trkpt lat="44.41466" lon="5.95006">
        <ele>630</ele>
        <time>2019-06-15T10:02:30Z</time>
      </trkpt>
      <trkpt lat="44.41463" lon="5.95014">
        <ele>629</ele>
        <time>2019-06-15T10:02:31Z</time>
      </trkpt>
      <trkpt lat="44.4146" lon="5.95019">
        <ele>629</ele>
        <time>2019-06-15T10:02:32Z</time>
      </trkpt>
      <trkpt lat="44.41457" lon="5.95021">
        <ele>628</ele>
        <time>2019-06-15T10:02:33Z</time>
      </trkpt>
      <trkpt lat="44.41454" lon="5.9502">
        <ele>627</ele>
        <time>2019-06-15T10:02:34Z</time>
      </trkpt>
      <trkpt lat="44.4145" lon="5.95019">
        <ele>627</ele>
        <time>2019-06-15T10:02:35Z</time>
      </trkpt>
      <trkpt lat="44.41447" lon="5.95018">
        <ele>627</ele>
        <time>2019-06-15T10:02:36Z</time>
      </trkpt>
      <trkpt lat="44.41444" lon="5.95018">
        <ele>627</ele>
        <time>2019-06-15T10:02:37Z</time>
      </trkpt>
      <trkpt lat="44.4144" lon="5.95017">
        <ele>627</ele>
        <time>2019-06-15T10:02:38Z</time>
      </trkpt>
      <trkpt lat="44.41437" lon="5.95017">
        <ele>627</ele>
        <time>2019-06-15T10:02:39Z</time>
      </trkpt>
      <trkpt lat="44.41433" lon="5.95016">
        <ele>627</ele>
        <time>2019-06-15T10:02:40Z</time>
      </trkpt>
      <trkpt lat="44.4143" lon="5.95016">
        <ele>627</ele>
        <time>2019-06-15T10:02:41Z</time>
      </trkpt>
      <trkpt lat="44.41426" lon="5.95016">
        <ele>627</ele>
        <time>2019-06-15T10:02:42Z</time>
      </trkpt>
      <trkpt lat="44.41422" lon="5.95016">
        <ele>627</ele>
        <time>2019-06-15T10:02:43Z</time>
      </trkpt>
      <trkpt lat="44.41418" lon="5.95016">
        <ele>627</ele>
        <time>2019-06-15T10:02:44Z</time>
      </trkpt>
      <trkpt lat="44.41415" lon="5.95015">
        <ele>627</ele>
        <time>2019-06-15T10:02:45Z</time>
      </trkpt>
      <trkpt lat="44.4141" lon="5.95015">
        <ele>627</ele>
        <time>2019-06-15T10:02:46Z</time>
      </trkpt>
      <trkpt lat="44.41406" lon="5.95015">
        <ele>627</ele>
        <time>2019-06-15T10:02:47Z</time>
      </trkpt>
      <trkpt lat="44.41402" lon="5.95015">
        <ele>627</ele>
        <time>2019-06-15T10:02:48Z</time>
      </trkpt>
      <trkpt lat="44.41398" lon="5.95014">
        <ele>627</ele>
        <time>2019-06-15T10:02:49Z</time>
      </trkpt>
      <trkpt lat="44.41394" lon="5.95014">
        <ele>627</ele>
        <time>2019-06-15T10:02:50Z</time>
      </trkpt>
      <trkpt lat="44.41389" lon="5.95014">
        <ele>628</ele>
        <time>2019-06-15T10:02:51Z</time>
      </trkpt>
      <trkpt lat="44.41385" lon="5.95013">
        <ele>629</ele>
        <time>2019-06-15T10:02:52Z</time>
      </trkpt>
      <trkpt lat="44.4138" lon="5.95014">
        <ele>629</ele>
        <time>2019-06-15T10:02:53Z</time>
      </trkpt>
      <trkpt lat="44.41376" lon="5.95014">
        <ele>630</ele>
        <time>2019-06-15T10:02:54Z</time>
      </trkpt>
      <trkpt lat="44.41372" lon="5.95014">
        <ele>630</ele>
        <time>2019-06-15T10:02:55Z</time>
      </trkpt>
      <trkpt lat="44.41367" lon="5.95014">
        <ele>630</ele>
        <time>2019-06-15T10:02:56Z</time>
      </trkpt>
      <trkpt lat="44.41363" lon="5.95015">
        <ele>630</ele>
        <time>2019-06-15T10:02:57Z</time>
      </trkpt>
      <trkpt lat="44.41359" lon="5.95015">
        <ele>630</ele>
        <time>2019-06-15T10:02:58Z</time>
      </trkpt>
      <trkpt lat="44.41354" lon="5.95017">
        <ele>630</ele>
        <time>2019-06-15T10:02:59Z</time>
      </trkpt>
      <trkpt lat="44.4135" lon="5.95018">
        <ele>631</ele>
        <time>2019-06-15T10:03:00Z</time>
      </trkpt>
      <trkpt lat="44.41347" lon="5.95019">
        <ele>631</ele>
        <time>2019-06-15T10:03:01Z</time>
      </trkpt>
      <trkpt lat="44.41343" lon="5.9502">
        <ele>631</ele>
        <time>2019-06-15T10:03:02Z</time>
      </trkpt>
      <trkpt lat="44.41339" lon="5.95023">
        <ele>631</ele>
        <time>2019-06-15T10:03:03Z</time>
      </trkpt>
      <trkpt lat="44.41335" lon="5.95025">
        <ele>631</ele>
        <time>2019-06-15T10:03:04Z</time>
      </trkpt>
      <trkpt lat="44.4133" lon="5.95027">
        <ele>631</ele>
        <time>2019-06-15T10:03:05Z</time>
      </trkpt>
      <trkpt lat="44.41325" lon="5.9503">
        <ele>631</ele>
        <time>2019-06-15T10:03:06Z</time>
      </trkpt>
      <trkpt lat="44.41321" lon="5.95032">
        <ele>631</ele>
        <time>2019-06-15T10:03:07Z</time>
      </trkpt>
      <trkpt lat="44.41318" lon="5.95034">
        <ele>631</ele>
        <time>2019-06-15T10:03:08Z</time>
      </trkpt>
      <trkpt lat="44.41314" lon="5.95036">
        <ele>631</ele>
        <time>2019-06-15T10:03:09Z</time>
      </trkpt>
      <trkpt lat="44.41309" lon="5.95038">
        <ele>631</ele>
        <time>2019-06-15T10:03:10Z</time>
      </trkpt>
      <trkpt lat="44.41305" lon="5.95041">
        <ele>631</ele>
        <time>2019-06-15T10:03:11Z</time>
      </trkpt>
      <trkpt lat="44.413" lon="5.95042">
        <ele>631</ele>
        <time>2019-06-15T10:03:12Z</time>
      </trkpt>
      <trkpt lat="44.41296" lon="5.95044">
        <ele>631</ele>
        <time>2019-06-15T10:03:13Z</time>
      </trkpt>
      <trkpt lat="44.4129" lon="5.95046">
        <ele>631</ele>
        <time>2019-06-15T10:03:14Z</time>
      </trkpt>
      <trkpt lat="44.41285" lon="5.95048">
        <ele>631</ele>
        <time>2019-06-15T10:03:15Z</time>
      </trkpt>
      <trkpt lat="44.41282" lon="5.9505">
        <ele>631</ele>
        <time>2019-06-15T10:03:16Z</time>
      </trkpt>
      <trkpt lat="44.41277" lon="5.95052">
        <ele>631</ele>
        <time>2019-06-15T10:03:17Z</time>
      </trkpt>
      <trkpt lat="44.41273" lon="5.95053">
        <ele>631</ele>
        <time>2019-06-15T10:03:18Z</time>
      </trkpt>
      <trkpt lat="44.41268" lon="5.95056">
        <ele>632</ele>
        <time>2019-06-15T10:03:19Z</time>
      </trkpt>
      <trkpt lat="44.41264" lon="5.95058">
        <ele>632</ele>
        <time>2019-06-15T10:03:20Z</time>
      </trkpt>
      <trkpt lat="44.41259" lon="5.95059">
        <ele>632</ele>
        <time>2019-06-15T10:03:21Z</time>
      </trkpt>
      <trkpt lat="44.41254" lon="5.95061">
        <ele>633</ele>
        <time>2019-06-15T10:03:22Z</time>
      </trkpt>
      <trkpt lat="44.41249" lon="5.95062">
        <ele>633</ele>
        <time>2019-06-15T10:03:23Z</time>
      </trkpt>
      <trkpt lat="44.41244" lon="5.95063">
        <ele>633</ele>
        <time>2019-06-15T10:03:24Z</time>
      </trkpt>
      <trkpt lat="44.4124" lon="5.95064">
        <ele>633</ele>
        <time>2019-06-15T10:03:25Z</time>
      </trkpt>
      <trkpt lat="44.41235" lon="5.95066">
        <ele>633</ele>
        <time>2019-06-15T10:03:26Z</time>
      </trkpt>
      <trkpt lat="44.4123" lon="5.95067">
        <ele>633</ele>
        <time>2019-06-15T10:03:27Z</time>
      </trkpt>
      <trkpt lat="44.41226" lon="5.95068">
        <ele>633</ele>
        <time>2019-06-15T10:03:28Z</time>
      </trkpt>
      <trkpt lat="44.41222" lon="5.95069">
        <ele>634</ele>
        <time>2019-06-15T10:03:29Z</time>
      </trkpt>
      <trkpt lat="44.41217" lon="5.9507">
        <ele>634</ele>
        <time>2019-06-15T10:03:30Z</time>
      </trkpt>
      <trkpt lat="44.41212" lon="5.9507">
        <ele>634</ele>
        <time>2019-06-15T10:03:31Z</time>
      </trkpt>
      <trkpt lat="44.41207" lon="5.9507">
        <ele>634</ele>
        <time>2019-06-15T10:03:32Z</time>
      </trkpt>
      <trkpt lat="44.41203" lon="5.95071">
        <ele>635</ele>
        <time>2019-06-15T10:03:33Z</time>
      </trkpt>
      <trkpt lat="44.41198" lon="5.95071">
        <ele>635</ele>
        <time>2019-06-15T10:03:34Z</time>
      </trkpt>
      <trkpt lat="44.41192" lon="5.95071">
        <ele>635</ele>
        <time>2019-06-15T10:03:35Z</time>
      </trkpt>
      <trkpt lat="44.41187" lon="5.95071">
        <ele>635</ele>
        <time>2019-06-15T10:03:36Z</time>
      </trkpt>
      <trkpt lat="44.41182" lon="5.95072">
        <ele>635</ele>
        <time>2019-06-15T10:03:37Z</time>
      </trkpt>
      <trkpt lat="44.41177" lon="5.95073">
        <ele>635</ele>
        <time>2019-06-15T10:03:38Z</time>
      </trkpt>
      <trkpt lat="44.41172" lon="5.95074">
        <ele>635</ele>
        <time>2019-06-15T10:03:39Z</time>
      </trkpt>
      <trkpt lat="44.41166" lon="5.95075">
        <ele>635</ele>
        <time>2019-06-15T10:03:40Z</time>
      </trkpt>
      <trkpt lat="44.4116" lon="5.95077">
        <ele>635</ele>
        <time>2019-06-15T10:03:41Z</time>
      </trkpt>
      <trkpt lat="44.41154" lon="5.95079">
        <ele>635</ele>
        <time>2019-06-15T10:03:42Z</time>
      </trkpt>
      <trkpt lat="44.41147" lon="5.95081">
        <ele>635</ele>
        <time>2019-06-15T10:03:43Z</time>
      </trkpt>
      <trkpt lat="44.41139" lon="5.95083">
        <ele>635</ele>
        <time>2019-06-15T10:03:44Z</time>
      </trkpt>
      <trkpt lat="44.41131" lon="5.95086">
        <ele>635</ele>
        <time>2019-06-15T10:03:45Z</time>
      </trkpt>
      <trkpt lat="44.41123" lon="5.95088">
        <ele>635</ele>
        <time>2019-06-15T10:03:46Z</time>
      </trkpt>
      <trkpt lat="44.41115" lon="5.95091">
        <ele>635</ele>
        <time>2019-06-15T10:03:47Z</time>
      </trkpt>
      <trkpt lat="44.41108" lon="5.95093">
        <ele>635</ele>
        <time>2019-06-15T10:03:48Z</time>
      </trkpt>
      <trkpt lat="44.41101" lon="5.95094">
        <ele>635</ele>
        <time>2019-06-15T10:03:49Z</time>
      </trkpt>
      <trkpt lat="44.41094" lon="5.95094">
        <ele>635</ele>
        <time>2019-06-15T10:03:50Z</time>
      </trkpt>
      <trkpt lat="44.41087" lon="5.95093">
        <ele>635</ele>
        <time>2019-06-15T10:03:51Z</time>
      </trkpt>
      <trkpt lat="44.41079" lon="5.95091">
        <ele>635</ele>
        <time>2019-06-15T10:03:52Z</time>
      </trkpt>
      <trkpt lat="44.41072" lon="5.95089">
        <ele>634</ele>
        <time>2019-06-15T10:03:53Z</time>
      </trkpt>
      <trkpt lat="44.41063" lon="5.95086">
        <ele>633</ele>
        <time>2019-06-15T10:03:54Z</time>
      </trkpt>
      <trkpt lat="44.41055" lon="5.95083">
        <ele>632</ele>
        <time>2019-06-15T10:03:55Z</time>
      </trkpt>
      <trkpt lat="44.41045" lon="5.95079">
        <ele>631</ele>
        <time>2019-06-15T10:03:56Z</time>
      </trkpt>
      <trkpt lat="44.41036" lon="5.95076">
        <ele>630</ele>
        <time>2019-06-15T10:03:57Z</time>
      </trkpt>
      <trkpt lat="44.41027" lon="5.95073">
        <ele>629</ele>
        <time>2019-06-15T10:03:58Z</time>
      </trkpt>
      <trkpt lat="44.41017" lon="5.95069">
        <ele>628</ele>
        <time>2019-06-15T10:03:59Z</time>
      </trkpt>
      <trkpt lat="44.41007" lon="5.95066">
        <ele>627</ele>
        <time>2019-06-15T10:04:00Z</time>
      </trkpt>
      <trkpt lat="44.40998" lon="5.95062">
        <ele>626</ele>
        <time>2019-06-15T10:04:01Z</time>
      </trkpt>
      <trkpt lat="44.40989" lon="5.95057">
        <ele>625</ele>
        <time>2019-06-15T10:04:02Z</time>
      </trkpt>
      <trkpt lat="44.4098" lon="5.95052">
        <ele>624</ele>
        <time>2019-06-15T10:04:03Z</time>
      </trkpt>
      <trkpt lat="44.40971" lon="5.95047">
        <ele>624</ele>
        <time>2019-06-15T10:04:04Z</time>
      </trkpt>
      <trkpt lat="44.40963" lon="5.95041">
        <ele>623</ele>
        <time>2019-06-15T10:04:05Z</time>
      </trkpt>
      <trkpt lat="44.40955" lon="5.95034">
        <ele>622</ele>
        <time>2019-06-15T10:04:06Z</time>
      </trkpt>
      <trkpt lat="44.40947" lon="5.95027">
        <ele>621</ele>
        <time>2019-06-15T10:04:07Z</time>
      </trkpt>
      <trkpt lat="44.40939" lon="5.9502">
        <ele>621</ele>
        <time>2019-06-15T10:04:08Z</time>
      </trkpt>
      <trkpt lat="44.40931" lon="5.95016">
        <ele>620</ele>
        <time>2019-06-15T10:04:09Z</time>
      </trkpt>
      <trkpt lat="44.40923" lon="5.95012">
        <ele>619</ele>
        <time>2019-06-15T10:04:10Z</time>
      </trkpt>
      <trkpt lat="44.40914" lon="5.95011">
        <ele>618</ele>
        <time>2019-06-15T10:04:11Z</time>
      </trkpt>
      <trkpt lat="44.40905" lon="5.95013">
        <ele>617</ele>
        <time>2019-06-15T10:04:12Z</time>
      </trkpt>
      <trkpt lat="44.40895" lon="5.95018">
        <ele>617</ele>
        <time>2019-06-15T10:04:13Z</time>
      </trkpt>
      <trkpt lat="44.40886" lon="5.95025">
        <ele>617</ele>
        <time>2019-06-15T10:04:14Z</time>
      </trkpt>
      <trkpt lat="44.40878" lon="5.95032">
        <ele>616</ele>
        <time>2019-06-15T10:04:15Z</time>
      </trkpt>
      <trkpt lat="44.4087" lon="5.95037">
        <ele>616</ele>
        <time>2019-06-15T10:04:16Z</time>
      </trkpt>
      <trkpt lat="44.40862" lon="5.9504">
        <ele>615</ele>
        <time>2019-06-15T10:04:17Z</time>
      </trkpt>
      <trkpt lat="44.40854" lon="5.95041">
        <ele>615</ele>
        <time>2019-06-15T10:04:18Z</time>
      </trkpt>
      <trkpt lat="44.40845" lon="5.95041">
        <ele>614</ele>
        <time>2019-06-15T10:04:19Z</time>
      </trkpt>
      <trkpt lat="44.40837" lon="5.95039">
        <ele>614</ele>
        <time>2019-06-15T10:04:20Z</time>
      </trkpt>
      <trkpt lat="44.4083" lon="5.95038">
        <ele>614</ele>
        <time>2019-06-15T10:04:21Z</time>
      </trkpt>
      <trkpt lat="44.40822" lon="5.95037">
        <ele>614</ele>
        <time>2019-06-15T10:04:22Z</time>
      </trkpt>
      <trkpt lat="44.40816" lon="5.95035">
        <ele>614</ele>
        <time>2019-06-15T10:04:23Z</time>
      </trkpt>
      <trkpt lat="44.40809" lon="5.95034">
        <ele>614</ele>
        <time>2019-06-15T10:04:24Z</time>
      </trkpt>
      <trkpt lat="44.40802" lon="5.95033">
        <ele>614</ele>
        <time>2019-06-15T10:04:25Z</time>
      </trkpt>
      <trkpt lat="44.40796" lon="5.95032">
        <ele>614</ele>
        <time>2019-06-15T10:04:26Z</time>
      </trkpt>
      <trkpt lat="44.40789" lon="5.95031">
        <ele>614</ele>
        <time>2019-06-15T10:04:27Z</time>
      </trkpt>
      <trkpt lat="44.40784" lon="5.95031">
        <ele>614</ele>
        <time>2019-06-15T10:04:28Z</time>
      </trkpt>
      <trkpt lat="44.40779" lon="5.95032">
        <ele>614</ele>
        <time>2019-06-15T10:04:29Z</time>
      </trkpt>
      <trkpt lat="44.40773" lon="5.95033">
        <ele>614</ele>
        <time>2019-06-15T10:04:30Z</time>
      </trkpt>
      <trkpt lat="44.40767" lon="5.95033">
        <ele>614</ele>
        <time>2019-06-15T10:04:31Z</time>
      </trkpt>
      <trkpt lat="44.40761" lon="5.95034">
        <ele>614</ele>
        <time>2019-06-15T10:04:32Z</time>
      </trkpt>
      <trkpt lat="44.40755" lon="5.95034">
        <ele>614</ele>
        <time>2019-06-15T10:04:33Z</time>
      </trkpt>
      <trkpt lat="44.4075" lon="5.95035">
        <ele>614</ele>
        <time>2019-06-15T10:04:34Z</time>
      </trkpt>
      <trkpt lat="44.40744" lon="5.95035">
        <ele>614</ele>
        <time>2019-06-15T10:04:35Z</time>
      </trkpt>
      <trkpt lat="44.40739" lon="5.95036">
        <ele>614</ele>
        <time>2019-06-15T10:04:36Z</time>
      </trkpt>
      <trkpt lat="44.40734" lon="5.95037">
        <ele>614</ele>
        <time>2019-06-15T10:04:37Z</time>
      </trkpt>
      <trkpt lat="44.40728" lon="5.95037">
        <ele>614</ele>
        <time>2019-06-15T10:04:38Z</time>
      </trkpt>
      <trkpt lat="44.40723" lon="5.95038">
        <ele>614</ele>
        <time>2019-06-15T10:04:39Z</time>
      </trkpt>
      <trkpt lat="44.40717" lon="5.95038">
        <ele>614</ele>
        <time>2019-06-15T10:04:40Z</time>
      </trkpt>
      <trkpt lat="44.40711" lon="5.95039">
        <ele>614</ele>
        <time>2019-06-15T10:04:41Z</time>
      </trkpt>
      <trkpt lat="44.40705" lon="5.95039">
        <ele>614</ele>
        <time>2019-06-15T10:04:42Z</time>
      </trkpt>
      <trkpt lat="44.40698" lon="5.9504">
        <ele>614</ele>
        <time>2019-06-15T10:04:43Z</time>
      </trkpt>
      <trkpt lat="44.40692" lon="5.9504">
        <ele>614</ele>
        <time>2019-06-15T10:04:44Z</time>
      </trkpt>
      <trkpt lat="44.40686" lon="5.95041">
        <ele>614</ele>
        <time>2019-06-15T10:04:45Z</time>
      </trkpt>
      <trkpt lat="44.4068" lon="5.95042">
        <ele>614</ele>
        <time>2019-06-15T10:04:46Z</time>
      </trkpt>
      <trkpt lat="44.40673" lon="5.95043">
        <ele>614</ele>
        <time>2019-06-15T10:04:47Z</time>
      </trkpt>
      <trkpt lat="44.40667" lon="5.95045">
        <ele>614</ele>
        <time>2019-06-15T10:04:48Z</time>
      </trkpt>
      <trkpt lat="44.40662" lon="5.95047">
        <ele>614</ele>
        <time>2019-06-15T10:04:49Z</time>
      </trkpt>
      <trkpt lat="44.40656" lon="5.9505">
        <ele>614</ele>
        <time>2019-06-15T10:04:50Z</time>
      </trkpt>
      <trkpt lat="44.4065" lon="5.95052">
        <ele>614</ele>
        <time>2019-06-15T10:04:51Z</time>
      </trkpt>
      <trkpt lat="44.40644" lon="5.95055">
        <ele>614</ele>
        <time>2019-06-15T10:04:52Z</time>
      </trkpt>
      <trkpt lat="44.40637" lon="5.95057">
        <ele>614</ele>
        <time>2019-06-15T10:04:53Z</time>
      </trkpt>
      <trkpt lat="44.40631" lon="5.9506">
        <ele>614</ele>
        <time>2019-06-15T10:04:54Z</time>
      </trkpt>
      <trkpt lat="44.40624" lon="5.95063">
        <ele>614</ele>
        <time>2019-06-15T10:04:55Z</time>
      </trkpt>
      <trkpt lat="44.40617" lon="5.95065">
        <ele>613</ele>
        <time>2019-06-15T10:04:56Z</time>
      </trkpt>
      <trkpt lat="44.40609" lon="5.95067">
        <ele>613</ele>
        <time>2019-06-15T10:04:57Z</time>
      </trkpt>
      <trkpt lat="44.40601" lon="5.95069">
        <ele>613</ele>
        <time>2019-06-15T10:04:58Z</time>
      </trkpt>
      <trkpt lat="44.40593" lon="5.9507">
        <ele>612</ele>
        <time>2019-06-15T10:04:59Z</time>
      </trkpt>
      <trkpt lat="44.40585" lon="5.95071">
        <ele>612</ele>
        <time>2019-06-15T10:05:00Z</time>
      </trkpt>
      <trkpt lat="44.40576" lon="5.95072">
        <ele>612</ele>
        <time>2019-06-15T10:05:01Z</time>
      </trkpt>
      <trkpt lat="44.40567" lon="5.95073">
        <ele>611</ele>
        <time>2019-06-15T10:05:02Z</time>
      </trkpt>
      <trkpt lat="44.40559" lon="5.95074">
        <ele>611</ele>
        <time>2019-06-15T10:05:03Z</time>
      </trkpt>
      <trkpt lat="44.40551" lon="5.95075">
        <ele>610</ele>
        <time>2019-06-15T10:05:04Z</time>
      </trkpt>
      <trkpt lat="44.40544" lon="5.95077">
        <ele>610</ele>
        <time>2019-06-15T10:05:05Z</time>
      </trkpt>
      <trkpt lat="44.40538" lon="5.95078">
        <ele>610</ele>
        <time>2019-06-15T10:05:06Z</time>
      </trkpt>
      <trkpt lat="44.4053" lon="5.95078">
        <ele>609</ele>
        <time>2019-06-15T10:05:07Z</time>
      </trkpt>
      <trkpt lat="44.40523" lon="5.9508">
        <ele>609</ele>
        <time>2019-06-15T10:05:08Z</time>
      </trkpt>
      <trkpt lat="44.40514" lon="5.95082">
        <ele>609</ele>
        <time>2019-06-15T10:05:09Z</time>
      </trkpt>
      <trkpt lat="44.40507" lon="5.95084">
        <ele>608</ele>
        <time>2019-06-15T10:05:10Z</time>
      </trkpt>
      <trkpt lat="44.40499" lon="5.95085">
        <ele>608</ele>
        <time>2019-06-15T10:05:11Z</time>
      </trkpt>
      <trkpt lat="44.40491" lon="5.95086">
        <ele>608</ele>
        <time>2019-06-15T10:05:12Z</time>
      </trkpt>
      <trkpt lat="44.40484" lon="5.95086">
        <ele>608</ele>
        <time>2019-06-15T10:05:13Z</time>
      </trkpt>
      <trkpt lat="44.40476" lon="5.95083">
        <ele>607</ele>
        <time>2019-06-15T10:05:14Z</time>
      </trkpt>
      <trkpt lat="44.40468" lon="5.9508">
        <ele>607</ele>
        <time>2019-06-15T10:05:15Z</time>
      </trkpt>
      <trkpt lat="44.40459" lon="5.95076">
        <ele>606</ele>
        <time>2019-06-15T10:05:16Z</time>
      </trkpt>
      <trkpt lat="44.40451" lon="5.95071">
        <ele>606</ele>
        <time>2019-06-15T10:05:17Z</time>
      </trkpt>
      <trkpt lat="44.40443" lon="5.95066">
        <ele>605</ele>
        <time>2019-06-15T10:05:18Z</time>
      </trkpt>
      <trkpt lat="44.40435" lon="5.95061">
        <ele>604</ele>
        <time>2019-06-15T10:05:19Z</time>
      </trkpt>
      <trkpt lat="44.40426" lon="5.95056">
        <ele>603</ele>
        <time>2019-06-15T10:05:20Z</time>
      </trkpt>
      <trkpt lat="44.40418" lon="5.9505">
        <ele>602</ele>
        <time>2019-06-15T10:05:21Z</time>
      </trkpt>
      <trkpt lat="44.4041" lon="5.95045">
        <ele>602</ele>
        <time>2019-06-15T10:05:22Z</time>
      </trkpt>
      <trkpt lat="44.40402" lon="5.95039">
        <ele>601</ele>
        <time>2019-06-15T10:05:23Z</time>
      </trkpt>
      <trkpt lat="44.40394" lon="5.95033">
        <ele>600</ele>
        <time>2019-06-15T10:05:24Z</time>
      </trkpt>
      <trkpt lat="44.40387" lon="5.95026">
        <ele>600</ele>
        <time>2019-06-15T10:05:25Z</time>
      </trkpt>
      <trkpt lat="44.40379" lon="5.95018">
        <ele>599</ele>
        <time>2019-06-15T10:05:26Z</time>
      </trkpt>
      <trkpt lat="44.40372" lon="5.95011">
        <ele>598</ele>
        <time>2019-06-15T10:05:27Z</time>
      </trkpt>
      <trkpt lat="44.40365" lon="5.95004">
        <ele>598</ele>
        <time>2019-06-15T10:05:28Z</time>
      </trkpt>
      <trkpt lat="44.40358" lon="5.94998">
        <ele>598</ele>
        <time>2019-06-15T10:05:29Z</time>
      </trkpt>
      <trkpt lat="44.40353" lon="5.94994">
        <ele>597</ele>
        <time>2019-06-15T10:05:30Z</time>
      </trkpt>
      <trkpt lat="44.40347" lon="5.94992">
        <ele>597</ele>
        <time>2019-06-15T10:05:31Z</time>
      </trkpt>
      <trkpt lat="44.40341" lon="5.94991">
        <ele>597</ele>
        <time>2019-06-15T10:05:32Z</time>
      </trkpt>
      <trkpt lat="44.40336" lon="5.94987">
        <ele>597</ele>
        <time>2019-06-15T10:05:33Z</time>
      </trkpt>
      <trkpt lat="44.40332" lon="5.94982">
        <ele>597</ele>
        <time>2019-06-15T10:05:34Z</time>
      </trkpt>
      <trkpt lat="44.40329" lon="5.94975">
        <ele>597</ele>
        <time>2019-06-15T10:05:35Z</time>
      </trkpt>
      <trkpt lat="44.40327" lon="5.94969">
        <ele>597</ele>
        <time>2019-06-15T10:05:36Z</time>
      </trkpt>
      <trkpt lat="44.40324" lon="5.94962">
        <ele>597</ele>
        <time>2019-06-15T10:05:37Z</time>
      </trkpt>
      <trkpt lat="44.40321" lon="5.94955">
        <ele>597</ele>
        <time>2019-06-15T10:05:38Z</time>
      </trkpt>
      <trkpt lat="44.40319" lon="5.94949">
        <ele>597</ele>
        <time>2019-06-15T10:05:39Z</time>
      </trkpt>
      <trkpt lat="44.40316" lon="5.94943">
        <ele>597</ele>
        <time>2019-06-15T10:05:40Z</time>
      </trkpt>
      <trkpt lat="44.40313" lon="5.94937">
        <ele>597</ele>
        <time>2019-06-15T10:05:41Z</time>
      </trkpt>
      <trkpt lat="44.4031" lon="5.94931">
        <ele>597</ele>
        <time>2019-06-15T10:05:42Z</time>
      </trkpt>
      <trkpt lat="44.40308" lon="5.94925">
        <ele>597</ele>
        <time>2019-06-15T10:05:43Z</time>
      </trkpt>
      <trkpt lat="44.40305" lon="5.94919">
        <ele>597</ele>
        <time>2019-06-15T10:05:44Z</time>
      </trkpt>
      <trkpt lat="44.40302" lon="5.94913">
        <ele>597</ele>
        <time>2019-06-15T10:05:45Z</time>
      </trkpt>
      <trkpt lat="44.403" lon="5.94907">
        <ele>597</ele>
        <time>2019-06-15T10:05:46Z</time>
      </trkpt>
      <trkpt lat="44.40297" lon="5.94901">
        <ele>597</ele>
        <time>2019-06-15T10:05:47Z</time>
      </trkpt>
      <trkpt lat="44.40294" lon="5.94895">
        <ele>597</ele>
        <time>2019-06-15T10:05:48Z</time>
      </trkpt>
      <trkpt lat="44.40291" lon="5.94889">
        <ele>597</ele>
        <time>2019-06-15T10:05:49Z</time>
      </trkpt>
      <trkpt lat="44.40289" lon="5.94883">
        <ele>597</ele>
        <time>2019-06-15T10:05:50Z</time>
      </trkpt>
      <trkpt lat="44.40286" lon="5.94876">
        <ele>597</ele>
        <time>2019-06-15T10:05:51Z</time>
      </trkpt>
      <trkpt lat="44.40283" lon="5.9487">
        <ele>597</ele>
        <time>2019-06-15T10:05:52Z</time>
      </trkpt>
      <trkpt lat="44.4028" lon="5.94864">
        <ele>597</ele>
        <time>2019-06-15T10:05:53Z</time>
      </trkpt>
      <trkpt lat="44.40277" lon="5.94858">
        <ele>597</ele>
        <time>2019-06-15T10:05:54Z</time>
      </trkpt>
      <trkpt lat="44.40274" lon="5.94852">
        <ele>597</ele>
        <time>2019-06-15T10:05:55Z</time>
      </trkpt>
      <trkpt lat="44.40271" lon="5.94845">
        <ele>597</ele>
        <time>2019-06-15T10:05:56Z</time>
      </trkpt>
      <trkpt lat="44.40268" lon="5.94839">
        <ele>597</ele>
        <time>2019-06-15T10:05:57Z</time>
      </trkpt>
      <trkpt lat="44.40265" lon="5.94833">
        <ele>597</ele>
        <time>2019-06-15T10:05:58Z</time>
      </trkpt>
      <trkpt lat="44.40261" lon="5.94826">
        <ele>597</ele>
        <time>2019-06-15T10:05:59Z</time>
      </trkpt>
      <trkpt lat="44.40258" lon="5.94819">
        <ele>597</ele>
        <time>2019-06-15T10:06:00Z</time>
      </trkpt>
      <trkpt lat="44.40254" lon="5.94812">
        <ele>597</ele>
        <time>2019-06-15T10:06:01Z</time>
      </trkpt>
      <trkpt lat="44.4025" lon="5.94806">
        <ele>597</ele>
        <time>2019-06-15T10:06:02Z</time>
      </trkpt>
      <trkpt lat="44.40245" lon="5.948">
        <ele>597</ele>
        <time>2019-06-15T10:06:03Z</time>
      </trkpt>
      <trkpt lat="44.40241" lon="5.94794">
        <ele>597</ele>
        <time>2019-06-15T10:06:04Z</time>
      </trkpt>
      <trkpt lat="44.40237" lon="5.94788">
        <ele>597</ele>
        <time>2019-06-15T10:06:05Z</time>
      </trkpt>
      <trkpt lat="44.40232" lon="5.94782">
        <ele>597</ele>
        <time>2019-06-15T10:06:06Z</time>
      </trkpt>
      <trkpt lat="44.40228" lon="5.94776">
        <ele>597</ele>
        <time>2019-06-15T10:06:07Z</time>
      </trkpt>
      <trkpt lat="44.40224" lon="5.9477">
        <ele>597</ele>
        <time>2019-06-15T10:06:08Z</time>
      </trkpt>
      <trkpt lat="44.40219" lon="5.94764">
        <ele>597</ele>
        <time>2019-06-15T10:06:09Z</time>
      </trkpt>
      <trkpt lat="44.40214" lon="5.94758">
        <ele>597</ele>
        <time>2019-06-15T10:06:10Z</time>
      </trkpt>
      <trkpt lat="44.4021" lon="5.94752">
        <ele>597</ele>
        <time>2019-06-15T10:06:11Z</time>
      </trkpt>
      <trkpt lat="44.40205" lon="5.94745">
        <ele>597</ele>
        <time>2019-06-15T10:06:12Z</time>
      </trkpt>
      <trkpt lat="44.40199" lon="5.9474">
        <ele>597</ele>
        <time>2019-06-15T10:06:13Z</time>
      </trkpt>
      <trkpt lat="44.40194" lon="5.94734">
        <ele>597</ele>
        <time>2019-06-15T10:06:14Z</time>
      </trkpt>
      <trkpt lat="44.40189" lon="5.94729">
        <ele>597</ele>
        <time>2019-06-15T10:06:15Z</time>
      </trkpt>
      <trkpt lat="44.40183" lon="5.94723">
        <ele>597</ele>
        <time>2019-06-15T10:06:16Z</time>
      </trkpt>
      <trkpt lat="44.40177" lon="5.94718">
        <ele>597</ele>
        <time>2019-06-15T10:06:17Z</time>
      </trkpt>
      <trkpt lat="44.40171" lon="5.94713">
        <ele>597</ele>
        <time>2019-06-15T10:06:18Z</time>
      </trkpt>
      <trkpt lat="44.40165" lon="5.94708">
        <ele>597</ele>
        <time>2019-06-15T10:06:19Z</time>
      </trkpt>
      <trkpt lat="44.40158" lon="5.94703">
        <ele>597</ele>
        <time>2019-06-15T10:06:20Z</time>
      </trkpt>
      <trkpt lat="44.40152" lon="5.94698">
        <ele>597</ele>
        <time>2019-06-15T10:06:21Z</time>
      </trkpt>
      <trkpt lat="44.40146" lon="5.94694">
        <ele>597</ele>
        <time>2019-06-15T10:06:22Z</time>
      </trkpt>
      <trkpt lat="44.40139" lon="5.94689">
        <ele>597</ele>
        <time>2019-06-15T10:06:23Z</time>
      </trkpt>
      <trkpt lat="44.40133" lon="5.94685">
        <ele>597</ele>
        <time>2019-06-15T10:06:24Z</time>
      </trkpt>
      <trkpt lat="44.40126" lon="5.9468">
        <ele>597</ele>
        <time>2019-06-15T10:06:25Z</time>
      </trkpt>
      <trkpt lat="44.4012" lon="5.94676">
        <ele>597</ele>
        <time>2019-06-15T10:06:26Z</time>
      </trkpt>
      <trkpt lat="44.40114" lon="5.94672">
        <ele>597</ele>
        <time>2019-06-15T10:06:27Z</time>
      </trkpt>
      <trkpt lat="44.40107" lon="5.94668">
        <ele>597</ele>
        <time>2019-06-15T10:06:28Z</time>
      </trkpt>
      <trkpt lat="44.40101" lon="5.94663">
        <ele>597</ele>
        <time>2019-06-15T10:06:29Z</time>
      </trkpt>
      <trkpt lat="44.40094" lon="5.94659">
        <ele>597</ele>
        <time>2019-06-15T10:06:30Z</time>
      </trkpt>
      <trkpt lat="44.40088" lon="5.94655">
        <ele>597</ele>
        <time>2019-06-15T10:06:31Z</time>
      </trkpt>
      <trkpt lat="44.40081" lon="5.94651">
        <ele>597</ele>
        <time>2019-06-15T10:06:32Z</time>
      </trkpt>
      <trkpt lat="44.40075" lon="5.94647">
        <ele>597</ele>
        <time>2019-06-15T10:06:33Z</time>
      </trkpt>
      <trkpt lat="44.40068" lon="5.94643">
        <ele>597</ele>
        <time>2019-06-15T10:06:34Z</time>
      </trkpt>
      <trkpt lat="44.40062" lon="5.9464">
        <ele>597</ele>
        <time>2019-06-15T10:06:35Z</time>
      </trkpt>
      <trkpt lat="44.40055" lon="5.94637">
        <ele>597</ele>
        <time>2019-06-15T10:06:36Z</time>
      </trkpt>
      <trkpt lat="44.40049" lon="5.94634">
        <ele>597</ele>
        <time>2019-06-15T10:06:37Z</time>
      </trkpt>
      <trkpt lat="44.40042" lon="5.94632">
        <ele>597</ele>
        <time>2019-06-15T10:06:38Z</time>
      </trkpt>
      <trkpt lat="44.40036" lon="5.94629">
        <ele>597</ele>
        <time>2019-06-15T10:06:39Z</time>
      </trkpt>
      <trkpt lat="44.4003" lon="5.94627">
        <ele>597</ele>
        <time>2019-06-15T10:06:40Z</time>
      </trkpt>
      <trkpt lat="44.40023" lon="5.94624">
        <ele>597</ele>
        <time>2019-06-15T10:06:41Z</time>
      </trkpt>
      <trkpt lat="44.40017" lon="5.94622">
        <ele>597</ele>
        <time>2019-06-15T10:06:42Z</time>
      </trkpt>
      <trkpt lat="44.40011" lon="5.9462">
        <ele>597</ele>
        <time>2019-06-15T10:06:43Z</time>
      </trkpt>
      <trkpt lat="44.40004" lon="5.94617">
        <ele>597</ele>
        <time>2019-06-15T10:06:44Z</time>
      </trkpt>
      <trkpt lat="44.39998" lon="5.94615">
        <ele>597</ele>
        <time>2019-06-15T10:06:45Z</time>
      </trkpt>
      <trkpt lat="44.39991" lon="5.94612">
        <ele>597</ele>
        <time>2019-06-15T10:06:46Z</time>
      </trkpt>
      <trkpt lat="44.39985" lon="5.94609">
        <ele>597</ele>
        <time>2019-06-15T10:06:47Z</time>
      </trkpt>
      <trkpt lat="44.39979" lon="5.94607">
        <ele>597</ele>
        <time>2019-06-15T10:06:48Z</time>
      </trkpt>
      <trkpt lat="44.39973" lon="5.94604">
        <ele>597</ele>
        <time>2019-06-15T10:06:49Z</time>
      </trkpt>
      <trkpt lat="44.39966" lon="5.94602">
        <ele>597</ele>
        <time>2019-06-15T10:06:50Z</time>
      </trkpt>
      <trkpt lat="44.3996" lon="5.94599">
        <ele>597</ele>
        <time>2019-06-15T10:06:51Z</time>
      </trkpt>
      <trkpt lat="44.39954" lon="5.94597">
        <ele>597</ele>
        <time>2019-06-15T10:06:52Z</time>
      </trkpt>
      <trkpt lat="44.39948" lon="5.94594">
        <ele>597</ele>
        <time>2019-06-15T10:06:53Z</time>
      </trkpt>
      <trkpt lat="44.39942" lon="5.94592">
        <ele>597</ele>
        <time>2019-06-15T10:06:54Z</time>
      </trkpt>
      <trkpt lat="44.39936" lon="5.94589">
        <ele>597</ele>
        <time>2019-06-15T10:06:55Z</time>
      </trkpt>
      <trkpt lat="44.39929" lon="5.94586">
        <ele>597</ele>
        <time>2019-06-15T10:06:56Z</time>
      </trkpt>
      <trkpt lat="44.39923" lon="5.94582">
        <ele>597</ele>
        <time>2019-06-15T10:06:57Z</time>
      </trkpt>
      <trkpt lat="44.39917" lon="5.94578">
        <ele>597</ele>
        <time>2019-06-15T10:06:58Z</time>
      </trkpt>
      <trkpt lat="44.3991" lon="5.94574">
        <ele>597</ele>
        <time>2019-06-15T10:06:59Z</time>
      </trkpt>
      <trkpt lat="44.39903" lon="5.94569">
        <ele>597</ele>
        <time>2019-06-15T10:07:00Z</time>
      </trkpt>
      <trkpt lat="44.39896" lon="5.94564">
        <ele>597</ele>
        <time>2019-06-15T10:07:01Z</time>
      </trkpt>
      <trkpt lat="44.39889" lon="5.9456">
        <ele>597</ele>
        <time>2019-06-15T10:07:02Z</time>
      </trkpt>
      <trkpt lat="44.39882" lon="5.94555">
        <ele>597</ele>
        <time>2019-06-15T10:07:03Z</time>
      </trkpt>
      <trkpt lat="44.39875" lon="5.94549">
        <ele>597</ele>
        <time>2019-06-15T10:07:04Z</time>
      </trkpt>
      <trkpt lat="44.39869" lon="5.94544">
        <ele>597</ele>
        <time>2019-06-15T10:07:05Z</time>
      </trkpt>
      <trkpt lat="44.39862" lon="5.94537">
        <ele>597</ele>
        <time>2019-06-15T10:07:06Z</time>
      </trkpt>
      <trkpt lat="44.39856" lon="5.9453">
        <ele>596</ele>
        <time>2019-06-15T10:07:07Z</time>
      </trkpt>
      <trkpt lat="44.3985" lon="5.94523">
        <ele>596</ele>
        <time>2019-06-15T10:07:08Z</time>
      </trkpt>
      <trkpt lat="44.39844" lon="5.94517">
        <ele>595</ele>
        <time>2019-06-15T10:07:09Z</time>
      </trkpt>
      <trkpt lat="44.39838" lon="5.94511">
        <ele>595</ele>
        <time>2019-06-15T10:07:10Z</time>
      </trkpt>
      <trkpt lat="44.39832" lon="5.94505">
        <ele>595</ele>
        <time>2019-06-15T10:07:11Z</time>
      </trkpt>
      <trkpt lat="44.39826" lon="5.945">
        <ele>594</ele>
        <time>2019-06-15T10:07:12Z</time>
      </trkpt>
      <trkpt lat="44.39819" lon="5.94494">
        <ele>594</ele>
        <time>2019-06-15T10:07:13Z</time>
      </trkpt>
      <trkpt lat="44.39813" lon="5.94489">
        <ele>593</ele>
        <time>2019-06-15T10:07:14Z</time>
      </trkpt>
      <trkpt lat="44.39806" lon="5.94484">
        <ele>593</ele>
        <time>2019-06-15T10:07:15Z</time>
      </trkpt>
      <trkpt lat="44.39799" lon="5.94478">
        <ele>593</ele>
        <time>2019-06-15T10:07:16Z</time>
      </trkpt>
      <trkpt lat="44.39792" lon="5.94472">
        <ele>593</ele>
        <time>2019-06-15T10:07:17Z</time>
      </trkpt>
      <trkpt lat="44.39785" lon="5.94466">
        <ele>593</ele>
        <time>2019-06-15T10:07:18Z</time>
      </trkpt>
      <trkpt lat="44.39778" lon="5.94461">
        <ele>592</ele>
        <time>2019-06-15T10:07:19Z</time>
      </trkpt>
      <trkpt lat="44.39771" lon="5.94455">
        <ele>592</ele>
        <time>2019-06-15T10:07:20Z</time>
      </trkpt>
      <trkpt lat="44.39763" lon="5.9445">
        <ele>591</ele>
        <time>2019-06-15T10:07:21Z</time>
      </trkpt>
      <trkpt lat="44.39756" lon="5.94446">
        <ele>591</ele>
        <time>2019-06-15T10:07:22Z</time>
      </trkpt>
      <trkpt lat="44.39748" lon="5.94441">
        <ele>590</ele>
        <time>2019-06-15T10:07:23Z</time>
      </trkpt>
      <trkpt lat="44.3974" lon="5.94436">
        <ele>589</ele>
        <time>2019-06-15T10:07:24Z</time>
      </trkpt>
      <trkpt lat="44.39731" lon="5.9443">
        <ele>589</ele>
        <time>2019-06-15T10:07:25Z</time>
      </trkpt>
      <trkpt lat="44.39722" lon="5.94425">
        <ele>589</ele>
        <time>2019-06-15T10:07:26Z</time>
      </trkpt>
      <trkpt lat="44.39714" lon="5.94421">
        <ele>588</ele>
        <time>2019-06-15T10:07:27Z</time>
      </trkpt>
      <trkpt lat="44.39705" lon="5.94416">
        <ele>588</ele>
        <time>2019-06-15T10:07:28Z</time>
      </trkpt>
      <trkpt lat="44.39697" lon="5.9441">
        <ele>588</ele>
        <time>2019-06-15T10:07:29Z</time>
      </trkpt>
      <trkpt lat="44.39688" lon="5.94404">
        <ele>587</ele>
        <time>2019-06-15T10:07:30Z</time>
      </trkpt>
      <trkpt lat="44.39679" lon="5.94398">
        <ele>587</ele>
        <time>2019-06-15T10:07:31Z</time>
      </trkpt>
      <trkpt lat="44.39671" lon="5.94393">
        <ele>586</ele>
        <time>2019-06-15T10:07:32Z</time>
      </trkpt>
      <trkpt lat="44.39662" lon="5.94387">
        <ele>585</ele>
        <time>2019-06-15T10:07:33Z</time>
      </trkpt>
      <trkpt lat="44.39653" lon="5.94382">
        <ele>585</ele>
        <time>2019-06-15T10:07:34Z</time>
      </trkpt>
      <trkpt lat="44.39644" lon="5.94375">
        <ele>584</ele>
        <time>2019-06-15T10:07:35Z</time>
      </trkpt>
      <trkpt lat="44.39635" lon="5.94369">
        <ele>583</ele>
        <time>2019-06-15T10:07:36Z</time>
      </trkpt>
      <trkpt lat="44.39625" lon="5.94363">
        <ele>583</ele>
        <time>2019-06-15T10:07:37Z</time>
      </trkpt>
      <trkpt lat="44.39616" lon="5.94356">
        <ele>583</ele>
        <time>2019-06-15T10:07:38Z</time>
      </trkpt>
      <trkpt lat="44.39608" lon="5.9435">
        <ele>582</ele>
        <time>2019-06-15T10:07:39Z</time>
      </trkpt>
      <trkpt lat="44.396" lon="5.94344">
        <ele>582</ele>
        <time>2019-06-15T10:07:40Z</time>
      </trkpt>
      <trkpt lat="44.39592" lon="5.94338">
        <ele>582</ele>
        <time>2019-06-15T10:07:41Z</time>
      </trkpt>
      <trkpt lat="44.39584" lon="5.94331">
        <ele>582</ele>
        <time>2019-06-15T10:07:42Z</time>
      </trkpt>
      <trkpt lat="44.39576" lon="5.94325">
        <ele>582</ele>
        <time>2019-06-15T10:07:43Z</time>
      </trkpt>
      <trkpt lat="44.39568" lon="5.94319">
        <ele>582</ele>
        <time>2019-06-15T10:07:44Z</time>
      </trkpt>
      <trkpt lat="44.39561" lon="5.94312">
        <ele>582</ele>
        <time>2019-06-15T10:07:45Z</time>
      </trkpt>
      <trkpt lat="44.39554" lon="5.94306">
        <ele>582</ele>
        <time>2019-06-15T10:07:46Z</time>
      </trkpt>
      <trkpt lat="44.39547" lon="5.94301">
        <ele>582</ele>
        <time>2019-06-15T10:07:47Z</time>
      </trkpt>
      <trkpt lat="44.3954" lon="5.94295">
        <ele>582</ele>
        <time>2019-06-15T10:07:48Z</time>
      </trkpt>
      <trkpt lat="44.39533" lon="5.9429">
        <ele>582</ele>
        <time>2019-06-15T10:07:49Z</time>
      </trkpt>
      <trkpt lat="44.39526" lon="5.94284">
        <ele>582</ele>
        <time>2019-06-15T10:07:50Z</time>
      </trkpt>
      <trkpt lat="44.3952" lon="5.94279">
        <ele>582</ele>
        <time>2019-06-15T10:07:51Z</time>
      </trkpt>
      <trkpt lat="44.39513" lon="5.94274">
        <ele>582</ele>
        <time>2019-06-15T10:07:52Z</time>
      </trkpt>
      <trkpt lat="44.39506" lon="5.94268">
        <ele>582</ele>
        <time>2019-06-15T10:07:53Z</time>
      </trkpt>
      <trkpt lat="44.395" lon="5.94263">
        <ele>581</ele>
        <time>2019-06-15T10:07:54Z</time>
      </trkpt>
      <trkpt lat="44.39493" lon="5.94257">
        <ele>581</ele>
        <time>2019-06-15T10:07:55Z</time>
      </trkpt>
      <trkpt lat="44.39487" lon="5.94251">
        <ele>581</ele>
        <time>2019-06-15T10:07:56Z</time>
      </trkpt>
      <trkpt lat="44.39481" lon="5.94245">
        <ele>581</ele>
        <time>2019-06-15T10:07:57Z</time>
      </trkpt>
      <trkpt lat="44.39474" lon="5.9424">
        <ele>580</ele>
        <time>2019-06-15T10:07:58Z</time>
      </trkpt>
      <trkpt lat="44.39468" lon="5.94234">
        <ele>580</ele>
        <time>2019-06-15T10:07:59Z</time>
      </trkpt>
      <trkpt lat="44.39462" lon="5.94229">
        <ele>580</ele>
        <time>2019-06-15T10:08:00Z</time>
      </trkpt>
      <trkpt lat="44.39456" lon="5.94224">
        <ele>580</ele>
        <time>2019-06-15T10:08:01Z</time>
      </trkpt>
      <trkpt lat="44.3945" lon="5.94219">
        <ele>580</ele>
        <time>2019-06-15T10:08:02Z</time>
      </trkpt>
      <trkpt lat="44.39444" lon="5.94214">
        <ele>580</ele>
        <time>2019-06-15T10:08:03Z</time>
      </trkpt>
      <trkpt lat="44.39438" lon="5.94209">
        <ele>579</ele>
        <time>2019-06-15T10:08:04Z</time>
      </trkpt>
      <trkpt lat="44.39432" lon="5.94204">
        <ele>579</ele>
        <time>2019-06-15T10:08:05Z</time>
      </trkpt>
      <trkpt lat="44.39426" lon="5.94199">
        <ele>579</ele>
        <time>2019-06-15T10:08:06Z</time>
      </trkpt>
      <trkpt lat="44.3942" lon="5.94193">
        <ele>579</ele>
        <time>2019-06-15T10:08:07Z</time>
      </trkpt>
      <trkpt lat="44.39414" lon="5.94188">
        <ele>579</ele>
        <time>2019-06-15T10:08:08Z</time>
      </trkpt>
      <trkpt lat="44.39408" lon="5.94182">
        <ele>579</ele>
        <time>2019-06-15T10:08:09Z</time>
      </trkpt>
      <trkpt lat="44.39403" lon="5.94177">
        <ele>579</ele>
        <time>2019-06-15T10:08:10Z</time>
      </trkpt>
      <trkpt lat="44.39397" lon="5.94172">
        <ele>579</ele>
        <time>2019-06-15T10:08:11Z</time>
      </trkpt>
      <trkpt lat="44.39391" lon="5.94167">
        <ele>579</ele>
        <time>2019-06-15T10:08:12Z</time>
      </trkpt>
      <trkpt lat="44.39386" lon="5.94163">
        <ele>579</ele>
        <time>2019-06-15T10:08:13Z</time>
      </trkpt>
      <trkpt lat="44.3938" lon="5.94158">
        <ele>579</ele>
        <time>2019-06-15T10:08:14Z</time>
      </trkpt>
      <trkpt lat="44.39374" lon="5.94154">
        <ele>579</ele>
        <time>2019-06-15T10:08:15Z</time>
      </trkpt>
      <trkpt lat="44.39368" lon="5.94149">
        <ele>579</ele>
        <time>2019-06-15T10:08:16Z</time>
      </trkpt>
      <trkpt lat="44.39362" lon="5.94144">
        <ele>579</ele>
        <time>2019-06-15T10:08:17Z</time>
      </trkpt>
      <trkpt lat="44.39356" lon="5.94139">
        <ele>579</ele>
        <time>2019-06-15T10:08:18Z</time>
      </trkpt>
      <trkpt lat="44.3935" lon="5.94134">
        <ele>579</ele>
        <time>2019-06-15T10:08:19Z</time>
      </trkpt>
      <trkpt lat="44.39344" lon="5.94129">
        <ele>579</ele>
        <time>2019-06-15T10:08:20Z</time>
      </trkpt>
      <trkpt lat="44.39337" lon="5.94124">
        <ele>579</ele>
        <time>2019-06-15T10:08:21Z</time>
      </trkpt>
      <trkpt lat="44.39331" lon="5.94118">
        <ele>579</ele>
        <time>2019-06-15T10:08:22Z</time>
      </trkpt>
      <trkpt lat="44.39325" lon="5.94113">
        <ele>579</ele>
        <time>2019-06-15T10:08:23Z</time>
      </trkpt>
      <trkpt lat="44.39318" lon="5.94109">
        <ele>579</ele>
        <time>2019-06-15T10:08:24Z</time>
      </trkpt>
      <trkpt lat="44.39312" lon="5.94103">
        <ele>579</ele>
        <time>2019-06-15T10:08:25Z</time>
      </trkpt>
      <trkpt lat="44.39306" lon="5.94098">
        <ele>579</ele>
        <time>2019-06-15T10:08:26Z</time>
      </trkpt>
      <trkpt lat="44.39299" lon="5.94092">
        <ele>579</ele>
        <time>2019-06-15T10:08:27Z</time>
      </trkpt>
      <trkpt lat="44.39293" lon="5.94087">
        <ele>579</ele>
        <time>2019-06-15T10:08:28Z</time>
      </trkpt>
      <trkpt lat="44.39287" lon="5.94082">
        <ele>579</ele>
        <time>2019-06-15T10:08:29Z</time>
      </trkpt>
      <trkpt lat="44.39281" lon="5.94077">
        <ele>579</ele>
        <time>2019-06-15T10:08:30Z</time>
      </trkpt>
      <trkpt lat="44.39275" lon="5.94072">
        <ele>579</ele>
        <time>2019-06-15T10:08:31Z</time>
      </trkpt>
      <trkpt lat="44.39269" lon="5.94067">
        <ele>579</ele>
        <time>2019-06-15T10:08:32Z</time>
      </trkpt>
      <trkpt lat="44.39263" lon="5.94062">
        <ele>579</ele>
        <time>2019-06-15T10:08:33Z</time>
      </trkpt>
      <trkpt lat="44.39257" lon="5.94057">
        <ele>579</ele>
        <time>2019-06-15T10:08:34Z</time>
      </trkpt>
      <trkpt lat="44.39251" lon="5.94052">
        <ele>579</ele>
        <time>2019-06-15T10:08:35Z</time>
      </trkpt>
      <trkpt lat="44.39245" lon="5.94047">
        <ele>579</ele>
        <time>2019-06-15T10:08:36Z</time>
      </trkpt>
      <trkpt lat="44.39238" lon="5.94043">
        <ele>579</ele>
        <time>2019-06-15T10:08:37Z</time>
      </trkpt>
      <trkpt lat="44.39233" lon="5.94038">
        <ele>579</ele>
        <time>2019-06-15T10:08:38Z</time>
      </trkpt>
      <trkpt lat="44.39226" lon="5.94032">
        <ele>579</ele>
        <time>2019-06-15T10:08:39Z</time>
      </trkpt>
      <trkpt lat="44.3922" lon="5.94028">
        <ele>579</ele>
        <time>2019-06-15T10:08:40Z</time>
      </trkpt>
      <trkpt lat="44.39214" lon="5.94023">
        <ele>579</ele>
        <time>2019-06-15T10:08:41Z</time>
      </trkpt>
      <trkpt lat="44.39209" lon="5.94018">
        <ele>579</ele>
        <time>2019-06-15T10:08:42Z</time>
      </trkpt>
      <trkpt lat="44.39202" lon="5.94013">
        <ele>579</ele>
        <time>2019-06-15T10:08:43Z</time>
      </trkpt>
      <trkpt lat="44.39196" lon="5.94008">
        <ele>579</ele>
        <time>2019-06-15T10:08:44Z</time>
      </trkpt>
      <trkpt lat="44.39191" lon="5.94003">
        <ele>579</ele>
        <time>2019-06-15T10:08:45Z</time>
      </trkpt>
      <trkpt lat="44.39185" lon="5.93998">
        <ele>579</ele>
        <time>2019-06-15T10:08:46Z</time>
      </trkpt>
      <trkpt lat="44.3918" lon="5.93994">
        <ele>579</ele>
        <time>2019-06-15T10:08:47Z</time>
      </trkpt>
      <trkpt lat="44.39174" lon="5.93989">
        <ele>579</ele>
        <time>2019-06-15T10:08:48Z</time>
      </trkpt>
      <trkpt lat="44.39169" lon="5.93984">
        <ele>579</ele>
        <time>2019-06-15T10:08:49Z</time>
      </trkpt>
      <trkpt lat="44.39163" lon="5.93979">
        <ele>579</ele>
        <time>2019-06-15T10:08:50Z</time>
      </trkpt>
      <trkpt lat="44.39158" lon="5.93974">
        <ele>579</ele>
        <time>2019-06-15T10:08:51Z</time>
      </trkpt>
      <trkpt lat="44.39153" lon="5.9397">
        <ele>579</ele>
        <time>2019-06-15T10:08:52Z</time>
      </trkpt>
      <trkpt lat="44.39148" lon="5.93966">
        <ele>579</ele>
        <time>2019-06-15T10:08:53Z</time>
      </trkpt>
      <trkpt lat="44.39143" lon="5.93962">
        <ele>579</ele>
        <time>2019-06-15T10:08:54Z</time>
      </trkpt>
      <trkpt lat="44.39137" lon="5.93957">
        <ele>579</ele>
        <time>2019-06-15T10:08:55Z</time>
      </trkpt>
      <trkpt lat="44.39132" lon="5.93953">
        <ele>579</ele>
        <time>2019-06-15T10:08:56Z</time>
      </trkpt>
      <trkpt lat="44.39127" lon="5.93948">
        <ele>579</ele>
        <time>2019-06-15T10:08:57Z</time>
      </trkpt>
      <trkpt lat="44.39122" lon="5.93943">
        <ele>579</ele>
        <time>2019-06-15T10:08:58Z</time>
      </trkpt>
      <trkpt lat="44.39117" lon="5.93939">
        <ele>579</ele>
        <time>2019-06-15T10:08:59Z</time>
      </trkpt>
      <trkpt lat="44.39112" lon="5.93935">
        <ele>579</ele>
        <time>2019-06-15T10:09:00Z</time>
      </trkpt>
      <trkpt lat="44.39107" lon="5.9393">
        <ele>579</ele>
        <time>2019-06-15T10:09:01Z</time>
      </trkpt>
      <trkpt lat="44.39102" lon="5.93926">
        <ele>579</ele>
        <time>2019-06-15T10:09:02Z</time>
      </trkpt>
      <trkpt lat="44.39096" lon="5.93922">
        <ele>579</ele>
        <time>2019-06-15T10:09:03Z</time>
      </trkpt>
      <trkpt lat="44.39091" lon="5.93918">
        <ele>579</ele>
        <time>2019-06-15T10:09:04Z</time>
      </trkpt>
      <trkpt lat="44.39086" lon="5.93914">
        <ele>579</ele>
        <time>2019-06-15T10:09:05Z</time>
      </trkpt>
      <trkpt lat="44.39081" lon="5.93909">
        <ele>579</ele>
        <time>2019-06-15T10:09:06Z</time>
      </trkpt>
      <trkpt lat="44.39076" lon="5.93905">
        <ele>579</ele>
        <time>2019-06-15T10:09:07Z</time>
      </trkpt>
      <trkpt lat="44.39071" lon="5.939">
        <ele>579</ele>
        <time>2019-06-15T10:09:08Z</time>
      </trkpt>
      <trkpt lat="44.39066" lon="5.93896">
        <ele>579</ele>
        <time>2019-06-15T10:09:09Z</time>
      </trkpt>
      <trkpt lat="44.39062" lon="5.93891">
        <ele>579</ele>
        <time>2019-06-15T10:09:10Z</time>
      </trkpt>
      <trkpt lat="44.39058" lon="5.93887">
        <ele>579</ele>
        <time>2019-06-15T10:09:11Z</time>
      </trkpt>
      <trkpt lat="44.39053" lon="5.93883">
        <ele>579</ele>
        <time>2019-06-15T10:09:12Z</time>
      </trkpt>
      <trkpt lat="44.39048" lon="5.93878">
        <ele>579</ele>
        <time>2019-06-15T10:09:13Z</time>
      </trkpt>
      <trkpt lat="44.39042" lon="5.93874">
        <ele>579</ele>
        <time>2019-06-15T10:09:14Z</time>
      </trkpt>
      <trkpt lat="44.39037" lon="5.93869">
        <ele>579</ele>
        <time>2019-06-15T10:09:15Z</time>
      </trkpt>
      <trkpt lat="44.39032" lon="5.93865">
        <ele>579</ele>
        <time>2019-06-15T10:09:16Z</time>
      </trkpt>
      <trkpt lat="44.39026" lon="5.93861">
        <ele>579</ele>
        <time>2019-06-15T10:09:17Z</time>
      </trkpt>
      <trkpt lat="44.39021" lon="5.93857">
        <ele>579</ele>
        <time>2019-06-15T10:09:18Z</time>
      </trkpt>
      <trkpt lat="44.39016" lon="5.93852">
        <ele>579</ele>
        <time>2019-06-15T10:09:19Z</time>
      </trkpt>
      <trkpt lat="44.39011" lon="5.93848">
        <ele>579</ele>
        <time>2019-06-15T10:09:20Z</time>
      </trkpt>
      <trkpt lat="44.39006" lon="5.93844">
        <ele>579</ele>
        <time>2019-06-15T10:09:21Z</time>
      </trkpt>
      <trkpt lat="44.39" lon="5.93839">
        <ele>579</ele>
        <time>2019-06-15T10:09:22Z</time>
      </trkpt>
      <trkpt lat="44.38995" lon="5.93835">
        <ele>579</ele>
        <time>2019-06-15T10:09:23Z</time>
      </trkpt>
      <trkpt lat="44.3899" lon="5.93831">
        <ele>579</ele>
        <time>2019-06-15T10:09:24Z</time>
      </trkpt>
      <trkpt lat="44.38984" lon="5.93826">
        <ele>579</ele>
        <time>2019-06-15T10:09:25Z</time>
      </trkpt>
      <trkpt lat="44.38979" lon="5.93822">
        <ele>579</ele>
        <time>2019-06-15T10:09:26Z</time>
      </trkpt>
      <trkpt lat="44.38973" lon="5.93818">
        <ele>579</ele>
        <time>2019-06-15T10:09:27Z</time>
      </trkpt>
      <trkpt lat="44.38968" lon="5.93814">
        <ele>579</ele>
        <time>2019-06-15T10:09:28Z</time>
      </trkpt>
      <trkpt lat="44.38963" lon="5.93809">
        <ele>579</ele>
        <time>2019-06-15T10:09:29Z</time>
      </trkpt>
      <trkpt lat="44.38957" lon="5.93805">
        <ele>579</ele>
        <time>2019-06-15T10:09:30Z</time>
      </trkpt>
      <trkpt lat="44.38952" lon="5.938">
        <ele>579</ele>
        <time>2019-06-15T10:09:31Z</time>
      </trkpt>
      <trkpt lat="44.38946" lon="5.93796">
        <ele>579</ele>
        <time>2019-06-15T10:09:32Z</time>
      </trkpt>
      <trkpt lat="44.38941" lon="5.93791">
        <ele>579</ele>
        <time>2019-06-15T10:09:33Z</time>
      </trkpt>
      <trkpt lat="44.38936" lon="5.93787">
        <ele>579</ele>
        <time>2019-06-15T10:09:34Z</time>
      </trkpt>
      <trkpt lat="44.3893" lon="5.93783">
        <ele>579</ele>
        <time>2019-06-15T10:09:35Z</time>
      </trkpt>
      <trkpt lat="44.38925" lon="5.93779">
        <ele>579</ele>
        <time>2019-06-15T10:09:36Z</time>
      </trkpt>
      <trkpt lat="44.3892" lon="5.93774">
        <ele>579</ele>
        <time>2019-06-15T10:09:37Z</time>
      </trkpt>
      <trkpt lat="44.38915" lon="5.9377">
        <ele>579</ele>
        <time>2019-06-15T10:09:38Z</time>
      </trkpt>
      <trkpt lat="44.3891" lon="5.93766">
        <ele>579</ele>
        <time>2019-06-15T10:09:39Z</time>
      </trkpt>
      <trkpt lat="44.38905" lon="5.93761">
        <ele>579</ele>
        <time>2019-06-15T10:09:40Z</time>
      </trkpt>
      <trkpt lat="44.38899" lon="5.93757">
        <ele>579</ele>
        <time>2019-06-15T10:09:41Z</time>
      </trkpt>
      <trkpt lat="44.38894" lon="5.93753">
        <ele>579</ele>
        <time>2019-06-15T10:09:42Z</time>
      </trkpt>
      <trkpt lat="44.38889" lon="5.93748">
        <ele>579</ele>
        <time>2019-06-15T10:09:43Z</time>
      </trkpt>
      <trkpt lat="44.38884" lon="5.93743">
        <ele>578</ele>
        <time>2019-06-15T10:09:44Z</time>
      </trkpt>
      <trkpt lat="44.38878" lon="5.93739">
        <ele>578</ele>
        <time>2019-06-15T10:09:45Z</time>
      </trkpt>
      <trkpt lat="44.38873" lon="5.93735">
        <ele>578</ele>
        <time>2019-06-15T10:09:46Z</time>
      </trkpt>
      <trkpt lat="44.38867" lon="5.9373">
        <ele>578</ele>
        <time>2019-06-15T10:09:47Z</time>
      </trkpt>
      <trkpt lat="44.38862" lon="5.93726">
        <ele>578</ele>
        <time>2019-06-15T10:09:48Z</time>
      </trkpt>
      <trkpt lat="44.38856" lon="5.93722">
        <ele>578</ele>
        <time>2019-06-15T10:09:49Z</time>
      </trkpt>
      <trkpt lat="44.38851" lon="5.93717">
        <ele>578</ele>
        <time>2019-06-15T10:09:50Z</time>
      </trkpt>
      <trkpt lat="44.38845" lon="5.93713">
        <ele>578</ele>
        <time>2019-06-15T10:09:51Z</time>
      </trkpt>
      <trkpt lat="44.3884" lon="5.93708">
        <ele>578</ele>
        <time>2019-06-15T10:09:52Z</time>
      </trkpt>
      <trkpt lat="44.38834" lon="5.93704">
        <ele>578</ele>
        <time>2019-06-15T10:09:53Z</time>
      </trkpt>
      <trkpt lat="44.38829" lon="5.937">
        <ele>578</ele>
        <time>2019-06-15T10:09:54Z</time>
      </trkpt>
      <trkpt lat="44.38824" lon="5.93695">
        <ele>578</ele>
        <time>2019-06-15T10:09:55Z</time>
      </trkpt>
      <trkpt lat="44.38819" lon="5.93691">
        <ele>578</ele>
        <time>2019-06-15T10:09:56Z</time>
      </trkpt>
      <trkpt lat="44.38815" lon="5.93687">
        <ele>578</ele>
        <time>2019-06-15T10:09:57Z</time>
      </trkpt>
      <trkpt lat="44.3881" lon="5.93682">
        <ele>578</ele>
        <time>2019-06-15T10:09:58Z</time>
      </trkpt>
      <trkpt lat="44.38806" lon="5.93679">
        <ele>578</ele>
        <time>2019-06-15T10:09:59Z</time>
      </trkpt>
      <trkpt lat="44.38802" lon="5.93675">
        <ele>578</ele>
        <time>2019-06-15T10:10:00Z</time>
      </trkpt>
      <trkpt lat="44.38798" lon="5.93672">
        <ele>578</ele>
        <time>2019-06-15T10:10:01Z</time>
      </trkpt>
      <trkpt lat="44.38794" lon="5.93668">
        <ele>578</ele>
        <time>2019-06-15T10:10:02Z</time>
      </trkpt>
      <trkpt lat="44.3879" lon="5.93665">
        <ele>578</ele>
        <time>2019-06-15T10:10:03Z</time>
      </trkpt>
      <trkpt lat="44.38786" lon="5.93662">
        <ele>578</ele>
        <time>2019-06-15T10:10:04Z</time>
      </trkpt>
      <trkpt lat="44.38783" lon="5.93659">
        <ele>578</ele>
        <time>2019-06-15T10:10:05Z</time>
      </trkpt>
      <trkpt lat="44.38779" lon="5.93656">
        <ele>578</ele>
        <time>2019-06-15T10:10:06Z</time>
      </trkpt>
      <trkpt lat="44.38775" lon="5.93653">
        <ele>578</ele>
        <time>2019-06-15T10:10:07Z</time>
      </trkpt>
      <trkpt lat="44.38771" lon="5.9365">
        <ele>578</ele>
        <time>2019-06-15T10:10:08Z</time>
      </trkpt>
      <trkpt lat="44.38768" lon="5.93647">
        <ele>578</ele>
        <time>2019-06-15T10:10:09Z</time>
      </trkpt>
      <trkpt lat="44.38764" lon="5.93644">
        <ele>578</ele>
        <time>2019-06-15T10:10:10Z</time>
      </trkpt>
      <trkpt lat="44.3876" lon="5.9364">
        <ele>578</ele>
        <time>2019-06-15T10:10:11Z</time>
      </trkpt>
      <trkpt lat="44.38757" lon="5.93637">
        <ele>578</ele>
        <time>2019-06-15T10:10:12Z</time>
      </trkpt>
      <trkpt lat="44.38753" lon="5.93633">
        <ele>578</ele>
        <time>2019-06-15T10:10:13Z</time>
      </trkpt>
      <trkpt lat="44.38749" lon="5.9363">
        <ele>578</ele>
        <time>2019-06-15T10:10:14Z</time>
      </trkpt>
      <trkpt lat="44.38744" lon="5.93627">
        <ele>578</ele>
        <time>2019-06-15T10:10:15Z</time>
      </trkpt>
      <trkpt lat="44.38741" lon="5.93623">
        <ele>578</ele>
        <time>2019-06-15T10:10:16Z</time>
      </trkpt>
      <trkpt lat="44.38737" lon="5.9362">
        <ele>578</ele>
        <time>2019-06-15T10:10:17Z</time>
      </trkpt>
      <trkpt lat="44.38734" lon="5.93617">
        <ele>578</ele>
        <time>2019-06-15T10:10:18Z</time>
      </trkpt>
      <trkpt lat="44.3873" lon="5.93613">
        <ele>578</ele>
        <time>2019-06-15T10:10:19Z</time>
      </trkpt>
      <trkpt lat="44.38727" lon="5.9361">
        <ele>578</ele>
        <time>2019-06-15T10:10:20Z</time>
      </trkpt>
      <trkpt lat="44.38723" lon="5.93607">
        <ele>578</ele>
        <time>2019-06-15T10:10:21Z</time>
      </trkpt>
      <trkpt lat="44.3872" lon="5.93605">
        <ele>578</ele>
        <time>2019-06-15T10:10:22Z</time>
      </trkpt>
      <trkpt lat="44.38717" lon="5.93602">
        <ele>578</ele>
        <time>2019-06-15T10:10:23Z</time>
      </trkpt>
      <trkpt lat="44.38715" lon="5.936">
        <ele>578</ele>
        <time>2019-06-15T10:10:24Z</time>
      </trkpt>
      <trkpt lat="44.38712" lon="5.93598">
        <ele>578</ele>
        <time>2019-06-15T10:10:25Z</time>
      </trkpt>
      <trkpt lat="44.3871" lon="5.93596">
        <ele>578</ele>
        <time>2019-06-15T10:10:26Z</time>
      </trkpt>
      <trkpt lat="44.38706" lon="5.93594">
        <ele>578</ele>
        <time>2019-06-15T10:10:27Z</time>
      </trkpt>
      <trkpt lat="44.38703" lon="5.93592">
        <ele>578</ele>
        <time>2019-06-15T10:10:28Z</time>
      </trkpt>
      <trkpt lat="44.38699" lon="5.9359">
        <ele>578</ele>
        <time>2019-06-15T10:10:29Z</time>
      </trkpt>
      <trkpt lat="44.38696" lon="5.93587">
        <ele>578</ele>
        <time>2019-06-15T10:10:30Z</time>
      </trkpt>
      <trkpt lat="44.38691" lon="5.93584">
        <ele>578</ele>
        <time>2019-06-15T10:10:31Z</time>
      </trkpt>
      <trkpt lat="44.38687" lon="5.9358">
        <ele>578</ele>
        <time>2019-06-15T10:10:32Z</time>
      </trkpt>
      <trkpt lat="44.38682" lon="5.93576">
        <ele>578</ele>
        <time>2019-06-15T10:10:33Z</time>
      </trkpt>
      <trkpt lat="44.38677" lon="5.93573">
        <ele>578</ele>
        <time>2019-06-15T10:10:34Z</time>
      </trkpt>
      <trkpt lat="44.38672" lon="5.93569">
        <ele>578</ele>
        <time>2019-06-15T10:10:35Z</time>
      </trkpt>
      <trkpt lat="44.38666" lon="5.93565">
        <ele>578</ele>
        <time>2019-06-15T10:10:36Z</time>
      </trkpt>
      <trkpt lat="44.3866" lon="5.93561">
        <ele>578</ele>
        <time>2019-06-15T10:10:37Z</time>
      </trkpt>
      <trkpt lat="44.38654" lon="5.93557">
        <ele>578</ele>
        <time>2019-06-15T10:10:38Z</time>
      </trkpt>
      <trkpt lat="44.38648" lon="5.93553">
        <ele>578</ele>
        <time>2019-06-15T10:10:39Z</time>
      </trkpt>
      <trkpt lat="44.38642" lon="5.93549">
        <ele>578</ele>
        <time>2019-06-15T10:10:40Z</time>
      </trkpt>
      <trkpt lat="44.38635" lon="5.93545">
        <ele>578</ele>
        <time>2019-06-15T10:10:41Z</time>
      </trkpt>
      <trkpt lat="44.38629" lon="5.93541">
        <ele>578</ele>
        <time>2019-06-15T10:10:42Z</time>
      </trkpt>
      <trkpt lat="44.38623" lon="5.93536">
        <ele>578</ele>
        <time>2019-06-15T10:10:43Z</time>
      </trkpt>
      <trkpt lat="44.38616" lon="5.93532">
        <ele>578</ele>
        <time>2019-06-15T10:10:44Z</time>
      </trkpt>
      <trkpt lat="44.38609" lon="5.93527">
        <ele>578</ele>
        <time>2019-06-15T10:10:45Z</time>
      </trkpt>
      <trkpt lat="44.38602" lon="5.93522">
        <ele>578</ele>
        <time>2019-06-15T10:10:46Z</time>
      </trkpt>
      <trkpt lat="44.38595" lon="5.93516">
        <ele>578</ele>
        <time>2019-06-15T10:10:47Z</time>
      </trkpt>
      <trkpt lat="44.38588" lon="5.93511">
        <ele>578</ele>
        <time>2019-06-15T10:10:48Z</time>
      </trkpt>
      <trkpt lat="44.38581" lon="5.93505">
        <ele>578</ele>
        <time>2019-06-15T10:10:49Z</time>
      </trkpt>
      <trkpt lat="44.38574" lon="5.935">
        <ele>578</ele>
        <time>2019-06-15T10:10:50Z</time>
      </trkpt>
      <trkpt lat="44.38567" lon="5.93495">
        <ele>578</ele>
        <time>2019-06-15T10:10:51Z</time>
      </trkpt>
      <trkpt lat="44.38559" lon="5.93489">
        <ele>578</ele>
        <time>2019-06-15T10:10:52Z</time>
      </trkpt>
      <trkpt lat="44.38552" lon="5.93483">
        <ele>578</ele>
        <time>2019-06-15T10:10:53Z</time>
      </trkpt>
      <trkpt lat="44.38546" lon="5.93478">
        <ele>578</ele>
        <time>2019-06-15T10:10:54Z</time>
      </trkpt>
      <trkpt lat="44.38539" lon="5.93473">
        <ele>578</ele>
        <time>2019-06-15T10:10:55Z</time>
      </trkpt>
      <trkpt lat="44.38532" lon="5.93469">
        <ele>578</ele>
        <time>2019-06-15T10:10:56Z</time>
      </trkpt>
      <trkpt lat="44.38525" lon="5.93464">
        <ele>578</ele>
        <time>2019-06-15T10:10:57Z</time>
      </trkpt>
      <trkpt lat="44.38519" lon="5.93459">
        <ele>578</ele>
        <time>2019-06-15T10:10:58Z</time>
      </trkpt>
      <trkpt lat="44.38513" lon="5.93454">
        <ele>578</ele>
        <time>2019-06-15T10:10:59Z</time>
      </trkpt>
      <trkpt lat="44.38506" lon="5.93449">
        <ele>578</ele>
        <time>2019-06-15T10:11:00Z</time>
      </trkpt>
      <trkpt lat="44.385" lon="5.93445">
        <ele>578</ele>
        <time>2019-06-15T10:11:01Z</time>
      </trkpt>
      <trkpt lat="44.38494" lon="5.9344">
        <ele>578</ele>
        <time>2019-06-15T10:11:02Z</time>
      </trkpt>
      <trkpt lat="44.38487" lon="5.93436">
        <ele>578</ele>
        <time>2019-06-15T10:11:03Z</time>
      </trkpt>
      <trkpt lat="44.38481" lon="5.93432">
        <ele>578</ele>
        <time>2019-06-15T10:11:04Z</time>
      </trkpt>
      <trkpt lat="44.38475" lon="5.93428">
        <ele>578</ele>
        <time>2019-06-15T10:11:05Z</time>
      </trkpt>
      <trkpt lat="44.38469" lon="5.93423">
        <ele>577</ele>
        <time>2019-06-15T10:11:06Z</time>
      </trkpt>
      <trkpt lat="44.38462" lon="5.93419">
        <ele>577</ele>
        <time>2019-06-15T10:11:07Z</time>
      </trkpt>
      <trkpt lat="44.38456" lon="5.93414">
        <ele>577</ele>
        <time>2019-06-15T10:11:08Z</time>
      </trkpt>
      <trkpt lat="44.38449" lon="5.9341">
        <ele>577</ele>
        <time>2019-06-15T10:11:09Z</time>
      </trkpt>
      <trkpt lat="44.38443" lon="5.93405">
        <ele>577</ele>
        <time>2019-06-15T10:11:10Z</time>
      </trkpt>
      <trkpt lat="44.38437" lon="5.934">
        <ele>577</ele>
        <time>2019-06-15T10:11:11Z</time>
      </trkpt>
      <trkpt lat="44.3843" lon="5.93396">
        <ele>577</ele>
        <time>2019-06-15T10:11:12Z</time>
      </trkpt>
      <trkpt lat="44.38424" lon="5.93392">
        <ele>577</ele>
        <time>2019-06-15T10:11:13Z</time>
      </trkpt>
      <trkpt lat="44.38417" lon="5.93387">
        <ele>577</ele>
        <time>2019-06-15T10:11:14Z</time>
      </trkpt>
      <trkpt lat="44.38411" lon="5.93383">
        <ele>577</ele>
        <time>2019-06-15T10:11:15Z</time>
      </trkpt>
      <trkpt lat="44.38404" lon="5.93378">
        <ele>577</ele>
        <time>2019-06-15T10:11:16Z</time>
      </trkpt>
      <trkpt lat="44.38397" lon="5.93373">
        <ele>577</ele>
        <time>2019-06-15T10:11:17Z</time>
      </trkpt>
      <trkpt lat="44.38391" lon="5.93369">
        <ele>577</ele>
        <time>2019-06-15T10:11:18Z</time>
      </trkpt>
      <trkpt lat="44.38385" lon="5.93364">
        <ele>577</ele>
        <time>2019-06-15T10:11:19Z</time>
      </trkpt>
      <trkpt lat="44.38379" lon="5.9336">
        <ele>577</ele>
        <time>2019-06-15T10:11:20Z</time>
      </trkpt>
      <trkpt lat="44.38373" lon="5.93356">
        <ele>577</ele>
        <time>2019-06-15T10:11:21Z</time>
      </trkpt>
      <trkpt lat="44.38366" lon="5.93352">
        <ele>577</ele>
        <time>2019-06-15T10:11:22Z</time>
      </trkpt>
      <trkpt lat="44.3836" lon="5.93347">
        <ele>577</ele>
        <time>2019-06-15T10:11:23Z</time>
      </trkpt>
      <trkpt lat="44.38354" lon="5.93343">
        <ele>577</ele>
        <time>2019-06-15T10:11:24Z</time>
      </trkpt>
      <trkpt lat="44.38348" lon="5.93339">
        <ele>577</ele>
        <time>2019-06-15T10:11:25Z</time>
      </trkpt>
      <trkpt lat="44.38342" lon="5.93335">
        <ele>577</ele>
        <time>2019-06-15T10:11:26Z</time>
      </trkpt>
      <trkpt lat="44.38335" lon="5.93331">
        <ele>577</ele>
        <time>2019-06-15T10:11:27Z</time>
      </trkpt>
      <trkpt lat="44.38329" lon="5.93327">
        <ele>577</ele>
        <time>2019-06-15T10:11:28Z</time>
      </trkpt>
      <trkpt lat="44.38322" lon="5.93323">
        <ele>577</ele>
        <time>2019-06-15T10:11:29Z</time>
      </trkpt>
      <trkpt lat="44.38316" lon="5.93318">
        <ele>577</ele>
        <time>2019-06-15T10:11:30Z</time>
      </trkpt>
      <trkpt lat="44.3831" lon="5.93314">
        <ele>577</ele>
        <time>2019-06-15T10:11:31Z</time>
      </trkpt>
      <trkpt lat="44.38303" lon="5.9331">
        <ele>577</ele>
        <time>2019-06-15T10:11:32Z</time>
      </trkpt>
      <trkpt lat="44.38297" lon="5.93305">
        <ele>577</ele>
        <time>2019-06-15T10:11:33Z</time>
      </trkpt>
      <trkpt lat="44.38291" lon="5.93301">
        <ele>577</ele>
        <time>2019-06-15T10:11:34Z</time>
      </trkpt>
      <trkpt lat="44.38285" lon="5.93297">
        <ele>577</ele>
        <time>2019-06-15T10:11:35Z</time>
      </trkpt>
      <trkpt lat="44.38279" lon="5.93294">
        <ele>577</ele>
        <time>2019-06-15T10:11:36Z</time>
      </trkpt>
      <trkpt lat="44.38273" lon="5.9329">
        <ele>577</ele>
        <time>2019-06-15T10:11:37Z</time>
      </trkpt>
      <trkpt lat="44.38267" lon="5.93286">
        <ele>577</ele>
        <time>2019-06-15T10:11:38Z</time>
      </trkpt>
      <trkpt lat="44.38261" lon="5.93282">
        <ele>577</ele>
        <time>2019-06-15T10:11:39Z</time>
      </trkpt>
      <trkpt lat="44.38255" lon="5.93278">
        <ele>577</ele>
        <time>2019-06-15T10:11:40Z</time>
      </trkpt>
      <trkpt lat="44.38249" lon="5.93274">
        <ele>577</ele>
        <time>2019-06-15T10:11:41Z</time>
      </trkpt>
      <trkpt lat="44.38244" lon="5.9327">
        <ele>577</ele>
        <time>2019-06-15T10:11:42Z</time>
      </trkpt>
      <trkpt lat="44.38238" lon="5.93267">
        <ele>577</ele>
        <time>2019-06-15T10:11:43Z</time>
      </trkpt>
      <trkpt lat="44.38232" lon="5.93263">
        <ele>577</ele>
        <time>2019-06-15T10:11:44Z</time>
      </trkpt>
      <trkpt lat="44.38227" lon="5.93259">
        <ele>577</ele>
        <time>2019-06-15T10:11:45Z</time>
      </trkpt>
      <trkpt lat="44.38221" lon="5.93256">
        <ele>577</ele>
        <time>2019-06-15T10:11:46Z</time>
      </trkpt>
      <trkpt lat="44.38216" lon="5.93252">
        <ele>577</ele>
        <time>2019-06-15T10:11:47Z</time>
      </trkpt>
      <trkpt lat="44.3821" lon="5.93248">
        <ele>577</ele>
        <time>2019-06-15T10:11:48Z</time>
      </trkpt>
      <trkpt lat="44.38205" lon="5.93244">
        <ele>577</ele>
        <time>2019-06-15T10:11:49Z</time>
      </trkpt>
      <trkpt lat="44.38199" lon="5.93241">
        <ele>577</ele>
        <time>2019-06-15T10:11:50Z</time>
      </trkpt>
      <trkpt lat="44.38194" lon="5.93237">
        <ele>577</ele>
        <time>2019-06-15T10:11:51Z</time>
      </trkpt>
      <trkpt lat="44.38188" lon="5.93234">
        <ele>577</ele>
        <time>2019-06-15T10:11:52Z</time>
      </trkpt>
      <trkpt lat="44.38182" lon="5.9323">
        <ele>577</ele>
        <time>2019-06-15T10:11:53Z</time>
      </trkpt>
      <trkpt lat="44.38177" lon="5.93226">
        <ele>577</ele>
        <time>2019-06-15T10:11:54Z</time>
      </trkpt>
      <trkpt lat="44.38171" lon="5.93223">
        <ele>577</ele>
        <time>2019-06-15T10:11:55Z</time>
      </trkpt>
      <trkpt lat="44.38166" lon="5.93219">
        <ele>577</ele>
        <time>2019-06-15T10:11:56Z</time>
      </trkpt>
      <trkpt lat="44.3816" lon="5.93215">
        <ele>576</ele>
        <time>2019-06-15T10:11:57Z</time>
      </trkpt>
      <trkpt lat="44.38155" lon="5.93211">
        <ele>576</ele>
        <time>2019-06-15T10:11:58Z</time>
      </trkpt>
      <trkpt lat="44.38149" lon="5.93206">
        <ele>576</ele>
        <time>2019-06-15T10:11:59Z</time>
      </trkpt>
      <trkpt lat="44.38143" lon="5.93202">
        <ele>576</ele>
        <time>2019-06-15T10:12:00Z</time>
      </trkpt>
      <trkpt lat="44.38137" lon="5.93198">
        <ele>575</ele>
        <time>2019-06-15T10:12:01Z</time>
      </trkpt>
      <trkpt lat="44.38131" lon="5.93194">
        <ele>575</ele>
        <time>2019-06-15T10:12:02Z</time>
      </trkpt>
      <trkpt lat="44.38125" lon="5.9319">
        <ele>575</ele>
        <time>2019-06-15T10:12:03Z</time>
      </trkpt>
      <trkpt lat="44.38119" lon="5.93185">
        <ele>575</ele>
        <time>2019-06-15T10:12:04Z</time>
      </trkpt>
      <trkpt lat="44.38113" lon="5.93181">
        <ele>575</ele>
        <time>2019-06-15T10:12:05Z</time>
      </trkpt>
      <trkpt lat="44.38107" lon="5.93176">
        <ele>575</ele>
        <time>2019-06-15T10:12:06Z</time>
      </trkpt>
      <trkpt lat="44.381" lon="5.93172">
        <ele>574</ele>
        <time>2019-06-15T10:12:07Z</time>
      </trkpt>
      <trkpt lat="44.38094" lon="5.93167">
        <ele>574</ele>
        <time>2019-06-15T10:12:08Z</time>
      </trkpt>
      <trkpt lat="44.38088" lon="5.93162">
        <ele>574</ele>
        <time>2019-06-15T10:12:09Z</time>
      </trkpt>
      <trkpt lat="44.38081" lon="5.93158">
        <ele>574</ele>
        <time>2019-06-15T10:12:10Z</time>
      </trkpt>
      <trkpt lat="44.38075" lon="5.93153">
        <ele>574</ele>
        <time>2019-06-15T10:12:11Z</time>
      </trkpt>
      <trkpt lat="44.38069" lon="5.93149">
        <ele>574</ele>
        <time>2019-06-15T10:12:12Z</time>
      </trkpt>
      <trkpt lat="44.38062" lon="5.93144">
        <ele>574</ele>
        <time>2019-06-15T10:12:13Z</time>
      </trkpt>
      <trkpt lat="44.38055" lon="5.93139">
        <ele>573</ele>
        <time>2019-06-15T10:12:14Z</time>
      </trkpt>
      <trkpt lat="44.38049" lon="5.93134">
        <ele>573</ele>
        <time>2019-06-15T10:12:15Z</time>
      </trkpt>
      <trkpt lat="44.38043" lon="5.93129">
        <ele>573</ele>
        <time>2019-06-15T10:12:16Z</time>
      </trkpt>
      <trkpt lat="44.38036" lon="5.93125">
        <ele>573</ele>
        <time>2019-06-15T10:12:17Z</time>
      </trkpt>
      <trkpt lat="44.3803" lon="5.9312">
        <ele>573</ele>
        <time>2019-06-15T10:12:18Z</time>
      </trkpt>
      <trkpt lat="44.38024" lon="5.93115">
        <ele>573</ele>
        <time>2019-06-15T10:12:19Z</time>
      </trkpt>
      <trkpt lat="44.38017" lon="5.9311">
        <ele>573</ele>
        <time>2019-06-15T10:12:20Z</time>
      </trkpt>
      <trkpt lat="44.38011" lon="5.93106">
        <ele>573</ele>
        <time>2019-06-15T10:12:21Z</time>
      </trkpt>
      <trkpt lat="44.38005" lon="5.93101">
        <ele>573</ele>
        <time>2019-06-15T10:12:22Z</time>
      </trkpt>
      <trkpt lat="44.37998" lon="5.93096">
        <ele>572</ele>
        <time>2019-06-15T10:12:23Z</time>
      </trkpt>
      <trkpt lat="44.37992" lon="5.93092">
        <ele>572</ele>
        <time>2019-06-15T10:12:24Z</time>
      </trkpt>
      <trkpt lat="44.37986" lon="5.93087">
        <ele>572</ele>
        <time>2019-06-15T10:12:25Z</time>
      </trkpt>
      <trkpt lat="44.37979" lon="5.93082">
        <ele>572</ele>
        <time>2019-06-15T10:12:26Z</time>
      </trkpt>
      <trkpt lat="44.37973" lon="5.93078">
        <ele>572</ele>
        <time>2019-06-15T10:12:27Z</time>
      </trkpt>
      <trkpt lat="44.37967" lon="5.93073">
        <ele>572</ele>
        <time>2019-06-15T10:12:28Z</time>
      </trkpt>
      <trkpt lat="44.3796" lon="5.93069">
        <ele>571</ele>
        <time>2019-06-15T10:12:29Z</time>
      </trkpt>
      <trkpt lat="44.37954" lon="5.93064">
        <ele>571</ele>
        <time>2019-06-15T10:12:30Z</time>
      </trkpt>
      <trkpt lat="44.37948" lon="5.93059">
        <ele>571</ele>
        <time>2019-06-15T10:12:31Z</time>
      </trkpt>
      <trkpt lat="44.37941" lon="5.93055">
        <ele>571</ele>
        <time>2019-06-15T10:12:32Z</time>
      </trkpt>
      <trkpt lat="44.37935" lon="5.9305">
        <ele>571</ele>
        <time>2019-06-15T10:12:33Z</time>
      </trkpt>
      <trkpt lat="44.37929" lon="5.93045">
        <ele>571</ele>
        <time>2019-06-15T10:12:34Z</time>
      </trkpt>
      <trkpt lat="44.37922" lon="5.93041">
        <ele>571</ele>
        <time>2019-06-15T10:12:35Z</time>
      </trkpt>
      <trkpt lat="44.37916" lon="5.93036">
        <ele>571</ele>
        <time>2019-06-15T10:12:36Z</time>
      </trkpt>
      <trkpt lat="44.37909" lon="5.93032">
        <ele>571</ele>
        <time>2019-06-15T10:12:37Z</time>
      </trkpt>
      <trkpt lat="44.37902" lon="5.93027">
        <ele>571</ele>
        <time>2019-06-15T10:12:38Z</time>
      </trkpt>
      <trkpt lat="44.37896" lon="5.93023">
        <ele>571</ele>
        <time>2019-06-15T10:12:39Z</time>
      </trkpt>
      <trkpt lat="44.37889" lon="5.93018">
        <ele>571</ele>
        <time>2019-06-15T10:12:40Z</time>
      </trkpt>
      <trkpt lat="44.37883" lon="5.93014">
        <ele>571</ele>
        <time>2019-06-15T10:12:41Z</time>
      </trkpt>
      <trkpt lat="44.37876" lon="5.93009">
        <ele>571</ele>
        <time>2019-06-15T10:12:42Z</time>
      </trkpt>
      <trkpt lat="44.3787" lon="5.93005">
        <ele>571</ele>
        <time>2019-06-15T10:12:43Z</time>
      </trkpt>
      <trkpt lat="44.37863" lon="5.93001">
        <ele>571</ele>
        <time>2019-06-15T10:12:44Z</time>
      </trkpt>
      <trkpt lat="44.37857" lon="5.92996">
        <ele>571</ele>
        <time>2019-06-15T10:12:45Z</time>
      </trkpt>
      <trkpt lat="44.37851" lon="5.92991">
        <ele>571</ele>
        <time>2019-06-15T10:12:46Z</time>
      </trkpt>
      <trkpt lat="44.37844" lon="5.92987">
        <ele>571</ele>
        <time>2019-06-15T10:12:47Z</time>
      </trkpt>
      <trkpt lat="44.37838" lon="5.92982">
        <ele>571</ele>
        <time>2019-06-15T10:12:48Z</time>
      </trkpt>
      <trkpt lat="44.37832" lon="5.92978">
        <ele>571</ele>
        <time>2019-06-15T10:12:49Z</time>
      </trkpt>
      <trkpt lat="44.37826" lon="5.92974">
        <ele>571</ele>
        <time>2019-06-15T10:12:50Z</time>
      </trkpt>
      <trkpt lat="44.3782" lon="5.9297">
        <ele>571</ele>
        <time>2019-06-15T10:12:51Z</time>
      </trkpt>
      <trkpt lat="44.37814" lon="5.92965">
        <ele>571</ele>
        <time>2019-06-15T10:12:52Z</time>
      </trkpt>
      <trkpt lat="44.37807" lon="5.92961">
        <ele>571</ele>
        <time>2019-06-15T10:12:53Z</time>
      </trkpt>
      <trkpt lat="44.37801" lon="5.92957">
        <ele>570</ele>
        <time>2019-06-15T10:12:54Z</time>
      </trkpt>
      <trkpt lat="44.37795" lon="5.92953">
        <ele>570</ele>
        <time>2019-06-15T10:12:55Z</time>
      </trkpt>
      <trkpt lat="44.37789" lon="5.92949">
        <ele>570</ele>
        <time>2019-06-15T10:12:56Z</time>
      </trkpt>
      <trkpt lat="44.37782" lon="5.92945">
        <ele>570</ele>
        <time>2019-06-15T10:12:57Z</time>
      </trkpt>
      <trkpt lat="44.37776" lon="5.92941">
        <ele>570</ele>
        <time>2019-06-15T10:12:58Z</time>
      </trkpt>
      <trkpt lat="44.3777" lon="5.92936">
        <ele>570</ele>
        <time>2019-06-15T10:12:59Z</time>
      </trkpt>
      <trkpt lat="44.37763" lon="5.92932">
        <ele>570</ele>
        <time>2019-06-15T10:13:00Z</time>
      </trkpt>
      <trkpt lat="44.37757" lon="5.92928">
        <ele>570</ele>
        <time>2019-06-15T10:13:01Z</time>
      </trkpt>
      <trkpt lat="44.37751" lon="5.92923">
        <ele>570</ele>
        <time>2019-06-15T10:13:02Z</time>
      </trkpt>
      <trkpt lat="44.37745" lon="5.92919">
        <ele>570</ele>
        <time>2019-06-15T10:13:03Z</time>
      </trkpt>
      <trkpt lat="44.37738" lon="5.92915">
        <ele>570</ele>
        <time>2019-06-15T10:13:04Z</time>
      </trkpt>
      <trkpt lat="44.37732" lon="5.92911">
        <ele>570</ele>
        <time>2019-06-15T10:13:05Z</time>
      </trkpt>
      <trkpt lat="44.37726" lon="5.92906">
        <ele>570</ele>
        <time>2019-06-15T10:13:06Z</time>
      </trkpt>
      <trkpt lat="44.3772" lon="5.92902">
        <ele>570</ele>
        <time>2019-06-15T10:13:07Z</time>
      </trkpt>
      <trkpt lat="44.37714" lon="5.92898">
        <ele>570</ele>
        <time>2019-06-15T10:13:08Z</time>
      </trkpt>
      <trkpt lat="44.37708" lon="5.92893">
        <ele>570</ele>
        <time>2019-06-15T10:13:09Z</time>
      </trkpt>
      <trkpt lat="44.37701" lon="5.92888">
        <ele>570</ele>
        <time>2019-06-15T10:13:10Z</time>
      </trkpt>
      <trkpt lat="44.37695" lon="5.92884">
        <ele>570</ele>
        <time>2019-06-15T10:13:11Z</time>
      </trkpt>
      <trkpt lat="44.37689" lon="5.9288">
        <ele>570</ele>
        <time>2019-06-15T10:13:12Z</time>
      </trkpt>
      <trkpt lat="44.37683" lon="5.92876">
        <ele>570</ele>
        <time>2019-06-15T10:13:13Z</time>
      </trkpt>
      <trkpt lat="44.37677" lon="5.92872">
        <ele>570</ele>
        <time>2019-06-15T10:13:14Z</time>
      </trkpt>
      <trkpt lat="44.37671" lon="5.92868">
        <ele>570</ele>
        <time>2019-06-15T10:13:15Z</time>
      </trkpt>
      <trkpt lat="44.37665" lon="5.92864">
        <ele>570</ele>
        <time>2019-06-15T10:13:16Z</time>
      </trkpt>
      <trkpt lat="44.37659" lon="5.9286">
        <ele>570</ele>
        <time>2019-06-15T10:13:17Z</time>
      </trkpt>
      <trkpt lat="44.37653" lon="5.92856">
        <ele>570</ele>
        <time>2019-06-15T10:13:18Z</time>
      </trkpt>
      <trkpt lat="44.37648" lon="5.92852">
        <ele>570</ele>
        <time>2019-06-15T10:13:19Z</time>
      </trkpt>
      <trkpt lat="44.37642" lon="5.92848">
        <ele>570</ele>
        <time>2019-06-15T10:13:20Z</time>
      </trkpt>
      <trkpt lat="44.37635" lon="5.92844">
        <ele>570</ele>
        <time>2019-06-15T10:13:21Z</time>
      </trkpt>
      <trkpt lat="44.37629" lon="5.9284">
        <ele>570</ele>
        <time>2019-06-15T10:13:22Z</time>
      </trkpt>
      <trkpt lat="44.37623" lon="5.92836">
        <ele>570</ele>
        <time>2019-06-15T10:13:23Z</time>
      </trkpt>
      <trkpt lat="44.37617" lon="5.92831">
        <ele>570</ele>
        <time>2019-06-15T10:13:24Z</time>
      </trkpt>
      <trkpt lat="44.37611" lon="5.92827">
        <ele>570</ele>
        <time>2019-06-15T10:13:25Z</time>
      </trkpt>
      <trkpt lat="44.37605" lon="5.92823">
        <ele>570</ele>
        <time>2019-06-15T10:13:26Z</time>
      </trkpt>
      <trkpt lat="44.37599" lon="5.92819">
        <ele>570</ele>
        <time>2019-06-15T10:13:27Z</time>
      </trkpt>
      <trkpt lat="44.37593" lon="5.92815">
        <ele>570</ele>
        <time>2019-06-15T10:13:28Z</time>
      </trkpt>
      <trkpt lat="44.37586" lon="5.9281">
        <ele>570</ele>
        <time>2019-06-15T10:13:29Z</time>
      </trkpt>
      <trkpt lat="44.3758" lon="5.92806">
        <ele>570</ele>
        <time>2019-06-15T10:13:30Z</time>
      </trkpt>
      <trkpt lat="44.37574" lon="5.92802">
        <ele>570</ele>
        <time>2019-06-15T10:13:31Z</time>
      </trkpt>
      <trkpt lat="44.37567" lon="5.92797">
        <ele>570</ele>
        <time>2019-06-15T10:13:32Z</time>
      </trkpt>
      <trkpt lat="44.37561" lon="5.92793">
        <ele>570</ele>
        <time>2019-06-15T10:13:33Z</time>
      </trkpt>
      <trkpt lat="44.37555" lon="5.92789">
        <ele>570</ele>
        <time>2019-06-15T10:13:34Z</time>
      </trkpt>
      <trkpt lat="44.37549" lon="5.92784">
        <ele>570</ele>
        <time>2019-06-15T10:13:35Z</time>
      </trkpt>
      <trkpt lat="44.37543" lon="5.9278">
        <ele>570</ele>
        <time>2019-06-15T10:13:36Z</time>
      </trkpt>
      <trkpt lat="44.37537" lon="5.92776">
        <ele>570</ele>
        <time>2019-06-15T10:13:37Z</time>
      </trkpt>
      <trkpt lat="44.37531" lon="5.92772">
        <ele>570</ele>
        <time>2019-06-15T10:13:38Z</time>
      </trkpt>
      <trkpt lat="44.37525" lon="5.92768">
        <ele>570</ele>
        <time>2019-06-15T10:13:39Z</time>
      </trkpt>
      <trkpt lat="44.37519" lon="5.92764">
        <ele>570</ele>
        <time>2019-06-15T10:13:40Z</time>
      </trkpt>
      <trkpt lat="44.37513" lon="5.9276">
        <ele>570</ele>
        <time>2019-06-15T10:13:41Z</time>
      </trkpt>
      <trkpt lat="44.37507" lon="5.92756">
        <ele>570</ele>
        <time>2019-06-15T10:13:42Z</time>
      </trkpt>
      <trkpt lat="44.37501" lon="5.92752">
        <ele>570</ele>
        <time>2019-06-15T10:13:43Z</time>
      </trkpt>
      <trkpt lat="44.37495" lon="5.92747">
        <ele>570</ele>
        <time>2019-06-15T10:13:44Z</time>
      </trkpt>
      <trkpt lat="44.37489" lon="5.92743">
        <ele>570</ele>
        <time>2019-06-15T10:13:45Z</time>
      </trkpt>
      <trkpt lat="44.37484" lon="5.92739">
        <ele>570</ele>
        <time>2019-06-15T10:13:46Z</time>
      </trkpt>
      <trkpt lat="44.37477" lon="5.92735">
        <ele>570</ele>
        <time>2019-06-15T10:13:47Z</time>
      </trkpt>
      <trkpt lat="44.37471" lon="5.92731">
        <ele>570</ele>
        <time>2019-06-15T10:13:48Z</time>
      </trkpt>
      <trkpt lat="44.37465" lon="5.92727">
        <ele>570</ele>
        <time>2019-06-15T10:13:49Z</time>
      </trkpt>
      <trkpt lat="44.37459" lon="5.92723">
        <ele>570</ele>
        <time>2019-06-15T10:13:50Z</time>
      </trkpt>
      <trkpt lat="44.37453" lon="5.92719">
        <ele>570</ele>
        <time>2019-06-15T10:13:51Z</time>
      </trkpt>
      <trkpt lat="44.37447" lon="5.92715">
        <ele>570</ele>
        <time>2019-06-15T10:13:52Z</time>
      </trkpt>
      <trkpt lat="44.37442" lon="5.92711">
        <ele>570</ele>
        <time>2019-06-15T10:13:53Z</time>
      </trkpt>
      <trkpt lat="44.37436" lon="5.92706">
        <ele>570</ele>
        <time>2019-06-15T10:13:54Z</time>
      </trkpt>
      <trkpt lat="44.3743" lon="5.92702">
        <ele>570</ele>
        <time>2019-06-15T10:13:55Z</time>
      </trkpt>
      <trkpt lat="44.37424" lon="5.92698">
        <ele>570</ele>
        <time>2019-06-15T10:13:56Z</time>
      </trkpt>
      <trkpt lat="44.37418" lon="5.92694">
        <ele>570</ele>
        <time>2019-06-15T10:13:57Z</time>
      </trkpt>
      <trkpt lat="44.37412" lon="5.9269">
        <ele>570</ele>
        <time>2019-06-15T10:13:58Z</time>
      </trkpt>
      <trkpt lat="44.37406" lon="5.92686">
        <ele>570</ele>
        <time>2019-06-15T10:13:59Z</time>
      </trkpt>
      <trkpt lat="44.374" lon="5.92681">
        <ele>570</ele>
        <time>2019-06-15T10:14:00Z</time>
      </trkpt>
      <trkpt lat="44.37394" lon="5.92677">
        <ele>570</ele>
        <time>2019-06-15T10:14:01Z</time>
      </trkpt>
      <trkpt lat="44.37387" lon="5.92672">
        <ele>570</ele>
        <time>2019-06-15T10:14:02Z</time>
      </trkpt>
      <trkpt lat="44.37382" lon="5.92668">
        <ele>570</ele>
        <time>2019-06-15T10:14:03Z</time>
      </trkpt>
      <trkpt lat="44.37376" lon="5.92663">
        <ele>570</ele>
        <time>2019-06-15T10:14:04Z</time>
      </trkpt>
      <trkpt lat="44.3737" lon="5.92659">
        <ele>571</ele>
        <time>2019-06-15T10:14:05Z</time>
      </trkpt>
      <trkpt lat="44.37364" lon="5.92655">
        <ele>571</ele>
        <time>2019-06-15T10:14:06Z</time>
      </trkpt>
      <trkpt lat="44.37358" lon="5.9265">
        <ele>571</ele>
        <time>2019-06-15T10:14:07Z</time>
      </trkpt>
      <trkpt lat="44.37352" lon="5.92646">
        <ele>571</ele>
        <time>2019-06-15T10:14:08Z</time>
      </trkpt>
      <trkpt lat="44.37346" lon="5.92641">
        <ele>571</ele>
        <time>2019-06-15T10:14:09Z</time>
      </trkpt>
      <trkpt lat="44.3734" lon="5.92636">
        <ele>571</ele>
        <time>2019-06-15T10:14:10Z</time>
      </trkpt>
      <trkpt lat="44.37333" lon="5.92631">
        <ele>571</ele>
        <time>2019-06-15T10:14:11Z</time>
      </trkpt>
      <trkpt lat="44.37327" lon="5.92626">
        <ele>571</ele>
        <time>2019-06-15T10:14:12Z</time>
      </trkpt>
      <trkpt lat="44.3732" lon="5.92621">
        <ele>571</ele>
        <time>2019-06-15T10:14:13Z</time>
      </trkpt>
      <trkpt lat="44.37313" lon="5.92615">
        <ele>571</ele>
        <time>2019-06-15T10:14:14Z</time>
      </trkpt>
      <trkpt lat="44.37307" lon="5.9261">
        <ele>571</ele>
        <time>2019-06-15T10:14:15Z</time>
      </trkpt>
      <trkpt lat="44.373" lon="5.92603">
        <ele>571</ele>
        <time>2019-06-15T10:14:16Z</time>
      </trkpt>
      <trkpt lat="44.37293" lon="5.92597">
        <ele>571</ele>
        <time>2019-06-15T10:14:17Z</time>
      </trkpt>
      <trkpt lat="44.37286" lon="5.92591">
        <ele>571</ele>
        <time>2019-06-15T10:14:18Z</time>
      </trkpt>
      <trkpt lat="44.3728" lon="5.92585">
        <ele>571</ele>
        <time>2019-06-15T10:14:19Z</time>
      </trkpt>
      <trkpt lat="44.37273" lon="5.92578">
        <ele>571</ele>
        <time>2019-06-15T10:14:20Z</time>
      </trkpt>
      <trkpt lat="44.37266" lon="5.92572">
        <ele>571</ele>
        <time>2019-06-15T10:14:21Z</time>
      </trkpt>
      <trkpt lat="44.37259" lon="5.92565">
        <ele>571</ele>
        <time>2019-06-15T10:14:22Z</time>
      </trkpt>
      <trkpt lat="44.37252" lon="5.92558">
        <ele>571</ele>
        <time>2019-06-15T10:14:23Z</time>
      </trkpt>
      <trkpt lat="44.37244" lon="5.92552">
        <ele>571</ele>
        <time>2019-06-15T10:14:24Z</time>
      </trkpt>
      <trkpt lat="44.37237" lon="5.92545">
        <ele>571</ele>
        <time>2019-06-15T10:14:25Z</time>
      </trkpt>
      <trkpt lat="44.3723" lon="5.92538">
        <ele>570</ele>
        <time>2019-06-15T10:14:26Z</time>
      </trkpt>
      <trkpt lat="44.37223" lon="5.92532">
        <ele>570</ele>
        <time>2019-06-15T10:14:27Z</time>
      </trkpt>
      <trkpt lat="44.37216" lon="5.92525">
        <ele>570</ele>
        <time>2019-06-15T10:14:28Z</time>
      </trkpt>
      <trkpt lat="44.37209" lon="5.92519">
        <ele>570</ele>
        <time>2019-06-15T10:14:29Z</time>
      </trkpt>
      <trkpt lat="44.37202" lon="5.92514">
        <ele>569</ele>
        <time>2019-06-15T10:14:30Z</time>
      </trkpt>
      <trkpt lat="44.37195" lon="5.92508">
        <ele>569</ele>
        <time>2019-06-15T10:14:31Z</time>
      </trkpt>
      <trkpt lat="44.37189" lon="5.92502">
        <ele>569</ele>
        <time>2019-06-15T10:14:32Z</time>
      </trkpt>
      <trkpt lat="44.37182" lon="5.92496">
        <ele>569</ele>
        <time>2019-06-15T10:14:33Z</time>
      </trkpt>
      <trkpt lat="44.37176" lon="5.9249">
        <ele>569</ele>
        <time>2019-06-15T10:14:34Z</time>
      </trkpt>
      <trkpt lat="44.37169" lon="5.92484">
        <ele>569</ele>
        <time>2019-06-15T10:14:35Z</time>
      </trkpt>
      <trkpt lat="44.37163" lon="5.92479">
        <ele>569</ele>
        <time>2019-06-15T10:14:36Z</time>
      </trkpt>
      <trkpt lat="44.37157" lon="5.92474">
        <ele>569</ele>
        <time>2019-06-15T10:14:37Z</time>
      </trkpt>
      <trkpt lat="44.37151" lon="5.92469">
        <ele>569</ele>
        <time>2019-06-15T10:14:38Z</time>
      </trkpt>
      <trkpt lat="44.37144" lon="5.92463">
        <ele>569</ele>
        <time>2019-06-15T10:14:39Z</time>
      </trkpt>
      <trkpt lat="44.37139" lon="5.92459">
        <ele>569</ele>
        <time>2019-06-15T10:14:40Z</time>
      </trkpt>
      <trkpt lat="44.37133" lon="5.92453">
        <ele>568</ele>
        <time>2019-06-15T10:14:41Z</time>
      </trkpt>
      <trkpt lat="44.37128" lon="5.92448">
        <ele>568</ele>
        <time>2019-06-15T10:14:42Z</time>
      </trkpt>
      <trkpt lat="44.37122" lon="5.92443">
        <ele>568</ele>
        <time>2019-06-15T10:14:43Z</time>
      </trkpt>
      <trkpt lat="44.37117" lon="5.92438">
        <ele>568</ele>
        <time>2019-06-15T10:14:44Z</time>
      </trkpt>
      <trkpt lat="44.37111" lon="5.92433">
        <ele>568</ele>
        <time>2019-06-15T10:14:45Z</time>
      </trkpt>
      <trkpt lat="44.37105" lon="5.92428">
        <ele>568</ele>
        <time>2019-06-15T10:14:46Z</time>
      </trkpt>
      <trkpt lat="44.371" lon="5.92423">
        <ele>568</ele>
        <time>2019-06-15T10:14:47Z</time>
      </trkpt>
      <trkpt lat="44.37094" lon="5.92418">
        <ele>568</ele>
        <time>2019-06-15T10:14:48Z</time>
      </trkpt>
      <trkpt lat="44.37089" lon="5.92414">
        <ele>568</ele>
        <time>2019-06-15T10:14:49Z</time>
      </trkpt>
      <trkpt lat="44.37083" lon="5.92409">
        <ele>568</ele>
        <time>2019-06-15T10:14:50Z</time>
      </trkpt>
      <trkpt lat="44.37078" lon="5.92404">
        <ele>568</ele>
        <time>2019-06-15T10:14:51Z</time>
      </trkpt>
      <trkpt lat="44.37072" lon="5.92399">
        <ele>568</ele>
        <time>2019-06-15T10:14:52Z</time>
      </trkpt>
      <trkpt lat="44.37067" lon="5.92394">
        <ele>568</ele>
        <time>2019-06-15T10:14:53Z</time>
      </trkpt>
      <trkpt lat="44.37061" lon="5.92389">
        <ele>568</ele>
        <time>2019-06-15T10:14:54Z</time>
      </trkpt>
      <trkpt lat="44.37056" lon="5.92385">
        <ele>568</ele>
        <time>2019-06-15T10:14:55Z</time>
      </trkpt>
      <trkpt lat="44.37051" lon="5.92381">
        <ele>568</ele>
        <time>2019-06-15T10:14:56Z</time>
      </trkpt>
      <trkpt lat="44.37046" lon="5.92376">
        <ele>568</ele>
        <time>2019-06-15T10:14:57Z</time>
      </trkpt>
      <trkpt lat="44.37041" lon="5.92372">
        <ele>568</ele>
        <time>2019-06-15T10:14:58Z</time>
      </trkpt>
      <trkpt lat="44.37036" lon="5.92368">
        <ele>568</ele>
        <time>2019-06-15T10:14:59Z</time>
      </trkpt>
      <trkpt lat="44.37031" lon="5.92364">
        <ele>568</ele>
        <time>2019-06-15T10:15:00Z</time>
      </trkpt>
      <trkpt lat="44.37026" lon="5.9236">
        <ele>568</ele>
        <time>2019-06-15T10:15:01Z</time>
      </trkpt>
      <trkpt lat="44.37021" lon="5.92356">
        <ele>568</ele>
        <time>2019-06-15T10:15:02Z</time>
      </trkpt>
      <trkpt lat="44.37016" lon="5.92352">
        <ele>568</ele>
        <time>2019-06-15T10:15:03Z</time>
      </trkpt>
      <trkpt lat="44.37011" lon="5.92348">
        <ele>568</ele>
        <time>2019-06-15T10:15:04Z</time>
      </trkpt>
      <trkpt lat="44.37006" lon="5.92344">
        <ele>568</ele>
        <time>2019-06-15T10:15:05Z</time>
      </trkpt>
      <trkpt lat="44.37001" lon="5.9234">
        <ele>568</ele>
        <time>2019-06-15T10:15:06Z</time>
      </trkpt>
      <trkpt lat="44.36996" lon="5.92336">
        <ele>568</ele>
        <time>2019-06-15T10:15:07Z</time>
      </trkpt>
      <trkpt lat="44.36992" lon="5.92332">
        <ele>568</ele>
        <time>2019-06-15T10:15:08Z</time>
      </trkpt>
      <trkpt lat="44.36987" lon="5.92328">
        <ele>568</ele>
        <time>2019-06-15T10:15:09Z</time>
      </trkpt>
      <trkpt lat="44.36982" lon="5.92324">
        <ele>568</ele>
        <time>2019-06-15T10:15:10Z</time>
      </trkpt>
      <trkpt lat="44.36977" lon="5.9232">
        <ele>568</ele>
        <time>2019-06-15T10:15:11Z</time>
      </trkpt>
      <trkpt lat="44.36972" lon="5.92316">
        <ele>568</ele>
        <time>2019-06-15T10:15:12Z</time>
      </trkpt>
      <trkpt lat="44.36968" lon="5.92312">
        <ele>568</ele>
        <time>2019-06-15T10:15:13Z</time>
      </trkpt>
      <trkpt lat="44.36963" lon="5.92308">
        <ele>568</ele>
        <time>2019-06-15T10:15:14Z</time>
      </trkpt>
      <trkpt lat="44.36958" lon="5.92304">
        <ele>568</ele>
        <time>2019-06-15T10:15:15Z</time>
      </trkpt>
      <trkpt lat="44.36953" lon="5.923">
        <ele>568</ele>
        <time>2019-06-15T10:15:16Z</time>
      </trkpt>
      <trkpt lat="44.36949" lon="5.92296">
        <ele>568</ele>
        <time>2019-06-15T10:15:17Z</time>
      </trkpt>
      <trkpt lat="44.36944" lon="5.92292">
        <ele>568</ele>
        <time>2019-06-15T10:15:18Z</time>
      </trkpt>
      <trkpt lat="44.36939" lon="5.92288">
        <ele>568</ele>
        <time>2019-06-15T10:15:19Z</time>
      </trkpt>
      <trkpt lat="44.36934" lon="5.92285">
        <ele>568</ele>
        <time>2019-06-15T10:15:20Z</time>
      </trkpt>
      <trkpt lat="44.3693" lon="5.92281">
        <ele>568</ele>
        <time>2019-06-15T10:15:21Z</time>
      </trkpt>
      <trkpt lat="44.36925" lon="5.92278">
        <ele>568</ele>
        <time>2019-06-15T10:15:22Z</time>
      </trkpt>
      <trkpt lat="44.36921" lon="5.92275">
        <ele>568</ele>
        <time>2019-06-15T10:15:23Z</time>
      </trkpt>
      <trkpt lat="44.36916" lon="5.92271">
        <ele>568</ele>
        <time>2019-06-15T10:15:24Z</time>
      </trkpt>
      <trkpt lat="44.36911" lon="5.92268">
        <ele>568</ele>
        <time>2019-06-15T10:15:25Z</time>
      </trkpt>
      <trkpt lat="44.36906" lon="5.92265">
        <ele>568</ele>
        <time>2019-06-15T10:15:26Z</time>
      </trkpt>
      <trkpt lat="44.36902" lon="5.92261">
        <ele>568</ele>
        <time>2019-06-15T10:15:27Z</time>
      </trkpt>
      <trkpt lat="44.36897" lon="5.92258">
        <ele>568</ele>
        <time>2019-06-15T10:15:28Z</time>
      </trkpt>
      <trkpt lat="44.36893" lon="5.92255">
        <ele>568</ele>
        <time>2019-06-15T10:15:29Z</time>
      </trkpt>
      <trkpt lat="44.36888" lon="5.92252">
        <ele>568</ele>
        <time>2019-06-15T10:15:30Z</time>
      </trkpt>
      <trkpt lat="44.36883" lon="5.92249">
        <ele>568</ele>
        <time>2019-06-15T10:15:31Z</time>
      </trkpt>
      <trkpt lat="44.36879" lon="5.92247">
        <ele>568</ele>
        <time>2019-06-15T10:15:32Z</time>
      </trkpt>
      <trkpt lat="44.36874" lon="5.92244">
        <ele>568</ele>
        <time>2019-06-15T10:15:33Z</time>
      </trkpt>
      <trkpt lat="44.36869" lon="5.92241">
        <ele>568</ele>
        <time>2019-06-15T10:15:34Z</time>
      </trkpt>
      <trkpt lat="44.36865" lon="5.92238">
        <ele>568</ele>
        <time>2019-06-15T10:15:35Z</time>
      </trkpt>
      <trkpt lat="44.36861" lon="5.92235">
        <ele>568</ele>
        <time>2019-06-15T10:15:36Z</time>
      </trkpt>
      <trkpt lat="44.36856" lon="5.92232">
        <ele>569</ele>
        <time>2019-06-15T10:15:37Z</time>
      </trkpt>
      <trkpt lat="44.36852" lon="5.9223">
        <ele>569</ele>
        <time>2019-06-15T10:15:38Z</time>
      </trkpt>
      <trkpt lat="44.36848" lon="5.92227">
        <ele>569</ele>
        <time>2019-06-15T10:15:39Z</time>
      </trkpt>
      <trkpt lat="44.36844" lon="5.92225">
        <ele>570</ele>
        <time>2019-06-15T10:15:40Z</time>
      </trkpt>
      <trkpt lat="44.3684" lon="5.92222">
        <ele>570</ele>
        <time>2019-06-15T10:15:41Z</time>
      </trkpt>
      <trkpt lat="44.36837" lon="5.92219">
        <ele>571</ele>
        <time>2019-06-15T10:15:42Z</time>
      </trkpt>
      <trkpt lat="44.36833" lon="5.92217">
        <ele>571</ele>
        <time>2019-06-15T10:15:43Z</time>
      </trkpt>
      <trkpt lat="44.36829" lon="5.92215">
        <ele>571</ele>
        <time>2019-06-15T10:15:44Z</time>
      </trkpt>
      <trkpt lat="44.36825" lon="5.92213">
        <ele>572</ele>
        <time>2019-06-15T10:15:45Z</time>
      </trkpt>
      <trkpt lat="44.3682" lon="5.92211">
        <ele>572</ele>
        <time>2019-06-15T10:15:46Z</time>
      </trkpt>
      <trkpt lat="44.36815" lon="5.92209">
        <ele>572</ele>
        <time>2019-06-15T10:15:47Z</time>
      </trkpt>
      <trkpt lat="44.3681" lon="5.92207">
        <ele>572</ele>
        <time>2019-06-15T10:15:48Z</time>
      </trkpt>
      <trkpt lat="44.36804" lon="5.92204">
        <ele>572</ele>
        <time>2019-06-15T10:15:49Z</time>
      </trkpt>
      <trkpt lat="44.36798" lon="5.92201">
        <ele>572</ele>
        <time>2019-06-15T10:15:50Z</time>
      </trkpt>
      <trkpt lat="44.36791" lon="5.92197">
        <ele>572</ele>
        <time>2019-06-15T10:15:51Z</time>
      </trkpt>
      <trkpt lat="44.36784" lon="5.92194">
        <ele>572</ele>
        <time>2019-06-15T10:15:52Z</time>
      </trkpt>
      <trkpt lat="44.36776" lon="5.9219">
        <ele>572</ele>
        <time>2019-06-15T10:15:53Z</time>
      </trkpt>
      <trkpt lat="44.36769" lon="5.92187">
        <ele>572</ele>
        <time>2019-06-15T10:15:54Z</time>
      </trkpt>
      <trkpt lat="44.3676" lon="5.92183">
        <ele>572</ele>
        <time>2019-06-15T10:15:55Z</time>
      </trkpt>
      <trkpt lat="44.36752" lon="5.92181">
        <ele>572</ele>
        <time>2019-06-15T10:15:56Z</time>
      </trkpt>
      <trkpt lat="44.36744" lon="5.92178">
        <ele>572</ele>
        <time>2019-06-15T10:15:57Z</time>
      </trkpt>
      <trkpt lat="44.36737" lon="5.92175">
        <ele>572</ele>
        <time>2019-06-15T10:15:58Z</time>
      </trkpt>
      <trkpt lat="44.36729" lon="5.92173">
        <ele>572</ele>
        <time>2019-06-15T10:15:59Z</time>
      </trkpt>
      <trkpt lat="44.36721" lon="5.92171">
        <ele>572</ele>
        <time>2019-06-15T10:16:00Z</time>
      </trkpt>
      <trkpt lat="44.36714" lon="5.92169">
        <ele>572</ele>
        <time>2019-06-15T10:16:01Z</time>
      </trkpt>
      <trkpt lat="44.36707" lon="5.92167">
        <ele>572</ele>
        <time>2019-06-15T10:16:02Z</time>
      </trkpt>
      <trkpt lat="44.367" lon="5.92165">
        <ele>572</ele>
        <time>2019-06-15T10:16:03Z</time>
      </trkpt>
      <trkpt lat="44.36693" lon="5.92163">
        <ele>572</ele>
        <time>2019-06-15T10:16:04Z</time>
      </trkpt>
      <trkpt lat="44.36686" lon="5.92161">
        <ele>572</ele>
        <time>2019-06-15T10:16:05Z</time>
      </trkpt>
      <trkpt lat="44.36679" lon="5.92159">
        <ele>572</ele>
        <time>2019-06-15T10:16:06Z</time>
      </trkpt>
      <trkpt lat="44.36673" lon="5.92158">
        <ele>572</ele>
        <time>2019-06-15T10:16:07Z</time>
      </trkpt>
      <trkpt lat="44.36666" lon="5.92156">
        <ele>572</ele>
        <time>2019-06-15T10:16:08Z</time>
      </trkpt>
      <trkpt lat="44.36659" lon="5.92154">
        <ele>572</ele>
        <time>2019-06-15T10:16:09Z</time>
      </trkpt>
      <trkpt lat="44.36652" lon="5.92152">
        <ele>572</ele>
        <time>2019-06-15T10:16:10Z</time>
      </trkpt>
      <trkpt lat="44.36645" lon="5.9215">
        <ele>572</ele>
        <time>2019-06-15T10:16:11Z</time>
      </trkpt>
      <trkpt lat="44.36638" lon="5.92148">
        <ele>572</ele>
        <time>2019-06-15T10:16:12Z</time>
      </trkpt>
      <trkpt lat="44.36632" lon="5.92145">
        <ele>572</ele>
        <time>2019-06-15T10:16:13Z</time>
      </trkpt>
      <trkpt lat="44.36625" lon="5.92143">
        <ele>572</ele>
        <time>2019-06-15T10:16:14Z</time>
      </trkpt>
      <trkpt lat="44.36618" lon="5.9214">
        <ele>572</ele>
        <time>2019-06-15T10:16:15Z</time>
      </trkpt>
      <trkpt lat="44.36612" lon="5.92137">
        <ele>572</ele>
        <time>2019-06-15T10:16:16Z</time>
      </trkpt>
      <trkpt lat="44.36605" lon="5.92134">
        <ele>572</ele>
        <time>2019-06-15T10:16:17Z</time>
      </trkpt>
      <trkpt lat="44.36599" lon="5.92131">
        <ele>572</ele>
        <time>2019-06-15T10:16:18Z</time>
      </trkpt>
      <trkpt lat="44.36592" lon="5.92128">
        <ele>572</ele>
        <time>2019-06-15T10:16:19Z</time>
      </trkpt>
      <trkpt lat="44.36586" lon="5.92124">
        <ele>572</ele>
        <time>2019-06-15T10:16:20Z</time>
      </trkpt>
      <trkpt lat="44.36579" lon="5.9212">
        <ele>572</ele>
        <time>2019-06-15T10:16:21Z</time>
      </trkpt>
      <trkpt lat="44.36573" lon="5.92115">
        <ele>572</ele>
        <time>2019-06-15T10:16:22Z</time>
      </trkpt>
      <trkpt lat="44.36566" lon="5.92111">
        <ele>572</ele>
        <time>2019-06-15T10:16:23Z</time>
      </trkpt>
      <trkpt lat="44.3656" lon="5.92107">
        <ele>572</ele>
        <time>2019-06-15T10:16:24Z</time>
      </trkpt>
      <trkpt lat="44.36553" lon="5.92103">
        <ele>572</ele>
        <time>2019-06-15T10:16:25Z</time>
      </trkpt>
      <trkpt lat="44.36547" lon="5.92099">
        <ele>572</ele>
        <time>2019-06-15T10:16:26Z</time>
      </trkpt>
      <trkpt lat="44.36541" lon="5.92094">
        <ele>572</ele>
        <time>2019-06-15T10:16:27Z</time>
      </trkpt>
      <trkpt lat="44.36534" lon="5.9209">
        <ele>572</ele>
        <time>2019-06-15T10:16:28Z</time>
      </trkpt>
      <trkpt lat="44.36528" lon="5.92085">
        <ele>572</ele>
        <time>2019-06-15T10:16:29Z</time>
      </trkpt>
      <trkpt lat="44.36521" lon="5.92081">
        <ele>572</ele>
        <time>2019-06-15T10:16:30Z</time>
      </trkpt>
      <trkpt lat="44.36515" lon="5.92077">
        <ele>572</ele>
        <time>2019-06-15T10:16:31Z</time>
      </trkpt>
      <trkpt lat="44.36508" lon="5.92072">
        <ele>572</ele>
        <time>2019-06-15T10:16:32Z</time>
      </trkpt>
      <trkpt lat="44.36502" lon="5.92067">
        <ele>572</ele>
        <time>2019-06-15T10:16:33Z</time>
      </trkpt>
      <trkpt lat="44.36495" lon="5.92063">
        <ele>572</ele>
        <time>2019-06-15T10:16:34Z</time>
      </trkpt>
      <trkpt lat="44.36489" lon="5.92059">
        <ele>572</ele>
        <time>2019-06-15T10:16:35Z</time>
      </trkpt>
      <trkpt lat="44.36482" lon="5.92054">
        <ele>572</ele>
        <time>2019-06-15T10:16:36Z</time>
      </trkpt>
      <trkpt lat="44.36476" lon="5.9205">
        <ele>572</ele>
        <time>2019-06-15T10:16:37Z</time>
      </trkpt>
      <trkpt lat="44.36469" lon="5.92045">
        <ele>572</ele>
        <time>2019-06-15T10:16:38Z</time>
      </trkpt>
      <trkpt lat="44.36463" lon="5.92041">
        <ele>572</ele>
        <time>2019-06-15T10:16:39Z</time>
      </trkpt>
      <trkpt lat="44.36456" lon="5.92037">
        <ele>572</ele>
        <time>2019-06-15T10:16:40Z</time>
      </trkpt>
      <trkpt lat="44.3645" lon="5.92032">
        <ele>572</ele>
        <time>2019-06-15T10:16:41Z</time>
      </trkpt>
      <trkpt lat="44.36443" lon="5.92028">
        <ele>572</ele>
        <time>2019-06-15T10:16:42Z</time>
      </trkpt>
      <trkpt lat="44.36437" lon="5.92023">
        <ele>572</ele>
        <time>2019-06-15T10:16:43Z</time>
      </trkpt>
      <trkpt lat="44.36431" lon="5.92019">
        <ele>572</ele>
        <time>2019-06-15T10:16:44Z</time>
      </trkpt>
      <trkpt lat="44.36425" lon="5.92014">
        <ele>572</ele>
        <time>2019-06-15T10:16:45Z</time>
      </trkpt>
      <trkpt lat="44.36418" lon="5.9201">
        <ele>572</ele>
        <time>2019-06-15T10:16:46Z</time>
      </trkpt>
      <trkpt lat="44.36412" lon="5.92006">
        <ele>572</ele>
        <time>2019-06-15T10:16:47Z</time>
      </trkpt>
      <trkpt lat="44.36406" lon="5.92001">
        <ele>572</ele>
        <time>2019-06-15T10:16:48Z</time>
      </trkpt>
      <trkpt lat="44.36399" lon="5.91997">
        <ele>572</ele>
        <time>2019-06-15T10:16:49Z</time>
      </trkpt>
      <trkpt lat="44.36393" lon="5.91993">
        <ele>572</ele>
        <time>2019-06-15T10:16:50Z</time>
      </trkpt>
      <trkpt lat="44.36387" lon="5.91989">
        <ele>572</ele>
        <time>2019-06-15T10:16:51Z</time>
      </trkpt>
      <trkpt lat="44.36381" lon="5.91984">
        <ele>572</ele>
        <time>2019-06-15T10:16:52Z</time>
      </trkpt>
      <trkpt lat="44.36375" lon="5.9198">
        <ele>572</ele>
        <time>2019-06-15T10:16:53Z</time>
      </trkpt>
      <trkpt lat="44.36368" lon="5.91976">
        <ele>572</ele>
        <time>2019-06-15T10:16:54Z</time>
      </trkpt>
      <trkpt lat="44.36361" lon="5.91972">
        <ele>572</ele>
        <time>2019-06-15T10:16:55Z</time>
      </trkpt>
      <trkpt lat="44.36354" lon="5.91967">
        <ele>572</ele>
        <time>2019-06-15T10:16:56Z</time>
      </trkpt>
      <trkpt lat="44.36348" lon="5.91962">
        <ele>572</ele>
        <time>2019-06-15T10:16:57Z</time>
      </trkpt>
      <trkpt lat="44.36341" lon="5.91958">
        <ele>572</ele>
        <time>2019-06-15T10:16:58Z</time>
      </trkpt>
      <trkpt lat="44.36335" lon="5.91954">
        <ele>572</ele>
        <time>2019-06-15T10:16:59Z</time>
      </trkpt>
      <trkpt lat="44.36328" lon="5.9195">
        <ele>572</ele>
        <time>2019-06-15T10:17:00Z</time>
      </trkpt>
      <trkpt lat="44.36321" lon="5.91945">
        <ele>572</ele>
        <time>2019-06-15T10:17:01Z</time>
      </trkpt>
      <trkpt lat="44.36315" lon="5.91941">
        <ele>572</ele>
        <time>2019-06-15T10:17:02Z</time>
      </trkpt>
      <trkpt lat="44.36308" lon="5.91936">
        <ele>572</ele>
        <time>2019-06-15T10:17:03Z</time>
      </trkpt>
      <trkpt lat="44.36302" lon="5.91931">
        <ele>572</ele>
        <time>2019-06-15T10:17:04Z</time>
      </trkpt>
      <trkpt lat="44.36295" lon="5.91926">
        <ele>572</ele>
        <time>2019-06-15T10:17:05Z</time>
      </trkpt>
      <trkpt lat="44.36289" lon="5.91922">
        <ele>572</ele>
        <time>2019-06-15T10:17:06Z</time>
      </trkpt>
      <trkpt lat="44.36282" lon="5.91918">
        <ele>572</ele>
        <time>2019-06-15T10:17:07Z</time>
      </trkpt>
      <trkpt lat="44.36276" lon="5.91913">
        <ele>572</ele>
        <time>2019-06-15T10:17:08Z</time>
      </trkpt>
      <trkpt lat="44.3627" lon="5.91909">
        <ele>572</ele>
        <time>2019-06-15T10:17:09Z</time>
      </trkpt>
      <trkpt lat="44.36264" lon="5.91904">
        <ele>572</ele>
        <time>2019-06-15T10:17:10Z</time>
      </trkpt>
      <trkpt lat="44.36257" lon="5.919">
        <ele>572</ele>
        <time>2019-06-15T10:17:11Z</time>
      </trkpt>
      <trkpt lat="44.36251" lon="5.91896">
        <ele>572</ele>
        <time>2019-06-15T10:17:12Z</time>
      </trkpt>
      <trkpt lat="44.36245" lon="5.91892">
        <ele>572</ele>
        <time>2019-06-15T10:17:13Z</time>
      </trkpt>
      <trkpt lat="44.36239" lon="5.91888">
        <ele>572</ele>
        <time>2019-06-15T10:17:14Z</time>
      </trkpt>
      <trkpt lat="44.36232" lon="5.91884">
        <ele>572</ele>
        <time>2019-06-15T10:17:15Z</time>
      </trkpt>
      <trkpt lat="44.36226" lon="5.9188">
        <ele>572</ele>
        <time>2019-06-15T10:17:16Z</time>
      </trkpt>
      <trkpt lat="44.3622" lon="5.91875">
        <ele>572</ele>
        <time>2019-06-15T10:17:17Z</time>
      </trkpt>
      <trkpt lat="44.36214" lon="5.91871">
        <ele>572</ele>
        <time>2019-06-15T10:17:18Z</time>
      </trkpt>
      <trkpt lat="44.36207" lon="5.91867">
        <ele>572</ele>
        <time>2019-06-15T10:17:19Z</time>
      </trkpt>
      <trkpt lat="44.36201" lon="5.91863">
        <ele>572</ele>
        <time>2019-06-15T10:17:20Z</time>
      </trkpt>
      <trkpt lat="44.36195" lon="5.91859">
        <ele>572</ele>
        <time>2019-06-15T10:17:21Z</time>
      </trkpt>
      <trkpt lat="44.36188" lon="5.91854">
        <ele>572</ele>
        <time>2019-06-15T10:17:22Z</time>
      </trkpt>
      <trkpt lat="44.36182" lon="5.91849">
        <ele>572</ele>
        <time>2019-06-15T10:17:23Z</time>
      </trkpt>
      <trkpt lat="44.36176" lon="5.91845">
        <ele>572</ele>
        <time>2019-06-15T10:17:24Z</time>
      </trkpt>
      <trkpt lat="44.36169" lon="5.9184">
        <ele>572</ele>
        <time>2019-06-15T10:17:25Z</time>
      </trkpt>
      <trkpt lat="44.36163" lon="5.91836">
        <ele>572</ele>
        <time>2019-06-15T10:17:26Z</time>
      </trkpt>
      <trkpt lat="44.36156" lon="5.91831">
        <ele>572</ele>
        <time>2019-06-15T10:17:27Z</time>
      </trkpt>
      <trkpt lat="44.36149" lon="5.91827">
        <ele>572</ele>
        <time>2019-06-15T10:17:28Z</time>
      </trkpt>
      <trkpt lat="44.36142" lon="5.91822">
        <ele>572</ele>
        <time>2019-06-15T10:17:29Z</time>
      </trkpt>
      <trkpt lat="44.36135" lon="5.91817">
        <ele>572</ele>
        <time>2019-06-15T10:17:30Z</time>
      </trkpt>
      <trkpt lat="44.36129" lon="5.91813">
        <ele>572</ele>
        <time>2019-06-15T10:17:31Z</time>
      </trkpt>
      <trkpt lat="44.36122" lon="5.91808">
        <ele>572</ele>
        <time>2019-06-15T10:17:32Z</time>
      </trkpt>
      <trkpt lat="44.36115" lon="5.91803">
        <ele>572</ele>
        <time>2019-06-15T10:17:33Z</time>
      </trkpt>
      <trkpt lat="44.36108" lon="5.91798">
        <ele>572</ele>
        <time>2019-06-15T10:17:34Z</time>
      </trkpt>
      <trkpt lat="44.36101" lon="5.91793">
        <ele>572</ele>
        <time>2019-06-15T10:17:35Z</time>
      </trkpt>
      <trkpt lat="44.36094" lon="5.91788">
        <ele>572</ele>
        <time>2019-06-15T10:17:36Z</time>
      </trkpt>
      <trkpt lat="44.36087" lon="5.91784">
        <ele>572</ele>
        <time>2019-06-15T10:17:37Z</time>
      </trkpt>
      <trkpt lat="44.3608" lon="5.91779">
        <ele>572</ele>
        <time>2019-06-15T10:17:38Z</time>
      </trkpt>
      <trkpt lat="44.36073" lon="5.91774">
        <ele>572</ele>
        <time>2019-06-15T10:17:39Z</time>
      </trkpt>
      <trkpt lat="44.36066" lon="5.91769">
        <ele>572</ele>
        <time>2019-06-15T10:17:40Z</time>
      </trkpt>
      <trkpt lat="44.3606" lon="5.91764">
        <ele>572</ele>
        <time>2019-06-15T10:17:41Z</time>
      </trkpt>
      <trkpt lat="44.36052" lon="5.91759">
        <ele>572</ele>
        <time>2019-06-15T10:17:42Z</time>
      </trkpt>
      <trkpt lat="44.36045" lon="5.91754">
        <ele>572</ele>
        <time>2019-06-15T10:17:43Z</time>
      </trkpt>
      <trkpt lat="44.36039" lon="5.9175">
        <ele>572</ele>
        <time>2019-06-15T10:17:44Z</time>
      </trkpt>
      <trkpt lat="44.36032" lon="5.91745">
        <ele>572</ele>
        <time>2019-06-15T10:17:45Z</time>
      </trkpt>
      <trkpt lat="44.36026" lon="5.9174">
        <ele>572</ele>
        <time>2019-06-15T10:17:46Z</time>
      </trkpt>
      <trkpt lat="44.36019" lon="5.91735">
        <ele>572</ele>
        <time>2019-06-15T10:17:47Z</time>
      </trkpt>
      <trkpt lat="44.36012" lon="5.9173">
        <ele>572</ele>
        <time>2019-06-15T10:17:48Z</time>
      </trkpt>
      <trkpt lat="44.36006" lon="5.91726">
        <ele>572</ele>
        <time>2019-06-15T10:17:49Z</time>
      </trkpt>
      <trkpt lat="44.35999" lon="5.91721">
        <ele>572</ele>
        <time>2019-06-15T10:17:50Z</time>
      </trkpt>
      <trkpt lat="44.35993" lon="5.91716">
        <ele>572</ele>
        <time>2019-06-15T10:17:51Z</time>
      </trkpt>
      <trkpt lat="44.35986" lon="5.91712">
        <ele>572</ele>
        <time>2019-06-15T10:17:52Z</time>
      </trkpt>
      <trkpt lat="44.3598" lon="5.91708">
        <ele>572</ele>
        <time>2019-06-15T10:17:53Z</time>
      </trkpt>
      <trkpt lat="44.35974" lon="5.91703">
        <ele>572</ele>
        <time>2019-06-15T10:17:54Z</time>
      </trkpt>
      <trkpt lat="44.35967" lon="5.91699">
        <ele>572</ele>
        <time>2019-06-15T10:17:55Z</time>
      </trkpt>
      <trkpt lat="44.35961" lon="5.91694">
        <ele>572</ele>
        <time>2019-06-15T10:17:56Z</time>
      </trkpt>
      <trkpt lat="44.35954" lon="5.9169">
        <ele>572</ele>
        <time>2019-06-15T10:17:57Z</time>
      </trkpt>
      <trkpt lat="44.35948" lon="5.91686">
        <ele>572</ele>
        <time>2019-06-15T10:17:58Z</time>
      </trkpt>
      <trkpt lat="44.35941" lon="5.91681">
        <ele>572</ele>
        <time>2019-06-15T10:17:59Z</time>
      </trkpt>
      <trkpt lat="44.35935" lon="5.91677">
        <ele>572</ele>
        <time>2019-06-15T10:18:00Z</time>
      </trkpt>
      <trkpt lat="44.35928" lon="5.91672">
        <ele>572</ele>
        <time>2019-06-15T10:18:01Z</time>
      </trkpt>
      <trkpt lat="44.35922" lon="5.91668">
        <ele>572</ele>
        <time>2019-06-15T10:18:02Z</time>
      </trkpt>
      <trkpt lat="44.35915" lon="5.91663">
        <ele>572</ele>
        <time>2019-06-15T10:18:03Z</time>
      </trkpt>
      <trkpt lat="44.35909" lon="5.91658">
        <ele>572</ele>
        <time>2019-06-15T10:18:04Z</time>
      </trkpt>
      <trkpt lat="44.35902" lon="5.91654">
        <ele>572</ele>
        <time>2019-06-15T10:18:05Z</time>
      </trkpt>
      <trkpt lat="44.35895" lon="5.91649">
        <ele>572</ele>
        <time>2019-06-15T10:18:06Z</time>
      </trkpt>
      <trkpt lat="44.35889" lon="5.91645">
        <ele>572</ele>
        <time>2019-06-15T10:18:07Z</time>
      </trkpt>
      <trkpt lat="44.35883" lon="5.91641">
        <ele>572</ele>
        <time>2019-06-15T10:18:08Z</time>
      </trkpt>
      <trkpt lat="44.35876" lon="5.91636">
        <ele>572</ele>
        <time>2019-06-15T10:18:09Z</time>
      </trkpt>
      <trkpt lat="44.3587" lon="5.91632">
        <ele>572</ele>
        <time>2019-06-15T10:18:10Z</time>
      </trkpt>
      <trkpt lat="44.35863" lon="5.91627">
        <ele>572</ele>
        <time>2019-06-15T10:18:11Z</time>
      </trkpt>
      <trkpt lat="44.35857" lon="5.91622">
        <ele>572</ele>
        <time>2019-06-15T10:18:12Z</time>
      </trkpt>
      <trkpt lat="44.35851" lon="5.91618">
        <ele>572</ele>
        <time>2019-06-15T10:18:13Z</time>
      </trkpt>
      <trkpt lat="44.35844" lon="5.91613">
        <ele>572</ele>
        <time>2019-06-15T10:18:14Z</time>
      </trkpt>
      <trkpt lat="44.35838" lon="5.91609">
        <ele>572</ele>
        <time>2019-06-15T10:18:15Z</time>
      </trkpt>
      <trkpt lat="44.35832" lon="5.91605">
        <ele>572</ele>
        <time>2019-06-15T10:18:16Z</time>
      </trkpt>
      <trkpt lat="44.35825" lon="5.91601">
        <ele>572</ele>
        <time>2019-06-15T10:18:17Z</time>
      </trkpt>
      <trkpt lat="44.3582" lon="5.91596">
        <ele>572</ele>
        <time>2019-06-15T10:18:18Z</time>
      </trkpt>
      <trkpt lat="44.35813" lon="5.91592">
        <ele>572</ele>
        <time>2019-06-15T10:18:19Z</time>
      </trkpt>
      <trkpt lat="44.35807" lon="5.91588">
        <ele>572</ele>
        <time>2019-06-15T10:18:20Z</time>
      </trkpt>
      <trkpt lat="44.35801" lon="5.91584">
        <ele>572</ele>
        <time>2019-06-15T10:18:21Z</time>
      </trkpt>
      <trkpt lat="44.35794" lon="5.9158">
        <ele>572</ele>
        <time>2019-06-15T10:18:22Z</time>
      </trkpt>
      <trkpt lat="44.35788" lon="5.91575">
        <ele>572</ele>
        <time>2019-06-15T10:18:23Z</time>
      </trkpt>
      <trkpt lat="44.35781" lon="5.91571">
        <ele>572</ele>
        <time>2019-06-15T10:18:24Z</time>
      </trkpt>
      <trkpt lat="44.35775" lon="5.91566">
        <ele>572</ele>
        <time>2019-06-15T10:18:25Z</time>
      </trkpt>
      <trkpt lat="44.35769" lon="5.91562">
        <ele>572</ele>
        <time>2019-06-15T10:18:26Z</time>
      </trkpt>
      <trkpt lat="44.35762" lon="5.91557">
        <ele>572</ele>
        <time>2019-06-15T10:18:27Z</time>
      </trkpt>
      <trkpt lat="44.35756" lon="5.91553">
        <ele>572</ele>
        <time>2019-06-15T10:18:28Z</time>
      </trkpt>
      <trkpt lat="44.35749" lon="5.91548">
        <ele>572</ele>
        <time>2019-06-15T10:18:29Z</time>
      </trkpt>
      <trkpt lat="44.35743" lon="5.91544">
        <ele>572</ele>
        <time>2019-06-15T10:18:30Z</time>
      </trkpt>
      <trkpt lat="44.35737" lon="5.9154">
        <ele>572</ele>
        <time>2019-06-15T10:18:31Z</time>
      </trkpt>
      <trkpt lat="44.3573" lon="5.91535">
        <ele>572</ele>
        <time>2019-06-15T10:18:32Z</time>
      </trkpt>
      <trkpt lat="44.35724" lon="5.91531">
        <ele>572</ele>
        <time>2019-06-15T10:18:33Z</time>
      </trkpt>
      <trkpt lat="44.35717" lon="5.91527">
        <ele>572</ele>
        <time>2019-06-15T10:18:34Z</time>
      </trkpt>
      <trkpt lat="44.35711" lon="5.91522">
        <ele>572</ele>
        <time>2019-06-15T10:18:35Z</time>
      </trkpt>
      <trkpt lat="44.35705" lon="5.91517">
        <ele>572</ele>
        <time>2019-06-15T10:18:36Z</time>
      </trkpt>
      <trkpt lat="44.35698" lon="5.91513">
        <ele>572</ele>
        <time>2019-06-15T10:18:37Z</time>
      </trkpt>
      <trkpt lat="44.35692" lon="5.91508">
        <ele>572</ele>
        <time>2019-06-15T10:18:38Z</time>
      </trkpt>
      <trkpt lat="44.35685" lon="5.91504">
        <ele>572</ele>
        <time>2019-06-15T10:18:39Z</time>
      </trkpt>
      <trkpt lat="44.35678" lon="5.91499">
        <ele>572</ele>
        <time>2019-06-15T10:18:40Z</time>
      </trkpt>
      <trkpt lat="44.35672" lon="5.91495">
        <ele>572</ele>
        <time>2019-06-15T10:18:41Z</time>
      </trkpt>
      <trkpt lat="44.35666" lon="5.9149">
        <ele>572</ele>
        <time>2019-06-15T10:18:42Z</time>
      </trkpt>
      <trkpt lat="44.35659" lon="5.91486">
        <ele>572</ele>
        <time>2019-06-15T10:18:43Z</time>
      </trkpt>
      <trkpt lat="44.35653" lon="5.91482">
        <ele>572</ele>
        <time>2019-06-15T10:18:44Z</time>
      </trkpt>
      <trkpt lat="44.35647" lon="5.91477">
        <ele>572</ele>
        <time>2019-06-15T10:18:45Z</time>
      </trkpt>
      <trkpt lat="44.35641" lon="5.91473">
        <ele>572</ele>
        <time>2019-06-15T10:18:46Z</time>
      </trkpt>
      <trkpt lat="44.35635" lon="5.91468">
        <ele>572</ele>
        <time>2019-06-15T10:18:47Z</time>
      </trkpt>
      <trkpt lat="44.35629" lon="5.91464">
        <ele>572</ele>
        <time>2019-06-15T10:18:48Z</time>
      </trkpt>
      <trkpt lat="44.35623" lon="5.91461">
        <ele>572</ele>
        <time>2019-06-15T10:18:49Z</time>
      </trkpt>
      <trkpt lat="44.35617" lon="5.91457">
        <ele>572</ele>
        <time>2019-06-15T10:18:50Z</time>
      </trkpt>
      <trkpt lat="44.35611" lon="5.91454">
        <ele>573</ele>
        <time>2019-06-15T10:18:51Z</time>
      </trkpt>
      <trkpt lat="44.35605" lon="5.9145">
        <ele>573</ele>
        <time>2019-06-15T10:18:52Z</time>
      </trkpt>
      <trkpt lat="44.35599" lon="5.91446">
        <ele>573</ele>
        <time>2019-06-15T10:18:53Z</time>
      </trkpt>
      <trkpt lat="44.35594" lon="5.91441">
        <ele>574</ele>
        <time>2019-06-15T10:18:54Z</time>
      </trkpt>
      <trkpt lat="44.35588" lon="5.91437">
        <ele>574</ele>
        <time>2019-06-15T10:18:55Z</time>
      </trkpt>
      <trkpt lat="44.35582" lon="5.91433">
        <ele>574</ele>
        <time>2019-06-15T10:18:56Z</time>
      </trkpt>
      <trkpt lat="44.35576" lon="5.91429">
        <ele>574</ele>
        <time>2019-06-15T10:18:57Z</time>
      </trkpt>
      <trkpt lat="44.3557" lon="5.91425">
        <ele>575</ele>
        <time>2019-06-15T10:18:58Z</time>
      </trkpt>
      <trkpt lat="44.35564" lon="5.91421">
        <ele>575</ele>
        <time>2019-06-15T10:18:59Z</time>
      </trkpt>
      <trkpt lat="44.35558" lon="5.91417">
        <ele>575</ele>
        <time>2019-06-15T10:19:00Z</time>
      </trkpt>
      <trkpt lat="44.35552" lon="5.91413">
        <ele>576</ele>
        <time>2019-06-15T10:19:01Z</time>
      </trkpt>
      <trkpt lat="44.35546" lon="5.91409">
        <ele>576</ele>
        <time>2019-06-15T10:19:02Z</time>
      </trkpt>
      <trkpt lat="44.3554" lon="5.91406">
        <ele>576</ele>
        <time>2019-06-15T10:19:03Z</time>
      </trkpt>
      <trkpt lat="44.35535" lon="5.91402">
        <ele>577</ele>
        <time>2019-06-15T10:19:04Z</time>
      </trkpt>
      <trkpt lat="44.35529" lon="5.91398">
        <ele>577</ele>
        <time>2019-06-15T10:19:05Z</time>
      </trkpt>
      <trkpt lat="44.35524" lon="5.91395">
        <ele>577</ele>
        <time>2019-06-15T10:19:06Z</time>
      </trkpt>
      <trkpt lat="44.35518" lon="5.91392">
        <ele>578</ele>
        <time>2019-06-15T10:19:07Z</time>
      </trkpt>
      <trkpt lat="44.35512" lon="5.91389">
        <ele>578</ele>
        <time>2019-06-15T10:19:08Z</time>
      </trkpt>
      <trkpt lat="44.35506" lon="5.91386">
        <ele>578</ele>
        <time>2019-06-15T10:19:09Z</time>
      </trkpt>
      <trkpt lat="44.355" lon="5.91382">
        <ele>579</ele>
        <time>2019-06-15T10:19:10Z</time>
      </trkpt>
      <trkpt lat="44.35494" lon="5.91378">
        <ele>579</ele>
        <time>2019-06-15T10:19:11Z</time>
      </trkpt>
      <trkpt lat="44.35488" lon="5.91374">
        <ele>579</ele>
        <time>2019-06-15T10:19:12Z</time>
      </trkpt>
      <trkpt lat="44.35482" lon="5.9137">
        <ele>579</ele>
        <time>2019-06-15T10:19:13Z</time>
      </trkpt>
      <trkpt lat="44.35476" lon="5.91366">
        <ele>579</ele>
        <time>2019-06-15T10:19:14Z</time>
      </trkpt>
      <trkpt lat="44.35469" lon="5.91362">
        <ele>579</ele>
        <time>2019-06-15T10:19:15Z</time>
      </trkpt>
      <trkpt lat="44.35463" lon="5.91358">
        <ele>579</ele>
        <time>2019-06-15T10:19:16Z</time>
      </trkpt>
      <trkpt lat="44.35456" lon="5.91354">
        <ele>579</ele>
        <time>2019-06-15T10:19:17Z</time>
      </trkpt>
      <trkpt lat="44.3545" lon="5.91349">
        <ele>579</ele>
        <time>2019-06-15T10:19:18Z</time>
      </trkpt>
      <trkpt lat="44.35443" lon="5.91345">
        <ele>579</ele>
        <time>2019-06-15T10:19:19Z</time>
      </trkpt>
      <trkpt lat="44.35436" lon="5.9134">
        <ele>579</ele>
        <time>2019-06-15T10:19:20Z</time>
      </trkpt>
      <trkpt lat="44.35429" lon="5.91335">
        <ele>579</ele>
        <time>2019-06-15T10:19:21Z</time>
      </trkpt>
      <trkpt lat="44.35423" lon="5.9133">
        <ele>579</ele>
        <time>2019-06-15T10:19:22Z</time>
      </trkpt>
      <trkpt lat="44.35416" lon="5.91325">
        <ele>579</ele>
        <time>2019-06-15T10:19:23Z</time>
      </trkpt>
      <trkpt lat="44.35409" lon="5.9132">
        <ele>579</ele>
        <time>2019-06-15T10:19:24Z</time>
      </trkpt>
      <trkpt lat="44.35402" lon="5.91315">
        <ele>579</ele>
        <time>2019-06-15T10:19:25Z</time>
      </trkpt>
      <trkpt lat="44.35395" lon="5.9131">
        <ele>579</ele>
        <time>2019-06-15T10:19:26Z</time>
      </trkpt>
      <trkpt lat="44.35389" lon="5.91305">
        <ele>579</ele>
        <time>2019-06-15T10:19:27Z</time>
      </trkpt>
      <trkpt lat="44.35382" lon="5.913">
        <ele>579</ele>
        <time>2019-06-15T10:19:28Z</time>
      </trkpt>
      <trkpt lat="44.35375" lon="5.91295">
        <ele>579</ele>
        <time>2019-06-15T10:19:29Z</time>
      </trkpt>
      <trkpt lat="44.35368" lon="5.9129">
        <ele>579</ele>
        <time>2019-06-15T10:19:30Z</time>
      </trkpt>
      <trkpt lat="44.35361" lon="5.91285">
        <ele>579</ele>
        <time>2019-06-15T10:19:31Z</time>
      </trkpt>
      <trkpt lat="44.35355" lon="5.91279">
        <ele>579</ele>
        <time>2019-06-15T10:19:32Z</time>
      </trkpt>
      <trkpt lat="44.35348" lon="5.91274">
        <ele>579</ele>
        <time>2019-06-15T10:19:33Z</time>
      </trkpt>
      <trkpt lat="44.35341" lon="5.91268">
        <ele>579</ele>
        <time>2019-06-15T10:19:34Z</time>
      </trkpt>
      <trkpt lat="44.35334" lon="5.91263">
        <ele>579</ele>
        <time>2019-06-15T10:19:35Z</time>
      </trkpt>
      <trkpt lat="44.35328" lon="5.91257">
        <ele>579</ele>
        <time>2019-06-15T10:19:36Z</time>
      </trkpt>
      <trkpt lat="44.35321" lon="5.91252">
        <ele>579</ele>
        <time>2019-06-15T10:19:37Z</time>
      </trkpt>
      <trkpt lat="44.35314" lon="5.91247">
        <ele>579</ele>
        <time>2019-06-15T10:19:38Z</time>
      </trkpt>
      <trkpt lat="44.35307" lon="5.91241">
        <ele>579</ele>
        <time>2019-06-15T10:19:39Z</time>
      </trkpt>
      <trkpt lat="44.353" lon="5.91236">
        <ele>579</ele>
        <time>2019-06-15T10:19:40Z</time>
      </trkpt>
      <trkpt lat="44.35293" lon="5.9123">
        <ele>579</ele>
        <time>2019-06-15T10:19:41Z</time>
      </trkpt>
      <trkpt lat="44.35286" lon="5.91225">
        <ele>579</ele>
        <time>2019-06-15T10:19:42Z</time>
      </trkpt>
      <trkpt lat="44.3528" lon="5.9122">
        <ele>579</ele>
        <time>2019-06-15T10:19:43Z</time>
      </trkpt>
      <trkpt lat="44.35273" lon="5.91214">
        <ele>579</ele>
        <time>2019-06-15T10:19:44Z</time>
      </trkpt>
      <trkpt lat="44.35267" lon="5.91209">
        <ele>579</ele>
        <time>2019-06-15T10:19:45Z</time>
      </trkpt>
      <trkpt lat="44.3526" lon="5.91203">
        <ele>579</ele>
        <time>2019-06-15T10:19:46Z</time>
      </trkpt>
      <trkpt lat="44.35254" lon="5.91197">
        <ele>579</ele>
        <time>2019-06-15T10:19:47Z</time>
      </trkpt>
      <trkpt lat="44.35247" lon="5.91191">
        <ele>579</ele>
        <time>2019-06-15T10:19:48Z</time>
      </trkpt>
      <trkpt lat="44.35241" lon="5.91185">
        <ele>579</ele>
        <time>2019-06-15T10:19:49Z</time>
      </trkpt>
      <trkpt lat="44.35234" lon="5.91179">
        <ele>579</ele>
        <time>2019-06-15T10:19:50Z</time>
      </trkpt>
      <trkpt lat="44.35227" lon="5.91173">
        <ele>579</ele>
        <time>2019-06-15T10:19:51Z</time>
      </trkpt>
      <trkpt lat="44.3522" lon="5.91167">
        <ele>579</ele>
        <time>2019-06-15T10:19:52Z</time>
      </trkpt>
      <trkpt lat="44.35214" lon="5.91161">
        <ele>579</ele>
        <time>2019-06-15T10:19:53Z</time>
      </trkpt>
      <trkpt lat="44.35207" lon="5.91156">
        <ele>579</ele>
        <time>2019-06-15T10:19:54Z</time>
      </trkpt>
      <trkpt lat="44.352" lon="5.9115">
        <ele>579</ele>
        <time>2019-06-15T10:19:55Z</time>
      </trkpt>
      <trkpt lat="44.35194" lon="5.91143">
        <ele>579</ele>
        <time>2019-06-15T10:19:56Z</time>
      </trkpt>
      <trkpt lat="44.35187" lon="5.91137">
        <ele>579</ele>
        <time>2019-06-15T10:19:57Z</time>
      </trkpt>
      <trkpt lat="44.3518" lon="5.9113">
        <ele>579</ele>
        <time>2019-06-15T10:19:58Z</time>
      </trkpt>
      <trkpt lat="44.35173" lon="5.91124">
        <ele>579</ele>
        <time>2019-06-15T10:19:59Z</time>
      </trkpt>
      <trkpt lat="44.35167" lon="5.91118">
        <ele>579</ele>
        <time>2019-06-15T10:20:00Z</time>
      </trkpt>
      <trkpt lat="44.3516" lon="5.91112">
        <ele>579</ele>
        <time>2019-06-15T10:20:01Z</time>
      </trkpt>
      <trkpt lat="44.35153" lon="5.91105">
        <ele>579</ele>
        <time>2019-06-15T10:20:02Z</time>
      </trkpt>
      <trkpt lat="44.35146" lon="5.91097">
        <ele>579</ele>
        <time>2019-06-15T10:20:03Z</time>
      </trkpt>
      <trkpt lat="44.35139" lon="5.9109">
        <ele>578</ele>
        <time>2019-06-15T10:20:04Z</time>
      </trkpt>
      <trkpt lat="44.35131" lon="5.91083">
        <ele>577</ele>
        <time>2019-06-15T10:20:05Z</time>
      </trkpt>
      <trkpt lat="44.35124" lon="5.91077">
        <ele>577</ele>
        <time>2019-06-15T10:20:06Z</time>
      </trkpt>
      <trkpt lat="44.35116" lon="5.9107">
        <ele>576</ele>
        <time>2019-06-15T10:20:07Z</time>
      </trkpt>
      <trkpt lat="44.35109" lon="5.91062">
        <ele>576</ele>
        <time>2019-06-15T10:20:08Z</time>
      </trkpt>
      <trkpt lat="44.35101" lon="5.91055">
        <ele>576</ele>
        <time>2019-06-15T10:20:09Z</time>
      </trkpt>
      <trkpt lat="44.35094" lon="5.91048">
        <ele>575</ele>
        <time>2019-06-15T10:20:10Z</time>
      </trkpt>
      <trkpt lat="44.35086" lon="5.91041">
        <ele>575</ele>
        <time>2019-06-15T10:20:11Z</time>
      </trkpt>
      <trkpt lat="44.35078" lon="5.91034">
        <ele>574</ele>
        <time>2019-06-15T10:20:12Z</time>
      </trkpt>
      <trkpt lat="44.3507" lon="5.91026">
        <ele>574</ele>
        <time>2019-06-15T10:20:13Z</time>
      </trkpt>
      <trkpt lat="44.35062" lon="5.91019">
        <ele>574</ele>
        <time>2019-06-15T10:20:14Z</time>
      </trkpt>
      <trkpt lat="44.35054" lon="5.91012">
        <ele>573</ele>
        <time>2019-06-15T10:20:15Z</time>
      </trkpt>
      <trkpt lat="44.35047" lon="5.91004">
        <ele>573</ele>
        <time>2019-06-15T10:20:16Z</time>
      </trkpt>
      <trkpt lat="44.35039" lon="5.90997">
        <ele>573</ele>
        <time>2019-06-15T10:20:17Z</time>
      </trkpt>
      <trkpt lat="44.35031" lon="5.9099">
        <ele>573</ele>
        <time>2019-06-15T10:20:18Z</time>
      </trkpt>
      <trkpt lat="44.35023" lon="5.90982">
        <ele>572</ele>
        <time>2019-06-15T10:20:19Z</time>
      </trkpt>
      <trkpt lat="44.35014" lon="5.90975">
        <ele>572</ele>
        <time>2019-06-15T10:20:20Z</time>
      </trkpt>
      <trkpt lat="44.35006" lon="5.90967">
        <ele>572</ele>
        <time>2019-06-15T10:20:21Z</time>
      </trkpt>
      <trkpt lat="44.34998" lon="5.90959">
        <ele>571</ele>
        <time>2019-06-15T10:20:22Z</time>
      </trkpt>
      <trkpt lat="44.3499" lon="5.90951">
        <ele>571</ele>
        <time>2019-06-15T10:20:23Z</time>
      </trkpt>
      <trkpt lat="44.34981" lon="5.90944">
        <ele>571</ele>
        <time>2019-06-15T10:20:24Z</time>
      </trkpt>
      <trkpt lat="44.34973" lon="5.90936">
        <ele>570</ele>
        <time>2019-06-15T10:20:25Z</time>
      </trkpt>
      <trkpt lat="44.34964" lon="5.90928">
        <ele>570</ele>
        <time>2019-06-15T10:20:26Z</time>
      </trkpt>
      <trkpt lat="44.34956" lon="5.90921">
        <ele>570</ele>
        <time>2019-06-15T10:20:27Z</time>
      </trkpt>
      <trkpt lat="44.34947" lon="5.90913">
        <ele>570</ele>
        <time>2019-06-15T10:20:28Z</time>
      </trkpt>
      <trkpt lat="44.34938" lon="5.90906">
        <ele>570</ele>
        <time>2019-06-15T10:20:29Z</time>
      </trkpt>
      <trkpt lat="44.3493" lon="5.909">
        <ele>570</ele>
        <time>2019-06-15T10:20:30Z</time>
      </trkpt>
      <trkpt lat="44.34922" lon="5.90894">
        <ele>570</ele>
        <time>2019-06-15T10:20:31Z</time>
      </trkpt>
      <trkpt lat="44.34914" lon="5.90888">
        <ele>570</ele>
        <time>2019-06-15T10:20:32Z</time>
      </trkpt>
      <trkpt lat="44.34907" lon="5.90882">
        <ele>570</ele>
        <time>2019-06-15T10:20:33Z</time>
      </trkpt>
      <trkpt lat="44.34899" lon="5.90877">
        <ele>570</ele>
        <time>2019-06-15T10:20:34Z</time>
      </trkpt>
      <trkpt lat="44.34892" lon="5.90871">
        <ele>570</ele>
        <time>2019-06-15T10:20:35Z</time>
      </trkpt>
      <trkpt lat="44.34885" lon="5.90866">
        <ele>570</ele>
        <time>2019-06-15T10:20:36Z</time>
      </trkpt>
      <trkpt lat="44.34877" lon="5.90861">
        <ele>570</ele>
        <time>2019-06-15T10:20:37Z</time>
      </trkpt>
      <trkpt lat="44.34871" lon="5.90855">
        <ele>570</ele>
        <time>2019-06-15T10:20:38Z</time>
      </trkpt>
      <trkpt lat="44.34863" lon="5.9085">
        <ele>570</ele>
        <time>2019-06-15T10:20:39Z</time>
      </trkpt>
      <trkpt lat="44.34856" lon="5.90845">
        <ele>570</ele>
        <time>2019-06-15T10:20:40Z</time>
      </trkpt>
      <trkpt lat="44.34849" lon="5.90839">
        <ele>570</ele>
        <time>2019-06-15T10:20:41Z</time>
      </trkpt>
      <trkpt lat="44.34843" lon="5.90834">
        <ele>570</ele>
        <time>2019-06-15T10:20:42Z</time>
      </trkpt>
      <trkpt lat="44.34835" lon="5.90829">
        <ele>570</ele>
        <time>2019-06-15T10:20:43Z</time>
      </trkpt>
      <trkpt lat="44.34829" lon="5.90824">
        <ele>570</ele>
        <time>2019-06-15T10:20:44Z</time>
      </trkpt>
      <trkpt lat="44.34822" lon="5.90818">
        <ele>570</ele>
        <time>2019-06-15T10:20:45Z</time>
      </trkpt>
      <trkpt lat="44.34816" lon="5.90813">
        <ele>570</ele>
        <time>2019-06-15T10:20:46Z</time>
      </trkpt>
      <trkpt lat="44.34809" lon="5.90808">
        <ele>570</ele>
        <time>2019-06-15T10:20:47Z</time>
      </trkpt>
      <trkpt lat="44.34802" lon="5.90802">
        <ele>570</ele>
        <time>2019-06-15T10:20:48Z</time>
      </trkpt>
      <trkpt lat="44.34796" lon="5.90797">
        <ele>570</ele>
        <time>2019-06-15T10:20:49Z</time>
      </trkpt>
      <trkpt lat="44.34789" lon="5.90792">
        <ele>570</ele>
        <time>2019-06-15T10:20:50Z</time>
      </trkpt>
      <trkpt lat="44.34783" lon="5.90787">
        <ele>570</ele>
        <time>2019-06-15T10:20:51Z</time>
      </trkpt>
      <trkpt lat="44.34777" lon="5.90781">
        <ele>570</ele>
        <time>2019-06-15T10:20:52Z</time>
      </trkpt>
      <trkpt lat="44.34771" lon="5.90776">
        <ele>570</ele>
        <time>2019-06-15T10:20:53Z</time>
      </trkpt>
      <trkpt lat="44.34765" lon="5.90771">
        <ele>570</ele>
        <time>2019-06-15T10:20:54Z</time>
      </trkpt>
      <trkpt lat="44.34758" lon="5.90766">
        <ele>570</ele>
        <time>2019-06-15T10:20:55Z</time>
      </trkpt>
      <trkpt lat="44.34753" lon="5.90761">
        <ele>570</ele>
        <time>2019-06-15T10:20:56Z</time>
      </trkpt>
      <trkpt lat="44.34747" lon="5.90757">
        <ele>570</ele>
        <time>2019-06-15T10:20:57Z</time>
      </trkpt>
      <trkpt lat="44.34741" lon="5.90752">
        <ele>570</ele>
        <time>2019-06-15T10:20:58Z</time>
      </trkpt>
      <trkpt lat="44.34735" lon="5.90747">
        <ele>570</ele>
        <time>2019-06-15T10:20:59Z</time>
      </trkpt>
      <trkpt lat="44.34729" lon="5.90743">
        <ele>570</ele>
        <time>2019-06-15T10:21:00Z</time>
      </trkpt>
      <trkpt lat="44.34723" lon="5.90739">
        <ele>570</ele>
        <time>2019-06-15T10:21:01Z</time>
      </trkpt>
      <trkpt lat="44.34717" lon="5.90734">
        <ele>570</ele>
        <time>2019-06-15T10:21:02Z</time>
      </trkpt>
      <trkpt lat="44.34711" lon="5.9073">
        <ele>570</ele>
        <time>2019-06-15T10:21:03Z</time>
      </trkpt>
      <trkpt lat="44.34706" lon="5.90727">
        <ele>571</ele>
        <time>2019-06-15T10:21:04Z</time>
      </trkpt>
      <trkpt lat="44.34701" lon="5.90724">
        <ele>571</ele>
        <time>2019-06-15T10:21:05Z</time>
      </trkpt>
      <trkpt lat="44.34695" lon="5.90721">
        <ele>571</ele>
        <time>2019-06-15T10:21:06Z</time>
      </trkpt>
      <trkpt lat="44.3469" lon="5.90718">
        <ele>571</ele>
        <time>2019-06-15T10:21:07Z</time>
      </trkpt>
      <trkpt lat="44.34686" lon="5.90714">
        <ele>572</ele>
        <time>2019-06-15T10:21:08Z</time>
      </trkpt>
      <trkpt lat="44.34681" lon="5.90711">
        <ele>572</ele>
        <time>2019-06-15T10:21:09Z</time>
      </trkpt>
      <trkpt lat="44.34676" lon="5.90707">
        <ele>572</ele>
        <time>2019-06-15T10:21:10Z</time>
      </trkpt>
      <trkpt lat="44.34672" lon="5.90704">
        <ele>572</ele>
        <time>2019-06-15T10:21:11Z</time>
      </trkpt>
      <trkpt lat="44.34668" lon="5.90701">
        <ele>572</ele>
        <time>2019-06-15T10:21:12Z</time>
      </trkpt>
      <trkpt lat="44.34663" lon="5.90699">
        <ele>572</ele>
        <time>2019-06-15T10:21:13Z</time>
      </trkpt>
      <trkpt lat="44.34659" lon="5.90696">
        <ele>572</ele>
        <time>2019-06-15T10:21:14Z</time>
      </trkpt>
      <trkpt lat="44.34655" lon="5.90694">
        <ele>572</ele>
        <time>2019-06-15T10:21:15Z</time>
      </trkpt>
      <trkpt lat="44.34651" lon="5.90691">
        <ele>573</ele>
        <time>2019-06-15T10:21:16Z</time>
      </trkpt>
      <trkpt lat="44.34647" lon="5.90689">
        <ele>573</ele>
        <time>2019-06-15T10:21:17Z</time>
      </trkpt>
      <trkpt lat="44.34644" lon="5.90686">
        <ele>573</ele>
        <time>2019-06-15T10:21:18Z</time>
      </trkpt>
      <trkpt lat="44.3464" lon="5.90684">
        <ele>573</ele>
        <time>2019-06-15T10:21:19Z</time>
      </trkpt>
      <trkpt lat="44.34636" lon="5.90681">
        <ele>574</ele>
        <time>2019-06-15T10:21:20Z</time>
      </trkpt>
      <trkpt lat="44.34632" lon="5.90678">
        <ele>574</ele>
        <time>2019-06-15T10:21:21Z</time>
      </trkpt>
      <trkpt lat="44.34629" lon="5.90675">
        <ele>574</ele>
        <time>2019-06-15T10:21:22Z</time>
      </trkpt>
      <trkpt lat="44.34625" lon="5.90673">
        <ele>574</ele>
        <time>2019-06-15T10:21:23Z</time>
      </trkpt>
      <trkpt lat="44.34622" lon="5.90671">
        <ele>575</ele>
        <time>2019-06-15T10:21:24Z</time>
      </trkpt>
      <trkpt lat="44.34618" lon="5.90668">
        <ele>575</ele>
        <time>2019-06-15T10:21:25Z</time>
      </trkpt>
      <trkpt lat="44.34615" lon="5.90665">
        <ele>575</ele>
        <time>2019-06-15T10:21:26Z</time>
      </trkpt>
      <trkpt lat="44.34611" lon="5.90662">
        <ele>575</ele>
        <time>2019-06-15T10:21:27Z</time>
      </trkpt>
      <trkpt lat="44.34607" lon="5.90659">
        <ele>575</ele>
        <time>2019-06-15T10:21:28Z</time>
      </trkpt>
      <trkpt lat="44.34603" lon="5.90656">
        <ele>575</ele>
        <time>2019-06-15T10:21:29Z</time>
      </trkpt>
      <trkpt lat="44.34599" lon="5.90653">
        <ele>575</ele>
        <time>2019-06-15T10:21:30Z</time>
      </trkpt>
      <trkpt lat="44.34595" lon="5.90649">
        <ele>575</ele>
        <time>2019-06-15T10:21:31Z</time>
      </trkpt>
      <trkpt lat="44.34591" lon="5.90645">
        <ele>575</ele>
        <time>2019-06-15T10:21:32Z</time>
      </trkpt>
      <trkpt lat="44.34587" lon="5.90641">
        <ele>575</ele>
        <time>2019-06-15T10:21:33Z</time>
      </trkpt>
      <trkpt lat="44.34582" lon="5.90637">
        <ele>575</ele>
        <time>2019-06-15T10:21:34Z</time>
      </trkpt>
      <trkpt lat="44.34578" lon="5.90633">
        <ele>575</ele>
        <time>2019-06-15T10:21:35Z</time>
      </trkpt>
      <trkpt lat="44.34573" lon="5.90629">
        <ele>575</ele>
        <time>2019-06-15T10:21:36Z</time>
      </trkpt>
      <trkpt lat="44.34568" lon="5.90625">
        <ele>575</ele>
        <time>2019-06-15T10:21:37Z</time>
      </trkpt>
      <trkpt lat="44.34564" lon="5.90621">
        <ele>575</ele>
        <time>2019-06-15T10:21:38Z</time>
      </trkpt>
      <trkpt lat="44.34559" lon="5.90617">
        <ele>575</ele>
        <time>2019-06-15T10:21:39Z</time>
      </trkpt>
      <trkpt lat="44.34554" lon="5.90613">
        <ele>575</ele>
        <time>2019-06-15T10:21:40Z</time>
      </trkpt>
      <trkpt lat="44.34549" lon="5.90609">
        <ele>575</ele>
        <time>2019-06-15T10:21:41Z</time>
      </trkpt>
      <trkpt lat="44.34544" lon="5.90605">
        <ele>575</ele>
        <time>2019-06-15T10:21:42Z</time>
      </trkpt>
      <trkpt lat="44.34539" lon="5.90601">
        <ele>575</ele>
        <time>2019-06-15T10:21:43Z</time>
      </trkpt>
      <trkpt lat="44.34535" lon="5.90597">
        <ele>575</ele>
        <time>2019-06-15T10:21:44Z</time>
      </trkpt>
      <trkpt lat="44.3453" lon="5.90593">
        <ele>575</ele>
        <time>2019-06-15T10:21:45Z</time>
      </trkpt>
      <trkpt lat="44.34525" lon="5.90589">
        <ele>575</ele>
        <time>2019-06-15T10:21:46Z</time>
      </trkpt>
      <trkpt lat="44.3452" lon="5.90585">
        <ele>575</ele>
        <time>2019-06-15T10:21:47Z</time>
      </trkpt>
      <trkpt lat="44.34515" lon="5.90581">
        <ele>575</ele>
        <time>2019-06-15T10:21:48Z</time>
      </trkpt>
      <trkpt lat="44.3451" lon="5.90576">
        <ele>575</ele>
        <time>2019-06-15T10:21:49Z</time>
      </trkpt>
      <trkpt lat="44.34505" lon="5.90573">
        <ele>575</ele>
        <time>2019-06-15T10:21:50Z</time>
      </trkpt>
      <trkpt lat="44.345" lon="5.90569">
        <ele>575</ele>
        <time>2019-06-15T10:21:51Z</time>
      </trkpt>
      <trkpt lat="44.34495" lon="5.90564">
        <ele>575</ele>
        <time>2019-06-15T10:21:52Z</time>
      </trkpt>
      <trkpt lat="44.3449" lon="5.9056">
        <ele>575</ele>
        <time>2019-06-15T10:21:53Z</time>
      </trkpt>
      <trkpt lat="44.34485" lon="5.90556">
        <ele>575</ele>
        <time>2019-06-15T10:21:54Z</time>
      </trkpt>
      <trkpt lat="44.3448" lon="5.90552">
        <ele>575</ele>
        <time>2019-06-15T10:21:55Z</time>
      </trkpt>
      <trkpt lat="44.34475" lon="5.90548">
        <ele>575</ele>
        <time>2019-06-15T10:21:56Z</time>
      </trkpt>
      <trkpt lat="44.3447" lon="5.90544">
        <ele>575</ele>
        <time>2019-06-15T10:21:57Z</time>
      </trkpt>
      <trkpt lat="44.34465" lon="5.9054">
        <ele>575</ele>
        <time>2019-06-15T10:21:58Z</time>
      </trkpt>
      <trkpt lat="44.3446" lon="5.90535">
        <ele>575</ele>
        <time>2019-06-15T10:21:59Z</time>
      </trkpt>
      <trkpt lat="44.34456" lon="5.90531">
        <ele>575</ele>
        <time>2019-06-15T10:22:00Z</time>
      </trkpt>
      <trkpt lat="44.34451" lon="5.90527">
        <ele>575</ele>
        <time>2019-06-15T10:22:01Z</time>
      </trkpt>
      <trkpt lat="44.34446" lon="5.90523">
        <ele>575</ele>
        <time>2019-06-15T10:22:02Z</time>
      </trkpt>
      <trkpt lat="44.34442" lon="5.90519">
        <ele>575</ele>
        <time>2019-06-15T10:22:03Z</time>
      </trkpt>
      <trkpt lat="44.34437" lon="5.90514">
        <ele>575</ele>
        <time>2019-06-15T10:22:04Z</time>
      </trkpt>
      <trkpt lat="44.34433" lon="5.9051">
        <ele>575</ele>
        <time>2019-06-15T10:22:05Z</time>
      </trkpt>
      <trkpt lat="44.34429" lon="5.90505">
        <ele>575</ele>
        <time>2019-06-15T10:22:06Z</time>
      </trkpt>
      <trkpt lat="44.34425" lon="5.90501">
        <ele>575</ele>
        <time>2019-06-15T10:22:07Z</time>
      </trkpt>
      <trkpt lat="44.34421" lon="5.90496">
        <ele>575</ele>
        <time>2019-06-15T10:22:08Z</time>
      </trkpt>
      <trkpt lat="44.34417" lon="5.90491">
        <ele>575</ele>
        <time>2019-06-15T10:22:09Z</time>
      </trkpt>
      <trkpt lat="44.34413" lon="5.90485">
        <ele>575</ele>
        <time>2019-06-15T10:22:10Z</time>
      </trkpt>
      <trkpt lat="44.3441" lon="5.90479">
        <ele>575</ele>
        <time>2019-06-15T10:22:11Z</time>
      </trkpt>
      <trkpt lat="44.34407" lon="5.90472">
        <ele>575</ele>
        <time>2019-06-15T10:22:12Z</time>
      </trkpt>
      <trkpt lat="44.34403" lon="5.90466">
        <ele>575</ele>
        <time>2019-06-15T10:22:13Z</time>
      </trkpt>
      <trkpt lat="44.34399" lon="5.90461">
        <ele>575</ele>
        <time>2019-06-15T10:22:14Z</time>
      </trkpt>
      <trkpt lat="44.34395" lon="5.90458">
        <ele>575</ele>
        <time>2019-06-15T10:22:15Z</time>
      </trkpt>
      <trkpt lat="44.3439" lon="5.90454">
        <ele>575</ele>
        <time>2019-06-15T10:22:16Z</time>
      </trkpt>
      <trkpt lat="44.34384" lon="5.90451">
        <ele>575</ele>
        <time>2019-06-15T10:22:17Z</time>
      </trkpt>
      <trkpt lat="44.34379" lon="5.90448">
        <ele>575</ele>
        <time>2019-06-15T10:22:18Z</time>
      </trkpt>
      <trkpt lat="44.34372" lon="5.90445">
        <ele>575</ele>
        <time>2019-06-15T10:22:19Z</time>
      </trkpt>
      <trkpt lat="44.34366" lon="5.90441">
        <ele>575</ele>
        <time>2019-06-15T10:22:20Z</time>
      </trkpt>
      <trkpt lat="44.34358" lon="5.90437">
        <ele>575</ele>
        <time>2019-06-15T10:22:21Z</time>
      </trkpt>
      <trkpt lat="44.34351" lon="5.90433">
        <ele>575</ele>
        <time>2019-06-15T10:22:22Z</time>
      </trkpt>
      <trkpt lat="44.34343" lon="5.90429">
        <ele>575</ele>
        <time>2019-06-15T10:22:23Z</time>
      </trkpt>
      <trkpt lat="44.34335" lon="5.90423">
        <ele>575</ele>
        <time>2019-06-15T10:22:24Z</time>
      </trkpt>
      <trkpt lat="44.34328" lon="5.90418">
        <ele>575</ele>
        <time>2019-06-15T10:22:25Z</time>
      </trkpt>
      <trkpt lat="44.3432" lon="5.90412">
        <ele>575</ele>
        <time>2019-06-15T10:22:26Z</time>
      </trkpt>
      <trkpt lat="44.34313" lon="5.90406">
        <ele>575</ele>
        <time>2019-06-15T10:22:27Z</time>
      </trkpt>
      <trkpt lat="44.34306" lon="5.904">
        <ele>575</ele>
        <time>2019-06-15T10:22:28Z</time>
      </trkpt>
      <trkpt lat="44.343" lon="5.90393">
        <ele>575</ele>
        <time>2019-06-15T10:22:29Z</time>
      </trkpt>
      <trkpt lat="44.34294" lon="5.90387">
        <ele>575</ele>
        <time>2019-06-15T10:22:30Z</time>
      </trkpt>
      <trkpt lat="44.34288" lon="5.90381">
        <ele>575</ele>
        <time>2019-06-15T10:22:31Z</time>
      </trkpt>
      <trkpt lat="44.34282" lon="5.90375">
        <ele>575</ele>
        <time>2019-06-15T10:22:32Z</time>
      </trkpt>
      <trkpt lat="44.34277" lon="5.90369">
        <ele>575</ele>
        <time>2019-06-15T10:22:33Z</time>
      </trkpt>
      <trkpt lat="44.34272" lon="5.90363">
        <ele>575</ele>
        <time>2019-06-15T10:22:34Z</time>
      </trkpt>
      <trkpt lat="44.34267" lon="5.90357">
        <ele>575</ele>
        <time>2019-06-15T10:22:35Z</time>
      </trkpt>
      <trkpt lat="44.34262" lon="5.90351">
        <ele>575</ele>
        <time>2019-06-15T10:22:36Z</time>
      </trkpt>
      <trkpt lat="44.34258" lon="5.90345">
        <ele>575</ele>
        <time>2019-06-15T10:22:37Z</time>
      </trkpt>
      <trkpt lat="44.34253" lon="5.9034">
        <ele>575</ele>
        <time>2019-06-15T10:22:38Z</time>
      </trkpt>
      <trkpt lat="44.34249" lon="5.90335">
        <ele>575</ele>
        <time>2019-06-15T10:22:39Z</time>
      </trkpt>
      <trkpt lat="44.34246" lon="5.9033">
        <ele>575</ele>
        <time>2019-06-15T10:22:40Z</time>
      </trkpt>
      <trkpt lat="44.34242" lon="5.90325">
        <ele>575</ele>
        <time>2019-06-15T10:22:41Z</time>
      </trkpt>
      <trkpt lat="44.34238" lon="5.9032">
        <ele>575</ele>
        <time>2019-06-15T10:22:42Z</time>
      </trkpt>
      <trkpt lat="44.34235" lon="5.90316">
        <ele>575</ele>
        <time>2019-06-15T10:22:43Z</time>
      </trkpt>
      <trkpt lat="44.34232" lon="5.90311">
        <ele>575</ele>
        <time>2019-06-15T10:22:44Z</time>
      </trkpt>
      <trkpt lat="44.34229" lon="5.90306">
        <ele>575</ele>
        <time>2019-06-15T10:22:45Z</time>
      </trkpt>
      <trkpt lat="44.34225" lon="5.90301">
        <ele>575</ele>
        <time>2019-06-15T10:22:46Z</time>
      </trkpt>
      <trkpt lat="44.34222" lon="5.90297">
        <ele>575</ele>
        <time>2019-06-15T10:22:47Z</time>
      </trkpt>
      <trkpt lat="44.34219" lon="5.90292">
        <ele>575</ele>
        <time>2019-06-15T10:22:48Z</time>
      </trkpt>
      <trkpt lat="44.34215" lon="5.90287">
        <ele>575</ele>
        <time>2019-06-15T10:22:49Z</time>
      </trkpt>
      <trkpt lat="44.34212" lon="5.90283">
        <ele>575</ele>
        <time>2019-06-15T10:22:50Z</time>
      </trkpt>
      <trkpt lat="44.34209" lon="5.90279">
        <ele>575</ele>
        <time>2019-06-15T10:22:51Z</time>
      </trkpt>
      <trkpt lat="44.34206" lon="5.90274">
        <ele>575</ele>
        <time>2019-06-15T10:22:52Z</time>
      </trkpt>
      <trkpt lat="44.34203" lon="5.9027">
        <ele>575</ele>
        <time>2019-06-15T10:22:53Z</time>
      </trkpt>
      <trkpt lat="44.342" lon="5.90267">
        <ele>575</ele>
        <time>2019-06-15T10:22:54Z</time>
      </trkpt>
      <trkpt lat="44.34197" lon="5.90263">
        <ele>575</ele>
        <time>2019-06-15T10:22:55Z</time>
      </trkpt>
      <trkpt lat="44.34195" lon="5.90259">
        <ele>575</ele>
        <time>2019-06-15T10:22:56Z</time>
      </trkpt>
      <trkpt lat="44.34192" lon="5.90255">
        <ele>575</ele>
        <time>2019-06-15T10:22:57Z</time>
      </trkpt>
      <trkpt lat="44.34189" lon="5.90251">
        <ele>575</ele>
        <time>2019-06-15T10:22:58Z</time>
      </trkpt>
      <trkpt lat="44.34187" lon="5.90248">
        <ele>575</ele>
        <time>2019-06-15T10:22:59Z</time>
      </trkpt>
      <trkpt lat="44.34184" lon="5.90244">
        <ele>575</ele>
        <time>2019-06-15T10:23:00Z</time>
      </trkpt>
      <trkpt lat="44.34181" lon="5.90241">
        <ele>575</ele>
        <time>2019-06-15T10:23:01Z</time>
      </trkpt>
      <trkpt lat="44.34179" lon="5.90238">
        <ele>575</ele>
        <time>2019-06-15T10:23:02Z</time>
      </trkpt>
      <trkpt lat="44.34176" lon="5.90236">
        <ele>575</ele>
        <time>2019-06-15T10:23:03Z</time>
      </trkpt>
      <trkpt lat="44.34174" lon="5.90233">
        <ele>575</ele>
        <time>2019-06-15T10:23:04Z</time>
      </trkpt>
      <trkpt lat="44.34171" lon="5.9023">
        <ele>575</ele>
        <time>2019-06-15T10:23:05Z</time>
      </trkpt>
      <trkpt lat="44.34169" lon="5.90227">
        <ele>575</ele>
        <time>2019-06-15T10:23:06Z</time>
      </trkpt>
      <trkpt lat="44.34166" lon="5.90224">
        <ele>575</ele>
        <time>2019-06-15T10:23:07Z</time>
      </trkpt>
      <trkpt lat="44.34164" lon="5.9022">
        <ele>575</ele>
        <time>2019-06-15T10:23:08Z</time>
      </trkpt>
      <trkpt lat="44.34162" lon="5.90217">
        <ele>575</ele>
        <time>2019-06-15T10:23:09Z</time>
      </trkpt>
      <trkpt lat="44.34159" lon="5.90214">
        <ele>575</ele>
        <time>2019-06-15T10:23:10Z</time>
      </trkpt>
      <trkpt lat="44.34157" lon="5.90211">
        <ele>575</ele>
        <time>2019-06-15T10:23:11Z</time>
      </trkpt>
      <trkpt lat="44.34154" lon="5.90208">
        <ele>575</ele>
        <time>2019-06-15T10:23:12Z</time>
      </trkpt>
      <trkpt lat="44.34151" lon="5.90205">
        <ele>576</ele>
        <time>2019-06-15T10:23:13Z</time>
      </trkpt>
      <trkpt lat="44.34149" lon="5.90202">
        <ele>576</ele>
        <time>2019-06-15T10:23:14Z</time>
      </trkpt>
      <trkpt lat="44.34146" lon="5.90199">
        <ele>577</ele>
        <time>2019-06-15T10:23:15Z</time>
      </trkpt>
      <trkpt lat="44.34143" lon="5.90196">
        <ele>577</ele>
        <time>2019-06-15T10:23:16Z</time>
      </trkpt>
      <trkpt lat="44.3414" lon="5.90193">
        <ele>578</ele>
        <time>2019-06-15T10:23:17Z</time>
      </trkpt>
      <trkpt lat="44.34137" lon="5.90189">
        <ele>578</ele>
        <time>2019-06-15T10:23:18Z</time>
      </trkpt>
      <trkpt lat="44.34133" lon="5.90186">
        <ele>578</ele>
        <time>2019-06-15T10:23:19Z</time>
      </trkpt>
      <trkpt lat="44.3413" lon="5.90182">
        <ele>578</ele>
        <time>2019-06-15T10:23:20Z</time>
      </trkpt>
      <trkpt lat="44.34127" lon="5.90178">
        <ele>579</ele>
        <time>2019-06-15T10:23:21Z</time>
      </trkpt>
      <trkpt lat="44.34123" lon="5.90174">
        <ele>579</ele>
        <time>2019-06-15T10:23:22Z</time>
      </trkpt>
      <trkpt lat="44.34119" lon="5.90171">
        <ele>579</ele>
        <time>2019-06-15T10:23:23Z</time>
      </trkpt>
      <trkpt lat="44.34115" lon="5.90167">
        <ele>579</ele>
        <time>2019-06-15T10:23:24Z</time>
      </trkpt>
      <trkpt lat="44.34111" lon="5.90164">
        <ele>579</ele>
        <time>2019-06-15T10:23:25Z</time>
      </trkpt>
      <trkpt lat="44.34107" lon="5.9016">
        <ele>579</ele>
        <time>2019-06-15T10:23:26Z</time>
      </trkpt>
      <trkpt lat="44.34102" lon="5.90156">
        <ele>579</ele>
        <time>2019-06-15T10:23:27Z</time>
      </trkpt>
      <trkpt lat="44.34098" lon="5.90151">
        <ele>579</ele>
        <time>2019-06-15T10:23:28Z</time>
      </trkpt>
      <trkpt lat="44.34093" lon="5.90147">
        <ele>579</ele>
        <time>2019-06-15T10:23:29Z</time>
      </trkpt>
      <trkpt lat="44.34088" lon="5.90143">
        <ele>579</ele>
        <time>2019-06-15T10:23:30Z</time>
      </trkpt>
      <trkpt lat="44.34083" lon="5.90138">
        <ele>579</ele>
        <time>2019-06-15T10:23:31Z</time>
      </trkpt>
      <trkpt lat="44.34077" lon="5.90133">
        <ele>579</ele>
        <time>2019-06-15T10:23:32Z</time>
      </trkpt>
      <trkpt lat="44.34072" lon="5.90128">
        <ele>579</ele>
        <time>2019-06-15T10:23:33Z</time>
      </trkpt>
      <trkpt lat="44.34066" lon="5.90123">
        <ele>579</ele>
        <time>2019-06-15T10:23:34Z</time>
      </trkpt>
      <trkpt lat="44.34059" lon="5.90118">
        <ele>579</ele>
        <time>2019-06-15T10:23:35Z</time>
      </trkpt>
      <trkpt lat="44.34053" lon="5.90112">
        <ele>579</ele>
        <time>2019-06-15T10:23:36Z</time>
      </trkpt>
      <trkpt lat="44.34046" lon="5.90106">
        <ele>579</ele>
        <time>2019-06-15T10:23:37Z</time>
      </trkpt>
      <trkpt lat="44.34039" lon="5.901">
        <ele>579</ele>
        <time>2019-06-15T10:23:38Z</time>
      </trkpt>
      <trkpt lat="44.34032" lon="5.90094">
        <ele>579</ele>
        <time>2019-06-15T10:23:39Z</time>
      </trkpt>
      <trkpt lat="44.34025" lon="5.90087">
        <ele>579</ele>
        <time>2019-06-15T10:23:40Z</time>
      </trkpt>
      <trkpt lat="44.34017" lon="5.90081">
        <ele>579</ele>
        <time>2019-06-15T10:23:41Z</time>
      </trkpt>
      <trkpt lat="44.3401" lon="5.90074">
        <ele>579</ele>
        <time>2019-06-15T10:23:42Z</time>
      </trkpt>
      <trkpt lat="44.34003" lon="5.90068">
        <ele>579</ele>
        <time>2019-06-15T10:23:43Z</time>
      </trkpt>
      <trkpt lat="44.33995" lon="5.90061">
        <ele>579</ele>
        <time>2019-06-15T10:23:44Z</time>
      </trkpt>
      <trkpt lat="44.33989" lon="5.90053">
        <ele>579</ele>
        <time>2019-06-15T10:23:45Z</time>
      </trkpt>
      <trkpt lat="44.33981" lon="5.90046">
        <ele>579</ele>
        <time>2019-06-15T10:23:46Z</time>
      </trkpt>
      <trkpt lat="44.33975" lon="5.90039">
        <ele>579</ele>
        <time>2019-06-15T10:23:47Z</time>
      </trkpt>
      <trkpt lat="44.33968" lon="5.90032">
        <ele>579</ele>
        <time>2019-06-15T10:23:48Z</time>
      </trkpt>
      <trkpt lat="44.33962" lon="5.90025">
        <ele>579</ele>
        <time>2019-06-15T10:23:49Z</time>
      </trkpt>
      <trkpt lat="44.33956" lon="5.90018">
        <ele>579</ele>
        <time>2019-06-15T10:23:50Z</time>
      </trkpt>
      <trkpt lat="44.3395" lon="5.90012">
        <ele>579</ele>
        <time>2019-06-15T10:23:51Z</time>
      </trkpt>
      <trkpt lat="44.33945" lon="5.90005">
        <ele>579</ele>
        <time>2019-06-15T10:23:52Z</time>
      </trkpt>
      <trkpt lat="44.33939" lon="5.89999">
        <ele>579</ele>
        <time>2019-06-15T10:23:53Z</time>
      </trkpt>
      <trkpt lat="44.33934" lon="5.89993">
        <ele>579</ele>
        <time>2019-06-15T10:23:54Z</time>
      </trkpt>
      <trkpt lat="44.33929" lon="5.89988">
        <ele>579</ele>
        <time>2019-06-15T10:23:55Z</time>
      </trkpt>
      <trkpt lat="44.33924" lon="5.89983">
        <ele>579</ele>
        <time>2019-06-15T10:23:56Z</time>
      </trkpt>
      <trkpt lat="44.33919" lon="5.89977">
        <ele>579</ele>
        <time>2019-06-15T10:23:57Z</time>
      </trkpt>
      <trkpt lat="44.33914" lon="5.89972">
        <ele>579</ele>
        <time>2019-06-15T10:23:58Z</time>
      </trkpt>
      <trkpt lat="44.33909" lon="5.89965">
        <ele>579</ele>
        <time>2019-06-15T10:23:59Z</time>
      </trkpt>
      <trkpt lat="44.33903" lon="5.89959">
        <ele>579</ele>
        <time>2019-06-15T10:24:00Z</time>
      </trkpt>
      <trkpt lat="44.33897" lon="5.89954">
        <ele>579</ele>
        <time>2019-06-15T10:24:01Z</time>
      </trkpt>
      <trkpt lat="44.33892" lon="5.89948">
        <ele>579</ele>
        <time>2019-06-15T10:24:02Z</time>
      </trkpt>
      <trkpt lat="44.33886" lon="5.89943">
        <ele>579</ele>
        <time>2019-06-15T10:24:03Z</time>
      </trkpt>
      <trkpt lat="44.33879" lon="5.89937">
        <ele>579</ele>
        <time>2019-06-15T10:24:04Z</time>
      </trkpt>
      <trkpt lat="44.33873" lon="5.89932">
        <ele>579</ele>
        <time>2019-06-15T10:24:05Z</time>
      </trkpt>
      <trkpt lat="44.33867" lon="5.89926">
        <ele>579</ele>
        <time>2019-06-15T10:24:06Z</time>
      </trkpt>
      <trkpt lat="44.33861" lon="5.89921">
        <ele>579</ele>
        <time>2019-06-15T10:24:07Z</time>
      </trkpt>
      <trkpt lat="44.33855" lon="5.89915">
        <ele>578</ele>
        <time>2019-06-15T10:24:08Z</time>
      </trkpt>
      <trkpt lat="44.33847" lon="5.89909">
        <ele>578</ele>
        <time>2019-06-15T10:24:09Z</time>
      </trkpt>
      <trkpt lat="44.33839" lon="5.89903">
        <ele>578</ele>
        <time>2019-06-15T10:24:10Z</time>
      </trkpt>
      <trkpt lat="44.33831" lon="5.89897">
        <ele>578</ele>
        <time>2019-06-15T10:24:11Z</time>
      </trkpt>
      <trkpt lat="44.33823" lon="5.89892">
        <ele>578</ele>
        <time>2019-06-15T10:24:12Z</time>
      </trkpt>
      <trkpt lat="44.33815" lon="5.89886">
        <ele>578</ele>
        <time>2019-06-15T10:24:13Z</time>
      </trkpt>
      <trkpt lat="44.33807" lon="5.89879">
        <ele>578</ele>
        <time>2019-06-15T10:24:14Z</time>
      </trkpt>
      <trkpt lat="44.33799" lon="5.89873">
        <ele>578</ele>
        <time>2019-06-15T10:24:15Z</time>
      </trkpt>
      <trkpt lat="44.33791" lon="5.89867">
        <ele>578</ele>
        <time>2019-06-15T10:24:16Z</time>
      </trkpt>
      <trkpt lat="44.33783" lon="5.8986">
        <ele>578</ele>
        <time>2019-06-15T10:24:17Z</time>
      </trkpt>
      <trkpt lat="44.33774" lon="5.89854">
        <ele>578</ele>
        <time>2019-06-15T10:24:18Z</time>
      </trkpt>
      <trkpt lat="44.33766" lon="5.89849">
        <ele>578</ele>
        <time>2019-06-15T10:24:19Z</time>
      </trkpt>
      <trkpt lat="44.33758" lon="5.89842">
        <ele>578</ele>
        <time>2019-06-15T10:24:20Z</time>
      </trkpt>
      <trkpt lat="44.3375" lon="5.89836">
        <ele>578</ele>
        <time>2019-06-15T10:24:21Z</time>
      </trkpt>
      <trkpt lat="44.33742" lon="5.89829">
        <ele>577</ele>
        <time>2019-06-15T10:24:22Z</time>
      </trkpt>
      <trkpt lat="44.33734" lon="5.89823">
        <ele>577</ele>
        <time>2019-06-15T10:24:23Z</time>
      </trkpt>
      <trkpt lat="44.33726" lon="5.89818">
        <ele>577</ele>
        <time>2019-06-15T10:24:24Z</time>
      </trkpt>
      <trkpt lat="44.33718" lon="5.89812">
        <ele>577</ele>
        <time>2019-06-15T10:24:25Z</time>
      </trkpt>
      <trkpt lat="44.3371" lon="5.89807">
        <ele>577</ele>
        <time>2019-06-15T10:24:26Z</time>
      </trkpt>
      <trkpt lat="44.33702" lon="5.89802">
        <ele>577</ele>
        <time>2019-06-15T10:24:27Z</time>
      </trkpt>
      <trkpt lat="44.33695" lon="5.89797">
        <ele>577</ele>
        <time>2019-06-15T10:24:28Z</time>
      </trkpt>
      <trkpt lat="44.33688" lon="5.89793">
        <ele>577</ele>
        <time>2019-06-15T10:24:29Z</time>
      </trkpt>
      <trkpt lat="44.33681" lon="5.89789">
        <ele>577</ele>
        <time>2019-06-15T10:24:30Z</time>
      </trkpt>
      <trkpt lat="44.33674" lon="5.89785">
        <ele>577</ele>
        <time>2019-06-15T10:24:31Z</time>
      </trkpt>
      <trkpt lat="44.33668" lon="5.89782">
        <ele>577</ele>
        <time>2019-06-15T10:24:32Z</time>
      </trkpt>
      <trkpt lat="44.33661" lon="5.89778">
        <ele>577</ele>
        <time>2019-06-15T10:24:33Z</time>
      </trkpt>
      <trkpt lat="44.33654" lon="5.89775">
        <ele>577</ele>
        <time>2019-06-15T10:24:34Z</time>
      </trkpt>
      <trkpt lat="44.33648" lon="5.89771">
        <ele>577</ele>
        <time>2019-06-15T10:24:35Z</time>
      </trkpt>
      <trkpt lat="44.33641" lon="5.89768">
        <ele>577</ele>
        <time>2019-06-15T10:24:36Z</time>
      </trkpt>
      <trkpt lat="44.33635" lon="5.89765">
        <ele>577</ele>
        <time>2019-06-15T10:24:37Z</time>
      </trkpt>
      <trkpt lat="44.33628" lon="5.89761">
        <ele>577</ele>
        <time>2019-06-15T10:24:38Z</time>
      </trkpt>
      <trkpt lat="44.33622" lon="5.89757">
        <ele>577</ele>
        <time>2019-06-15T10:24:39Z</time>
      </trkpt>
      <trkpt lat="44.33615" lon="5.89754">
        <ele>577</ele>
        <time>2019-06-15T10:24:40Z</time>
      </trkpt>
      <trkpt lat="44.33608" lon="5.8975">
        <ele>577</ele>
        <time>2019-06-15T10:24:41Z</time>
      </trkpt>
      <trkpt lat="44.33602" lon="5.89747">
        <ele>577</ele>
        <time>2019-06-15T10:24:42Z</time>
      </trkpt>
      <trkpt lat="44.33595" lon="5.89744">
        <ele>577</ele>
        <time>2019-06-15T10:24:43Z</time>
      </trkpt>
      <trkpt lat="44.33589" lon="5.89741">
        <ele>577</ele>
        <time>2019-06-15T10:24:44Z</time>
      </trkpt>
      <trkpt lat="44.33583" lon="5.89737">
        <ele>577</ele>
        <time>2019-06-15T10:24:45Z</time>
      </trkpt>
      <trkpt lat="44.33577" lon="5.89734">
        <ele>577</ele>
        <time>2019-06-15T10:24:46Z</time>
      </trkpt>
      <trkpt lat="44.3357" lon="5.89731">
        <ele>577</ele>
        <time>2019-06-15T10:24:47Z</time>
      </trkpt>
      <trkpt lat="44.33564" lon="5.89727">
        <ele>577</ele>
        <time>2019-06-15T10:24:48Z</time>
      </trkpt>
      <trkpt lat="44.33558" lon="5.89724">
        <ele>577</ele>
        <time>2019-06-15T10:24:49Z</time>
      </trkpt>
      <trkpt lat="44.33551" lon="5.89721">
        <ele>577</ele>
        <time>2019-06-15T10:24:50Z</time>
      </trkpt>
      <trkpt lat="44.33545" lon="5.89719">
        <ele>577</ele>
        <time>2019-06-15T10:24:51Z</time>
      </trkpt>
      <trkpt lat="44.33539" lon="5.89716">
        <ele>577</ele>
        <time>2019-06-15T10:24:52Z</time>
      </trkpt>
      <trkpt lat="44.33533" lon="5.89712">
        <ele>577</ele>
        <time>2019-06-15T10:24:53Z</time>
      </trkpt>
      <trkpt lat="44.33527" lon="5.8971">
        <ele>577</ele>
        <time>2019-06-15T10:24:54Z</time>
      </trkpt>
      <trkpt lat="44.33521" lon="5.89707">
        <ele>577</ele>
        <time>2019-06-15T10:24:55Z</time>
      </trkpt>
      <trkpt lat="44.33514" lon="5.89704">
        <ele>577</ele>
        <time>2019-06-15T10:24:56Z</time>
      </trkpt>
      <trkpt lat="44.33508" lon="5.89701">
        <ele>577</ele>
        <time>2019-06-15T10:24:57Z</time>
      </trkpt>
      <trkpt lat="44.33502" lon="5.89698">
        <ele>577</ele>
        <time>2019-06-15T10:24:58Z</time>
      </trkpt>
      <trkpt lat="44.33496" lon="5.89694">
        <ele>577</ele>
        <time>2019-06-15T10:24:59Z</time>
      </trkpt>
      <trkpt lat="44.3349" lon="5.89691">
        <ele>577</ele>
        <time>2019-06-15T10:25:00Z</time>
      </trkpt>
      <trkpt lat="44.33484" lon="5.89688">
        <ele>577</ele>
        <time>2019-06-15T10:25:01Z</time>
      </trkpt>
      <trkpt lat="44.33477" lon="5.89685">
        <ele>577</ele>
        <time>2019-06-15T10:25:02Z</time>
      </trkpt>
      <trkpt lat="44.33471" lon="5.89682">
        <ele>577</ele>
        <time>2019-06-15T10:25:03Z</time>
      </trkpt>
      <trkpt lat="44.33465" lon="5.89679">
        <ele>577</ele>
        <time>2019-06-15T10:25:04Z</time>
      </trkpt>
      <trkpt lat="44.33458" lon="5.89676">
        <ele>577</ele>
        <time>2019-06-15T10:25:05Z</time>
      </trkpt>
      <trkpt lat="44.33452" lon="5.89674">
        <ele>577</ele>
        <time>2019-06-15T10:25:06Z</time>
      </trkpt>
      <trkpt lat="44.33446" lon="5.89671">
        <ele>577</ele>
        <time>2019-06-15T10:25:07Z</time>
      </trkpt>
      <trkpt lat="44.3344" lon="5.89667">
        <ele>577</ele>
        <time>2019-06-15T10:25:08Z</time>
      </trkpt>
      <trkpt lat="44.33433" lon="5.89664">
        <ele>577</ele>
        <time>2019-06-15T10:25:09Z</time>
      </trkpt>
      <trkpt lat="44.33426" lon="5.89661">
        <ele>577</ele>
        <time>2019-06-15T10:25:10Z</time>
      </trkpt>
      <trkpt lat="44.3342" lon="5.89657">
        <ele>577</ele>
        <time>2019-06-15T10:25:11Z</time>
      </trkpt>
      <trkpt lat="44.33413" lon="5.89654">
        <ele>577</ele>
        <time>2019-06-15T10:25:12Z</time>
      </trkpt>
      <trkpt lat="44.33406" lon="5.89651">
        <ele>577</ele>
        <time>2019-06-15T10:25:13Z</time>
      </trkpt>
      <trkpt lat="44.334" lon="5.89648">
        <ele>577</ele>
        <time>2019-06-15T10:25:14Z</time>
      </trkpt>
      <trkpt lat="44.33393" lon="5.89645">
        <ele>577</ele>
        <time>2019-06-15T10:25:15Z</time>
      </trkpt>
      <trkpt lat="44.33386" lon="5.89642">
        <ele>577</ele>
        <time>2019-06-15T10:25:16Z</time>
      </trkpt>
      <trkpt lat="44.33379" lon="5.89639">
        <ele>577</ele>
        <time>2019-06-15T10:25:17Z</time>
      </trkpt>
      <trkpt lat="44.33373" lon="5.89636">
        <ele>577</ele>
        <time>2019-06-15T10:25:18Z</time>
      </trkpt>
      <trkpt lat="44.33366" lon="5.89633">
        <ele>577</ele>
        <time>2019-06-15T10:25:19Z</time>
      </trkpt>
      <trkpt lat="44.3336" lon="5.89631">
        <ele>577</ele>
        <time>2019-06-15T10:25:20Z</time>
      </trkpt>
      <trkpt lat="44.33353" lon="5.89628">
        <ele>577</ele>
        <time>2019-06-15T10:25:21Z</time>
      </trkpt>
      <trkpt lat="44.33347" lon="5.89625">
        <ele>577</ele>
        <time>2019-06-15T10:25:22Z</time>
      </trkpt>
      <trkpt lat="44.3334" lon="5.89622">
        <ele>577</ele>
        <time>2019-06-15T10:25:23Z</time>
      </trkpt>
      <trkpt lat="44.33334" lon="5.89619">
        <ele>577</ele>
        <time>2019-06-15T10:25:24Z</time>
      </trkpt>
      <trkpt lat="44.33328" lon="5.89616">
        <ele>577</ele>
        <time>2019-06-15T10:25:25Z</time>
      </trkpt>
      <trkpt lat="44.33321" lon="5.89614">
        <ele>577</ele>
        <time>2019-06-15T10:25:26Z</time>
      </trkpt>
      <trkpt lat="44.33315" lon="5.89611">
        <ele>577</ele>
        <time>2019-06-15T10:25:27Z</time>
      </trkpt>
      <trkpt lat="44.33308" lon="5.89609">
        <ele>577</ele>
        <time>2019-06-15T10:25:28Z</time>
      </trkpt>
      <trkpt lat="44.33302" lon="5.89607">
        <ele>577</ele>
        <time>2019-06-15T10:25:29Z</time>
      </trkpt>
      <trkpt lat="44.33296" lon="5.89604">
        <ele>577</ele>
        <time>2019-06-15T10:25:30Z</time>
      </trkpt>
      <trkpt lat="44.3329" lon="5.89603">
        <ele>577</ele>
        <time>2019-06-15T10:25:31Z</time>
      </trkpt>
      <trkpt lat="44.33284" lon="5.89601">
        <ele>577</ele>
        <time>2019-06-15T10:25:32Z</time>
      </trkpt>
      <trkpt lat="44.33278" lon="5.89599">
        <ele>577</ele>
        <time>2019-06-15T10:25:33Z</time>
      </trkpt>
      <trkpt lat="44.33273" lon="5.89596">
        <ele>577</ele>
        <time>2019-06-15T10:25:34Z</time>
      </trkpt>
      <trkpt lat="44.33267" lon="5.89594">
        <ele>577</ele>
        <time>2019-06-15T10:25:35Z</time>
      </trkpt>
      <trkpt lat="44.33261" lon="5.89592">
        <ele>577</ele>
        <time>2019-06-15T10:25:36Z</time>
      </trkpt>
      <trkpt lat="44.33256" lon="5.89589">
        <ele>577</ele>
        <time>2019-06-15T10:25:37Z</time>
      </trkpt>
      <trkpt lat="44.33251" lon="5.89587">
        <ele>577</ele>
        <time>2019-06-15T10:25:38Z</time>
      </trkpt>
      <trkpt lat="44.33245" lon="5.89584">
        <ele>577</ele>
        <time>2019-06-15T10:25:39Z</time>
      </trkpt>
      <trkpt lat="44.3324" lon="5.89582">
        <ele>577</ele>
        <time>2019-06-15T10:25:40Z</time>
      </trkpt>
      <trkpt lat="44.33234" lon="5.8958">
        <ele>577</ele>
        <time>2019-06-15T10:25:41Z</time>
      </trkpt>
      <trkpt lat="44.33228" lon="5.89577">
        <ele>577</ele>
        <time>2019-06-15T10:25:42Z</time>
      </trkpt>
      <trkpt lat="44.33222" lon="5.89575">
        <ele>577</ele>
        <time>2019-06-15T10:25:43Z</time>
      </trkpt>
      <trkpt lat="44.33216" lon="5.89573">
        <ele>577</ele>
        <time>2019-06-15T10:25:44Z</time>
      </trkpt>
      <trkpt lat="44.33211" lon="5.89572">
        <ele>577</ele>
        <time>2019-06-15T10:25:45Z</time>
      </trkpt>
      <trkpt lat="44.33205" lon="5.8957">
        <ele>577</ele>
        <time>2019-06-15T10:25:46Z</time>
      </trkpt>
      <trkpt lat="44.33199" lon="5.89568">
        <ele>577</ele>
        <time>2019-06-15T10:25:47Z</time>
      </trkpt>
      <trkpt lat="44.33194" lon="5.89566">
        <ele>577</ele>
        <time>2019-06-15T10:25:48Z</time>
      </trkpt>
      <trkpt lat="44.33188" lon="5.89564">
        <ele>577</ele>
        <time>2019-06-15T10:25:49Z</time>
      </trkpt>
      <trkpt lat="44.33182" lon="5.89562">
        <ele>577</ele>
        <time>2019-06-15T10:25:50Z</time>
      </trkpt>
      <trkpt lat="44.33176" lon="5.8956">
        <ele>577</ele>
        <time>2019-06-15T10:25:51Z</time>
      </trkpt>
      <trkpt lat="44.33171" lon="5.89558">
        <ele>577</ele>
        <time>2019-06-15T10:25:52Z</time>
      </trkpt>
      <trkpt lat="44.33165" lon="5.89556">
        <ele>577</ele>
        <time>2019-06-15T10:25:53Z</time>
      </trkpt>
      <trkpt lat="44.33158" lon="5.89554">
        <ele>577</ele>
        <time>2019-06-15T10:25:54Z</time>
      </trkpt>
      <trkpt lat="44.33152" lon="5.89552">
        <ele>577</ele>
        <time>2019-06-15T10:25:55Z</time>
      </trkpt>
      <trkpt lat="44.33146" lon="5.8955">
        <ele>577</ele>
        <time>2019-06-15T10:25:56Z</time>
      </trkpt>
      <trkpt lat="44.3314" lon="5.89548">
        <ele>577</ele>
        <time>2019-06-15T10:25:57Z</time>
      </trkpt>
      <trkpt lat="44.33133" lon="5.89546">
        <ele>577</ele>
        <time>2019-06-15T10:25:58Z</time>
      </trkpt>
      <trkpt lat="44.33127" lon="5.89544">
        <ele>577</ele>
        <time>2019-06-15T10:25:59Z</time>
      </trkpt>
      <trkpt lat="44.33121" lon="5.89542">
        <ele>577</ele>
        <time>2019-06-15T10:26:00Z</time>
      </trkpt>
      <trkpt lat="44.33115" lon="5.89541">
        <ele>577</ele>
        <time>2019-06-15T10:26:01Z</time>
      </trkpt>
      <trkpt lat="44.33109" lon="5.89539">
        <ele>577</ele>
        <time>2019-06-15T10:26:02Z</time>
      </trkpt>
      <trkpt lat="44.33102" lon="5.89537">
        <ele>577</ele>
        <time>2019-06-15T10:26:03Z</time>
      </trkpt>
      <trkpt lat="44.33096" lon="5.89535">
        <ele>577</ele>
        <time>2019-06-15T10:26:04Z</time>
      </trkpt>
      <trkpt lat="44.33091" lon="5.89533">
        <ele>577</ele>
        <time>2019-06-15T10:26:05Z</time>
      </trkpt>
      <trkpt lat="44.33085" lon="5.89531">
        <ele>577</ele>
        <time>2019-06-15T10:26:06Z</time>
      </trkpt>
      <trkpt lat="44.33078" lon="5.89529">
        <ele>577</ele>
        <time>2019-06-15T10:26:07Z</time>
      </trkpt>
      <trkpt lat="44.33073" lon="5.89527">
        <ele>577</ele>
        <time>2019-06-15T10:26:08Z</time>
      </trkpt>
      <trkpt lat="44.33067" lon="5.89526">
        <ele>577</ele>
        <time>2019-06-15T10:26:09Z</time>
      </trkpt>
      <trkpt lat="44.3306" lon="5.89524">
        <ele>577</ele>
        <time>2019-06-15T10:26:10Z</time>
      </trkpt>
      <trkpt lat="44.33054" lon="5.89522">
        <ele>577</ele>
        <time>2019-06-15T10:26:11Z</time>
      </trkpt>
      <trkpt lat="44.33048" lon="5.8952">
        <ele>577</ele>
        <time>2019-06-15T10:26:12Z</time>
      </trkpt>
      <trkpt lat="44.33042" lon="5.89518">
        <ele>577</ele>
        <time>2019-06-15T10:26:13Z</time>
      </trkpt>
      <trkpt lat="44.33036" lon="5.89516">
        <ele>577</ele>
        <time>2019-06-15T10:26:14Z</time>
      </trkpt>
      <trkpt lat="44.3303" lon="5.89514">
        <ele>577</ele>
        <time>2019-06-15T10:26:15Z</time>
      </trkpt>
      <trkpt lat="44.33024" lon="5.89511">
        <ele>577</ele>
        <time>2019-06-15T10:26:16Z</time>
      </trkpt>
      <trkpt lat="44.33018" lon="5.89509">
        <ele>577</ele>
        <time>2019-06-15T10:26:17Z</time>
      </trkpt>
      <trkpt lat="44.33012" lon="5.89507">
        <ele>577</ele>
        <time>2019-06-15T10:26:18Z</time>
      </trkpt>
      <trkpt lat="44.33006" lon="5.89504">
        <ele>577</ele>
        <time>2019-06-15T10:26:19Z</time>
      </trkpt>
      <trkpt lat="44.33001" lon="5.89501">
        <ele>577</ele>
        <time>2019-06-15T10:26:20Z</time>
      </trkpt>
      <trkpt lat="44.32995" lon="5.89499">
        <ele>577</ele>
        <time>2019-06-15T10:26:21Z</time>
      </trkpt>
      <trkpt lat="44.32989" lon="5.89496">
        <ele>577</ele>
        <time>2019-06-15T10:26:22Z</time>
      </trkpt>
      <trkpt lat="44.32983" lon="5.89494">
        <ele>577</ele>
        <time>2019-06-15T10:26:23Z</time>
      </trkpt>
      <trkpt lat="44.32977" lon="5.89492">
        <ele>577</ele>
        <time>2019-06-15T10:26:24Z</time>
      </trkpt>
      <trkpt lat="44.32971" lon="5.89489">
        <ele>577</ele>
        <time>2019-06-15T10:26:25Z</time>
      </trkpt>
      <trkpt lat="44.32965" lon="5.89486">
        <ele>576</ele>
        <time>2019-06-15T10:26:26Z</time>
      </trkpt>
      <trkpt lat="44.3296" lon="5.89483">
        <ele>576</ele>
        <time>2019-06-15T10:26:27Z</time>
      </trkpt>
      <trkpt lat="44.32954" lon="5.8948">
        <ele>576</ele>
        <time>2019-06-15T10:26:28Z</time>
      </trkpt>
      <trkpt lat="44.32948" lon="5.89477">
        <ele>576</ele>
        <time>2019-06-15T10:26:29Z</time>
      </trkpt>
      <trkpt lat="44.32942" lon="5.89474">
        <ele>576</ele>
        <time>2019-06-15T10:26:30Z</time>
      </trkpt>
      <trkpt lat="44.32936" lon="5.8947">
        <ele>576</ele>
        <time>2019-06-15T10:26:31Z</time>
      </trkpt>
      <trkpt lat="44.32931" lon="5.89467">
        <ele>576</ele>
        <time>2019-06-15T10:26:32Z</time>
      </trkpt>
      <trkpt lat="44.32925" lon="5.89463">
        <ele>576</ele>
        <time>2019-06-15T10:26:33Z</time>
      </trkpt>
      <trkpt lat="44.32919" lon="5.89459">
        <ele>576</ele>
        <time>2019-06-15T10:26:34Z</time>
      </trkpt>
      <trkpt lat="44.32913" lon="5.89455">
        <ele>576</ele>
        <time>2019-06-15T10:26:35Z</time>
      </trkpt>
      <trkpt lat="44.32907" lon="5.89451">
        <ele>576</ele>
        <time>2019-06-15T10:26:36Z</time>
      </trkpt>
      <trkpt lat="44.32901" lon="5.89447">
        <ele>576</ele>
        <time>2019-06-15T10:26:37Z</time>
      </trkpt>
      <trkpt lat="44.32896" lon="5.89443">
        <ele>576</ele>
        <time>2019-06-15T10:26:38Z</time>
      </trkpt>
      <trkpt lat="44.3289" lon="5.89439">
        <ele>576</ele>
        <time>2019-06-15T10:26:39Z</time>
      </trkpt>
      <trkpt lat="44.32883" lon="5.89434">
        <ele>576</ele>
        <time>2019-06-15T10:26:40Z</time>
      </trkpt>
      <trkpt lat="44.32877" lon="5.89431">
        <ele>576</ele>
        <time>2019-06-15T10:26:41Z</time>
      </trkpt>
      <trkpt lat="44.32871" lon="5.89426">
        <ele>576</ele>
        <time>2019-06-15T10:26:42Z</time>
      </trkpt>
      <trkpt lat="44.32865" lon="5.89422">
        <ele>576</ele>
        <time>2019-06-15T10:26:43Z</time>
      </trkpt>
      <trkpt lat="44.32859" lon="5.89418">
        <ele>576</ele>
        <time>2019-06-15T10:26:44Z</time>
      </trkpt>
      <trkpt lat="44.32853" lon="5.89414">
        <ele>576</ele>
        <time>2019-06-15T10:26:45Z</time>
      </trkpt>
      <trkpt lat="44.32847" lon="5.8941">
        <ele>576</ele>
        <time>2019-06-15T10:26:46Z</time>
      </trkpt>
      <trkpt lat="44.32841" lon="5.89406">
        <ele>576</ele>
        <time>2019-06-15T10:26:47Z</time>
      </trkpt>
      <trkpt lat="44.32835" lon="5.89402">
        <ele>576</ele>
        <time>2019-06-15T10:26:48Z</time>
      </trkpt>
      <trkpt lat="44.32829" lon="5.89398">
        <ele>576</ele>
        <time>2019-06-15T10:26:49Z</time>
      </trkpt>
      <trkpt lat="44.32823" lon="5.89394">
        <ele>576</ele>
        <time>2019-06-15T10:26:50Z</time>
      </trkpt>
      <trkpt lat="44.32817" lon="5.89389">
        <ele>576</ele>
        <time>2019-06-15T10:26:51Z</time>
      </trkpt>
      <trkpt lat="44.32811" lon="5.89385">
        <ele>576</ele>
        <time>2019-06-15T10:26:52Z</time>
      </trkpt>
      <trkpt lat="44.32804" lon="5.8938">
        <ele>576</ele>
        <time>2019-06-15T10:26:53Z</time>
      </trkpt>
      <trkpt lat="44.32798" lon="5.89376">
        <ele>576</ele>
        <time>2019-06-15T10:26:54Z</time>
      </trkpt>
      <trkpt lat="44.32793" lon="5.89372">
        <ele>576</ele>
        <time>2019-06-15T10:26:55Z</time>
      </trkpt>
      <trkpt lat="44.32787" lon="5.89367">
        <ele>576</ele>
        <time>2019-06-15T10:26:56Z</time>
      </trkpt>
      <trkpt lat="44.32781" lon="5.89363">
        <ele>576</ele>
        <time>2019-06-15T10:26:57Z</time>
      </trkpt>
      <trkpt lat="44.32775" lon="5.89359">
        <ele>576</ele>
        <time>2019-06-15T10:26:58Z</time>
      </trkpt>
      <trkpt lat="44.32769" lon="5.89355">
        <ele>576</ele>
        <time>2019-06-15T10:26:59Z</time>
      </trkpt>
      <trkpt lat="44.32763" lon="5.89351">
        <ele>576</ele>
        <time>2019-06-15T10:27:00Z</time>
      </trkpt>
      <trkpt lat="44.32757" lon="5.89347">
        <ele>576</ele>
        <time>2019-06-15T10:27:01Z</time>
      </trkpt>
      <trkpt lat="44.32751" lon="5.89342">
        <ele>576</ele>
        <time>2019-06-15T10:27:02Z</time>
      </trkpt>
      <trkpt lat="44.32745" lon="5.89338">
        <ele>576</ele>
        <time>2019-06-15T10:27:03Z</time>
      </trkpt>
      <trkpt lat="44.3274" lon="5.89334">
        <ele>576</ele>
        <time>2019-06-15T10:27:04Z</time>
      </trkpt>
      <trkpt lat="44.32734" lon="5.89329">
        <ele>576</ele>
        <time>2019-06-15T10:27:05Z</time>
      </trkpt>
      <trkpt lat="44.32728" lon="5.89325">
        <ele>576</ele>
        <time>2019-06-15T10:27:06Z</time>
      </trkpt>
      <trkpt lat="44.32722" lon="5.89321">
        <ele>576</ele>
        <time>2019-06-15T10:27:07Z</time>
      </trkpt>
      <trkpt lat="44.32716" lon="5.89316">
        <ele>576</ele>
        <time>2019-06-15T10:27:08Z</time>
      </trkpt>
      <trkpt lat="44.3271" lon="5.89312">
        <ele>576</ele>
        <time>2019-06-15T10:27:09Z</time>
      </trkpt>
      <trkpt lat="44.32704" lon="5.89307">
        <ele>576</ele>
        <time>2019-06-15T10:27:10Z</time>
      </trkpt>
      <trkpt lat="44.32698" lon="5.89303">
        <ele>576</ele>
        <time>2019-06-15T10:27:11Z</time>
      </trkpt>
      <trkpt lat="44.32692" lon="5.89299">
        <ele>576</ele>
        <time>2019-06-15T10:27:12Z</time>
      </trkpt>
      <trkpt lat="44.32685" lon="5.89294">
        <ele>576</ele>
        <time>2019-06-15T10:27:13Z</time>
      </trkpt>
      <trkpt lat="44.32679" lon="5.8929">
        <ele>576</ele>
        <time>2019-06-15T10:27:14Z</time>
      </trkpt>
      <trkpt lat="44.32673" lon="5.89286">
        <ele>576</ele>
        <time>2019-06-15T10:27:15Z</time>
      </trkpt>
      <trkpt lat="44.32667" lon="5.89281">
        <ele>576</ele>
        <time>2019-06-15T10:27:16Z</time>
      </trkpt>
      <trkpt lat="44.32661" lon="5.89276">
        <ele>576</ele>
        <time>2019-06-15T10:27:17Z</time>
      </trkpt>
      <trkpt lat="44.32655" lon="5.8927">
        <ele>576</ele>
        <time>2019-06-15T10:27:18Z</time>
      </trkpt>
      <trkpt lat="44.3265" lon="5.89265">
        <ele>576</ele>
        <time>2019-06-15T10:27:19Z</time>
      </trkpt>
      <trkpt lat="44.32644" lon="5.8926">
        <ele>576</ele>
        <time>2019-06-15T10:27:20Z</time>
      </trkpt>
      <trkpt lat="44.32638" lon="5.89256">
        <ele>576</ele>
        <time>2019-06-15T10:27:21Z</time>
      </trkpt>
      <trkpt lat="44.32632" lon="5.89251">
        <ele>576</ele>
        <time>2019-06-15T10:27:22Z</time>
      </trkpt>
      <trkpt lat="44.32626" lon="5.89247">
        <ele>576</ele>
        <time>2019-06-15T10:27:23Z</time>
      </trkpt>
      <trkpt lat="44.3262" lon="5.89244">
        <ele>576</ele>
        <time>2019-06-15T10:27:24Z</time>
      </trkpt>
      <trkpt lat="44.32614" lon="5.8924">
        <ele>576</ele>
        <time>2019-06-15T10:27:25Z</time>
      </trkpt>
      <trkpt lat="44.32607" lon="5.89236">
        <ele>576</ele>
        <time>2019-06-15T10:27:26Z</time>
      </trkpt>
      <trkpt lat="44.32601" lon="5.89233">
        <ele>576</ele>
        <time>2019-06-15T10:27:27Z</time>
      </trkpt>
      <trkpt lat="44.32594" lon="5.89229">
        <ele>576</ele>
        <time>2019-06-15T10:27:28Z</time>
      </trkpt>
      <trkpt lat="44.32587" lon="5.89225">
        <ele>576</ele>
        <time>2019-06-15T10:27:29Z</time>
      </trkpt>
      <trkpt lat="44.32581" lon="5.89221">
        <ele>576</ele>
        <time>2019-06-15T10:27:30Z</time>
      </trkpt>
      <trkpt lat="44.32574" lon="5.89218">
        <ele>576</ele>
        <time>2019-06-15T10:27:31Z</time>
      </trkpt>
      <trkpt lat="44.32567" lon="5.89214">
        <ele>576</ele>
        <time>2019-06-15T10:27:32Z</time>
      </trkpt>
      <trkpt lat="44.3256" lon="5.89211">
        <ele>576</ele>
        <time>2019-06-15T10:27:33Z</time>
      </trkpt>
      <trkpt lat="44.32553" lon="5.89208">
        <ele>576</ele>
        <time>2019-06-15T10:27:34Z</time>
      </trkpt>
      <trkpt lat="44.32546" lon="5.89205">
        <ele>576</ele>
        <time>2019-06-15T10:27:35Z</time>
      </trkpt>
      <trkpt lat="44.32539" lon="5.89201">
        <ele>576</ele>
        <time>2019-06-15T10:27:36Z</time>
      </trkpt>
      <trkpt lat="44.32532" lon="5.89198">
        <ele>576</ele>
        <time>2019-06-15T10:27:37Z</time>
      </trkpt>
      <trkpt lat="44.32524" lon="5.89196">
        <ele>576</ele>
        <time>2019-06-15T10:27:38Z</time>
      </trkpt>
      <trkpt lat="44.32517" lon="5.89193">
        <ele>576</ele>
        <time>2019-06-15T10:27:39Z</time>
      </trkpt>
      <trkpt lat="44.3251" lon="5.8919">
        <ele>576</ele>
        <time>2019-06-15T10:27:40Z</time>
      </trkpt>
      <trkpt lat="44.32503" lon="5.89187">
        <ele>576</ele>
        <time>2019-06-15T10:27:41Z</time>
      </trkpt>
      <trkpt lat="44.32496" lon="5.89185">
        <ele>576</ele>
        <time>2019-06-15T10:27:42Z</time>
      </trkpt>
      <trkpt lat="44.32489" lon="5.89183">
        <ele>576</ele>
        <time>2019-06-15T10:27:43Z</time>
      </trkpt>
      <trkpt lat="44.32482" lon="5.89181">
        <ele>575</ele>
        <time>2019-06-15T10:27:44Z</time>
      </trkpt>
      <trkpt lat="44.32475" lon="5.89178">
        <ele>575</ele>
        <time>2019-06-15T10:27:45Z</time>
      </trkpt>
      <trkpt lat="44.32468" lon="5.89175">
        <ele>575</ele>
        <time>2019-06-15T10:27:46Z</time>
      </trkpt>
      <trkpt lat="44.3246" lon="5.89173">
        <ele>575</ele>
        <time>2019-06-15T10:27:47Z</time>
      </trkpt>
      <trkpt lat="44.32453" lon="5.89171">
        <ele>575</ele>
        <time>2019-06-15T10:27:48Z</time>
      </trkpt>
      <trkpt lat="44.32446" lon="5.89169">
        <ele>575</ele>
        <time>2019-06-15T10:27:49Z</time>
      </trkpt>
      <trkpt lat="44.32439" lon="5.89166">
        <ele>575</ele>
        <time>2019-06-15T10:27:50Z</time>
      </trkpt>
      <trkpt lat="44.32432" lon="5.89164">
        <ele>575</ele>
        <time>2019-06-15T10:27:51Z</time>
      </trkpt>
      <trkpt lat="44.32425" lon="5.89162">
        <ele>575</ele>
        <time>2019-06-15T10:27:52Z</time>
      </trkpt>
      <trkpt lat="44.32418" lon="5.8916">
        <ele>575</ele>
        <time>2019-06-15T10:27:53Z</time>
      </trkpt>
      <trkpt lat="44.32412" lon="5.89158">
        <ele>575</ele>
        <time>2019-06-15T10:27:54Z</time>
      </trkpt>
      <trkpt lat="44.32405" lon="5.89156">
        <ele>575</ele>
        <time>2019-06-15T10:27:55Z</time>
      </trkpt>
      <trkpt lat="44.32399" lon="5.89153">
        <ele>575</ele>
        <time>2019-06-15T10:27:56Z</time>
      </trkpt>
      <trkpt lat="44.32393" lon="5.89151">
        <ele>575</ele>
        <time>2019-06-15T10:27:57Z</time>
      </trkpt>
      <trkpt lat="44.32386" lon="5.89149">
        <ele>575</ele>
        <time>2019-06-15T10:27:58Z</time>
      </trkpt>
      <trkpt lat="44.32379" lon="5.89147">
        <ele>575</ele>
        <time>2019-06-15T10:27:59Z</time>
      </trkpt>
      <trkpt lat="44.32373" lon="5.89145">
        <ele>575</ele>
        <time>2019-06-15T10:28:00Z</time>
      </trkpt>
      <trkpt lat="44.32366" lon="5.89143">
        <ele>575</ele>
        <time>2019-06-15T10:28:01Z</time>
      </trkpt>
      <trkpt lat="44.32359" lon="5.89141">
        <ele>575</ele>
        <time>2019-06-15T10:28:02Z</time>
      </trkpt>
      <trkpt lat="44.32353" lon="5.89139">
        <ele>574</ele>
        <time>2019-06-15T10:28:03Z</time>
      </trkpt>
      <trkpt lat="44.32346" lon="5.89137">
        <ele>574</ele>
        <time>2019-06-15T10:28:04Z</time>
      </trkpt>
      <trkpt lat="44.32339" lon="5.89135">
        <ele>574</ele>
        <time>2019-06-15T10:28:05Z</time>
      </trkpt>
      <trkpt lat="44.32333" lon="5.89132">
        <ele>574</ele>
        <time>2019-06-15T10:28:06Z</time>
      </trkpt>
      <trkpt lat="44.32326" lon="5.8913">
        <ele>574</ele>
        <time>2019-06-15T10:28:07Z</time>
      </trkpt>
      <trkpt lat="44.3232" lon="5.89128">
        <ele>574</ele>
        <time>2019-06-15T10:28:08Z</time>
      </trkpt>
      <trkpt lat="44.32314" lon="5.89126">
        <ele>574</ele>
        <time>2019-06-15T10:28:09Z</time>
      </trkpt>
      <trkpt lat="44.32307" lon="5.89124">
        <ele>574</ele>
        <time>2019-06-15T10:28:10Z</time>
      </trkpt>
      <trkpt lat="44.32301" lon="5.89122">
        <ele>574</ele>
        <time>2019-06-15T10:28:11Z</time>
      </trkpt>
      <trkpt lat="44.32295" lon="5.8912">
        <ele>574</ele>
        <time>2019-06-15T10:28:12Z</time>
      </trkpt>
      <trkpt lat="44.32288" lon="5.89118">
        <ele>574</ele>
        <time>2019-06-15T10:28:13Z</time>
      </trkpt>
      <trkpt lat="44.32282" lon="5.89116">
        <ele>574</ele>
        <time>2019-06-15T10:28:14Z</time>
      </trkpt>
      <trkpt lat="44.32276" lon="5.89114">
        <ele>574</ele>
        <time>2019-06-15T10:28:15Z</time>
      </trkpt>
      <trkpt lat="44.3227" lon="5.89112">
        <ele>574</ele>
        <time>2019-06-15T10:28:16Z</time>
      </trkpt>
      <trkpt lat="44.32264" lon="5.8911">
        <ele>574</ele>
        <time>2019-06-15T10:28:17Z</time>
      </trkpt>
      <trkpt lat="44.32257" lon="5.89108">
        <ele>574</ele>
        <time>2019-06-15T10:28:18Z</time>
      </trkpt>
      <trkpt lat="44.32251" lon="5.89106">
        <ele>574</ele>
        <time>2019-06-15T10:28:19Z</time>
      </trkpt>
      <trkpt lat="44.32244" lon="5.89104">
        <ele>574</ele>
        <time>2019-06-15T10:28:20Z</time>
      </trkpt>
      <trkpt lat="44.32238" lon="5.89103">
        <ele>574</ele>
        <time>2019-06-15T10:28:21Z</time>
      </trkpt>
      <trkpt lat="44.32231" lon="5.89101">
        <ele>574</ele>
        <time>2019-06-15T10:28:22Z</time>
      </trkpt>
      <trkpt lat="44.32225" lon="5.89099">
        <ele>574</ele>
        <time>2019-06-15T10:28:23Z</time>
      </trkpt>
      <trkpt lat="44.32219" lon="5.89097">
        <ele>574</ele>
        <time>2019-06-15T10:28:24Z</time>
      </trkpt>
      <trkpt lat="44.32213" lon="5.89095">
        <ele>574</ele>
        <time>2019-06-15T10:28:25Z</time>
      </trkpt>
      <trkpt lat="44.32206" lon="5.89093">
        <ele>574</ele>
        <time>2019-06-15T10:28:26Z</time>
      </trkpt>
      <trkpt lat="44.322" lon="5.89091">
        <ele>574</ele>
        <time>2019-06-15T10:28:27Z</time>
      </trkpt>
      <trkpt lat="44.32194" lon="5.89089">
        <ele>574</ele>
        <time>2019-06-15T10:28:28Z</time>
      </trkpt>
      <trkpt lat="44.32188" lon="5.89087">
        <ele>574</ele>
        <time>2019-06-15T10:28:29Z</time>
      </trkpt>
      <trkpt lat="44.32182" lon="5.89085">
        <ele>574</ele>
        <time>2019-06-15T10:28:30Z</time>
      </trkpt>
      <trkpt lat="44.32176" lon="5.89083">
        <ele>574</ele>
        <time>2019-06-15T10:28:31Z</time>
      </trkpt>
      <trkpt lat="44.32169" lon="5.89081">
        <ele>574</ele>
        <time>2019-06-15T10:28:32Z</time>
      </trkpt>
      <trkpt lat="44.32163" lon="5.89079">
        <ele>574</ele>
        <time>2019-06-15T10:28:33Z</time>
      </trkpt>
      <trkpt lat="44.32157" lon="5.89077">
        <ele>574</ele>
        <time>2019-06-15T10:28:34Z</time>
      </trkpt>
      <trkpt lat="44.32151" lon="5.89076">
        <ele>574</ele>
        <time>2019-06-15T10:28:35Z</time>
      </trkpt>
      <trkpt lat="44.32144" lon="5.89074">
        <ele>574</ele>
        <time>2019-06-15T10:28:36Z</time>
      </trkpt>
      <trkpt lat="44.32138" lon="5.89072">
        <ele>574</ele>
        <time>2019-06-15T10:28:37Z</time>
      </trkpt>
      <trkpt lat="44.32131" lon="5.89071">
        <ele>574</ele>
        <time>2019-06-15T10:28:38Z</time>
      </trkpt>
      <trkpt lat="44.32125" lon="5.89069">
        <ele>574</ele>
        <time>2019-06-15T10:28:39Z</time>
      </trkpt>
      <trkpt lat="44.32119" lon="5.89068">
        <ele>574</ele>
        <time>2019-06-15T10:28:40Z</time>
      </trkpt>
      <trkpt lat="44.32112" lon="5.89067">
        <ele>574</ele>
        <time>2019-06-15T10:28:41Z</time>
      </trkpt>
      <trkpt lat="44.32106" lon="5.89066">
        <ele>574</ele>
        <time>2019-06-15T10:28:42Z</time>
      </trkpt>
      <trkpt lat="44.321" lon="5.89065">
        <ele>574</ele>
        <time>2019-06-15T10:28:43Z</time>
      </trkpt>
      <trkpt lat="44.32095" lon="5.89064">
        <ele>574</ele>
        <time>2019-06-15T10:28:44Z</time>
      </trkpt>
      <trkpt lat="44.32089" lon="5.89063">
        <ele>574</ele>
        <time>2019-06-15T10:28:45Z</time>
      </trkpt>
      <trkpt lat="44.32084" lon="5.89063">
        <ele>574</ele>
        <time>2019-06-15T10:28:46Z</time>
      </trkpt>
      <trkpt lat="44.32079" lon="5.89062">
        <ele>574</ele>
        <time>2019-06-15T10:28:47Z</time>
      </trkpt>
      <trkpt lat="44.32074" lon="5.89061">
        <ele>574</ele>
        <time>2019-06-15T10:28:48Z</time>
      </trkpt>
      <trkpt lat="44.32068" lon="5.8906">
        <ele>574</ele>
        <time>2019-06-15T10:28:49Z</time>
      </trkpt>
      <trkpt lat="44.32063" lon="5.89058">
        <ele>574</ele>
        <time>2019-06-15T10:28:50Z</time>
      </trkpt>
      <trkpt lat="44.32058" lon="5.89058">
        <ele>574</ele>
        <time>2019-06-15T10:28:51Z</time>
      </trkpt>
      <trkpt lat="44.32053" lon="5.89057">
        <ele>574</ele>
        <time>2019-06-15T10:28:52Z</time>
      </trkpt>
      <trkpt lat="44.32048" lon="5.89056">
        <ele>574</ele>
        <time>2019-06-15T10:28:53Z</time>
      </trkpt>
      <trkpt lat="44.32044" lon="5.89054">
        <ele>574</ele>
        <time>2019-06-15T10:28:54Z</time>
      </trkpt>
      <trkpt lat="44.32039" lon="5.89053">
        <ele>574</ele>
        <time>2019-06-15T10:28:55Z</time>
      </trkpt>
      <trkpt lat="44.32035" lon="5.89051">
        <ele>574</ele>
        <time>2019-06-15T10:28:56Z</time>
      </trkpt>
      <trkpt lat="44.3203" lon="5.8905">
        <ele>574</ele>
        <time>2019-06-15T10:28:57Z</time>
      </trkpt>
      <trkpt lat="44.32026" lon="5.89048">
        <ele>574</ele>
        <time>2019-06-15T10:28:58Z</time>
      </trkpt>
      <trkpt lat="44.32022" lon="5.89046">
        <ele>574</ele>
        <time>2019-06-15T10:28:59Z</time>
      </trkpt>
      <trkpt lat="44.32018" lon="5.89044">
        <ele>574</ele>
        <time>2019-06-15T10:29:00Z</time>
      </trkpt>
      <trkpt lat="44.32014" lon="5.89041">
        <ele>574</ele>
        <time>2019-06-15T10:29:01Z</time>
      </trkpt>
      <trkpt lat="44.3201" lon="5.89039">
        <ele>574</ele>
        <time>2019-06-15T10:29:02Z</time>
      </trkpt>
      <trkpt lat="44.32005" lon="5.89037">
        <ele>574</ele>
        <time>2019-06-15T10:29:03Z</time>
      </trkpt>
      <trkpt lat="44.32001" lon="5.89034">
        <ele>574</ele>
        <time>2019-06-15T10:29:04Z</time>
      </trkpt>
      <trkpt lat="44.31997" lon="5.8903">
        <ele>574</ele>
        <time>2019-06-15T10:29:05Z</time>
      </trkpt>
      <trkpt lat="44.31993" lon="5.89027">
        <ele>574</ele>
        <time>2019-06-15T10:29:06Z</time>
      </trkpt>
      <trkpt lat="44.3199" lon="5.89024">
        <ele>574</ele>
        <time>2019-06-15T10:29:07Z</time>
      </trkpt>
      <trkpt lat="44.31986" lon="5.8902">
        <ele>574</ele>
        <time>2019-06-15T10:29:08Z</time>
      </trkpt>
      <trkpt lat="44.31982" lon="5.89016">
        <ele>574</ele>
        <time>2019-06-15T10:29:09Z</time>
      </trkpt>
      <trkpt lat="44.31978" lon="5.89013">
        <ele>574</ele>
        <time>2019-06-15T10:29:10Z</time>
      </trkpt>
      <trkpt lat="44.31974" lon="5.8901">
        <ele>574</ele>
        <time>2019-06-15T10:29:11Z</time>
      </trkpt>
      <trkpt lat="44.31969" lon="5.89007">
        <ele>574</ele>
        <time>2019-06-15T10:29:12Z</time>
      </trkpt>
      <trkpt lat="44.31965" lon="5.89005">
        <ele>574</ele>
        <time>2019-06-15T10:29:13Z</time>
      </trkpt>
      <trkpt lat="44.31961" lon="5.89002">
        <ele>574</ele>
        <time>2019-06-15T10:29:14Z</time>
      </trkpt>
      <trkpt lat="44.31956" lon="5.88999">
        <ele>574</ele>
        <time>2019-06-15T10:29:15Z</time>
      </trkpt>
      <trkpt lat="44.31952" lon="5.88997">
        <ele>574</ele>
        <time>2019-06-15T10:29:16Z</time>
      </trkpt>
      <trkpt lat="44.31947" lon="5.88994">
        <ele>575</ele>
        <time>2019-06-15T10:29:17Z</time>
      </trkpt>
      <trkpt lat="44.31943" lon="5.88993">
        <ele>575</ele>
        <time>2019-06-15T10:29:18Z</time>
      </trkpt>
      <trkpt lat="44.31938" lon="5.88991">
        <ele>575</ele>
        <time>2019-06-15T10:29:19Z</time>
      </trkpt>
      <trkpt lat="44.31933" lon="5.88989">
        <ele>575</ele>
        <time>2019-06-15T10:29:20Z</time>
      </trkpt>
      <trkpt lat="44.31929" lon="5.88988">
        <ele>576</ele>
        <time>2019-06-15T10:29:21Z</time>
      </trkpt>
      <trkpt lat="44.31924" lon="5.88987">
        <ele>576</ele>
        <time>2019-06-15T10:29:22Z</time>
      </trkpt>
      <trkpt lat="44.31919" lon="5.88987">
        <ele>576</ele>
        <time>2019-06-15T10:29:23Z</time>
      </trkpt>
      <trkpt lat="44.31914" lon="5.88986">
        <ele>576</ele>
        <time>2019-06-15T10:29:24Z</time>
      </trkpt>
      <trkpt lat="44.31909" lon="5.88986">
        <ele>576</ele>
        <time>2019-06-15T10:29:25Z</time>
      </trkpt>
      <trkpt lat="44.31904" lon="5.88986">
        <ele>577</ele>
        <time>2019-06-15T10:29:26Z</time>
      </trkpt>
      <trkpt lat="44.319" lon="5.88986">
        <ele>577</ele>
        <time>2019-06-15T10:29:27Z</time>
      </trkpt>
      <trkpt lat="44.31895" lon="5.88987">
        <ele>577</ele>
        <time>2019-06-15T10:29:28Z</time>
      </trkpt>
      <trkpt lat="44.3189" lon="5.88988">
        <ele>577</ele>
        <time>2019-06-15T10:29:29Z</time>
      </trkpt>
      <trkpt lat="44.31885" lon="5.88989">
        <ele>578</ele>
        <time>2019-06-15T10:29:30Z</time>
      </trkpt>
      <trkpt lat="44.3188" lon="5.8899">
        <ele>578</ele>
        <time>2019-06-15T10:29:31Z</time>
      </trkpt>
      <trkpt lat="44.31875" lon="5.88992">
        <ele>578</ele>
        <time>2019-06-15T10:29:32Z</time>
      </trkpt>
      <trkpt lat="44.3187" lon="5.88994">
        <ele>578</ele>
        <time>2019-06-15T10:29:33Z</time>
      </trkpt>
      <trkpt lat="44.31865" lon="5.88996">
        <ele>578</ele>
        <time>2019-06-15T10:29:34Z</time>
      </trkpt>
      <trkpt lat="44.31861" lon="5.88998">
        <ele>578</ele>
        <time>2019-06-15T10:29:35Z</time>
      </trkpt>
      <trkpt lat="44.31856" lon="5.89001">
        <ele>579</ele>
        <time>2019-06-15T10:29:36Z</time>
      </trkpt>
      <trkpt lat="44.31852" lon="5.89004">
        <ele>579</ele>
        <time>2019-06-15T10:29:37Z</time>
      </trkpt>
      <trkpt lat="44.31847" lon="5.89006">
        <ele>579</ele>
        <time>2019-06-15T10:29:38Z</time>
      </trkpt>
      <trkpt lat="44.31842" lon="5.89009">
        <ele>579</ele>
        <time>2019-06-15T10:29:39Z</time>
      </trkpt>
      <trkpt lat="44.31838" lon="5.89012">
        <ele>580</ele>
        <time>2019-06-15T10:29:40Z</time>
      </trkpt>
      <trkpt lat="44.31833" lon="5.89015">
        <ele>580</ele>
        <time>2019-06-15T10:29:41Z</time>
      </trkpt>
      <trkpt lat="44.31829" lon="5.89018">
        <ele>580</ele>
        <time>2019-06-15T10:29:42Z</time>
      </trkpt>
      <trkpt lat="44.31824" lon="5.89021">
        <ele>580</ele>
        <time>2019-06-15T10:29:43Z</time>
      </trkpt>
      <trkpt lat="44.3182" lon="5.89024">
        <ele>580</ele>
        <time>2019-06-15T10:29:44Z</time>
      </trkpt>
      <trkpt lat="44.31815" lon="5.89028">
        <ele>580</ele>
        <time>2019-06-15T10:29:45Z</time>
      </trkpt>
      <trkpt lat="44.3181" lon="5.89031">
        <ele>580</ele>
        <time>2019-06-15T10:29:46Z</time>
      </trkpt>
      <trkpt lat="44.31806" lon="5.89034">
        <ele>581</ele>
        <time>2019-06-15T10:29:47Z</time>
      </trkpt>
      <trkpt lat="44.31802" lon="5.89038">
        <ele>581</ele>
        <time>2019-06-15T10:29:48Z</time>
      </trkpt>
      <trkpt lat="44.31797" lon="5.89041">
        <ele>581</ele>
        <time>2019-06-15T10:29:49Z</time>
      </trkpt>
      <trkpt lat="44.31792" lon="5.89044">
        <ele>581</ele>
        <time>2019-06-15T10:29:50Z</time>
      </trkpt>
      <trkpt lat="44.31788" lon="5.89047">
        <ele>581</ele>
        <time>2019-06-15T10:29:51Z</time>
      </trkpt>
      <trkpt lat="44.31784" lon="5.8905">
        <ele>581</ele>
        <time>2019-06-15T10:29:52Z</time>
      </trkpt>
      <trkpt lat="44.31779" lon="5.89053">
        <ele>581</ele>
        <time>2019-06-15T10:29:53Z</time>
      </trkpt>
      <trkpt lat="44.31775" lon="5.89056">
        <ele>581</ele>
        <time>2019-06-15T10:29:54Z</time>
      </trkpt>
      <trkpt lat="44.31771" lon="5.89059">
        <ele>582</ele>
        <time>2019-06-15T10:29:55Z</time>
      </trkpt>
      <trkpt lat="44.31767" lon="5.89062">
        <ele>582</ele>
        <time>2019-06-15T10:29:56Z</time>
      </trkpt>
      <trkpt lat="44.31762" lon="5.89065">
        <ele>582</ele>
        <time>2019-06-15T10:29:57Z</time>
      </trkpt>
      <trkpt lat="44.31758" lon="5.89067">
        <ele>582</ele>
        <time>2019-06-15T10:29:58Z</time>
      </trkpt>
      <trkpt lat="44.31754" lon="5.8907">
        <ele>582</ele>
        <time>2019-06-15T10:29:59Z</time>
      </trkpt>
      <trkpt lat="44.3175" lon="5.89072">
        <ele>582</ele>
        <time>2019-06-15T10:30:00Z</time>
      </trkpt>
      <trkpt lat="44.31745" lon="5.89074">
        <ele>582</ele>
        <time>2019-06-15T10:30:01Z</time>
      </trkpt>
      <trkpt lat="44.31741" lon="5.89076">
        <ele>582</ele>
        <time>2019-06-15T10:30:02Z</time>
      </trkpt>
      <trkpt lat="44.31737" lon="5.89078">
        <ele>582</ele>
        <time>2019-06-15T10:30:03Z</time>
      </trkpt>
      <trkpt lat="44.31732" lon="5.8908">
        <ele>582</ele>
        <time>2019-06-15T10:30:04Z</time>
      </trkpt>
      <trkpt lat="44.31728" lon="5.89082">
        <ele>582</ele>
        <time>2019-06-15T10:30:05Z</time>
      </trkpt>
      <trkpt lat="44.31723" lon="5.89083">
        <ele>583</ele>
        <time>2019-06-15T10:30:06Z</time>
      </trkpt>
      <trkpt lat="44.31719" lon="5.89085">
        <ele>583</ele>
        <time>2019-06-15T10:30:07Z</time>
      </trkpt>
      <trkpt lat="44.31715" lon="5.89086">
        <ele>583</ele>
        <time>2019-06-15T10:30:08Z</time>
      </trkpt>
      <trkpt lat="44.3171" lon="5.89088">
        <ele>583</ele>
        <time>2019-06-15T10:30:09Z</time>
      </trkpt>
      <trkpt lat="44.31706" lon="5.89089">
        <ele>583</ele>
        <time>2019-06-15T10:30:10Z</time>
      </trkpt>
      <trkpt lat="44.31701" lon="5.8909">
        <ele>583</ele>
        <time>2019-06-15T10:30:11Z</time>
      </trkpt>
      <trkpt lat="44.31697" lon="5.89091">
        <ele>583</ele>
        <time>2019-06-15T10:30:12Z</time>
      </trkpt>
      <trkpt lat="44.31692" lon="5.89092">
        <ele>583</ele>
        <time>2019-06-15T10:30:13Z</time>
      </trkpt>
      <trkpt lat="44.31688" lon="5.89093">
        <ele>583</ele>
        <time>2019-06-15T10:30:14Z</time>
      </trkpt>
      <trkpt lat="44.31683" lon="5.89094">
        <ele>583</ele>
        <time>2019-06-15T10:30:15Z</time>
      </trkpt>
      <trkpt lat="44.31678" lon="5.89094">
        <ele>584</ele>
        <time>2019-06-15T10:30:16Z</time>
      </trkpt>
      <trkpt lat="44.31673" lon="5.89095">
        <ele>584</ele>
        <time>2019-06-15T10:30:17Z</time>
      </trkpt>
      <trkpt lat="44.31669" lon="5.89095">
        <ele>584</ele>
        <time>2019-06-15T10:30:18Z</time>
      </trkpt>
      <trkpt lat="44.31664" lon="5.89095">
        <ele>584</ele>
        <time>2019-06-15T10:30:19Z</time>
      </trkpt>
      <trkpt lat="44.31659" lon="5.89095">
        <ele>584</ele>
        <time>2019-06-15T10:30:20Z</time>
      </trkpt>
      <trkpt lat="44.31654" lon="5.89095">
        <ele>585</ele>
        <time>2019-06-15T10:30:21Z</time>
      </trkpt>
      <trkpt lat="44.3165" lon="5.89095">
        <ele>585</ele>
        <time>2019-06-15T10:30:22Z</time>
      </trkpt>
      <trkpt lat="44.31645" lon="5.89095">
        <ele>585</ele>
        <time>2019-06-15T10:30:23Z</time>
      </trkpt>
      <trkpt lat="44.31641" lon="5.89095">
        <ele>585</ele>
        <time>2019-06-15T10:30:24Z</time>
      </trkpt>
      <trkpt lat="44.31636" lon="5.89095">
        <ele>586</ele>
        <time>2019-06-15T10:30:25Z</time>
      </trkpt>
      <trkpt lat="44.31631" lon="5.89095">
        <ele>586</ele>
        <time>2019-06-15T10:30:26Z</time>
      </trkpt>
      <trkpt lat="44.31627" lon="5.89095">
        <ele>586</ele>
        <time>2019-06-15T10:30:27Z</time>
      </trkpt>
      <trkpt lat="44.31622" lon="5.89095">
        <ele>586</ele>
        <time>2019-06-15T10:30:28Z</time>
      </trkpt>
      <trkpt lat="44.31618" lon="5.89095">
        <ele>586</ele>
        <time>2019-06-15T10:30:29Z</time>
      </trkpt>
      <trkpt lat="44.31614" lon="5.89095">
        <ele>587</ele>
        <time>2019-06-15T10:30:30Z</time>
      </trkpt>
      <trkpt lat="44.31609" lon="5.89095">
        <ele>587</ele>
        <time>2019-06-15T10:30:31Z</time>
      </trkpt>
      <trkpt lat="44.31604" lon="5.89095">
        <ele>587</ele>
        <time>2019-06-15T10:30:32Z</time>
      </trkpt>
      <trkpt lat="44.316" lon="5.89095">
        <ele>587</ele>
        <time>2019-06-15T10:30:33Z</time>
      </trkpt>
      <trkpt lat="44.31596" lon="5.89094">
        <ele>588</ele>
        <time>2019-06-15T10:30:34Z</time>
      </trkpt>
      <trkpt lat="44.31591" lon="5.89094">
        <ele>588</ele>
        <time>2019-06-15T10:30:35Z</time>
      </trkpt>
      <trkpt lat="44.31587" lon="5.89094">
        <ele>588</ele>
        <time>2019-06-15T10:30:36Z</time>
      </trkpt>
      <trkpt lat="44.31583" lon="5.89094">
        <ele>588</ele>
        <time>2019-06-15T10:30:37Z</time>
      </trkpt>
      <trkpt lat="44.31579" lon="5.89094">
        <ele>588</ele>
        <time>2019-06-15T10:30:38Z</time>
      </trkpt>
      <trkpt lat="44.31575" lon="5.89093">
        <ele>588</ele>
        <time>2019-06-15T10:30:39Z</time>
      </trkpt>
      <trkpt lat="44.3157" lon="5.89093">
        <ele>588</ele>
        <time>2019-06-15T10:30:40Z</time>
      </trkpt>
      <trkpt lat="44.31566" lon="5.89093">
        <ele>588</ele>
        <time>2019-06-15T10:30:41Z</time>
      </trkpt>
      <trkpt lat="44.31562" lon="5.89093">
        <ele>589</ele>
        <time>2019-06-15T10:30:42Z</time>
      </trkpt>
      <trkpt lat="44.31558" lon="5.89093">
        <ele>589</ele>
        <time>2019-06-15T10:30:43Z</time>
      </trkpt>
      <trkpt lat="44.31554" lon="5.89093">
        <ele>589</ele>
        <time>2019-06-15T10:30:44Z</time>
      </trkpt>
      <trkpt lat="44.3155" lon="5.89093">
        <ele>589</ele>
        <time>2019-06-15T10:30:45Z</time>
      </trkpt>
      <trkpt lat="44.31546" lon="5.89093">
        <ele>589</ele>
        <time>2019-06-15T10:30:46Z</time>
      </trkpt>
      <trkpt lat="44.31542" lon="5.89093">
        <ele>590</ele>
        <time>2019-06-15T10:30:47Z</time>
      </trkpt>
      <trkpt lat="44.31538" lon="5.89093">
        <ele>590</ele>
        <time>2019-06-15T10:30:48Z</time>
      </trkpt>
      <trkpt lat="44.31534" lon="5.89093">
        <ele>590</ele>
        <time>2019-06-15T10:30:49Z</time>
      </trkpt>
      <trkpt lat="44.3153" lon="5.89093">
        <ele>590</ele>
        <time>2019-06-15T10:30:50Z</time>
      </trkpt>
      <trkpt lat="44.31525" lon="5.89094">
        <ele>591</ele>
        <time>2019-06-15T10:30:51Z</time>
      </trkpt>
      <trkpt lat="44.31521" lon="5.89094">
        <ele>591</ele>
        <time>2019-06-15T10:30:52Z</time>
      </trkpt>
      <trkpt lat="44.31517" lon="5.89092">
        <ele>591</ele>
        <time>2019-06-15T10:30:53Z</time>
      </trkpt>
      <trkpt lat="44.31515" lon="5.89087">
        <ele>592</ele>
        <time>2019-06-15T10:30:54Z</time>
      </trkpt>
      <trkpt lat="44.31513" lon="5.89081">
        <ele>592</ele>
        <time>2019-06-15T10:30:55Z</time>
      </trkpt>
      <trkpt lat="44.31514" lon="5.89076">
        <ele>592</ele>
        <time>2019-06-15T10:30:56Z</time>
      </trkpt>
      <trkpt lat="44.31514" lon="5.8907">
        <ele>592</ele>
        <time>2019-06-15T10:30:57Z</time>
      </trkpt>
      <trkpt lat="44.31516" lon="5.89064">
        <ele>592</ele>
        <time>2019-06-15T10:30:58Z</time>
      </trkpt>
      <trkpt lat="44.31519" lon="5.89057">
        <ele>592</ele>
        <time>2019-06-15T10:30:59Z</time>
      </trkpt>
      <trkpt lat="44.31522" lon="5.89051">
        <ele>592</ele>
        <time>2019-06-15T10:31:00Z</time>
      </trkpt>
      <trkpt lat="44.31524" lon="5.89045">
        <ele>592</ele>
        <time>2019-06-15T10:31:01Z</time>
      </trkpt>
      <trkpt lat="44.31526" lon="5.89039">
        <ele>592</ele>
        <time>2019-06-15T10:31:02Z</time>
      </trkpt>
      <trkpt lat="44.31528" lon="5.89033">
        <ele>592</ele>
        <time>2019-06-15T10:31:03Z</time>
      </trkpt>
      <trkpt lat="44.3153" lon="5.89026">
        <ele>592</ele>
        <time>2019-06-15T10:31:04Z</time>
      </trkpt>
      <trkpt lat="44.31532" lon="5.8902">
        <ele>592</ele>
        <time>2019-06-15T10:31:05Z</time>
      </trkpt>
      <trkpt lat="44.31535" lon="5.89014">
        <ele>592</ele>
        <time>2019-06-15T10:31:06Z</time>
      </trkpt>
      <trkpt lat="44.31536" lon="5.89009">
        <ele>592</ele>
        <time>2019-06-15T10:31:07Z</time>
      </trkpt>
      <trkpt lat="44.31538" lon="5.89003">
        <ele>592</ele>
        <time>2019-06-15T10:31:08Z</time>
      </trkpt>
      <trkpt lat="44.3154" lon="5.88997">
        <ele>592</ele>
        <time>2019-06-15T10:31:09Z</time>
      </trkpt>
      <trkpt lat="44.31542" lon="5.88992">
        <ele>592</ele>
        <time>2019-06-15T10:31:10Z</time>
      </trkpt>
      <trkpt lat="44.31544" lon="5.88987">
        <ele>592</ele>
        <time>2019-06-15T10:31:11Z</time>
      </trkpt>
      <trkpt lat="44.31546" lon="5.88982">
        <ele>592</ele>
        <time>2019-06-15T10:31:12Z</time>
      </trkpt>
      <trkpt lat="44.31547" lon="5.88977">
        <ele>592</ele>
        <time>2019-06-15T10:31:13Z</time>
      </trkpt>
      <trkpt lat="44.31549" lon="5.88972">
        <ele>592</ele>
        <time>2019-06-15T10:31:14Z</time>
      </trkpt>
      <trkpt lat="44.31551" lon="5.88967">
        <ele>593</ele>
        <time>2019-06-15T10:31:15Z</time>
      </trkpt>
      <trkpt lat="44.31552" lon="5.88962">
        <ele>593</ele>
        <time>2019-06-15T10:31:16Z</time>
      </trkpt>
      <trkpt lat="44.31554" lon="5.88958">
        <ele>593</ele>
        <time>2019-06-15T10:31:17Z</time>
      </trkpt>
      <trkpt lat="44.31556" lon="5.88953">
        <ele>593</ele>
        <time>2019-06-15T10:31:18Z</time>
      </trkpt>
      <trkpt lat="44.31557" lon="5.88948">
        <ele>594</ele>
        <time>2019-06-15T10:31:19Z</time>
      </trkpt>
      <trkpt lat="44.31559" lon="5.88944">
        <ele>594</ele>
        <time>2019-06-15T10:31:20Z</time>
      </trkpt>
      <trkpt lat="44.31561" lon="5.88939">
        <ele>594</ele>
        <time>2019-06-15T10:31:21Z</time>
      </trkpt>
      <trkpt lat="44.31563" lon="5.88935">
        <ele>594</ele>
        <time>2019-06-15T10:31:22Z</time>
      </trkpt>
      <trkpt lat="44.31564" lon="5.88931">
        <ele>595</ele>
        <time>2019-06-15T10:31:23Z</time>
      </trkpt>
      <trkpt lat="44.31566" lon="5.88926">
        <ele>595</ele>
        <time>2019-06-15T10:31:24Z</time>
      </trkpt>
      <trkpt lat="44.31568" lon="5.88922">
        <ele>595</ele>
        <time>2019-06-15T10:31:25Z</time>
      </trkpt>
      <trkpt lat="44.3157" lon="5.88917">
        <ele>595</ele>
        <time>2019-06-15T10:31:26Z</time>
      </trkpt>
      <trkpt lat="44.31571" lon="5.88913">
        <ele>595</ele>
        <time>2019-06-15T10:31:27Z</time>
      </trkpt>
      <trkpt lat="44.31573" lon="5.88908">
        <ele>596</ele>
        <time>2019-06-15T10:31:28Z</time>
      </trkpt>
      <trkpt lat="44.31574" lon="5.88904">
        <ele>596</ele>
        <time>2019-06-15T10:31:29Z</time>
      </trkpt>
      <trkpt lat="44.31576" lon="5.889">
        <ele>596</ele>
        <time>2019-06-15T10:31:30Z</time>
      </trkpt>
      <trkpt lat="44.31578" lon="5.88895">
        <ele>596</ele>
        <time>2019-06-15T10:31:31Z</time>
      </trkpt>
      <trkpt lat="44.31579" lon="5.88891">
        <ele>596</ele>
        <time>2019-06-15T10:31:32Z</time>
      </trkpt>
      <trkpt lat="44.31581" lon="5.88887">
        <ele>596</ele>
        <time>2019-06-15T10:31:33Z</time>
      </trkpt>
      <trkpt lat="44.31582" lon="5.88882">
        <ele>596</ele>
        <time>2019-06-15T10:31:34Z</time>
      </trkpt>
      <trkpt lat="44.31584" lon="5.88878">
        <ele>597</ele>
        <time>2019-06-15T10:31:35Z</time>
      </trkpt>
      <trkpt lat="44.31585" lon="5.88874">
        <ele>597</ele>
        <time>2019-06-15T10:31:36Z</time>
      </trkpt>
      <trkpt lat="44.31587" lon="5.88869">
        <ele>597</ele>
        <time>2019-06-15T10:31:37Z</time>
      </trkpt>
      <trkpt lat="44.31589" lon="5.88865">
        <ele>597</ele>
        <time>2019-06-15T10:31:38Z</time>
      </trkpt>
      <trkpt lat="44.3159" lon="5.88861">
        <ele>597</ele>
        <time>2019-06-15T10:31:39Z</time>
      </trkpt>
      <trkpt lat="44.31592" lon="5.88857">
        <ele>597</ele>
        <time>2019-06-15T10:31:40Z</time>
      </trkpt>
      <trkpt lat="44.31594" lon="5.88853">
        <ele>597</ele>
        <time>2019-06-15T10:31:41Z</time>
      </trkpt>
      <trkpt lat="44.31595" lon="5.88849">
        <ele>598</ele>
        <time>2019-06-15T10:31:42Z</time>
      </trkpt>
      <trkpt lat="44.31596" lon="5.88845">
        <ele>598</ele>
        <time>2019-06-15T10:31:43Z</time>
      </trkpt>
      <trkpt lat="44.31598" lon="5.8884">
        <ele>598</ele>
        <time>2019-06-15T10:31:44Z</time>
      </trkpt>
      <trkpt lat="44.31599" lon="5.88836">
        <ele>598</ele>
        <time>2019-06-15T10:31:45Z</time>
      </trkpt>
      <trkpt lat="44.31601" lon="5.88832">
        <ele>599</ele>
        <time>2019-06-15T10:31:46Z</time>
      </trkpt>
      <trkpt lat="44.31602" lon="5.88828">
        <ele>599</ele>
        <time>2019-06-15T10:31:47Z</time>
      </trkpt>
      <trkpt lat="44.31604" lon="5.88824">
        <ele>599</ele>
        <time>2019-06-15T10:31:48Z</time>
      </trkpt>
      <trkpt lat="44.31606" lon="5.8882">
        <ele>599</ele>
        <time>2019-06-15T10:31:49Z</time>
      </trkpt>
      <trkpt lat="44.31607" lon="5.88816">
        <ele>599</ele>
        <time>2019-06-15T10:31:50Z</time>
      </trkpt>
      <trkpt lat="44.31608" lon="5.88813">
        <ele>600</ele>
        <time>2019-06-15T10:31:51Z</time>
      </trkpt>
      <trkpt lat="44.3161" lon="5.88809">
        <ele>600</ele>
        <time>2019-06-15T10:31:52Z</time>
      </trkpt>
      <trkpt lat="44.31612" lon="5.88805">
        <ele>600</ele>
        <time>2019-06-15T10:31:53Z</time>
      </trkpt>
      <trkpt lat="44.31613" lon="5.88801">
        <ele>600</ele>
        <time>2019-06-15T10:31:54Z</time>
      </trkpt>
      <trkpt lat="44.31615" lon="5.88797">
        <ele>600</ele>
        <time>2019-06-15T10:31:55Z</time>
      </trkpt>
      <trkpt lat="44.31616" lon="5.88793">
        <ele>601</ele>
        <time>2019-06-15T10:31:56Z</time>
      </trkpt>
      <trkpt lat="44.31617" lon="5.88789">
        <ele>601</ele>
        <time>2019-06-15T10:31:57Z</time>
      </trkpt>
      <trkpt lat="44.31619" lon="5.88785">
        <ele>601</ele>
        <time>2019-06-15T10:31:58Z</time>
      </trkpt>
      <trkpt lat="44.3162" lon="5.88782">
        <ele>601</ele>
        <time>2019-06-15T10:31:59Z</time>
      </trkpt>
      <trkpt lat="44.31621" lon="5.88778">
        <ele>602</ele>
        <time>2019-06-15T10:32:00Z</time>
      </trkpt>
      <trkpt lat="44.31622" lon="5.88775">
        <ele>602</ele>
        <time>2019-06-15T10:32:01Z</time>
      </trkpt>
      <trkpt lat="44.31624" lon="5.88771">
        <ele>603</ele>
        <time>2019-06-15T10:32:02Z</time>
      </trkpt>
      <trkpt lat="44.31625" lon="5.88767">
        <ele>603</ele>
        <time>2019-06-15T10:32:03Z</time>
      </trkpt>
      <trkpt lat="44.31627" lon="5.88763">
        <ele>603</ele>
        <time>2019-06-15T10:32:04Z</time>
      </trkpt>
      <trkpt lat="44.31628" lon="5.88759">
        <ele>604</ele>
        <time>2019-06-15T10:32:05Z</time>
      </trkpt>
      <trkpt lat="44.31629" lon="5.88754">
        <ele>604</ele>
        <time>2019-06-15T10:32:06Z</time>
      </trkpt>
      <trkpt lat="44.31631" lon="5.8875">
        <ele>604</ele>
        <time>2019-06-15T10:32:07Z</time>
      </trkpt>
      <trkpt lat="44.31632" lon="5.88745">
        <ele>604</ele>
        <time>2019-06-15T10:32:08Z</time>
      </trkpt>
      <trkpt lat="44.31633" lon="5.88741">
        <ele>605</ele>
        <time>2019-06-15T10:32:09Z</time>
      </trkpt>
      <trkpt lat="44.31635" lon="5.88736">
        <ele>605</ele>
        <time>2019-06-15T10:32:10Z</time>
      </trkpt>
      <trkpt lat="44.31637" lon="5.88731">
        <ele>605</ele>
        <time>2019-06-15T10:32:11Z</time>
      </trkpt>
      <trkpt lat="44.31638" lon="5.88726">
        <ele>605</ele>
        <time>2019-06-15T10:32:12Z</time>
      </trkpt>
      <trkpt lat="44.31639" lon="5.88721">
        <ele>605</ele>
        <time>2019-06-15T10:32:13Z</time>
      </trkpt>
      <trkpt lat="44.31641" lon="5.88716">
        <ele>605</ele>
        <time>2019-06-15T10:32:14Z</time>
      </trkpt>
      <trkpt lat="44.31642" lon="5.88711">
        <ele>605</ele>
        <time>2019-06-15T10:32:15Z</time>
      </trkpt>
      <trkpt lat="44.31644" lon="5.88706">
        <ele>605</ele>
        <time>2019-06-15T10:32:16Z</time>
      </trkpt>
      <trkpt lat="44.31646" lon="5.88701">
        <ele>605</ele>
        <time>2019-06-15T10:32:17Z</time>
      </trkpt>
      <trkpt lat="44.31647" lon="5.88695">
        <ele>605</ele>
        <time>2019-06-15T10:32:18Z</time>
      </trkpt>
      <trkpt lat="44.31648" lon="5.8869">
        <ele>605</ele>
        <time>2019-06-15T10:32:19Z</time>
      </trkpt>
      <trkpt lat="44.31649" lon="5.88685">
        <ele>605</ele>
        <time>2019-06-15T10:32:20Z</time>
      </trkpt>
      <trkpt lat="44.3165" lon="5.88679">
        <ele>605</ele>
        <time>2019-06-15T10:32:21Z</time>
      </trkpt>
      <trkpt lat="44.31652" lon="5.88674">
        <ele>605</ele>
        <time>2019-06-15T10:32:22Z</time>
      </trkpt>
      <trkpt lat="44.31653" lon="5.8867">
        <ele>605</ele>
        <time>2019-06-15T10:32:23Z</time>
      </trkpt>
      <trkpt lat="44.31654" lon="5.88665">
        <ele>606</ele>
        <time>2019-06-15T10:32:24Z</time>
      </trkpt>
      <trkpt lat="44.31655" lon="5.8866">
        <ele>606</ele>
        <time>2019-06-15T10:32:25Z</time>
      </trkpt>
      <trkpt lat="44.31657" lon="5.88656">
        <ele>607</ele>
        <time>2019-06-15T10:32:26Z</time>
      </trkpt>
      <trkpt lat="44.31659" lon="5.88651">
        <ele>608</ele>
        <time>2019-06-15T10:32:27Z</time>
      </trkpt>
      <trkpt lat="44.31659" lon="5.88647">
        <ele>608</ele>
        <time>2019-06-15T10:32:28Z</time>
      </trkpt>
      <trkpt lat="44.31661" lon="5.88643">
        <ele>609</ele>
        <time>2019-06-15T10:32:29Z</time>
      </trkpt>
      <trkpt lat="44.31662" lon="5.88638">
        <ele>610</ele>
        <time>2019-06-15T10:32:30Z</time>
      </trkpt>
      <trkpt lat="44.31664" lon="5.88634">
        <ele>610</ele>
        <time>2019-06-15T10:32:31Z</time>
      </trkpt>
      <trkpt lat="44.31666" lon="5.8863">
        <ele>610</ele>
        <time>2019-06-15T10:32:32Z</time>
      </trkpt>
      <trkpt lat="44.31668" lon="5.88626">
        <ele>611</ele>
        <time>2019-06-15T10:32:33Z</time>
      </trkpt>
      <trkpt lat="44.3167" lon="5.88623">
        <ele>611</ele>
        <time>2019-06-15T10:32:34Z</time>
      </trkpt>
      <trkpt lat="44.31673" lon="5.88621">
        <ele>611</ele>
        <time>2019-06-15T10:32:35Z</time>
      </trkpt>
      <trkpt lat="44.31675" lon="5.88619">
        <ele>611</ele>
        <time>2019-06-15T10:32:36Z</time>
      </trkpt>
      <trkpt lat="44.31677" lon="5.88618">
        <ele>612</ele>
        <time>2019-06-15T10:32:37Z</time>
      </trkpt>
      <trkpt lat="44.3168" lon="5.88617">
        <ele>612</ele>
        <time>2019-06-15T10:32:38Z</time>
      </trkpt>
      <trkpt lat="44.31683" lon="5.88617">
        <ele>613</ele>
        <time>2019-06-15T10:32:39Z</time>
      </trkpt>
      <trkpt lat="44.31685" lon="5.88617">
        <ele>614</ele>
        <time>2019-06-15T10:32:40Z</time>
      </trkpt>
      <trkpt lat="44.31688" lon="5.88618">
        <ele>614</ele>
        <time>2019-06-15T10:32:41Z</time>
      </trkpt>
      <trkpt lat="44.3169" lon="5.88619">
        <ele>615</ele>
        <time>2019-06-15T10:32:42Z</time>
      </trkpt>
      <trkpt lat="44.31693" lon="5.88619">
        <ele>615</ele>
        <time>2019-06-15T10:32:43Z</time>
      </trkpt>
      <trkpt lat="44.31695" lon="5.8862">
        <ele>616</ele>
        <time>2019-06-15T10:32:44Z</time>
      </trkpt>
      <trkpt lat="44.31697" lon="5.8862">
        <ele>616</ele>
        <time>2019-06-15T10:32:45Z</time>
      </trkpt>
      <trkpt lat="44.317" lon="5.88621">
        <ele>616</ele>
        <time>2019-06-15T10:32:46Z</time>
      </trkpt>
      <trkpt lat="44.31702" lon="5.88622">
        <ele>617</ele>
        <time>2019-06-15T10:32:47Z</time>
      </trkpt>
      <trkpt lat="44.31705" lon="5.88623">
        <ele>617</ele>
        <time>2019-06-15T10:32:48Z</time>
      </trkpt>
      <trkpt lat="44.31707" lon="5.88623">
        <ele>617</ele>
        <time>2019-06-15T10:32:49Z</time>
      </trkpt>
      <trkpt lat="44.31709" lon="5.88624">
        <ele>617</ele>
        <time>2019-06-15T10:32:50Z</time>
      </trkpt>
      <trkpt lat="44.3171" lon="5.88624">
        <ele>617</ele>
        <time>2019-06-15T10:32:51Z</time>
      </trkpt>
      <trkpt lat="44.31712" lon="5.88625">
        <ele>618</ele>
        <time>2019-06-15T10:32:52Z</time>
      </trkpt>
      <trkpt lat="44.31715" lon="5.88625">
        <ele>618</ele>
        <time>2019-06-15T10:32:53Z</time>
      </trkpt>
      <trkpt lat="44.31718" lon="5.88625">
        <ele>618</ele>
        <time>2019-06-15T10:32:54Z</time>
      </trkpt>
      <trkpt lat="44.3172" lon="5.88626">
        <ele>619</ele>
        <time>2019-06-15T10:32:55Z</time>
      </trkpt>
      <trkpt lat="44.31723" lon="5.88627">
        <ele>619</ele>
        <time>2019-06-15T10:32:56Z</time>
      </trkpt>
      <trkpt lat="44.31725" lon="5.88628">
        <ele>619</ele>
        <time>2019-06-15T10:32:57Z</time>
      </trkpt>
      <trkpt lat="44.31728" lon="5.88629">
        <ele>619</ele>
        <time>2019-06-15T10:32:58Z</time>
      </trkpt>
      <trkpt lat="44.3173" lon="5.8863">
        <ele>619</ele>
        <time>2019-06-15T10:32:59Z</time>
      </trkpt>
      <trkpt lat="44.31732" lon="5.8863">
        <ele>619</ele>
        <time>2019-06-15T10:33:00Z</time>
      </trkpt>
      <trkpt lat="44.31733" lon="5.88631">
        <ele>620</ele>
        <time>2019-06-15T10:33:01Z</time>
      </trkpt>
      <trkpt lat="44.31736" lon="5.88631">
        <ele>620</ele>
        <time>2019-06-15T10:33:02Z</time>
      </trkpt>
      <trkpt lat="44.31739" lon="5.88631">
        <ele>620</ele>
        <time>2019-06-15T10:33:03Z</time>
      </trkpt>
      <trkpt lat="44.31741" lon="5.88631">
        <ele>621</ele>
        <time>2019-06-15T10:33:04Z</time>
      </trkpt>
      <trkpt lat="44.31743" lon="5.88631">
        <ele>621</ele>
        <time>2019-06-15T10:33:05Z</time>
      </trkpt>
      <trkpt lat="44.31745" lon="5.88631">
        <ele>622</ele>
        <time>2019-06-15T10:33:06Z</time>
      </trkpt>
      <trkpt lat="44.31747" lon="5.8863">
        <ele>623</ele>
        <time>2019-06-15T10:33:07Z</time>
      </trkpt>
      <trkpt lat="44.3175" lon="5.88629">
        <ele>623</ele>
        <time>2019-06-15T10:33:08Z</time>
      </trkpt>
      <trkpt lat="44.31752" lon="5.88628">
        <ele>624</ele>
        <time>2019-06-15T10:33:09Z</time>
      </trkpt>
      <trkpt lat="44.31755" lon="5.88627">
        <ele>624</ele>
        <time>2019-06-15T10:33:10Z</time>
      </trkpt>
      <trkpt lat="44.31759" lon="5.88626">
        <ele>624</ele>
        <time>2019-06-15T10:33:11Z</time>
      </trkpt>
      <trkpt lat="44.31762" lon="5.88625">
        <ele>624</ele>
        <time>2019-06-15T10:33:12Z</time>
      </trkpt>
      <trkpt lat="44.31766" lon="5.88624">
        <ele>624</ele>
        <time>2019-06-15T10:33:13Z</time>
      </trkpt>
      <trkpt lat="44.31768" lon="5.88623">
        <ele>624</ele>
        <time>2019-06-15T10:33:14Z</time>
      </trkpt>
      <trkpt lat="44.3177" lon="5.88622">
        <ele>624</ele>
        <time>2019-06-15T10:33:15Z</time>
      </trkpt>
      <trkpt lat="44.31773" lon="5.88621">
        <ele>625</ele>
        <time>2019-06-15T10:33:16Z</time>
      </trkpt>
      <trkpt lat="44.31776" lon="5.8862">
        <ele>625</ele>
        <time>2019-06-15T10:33:17Z</time>
      </trkpt>
      <trkpt lat="44.31779" lon="5.88619">
        <ele>626</ele>
        <time>2019-06-15T10:33:18Z</time>
      </trkpt>
      <trkpt lat="44.31781" lon="5.88618">
        <ele>626</ele>
        <time>2019-06-15T10:33:19Z</time>
      </trkpt>
      <trkpt lat="44.31785" lon="5.88616">
        <ele>626</ele>
        <time>2019-06-15T10:33:20Z</time>
      </trkpt>
      <trkpt lat="44.31789" lon="5.88614">
        <ele>626</ele>
        <time>2019-06-15T10:33:21Z</time>
      </trkpt>
      <trkpt lat="44.31792" lon="5.88613">
        <ele>626</ele>
        <time>2019-06-15T10:33:22Z</time>
      </trkpt>
      <trkpt lat="44.31795" lon="5.88611">
        <ele>626</ele>
        <time>2019-06-15T10:33:23Z</time>
      </trkpt>
      <trkpt lat="44.31798" lon="5.8861">
        <ele>626</ele>
        <time>2019-06-15T10:33:24Z</time>
      </trkpt>
      <trkpt lat="44.31801" lon="5.88609">
        <ele>626</ele>
        <time>2019-06-15T10:33:25Z</time>
      </trkpt>
      <trkpt lat="44.31805" lon="5.88607">
        <ele>626</ele>
        <time>2019-06-15T10:33:26Z</time>
      </trkpt>
      <trkpt lat="44.31808" lon="5.88606">
        <ele>626</ele>
        <time>2019-06-15T10:33:27Z</time>
      </trkpt>
      <trkpt lat="44.31812" lon="5.88606">
        <ele>626</ele>
        <time>2019-06-15T10:33:28Z</time>
      </trkpt>
      <trkpt lat="44.31815" lon="5.88605">
        <ele>626</ele>
        <time>2019-06-15T10:33:29Z</time>
      </trkpt>
      <trkpt lat="44.31819" lon="5.88604">
        <ele>626</ele>
        <time>2019-06-15T10:33:30Z</time>
      </trkpt>
      <trkpt lat="44.31821" lon="5.88603">
        <ele>626</ele>
        <time>2019-06-15T10:33:31Z</time>
      </trkpt>
      <trkpt lat="44.31824" lon="5.88602">
        <ele>626</ele>
        <time>2019-06-15T10:33:32Z</time>
      </trkpt>
      <trkpt lat="44.31827" lon="5.88601">
        <ele>626</ele>
        <time>2019-06-15T10:33:33Z</time>
      </trkpt>
      <trkpt lat="44.3183" lon="5.886">
        <ele>626</ele>
        <time>2019-06-15T10:33:34Z</time>
      </trkpt>
      <trkpt lat="44.31833" lon="5.88599">
        <ele>626</ele>
        <time>2019-06-15T10:33:35Z</time>
      </trkpt>
      <trkpt lat="44.31837" lon="5.88598">
        <ele>626</ele>
        <time>2019-06-15T10:33:36Z</time>
      </trkpt>
      <trkpt lat="44.31841" lon="5.88596">
        <ele>626</ele>
        <time>2019-06-15T10:33:37Z</time>
      </trkpt>
      <trkpt lat="44.31844" lon="5.88595">
        <ele>626</ele>
        <time>2019-06-15T10:33:38Z</time>
      </trkpt>
      <trkpt lat="44.31848" lon="5.88593">
        <ele>626</ele>
        <time>2019-06-15T10:33:39Z</time>
      </trkpt>
      <trkpt lat="44.31852" lon="5.88591">
        <ele>626</ele>
        <time>2019-06-15T10:33:40Z</time>
      </trkpt>
      <trkpt lat="44.31855" lon="5.88588">
        <ele>626</ele>
        <time>2019-06-15T10:33:41Z</time>
      </trkpt>
      <trkpt lat="44.31859" lon="5.88586">
        <ele>626</ele>
        <time>2019-06-15T10:33:42Z</time>
      </trkpt>
      <trkpt lat="44.31863" lon="5.88583">
        <ele>626</ele>
        <time>2019-06-15T10:33:43Z</time>
      </trkpt>
      <trkpt lat="44.31866" lon="5.88581">
        <ele>626</ele>
        <time>2019-06-15T10:33:44Z</time>
      </trkpt>
      <trkpt lat="44.31869" lon="5.88578">
        <ele>626</ele>
        <time>2019-06-15T10:33:45Z</time>
      </trkpt>
      <trkpt lat="44.31873" lon="5.88576">
        <ele>626</ele>
        <time>2019-06-15T10:33:46Z</time>
      </trkpt>
      <trkpt lat="44.31876" lon="5.88573">
        <ele>626</ele>
        <time>2019-06-15T10:33:47Z</time>
      </trkpt>
      <trkpt lat="44.31879" lon="5.88571">
        <ele>626</ele>
        <time>2019-06-15T10:33:48Z</time>
      </trkpt>
      <trkpt lat="44.31882" lon="5.88568">
        <ele>626</ele>
        <time>2019-06-15T10:33:49Z</time>
      </trkpt>
      <trkpt lat="44.31886" lon="5.88566">
        <ele>626</ele>
        <time>2019-06-15T10:33:50Z</time>
      </trkpt>
      <trkpt lat="44.31889" lon="5.88564">
        <ele>626</ele>
        <time>2019-06-15T10:33:51Z</time>
      </trkpt>
      <trkpt lat="44.31893" lon="5.88562">
        <ele>626</ele>
        <time>2019-06-15T10:33:52Z</time>
      </trkpt>
      <trkpt lat="44.31897" lon="5.88561">
        <ele>626</ele>
        <time>2019-06-15T10:33:53Z</time>
      </trkpt>
      <trkpt lat="44.31901" lon="5.88559">
        <ele>626</ele>
        <time>2019-06-15T10:33:54Z</time>
      </trkpt>
      <trkpt lat="44.31905" lon="5.88558">
        <ele>626</ele>
        <time>2019-06-15T10:33:55Z</time>
      </trkpt>
      <trkpt lat="44.31908" lon="5.88557">
        <ele>626</ele>
        <time>2019-06-15T10:33:56Z</time>
      </trkpt>
      <trkpt lat="44.31912" lon="5.88555">
        <ele>626</ele>
        <time>2019-06-15T10:33:57Z</time>
      </trkpt>
      <trkpt lat="44.31916" lon="5.88555">
        <ele>626</ele>
        <time>2019-06-15T10:33:58Z</time>
      </trkpt>
      <trkpt lat="44.31919" lon="5.88554">
        <ele>626</ele>
        <time>2019-06-15T10:33:59Z</time>
      </trkpt>
      <trkpt lat="44.31923" lon="5.88553">
        <ele>626</ele>
        <time>2019-06-15T10:34:00Z</time>
      </trkpt>
      <trkpt lat="44.31927" lon="5.88552">
        <ele>626</ele>
        <time>2019-06-15T10:34:01Z</time>
      </trkpt>
      <trkpt lat="44.3193" lon="5.88551">
        <ele>626</ele>
        <time>2019-06-15T10:34:02Z</time>
      </trkpt>
      <trkpt lat="44.31934" lon="5.88551">
        <ele>626</ele>
        <time>2019-06-15T10:34:03Z</time>
      </trkpt>
      <trkpt lat="44.31937" lon="5.8855">
        <ele>626</ele>
        <time>2019-06-15T10:34:04Z</time>
      </trkpt>
      <trkpt lat="44.31941" lon="5.88549">
        <ele>626</ele>
        <time>2019-06-15T10:34:05Z</time>
      </trkpt>
      <trkpt lat="44.31944" lon="5.88548">
        <ele>626</ele>
        <time>2019-06-15T10:34:06Z</time>
      </trkpt>
      <trkpt lat="44.31948" lon="5.88548">
        <ele>626</ele>
        <time>2019-06-15T10:34:07Z</time>
      </trkpt>
      <trkpt lat="44.31952" lon="5.88547">
        <ele>626</ele>
        <time>2019-06-15T10:34:08Z</time>
      </trkpt>
      <trkpt lat="44.31955" lon="5.88547">
        <ele>626</ele>
        <time>2019-06-15T10:34:09Z</time>
      </trkpt>
      <trkpt lat="44.3196" lon="5.88547">
        <ele>626</ele>
        <time>2019-06-15T10:34:10Z</time>
      </trkpt>
      <trkpt lat="44.31964" lon="5.88548">
        <ele>626</ele>
        <time>2019-06-15T10:34:11Z</time>
      </trkpt>
      <trkpt lat="44.31969" lon="5.88548">
        <ele>627</ele>
        <time>2019-06-15T10:34:12Z</time>
      </trkpt>
      <trkpt lat="44.31973" lon="5.88549">
        <ele>627</ele>
        <time>2019-06-15T10:34:13Z</time>
      </trkpt>
      <trkpt lat="44.31977" lon="5.88549">
        <ele>627</ele>
        <time>2019-06-15T10:34:14Z</time>
      </trkpt>
      <trkpt lat="44.31982" lon="5.88551">
        <ele>627</ele>
        <time>2019-06-15T10:34:15Z</time>
      </trkpt>
      <trkpt lat="44.31986" lon="5.88552">
        <ele>627</ele>
        <time>2019-06-15T10:34:16Z</time>
      </trkpt>
      <trkpt lat="44.3199" lon="5.88553">
        <ele>627</ele>
        <time>2019-06-15T10:34:17Z</time>
      </trkpt>
      <trkpt lat="44.31995" lon="5.88555">
        <ele>627</ele>
        <time>2019-06-15T10:34:18Z</time>
      </trkpt>
      <trkpt lat="44.31999" lon="5.88556">
        <ele>627</ele>
        <time>2019-06-15T10:34:19Z</time>
      </trkpt>
      <trkpt lat="44.32004" lon="5.88558">
        <ele>627</ele>
        <time>2019-06-15T10:34:20Z</time>
      </trkpt>
      <trkpt lat="44.32008" lon="5.88559">
        <ele>628</ele>
        <time>2019-06-15T10:34:21Z</time>
      </trkpt>
      <trkpt lat="44.32012" lon="5.8856">
        <ele>628</ele>
        <time>2019-06-15T10:34:22Z</time>
      </trkpt>
      <trkpt lat="44.32016" lon="5.88561">
        <ele>628</ele>
        <time>2019-06-15T10:34:23Z</time>
      </trkpt>
      <trkpt lat="44.32021" lon="5.88561">
        <ele>628</ele>
        <time>2019-06-15T10:34:24Z</time>
      </trkpt>
      <trkpt lat="44.32025" lon="5.8856">
        <ele>629</ele>
        <time>2019-06-15T10:34:25Z</time>
      </trkpt>
      <trkpt lat="44.32029" lon="5.8856">
        <ele>629</ele>
        <time>2019-06-15T10:34:26Z</time>
      </trkpt>
      <trkpt lat="44.32034" lon="5.88558">
        <ele>629</ele>
        <time>2019-06-15T10:34:27Z</time>
      </trkpt>
      <trkpt lat="44.32038" lon="5.88557">
        <ele>630</ele>
        <time>2019-06-15T10:34:28Z</time>
      </trkpt>
      <trkpt lat="44.32043" lon="5.88555">
        <ele>630</ele>
        <time>2019-06-15T10:34:29Z</time>
      </trkpt>
      <trkpt lat="44.32048" lon="5.88552">
        <ele>631</ele>
        <time>2019-06-15T10:34:30Z</time>
      </trkpt>
      <trkpt lat="44.32052" lon="5.88549">
        <ele>631</ele>
        <time>2019-06-15T10:34:31Z</time>
      </trkpt>
      <trkpt lat="44.32056" lon="5.88547">
        <ele>631</ele>
        <time>2019-06-15T10:34:32Z</time>
      </trkpt>
      <trkpt lat="44.3206" lon="5.88544">
        <ele>631</ele>
        <time>2019-06-15T10:34:33Z</time>
      </trkpt>
      <trkpt lat="44.32064" lon="5.88542">
        <ele>631</ele>
        <time>2019-06-15T10:34:34Z</time>
      </trkpt>
      <trkpt lat="44.32069" lon="5.88539">
        <ele>631</ele>
        <time>2019-06-15T10:34:35Z</time>
      </trkpt>
      <trkpt lat="44.32074" lon="5.88537">
        <ele>631</ele>
        <time>2019-06-15T10:34:36Z</time>
      </trkpt>
      <trkpt lat="44.32078" lon="5.88534">
        <ele>631</ele>
        <time>2019-06-15T10:34:37Z</time>
      </trkpt>
      <trkpt lat="44.32082" lon="5.88532">
        <ele>631</ele>
        <time>2019-06-15T10:34:38Z</time>
      </trkpt>
      <trkpt lat="44.32087" lon="5.88529">
        <ele>631</ele>
        <time>2019-06-15T10:34:39Z</time>
      </trkpt>
      <trkpt lat="44.32091" lon="5.88527">
        <ele>631</ele>
        <time>2019-06-15T10:34:40Z</time>
      </trkpt>
      <trkpt lat="44.32096" lon="5.88524">
        <ele>631</ele>
        <time>2019-06-15T10:34:41Z</time>
      </trkpt>
      <trkpt lat="44.321" lon="5.88522">
        <ele>631</ele>
        <time>2019-06-15T10:34:42Z</time>
      </trkpt>
      <trkpt lat="44.32105" lon="5.88519">
        <ele>631</ele>
        <time>2019-06-15T10:34:43Z</time>
      </trkpt>
      <trkpt lat="44.32109" lon="5.88517">
        <ele>631</ele>
        <time>2019-06-15T10:34:44Z</time>
      </trkpt>
      <trkpt lat="44.32114" lon="5.88514">
        <ele>631</ele>
        <time>2019-06-15T10:34:45Z</time>
      </trkpt>
      <trkpt lat="44.32118" lon="5.88512">
        <ele>631</ele>
        <time>2019-06-15T10:34:46Z</time>
      </trkpt>
      <trkpt lat="44.32122" lon="5.88511">
        <ele>631</ele>
        <time>2019-06-15T10:34:47Z</time>
      </trkpt>
      <trkpt lat="44.32127" lon="5.88508">
        <ele>631</ele>
        <time>2019-06-15T10:34:48Z</time>
      </trkpt>
      <trkpt lat="44.32131" lon="5.88506">
        <ele>631</ele>
        <time>2019-06-15T10:34:49Z</time>
      </trkpt>
      <trkpt lat="44.32135" lon="5.88504">
        <ele>631</ele>
        <time>2019-06-15T10:34:50Z</time>
      </trkpt>
      <trkpt lat="44.32139" lon="5.88502">
        <ele>631</ele>
        <time>2019-06-15T10:34:51Z</time>
      </trkpt>
      <trkpt lat="44.32143" lon="5.88499">
        <ele>631</ele>
        <time>2019-06-15T10:34:52Z</time>
      </trkpt>
      <trkpt lat="44.32146" lon="5.88496">
        <ele>631</ele>
        <time>2019-06-15T10:34:53Z</time>
      </trkpt>
      <trkpt lat="44.3215" lon="5.88494">
        <ele>631</ele>
        <time>2019-06-15T10:34:54Z</time>
      </trkpt>
      <trkpt lat="44.32153" lon="5.88491">
        <ele>632</ele>
        <time>2019-06-15T10:34:55Z</time>
      </trkpt>
      <trkpt lat="44.32157" lon="5.88488">
        <ele>632</ele>
        <time>2019-06-15T10:34:56Z</time>
      </trkpt>
      <trkpt lat="44.32161" lon="5.88484">
        <ele>633</ele>
        <time>2019-06-15T10:34:57Z</time>
      </trkpt>
      <trkpt lat="44.32165" lon="5.88481">
        <ele>633</ele>
        <time>2019-06-15T10:34:58Z</time>
      </trkpt>
      <trkpt lat="44.32169" lon="5.88478">
        <ele>633</ele>
        <time>2019-06-15T10:34:59Z</time>
      </trkpt>
      <trkpt lat="44.32173" lon="5.88474">
        <ele>634</ele>
        <time>2019-06-15T10:35:00Z</time>
      </trkpt>
      <trkpt lat="44.32176" lon="5.8847">
        <ele>634</ele>
        <time>2019-06-15T10:35:01Z</time>
      </trkpt>
      <trkpt lat="44.3218" lon="5.88466">
        <ele>634</ele>
        <time>2019-06-15T10:35:02Z</time>
      </trkpt>
      <trkpt lat="44.32183" lon="5.88462">
        <ele>634</ele>
        <time>2019-06-15T10:35:03Z</time>
      </trkpt>
      <trkpt lat="44.32187" lon="5.88459">
        <ele>634</ele>
        <time>2019-06-15T10:35:04Z</time>
      </trkpt>
      <trkpt lat="44.32191" lon="5.88456">
        <ele>634</ele>
        <time>2019-06-15T10:35:05Z</time>
      </trkpt>
      <trkpt lat="44.32195" lon="5.88453">
        <ele>634</ele>
        <time>2019-06-15T10:35:06Z</time>
      </trkpt>
      <trkpt lat="44.32199" lon="5.88449">
        <ele>634</ele>
        <time>2019-06-15T10:35:07Z</time>
      </trkpt>
      <trkpt lat="44.32203" lon="5.88446">
        <ele>634</ele>
        <time>2019-06-15T10:35:08Z</time>
      </trkpt>
      <trkpt lat="44.32207" lon="5.88444">
        <ele>634</ele>
        <time>2019-06-15T10:35:09Z</time>
      </trkpt>
      <trkpt lat="44.32212" lon="5.88441">
        <ele>634</ele>
        <time>2019-06-15T10:35:10Z</time>
      </trkpt>
      <trkpt lat="44.32216" lon="5.88439">
        <ele>634</ele>
        <time>2019-06-15T10:35:11Z</time>
      </trkpt>
      <trkpt lat="44.3222" lon="5.88437">
        <ele>635</ele>
        <time>2019-06-15T10:35:12Z</time>
      </trkpt>
      <trkpt lat="44.32224" lon="5.88436">
        <ele>635</ele>
        <time>2019-06-15T10:35:13Z</time>
      </trkpt>
      <trkpt lat="44.32228" lon="5.88434">
        <ele>635</ele>
        <time>2019-06-15T10:35:14Z</time>
      </trkpt>
      <trkpt lat="44.32232" lon="5.88433">
        <ele>636</ele>
        <time>2019-06-15T10:35:15Z</time>
      </trkpt>
      <trkpt lat="44.32236" lon="5.88432">
        <ele>636</ele>
        <time>2019-06-15T10:35:16Z</time>
      </trkpt>
      <trkpt lat="44.32241" lon="5.88431">
        <ele>636</ele>
        <time>2019-06-15T10:35:17Z</time>
      </trkpt>
      <trkpt lat="44.32245" lon="5.88429">
        <ele>637</ele>
        <time>2019-06-15T10:35:18Z</time>
      </trkpt>
      <trkpt lat="44.32249" lon="5.88429">
        <ele>637</ele>
        <time>2019-06-15T10:35:19Z</time>
      </trkpt>
      <trkpt lat="44.32254" lon="5.88428">
        <ele>637</ele>
        <time>2019-06-15T10:35:20Z</time>
      </trkpt>
      <trkpt lat="44.32258" lon="5.88427">
        <ele>638</ele>
        <time>2019-06-15T10:35:21Z</time>
      </trkpt>
      <trkpt lat="44.32262" lon="5.88426">
        <ele>638</ele>
        <time>2019-06-15T10:35:22Z</time>
      </trkpt>
      <trkpt lat="44.32267" lon="5.88426">
        <ele>638</ele>
        <time>2019-06-15T10:35:23Z</time>
      </trkpt>
      <trkpt lat="44.32272" lon="5.88425">
        <ele>638</ele>
        <time>2019-06-15T10:35:24Z</time>
      </trkpt>
      <trkpt lat="44.32276" lon="5.88424">
        <ele>639</ele>
        <time>2019-06-15T10:35:25Z</time>
      </trkpt>
      <trkpt lat="44.3228" lon="5.88422">
        <ele>639</ele>
        <time>2019-06-15T10:35:26Z</time>
      </trkpt>
      <trkpt lat="44.32285" lon="5.8842">
        <ele>639</ele>
        <time>2019-06-15T10:35:27Z</time>
      </trkpt>
      <trkpt lat="44.32289" lon="5.88418">
        <ele>639</ele>
        <time>2019-06-15T10:35:28Z</time>
      </trkpt>
      <trkpt lat="44.32293" lon="5.88417">
        <ele>639</ele>
        <time>2019-06-15T10:35:29Z</time>
      </trkpt>
      <trkpt lat="44.32298" lon="5.88415">
        <ele>639</ele>
        <time>2019-06-15T10:35:30Z</time>
      </trkpt>
      <trkpt lat="44.32302" lon="5.88413">
        <ele>639</ele>
        <time>2019-06-15T10:35:31Z</time>
      </trkpt>
      <trkpt lat="44.32307" lon="5.88411">
        <ele>640</ele>
        <time>2019-06-15T10:35:32Z</time>
      </trkpt>
      <trkpt lat="44.32311" lon="5.88408">
        <ele>640</ele>
        <time>2019-06-15T10:35:33Z</time>
      </trkpt>
      <trkpt lat="44.32315" lon="5.88406">
        <ele>640</ele>
        <time>2019-06-15T10:35:34Z</time>
      </trkpt>
      <trkpt lat="44.32318" lon="5.88402">
        <ele>640</ele>
        <time>2019-06-15T10:35:35Z</time>
      </trkpt>
      <trkpt lat="44.32321" lon="5.88397">
        <ele>640</ele>
        <time>2019-06-15T10:35:36Z</time>
      </trkpt>
      <trkpt lat="44.32323" lon="5.88392">
        <ele>640</ele>
        <time>2019-06-15T10:35:37Z</time>
      </trkpt>
      <trkpt lat="44.32326" lon="5.88387">
        <ele>640</ele>
        <time>2019-06-15T10:35:38Z</time>
      </trkpt>
      <trkpt lat="44.32328" lon="5.88382">
        <ele>640</ele>
        <time>2019-06-15T10:35:39Z</time>
      </trkpt>
      <trkpt lat="44.3233" lon="5.88376">
        <ele>640</ele>
        <time>2019-06-15T10:35:40Z</time>
      </trkpt>
      <trkpt lat="44.32332" lon="5.8837">
        <ele>640</ele>
        <time>2019-06-15T10:35:41Z</time>
      </trkpt>
      <trkpt lat="44.32334" lon="5.88364">
        <ele>640</ele>
        <time>2019-06-15T10:35:42Z</time>
      </trkpt>
      <trkpt lat="44.32335" lon="5.88357">
        <ele>640</ele>
        <time>2019-06-15T10:35:43Z</time>
      </trkpt>
      <trkpt lat="44.32337" lon="5.88351">
        <ele>640</ele>
        <time>2019-06-15T10:35:44Z</time>
      </trkpt>
      <trkpt lat="44.32338" lon="5.88345">
        <ele>640</ele>
        <time>2019-06-15T10:35:45Z</time>
      </trkpt>
      <trkpt lat="44.3234" lon="5.88339">
        <ele>640</ele>
        <time>2019-06-15T10:35:46Z</time>
      </trkpt>
      <trkpt lat="44.32342" lon="5.88333">
        <ele>640</ele>
        <time>2019-06-15T10:35:47Z</time>
      </trkpt>
      <trkpt lat="44.32344" lon="5.88327">
        <ele>640</ele>
        <time>2019-06-15T10:35:48Z</time>
      </trkpt>
      <trkpt lat="44.32347" lon="5.8832">
        <ele>640</ele>
        <time>2019-06-15T10:35:49Z</time>
      </trkpt>
      <trkpt lat="44.32349" lon="5.88315">
        <ele>640</ele>
        <time>2019-06-15T10:35:50Z</time>
      </trkpt>
      <trkpt lat="44.32352" lon="5.88309">
        <ele>640</ele>
        <time>2019-06-15T10:35:51Z</time>
      </trkpt>
      <trkpt lat="44.32354" lon="5.88303">
        <ele>640</ele>
        <time>2019-06-15T10:35:52Z</time>
      </trkpt>
      <trkpt lat="44.32356" lon="5.88297">
        <ele>641</ele>
        <time>2019-06-15T10:35:53Z</time>
      </trkpt>
      <trkpt lat="44.32358" lon="5.88291">
        <ele>641</ele>
        <time>2019-06-15T10:35:54Z</time>
      </trkpt>
      <trkpt lat="44.32361" lon="5.88286">
        <ele>641</ele>
        <time>2019-06-15T10:35:55Z</time>
      </trkpt>
      <trkpt lat="44.32363" lon="5.8828">
        <ele>641</ele>
        <time>2019-06-15T10:35:56Z</time>
      </trkpt>
      <trkpt lat="44.32365" lon="5.88274">
        <ele>641</ele>
        <time>2019-06-15T10:35:57Z</time>
      </trkpt>
      <trkpt lat="44.32367" lon="5.88269">
        <ele>641</ele>
        <time>2019-06-15T10:35:58Z</time>
      </trkpt>
      <trkpt lat="44.32369" lon="5.88263">
        <ele>641</ele>
        <time>2019-06-15T10:35:59Z</time>
      </trkpt>
      <trkpt lat="44.32371" lon="5.88257">
        <ele>642</ele>
        <time>2019-06-15T10:36:00Z</time>
      </trkpt>
      <trkpt lat="44.32373" lon="5.88252">
        <ele>642</ele>
        <time>2019-06-15T10:36:01Z</time>
      </trkpt>
      <trkpt lat="44.32376" lon="5.88246">
        <ele>642</ele>
        <time>2019-06-15T10:36:02Z</time>
      </trkpt>
      <trkpt lat="44.32378" lon="5.8824">
        <ele>642</ele>
        <time>2019-06-15T10:36:03Z</time>
      </trkpt>
      <trkpt lat="44.32381" lon="5.88234">
        <ele>642</ele>
        <time>2019-06-15T10:36:04Z</time>
      </trkpt>
      <trkpt lat="44.32383" lon="5.88228">
        <ele>642</ele>
        <time>2019-06-15T10:36:05Z</time>
      </trkpt>
      <trkpt lat="44.32384" lon="5.88222">
        <ele>642</ele>
        <time>2019-06-15T10:36:06Z</time>
      </trkpt>
      <trkpt lat="44.32387" lon="5.88216">
        <ele>643</ele>
        <time>2019-06-15T10:36:07Z</time>
      </trkpt>
      <trkpt lat="44.32389" lon="5.88209">
        <ele>643</ele>
        <time>2019-06-15T10:36:08Z</time>
      </trkpt>
      <trkpt lat="44.32391" lon="5.88202">
        <ele>643</ele>
        <time>2019-06-15T10:36:09Z</time>
      </trkpt>
      <trkpt lat="44.32394" lon="5.88195">
        <ele>643</ele>
        <time>2019-06-15T10:36:10Z</time>
      </trkpt>
      <trkpt lat="44.32396" lon="5.88187">
        <ele>643</ele>
        <time>2019-06-15T10:36:11Z</time>
      </trkpt>
      <trkpt lat="44.32398" lon="5.88178">
        <ele>643</ele>
        <time>2019-06-15T10:36:12Z</time>
      </trkpt>
      <trkpt lat="44.324" lon="5.88169">
        <ele>643</ele>
        <time>2019-06-15T10:36:13Z</time>
      </trkpt>
      <trkpt lat="44.32403" lon="5.8816">
        <ele>643</ele>
        <time>2019-06-15T10:36:14Z</time>
      </trkpt>
      <trkpt lat="44.32406" lon="5.88151">
        <ele>643</ele>
        <time>2019-06-15T10:36:15Z</time>
      </trkpt>
      <trkpt lat="44.32409" lon="5.8814">
        <ele>643</ele>
        <time>2019-06-15T10:36:16Z</time>
      </trkpt>
      <trkpt lat="44.32412" lon="5.88131">
        <ele>643</ele>
        <time>2019-06-15T10:36:17Z</time>
      </trkpt>
      <trkpt lat="44.32415" lon="5.8812">
        <ele>643</ele>
        <time>2019-06-15T10:36:18Z</time>
      </trkpt>
      <trkpt lat="44.32417" lon="5.8811">
        <ele>643</ele>
        <time>2019-06-15T10:36:19Z</time>
      </trkpt>
      <trkpt lat="44.3242" lon="5.881">
        <ele>643</ele>
        <time>2019-06-15T10:36:20Z</time>
      </trkpt>
      <trkpt lat="44.32423" lon="5.8809">
        <ele>643</ele>
        <time>2019-06-15T10:36:21Z</time>
      </trkpt>
      <trkpt lat="44.32427" lon="5.88081">
        <ele>643</ele>
        <time>2019-06-15T10:36:22Z</time>
      </trkpt>
      <trkpt lat="44.32431" lon="5.88072">
        <ele>643</ele>
        <time>2019-06-15T10:36:23Z</time>
      </trkpt>
      <trkpt lat="44.32436" lon="5.88064">
        <ele>643</ele>
        <time>2019-06-15T10:36:24Z</time>
      </trkpt>
      <trkpt lat="44.32442" lon="5.88056">
        <ele>643</ele>
        <time>2019-06-15T10:36:25Z</time>
      </trkpt>
      <trkpt lat="44.32448" lon="5.88048">
        <ele>643</ele>
        <time>2019-06-15T10:36:26Z</time>
      </trkpt>
      <trkpt lat="44.32454" lon="5.88041">
        <ele>643</ele>
        <time>2019-06-15T10:36:27Z</time>
      </trkpt>
      <trkpt lat="44.3246" lon="5.88033">
        <ele>643</ele>
        <time>2019-06-15T10:36:28Z</time>
      </trkpt>
      <trkpt lat="44.32465" lon="5.88026">
        <ele>643</ele>
        <time>2019-06-15T10:36:29Z</time>
      </trkpt>
      <trkpt lat="44.32471" lon="5.88019">
        <ele>643</ele>
        <time>2019-06-15T10:36:30Z</time>
      </trkpt>
      <trkpt lat="44.32476" lon="5.88011">
        <ele>643</ele>
        <time>2019-06-15T10:36:31Z</time>
      </trkpt>
      <trkpt lat="44.32481" lon="5.88005">
        <ele>643</ele>
        <time>2019-06-15T10:36:32Z</time>
      </trkpt>
      <trkpt lat="44.32485" lon="5.87998">
        <ele>643</ele>
        <time>2019-06-15T10:36:33Z</time>
      </trkpt>
      <trkpt lat="44.32488" lon="5.87992">
        <ele>643</ele>
        <time>2019-06-15T10:36:34Z</time>
      </trkpt>
      <trkpt lat="44.32491" lon="5.87986">
        <ele>643</ele>
        <time>2019-06-15T10:36:35Z</time>
      </trkpt>
      <trkpt lat="44.32494" lon="5.87979">
        <ele>643</ele>
        <time>2019-06-15T10:36:36Z</time>
      </trkpt>
      <trkpt lat="44.32497" lon="5.87972">
        <ele>643</ele>
        <time>2019-06-15T10:36:37Z</time>
      </trkpt>
      <trkpt lat="44.32499" lon="5.87965">
        <ele>643</ele>
        <time>2019-06-15T10:36:38Z</time>
      </trkpt>
      <trkpt lat="44.325" lon="5.87957">
        <ele>643</ele>
        <time>2019-06-15T10:36:39Z</time>
      </trkpt>
      <trkpt lat="44.32502" lon="5.8795">
        <ele>643</ele>
        <time>2019-06-15T10:36:40Z</time>
      </trkpt>
      <trkpt lat="44.32503" lon="5.87942">
        <ele>643</ele>
        <time>2019-06-15T10:36:41Z</time>
      </trkpt>
      <trkpt lat="44.32504" lon="5.87933">
        <ele>643</ele>
        <time>2019-06-15T10:36:42Z</time>
      </trkpt>
      <trkpt lat="44.32504" lon="5.87925">
        <ele>643</ele>
        <time>2019-06-15T10:36:43Z</time>
      </trkpt>
      <trkpt lat="44.32505" lon="5.87917">
        <ele>643</ele>
        <time>2019-06-15T10:36:44Z</time>
      </trkpt>
      <trkpt lat="44.32505" lon="5.87908">
        <ele>643</ele>
        <time>2019-06-15T10:36:45Z</time>
      </trkpt>
      <trkpt lat="44.32505" lon="5.879">
        <ele>643</ele>
        <time>2019-06-15T10:36:46Z</time>
      </trkpt>
      <trkpt lat="44.32505" lon="5.87892">
        <ele>643</ele>
        <time>2019-06-15T10:36:47Z</time>
      </trkpt>
      <trkpt lat="44.32506" lon="5.87883">
        <ele>643</ele>
        <time>2019-06-15T10:36:48Z</time>
      </trkpt>
      <trkpt lat="44.32507" lon="5.87874">
        <ele>643</ele>
        <time>2019-06-15T10:36:49Z</time>
      </trkpt>
      <trkpt lat="44.32506" lon="5.87865">
        <ele>643</ele>
        <time>2019-06-15T10:36:50Z</time>
      </trkpt>
      <trkpt lat="44.32506" lon="5.87856">
        <ele>643</ele>
        <time>2019-06-15T10:36:51Z</time>
      </trkpt>
      <trkpt lat="44.32507" lon="5.87847">
        <ele>642</ele>
        <time>2019-06-15T10:36:52Z</time>
      </trkpt>
      <trkpt lat="44.32507" lon="5.87837">
        <ele>642</ele>
        <time>2019-06-15T10:36:53Z</time>
      </trkpt>
      <trkpt lat="44.32508" lon="5.87826">
        <ele>642</ele>
        <time>2019-06-15T10:36:54Z</time>
      </trkpt>
      <trkpt lat="44.32509" lon="5.87814">
        <ele>641</ele>
        <time>2019-06-15T10:36:55Z</time>
      </trkpt>
      <trkpt lat="44.3251" lon="5.87802">
        <ele>641</ele>
        <time>2019-06-15T10:36:56Z</time>
      </trkpt>
      <trkpt lat="44.3251" lon="5.8779">
        <ele>641</ele>
        <time>2019-06-15T10:36:57Z</time>
      </trkpt>
      <trkpt lat="44.32512" lon="5.87778">
        <ele>641</ele>
        <time>2019-06-15T10:36:58Z</time>
      </trkpt>
      <trkpt lat="44.32513" lon="5.87766">
        <ele>641</ele>
        <time>2019-06-15T10:36:59Z</time>
      </trkpt>
      <trkpt lat="44.32515" lon="5.87753">
        <ele>640</ele>
        <time>2019-06-15T10:37:00Z</time>
      </trkpt>
      <trkpt lat="44.32516" lon="5.87741">
        <ele>640</ele>
        <time>2019-06-15T10:37:01Z</time>
      </trkpt>
      <trkpt lat="44.32517" lon="5.87729">
        <ele>640</ele>
        <time>2019-06-15T10:37:02Z</time>
      </trkpt>
      <trkpt lat="44.32517" lon="5.87715">
        <ele>639</ele>
        <time>2019-06-15T10:37:03Z</time>
      </trkpt>
      <trkpt lat="44.32518" lon="5.87703">
        <ele>639</ele>
        <time>2019-06-15T10:37:04Z</time>
      </trkpt>
      <trkpt lat="44.32519" lon="5.87689">
        <ele>638</ele>
        <time>2019-06-15T10:37:05Z</time>
      </trkpt>
      <trkpt lat="44.32521" lon="5.87676">
        <ele>638</ele>
        <time>2019-06-15T10:37:06Z</time>
      </trkpt>
      <trkpt lat="44.32523" lon="5.87663">
        <ele>638</ele>
        <time>2019-06-15T10:37:07Z</time>
      </trkpt>
      <trkpt lat="44.32524" lon="5.87649">
        <ele>638</ele>
        <time>2019-06-15T10:37:08Z</time>
      </trkpt>
      <trkpt lat="44.32525" lon="5.87636">
        <ele>637</ele>
        <time>2019-06-15T10:37:09Z</time>
      </trkpt>
      <trkpt lat="44.32526" lon="5.87623">
        <ele>637</ele>
        <time>2019-06-15T10:37:10Z</time>
      </trkpt>
      <trkpt lat="44.32526" lon="5.87609">
        <ele>637</ele>
        <time>2019-06-15T10:37:11Z</time>
      </trkpt>
      <trkpt lat="44.32526" lon="5.87597">
        <ele>637</ele>
        <time>2019-06-15T10:37:12Z</time>
      </trkpt>
      <trkpt lat="44.32524" lon="5.87584">
        <ele>636</ele>
        <time>2019-06-15T10:37:13Z</time>
      </trkpt>
      <trkpt lat="44.32521" lon="5.87573">
        <ele>636</ele>
        <time>2019-06-15T10:37:14Z</time>
      </trkpt>
      <trkpt lat="44.32515" lon="5.87561">
        <ele>636</ele>
        <time>2019-06-15T10:37:15Z</time>
      </trkpt>
      <trkpt lat="44.32507" lon="5.87553">
        <ele>635</ele>
        <time>2019-06-15T10:37:16Z</time>
      </trkpt>
      <trkpt lat="44.32499" lon="5.87545">
        <ele>635</ele>
        <time>2019-06-15T10:37:17Z</time>
      </trkpt>
      <trkpt lat="44.32492" lon="5.87537">
        <ele>634</ele>
        <time>2019-06-15T10:37:18Z</time>
      </trkpt>
      <trkpt lat="44.32485" lon="5.87529">
        <ele>634</ele>
        <time>2019-06-15T10:37:19Z</time>
      </trkpt>
      <trkpt lat="44.3248" lon="5.8752">
        <ele>634</ele>
        <time>2019-06-15T10:37:20Z</time>
      </trkpt>
      <trkpt lat="44.32475" lon="5.87511">
        <ele>634</ele>
        <time>2019-06-15T10:37:21Z</time>
      </trkpt>
      <trkpt lat="44.3247" lon="5.87503">
        <ele>634</ele>
        <time>2019-06-15T10:37:22Z</time>
      </trkpt>
      <trkpt lat="44.32466" lon="5.87495">
        <ele>634</ele>
        <time>2019-06-15T10:37:23Z</time>
      </trkpt>
      <trkpt lat="44.32461" lon="5.87487">
        <ele>634</ele>
        <time>2019-06-15T10:37:24Z</time>
      </trkpt>
      <trkpt lat="44.32457" lon="5.87479">
        <ele>634</ele>
        <time>2019-06-15T10:37:25Z</time>
      </trkpt>
      <trkpt lat="44.32453" lon="5.87471">
        <ele>634</ele>
        <time>2019-06-15T10:37:26Z</time>
      </trkpt>
      <trkpt lat="44.32449" lon="5.87463">
        <ele>634</ele>
        <time>2019-06-15T10:37:27Z</time>
      </trkpt>
      <trkpt lat="44.32445" lon="5.87455">
        <ele>634</ele>
        <time>2019-06-15T10:37:28Z</time>
      </trkpt>
      <trkpt lat="44.32442" lon="5.87447">
        <ele>634</ele>
        <time>2019-06-15T10:37:29Z</time>
      </trkpt>
      <trkpt lat="44.3244" lon="5.87438">
        <ele>634</ele>
        <time>2019-06-15T10:37:30Z</time>
      </trkpt>
      <trkpt lat="44.32438" lon="5.87429">
        <ele>634</ele>
        <time>2019-06-15T10:37:31Z</time>
      </trkpt>
      <trkpt lat="44.32437" lon="5.87419">
        <ele>634</ele>
        <time>2019-06-15T10:37:32Z</time>
      </trkpt>
      <trkpt lat="44.32438" lon="5.8741">
        <ele>634</ele>
        <time>2019-06-15T10:37:33Z</time>
      </trkpt>
      <trkpt lat="44.32438" lon="5.87401">
        <ele>634</ele>
        <time>2019-06-15T10:37:34Z</time>
      </trkpt>
      <trkpt lat="44.32439" lon="5.87392">
        <ele>634</ele>
        <time>2019-06-15T10:37:35Z</time>
      </trkpt>
      <trkpt lat="44.32439" lon="5.87383">
        <ele>634</ele>
        <time>2019-06-15T10:37:36Z</time>
      </trkpt>
      <trkpt lat="44.32441" lon="5.87374">
        <ele>634</ele>
        <time>2019-06-15T10:37:37Z</time>
      </trkpt>
      <trkpt lat="44.32442" lon="5.87365">
        <ele>634</ele>
        <time>2019-06-15T10:37:38Z</time>
      </trkpt>
      <trkpt lat="44.32443" lon="5.87356">
        <ele>634</ele>
        <time>2019-06-15T10:37:39Z</time>
      </trkpt>
      <trkpt lat="44.32444" lon="5.87346">
        <ele>634</ele>
        <time>2019-06-15T10:37:40Z</time>
      </trkpt>
      <trkpt lat="44.32446" lon="5.87337">
        <ele>634</ele>
        <time>2019-06-15T10:37:41Z</time>
      </trkpt>
      <trkpt lat="44.32447" lon="5.87328">
        <ele>634</ele>
        <time>2019-06-15T10:37:42Z</time>
      </trkpt>
      <trkpt lat="44.32448" lon="5.87318">
        <ele>634</ele>
        <time>2019-06-15T10:37:43Z</time>
      </trkpt>
      <trkpt lat="44.32449" lon="5.87309">
        <ele>634</ele>
        <time>2019-06-15T10:37:44Z</time>
      </trkpt>
      <trkpt lat="44.3245" lon="5.87299">
        <ele>634</ele>
        <time>2019-06-15T10:37:45Z</time>
      </trkpt>
      <trkpt lat="44.32451" lon="5.8729">
        <ele>634</ele>
        <time>2019-06-15T10:37:46Z</time>
      </trkpt>
      <trkpt lat="44.32452" lon="5.87281">
        <ele>634</ele>
        <time>2019-06-15T10:37:47Z</time>
      </trkpt>
      <trkpt lat="44.32453" lon="5.87271">
        <ele>634</ele>
        <time>2019-06-15T10:37:48Z</time>
      </trkpt>
      <trkpt lat="44.32454" lon="5.87262">
        <ele>634</ele>
        <time>2019-06-15T10:37:49Z</time>
      </trkpt>
      <trkpt lat="44.32455" lon="5.87252">
        <ele>634</ele>
        <time>2019-06-15T10:37:50Z</time>
      </trkpt>
      <trkpt lat="44.32457" lon="5.87243">
        <ele>634</ele>
        <time>2019-06-15T10:37:51Z</time>
      </trkpt>
      <trkpt lat="44.32458" lon="5.87233">
        <ele>633</ele>
        <time>2019-06-15T10:37:52Z</time>
      </trkpt>
      <trkpt lat="44.32461" lon="5.87225">
        <ele>633</ele>
        <time>2019-06-15T10:37:53Z</time>
      </trkpt>
      <trkpt lat="44.32465" lon="5.87217">
        <ele>633</ele>
        <time>2019-06-15T10:37:54Z</time>
      </trkpt>
      <trkpt lat="44.3247" lon="5.87209">
        <ele>633</ele>
        <time>2019-06-15T10:37:55Z</time>
      </trkpt>
      <trkpt lat="44.32475" lon="5.87203">
        <ele>632</ele>
        <time>2019-06-15T10:37:56Z</time>
      </trkpt>
      <trkpt lat="44.32481" lon="5.87196">
        <ele>632</ele>
        <time>2019-06-15T10:37:57Z</time>
      </trkpt>
      <trkpt lat="44.32488" lon="5.87191">
        <ele>632</ele>
        <time>2019-06-15T10:37:58Z</time>
      </trkpt>
      <trkpt lat="44.32494" lon="5.87185">
        <ele>632</ele>
        <time>2019-06-15T10:37:59Z</time>
      </trkpt>
      <trkpt lat="44.32501" lon="5.8718">
        <ele>631</ele>
        <time>2019-06-15T10:38:00Z</time>
      </trkpt>
      <trkpt lat="44.32508" lon="5.87175">
        <ele>631</ele>
        <time>2019-06-15T10:38:01Z</time>
      </trkpt>
      <trkpt lat="44.32516" lon="5.87169">
        <ele>631</ele>
        <time>2019-06-15T10:38:02Z</time>
      </trkpt>
      <trkpt lat="44.32523" lon="5.87164">
        <ele>630</ele>
        <time>2019-06-15T10:38:03Z</time>
      </trkpt>
      <trkpt lat="44.32531" lon="5.87159">
        <ele>630</ele>
        <time>2019-06-15T10:38:04Z</time>
      </trkpt>
      <trkpt lat="44.32538" lon="5.87154">
        <ele>629</ele>
        <time>2019-06-15T10:38:05Z</time>
      </trkpt>
      <trkpt lat="44.32546" lon="5.87149">
        <ele>629</ele>
        <time>2019-06-15T10:38:06Z</time>
      </trkpt>
      <trkpt lat="44.32553" lon="5.87145">
        <ele>629</ele>
        <time>2019-06-15T10:38:07Z</time>
      </trkpt>
      <trkpt lat="44.32561" lon="5.87141">
        <ele>629</ele>
        <time>2019-06-15T10:38:08Z</time>
      </trkpt>
      <trkpt lat="44.32569" lon="5.87139">
        <ele>628</ele>
        <time>2019-06-15T10:38:09Z</time>
      </trkpt>
      <trkpt lat="44.32577" lon="5.87137">
        <ele>628</ele>
        <time>2019-06-15T10:38:10Z</time>
      </trkpt>
      <trkpt lat="44.32585" lon="5.87136">
        <ele>628</ele>
        <time>2019-06-15T10:38:11Z</time>
      </trkpt>
      <trkpt lat="44.32593" lon="5.87136">
        <ele>628</ele>
        <time>2019-06-15T10:38:12Z</time>
      </trkpt>
      <trkpt lat="44.32601" lon="5.87137">
        <ele>628</ele>
        <time>2019-06-15T10:38:13Z</time>
      </trkpt>
      <trkpt lat="44.32608" lon="5.87138">
        <ele>628</ele>
        <time>2019-06-15T10:38:14Z</time>
      </trkpt>
      <trkpt lat="44.32616" lon="5.87139">
        <ele>628</ele>
        <time>2019-06-15T10:38:15Z</time>
      </trkpt>
      <trkpt lat="44.32623" lon="5.87139">
        <ele>628</ele>
        <time>2019-06-15T10:38:16Z</time>
      </trkpt>
      <trkpt lat="44.32631" lon="5.87137">
        <ele>628</ele>
        <time>2019-06-15T10:38:17Z</time>
      </trkpt>
      <trkpt lat="44.32637" lon="5.87136">
        <ele>628</ele>
        <time>2019-06-15T10:38:18Z</time>
      </trkpt>
      <trkpt lat="44.32644" lon="5.87133">
        <ele>628</ele>
        <time>2019-06-15T10:38:19Z</time>
      </trkpt>
      <trkpt lat="44.3265" lon="5.8713">
        <ele>628</ele>
        <time>2019-06-15T10:38:20Z</time>
      </trkpt>
      <trkpt lat="44.32656" lon="5.87127">
        <ele>628</ele>
        <time>2019-06-15T10:38:21Z</time>
      </trkpt>
      <trkpt lat="44.32663" lon="5.87123">
        <ele>628</ele>
        <time>2019-06-15T10:38:22Z</time>
      </trkpt>
      <trkpt lat="44.32669" lon="5.87119">
        <ele>628</ele>
        <time>2019-06-15T10:38:23Z</time>
      </trkpt>
      <trkpt lat="44.32675" lon="5.87114">
        <ele>628</ele>
        <time>2019-06-15T10:38:24Z</time>
      </trkpt>
      <trkpt lat="44.32681" lon="5.87107">
        <ele>628</ele>
        <time>2019-06-15T10:38:25Z</time>
      </trkpt>
      <trkpt lat="44.32686" lon="5.87099">
        <ele>628</ele>
        <time>2019-06-15T10:38:26Z</time>
      </trkpt>
      <trkpt lat="44.3269" lon="5.8709">
        <ele>628</ele>
        <time>2019-06-15T10:38:27Z</time>
      </trkpt>
      <trkpt lat="44.32693" lon="5.8708">
        <ele>627</ele>
        <time>2019-06-15T10:38:28Z</time>
      </trkpt>
      <trkpt lat="44.32695" lon="5.87069">
        <ele>627</ele>
        <time>2019-06-15T10:38:29Z</time>
      </trkpt>
      <trkpt lat="44.32697" lon="5.87058">
        <ele>627</ele>
        <time>2019-06-15T10:38:30Z</time>
      </trkpt>
      <trkpt lat="44.32699" lon="5.87047">
        <ele>627</ele>
        <time>2019-06-15T10:38:31Z</time>
      </trkpt>
      <trkpt lat="44.32701" lon="5.87036">
        <ele>626</ele>
        <time>2019-06-15T10:38:32Z</time>
      </trkpt>
      <trkpt lat="44.32703" lon="5.87025">
        <ele>626</ele>
        <time>2019-06-15T10:38:33Z</time>
      </trkpt>
      <trkpt lat="44.32705" lon="5.87014">
        <ele>626</ele>
        <time>2019-06-15T10:38:34Z</time>
      </trkpt>
      <trkpt lat="44.32707" lon="5.87004">
        <ele>626</ele>
        <time>2019-06-15T10:38:35Z</time>
      </trkpt>
      <trkpt lat="44.32709" lon="5.86993">
        <ele>626</ele>
        <time>2019-06-15T10:38:36Z</time>
      </trkpt>
      <trkpt lat="44.32711" lon="5.86982">
        <ele>626</ele>
        <time>2019-06-15T10:38:37Z</time>
      </trkpt>
      <trkpt lat="44.32714" lon="5.86972">
        <ele>626</ele>
        <time>2019-06-15T10:38:38Z</time>
      </trkpt>
      <trkpt lat="44.32716" lon="5.86962">
        <ele>626</ele>
        <time>2019-06-15T10:38:39Z</time>
      </trkpt>
      <trkpt lat="44.32718" lon="5.86951">
        <ele>626</ele>
        <time>2019-06-15T10:38:40Z</time>
      </trkpt>
      <trkpt lat="44.32721" lon="5.86941">
        <ele>625</ele>
        <time>2019-06-15T10:38:41Z</time>
      </trkpt>
      <trkpt lat="44.32723" lon="5.86931">
        <ele>625</ele>
        <time>2019-06-15T10:38:42Z</time>
      </trkpt>
      <trkpt lat="44.32726" lon="5.86921">
        <ele>625</ele>
        <time>2019-06-15T10:38:43Z</time>
      </trkpt>
      <trkpt lat="44.32729" lon="5.86911">
        <ele>625</ele>
        <time>2019-06-15T10:38:44Z</time>
      </trkpt>
      <trkpt lat="44.32732" lon="5.86901">
        <ele>625</ele>
        <time>2019-06-15T10:38:45Z</time>
      </trkpt>
      <trkpt lat="44.32735" lon="5.86891">
        <ele>625</ele>
        <time>2019-06-15T10:38:46Z</time>
      </trkpt>
      <trkpt lat="44.32738" lon="5.8688">
        <ele>625</ele>
        <time>2019-06-15T10:38:47Z</time>
      </trkpt>
      <trkpt lat="44.32741" lon="5.8687">
        <ele>625</ele>
        <time>2019-06-15T10:38:48Z</time>
      </trkpt>
      <trkpt lat="44.32743" lon="5.8686">
        <ele>625</ele>
        <time>2019-06-15T10:38:49Z</time>
      </trkpt>
      <trkpt lat="44.32746" lon="5.8685">
        <ele>625</ele>
        <time>2019-06-15T10:38:50Z</time>
      </trkpt>
      <trkpt lat="44.32749" lon="5.8684">
        <ele>625</ele>
        <time>2019-06-15T10:38:51Z</time>
      </trkpt>
      <trkpt lat="44.32751" lon="5.8683">
        <ele>625</ele>
        <time>2019-06-15T10:38:52Z</time>
      </trkpt>
      <trkpt lat="44.32754" lon="5.8682">
        <ele>625</ele>
        <time>2019-06-15T10:38:53Z</time>
      </trkpt>
      <trkpt lat="44.32756" lon="5.8681">
        <ele>625</ele>
        <time>2019-06-15T10:38:54Z</time>
      </trkpt>
      <trkpt lat="44.32759" lon="5.868">
        <ele>625</ele>
        <time>2019-06-15T10:38:55Z</time>
      </trkpt>
      <trkpt lat="44.32761" lon="5.8679">
        <ele>625</ele>
        <time>2019-06-15T10:38:56Z</time>
      </trkpt>
      <trkpt lat="44.32762" lon="5.8678">
        <ele>624</ele>
        <time>2019-06-15T10:38:57Z</time>
      </trkpt>
      <trkpt lat="44.32763" lon="5.86769">
        <ele>624</ele>
        <time>2019-06-15T10:38:58Z</time>
      </trkpt>
      <trkpt lat="44.32763" lon="5.86759">
        <ele>624</ele>
        <time>2019-06-15T10:38:59Z</time>
      </trkpt>
      <trkpt lat="44.32763" lon="5.86748">
        <ele>624</ele>
        <time>2019-06-15T10:39:00Z</time>
      </trkpt>
      <trkpt lat="44.32763" lon="5.86738">
        <ele>624</ele>
        <time>2019-06-15T10:39:01Z</time>
      </trkpt>
      <trkpt lat="44.32762" lon="5.86728">
        <ele>623</ele>
        <time>2019-06-15T10:39:02Z</time>
      </trkpt>
      <trkpt lat="44.32761" lon="5.86718">
        <ele>623</ele>
        <time>2019-06-15T10:39:03Z</time>
      </trkpt>
      <trkpt lat="44.3276" lon="5.86707">
        <ele>623</ele>
        <time>2019-06-15T10:39:04Z</time>
      </trkpt>
      <trkpt lat="44.32759" lon="5.86697">
        <ele>623</ele>
        <time>2019-06-15T10:39:05Z</time>
      </trkpt>
      <trkpt lat="44.32759" lon="5.86687">
        <ele>623</ele>
        <time>2019-06-15T10:39:06Z</time>
      </trkpt>
      <trkpt lat="44.32758" lon="5.86678">
        <ele>623</ele>
        <time>2019-06-15T10:39:07Z</time>
      </trkpt>
      <trkpt lat="44.32757" lon="5.86668">
        <ele>623</ele>
        <time>2019-06-15T10:39:08Z</time>
      </trkpt>
      <trkpt lat="44.32756" lon="5.86658">
        <ele>623</ele>
        <time>2019-06-15T10:39:09Z</time>
      </trkpt>
      <trkpt lat="44.32754" lon="5.86648">
        <ele>623</ele>
        <time>2019-06-15T10:39:10Z</time>
      </trkpt>
      <trkpt lat="44.32753" lon="5.86639">
        <ele>623</ele>
        <time>2019-06-15T10:39:11Z</time>
      </trkpt>
      <trkpt lat="44.32751" lon="5.86629">
        <ele>623</ele>
        <time>2019-06-15T10:39:12Z</time>
      </trkpt>
      <trkpt lat="44.3275" lon="5.8662">
        <ele>623</ele>
        <time>2019-06-15T10:39:13Z</time>
      </trkpt>
      <trkpt lat="44.3275" lon="5.8661">
        <ele>623</ele>
        <time>2019-06-15T10:39:14Z</time>
      </trkpt>
      <trkpt lat="44.32749" lon="5.86601">
        <ele>623</ele>
        <time>2019-06-15T10:39:15Z</time>
      </trkpt>
      <trkpt lat="44.32748" lon="5.86592">
        <ele>623</ele>
        <time>2019-06-15T10:39:16Z</time>
      </trkpt>
      <trkpt lat="44.32748" lon="5.86582">
        <ele>623</ele>
        <time>2019-06-15T10:39:17Z</time>
      </trkpt>
      <trkpt lat="44.32749" lon="5.86573">
        <ele>623</ele>
        <time>2019-06-15T10:39:18Z</time>
      </trkpt>
      <trkpt lat="44.3275" lon="5.86564">
        <ele>623</ele>
        <time>2019-06-15T10:39:19Z</time>
      </trkpt>
      <trkpt lat="44.32753" lon="5.86555">
        <ele>623</ele>
        <time>2019-06-15T10:39:20Z</time>
      </trkpt>
      <trkpt lat="44.32755" lon="5.86547">
        <ele>623</ele>
        <time>2019-06-15T10:39:21Z</time>
      </trkpt>
      <trkpt lat="44.32757" lon="5.86538">
        <ele>623</ele>
        <time>2019-06-15T10:39:22Z</time>
      </trkpt>
      <trkpt lat="44.3276" lon="5.8653">
        <ele>623</ele>
        <time>2019-06-15T10:39:23Z</time>
      </trkpt>
      <trkpt lat="44.32764" lon="5.86521">
        <ele>623</ele>
        <time>2019-06-15T10:39:24Z</time>
      </trkpt>
      <trkpt lat="44.32768" lon="5.86514">
        <ele>623</ele>
        <time>2019-06-15T10:39:25Z</time>
      </trkpt>
      <trkpt lat="44.32772" lon="5.86507">
        <ele>623</ele>
        <time>2019-06-15T10:39:26Z</time>
      </trkpt>
      <trkpt lat="44.32777" lon="5.865">
        <ele>623</ele>
        <time>2019-06-15T10:39:27Z</time>
      </trkpt>
      <trkpt lat="44.32782" lon="5.86493">
        <ele>623</ele>
        <time>2019-06-15T10:39:28Z</time>
      </trkpt>
      <trkpt lat="44.32786" lon="5.86487">
        <ele>623</ele>
        <time>2019-06-15T10:39:29Z</time>
      </trkpt>
      <trkpt lat="44.32791" lon="5.86482">
        <ele>623</ele>
        <time>2019-06-15T10:39:30Z</time>
      </trkpt>
      <trkpt lat="44.32797" lon="5.86478">
        <ele>623</ele>
        <time>2019-06-15T10:39:31Z</time>
      </trkpt>
      <trkpt lat="44.32802" lon="5.86474">
        <ele>623</ele>
        <time>2019-06-15T10:39:32Z</time>
      </trkpt>
      <trkpt lat="44.32807" lon="5.8647">
        <ele>623</ele>
        <time>2019-06-15T10:39:33Z</time>
      </trkpt>
      <trkpt lat="44.32813" lon="5.86467">
        <ele>623</ele>
        <time>2019-06-15T10:39:34Z</time>
      </trkpt>
      <trkpt lat="44.32819" lon="5.86463">
        <ele>623</ele>
        <time>2019-06-15T10:39:35Z</time>
      </trkpt>
      <trkpt lat="44.32824" lon="5.86458">
        <ele>623</ele>
        <time>2019-06-15T10:39:36Z</time>
      </trkpt>
      <trkpt lat="44.32829" lon="5.86452">
        <ele>623</ele>
        <time>2019-06-15T10:39:37Z</time>
      </trkpt>
      <trkpt lat="44.32833" lon="5.86446">
        <ele>623</ele>
        <time>2019-06-15T10:39:38Z</time>
      </trkpt>
      <trkpt lat="44.32837" lon="5.86439">
        <ele>623</ele>
        <time>2019-06-15T10:39:39Z</time>
      </trkpt>
      <trkpt lat="44.3284" lon="5.86432">
        <ele>623</ele>
        <time>2019-06-15T10:39:40Z</time>
      </trkpt>
      <trkpt lat="44.32842" lon="5.86423">
        <ele>623</ele>
        <time>2019-06-15T10:39:41Z</time>
      </trkpt>
      <trkpt lat="44.32844" lon="5.86415">
        <ele>623</ele>
        <time>2019-06-15T10:39:42Z</time>
      </trkpt>
      <trkpt lat="44.32845" lon="5.86406">
        <ele>623</ele>
        <time>2019-06-15T10:39:43Z</time>
      </trkpt>
      <trkpt lat="44.32845" lon="5.86397">
        <ele>623</ele>
        <time>2019-06-15T10:39:44Z</time>
      </trkpt>
      <trkpt lat="44.32846" lon="5.86388">
        <ele>623</ele>
        <time>2019-06-15T10:39:45Z</time>
      </trkpt>
      <trkpt lat="44.32846" lon="5.8638">
        <ele>623</ele>
        <time>2019-06-15T10:39:46Z</time>
      </trkpt>
      <trkpt lat="44.32846" lon="5.86371">
        <ele>623</ele>
        <time>2019-06-15T10:39:47Z</time>
      </trkpt>
      <trkpt lat="44.32847" lon="5.86362">
        <ele>623</ele>
        <time>2019-06-15T10:39:48Z</time>
      </trkpt>
      <trkpt lat="44.32848" lon="5.86354">
        <ele>623</ele>
        <time>2019-06-15T10:39:49Z</time>
      </trkpt>
      <trkpt lat="44.3285" lon="5.86346">
        <ele>623</ele>
        <time>2019-06-15T10:39:50Z</time>
      </trkpt>
      <trkpt lat="44.32851" lon="5.86338">
        <ele>623</ele>
        <time>2019-06-15T10:39:51Z</time>
      </trkpt>
      <trkpt lat="44.32854" lon="5.86331">
        <ele>623</ele>
        <time>2019-06-15T10:39:52Z</time>
      </trkpt>
      <trkpt lat="44.32856" lon="5.86323">
        <ele>623</ele>
        <time>2019-06-15T10:39:53Z</time>
      </trkpt>
      <trkpt lat="44.32859" lon="5.86316">
        <ele>623</ele>
        <time>2019-06-15T10:39:54Z</time>
      </trkpt>
      <trkpt lat="44.32862" lon="5.86309">
        <ele>623</ele>
        <time>2019-06-15T10:39:55Z</time>
      </trkpt>
      <trkpt lat="44.32866" lon="5.86303">
        <ele>623</ele>
        <time>2019-06-15T10:39:56Z</time>
      </trkpt>
      <trkpt lat="44.32869" lon="5.86296">
        <ele>623</ele>
        <time>2019-06-15T10:39:57Z</time>
      </trkpt>
      <trkpt lat="44.32872" lon="5.8629">
        <ele>623</ele>
        <time>2019-06-15T10:39:58Z</time>
      </trkpt>
      <trkpt lat="44.32875" lon="5.86284">
        <ele>623</ele>
        <time>2019-06-15T10:39:59Z</time>
      </trkpt>
      <trkpt lat="44.32879" lon="5.86277">
        <ele>623</ele>
        <time>2019-06-15T10:40:00Z</time>
      </trkpt>
      <trkpt lat="44.32882" lon="5.86271">
        <ele>623</ele>
        <time>2019-06-15T10:40:01Z</time>
      </trkpt>
      <trkpt lat="44.32886" lon="5.86265">
        <ele>623</ele>
        <time>2019-06-15T10:40:02Z</time>
      </trkpt>
      <trkpt lat="44.3289" lon="5.86259">
        <ele>623</ele>
        <time>2019-06-15T10:40:03Z</time>
      </trkpt>
      <trkpt lat="44.32893" lon="5.86252">
        <ele>623</ele>
        <time>2019-06-15T10:40:04Z</time>
      </trkpt>
      <trkpt lat="44.32897" lon="5.86246">
        <ele>623</ele>
        <time>2019-06-15T10:40:05Z</time>
      </trkpt>
      <trkpt lat="44.329" lon="5.8624">
        <ele>623</ele>
        <time>2019-06-15T10:40:06Z</time>
      </trkpt>
      <trkpt lat="44.32904" lon="5.86234">
        <ele>623</ele>
        <time>2019-06-15T10:40:07Z</time>
      </trkpt>
      <trkpt lat="44.32907" lon="5.86228">
        <ele>623</ele>
        <time>2019-06-15T10:40:08Z</time>
      </trkpt>
      <trkpt lat="44.32911" lon="5.86222">
        <ele>623</ele>
        <time>2019-06-15T10:40:09Z</time>
      </trkpt>
      <trkpt lat="44.32914" lon="5.86215">
        <ele>623</ele>
        <time>2019-06-15T10:40:10Z</time>
      </trkpt>
      <trkpt lat="44.32918" lon="5.86209">
        <ele>623</ele>
        <time>2019-06-15T10:40:11Z</time>
      </trkpt>
      <trkpt lat="44.32922" lon="5.86202">
        <ele>623</ele>
        <time>2019-06-15T10:40:12Z</time>
      </trkpt>
      <trkpt lat="44.32925" lon="5.86196">
        <ele>623</ele>
        <time>2019-06-15T10:40:13Z</time>
      </trkpt>
      <trkpt lat="44.32929" lon="5.86189">
        <ele>623</ele>
        <time>2019-06-15T10:40:14Z</time>
      </trkpt>
      <trkpt lat="44.32933" lon="5.86182">
        <ele>623</ele>
        <time>2019-06-15T10:40:15Z</time>
      </trkpt>
      <trkpt lat="44.32937" lon="5.86175">
        <ele>623</ele>
        <time>2019-06-15T10:40:16Z</time>
      </trkpt>
      <trkpt lat="44.32941" lon="5.86168">
        <ele>623</ele>
        <time>2019-06-15T10:40:17Z</time>
      </trkpt>
      <trkpt lat="44.32945" lon="5.86161">
        <ele>623</ele>
        <time>2019-06-15T10:40:18Z</time>
      </trkpt>
      <trkpt lat="44.32949" lon="5.86154">
        <ele>623</ele>
        <time>2019-06-15T10:40:19Z</time>
      </trkpt>
      <trkpt lat="44.32953" lon="5.86147">
        <ele>623</ele>
        <time>2019-06-15T10:40:20Z</time>
      </trkpt>
      <trkpt lat="44.32957" lon="5.8614">
        <ele>623</ele>
        <time>2019-06-15T10:40:21Z</time>
      </trkpt>
      <trkpt lat="44.32961" lon="5.86133">
        <ele>623</ele>
        <time>2019-06-15T10:40:22Z</time>
      </trkpt>
      <trkpt lat="44.32965" lon="5.86126">
        <ele>623</ele>
        <time>2019-06-15T10:40:23Z</time>
      </trkpt>
      <trkpt lat="44.3297" lon="5.86118">
        <ele>623</ele>
        <time>2019-06-15T10:40:24Z</time>
      </trkpt>
      <trkpt lat="44.32974" lon="5.86111">
        <ele>623</ele>
        <time>2019-06-15T10:40:25Z</time>
      </trkpt>
      <trkpt lat="44.32977" lon="5.86103">
        <ele>622</ele>
        <time>2019-06-15T10:40:26Z</time>
      </trkpt>
      <trkpt lat="44.32981" lon="5.86095">
        <ele>622</ele>
        <time>2019-06-15T10:40:27Z</time>
      </trkpt>
      <trkpt lat="44.32983" lon="5.86086">
        <ele>622</ele>
        <time>2019-06-15T10:40:28Z</time>
      </trkpt>
      <trkpt lat="44.32985" lon="5.86078">
        <ele>622</ele>
        <time>2019-06-15T10:40:29Z</time>
      </trkpt>
      <trkpt lat="44.32986" lon="5.86069">
        <ele>622</ele>
        <time>2019-06-15T10:40:30Z</time>
      </trkpt>
      <trkpt lat="44.32986" lon="5.8606">
        <ele>622</ele>
        <time>2019-06-15T10:40:31Z</time>
      </trkpt>
      <trkpt lat="44.32986" lon="5.86051">
        <ele>622</ele>
        <time>2019-06-15T10:40:32Z</time>
      </trkpt>
      <trkpt lat="44.32984" lon="5.86042">
        <ele>622</ele>
        <time>2019-06-15T10:40:33Z</time>
      </trkpt>
      <trkpt lat="44.32982" lon="5.86033">
        <ele>622</ele>
        <time>2019-06-15T10:40:34Z</time>
      </trkpt>
      <trkpt lat="44.3298" lon="5.86025">
        <ele>622</ele>
        <time>2019-06-15T10:40:35Z</time>
      </trkpt>
      <trkpt lat="44.32976" lon="5.86016">
        <ele>622</ele>
        <time>2019-06-15T10:40:36Z</time>
      </trkpt>
      <trkpt lat="44.32973" lon="5.86008">
        <ele>622</ele>
        <time>2019-06-15T10:40:37Z</time>
      </trkpt>
      <trkpt lat="44.32969" lon="5.86">
        <ele>621</ele>
        <time>2019-06-15T10:40:38Z</time>
      </trkpt>
      <trkpt lat="44.32965" lon="5.85991">
        <ele>621</ele>
        <time>2019-06-15T10:40:39Z</time>
      </trkpt>
      <trkpt lat="44.32962" lon="5.85984">
        <ele>621</ele>
        <time>2019-06-15T10:40:40Z</time>
      </trkpt>
      <trkpt lat="44.32958" lon="5.85975">
        <ele>621</ele>
        <time>2019-06-15T10:40:41Z</time>
      </trkpt>
      <trkpt lat="44.32954" lon="5.85967">
        <ele>621</ele>
        <time>2019-06-15T10:40:42Z</time>
      </trkpt>
      <trkpt lat="44.32951" lon="5.85958">
        <ele>621</ele>
        <time>2019-06-15T10:40:43Z</time>
      </trkpt>
      <trkpt lat="44.32948" lon="5.85949">
        <ele>621</ele>
        <time>2019-06-15T10:40:44Z</time>
      </trkpt>
      <trkpt lat="44.32946" lon="5.8594">
        <ele>621</ele>
        <time>2019-06-15T10:40:45Z</time>
      </trkpt>
      <trkpt lat="44.32944" lon="5.8593">
        <ele>620</ele>
        <time>2019-06-15T10:40:46Z</time>
      </trkpt>
      <trkpt lat="44.32943" lon="5.8592">
        <ele>620</ele>
        <time>2019-06-15T10:40:47Z</time>
      </trkpt>
      <trkpt lat="44.32943" lon="5.8591">
        <ele>620</ele>
        <time>2019-06-15T10:40:48Z</time>
      </trkpt>
      <trkpt lat="44.32943" lon="5.859">
        <ele>620</ele>
        <time>2019-06-15T10:40:49Z</time>
      </trkpt>
      <trkpt lat="44.32942" lon="5.8589">
        <ele>620</ele>
        <time>2019-06-15T10:40:50Z</time>
      </trkpt>
      <trkpt lat="44.32943" lon="5.8588">
        <ele>620</ele>
        <time>2019-06-15T10:40:51Z</time>
      </trkpt>
      <trkpt lat="44.32943" lon="5.8587">
        <ele>619</ele>
        <time>2019-06-15T10:40:52Z</time>
      </trkpt>
      <trkpt lat="44.32942" lon="5.8586">
        <ele>619</ele>
        <time>2019-06-15T10:40:53Z</time>
      </trkpt>
      <trkpt lat="44.32942" lon="5.85851">
        <ele>619</ele>
        <time>2019-06-15T10:40:54Z</time>
      </trkpt>
      <trkpt lat="44.32942" lon="5.85841">
        <ele>619</ele>
        <time>2019-06-15T10:40:55Z</time>
      </trkpt>
      <trkpt lat="44.32943" lon="5.85831">
        <ele>619</ele>
        <time>2019-06-15T10:40:56Z</time>
      </trkpt>
      <trkpt lat="44.32943" lon="5.85821">
        <ele>619</ele>
        <time>2019-06-15T10:40:57Z</time>
      </trkpt>
      <trkpt lat="44.32943" lon="5.85812">
        <ele>619</ele>
        <time>2019-06-15T10:40:58Z</time>
      </trkpt>
      <trkpt lat="44.32943" lon="5.85802">
        <ele>618</ele>
        <time>2019-06-15T10:40:59Z</time>
      </trkpt>
      <trkpt lat="44.32943" lon="5.85792">
        <ele>618</ele>
        <time>2019-06-15T10:41:00Z</time>
      </trkpt>
      <trkpt lat="44.32943" lon="5.85783">
        <ele>618</ele>
        <time>2019-06-15T10:41:01Z</time>
      </trkpt>
      <trkpt lat="44.32943" lon="5.85774">
        <ele>618</ele>
        <time>2019-06-15T10:41:02Z</time>
      </trkpt>
      <trkpt lat="44.32943" lon="5.85764">
        <ele>618</ele>
        <time>2019-06-15T10:41:03Z</time>
      </trkpt>
      <trkpt lat="44.32943" lon="5.85755">
        <ele>618</ele>
        <time>2019-06-15T10:41:04Z</time>
      </trkpt>
      <trkpt lat="44.32943" lon="5.85745">
        <ele>618</ele>
        <time>2019-06-15T10:41:05Z</time>
      </trkpt>
      <trkpt lat="44.32943" lon="5.85736">
        <ele>618</ele>
        <time>2019-06-15T10:41:06Z</time>
      </trkpt>
      <trkpt lat="44.32944" lon="5.85727">
        <ele>618</ele>
        <time>2019-06-15T10:41:07Z</time>
      </trkpt>
      <trkpt lat="44.32944" lon="5.85718">
        <ele>618</ele>
        <time>2019-06-15T10:41:08Z</time>
      </trkpt>
      <trkpt lat="44.32944" lon="5.85709">
        <ele>618</ele>
        <time>2019-06-15T10:41:09Z</time>
      </trkpt>
      <trkpt lat="44.32944" lon="5.857">
        <ele>618</ele>
        <time>2019-06-15T10:41:10Z</time>
      </trkpt>
      <trkpt lat="44.32944" lon="5.85691">
        <ele>618</ele>
        <time>2019-06-15T10:41:11Z</time>
      </trkpt>
      <trkpt lat="44.32945" lon="5.85681">
        <ele>618</ele>
        <time>2019-06-15T10:41:12Z</time>
      </trkpt>
      <trkpt lat="44.32946" lon="5.85672">
        <ele>618</ele>
        <time>2019-06-15T10:41:13Z</time>
      </trkpt>
      <trkpt lat="44.32946" lon="5.85663">
        <ele>618</ele>
        <time>2019-06-15T10:41:14Z</time>
      </trkpt>
      <trkpt lat="44.32947" lon="5.85653">
        <ele>618</ele>
        <time>2019-06-15T10:41:15Z</time>
      </trkpt>
      <trkpt lat="44.32947" lon="5.85643">
        <ele>618</ele>
        <time>2019-06-15T10:41:16Z</time>
      </trkpt>
      <trkpt lat="44.32948" lon="5.85633">
        <ele>617</ele>
        <time>2019-06-15T10:41:17Z</time>
      </trkpt>
      <trkpt lat="44.32949" lon="5.85623">
        <ele>617</ele>
        <time>2019-06-15T10:41:18Z</time>
      </trkpt>
      <trkpt lat="44.32949" lon="5.85613">
        <ele>617</ele>
        <time>2019-06-15T10:41:19Z</time>
      </trkpt>
      <trkpt lat="44.3295" lon="5.85603">
        <ele>617</ele>
        <time>2019-06-15T10:41:20Z</time>
      </trkpt>
      <trkpt lat="44.32951" lon="5.85593">
        <ele>617</ele>
        <time>2019-06-15T10:41:21Z</time>
      </trkpt>
      <trkpt lat="44.32951" lon="5.85582">
        <ele>617</ele>
        <time>2019-06-15T10:41:22Z</time>
      </trkpt>
      <trkpt lat="44.32952" lon="5.85572">
        <ele>617</ele>
        <time>2019-06-15T10:41:23Z</time>
      </trkpt>
      <trkpt lat="44.32952" lon="5.85562">
        <ele>617</ele>
        <time>2019-06-15T10:41:24Z</time>
      </trkpt>
      <trkpt lat="44.32952" lon="5.85551">
        <ele>617</ele>
        <time>2019-06-15T10:41:25Z</time>
      </trkpt>
      <trkpt lat="44.32953" lon="5.85541">
        <ele>617</ele>
        <time>2019-06-15T10:41:26Z</time>
      </trkpt>
      <trkpt lat="44.32953" lon="5.85531">
        <ele>616</ele>
        <time>2019-06-15T10:41:27Z</time>
      </trkpt>
      <trkpt lat="44.32953" lon="5.8552">
        <ele>616</ele>
        <time>2019-06-15T10:41:28Z</time>
      </trkpt>
      <trkpt lat="44.32953" lon="5.85509">
        <ele>616</ele>
        <time>2019-06-15T10:41:29Z</time>
      </trkpt>
      <trkpt lat="44.32953" lon="5.85498">
        <ele>616</ele>
        <time>2019-06-15T10:41:30Z</time>
      </trkpt>
      <trkpt lat="44.32953" lon="5.85488">
        <ele>616</ele>
        <time>2019-06-15T10:41:31Z</time>
      </trkpt>
      <trkpt lat="44.32954" lon="5.85477">
        <ele>616</ele>
        <time>2019-06-15T10:41:32Z</time>
      </trkpt>
      <trkpt lat="44.32954" lon="5.85467">
        <ele>616</ele>
        <time>2019-06-15T10:41:33Z</time>
      </trkpt>
      <trkpt lat="44.32954" lon="5.85456">
        <ele>616</ele>
        <time>2019-06-15T10:41:34Z</time>
      </trkpt>
      <trkpt lat="44.32954" lon="5.85445">
        <ele>616</ele>
        <time>2019-06-15T10:41:35Z</time>
      </trkpt>
      <trkpt lat="44.32954" lon="5.85434">
        <ele>616</ele>
        <time>2019-06-15T10:41:36Z</time>
      </trkpt>
      <trkpt lat="44.32954" lon="5.85424">
        <ele>616</ele>
        <time>2019-06-15T10:41:37Z</time>
      </trkpt>
      <trkpt lat="44.32954" lon="5.85413">
        <ele>616</ele>
        <time>2019-06-15T10:41:38Z</time>
      </trkpt>
      <trkpt lat="44.32954" lon="5.85402">
        <ele>616</ele>
        <time>2019-06-15T10:41:39Z</time>
      </trkpt>
      <trkpt lat="44.32954" lon="5.85392">
        <ele>616</ele>
        <time>2019-06-15T10:41:40Z</time>
      </trkpt>
      <trkpt lat="44.32954" lon="5.85382">
        <ele>616</ele>
        <time>2019-06-15T10:41:41Z</time>
      </trkpt>
      <trkpt lat="44.32954" lon="5.85371">
        <ele>616</ele>
        <time>2019-06-15T10:41:42Z</time>
      </trkpt>
      <trkpt lat="44.32954" lon="5.85361">
        <ele>616</ele>
        <time>2019-06-15T10:41:43Z</time>
      </trkpt>
      <trkpt lat="44.32954" lon="5.85351">
        <ele>616</ele>
        <time>2019-06-15T10:41:44Z</time>
      </trkpt>
      <trkpt lat="44.32954" lon="5.85341">
        <ele>616</ele>
        <time>2019-06-15T10:41:45Z</time>
      </trkpt>
      <trkpt lat="44.32954" lon="5.85331">
        <ele>616</ele>
        <time>2019-06-15T10:41:46Z</time>
      </trkpt>
      <trkpt lat="44.32954" lon="5.85321">
        <ele>616</ele>
        <time>2019-06-15T10:41:47Z</time>
      </trkpt>
      <trkpt lat="44.32954" lon="5.85311">
        <ele>616</ele>
        <time>2019-06-15T10:41:48Z</time>
      </trkpt>
      <trkpt lat="44.32954" lon="5.85302">
        <ele>616</ele>
        <time>2019-06-15T10:41:49Z</time>
      </trkpt>
      <trkpt lat="44.32954" lon="5.85292">
        <ele>616</ele>
        <time>2019-06-15T10:41:50Z</time>
      </trkpt>
      <trkpt lat="44.32955" lon="5.85283">
        <ele>616</ele>
        <time>2019-06-15T10:41:51Z</time>
      </trkpt>
      <trkpt lat="44.32955" lon="5.85273">
        <ele>616</ele>
        <time>2019-06-15T10:41:52Z</time>
      </trkpt>
      <trkpt lat="44.32955" lon="5.85264">
        <ele>616</ele>
        <time>2019-06-15T10:41:53Z</time>
      </trkpt>
      <trkpt lat="44.32955" lon="5.85254">
        <ele>616</ele>
        <time>2019-06-15T10:41:54Z</time>
      </trkpt>
      <trkpt lat="44.32956" lon="5.85245">
        <ele>616</ele>
        <time>2019-06-15T10:41:55Z</time>
      </trkpt>
      <trkpt lat="44.32956" lon="5.85236">
        <ele>616</ele>
        <time>2019-06-15T10:41:56Z</time>
      </trkpt>
      <trkpt lat="44.32956" lon="5.85227">
        <ele>616</ele>
        <time>2019-06-15T10:41:57Z</time>
      </trkpt>
      <trkpt lat="44.32956" lon="5.85218">
        <ele>616</ele>
        <time>2019-06-15T10:41:58Z</time>
      </trkpt>
      <trkpt lat="44.32955" lon="5.85209">
        <ele>616</ele>
        <time>2019-06-15T10:41:59Z</time>
      </trkpt>
      <trkpt lat="44.32955" lon="5.852">
        <ele>616</ele>
        <time>2019-06-15T10:42:00Z</time>
      </trkpt>
      <trkpt lat="44.32955" lon="5.85191">
        <ele>616</ele>
        <time>2019-06-15T10:42:01Z</time>
      </trkpt>
      <trkpt lat="44.32955" lon="5.85183">
        <ele>616</ele>
        <time>2019-06-15T10:42:02Z</time>
      </trkpt>
      <trkpt lat="44.32954" lon="5.85174">
        <ele>616</ele>
        <time>2019-06-15T10:42:03Z</time>
      </trkpt>
      <trkpt lat="44.32954" lon="5.85166">
        <ele>616</ele>
        <time>2019-06-15T10:42:04Z</time>
      </trkpt>
      <trkpt lat="44.32954" lon="5.85157">
        <ele>616</ele>
        <time>2019-06-15T10:42:05Z</time>
      </trkpt>
      <trkpt lat="44.32953" lon="5.85148">
        <ele>616</ele>
        <time>2019-06-15T10:42:06Z</time>
      </trkpt>
      <trkpt lat="44.32952" lon="5.85139">
        <ele>616</ele>
        <time>2019-06-15T10:42:07Z</time>
      </trkpt>
      <trkpt lat="44.32951" lon="5.85129">
        <ele>616</ele>
        <time>2019-06-15T10:42:08Z</time>
      </trkpt>
      <trkpt lat="44.32949" lon="5.8512">
        <ele>615</ele>
        <time>2019-06-15T10:42:09Z</time>
      </trkpt>
      <trkpt lat="44.32946" lon="5.85111">
        <ele>615</ele>
        <time>2019-06-15T10:42:10Z</time>
      </trkpt>
      <trkpt lat="44.32943" lon="5.85103">
        <ele>615</ele>
        <time>2019-06-15T10:42:11Z</time>
      </trkpt>
      <trkpt lat="44.3294" lon="5.85094">
        <ele>615</ele>
        <time>2019-06-15T10:42:12Z</time>
      </trkpt>
      <trkpt lat="44.32936" lon="5.85087">
        <ele>615</ele>
        <time>2019-06-15T10:42:13Z</time>
      </trkpt>
      <trkpt lat="44.32932" lon="5.85079">
        <ele>615</ele>
        <time>2019-06-15T10:42:14Z</time>
      </trkpt>
      <trkpt lat="44.32927" lon="5.85072">
        <ele>614</ele>
        <time>2019-06-15T10:42:15Z</time>
      </trkpt>
      <trkpt lat="44.32923" lon="5.85065">
        <ele>614</ele>
        <time>2019-06-15T10:42:16Z</time>
      </trkpt>
      <trkpt lat="44.32919" lon="5.85058">
        <ele>614</ele>
        <time>2019-06-15T10:42:17Z</time>
      </trkpt>
      <trkpt lat="44.32914" lon="5.85051">
        <ele>614</ele>
        <time>2019-06-15T10:42:18Z</time>
      </trkpt>
      <trkpt lat="44.3291" lon="5.85044">
        <ele>614</ele>
        <time>2019-06-15T10:42:19Z</time>
      </trkpt>
      <trkpt lat="44.32905" lon="5.85038">
        <ele>613</ele>
        <time>2019-06-15T10:42:20Z</time>
      </trkpt>
      <trkpt lat="44.32901" lon="5.85031">
        <ele>613</ele>
        <time>2019-06-15T10:42:21Z</time>
      </trkpt>
      <trkpt lat="44.32896" lon="5.85026">
        <ele>613</ele>
        <time>2019-06-15T10:42:22Z</time>
      </trkpt>
      <trkpt lat="44.3289" lon="5.8502">
        <ele>613</ele>
        <time>2019-06-15T10:42:23Z</time>
      </trkpt>
      <trkpt lat="44.32885" lon="5.85016">
        <ele>613</ele>
        <time>2019-06-15T10:42:24Z</time>
      </trkpt>
      <trkpt lat="44.32879" lon="5.85013">
        <ele>613</ele>
        <time>2019-06-15T10:42:25Z</time>
      </trkpt>
      <trkpt lat="44.32873" lon="5.85011">
        <ele>613</ele>
        <time>2019-06-15T10:42:26Z</time>
      </trkpt>
      <trkpt lat="44.32866" lon="5.8501">
        <ele>613</ele>
        <time>2019-06-15T10:42:27Z</time>
      </trkpt>
      <trkpt lat="44.3286" lon="5.8501">
        <ele>613</ele>
        <time>2019-06-15T10:42:28Z</time>
      </trkpt>
      <trkpt lat="44.32853" lon="5.85011">
        <ele>613</ele>
        <time>2019-06-15T10:42:29Z</time>
      </trkpt>
      <trkpt lat="44.32847" lon="5.85013">
        <ele>613</ele>
        <time>2019-06-15T10:42:30Z</time>
      </trkpt>
      <trkpt lat="44.32841" lon="5.85015">
        <ele>613</ele>
        <time>2019-06-15T10:42:31Z</time>
      </trkpt>
      <trkpt lat="44.32835" lon="5.85018">
        <ele>613</ele>
        <time>2019-06-15T10:42:32Z</time>
      </trkpt>
      <trkpt lat="44.32829" lon="5.8502">
        <ele>613</ele>
        <time>2019-06-15T10:42:33Z</time>
      </trkpt>
      <trkpt lat="44.32822" lon="5.85022">
        <ele>612</ele>
        <time>2019-06-15T10:42:34Z</time>
      </trkpt>
      <trkpt lat="44.32815" lon="5.85024">
        <ele>612</ele>
        <time>2019-06-15T10:42:35Z</time>
      </trkpt>
      <trkpt lat="44.32808" lon="5.85026">
        <ele>612</ele>
        <time>2019-06-15T10:42:36Z</time>
      </trkpt>
      <trkpt lat="44.32802" lon="5.85027">
        <ele>612</ele>
        <time>2019-06-15T10:42:37Z</time>
      </trkpt>
      <trkpt lat="44.32794" lon="5.85027">
        <ele>612</ele>
        <time>2019-06-15T10:42:38Z</time>
      </trkpt>
      <trkpt lat="44.32787" lon="5.85024">
        <ele>612</ele>
        <time>2019-06-15T10:42:39Z</time>
      </trkpt>
      <trkpt lat="44.32779" lon="5.85019">
        <ele>612</ele>
        <time>2019-06-15T10:42:40Z</time>
      </trkpt>
      <trkpt lat="44.32773" lon="5.85012">
        <ele>611</ele>
        <time>2019-06-15T10:42:41Z</time>
      </trkpt>
      <trkpt lat="44.32768" lon="5.85003">
        <ele>611</ele>
        <time>2019-06-15T10:42:42Z</time>
      </trkpt>
      <trkpt lat="44.32764" lon="5.84992">
        <ele>610</ele>
        <time>2019-06-15T10:42:43Z</time>
      </trkpt>
      <trkpt lat="44.32761" lon="5.84981">
        <ele>609</ele>
        <time>2019-06-15T10:42:44Z</time>
      </trkpt>
      <trkpt lat="44.32759" lon="5.84969">
        <ele>609</ele>
        <time>2019-06-15T10:42:45Z</time>
      </trkpt>
      <trkpt lat="44.32758" lon="5.84957">
        <ele>608</ele>
        <time>2019-06-15T10:42:46Z</time>
      </trkpt>
      <trkpt lat="44.32758" lon="5.84945">
        <ele>608</ele>
        <time>2019-06-15T10:42:47Z</time>
      </trkpt>
      <trkpt lat="44.32758" lon="5.84932">
        <ele>608</ele>
        <time>2019-06-15T10:42:48Z</time>
      </trkpt>
      <trkpt lat="44.32758" lon="5.8492">
        <ele>607</ele>
        <time>2019-06-15T10:42:49Z</time>
      </trkpt>
      <trkpt lat="44.32758" lon="5.84907">
        <ele>607</ele>
        <time>2019-06-15T10:42:50Z</time>
      </trkpt>
      <trkpt lat="44.32758" lon="5.84895">
        <ele>606</ele>
        <time>2019-06-15T10:42:51Z</time>
      </trkpt>
      <trkpt lat="44.32758" lon="5.84882">
        <ele>606</ele>
        <time>2019-06-15T10:42:52Z</time>
      </trkpt>
      <trkpt lat="44.32758" lon="5.8487">
        <ele>605</ele>
        <time>2019-06-15T10:42:53Z</time>
      </trkpt>
      <trkpt lat="44.32758" lon="5.84857">
        <ele>605</ele>
        <time>2019-06-15T10:42:54Z</time>
      </trkpt>
      <trkpt lat="44.32758" lon="5.84844">
        <ele>604</ele>
        <time>2019-06-15T10:42:55Z</time>
      </trkpt>
      <trkpt lat="44.32758" lon="5.84831">
        <ele>604</ele>
        <time>2019-06-15T10:42:56Z</time>
      </trkpt>
      <trkpt lat="44.32757" lon="5.84817">
        <ele>603</ele>
        <time>2019-06-15T10:42:57Z</time>
      </trkpt>
      <trkpt lat="44.32756" lon="5.84804">
        <ele>603</ele>
        <time>2019-06-15T10:42:58Z</time>
      </trkpt>
      <trkpt lat="44.32756" lon="5.84792">
        <ele>602</ele>
        <time>2019-06-15T10:42:59Z</time>
      </trkpt>
      <trkpt lat="44.32755" lon="5.84778">
        <ele>601</ele>
        <time>2019-06-15T10:43:00Z</time>
      </trkpt>
      <trkpt lat="44.32755" lon="5.84766">
        <ele>601</ele>
        <time>2019-06-15T10:43:01Z</time>
      </trkpt>
      <trkpt lat="44.32754" lon="5.84754">
        <ele>601</ele>
        <time>2019-06-15T10:43:02Z</time>
      </trkpt>
      <trkpt lat="44.32753" lon="5.84741">
        <ele>601</ele>
        <time>2019-06-15T10:43:03Z</time>
      </trkpt>
      <trkpt lat="44.32753" lon="5.84729">
        <ele>601</ele>
        <time>2019-06-15T10:43:04Z</time>
      </trkpt>
      <trkpt lat="44.32753" lon="5.84717">
        <ele>601</ele>
        <time>2019-06-15T10:43:05Z</time>
      </trkpt>
      <trkpt lat="44.32753" lon="5.84705">
        <ele>601</ele>
        <time>2019-06-15T10:43:06Z</time>
      </trkpt>
      <trkpt lat="44.32753" lon="5.84693">
        <ele>601</ele>
        <time>2019-06-15T10:43:07Z</time>
      </trkpt>
      <trkpt lat="44.32753" lon="5.84681">
        <ele>601</ele>
        <time>2019-06-15T10:43:08Z</time>
      </trkpt>
      <trkpt lat="44.32755" lon="5.84668">
        <ele>601</ele>
        <time>2019-06-15T10:43:09Z</time>
      </trkpt>
      <trkpt lat="44.32756" lon="5.84656">
        <ele>601</ele>
        <time>2019-06-15T10:43:10Z</time>
      </trkpt>
      <trkpt lat="44.32759" lon="5.84644">
        <ele>601</ele>
        <time>2019-06-15T10:43:11Z</time>
      </trkpt>
      <trkpt lat="44.32762" lon="5.84631">
        <ele>601</ele>
        <time>2019-06-15T10:43:12Z</time>
      </trkpt>
      <trkpt lat="44.32766" lon="5.8462">
        <ele>601</ele>
        <time>2019-06-15T10:43:13Z</time>
      </trkpt>
      <trkpt lat="44.32769" lon="5.84608">
        <ele>601</ele>
        <time>2019-06-15T10:43:14Z</time>
      </trkpt>
      <trkpt lat="44.32772" lon="5.84596">
        <ele>601</ele>
        <time>2019-06-15T10:43:15Z</time>
      </trkpt>
      <trkpt lat="44.32775" lon="5.84584">
        <ele>601</ele>
        <time>2019-06-15T10:43:16Z</time>
      </trkpt>
      <trkpt lat="44.32778" lon="5.84573">
        <ele>601</ele>
        <time>2019-06-15T10:43:17Z</time>
      </trkpt>
      <trkpt lat="44.32781" lon="5.84561">
        <ele>601</ele>
        <time>2019-06-15T10:43:18Z</time>
      </trkpt>
      <trkpt lat="44.32784" lon="5.84549">
        <ele>601</ele>
        <time>2019-06-15T10:43:19Z</time>
      </trkpt>
      <trkpt lat="44.32787" lon="5.84537">
        <ele>601</ele>
        <time>2019-06-15T10:43:20Z</time>
      </trkpt>
      <trkpt lat="44.3279" lon="5.84525">
        <ele>601</ele>
        <time>2019-06-15T10:43:21Z</time>
      </trkpt>
      <trkpt lat="44.32793" lon="5.84514">
        <ele>600</ele>
        <time>2019-06-15T10:43:22Z</time>
      </trkpt>
      <trkpt lat="44.32796" lon="5.84502">
        <ele>600</ele>
        <time>2019-06-15T10:43:23Z</time>
      </trkpt>
      <trkpt lat="44.32799" lon="5.84491">
        <ele>600</ele>
        <time>2019-06-15T10:43:24Z</time>
      </trkpt>
      <trkpt lat="44.32802" lon="5.84479">
        <ele>600</ele>
        <time>2019-06-15T10:43:25Z</time>
      </trkpt>
      <trkpt lat="44.32804" lon="5.84467">
        <ele>600</ele>
        <time>2019-06-15T10:43:26Z</time>
      </trkpt>
      <trkpt lat="44.32806" lon="5.84456">
        <ele>599</ele>
        <time>2019-06-15T10:43:27Z</time>
      </trkpt>
      <trkpt lat="44.32806" lon="5.84444">
        <ele>599</ele>
        <time>2019-06-15T10:43:28Z</time>
      </trkpt>
      <trkpt lat="44.32805" lon="5.84432">
        <ele>599</ele>
        <time>2019-06-15T10:43:29Z</time>
      </trkpt>
      <trkpt lat="44.32805" lon="5.84419">
        <ele>599</ele>
        <time>2019-06-15T10:43:30Z</time>
      </trkpt>
      <trkpt lat="44.32803" lon="5.84405">
        <ele>598</ele>
        <time>2019-06-15T10:43:31Z</time>
      </trkpt>
      <trkpt lat="44.32801" lon="5.84392">
        <ele>598</ele>
        <time>2019-06-15T10:43:32Z</time>
      </trkpt>
      <trkpt lat="44.32799" lon="5.84378">
        <ele>597</ele>
        <time>2019-06-15T10:43:33Z</time>
      </trkpt>
      <trkpt lat="44.32797" lon="5.84363">
        <ele>596</ele>
        <time>2019-06-15T10:43:34Z</time>
      </trkpt>
      <trkpt lat="44.32795" lon="5.84349">
        <ele>596</ele>
        <time>2019-06-15T10:43:35Z</time>
      </trkpt>
      <trkpt lat="44.32793" lon="5.84334">
        <ele>595</ele>
        <time>2019-06-15T10:43:36Z</time>
      </trkpt>
      <trkpt lat="44.32792" lon="5.84319">
        <ele>595</ele>
        <time>2019-06-15T10:43:37Z</time>
      </trkpt>
      <trkpt lat="44.3279" lon="5.84305">
        <ele>594</ele>
        <time>2019-06-15T10:43:38Z</time>
      </trkpt>
      <trkpt lat="44.32788" lon="5.8429">
        <ele>594</ele>
        <time>2019-06-15T10:43:39Z</time>
      </trkpt>
      <trkpt lat="44.32787" lon="5.84275">
        <ele>593</ele>
        <time>2019-06-15T10:43:40Z</time>
      </trkpt>
      <trkpt lat="44.32785" lon="5.84261">
        <ele>593</ele>
        <time>2019-06-15T10:43:41Z</time>
      </trkpt>
      <trkpt lat="44.32783" lon="5.84246">
        <ele>592</ele>
        <time>2019-06-15T10:43:42Z</time>
      </trkpt>
      <trkpt lat="44.32782" lon="5.84231">
        <ele>592</ele>
        <time>2019-06-15T10:43:43Z</time>
      </trkpt>
      <trkpt lat="44.3278" lon="5.84217">
        <ele>592</ele>
        <time>2019-06-15T10:43:44Z</time>
      </trkpt>
      <trkpt lat="44.32778" lon="5.84202">
        <ele>591</ele>
        <time>2019-06-15T10:43:45Z</time>
      </trkpt>
      <trkpt lat="44.32776" lon="5.84187">
        <ele>591</ele>
        <time>2019-06-15T10:43:46Z</time>
      </trkpt>
      <trkpt lat="44.32774" lon="5.84171">
        <ele>590</ele>
        <time>2019-06-15T10:43:47Z</time>
      </trkpt>
      <trkpt lat="44.32772" lon="5.84157">
        <ele>590</ele>
        <time>2019-06-15T10:43:48Z</time>
      </trkpt>
      <trkpt lat="44.3277" lon="5.84142">
        <ele>590</ele>
        <time>2019-06-15T10:43:49Z</time>
      </trkpt>
      <trkpt lat="44.32768" lon="5.84128">
        <ele>589</ele>
        <time>2019-06-15T10:43:50Z</time>
      </trkpt>
      <trkpt lat="44.32766" lon="5.84114">
        <ele>589</ele>
        <time>2019-06-15T10:43:51Z</time>
      </trkpt>
      <trkpt lat="44.32765" lon="5.841">
        <ele>589</ele>
        <time>2019-06-15T10:43:52Z</time>
      </trkpt>
      <trkpt lat="44.32763" lon="5.84087">
        <ele>589</ele>
        <time>2019-06-15T10:43:53Z</time>
      </trkpt>
      <trkpt lat="44.3276" lon="5.84074">
        <ele>589</ele>
        <time>2019-06-15T10:43:54Z</time>
      </trkpt>
      <trkpt lat="44.32757" lon="5.84062">
        <ele>588</ele>
        <time>2019-06-15T10:43:55Z</time>
      </trkpt>
      <trkpt lat="44.32753" lon="5.84051">
        <ele>588</ele>
        <time>2019-06-15T10:43:56Z</time>
      </trkpt>
      <trkpt lat="44.32747" lon="5.84041">
        <ele>588</ele>
        <time>2019-06-15T10:43:57Z</time>
      </trkpt>
      <trkpt lat="44.32741" lon="5.84032">
        <ele>588</ele>
        <time>2019-06-15T10:43:58Z</time>
      </trkpt>
      <trkpt lat="44.32735" lon="5.84023">
        <ele>587</ele>
        <time>2019-06-15T10:43:59Z</time>
      </trkpt>
      <trkpt lat="44.32729" lon="5.84014">
        <ele>587</ele>
        <time>2019-06-15T10:44:00Z</time>
      </trkpt>
      <trkpt lat="44.32723" lon="5.84004">
        <ele>587</ele>
        <time>2019-06-15T10:44:01Z</time>
      </trkpt>
      <trkpt lat="44.32718" lon="5.83995">
        <ele>587</ele>
        <time>2019-06-15T10:44:02Z</time>
      </trkpt>
      <trkpt lat="44.32713" lon="5.83985">
        <ele>587</ele>
        <time>2019-06-15T10:44:03Z</time>
      </trkpt>
      <trkpt lat="44.32708" lon="5.83975">
        <ele>587</ele>
        <time>2019-06-15T10:44:04Z</time>
      </trkpt>
      <trkpt lat="44.32705" lon="5.83964">
        <ele>587</ele>
        <time>2019-06-15T10:44:05Z</time>
      </trkpt>
      <trkpt lat="44.32702" lon="5.83953">
        <ele>587</ele>
        <time>2019-06-15T10:44:06Z</time>
      </trkpt>
      <trkpt lat="44.327" lon="5.83942">
        <ele>587</ele>
        <time>2019-06-15T10:44:07Z</time>
      </trkpt>
      <trkpt lat="44.32699" lon="5.8393">
        <ele>587</ele>
        <time>2019-06-15T10:44:08Z</time>
      </trkpt>
      <trkpt lat="44.32698" lon="5.83919">
        <ele>587</ele>
        <time>2019-06-15T10:44:09Z</time>
      </trkpt>
      <trkpt lat="44.32697" lon="5.83908">
        <ele>587</ele>
        <time>2019-06-15T10:44:10Z</time>
      </trkpt>
      <trkpt lat="44.32696" lon="5.83896">
        <ele>587</ele>
        <time>2019-06-15T10:44:11Z</time>
      </trkpt>
      <trkpt lat="44.32695" lon="5.83884">
        <ele>587</ele>
        <time>2019-06-15T10:44:12Z</time>
      </trkpt>
      <trkpt lat="44.32694" lon="5.83873">
        <ele>587</ele>
        <time>2019-06-15T10:44:13Z</time>
      </trkpt>
      <trkpt lat="44.32693" lon="5.83862">
        <ele>587</ele>
        <time>2019-06-15T10:44:14Z</time>
      </trkpt>
      <trkpt lat="44.32691" lon="5.8385">
        <ele>587</ele>
        <time>2019-06-15T10:44:15Z</time>
      </trkpt>
      <trkpt lat="44.32689" lon="5.83839">
        <ele>587</ele>
        <time>2019-06-15T10:44:16Z</time>
      </trkpt>
      <trkpt lat="44.32686" lon="5.83828">
        <ele>587</ele>
        <time>2019-06-15T10:44:17Z</time>
      </trkpt>
      <trkpt lat="44.32684" lon="5.83817">
        <ele>587</ele>
        <time>2019-06-15T10:44:18Z</time>
      </trkpt>
      <trkpt lat="44.32681" lon="5.83806">
        <ele>587</ele>
        <time>2019-06-15T10:44:19Z</time>
      </trkpt>
      <trkpt lat="44.32678" lon="5.83795">
        <ele>587</ele>
        <time>2019-06-15T10:44:20Z</time>
      </trkpt>
      <trkpt lat="44.32675" lon="5.83784">
        <ele>587</ele>
        <time>2019-06-15T10:44:21Z</time>
      </trkpt>
      <trkpt lat="44.32673" lon="5.83773">
        <ele>587</ele>
        <time>2019-06-15T10:44:22Z</time>
      </trkpt>
      <trkpt lat="44.3267" lon="5.83762">
        <ele>587</ele>
        <time>2019-06-15T10:44:23Z</time>
      </trkpt>
      <trkpt lat="44.32667" lon="5.83751">
        <ele>587</ele>
        <time>2019-06-15T10:44:24Z</time>
      </trkpt>
      <trkpt lat="44.32664" lon="5.83741">
        <ele>587</ele>
        <time>2019-06-15T10:44:25Z</time>
      </trkpt>
      <trkpt lat="44.32661" lon="5.8373">
        <ele>587</ele>
        <time>2019-06-15T10:44:26Z</time>
      </trkpt>
      <trkpt lat="44.32658" lon="5.83719">
        <ele>587</ele>
        <time>2019-06-15T10:44:27Z</time>
      </trkpt>
      <trkpt lat="44.32655" lon="5.83709">
        <ele>587</ele>
        <time>2019-06-15T10:44:28Z</time>
      </trkpt>
      <trkpt lat="44.32653" lon="5.83698">
        <ele>587</ele>
        <time>2019-06-15T10:44:29Z</time>
      </trkpt>
      <trkpt lat="44.3265" lon="5.83688">
        <ele>587</ele>
        <time>2019-06-15T10:44:30Z</time>
      </trkpt>
      <trkpt lat="44.32648" lon="5.83677">
        <ele>587</ele>
        <time>2019-06-15T10:44:31Z</time>
      </trkpt>
      <trkpt lat="44.32645" lon="5.83667">
        <ele>587</ele>
        <time>2019-06-15T10:44:32Z</time>
      </trkpt>
      <trkpt lat="44.32642" lon="5.83656">
        <ele>587</ele>
        <time>2019-06-15T10:44:33Z</time>
      </trkpt>
      <trkpt lat="44.32639" lon="5.83646">
        <ele>587</ele>
        <time>2019-06-15T10:44:34Z</time>
      </trkpt>
      <trkpt lat="44.32637" lon="5.83636">
        <ele>587</ele>
        <time>2019-06-15T10:44:35Z</time>
      </trkpt>
      <trkpt lat="44.32634" lon="5.83625">
        <ele>587</ele>
        <time>2019-06-15T10:44:36Z</time>
      </trkpt>
      <trkpt lat="44.32632" lon="5.83615">
        <ele>587</ele>
        <time>2019-06-15T10:44:37Z</time>
      </trkpt>
      <trkpt lat="44.3263" lon="5.83605">
        <ele>587</ele>
        <time>2019-06-15T10:44:38Z</time>
      </trkpt>
      <trkpt lat="44.32628" lon="5.83594">
        <ele>587</ele>
        <time>2019-06-15T10:44:39Z</time>
      </trkpt>
      <trkpt lat="44.32627" lon="5.83583">
        <ele>587</ele>
        <time>2019-06-15T10:44:40Z</time>
      </trkpt>
      <trkpt lat="44.32626" lon="5.83573">
        <ele>587</ele>
        <time>2019-06-15T10:44:41Z</time>
      </trkpt>
      <trkpt lat="44.32626" lon="5.83562">
        <ele>587</ele>
        <time>2019-06-15T10:44:42Z</time>
      </trkpt>
      <trkpt lat="44.32626" lon="5.83552">
        <ele>587</ele>
        <time>2019-06-15T10:44:43Z</time>
      </trkpt>
      <trkpt lat="44.32627" lon="5.83541">
        <ele>587</ele>
        <time>2019-06-15T10:44:44Z</time>
      </trkpt>
      <trkpt lat="44.32628" lon="5.83531">
        <ele>587</ele>
        <time>2019-06-15T10:44:45Z</time>
      </trkpt>
      <trkpt lat="44.32629" lon="5.83521">
        <ele>587</ele>
        <time>2019-06-15T10:44:46Z</time>
      </trkpt>
      <trkpt lat="44.3263" lon="5.83511">
        <ele>587</ele>
        <time>2019-06-15T10:44:47Z</time>
      </trkpt>
      <trkpt lat="44.32631" lon="5.83501">
        <ele>587</ele>
        <time>2019-06-15T10:44:48Z</time>
      </trkpt>
      <trkpt lat="44.32633" lon="5.83492">
        <ele>587</ele>
        <time>2019-06-15T10:44:49Z</time>
      </trkpt>
      <trkpt lat="44.32634" lon="5.83482">
        <ele>587</ele>
        <time>2019-06-15T10:44:50Z</time>
      </trkpt>
      <trkpt lat="44.32634" lon="5.83472">
        <ele>587</ele>
        <time>2019-06-15T10:44:51Z</time>
      </trkpt>
      <trkpt lat="44.32636" lon="5.83463">
        <ele>587</ele>
        <time>2019-06-15T10:44:52Z</time>
      </trkpt>
      <trkpt lat="44.32637" lon="5.83453">
        <ele>587</ele>
        <time>2019-06-15T10:44:53Z</time>
      </trkpt>
      <trkpt lat="44.32639" lon="5.83444">
        <ele>587</ele>
        <time>2019-06-15T10:44:54Z</time>
      </trkpt>
      <trkpt lat="44.3264" lon="5.83435">
        <ele>587</ele>
        <time>2019-06-15T10:44:55Z</time>
      </trkpt>
      <trkpt lat="44.32641" lon="5.83427">
        <ele>587</ele>
        <time>2019-06-15T10:44:56Z</time>
      </trkpt>
      <trkpt lat="44.32642" lon="5.83418">
        <ele>587</ele>
        <time>2019-06-15T10:44:57Z</time>
      </trkpt>
      <trkpt lat="44.32644" lon="5.83409">
        <ele>587</ele>
        <time>2019-06-15T10:44:58Z</time>
      </trkpt>
      <trkpt lat="44.32645" lon="5.83401">
        <ele>587</ele>
        <time>2019-06-15T10:44:59Z</time>
      </trkpt>
      <trkpt lat="44.32646" lon="5.83392">
        <ele>587</ele>
        <time>2019-06-15T10:45:00Z</time>
      </trkpt>
      <trkpt lat="44.32648" lon="5.83384">
        <ele>587</ele>
        <time>2019-06-15T10:45:01Z</time>
      </trkpt>
      <trkpt lat="44.32649" lon="5.83375">
        <ele>587</ele>
        <time>2019-06-15T10:45:02Z</time>
      </trkpt>
      <trkpt lat="44.32651" lon="5.83367">
        <ele>587</ele>
        <time>2019-06-15T10:45:03Z</time>
      </trkpt>
      <trkpt lat="44.32653" lon="5.8336">
        <ele>587</ele>
        <time>2019-06-15T10:45:04Z</time>
      </trkpt>
      <trkpt lat="44.32654" lon="5.83352">
        <ele>587</ele>
        <time>2019-06-15T10:45:05Z</time>
      </trkpt>
      <trkpt lat="44.32655" lon="5.83343">
        <ele>587</ele>
        <time>2019-06-15T10:45:06Z</time>
      </trkpt>
      <trkpt lat="44.32656" lon="5.83336">
        <ele>587</ele>
        <time>2019-06-15T10:45:07Z</time>
      </trkpt>
      <trkpt lat="44.32657" lon="5.83328">
        <ele>587</ele>
        <time>2019-06-15T10:45:08Z</time>
      </trkpt>
      <trkpt lat="44.32658" lon="5.83321">
        <ele>587</ele>
        <time>2019-06-15T10:45:09Z</time>
      </trkpt>
      <trkpt lat="44.32659" lon="5.83314">
        <ele>587</ele>
        <time>2019-06-15T10:45:10Z</time>
      </trkpt>
      <trkpt lat="44.3266" lon="5.83306">
        <ele>587</ele>
        <time>2019-06-15T10:45:11Z</time>
      </trkpt>
      <trkpt lat="44.3266" lon="5.833">
        <ele>587</ele>
        <time>2019-06-15T10:45:12Z</time>
      </trkpt>
      <trkpt lat="44.32661" lon="5.83294">
        <ele>587</ele>
        <time>2019-06-15T10:45:13Z</time>
      </trkpt>
      <trkpt lat="44.32662" lon="5.83289">
        <ele>587</ele>
        <time>2019-06-15T10:45:14Z</time>
      </trkpt>
      <trkpt lat="44.32662" lon="5.83285">
        <ele>587</ele>
        <time>2019-06-15T10:45:15Z</time>
      </trkpt>
      <trkpt lat="44.32662" lon="5.83281">
        <ele>587</ele>
        <time>2019-06-15T10:45:16Z</time>
      </trkpt>
      <trkpt lat="44.32662" lon="5.83277">
        <ele>587</ele>
        <time>2019-06-15T10:45:17Z</time>
      </trkpt>
      <trkpt lat="44.32661" lon="5.83274">
        <ele>587</ele>
        <time>2019-06-15T10:45:18Z</time>
      </trkpt>
      <trkpt lat="44.32658" lon="5.83271">
        <ele>587</ele>
        <time>2019-06-15T10:45:19Z</time>
      </trkpt>
      <trkpt lat="44.32656" lon="5.83269">
        <ele>587</ele>
        <time>2019-06-15T10:45:20Z</time>
      </trkpt>
      <trkpt lat="44.32652" lon="5.83266">
        <ele>587</ele>
        <time>2019-06-15T10:45:21Z</time>
      </trkpt>
      <trkpt lat="44.32648" lon="5.83263">
        <ele>587</ele>
        <time>2019-06-15T10:45:22Z</time>
      </trkpt>
      <trkpt lat="44.32645" lon="5.8326">
        <ele>587</ele>
        <time>2019-06-15T10:45:23Z</time>
      </trkpt>
      <trkpt lat="44.3264" lon="5.83256">
        <ele>587</ele>
        <time>2019-06-15T10:45:24Z</time>
      </trkpt>
      <trkpt lat="44.32637" lon="5.83252">
        <ele>587</ele>
        <time>2019-06-15T10:45:25Z</time>
      </trkpt>
      <trkpt lat="44.32632" lon="5.83249">
        <ele>587</ele>
        <time>2019-06-15T10:45:26Z</time>
      </trkpt>
      <trkpt lat="44.32628" lon="5.83246">
        <ele>587</ele>
        <time>2019-06-15T10:45:27Z</time>
      </trkpt>
      <trkpt lat="44.32623" lon="5.83242">
        <ele>586</ele>
        <time>2019-06-15T10:45:28Z</time>
      </trkpt>
      <trkpt lat="44.32618" lon="5.83239">
        <ele>586</ele>
        <time>2019-06-15T10:45:29Z</time>
      </trkpt>
      <trkpt lat="44.32613" lon="5.83237">
        <ele>586</ele>
        <time>2019-06-15T10:45:30Z</time>
      </trkpt>
      <trkpt lat="44.32608" lon="5.83233">
        <ele>586</ele>
        <time>2019-06-15T10:45:31Z</time>
      </trkpt>
      <trkpt lat="44.32603" lon="5.8323">
        <ele>586</ele>
        <time>2019-06-15T10:45:32Z</time>
      </trkpt>
      <trkpt lat="44.32598" lon="5.83227">
        <ele>586</ele>
        <time>2019-06-15T10:45:33Z</time>
      </trkpt>
      <trkpt lat="44.32592" lon="5.83225">
        <ele>586</ele>
        <time>2019-06-15T10:45:34Z</time>
      </trkpt>
      <trkpt lat="44.32587" lon="5.83222">
        <ele>586</ele>
        <time>2019-06-15T10:45:35Z</time>
      </trkpt>
      <trkpt lat="44.32581" lon="5.83219">
        <ele>586</ele>
        <time>2019-06-15T10:45:36Z</time>
      </trkpt>
      <trkpt lat="44.32576" lon="5.83216">
        <ele>586</ele>
        <time>2019-06-15T10:45:37Z</time>
      </trkpt>
      <trkpt lat="44.3257" lon="5.83214">
        <ele>586</ele>
        <time>2019-06-15T10:45:38Z</time>
      </trkpt>
      <trkpt lat="44.32565" lon="5.83211">
        <ele>586</ele>
        <time>2019-06-15T10:45:39Z</time>
      </trkpt>
      <trkpt lat="44.32559" lon="5.83209">
        <ele>586</ele>
        <time>2019-06-15T10:45:40Z</time>
      </trkpt>
      <trkpt lat="44.32553" lon="5.83206">
        <ele>586</ele>
        <time>2019-06-15T10:45:41Z</time>
      </trkpt>
      <trkpt lat="44.32547" lon="5.83204">
        <ele>586</ele>
        <time>2019-06-15T10:45:42Z</time>
      </trkpt>
      <trkpt lat="44.32542" lon="5.83201">
        <ele>586</ele>
        <time>2019-06-15T10:45:43Z</time>
      </trkpt>
      <trkpt lat="44.32536" lon="5.83199">
        <ele>586</ele>
        <time>2019-06-15T10:45:44Z</time>
      </trkpt>
      <trkpt lat="44.3253" lon="5.83196">
        <ele>586</ele>
        <time>2019-06-15T10:45:45Z</time>
      </trkpt>
      <trkpt lat="44.32524" lon="5.83193">
        <ele>586</ele>
        <time>2019-06-15T10:45:46Z</time>
      </trkpt>
      <trkpt lat="44.32518" lon="5.83191">
        <ele>586</ele>
        <time>2019-06-15T10:45:47Z</time>
      </trkpt>
      <trkpt lat="44.32513" lon="5.83188">
        <ele>586</ele>
        <time>2019-06-15T10:45:48Z</time>
      </trkpt>
      <trkpt lat="44.32507" lon="5.83185">
        <ele>586</ele>
        <time>2019-06-15T10:45:49Z</time>
      </trkpt>
      <trkpt lat="44.32501" lon="5.83182">
        <ele>586</ele>
        <time>2019-06-15T10:45:50Z</time>
      </trkpt>
      <trkpt lat="44.32495" lon="5.83179">
        <ele>586</ele>
        <time>2019-06-15T10:45:51Z</time>
      </trkpt>
      <trkpt lat="44.32489" lon="5.83176">
        <ele>586</ele>
        <time>2019-06-15T10:45:52Z</time>
      </trkpt>
      <trkpt lat="44.32484" lon="5.83173">
        <ele>586</ele>
        <time>2019-06-15T10:45:53Z</time>
      </trkpt>
      <trkpt lat="44.32478" lon="5.83169">
        <ele>586</ele>
        <time>2019-06-15T10:45:54Z</time>
      </trkpt>
      <trkpt lat="44.32472" lon="5.83165">
        <ele>586</ele>
        <time>2019-06-15T10:45:55Z</time>
      </trkpt>
      <trkpt lat="44.32467" lon="5.83161">
        <ele>586</ele>
        <time>2019-06-15T10:45:56Z</time>
      </trkpt>
      <trkpt lat="44.32462" lon="5.83157">
        <ele>586</ele>
        <time>2019-06-15T10:45:57Z</time>
      </trkpt>
      <trkpt lat="44.32457" lon="5.83152">
        <ele>586</ele>
        <time>2019-06-15T10:45:58Z</time>
      </trkpt>
      <trkpt lat="44.32452" lon="5.83148">
        <ele>586</ele>
        <time>2019-06-15T10:45:59Z</time>
      </trkpt>
      <trkpt lat="44.32447" lon="5.83144">
        <ele>586</ele>
        <time>2019-06-15T10:46:00Z</time>
      </trkpt>
      <trkpt lat="44.32442" lon="5.83139">
        <ele>586</ele>
        <time>2019-06-15T10:46:01Z</time>
      </trkpt>
      <trkpt lat="44.32437" lon="5.83135">
        <ele>586</ele>
        <time>2019-06-15T10:46:02Z</time>
      </trkpt>
      <trkpt lat="44.32432" lon="5.8313">
        <ele>586</ele>
        <time>2019-06-15T10:46:03Z</time>
      </trkpt>
      <trkpt lat="44.32427" lon="5.83125">
        <ele>586</ele>
        <time>2019-06-15T10:46:04Z</time>
      </trkpt>
      <trkpt lat="44.32421" lon="5.83119">
        <ele>586</ele>
        <time>2019-06-15T10:46:05Z</time>
      </trkpt>
      <trkpt lat="44.32416" lon="5.83114">
        <ele>586</ele>
        <time>2019-06-15T10:46:06Z</time>
      </trkpt>
      <trkpt lat="44.32411" lon="5.83108">
        <ele>586</ele>
        <time>2019-06-15T10:46:07Z</time>
      </trkpt>
      <trkpt lat="44.32406" lon="5.83101">
        <ele>586</ele>
        <time>2019-06-15T10:46:08Z</time>
      </trkpt>
      <trkpt lat="44.32402" lon="5.83094">
        <ele>586</ele>
        <time>2019-06-15T10:46:09Z</time>
      </trkpt>
      <trkpt lat="44.32397" lon="5.83087">
        <ele>586</ele>
        <time>2019-06-15T10:46:10Z</time>
      </trkpt>
      <trkpt lat="44.32393" lon="5.83079">
        <ele>586</ele>
        <time>2019-06-15T10:46:11Z</time>
      </trkpt>
      <trkpt lat="44.32389" lon="5.83071">
        <ele>586</ele>
        <time>2019-06-15T10:46:12Z</time>
      </trkpt>
      <trkpt lat="44.32386" lon="5.83063">
        <ele>586</ele>
        <time>2019-06-15T10:46:13Z</time>
      </trkpt>
      <trkpt lat="44.32383" lon="5.83055">
        <ele>586</ele>
        <time>2019-06-15T10:46:14Z</time>
      </trkpt>
      <trkpt lat="44.32381" lon="5.83046">
        <ele>586</ele>
        <time>2019-06-15T10:46:15Z</time>
      </trkpt>
      <trkpt lat="44.32378" lon="5.83038">
        <ele>586</ele>
        <time>2019-06-15T10:46:16Z</time>
      </trkpt>
      <trkpt lat="44.32376" lon="5.8303">
        <ele>586</ele>
        <time>2019-06-15T10:46:17Z</time>
      </trkpt>
      <trkpt lat="44.32374" lon="5.83022">
        <ele>586</ele>
        <time>2019-06-15T10:46:18Z</time>
      </trkpt>
      <trkpt lat="44.32372" lon="5.83014">
        <ele>586</ele>
        <time>2019-06-15T10:46:19Z</time>
      </trkpt>
      <trkpt lat="44.32369" lon="5.83007">
        <ele>586</ele>
        <time>2019-06-15T10:46:20Z</time>
      </trkpt>
      <trkpt lat="44.32367" lon="5.83">
        <ele>586</ele>
        <time>2019-06-15T10:46:21Z</time>
      </trkpt>
      <trkpt lat="44.32363" lon="5.82993">
        <ele>586</ele>
        <time>2019-06-15T10:46:22Z</time>
      </trkpt>
      <trkpt lat="44.32359" lon="5.82987">
        <ele>586</ele>
        <time>2019-06-15T10:46:23Z</time>
      </trkpt>
      <trkpt lat="44.32355" lon="5.82981">
        <ele>586</ele>
        <time>2019-06-15T10:46:24Z</time>
      </trkpt>
      <trkpt lat="44.3235" lon="5.82975">
        <ele>586</ele>
        <time>2019-06-15T10:46:25Z</time>
      </trkpt>
      <trkpt lat="44.32344" lon="5.8297">
        <ele>586</ele>
        <time>2019-06-15T10:46:26Z</time>
      </trkpt>
      <trkpt lat="44.32339" lon="5.82965">
        <ele>586</ele>
        <time>2019-06-15T10:46:27Z</time>
      </trkpt>
      <trkpt lat="44.32333" lon="5.82961">
        <ele>586</ele>
        <time>2019-06-15T10:46:28Z</time>
      </trkpt>
      <trkpt lat="44.32326" lon="5.82957">
        <ele>586</ele>
        <time>2019-06-15T10:46:29Z</time>
      </trkpt>
      <trkpt lat="44.3232" lon="5.82954">
        <ele>586</ele>
        <time>2019-06-15T10:46:30Z</time>
      </trkpt>
      <trkpt lat="44.32313" lon="5.8295">
        <ele>586</ele>
        <time>2019-06-15T10:46:31Z</time>
      </trkpt>
      <trkpt lat="44.32307" lon="5.82947">
        <ele>586</ele>
        <time>2019-06-15T10:46:32Z</time>
      </trkpt>
      <trkpt lat="44.323" lon="5.82943">
        <ele>586</ele>
        <time>2019-06-15T10:46:33Z</time>
      </trkpt>
      <trkpt lat="44.32293" lon="5.8294">
        <ele>586</ele>
        <time>2019-06-15T10:46:34Z</time>
      </trkpt>
      <trkpt lat="44.32286" lon="5.82936">
        <ele>586</ele>
        <time>2019-06-15T10:46:35Z</time>
      </trkpt>
      <trkpt lat="44.32279" lon="5.82933">
        <ele>585</ele>
        <time>2019-06-15T10:46:36Z</time>
      </trkpt>
      <trkpt lat="44.32272" lon="5.82929">
        <ele>585</ele>
        <time>2019-06-15T10:46:37Z</time>
      </trkpt>
      <trkpt lat="44.32264" lon="5.82925">
        <ele>585</ele>
        <time>2019-06-15T10:46:38Z</time>
      </trkpt>
      <trkpt lat="44.32257" lon="5.82921">
        <ele>584</ele>
        <time>2019-06-15T10:46:39Z</time>
      </trkpt>
      <trkpt lat="44.3225" lon="5.82918">
        <ele>584</ele>
        <time>2019-06-15T10:46:40Z</time>
      </trkpt>
      <trkpt lat="44.32242" lon="5.82914">
        <ele>583</ele>
        <time>2019-06-15T10:46:41Z</time>
      </trkpt>
      <trkpt lat="44.32235" lon="5.82911">
        <ele>582</ele>
        <time>2019-06-15T10:46:42Z</time>
      </trkpt>
      <trkpt lat="44.32227" lon="5.82907">
        <ele>582</ele>
        <time>2019-06-15T10:46:43Z</time>
      </trkpt>
      <trkpt lat="44.3222" lon="5.82904">
        <ele>582</ele>
        <time>2019-06-15T10:46:44Z</time>
      </trkpt>
      <trkpt lat="44.32213" lon="5.82901">
        <ele>581</ele>
        <time>2019-06-15T10:46:45Z</time>
      </trkpt>
      <trkpt lat="44.32206" lon="5.82897">
        <ele>581</ele>
        <time>2019-06-15T10:46:46Z</time>
      </trkpt>
      <trkpt lat="44.32198" lon="5.82893">
        <ele>581</ele>
        <time>2019-06-15T10:46:47Z</time>
      </trkpt>
      <trkpt lat="44.32191" lon="5.8289">
        <ele>581</ele>
        <time>2019-06-15T10:46:48Z</time>
      </trkpt>
      <trkpt lat="44.32184" lon="5.82886">
        <ele>581</ele>
        <time>2019-06-15T10:46:49Z</time>
      </trkpt>
      <trkpt lat="44.32176" lon="5.82882">
        <ele>581</ele>
        <time>2019-06-15T10:46:50Z</time>
      </trkpt>
      <trkpt lat="44.32169" lon="5.82878">
        <ele>581</ele>
        <time>2019-06-15T10:46:51Z</time>
      </trkpt>
      <trkpt lat="44.32161" lon="5.82875">
        <ele>581</ele>
        <time>2019-06-15T10:46:52Z</time>
      </trkpt>
      <trkpt lat="44.32153" lon="5.82871">
        <ele>581</ele>
        <time>2019-06-15T10:46:53Z</time>
      </trkpt>
      <trkpt lat="44.32145" lon="5.82868">
        <ele>581</ele>
        <time>2019-06-15T10:46:54Z</time>
      </trkpt>
      <trkpt lat="44.32138" lon="5.82865">
        <ele>581</ele>
        <time>2019-06-15T10:46:55Z</time>
      </trkpt>
      <trkpt lat="44.3213" lon="5.82863">
        <ele>581</ele>
        <time>2019-06-15T10:46:56Z</time>
      </trkpt>
      <trkpt lat="44.32122" lon="5.82861">
        <ele>581</ele>
        <time>2019-06-15T10:46:57Z</time>
      </trkpt>
      <trkpt lat="44.32115" lon="5.82859">
        <ele>580</ele>
        <time>2019-06-15T10:46:58Z</time>
      </trkpt>
      <trkpt lat="44.32107" lon="5.82856">
        <ele>579</ele>
        <time>2019-06-15T10:46:59Z</time>
      </trkpt>
      <trkpt lat="44.32099" lon="5.82855">
        <ele>579</ele>
        <time>2019-06-15T10:47:00Z</time>
      </trkpt>
      <trkpt lat="44.32092" lon="5.82852">
        <ele>578</ele>
        <time>2019-06-15T10:47:01Z</time>
      </trkpt>
      <trkpt lat="44.32084" lon="5.82848">
        <ele>577</ele>
        <time>2019-06-15T10:47:02Z</time>
      </trkpt>
      <trkpt lat="44.32077" lon="5.82844">
        <ele>576</ele>
        <time>2019-06-15T10:47:03Z</time>
      </trkpt>
      <trkpt lat="44.32069" lon="5.82841">
        <ele>575</ele>
        <time>2019-06-15T10:47:04Z</time>
      </trkpt>
      <trkpt lat="44.32062" lon="5.82836">
        <ele>574</ele>
        <time>2019-06-15T10:47:05Z</time>
      </trkpt>
      <trkpt lat="44.32053" lon="5.82832">
        <ele>573</ele>
        <time>2019-06-15T10:47:06Z</time>
      </trkpt>
      <trkpt lat="44.32046" lon="5.82827">
        <ele>572</ele>
        <time>2019-06-15T10:47:07Z</time>
      </trkpt>
      <trkpt lat="44.32037" lon="5.82821">
        <ele>571</ele>
        <time>2019-06-15T10:47:08Z</time>
      </trkpt>
      <trkpt lat="44.32029" lon="5.82815">
        <ele>570</ele>
        <time>2019-06-15T10:47:09Z</time>
      </trkpt>
      <trkpt lat="44.32021" lon="5.82809">
        <ele>570</ele>
        <time>2019-06-15T10:47:10Z</time>
      </trkpt>
      <trkpt lat="44.32013" lon="5.82804">
        <ele>569</ele>
        <time>2019-06-15T10:47:11Z</time>
      </trkpt>
      <trkpt lat="44.32004" lon="5.828">
        <ele>569</ele>
        <time>2019-06-15T10:47:12Z</time>
      </trkpt>
      <trkpt lat="44.31995" lon="5.82796">
        <ele>568</ele>
        <time>2019-06-15T10:47:13Z</time>
      </trkpt>
      <trkpt lat="44.31986" lon="5.82792">
        <ele>568</ele>
        <time>2019-06-15T10:47:14Z</time>
      </trkpt>
      <trkpt lat="44.31977" lon="5.82788">
        <ele>568</ele>
        <time>2019-06-15T10:47:15Z</time>
      </trkpt>
      <trkpt lat="44.31967" lon="5.82784">
        <ele>568</ele>
        <time>2019-06-15T10:47:16Z</time>
      </trkpt>
      <trkpt lat="44.31958" lon="5.8278">
        <ele>567</ele>
        <time>2019-06-15T10:47:17Z</time>
      </trkpt>
      <trkpt lat="44.31948" lon="5.82777">
        <ele>567</ele>
        <time>2019-06-15T10:47:18Z</time>
      </trkpt>
      <trkpt lat="44.31939" lon="5.82774">
        <ele>567</ele>
        <time>2019-06-15T10:47:19Z</time>
      </trkpt>
      <trkpt lat="44.31929" lon="5.82772">
        <ele>567</ele>
        <time>2019-06-15T10:47:20Z</time>
      </trkpt>
      <trkpt lat="44.3192" lon="5.82771">
        <ele>567</ele>
        <time>2019-06-15T10:47:21Z</time>
      </trkpt>
      <trkpt lat="44.31911" lon="5.8277">
        <ele>567</ele>
        <time>2019-06-15T10:47:22Z</time>
      </trkpt>
      <trkpt lat="44.31902" lon="5.8277">
        <ele>567</ele>
        <time>2019-06-15T10:47:23Z</time>
      </trkpt>
      <trkpt lat="44.31893" lon="5.8277">
        <ele>567</ele>
        <time>2019-06-15T10:47:24Z</time>
      </trkpt>
      <trkpt lat="44.31884" lon="5.82769">
        <ele>567</ele>
        <time>2019-06-15T10:47:25Z</time>
      </trkpt>
      <trkpt lat="44.31875" lon="5.82768">
        <ele>567</ele>
        <time>2019-06-15T10:47:26Z</time>
      </trkpt>
      <trkpt lat="44.31866" lon="5.82766">
        <ele>567</ele>
        <time>2019-06-15T10:47:27Z</time>
      </trkpt>
      <trkpt lat="44.31858" lon="5.82764">
        <ele>566</ele>
        <time>2019-06-15T10:47:28Z</time>
      </trkpt>
      <trkpt lat="44.31849" lon="5.8276">
        <ele>566</ele>
        <time>2019-06-15T10:47:29Z</time>
      </trkpt>
      <trkpt lat="44.31841" lon="5.82756">
        <ele>566</ele>
        <time>2019-06-15T10:47:30Z</time>
      </trkpt>
      <trkpt lat="44.31833" lon="5.82751">
        <ele>566</ele>
        <time>2019-06-15T10:47:31Z</time>
      </trkpt>
      <trkpt lat="44.31825" lon="5.82746">
        <ele>566</ele>
        <time>2019-06-15T10:47:32Z</time>
      </trkpt>
      <trkpt lat="44.31817" lon="5.82739">
        <ele>566</ele>
        <time>2019-06-15T10:47:33Z</time>
      </trkpt>
      <trkpt lat="44.31809" lon="5.82732">
        <ele>566</ele>
        <time>2019-06-15T10:47:34Z</time>
      </trkpt>
      <trkpt lat="44.31801" lon="5.82724">
        <ele>566</ele>
        <time>2019-06-15T10:47:35Z</time>
      </trkpt>
      <trkpt lat="44.31794" lon="5.82717">
        <ele>566</ele>
        <time>2019-06-15T10:47:36Z</time>
      </trkpt>
      <trkpt lat="44.31786" lon="5.82709">
        <ele>566</ele>
        <time>2019-06-15T10:47:37Z</time>
      </trkpt>
      <trkpt lat="44.31778" lon="5.82701">
        <ele>566</ele>
        <time>2019-06-15T10:47:38Z</time>
      </trkpt>
      <trkpt lat="44.31771" lon="5.82694">
        <ele>566</ele>
        <time>2019-06-15T10:47:39Z</time>
      </trkpt>
      <trkpt lat="44.31763" lon="5.82687">
        <ele>566</ele>
        <time>2019-06-15T10:47:40Z</time>
      </trkpt>
      <trkpt lat="44.31756" lon="5.82681">
        <ele>566</ele>
        <time>2019-06-15T10:47:41Z</time>
      </trkpt>
      <trkpt lat="44.31749" lon="5.82674">
        <ele>566</ele>
        <time>2019-06-15T10:47:42Z</time>
      </trkpt>
      <trkpt lat="44.31741" lon="5.82667">
        <ele>566</ele>
        <time>2019-06-15T10:47:43Z</time>
      </trkpt>
      <trkpt lat="44.31734" lon="5.8266">
        <ele>566</ele>
        <time>2019-06-15T10:47:44Z</time>
      </trkpt>
      <trkpt lat="44.31727" lon="5.82653">
        <ele>566</ele>
        <time>2019-06-15T10:47:45Z</time>
      </trkpt>
      <trkpt lat="44.3172" lon="5.82646">
        <ele>566</ele>
        <time>2019-06-15T10:47:46Z</time>
      </trkpt>
      <trkpt lat="44.31713" lon="5.8264">
        <ele>566</ele>
        <time>2019-06-15T10:47:47Z</time>
      </trkpt>
      <trkpt lat="44.31707" lon="5.82632">
        <ele>566</ele>
        <time>2019-06-15T10:47:48Z</time>
      </trkpt>
      <trkpt lat="44.31699" lon="5.82626">
        <ele>566</ele>
        <time>2019-06-15T10:47:49Z</time>
      </trkpt>
      <trkpt lat="44.31693" lon="5.82619">
        <ele>566</ele>
        <time>2019-06-15T10:47:50Z</time>
      </trkpt>
      <trkpt lat="44.31686" lon="5.82613">
        <ele>566</ele>
        <time>2019-06-15T10:47:51Z</time>
      </trkpt>
      <trkpt lat="44.31679" lon="5.82606">
        <ele>566</ele>
        <time>2019-06-15T10:47:52Z</time>
      </trkpt>
      <trkpt lat="44.31673" lon="5.826">
        <ele>566</ele>
        <time>2019-06-15T10:47:53Z</time>
      </trkpt>
      <trkpt lat="44.31667" lon="5.82593">
        <ele>566</ele>
        <time>2019-06-15T10:47:54Z</time>
      </trkpt>
      <trkpt lat="44.3166" lon="5.82586">
        <ele>566</ele>
        <time>2019-06-15T10:47:55Z</time>
      </trkpt>
      <trkpt lat="44.31654" lon="5.8258">
        <ele>566</ele>
        <time>2019-06-15T10:47:56Z</time>
      </trkpt>
      <trkpt lat="44.31648" lon="5.82574">
        <ele>566</ele>
        <time>2019-06-15T10:47:57Z</time>
      </trkpt>
      <trkpt lat="44.31642" lon="5.82568">
        <ele>566</ele>
        <time>2019-06-15T10:47:58Z</time>
      </trkpt>
      <trkpt lat="44.31636" lon="5.82562">
        <ele>566</ele>
        <time>2019-06-15T10:47:59Z</time>
      </trkpt>
      <trkpt lat="44.3163" lon="5.82556">
        <ele>566</ele>
        <time>2019-06-15T10:48:00Z</time>
      </trkpt>
      <trkpt lat="44.31624" lon="5.8255">
        <ele>566</ele>
        <time>2019-06-15T10:48:01Z</time>
      </trkpt>
      <trkpt lat="44.31617" lon="5.82545">
        <ele>566</ele>
        <time>2019-06-15T10:48:02Z</time>
      </trkpt>
      <trkpt lat="44.31612" lon="5.8254">
        <ele>566</ele>
        <time>2019-06-15T10:48:03Z</time>
      </trkpt>
      <trkpt lat="44.31606" lon="5.82535">
        <ele>566</ele>
        <time>2019-06-15T10:48:04Z</time>
      </trkpt>
      <trkpt lat="44.31601" lon="5.82529">
        <ele>566</ele>
        <time>2019-06-15T10:48:05Z</time>
      </trkpt>
      <trkpt lat="44.31596" lon="5.82524">
        <ele>566</ele>
        <time>2019-06-15T10:48:06Z</time>
      </trkpt>
      <trkpt lat="44.31591" lon="5.82519">
        <ele>566</ele>
        <time>2019-06-15T10:48:07Z</time>
      </trkpt>
      <trkpt lat="44.31585" lon="5.82514">
        <ele>566</ele>
        <time>2019-06-15T10:48:08Z</time>
      </trkpt>
      <trkpt lat="44.3158" lon="5.82509">
        <ele>566</ele>
        <time>2019-06-15T10:48:09Z</time>
      </trkpt>
      <trkpt lat="44.31575" lon="5.82503">
        <ele>566</ele>
        <time>2019-06-15T10:48:10Z</time>
      </trkpt>
      <trkpt lat="44.3157" lon="5.82498">
        <ele>566</ele>
        <time>2019-06-15T10:48:11Z</time>
      </trkpt>
      <trkpt lat="44.31565" lon="5.82491">
        <ele>567</ele>
        <time>2019-06-15T10:48:12Z</time>
      </trkpt>
      <trkpt lat="44.31559" lon="5.82485">
        <ele>567</ele>
        <time>2019-06-15T10:48:13Z</time>
      </trkpt>
      <trkpt lat="44.31554" lon="5.82479">
        <ele>567</ele>
        <time>2019-06-15T10:48:14Z</time>
      </trkpt>
      <trkpt lat="44.31549" lon="5.82474">
        <ele>567</ele>
        <time>2019-06-15T10:48:15Z</time>
      </trkpt>
      <trkpt lat="44.31544" lon="5.82468">
        <ele>567</ele>
        <time>2019-06-15T10:48:16Z</time>
      </trkpt>
      <trkpt lat="44.31539" lon="5.82462">
        <ele>567</ele>
        <time>2019-06-15T10:48:17Z</time>
      </trkpt>
      <trkpt lat="44.31534" lon="5.82456">
        <ele>567</ele>
        <time>2019-06-15T10:48:18Z</time>
      </trkpt>
      <trkpt lat="44.31529" lon="5.8245">
        <ele>567</ele>
        <time>2019-06-15T10:48:19Z</time>
      </trkpt>
      <trkpt lat="44.31524" lon="5.82445">
        <ele>567</ele>
        <time>2019-06-15T10:48:20Z</time>
      </trkpt>
      <trkpt lat="44.31519" lon="5.8244">
        <ele>567</ele>
        <time>2019-06-15T10:48:21Z</time>
      </trkpt>
      <trkpt lat="44.31514" lon="5.82436">
        <ele>567</ele>
        <time>2019-06-15T10:48:22Z</time>
      </trkpt>
      <trkpt lat="44.31509" lon="5.82432">
        <ele>567</ele>
        <time>2019-06-15T10:48:23Z</time>
      </trkpt>
      <trkpt lat="44.31504" lon="5.82427">
        <ele>567</ele>
        <time>2019-06-15T10:48:24Z</time>
      </trkpt>
      <trkpt lat="44.31499" lon="5.82421">
        <ele>567</ele>
        <time>2019-06-15T10:48:25Z</time>
      </trkpt>
      <trkpt lat="44.31494" lon="5.82416">
        <ele>567</ele>
        <time>2019-06-15T10:48:26Z</time>
      </trkpt>
      <trkpt lat="44.31489" lon="5.82411">
        <ele>567</ele>
        <time>2019-06-15T10:48:27Z</time>
      </trkpt>
      <trkpt lat="44.31485" lon="5.82406">
        <ele>567</ele>
        <time>2019-06-15T10:48:28Z</time>
      </trkpt>
      <trkpt lat="44.31481" lon="5.82402">
        <ele>567</ele>
        <time>2019-06-15T10:48:29Z</time>
      </trkpt>
      <trkpt lat="44.31477" lon="5.82397">
        <ele>567</ele>
        <time>2019-06-15T10:48:30Z</time>
      </trkpt>
      <trkpt lat="44.31473" lon="5.82393">
        <ele>567</ele>
        <time>2019-06-15T10:48:31Z</time>
      </trkpt>
      <trkpt lat="44.31469" lon="5.82389">
        <ele>568</ele>
        <time>2019-06-15T10:48:32Z</time>
      </trkpt>
      <trkpt lat="44.31466" lon="5.82385">
        <ele>569</ele>
        <time>2019-06-15T10:48:33Z</time>
      </trkpt>
      <trkpt lat="44.31463" lon="5.82382">
        <ele>569</ele>
        <time>2019-06-15T10:48:34Z</time>
      </trkpt>
      <trkpt lat="44.31459" lon="5.82378">
        <ele>570</ele>
        <time>2019-06-15T10:48:35Z</time>
      </trkpt>
      <trkpt lat="44.31456" lon="5.82375">
        <ele>570</ele>
        <time>2019-06-15T10:48:36Z</time>
      </trkpt>
      <trkpt lat="44.31453" lon="5.82373">
        <ele>571</ele>
        <time>2019-06-15T10:48:37Z</time>
      </trkpt>
      <trkpt lat="44.3145" lon="5.8237">
        <ele>572</ele>
        <time>2019-06-15T10:48:38Z</time>
      </trkpt>
      <trkpt lat="44.31448" lon="5.82368">
        <ele>572</ele>
        <time>2019-06-15T10:48:39Z</time>
      </trkpt>
      <trkpt lat="44.31446" lon="5.82365">
        <ele>572</ele>
        <time>2019-06-15T10:48:40Z</time>
      </trkpt>
      <trkpt lat="44.31444" lon="5.82363">
        <ele>573</ele>
        <time>2019-06-15T10:48:41Z</time>
      </trkpt>
      <trkpt lat="44.31442" lon="5.82361">
        <ele>573</ele>
        <time>2019-06-15T10:48:42Z</time>
      </trkpt>
      <trkpt lat="44.31441" lon="5.82358">
        <ele>573</ele>
        <time>2019-06-15T10:48:43Z</time>
      </trkpt>
      <trkpt lat="44.31442" lon="5.8236">
        <ele>574</ele>
        <time>2019-06-15T10:48:49Z</time>
      </trkpt>
      <trkpt lat="44.31441" lon="5.82362">
        <ele>575</ele>
        <time>2019-06-15T10:48:53Z</time>
      </trkpt>
      <trkpt lat="44.3144" lon="5.82363">
        <ele>575</ele>
        <time>2019-06-15T10:48:54Z</time>
      </trkpt>
      <trkpt lat="44.31439" lon="5.82366">
        <ele>575</ele>
        <time>2019-06-15T10:48:55Z</time>
      </trkpt>
      <trkpt lat="44.31439" lon="5.82369">
        <ele>576</ele>
        <time>2019-06-15T10:48:56Z</time>
      </trkpt>
      <trkpt lat="44.31439" lon="5.82373">
        <ele>576</ele>
        <time>2019-06-15T10:48:57Z</time>
      </trkpt>
      <trkpt lat="44.31439" lon="5.82377">
        <ele>576</ele>
        <time>2019-06-15T10:48:58Z</time>
      </trkpt>
      <trkpt lat="44.3144" lon="5.82382">
        <ele>576</ele>
        <time>2019-06-15T10:48:59Z</time>
      </trkpt>
      <trkpt lat="44.3144" lon="5.82388">
        <ele>577</ele>
        <time>2019-06-15T10:49:00Z</time>
      </trkpt>
      <trkpt lat="44.3144" lon="5.82394">
        <ele>577</ele>
        <time>2019-06-15T10:49:01Z</time>
      </trkpt>
      <trkpt lat="44.3144" lon="5.824">
        <ele>577</ele>
        <time>2019-06-15T10:49:02Z</time>
      </trkpt>
      <trkpt lat="44.31441" lon="5.82406">
        <ele>577</ele>
        <time>2019-06-15T10:49:03Z</time>
      </trkpt>
      <trkpt lat="44.31442" lon="5.82413">
        <ele>578</ele>
        <time>2019-06-15T10:49:04Z</time>
      </trkpt>
      <trkpt lat="44.31441" lon="5.82419">
        <ele>578</ele>
        <time>2019-06-15T10:49:05Z</time>
      </trkpt>
      <trkpt lat="44.31441" lon="5.82426">
        <ele>578</ele>
        <time>2019-06-15T10:49:06Z</time>
      </trkpt>
      <trkpt lat="44.3144" lon="5.82434">
        <ele>578</ele>
        <time>2019-06-15T10:49:07Z</time>
      </trkpt>
      <trkpt lat="44.3144" lon="5.82441">
        <ele>578</ele>
        <time>2019-06-15T10:49:08Z</time>
      </trkpt>
      <trkpt lat="44.31438" lon="5.82449">
        <ele>578</ele>
        <time>2019-06-15T10:49:09Z</time>
      </trkpt>
      <trkpt lat="44.31436" lon="5.82456">
        <ele>578</ele>
        <time>2019-06-15T10:49:10Z</time>
      </trkpt>
      <trkpt lat="44.31435" lon="5.82464">
        <ele>578</ele>
        <time>2019-06-15T10:49:11Z</time>
      </trkpt>
      <trkpt lat="44.31433" lon="5.8247">
        <ele>578</ele>
        <time>2019-06-15T10:49:12Z</time>
      </trkpt>
      <trkpt lat="44.31432" lon="5.82477">
        <ele>578</ele>
        <time>2019-06-15T10:49:13Z</time>
      </trkpt>
      <trkpt lat="44.3143" lon="5.82484">
        <ele>578</ele>
        <time>2019-06-15T10:49:14Z</time>
      </trkpt>
      <trkpt lat="44.31428" lon="5.82492">
        <ele>578</ele>
        <time>2019-06-15T10:49:15Z</time>
      </trkpt>
      <trkpt lat="44.31427" lon="5.82499">
        <ele>578</ele>
        <time>2019-06-15T10:49:16Z</time>
      </trkpt>
      <trkpt lat="44.31425" lon="5.82507">
        <ele>578</ele>
        <time>2019-06-15T10:49:17Z</time>
      </trkpt>
      <trkpt lat="44.31424" lon="5.82514">
        <ele>578</ele>
        <time>2019-06-15T10:49:18Z</time>
      </trkpt>
      <trkpt lat="44.31423" lon="5.82521">
        <ele>578</ele>
        <time>2019-06-15T10:49:19Z</time>
      </trkpt>
      <trkpt lat="44.31421" lon="5.82529">
        <ele>578</ele>
        <time>2019-06-15T10:49:20Z</time>
      </trkpt>
      <trkpt lat="44.31419" lon="5.82537">
        <ele>578</ele>
        <time>2019-06-15T10:49:21Z</time>
      </trkpt>
      <trkpt lat="44.31417" lon="5.82545">
        <ele>578</ele>
        <time>2019-06-15T10:49:22Z</time>
      </trkpt>
      <trkpt lat="44.31416" lon="5.82552">
        <ele>578</ele>
        <time>2019-06-15T10:49:23Z</time>
      </trkpt>
      <trkpt lat="44.31415" lon="5.82559">
        <ele>578</ele>
        <time>2019-06-15T10:49:24Z</time>
      </trkpt>
      <trkpt lat="44.31414" lon="5.82566">
        <ele>578</ele>
        <time>2019-06-15T10:49:25Z</time>
      </trkpt>
      <trkpt lat="44.31413" lon="5.82573">
        <ele>578</ele>
        <time>2019-06-15T10:49:26Z</time>
      </trkpt>
      <trkpt lat="44.31411" lon="5.8258">
        <ele>577</ele>
        <time>2019-06-15T10:49:27Z</time>
      </trkpt>
      <trkpt lat="44.3141" lon="5.82587">
        <ele>576</ele>
        <time>2019-06-15T10:49:28Z</time>
      </trkpt>
      <trkpt lat="44.31408" lon="5.82595">
        <ele>575</ele>
        <time>2019-06-15T10:49:29Z</time>
      </trkpt>
      <trkpt lat="44.31406" lon="5.82603">
        <ele>574</ele>
        <time>2019-06-15T10:49:30Z</time>
      </trkpt>
      <trkpt lat="44.31404" lon="5.82611">
        <ele>574</ele>
        <time>2019-06-15T10:49:31Z</time>
      </trkpt>
      <trkpt lat="44.31402" lon="5.82618">
        <ele>574</ele>
        <time>2019-06-15T10:49:32Z</time>
      </trkpt>
      <trkpt lat="44.314" lon="5.82625">
        <ele>574</ele>
        <time>2019-06-15T10:49:33Z</time>
      </trkpt>
      <trkpt lat="44.31398" lon="5.82632">
        <ele>574</ele>
        <time>2019-06-15T10:49:34Z</time>
      </trkpt>
      <trkpt lat="44.31395" lon="5.8264">
        <ele>574</ele>
        <time>2019-06-15T10:49:35Z</time>
      </trkpt>
      <trkpt lat="44.31391" lon="5.82647">
        <ele>574</ele>
        <time>2019-06-15T10:49:36Z</time>
      </trkpt>
      <trkpt lat="44.31388" lon="5.82654">
        <ele>574</ele>
        <time>2019-06-15T10:49:37Z</time>
      </trkpt>
      <trkpt lat="44.31384" lon="5.8266">
        <ele>574</ele>
        <time>2019-06-15T10:49:38Z</time>
      </trkpt>
      <trkpt lat="44.3138" lon="5.82666">
        <ele>574</ele>
        <time>2019-06-15T10:49:39Z</time>
      </trkpt>
      <trkpt lat="44.31377" lon="5.82672">
        <ele>574</ele>
        <time>2019-06-15T10:49:40Z</time>
      </trkpt>
      <trkpt lat="44.31373" lon="5.82678">
        <ele>573</ele>
        <time>2019-06-15T10:49:41Z</time>
      </trkpt>
      <trkpt lat="44.31369" lon="5.82683">
        <ele>573</ele>
        <time>2019-06-15T10:49:42Z</time>
      </trkpt>
      <trkpt lat="44.31366" lon="5.82688">
        <ele>573</ele>
        <time>2019-06-15T10:49:43Z</time>
      </trkpt>
      <trkpt lat="44.31363" lon="5.82693">
        <ele>573</ele>
        <time>2019-06-15T10:49:44Z</time>
      </trkpt>
      <trkpt lat="44.31361" lon="5.82699">
        <ele>573</ele>
        <time>2019-06-15T10:49:45Z</time>
      </trkpt>
      <trkpt lat="44.31361" lon="5.82706">
        <ele>573</ele>
        <time>2019-06-15T10:49:46Z</time>
      </trkpt>
      <trkpt lat="44.31363" lon="5.82711">
        <ele>573</ele>
        <time>2019-06-15T10:49:47Z</time>
      </trkpt>
      <trkpt lat="44.31367" lon="5.82717">
        <ele>573</ele>
        <time>2019-06-15T10:49:48Z</time>
      </trkpt>
      <trkpt lat="44.3137" lon="5.82722">
        <ele>573</ele>
        <time>2019-06-15T10:49:49Z</time>
      </trkpt>
      <trkpt lat="44.31372" lon="5.82729">
        <ele>573</ele>
        <time>2019-06-15T10:49:50Z</time>
      </trkpt>
      <trkpt lat="44.31372" lon="5.82737">
        <ele>573</ele>
        <time>2019-06-15T10:49:51Z</time>
      </trkpt>
      <trkpt lat="44.31373" lon="5.82745">
        <ele>573</ele>
        <time>2019-06-15T10:49:52Z</time>
      </trkpt>
      <trkpt lat="44.31373" lon="5.82753">
        <ele>573</ele>
        <time>2019-06-15T10:49:53Z</time>
      </trkpt>
      <trkpt lat="44.31374" lon="5.82761">
        <ele>573</ele>
        <time>2019-06-15T10:49:54Z</time>
      </trkpt>
      <trkpt lat="44.31374" lon="5.82769">
        <ele>573</ele>
        <time>2019-06-15T10:49:55Z</time>
      </trkpt>
      <trkpt lat="44.31374" lon="5.82777">
        <ele>573</ele>
        <time>2019-06-15T10:49:56Z</time>
      </trkpt>
      <trkpt lat="44.31374" lon="5.82785">
        <ele>573</ele>
        <time>2019-06-15T10:49:57Z</time>
      </trkpt>
      <trkpt lat="44.31374" lon="5.82793">
        <ele>573</ele>
        <time>2019-06-15T10:49:58Z</time>
      </trkpt>
      <trkpt lat="44.31374" lon="5.82802">
        <ele>573</ele>
        <time>2019-06-15T10:49:59Z</time>
      </trkpt>
      <trkpt lat="44.31372" lon="5.82809">
        <ele>573</ele>
        <time>2019-06-15T10:50:00Z</time>
      </trkpt>
      <trkpt lat="44.31372" lon="5.82817">
        <ele>573</ele>
        <time>2019-06-15T10:50:01Z</time>
      </trkpt>
      <trkpt lat="44.31371" lon="5.82825">
        <ele>572</ele>
        <time>2019-06-15T10:50:02Z</time>
      </trkpt>
      <trkpt lat="44.3137" lon="5.82834">
        <ele>572</ele>
        <time>2019-06-15T10:50:03Z</time>
      </trkpt>
      <trkpt lat="44.31369" lon="5.82842">
        <ele>571</ele>
        <time>2019-06-15T10:50:04Z</time>
      </trkpt>
      <trkpt lat="44.31368" lon="5.8285">
        <ele>571</ele>
        <time>2019-06-15T10:50:05Z</time>
      </trkpt>
      <trkpt lat="44.31366" lon="5.82859">
        <ele>570</ele>
        <time>2019-06-15T10:50:06Z</time>
      </trkpt>
      <trkpt lat="44.31366" lon="5.82867">
        <ele>570</ele>
        <time>2019-06-15T10:50:07Z</time>
      </trkpt>
      <trkpt lat="44.31366" lon="5.82874">
        <ele>569</ele>
        <time>2019-06-15T10:50:08Z</time>
      </trkpt>
      <trkpt lat="44.31365" lon="5.82882">
        <ele>568</ele>
        <time>2019-06-15T10:50:09Z</time>
      </trkpt>
      <trkpt lat="44.31365" lon="5.8289">
        <ele>568</ele>
        <time>2019-06-15T10:50:10Z</time>
      </trkpt>
      <trkpt lat="44.31364" lon="5.82899">
        <ele>568</ele>
        <time>2019-06-15T10:50:11Z</time>
      </trkpt>
      <trkpt lat="44.31363" lon="5.82907">
        <ele>568</ele>
        <time>2019-06-15T10:50:12Z</time>
      </trkpt>
      <trkpt lat="44.31362" lon="5.82916">
        <ele>568</ele>
        <time>2019-06-15T10:50:13Z</time>
      </trkpt>
      <trkpt lat="44.31361" lon="5.82925">
        <ele>568</ele>
        <time>2019-06-15T10:50:14Z</time>
      </trkpt>
      <trkpt lat="44.3136" lon="5.82933">
        <ele>568</ele>
        <time>2019-06-15T10:50:15Z</time>
      </trkpt>
      <trkpt lat="44.31359" lon="5.8294">
        <ele>568</ele>
        <time>2019-06-15T10:50:16Z</time>
      </trkpt>
      <trkpt lat="44.31359" lon="5.82948">
        <ele>568</ele>
        <time>2019-06-15T10:50:17Z</time>
      </trkpt>
      <trkpt lat="44.31358" lon="5.82957">
        <ele>568</ele>
        <time>2019-06-15T10:50:18Z</time>
      </trkpt>
      <trkpt lat="44.31358" lon="5.82965">
        <ele>568</ele>
        <time>2019-06-15T10:50:19Z</time>
      </trkpt>
      <trkpt lat="44.31357" lon="5.82973">
        <ele>568</ele>
        <time>2019-06-15T10:50:20Z</time>
      </trkpt>
      <trkpt lat="44.31356" lon="5.82982">
        <ele>568</ele>
        <time>2019-06-15T10:50:21Z</time>
      </trkpt>
      <trkpt lat="44.31354" lon="5.8299">
        <ele>568</ele>
        <time>2019-06-15T10:50:22Z</time>
      </trkpt>
      <trkpt lat="44.31353" lon="5.82997">
        <ele>568</ele>
        <time>2019-06-15T10:50:23Z</time>
      </trkpt>
      <trkpt lat="44.31351" lon="5.83005">
        <ele>568</ele>
        <time>2019-06-15T10:50:24Z</time>
      </trkpt>
      <trkpt lat="44.3135" lon="5.83012">
        <ele>568</ele>
        <time>2019-06-15T10:50:25Z</time>
      </trkpt>
      <trkpt lat="44.31349" lon="5.8302">
        <ele>568</ele>
        <time>2019-06-15T10:50:26Z</time>
      </trkpt>
      <trkpt lat="44.31347" lon="5.83028">
        <ele>568</ele>
        <time>2019-06-15T10:50:27Z</time>
      </trkpt>
      <trkpt lat="44.31346" lon="5.83036">
        <ele>568</ele>
        <time>2019-06-15T10:50:28Z</time>
      </trkpt>
      <trkpt lat="44.31344" lon="5.83043">
        <ele>568</ele>
        <time>2019-06-15T10:50:29Z</time>
      </trkpt>
      <trkpt lat="44.31343" lon="5.83051">
        <ele>568</ele>
        <time>2019-06-15T10:50:30Z</time>
      </trkpt>
      <trkpt lat="44.31342" lon="5.83058">
        <ele>568</ele>
        <time>2019-06-15T10:50:31Z</time>
      </trkpt>
      <trkpt lat="44.31341" lon="5.83065">
        <ele>568</ele>
        <time>2019-06-15T10:50:32Z</time>
      </trkpt>
      <trkpt lat="44.3134" lon="5.83072">
        <ele>568</ele>
        <time>2019-06-15T10:50:33Z</time>
      </trkpt>
      <trkpt lat="44.31339" lon="5.83078">
        <ele>568</ele>
        <time>2019-06-15T10:50:34Z</time>
      </trkpt>
      <trkpt lat="44.31338" lon="5.83085">
        <ele>568</ele>
        <time>2019-06-15T10:50:35Z</time>
      </trkpt>
      <trkpt lat="44.31339" lon="5.83092">
        <ele>568</ele>
        <time>2019-06-15T10:50:36Z</time>
      </trkpt>
      <trkpt lat="44.31341" lon="5.83099">
        <ele>568</ele>
        <time>2019-06-15T10:50:37Z</time>
      </trkpt>
      <trkpt lat="44.31343" lon="5.83103">
        <ele>568</ele>
        <time>2019-06-15T10:50:38Z</time>
      </trkpt>
      <trkpt lat="44.31347" lon="5.83105">
        <ele>568</ele>
        <time>2019-06-15T10:50:39Z</time>
      </trkpt>
      <trkpt lat="44.3135" lon="5.83105">
        <ele>568</ele>
        <time>2019-06-15T10:50:40Z</time>
      </trkpt>
      <trkpt lat="44.31354" lon="5.83101">
        <ele>568</ele>
        <time>2019-06-15T10:50:41Z</time>
      </trkpt>
      <trkpt lat="44.31357" lon="5.83095">
        <ele>568</ele>
        <time>2019-06-15T10:50:42Z</time>
      </trkpt>
      <trkpt lat="44.3136" lon="5.83088">
        <ele>568</ele>
        <time>2019-06-15T10:50:43Z</time>
      </trkpt>
      <trkpt lat="44.31362" lon="5.83082">
        <ele>568</ele>
        <time>2019-06-15T10:50:44Z</time>
      </trkpt>
      <trkpt lat="44.31365" lon="5.83077">
        <ele>568</ele>
        <time>2019-06-15T10:50:45Z</time>
      </trkpt>
      <trkpt lat="44.31368" lon="5.83071">
        <ele>568</ele>
        <time>2019-06-15T10:50:46Z</time>
      </trkpt>
      <trkpt lat="44.31371" lon="5.83065">
        <ele>568</ele>
        <time>2019-06-15T10:50:47Z</time>
      </trkpt>
      <trkpt lat="44.31374" lon="5.83059">
        <ele>568</ele>
        <time>2019-06-15T10:50:48Z</time>
      </trkpt>
      <trkpt lat="44.31377" lon="5.83053">
        <ele>568</ele>
        <time>2019-06-15T10:50:49Z</time>
      </trkpt>
      <trkpt lat="44.3138" lon="5.83048">
        <ele>568</ele>
        <time>2019-06-15T10:50:50Z</time>
      </trkpt>
      <trkpt lat="44.31384" lon="5.83042">
        <ele>568</ele>
        <time>2019-06-15T10:50:51Z</time>
      </trkpt>
      <trkpt lat="44.31388" lon="5.83036">
        <ele>568</ele>
        <time>2019-06-15T10:50:52Z</time>
      </trkpt>
      <trkpt lat="44.31393" lon="5.8303">
        <ele>568</ele>
        <time>2019-06-15T10:50:53Z</time>
      </trkpt>
      <trkpt lat="44.31398" lon="5.83024">
        <ele>568</ele>
        <time>2019-06-15T10:50:54Z</time>
      </trkpt>
      <trkpt lat="44.31402" lon="5.83017">
        <ele>568</ele>
        <time>2019-06-15T10:50:55Z</time>
      </trkpt>
      <trkpt lat="44.31407" lon="5.8301">
        <ele>568</ele>
        <time>2019-06-15T10:50:56Z</time>
      </trkpt>
      <trkpt lat="44.31411" lon="5.83003">
        <ele>568</ele>
        <time>2019-06-15T10:50:57Z</time>
      </trkpt>
      <trkpt lat="44.31415" lon="5.82997">
        <ele>568</ele>
        <time>2019-06-15T10:50:58Z</time>
      </trkpt>
      <trkpt lat="44.31419" lon="5.82991">
        <ele>568</ele>
        <time>2019-06-15T10:50:59Z</time>
      </trkpt>
      <trkpt lat="44.31424" lon="5.82984">
        <ele>568</ele>
        <time>2019-06-15T10:51:00Z</time>
      </trkpt>
      <trkpt lat="44.31427" lon="5.82978">
        <ele>568</ele>
        <time>2019-06-15T10:51:01Z</time>
      </trkpt>
      <trkpt lat="44.31432" lon="5.82972">
        <ele>568</ele>
        <time>2019-06-15T10:51:02Z</time>
      </trkpt>
      <trkpt lat="44.31436" lon="5.82966">
        <ele>568</ele>
        <time>2019-06-15T10:51:03Z</time>
      </trkpt>
      <trkpt lat="44.3144" lon="5.8296">
        <ele>568</ele>
        <time>2019-06-15T10:51:04Z</time>
      </trkpt>
      <trkpt lat="44.31444" lon="5.82955">
        <ele>568</ele>
        <time>2019-06-15T10:51:05Z</time>
      </trkpt>
      <trkpt lat="44.31448" lon="5.82948">
        <ele>568</ele>
        <time>2019-06-15T10:51:06Z</time>
      </trkpt>
      <trkpt lat="44.31452" lon="5.82943">
        <ele>568</ele>
        <time>2019-06-15T10:51:07Z</time>
      </trkpt>
      <trkpt lat="44.31456" lon="5.82937">
        <ele>568</ele>
        <time>2019-06-15T10:51:08Z</time>
      </trkpt>
      <trkpt lat="44.31461" lon="5.82932">
        <ele>568</ele>
        <time>2019-06-15T10:51:09Z</time>
      </trkpt>
      <trkpt lat="44.31465" lon="5.82926">
        <ele>568</ele>
        <time>2019-06-15T10:51:10Z</time>
      </trkpt>
      <trkpt lat="44.31469" lon="5.8292">
        <ele>568</ele>
        <time>2019-06-15T10:51:11Z</time>
      </trkpt>
      <trkpt lat="44.31472" lon="5.82914">
        <ele>568</ele>
        <time>2019-06-15T10:51:12Z</time>
      </trkpt>
      <trkpt lat="44.31477" lon="5.82908">
        <ele>568</ele>
        <time>2019-06-15T10:51:13Z</time>
      </trkpt>
      <trkpt lat="44.31481" lon="5.82901">
        <ele>568</ele>
        <time>2019-06-15T10:51:14Z</time>
      </trkpt>
      <trkpt lat="44.31485" lon="5.82895">
        <ele>568</ele>
        <time>2019-06-15T10:51:15Z</time>
      </trkpt>
      <trkpt lat="44.31489" lon="5.82889">
        <ele>568</ele>
        <time>2019-06-15T10:51:16Z</time>
      </trkpt>
      <trkpt lat="44.31493" lon="5.82883">
        <ele>568</ele>
        <time>2019-06-15T10:51:17Z</time>
      </trkpt>
      <trkpt lat="44.31497" lon="5.82877">
        <ele>568</ele>
        <time>2019-06-15T10:51:18Z</time>
      </trkpt>
      <trkpt lat="44.31502" lon="5.82873">
        <ele>568</ele>
        <time>2019-06-15T10:51:19Z</time>
      </trkpt>
      <trkpt lat="44.31508" lon="5.82872">
        <ele>568</ele>
        <time>2019-06-15T10:51:20Z</time>
      </trkpt>
      <trkpt lat="44.31513" lon="5.82873">
        <ele>568</ele>
        <time>2019-06-15T10:51:21Z</time>
      </trkpt>
      <trkpt lat="44.31517" lon="5.82877">
        <ele>568</ele>
        <time>2019-06-15T10:51:22Z</time>
      </trkpt>
      <trkpt lat="44.31522" lon="5.82881">
        <ele>568</ele>
        <time>2019-06-15T10:51:23Z</time>
      </trkpt>
      <trkpt lat="44.31525" lon="5.82886">
        <ele>568</ele>
        <time>2019-06-15T10:51:24Z</time>
      </trkpt>
      <trkpt lat="44.31529" lon="5.82891">
        <ele>568</ele>
        <time>2019-06-15T10:51:25Z</time>
      </trkpt>
      <trkpt lat="44.31533" lon="5.82895">
        <ele>568</ele>
        <time>2019-06-15T10:51:26Z</time>
      </trkpt>
      <trkpt lat="44.31536" lon="5.82899">
        <ele>568</ele>
        <time>2019-06-15T10:51:27Z</time>
      </trkpt>
      <trkpt lat="44.3154" lon="5.82902">
        <ele>568</ele>
        <time>2019-06-15T10:51:28Z</time>
      </trkpt>
      <trkpt lat="44.31544" lon="5.82906">
        <ele>568</ele>
        <time>2019-06-15T10:51:29Z</time>
      </trkpt>
      <trkpt lat="44.31548" lon="5.8291">
        <ele>568</ele>
        <time>2019-06-15T10:51:30Z</time>
      </trkpt>
      <trkpt lat="44.31553" lon="5.82913">
        <ele>568</ele>
        <time>2019-06-15T10:51:31Z</time>
      </trkpt>
      <trkpt lat="44.31557" lon="5.82916">
        <ele>568</ele>
        <time>2019-06-15T10:51:32Z</time>
      </trkpt>
      <trkpt lat="44.31561" lon="5.82919">
        <ele>568</ele>
        <time>2019-06-15T10:51:33Z</time>
      </trkpt>
      <trkpt lat="44.31565" lon="5.82923">
        <ele>568</ele>
        <time>2019-06-15T10:51:34Z</time>
      </trkpt>
      <trkpt lat="44.3157" lon="5.82926">
        <ele>568</ele>
        <time>2019-06-15T10:51:35Z</time>
      </trkpt>
      <trkpt lat="44.31574" lon="5.82929">
        <ele>568</ele>
        <time>2019-06-15T10:51:36Z</time>
      </trkpt>
      <trkpt lat="44.31579" lon="5.82931">
        <ele>568</ele>
        <time>2019-06-15T10:51:37Z</time>
      </trkpt>
      <trkpt lat="44.31583" lon="5.82933">
        <ele>568</ele>
        <time>2019-06-15T10:51:38Z</time>
      </trkpt>
      <trkpt lat="44.31587" lon="5.82935">
        <ele>568</ele>
        <time>2019-06-15T10:51:39Z</time>
      </trkpt>
      <trkpt lat="44.3159" lon="5.82938">
        <ele>568</ele>
        <time>2019-06-15T10:51:40Z</time>
      </trkpt>
      <trkpt lat="44.31593" lon="5.8294">
        <ele>568</ele>
        <time>2019-06-15T10:51:41Z</time>
      </trkpt>
      <trkpt lat="44.31596" lon="5.82942">
        <ele>568</ele>
        <time>2019-06-15T10:51:42Z</time>
      </trkpt>
      <trkpt lat="44.31598" lon="5.82944">
        <ele>568</ele>
        <time>2019-06-15T10:51:43Z</time>
      </trkpt>
      <trkpt lat="44.316" lon="5.82947">
        <ele>568</ele>
        <time>2019-06-15T10:51:44Z</time>
      </trkpt>
      <trkpt lat="44.31601" lon="5.8295">
        <ele>569</ele>
        <time>2019-06-15T10:51:45Z</time>
      </trkpt>
      <trkpt lat="44.31602" lon="5.82954">
        <ele>570</ele>
        <time>2019-06-15T10:51:46Z</time>
      </trkpt>
      <trkpt lat="44.31602" lon="5.82957">
        <ele>570</ele>
        <time>2019-06-15T10:51:47Z</time>
      </trkpt>
      <trkpt lat="44.31601" lon="5.8296">
        <ele>570</ele>
        <time>2019-06-15T10:51:48Z</time>
      </trkpt>
      <trkpt lat="44.31601" lon="5.82962">
        <ele>571</ele>
        <time>2019-06-15T10:51:49Z</time>
      </trkpt>
      <trkpt lat="44.316" lon="5.82964">
        <ele>571</ele>
        <time>2019-06-15T10:51:50Z</time>
      </trkpt>
      <trkpt lat="44.31601" lon="5.82965">
        <ele>572</ele>
        <time>2019-06-15T10:51:58Z</time>
      </trkpt>
      <trkpt lat="44.31603" lon="5.82967">
        <ele>572</ele>
        <time>2019-06-15T10:52:01Z</time>
      </trkpt>
      <trkpt lat="44.31603" lon="5.82966">
        <ele>573</ele>
        <time>2019-06-15T10:52:03Z</time>
      </trkpt>
    </trkseg>
  </trk>
</gpx>